<?xml version="1.0" encoding="UTF-8" standalone="no" ?>
<gpx xmlns="http://www.topografix.com/GPX/1/1" xmlns:xsi="http://www.w3.org/2001/XMLSchema-instance" xsi:schemaLocation="http://www.topografix.com/GPX/1/1 http://www.topografix.com/GPX/1/1/gpx.xsd" version="1.1" creator="VisuGPX - https://www.visugpx.com">
  <metadata>
    <name>Marmotte 2012 Jean-Marc Balvay</name>
    <desc><![CDATA[Marmotte 2012 tout simplement]]></desc>
  </metadata>
  <trk>
    <name><![CDATA[Marmotte 2012 Jean-Marc Balvay_1]]></name>
    <trkseg>
      <trkpt lat="45.0548" lon="6.02996">
        <ele>728</ele>
        <time>2012-07-07T07:01:34Z</time>
      </trkpt>
      <trkpt lat="45.0548" lon="6.02996">
        <ele>728</ele>
        <time>2012-07-07T07:01:39Z</time>
      </trkpt>
      <trkpt lat="45.0548" lon="6.02996">
        <ele>728</ele>
        <time>2012-07-07T07:01:44Z</time>
      </trkpt>
      <trkpt lat="45.0548" lon="6.02996">
        <ele>728</ele>
        <time>2012-07-07T07:01:49Z</time>
      </trkpt>
      <trkpt lat="45.0548" lon="6.02996">
        <ele>728</ele>
        <time>2012-07-07T07:01:54Z</time>
      </trkpt>
      <trkpt lat="45.05479" lon="6.02996">
        <ele>728</ele>
        <time>2012-07-07T07:01:59Z</time>
      </trkpt>
      <trkpt lat="45.05479" lon="6.02996">
        <ele>728</ele>
        <time>2012-07-07T07:02:04Z</time>
      </trkpt>
      <trkpt lat="45.05478" lon="6.02997">
        <ele>728</ele>
        <time>2012-07-07T07:02:09Z</time>
      </trkpt>
      <trkpt lat="45.05478" lon="6.02997">
        <ele>728</ele>
        <time>2012-07-07T07:02:14Z</time>
      </trkpt>
      <trkpt lat="45.05478" lon="6.02997">
        <ele>728</ele>
        <time>2012-07-07T07:02:19Z</time>
      </trkpt>
      <trkpt lat="45.05478" lon="6.02997">
        <ele>728</ele>
        <time>2012-07-07T07:02:24Z</time>
      </trkpt>
      <trkpt lat="45.05478" lon="6.02997">
        <ele>728</ele>
        <time>2012-07-07T07:02:29Z</time>
      </trkpt>
      <trkpt lat="45.05478" lon="6.02998">
        <ele>728</ele>
        <time>2012-07-07T07:02:34Z</time>
      </trkpt>
      <trkpt lat="45.05477" lon="6.02997">
        <ele>728</ele>
        <time>2012-07-07T07:02:39Z</time>
      </trkpt>
      <trkpt lat="45.05476" lon="6.02996">
        <ele>728</ele>
        <time>2012-07-07T07:02:44Z</time>
      </trkpt>
      <trkpt lat="45.05476" lon="6.02996">
        <ele>728</ele>
        <time>2012-07-07T07:02:49Z</time>
      </trkpt>
      <trkpt lat="45.05477" lon="6.02996">
        <ele>728</ele>
        <time>2012-07-07T07:02:54Z</time>
      </trkpt>
      <trkpt lat="45.05476" lon="6.02995">
        <ele>728</ele>
        <time>2012-07-07T07:02:59Z</time>
      </trkpt>
      <trkpt lat="45.05475" lon="6.02996">
        <ele>728</ele>
        <time>2012-07-07T07:03:04Z</time>
      </trkpt>
      <trkpt lat="45.05475" lon="6.02997">
        <ele>728</ele>
        <time>2012-07-07T07:03:09Z</time>
      </trkpt>
      <trkpt lat="45.05475" lon="6.02994">
        <ele>728</ele>
        <time>2012-07-07T07:03:14Z</time>
      </trkpt>
      <trkpt lat="45.05474" lon="6.02994">
        <ele>728</ele>
        <time>2012-07-07T07:03:19Z</time>
      </trkpt>
      <trkpt lat="45.05475" lon="6.02995">
        <ele>728</ele>
        <time>2012-07-07T07:03:24Z</time>
      </trkpt>
      <trkpt lat="45.05476" lon="6.02992">
        <ele>728</ele>
        <time>2012-07-07T07:03:29Z</time>
      </trkpt>
      <trkpt lat="45.05477" lon="6.02992">
        <ele>728</ele>
        <time>2012-07-07T07:03:34Z</time>
      </trkpt>
      <trkpt lat="45.05478" lon="6.02993">
        <ele>728</ele>
        <time>2012-07-07T07:03:39Z</time>
      </trkpt>
      <trkpt lat="45.05478" lon="6.02993">
        <ele>728</ele>
        <time>2012-07-07T07:03:44Z</time>
      </trkpt>
      <trkpt lat="45.05479" lon="6.02993">
        <ele>728</ele>
        <time>2012-07-07T07:03:49Z</time>
      </trkpt>
      <trkpt lat="45.0548" lon="6.02993">
        <ele>728</ele>
        <time>2012-07-07T07:03:54Z</time>
      </trkpt>
      <trkpt lat="45.0548" lon="6.02994">
        <ele>728</ele>
        <time>2012-07-07T07:03:59Z</time>
      </trkpt>
      <trkpt lat="45.0548" lon="6.02994">
        <ele>728</ele>
        <time>2012-07-07T07:04:04Z</time>
      </trkpt>
      <trkpt lat="45.0548" lon="6.02994">
        <ele>728</ele>
        <time>2012-07-07T07:04:09Z</time>
      </trkpt>
      <trkpt lat="45.0548" lon="6.02995">
        <ele>728</ele>
        <time>2012-07-07T07:04:14Z</time>
      </trkpt>
      <trkpt lat="45.0548" lon="6.02995">
        <ele>728</ele>
        <time>2012-07-07T07:04:19Z</time>
      </trkpt>
      <trkpt lat="45.0548" lon="6.02995">
        <ele>728</ele>
        <time>2012-07-07T07:04:24Z</time>
      </trkpt>
      <trkpt lat="45.05479" lon="6.02995">
        <ele>728</ele>
        <time>2012-07-07T07:04:29Z</time>
      </trkpt>
      <trkpt lat="45.05479" lon="6.02994">
        <ele>728</ele>
        <time>2012-07-07T07:04:34Z</time>
      </trkpt>
      <trkpt lat="45.05479" lon="6.02994">
        <ele>728</ele>
        <time>2012-07-07T07:04:39Z</time>
      </trkpt>
      <trkpt lat="45.05479" lon="6.02994">
        <ele>728</ele>
        <time>2012-07-07T07:04:44Z</time>
      </trkpt>
      <trkpt lat="45.05479" lon="6.02994">
        <ele>728</ele>
        <time>2012-07-07T07:04:49Z</time>
      </trkpt>
      <trkpt lat="45.05479" lon="6.02994">
        <ele>728</ele>
        <time>2012-07-07T07:04:54Z</time>
      </trkpt>
      <trkpt lat="45.05479" lon="6.02994">
        <ele>728</ele>
        <time>2012-07-07T07:04:59Z</time>
      </trkpt>
      <trkpt lat="45.05479" lon="6.02994">
        <ele>728</ele>
        <time>2012-07-07T07:05:04Z</time>
      </trkpt>
      <trkpt lat="45.05482" lon="6.02991">
        <ele>728</ele>
        <time>2012-07-07T07:05:09Z</time>
      </trkpt>
      <trkpt lat="45.05489" lon="6.02989">
        <ele>727</ele>
        <time>2012-07-07T07:05:14Z</time>
      </trkpt>
      <trkpt lat="45.05497" lon="6.02988">
        <ele>727</ele>
        <time>2012-07-07T07:05:19Z</time>
      </trkpt>
      <trkpt lat="45.05515" lon="6.02983">
        <ele>725</ele>
        <time>2012-07-07T07:05:24Z</time>
      </trkpt>
      <trkpt lat="45.05544" lon="6.02973">
        <ele>724</ele>
        <time>2012-07-07T07:05:29Z</time>
      </trkpt>
      <trkpt lat="45.05572" lon="6.02968">
        <ele>723</ele>
        <time>2012-07-07T07:05:34Z</time>
      </trkpt>
      <trkpt lat="45.05609" lon="6.02962">
        <ele>722</ele>
        <time>2012-07-07T07:05:39Z</time>
      </trkpt>
      <trkpt lat="45.05647" lon="6.02957">
        <ele>722</ele>
        <time>2012-07-07T07:05:44Z</time>
      </trkpt>
      <trkpt lat="45.05693" lon="6.02945">
        <ele>722</ele>
        <time>2012-07-07T07:05:49Z</time>
      </trkpt>
      <trkpt lat="45.05725" lon="6.02931">
        <ele>721</ele>
        <time>2012-07-07T07:05:54Z</time>
      </trkpt>
      <trkpt lat="45.05772" lon="6.029">
        <ele>722</ele>
        <time>2012-07-07T07:05:59Z</time>
      </trkpt>
      <trkpt lat="45.05803" lon="6.02876">
        <ele>722</ele>
        <time>2012-07-07T07:06:04Z</time>
      </trkpt>
      <trkpt lat="45.05842" lon="6.02847">
        <ele>721</ele>
        <time>2012-07-07T07:06:09Z</time>
      </trkpt>
      <trkpt lat="45.05882" lon="6.02817">
        <ele>721</ele>
        <time>2012-07-07T07:06:14Z</time>
      </trkpt>
      <trkpt lat="45.05924" lon="6.02785">
        <ele>719</ele>
        <time>2012-07-07T07:06:19Z</time>
      </trkpt>
      <trkpt lat="45.05975" lon="6.02746">
        <ele>719</ele>
        <time>2012-07-07T07:06:24Z</time>
      </trkpt>
      <trkpt lat="45.06008" lon="6.0272">
        <ele>719</ele>
        <time>2012-07-07T07:06:29Z</time>
      </trkpt>
      <trkpt lat="45.06057" lon="6.02681">
        <ele>718</ele>
        <time>2012-07-07T07:06:34Z</time>
      </trkpt>
      <trkpt lat="45.0609" lon="6.02656">
        <ele>716</ele>
        <time>2012-07-07T07:06:39Z</time>
      </trkpt>
      <trkpt lat="45.06128" lon="6.02623">
        <ele>715</ele>
        <time>2012-07-07T07:06:44Z</time>
      </trkpt>
      <trkpt lat="45.06167" lon="6.02596">
        <ele>716</ele>
        <time>2012-07-07T07:06:49Z</time>
      </trkpt>
      <trkpt lat="45.06216" lon="6.02562">
        <ele>718</ele>
        <time>2012-07-07T07:06:54Z</time>
      </trkpt>
      <trkpt lat="45.06249" lon="6.02537">
        <ele>718</ele>
        <time>2012-07-07T07:06:59Z</time>
      </trkpt>
      <trkpt lat="45.06291" lon="6.02506">
        <ele>719</ele>
        <time>2012-07-07T07:07:04Z</time>
      </trkpt>
      <trkpt lat="45.0633" lon="6.02484">
        <ele>718</ele>
        <time>2012-07-07T07:07:09Z</time>
      </trkpt>
      <trkpt lat="45.06368" lon="6.02483">
        <ele>719</ele>
        <time>2012-07-07T07:07:14Z</time>
      </trkpt>
      <trkpt lat="45.06388" lon="6.02442">
        <ele>719</ele>
        <time>2012-07-07T07:07:19Z</time>
      </trkpt>
      <trkpt lat="45.0642" lon="6.02407">
        <ele>719</ele>
        <time>2012-07-07T07:07:24Z</time>
      </trkpt>
      <trkpt lat="45.06467" lon="6.02371">
        <ele>718</ele>
        <time>2012-07-07T07:07:29Z</time>
      </trkpt>
      <trkpt lat="45.065" lon="6.02346">
        <ele>718</ele>
        <time>2012-07-07T07:07:34Z</time>
      </trkpt>
      <trkpt lat="45.06548" lon="6.02309">
        <ele>720</ele>
        <time>2012-07-07T07:07:39Z</time>
      </trkpt>
      <trkpt lat="45.06581" lon="6.02284">
        <ele>721</ele>
        <time>2012-07-07T07:07:44Z</time>
      </trkpt>
      <trkpt lat="45.06623" lon="6.02255">
        <ele>719</ele>
        <time>2012-07-07T07:07:49Z</time>
      </trkpt>
      <trkpt lat="45.06664" lon="6.02225">
        <ele>717</ele>
        <time>2012-07-07T07:07:54Z</time>
      </trkpt>
      <trkpt lat="45.06703" lon="6.02194">
        <ele>716</ele>
        <time>2012-07-07T07:07:59Z</time>
      </trkpt>
      <trkpt lat="45.06741" lon="6.0216">
        <ele>716</ele>
        <time>2012-07-07T07:08:04Z</time>
      </trkpt>
      <trkpt lat="45.06781" lon="6.02129">
        <ele>716</ele>
        <time>2012-07-07T07:08:09Z</time>
      </trkpt>
      <trkpt lat="45.06823" lon="6.02098">
        <ele>715</ele>
        <time>2012-07-07T07:08:14Z</time>
      </trkpt>
      <trkpt lat="45.06865" lon="6.02067">
        <ele>717</ele>
        <time>2012-07-07T07:08:19Z</time>
      </trkpt>
      <trkpt lat="45.06914" lon="6.02029">
        <ele>718</ele>
        <time>2012-07-07T07:08:24Z</time>
      </trkpt>
      <trkpt lat="45.06947" lon="6.02004">
        <ele>719</ele>
        <time>2012-07-07T07:08:29Z</time>
      </trkpt>
      <trkpt lat="45.06995" lon="6.01969">
        <ele>726</ele>
        <time>2012-07-07T07:08:34Z</time>
      </trkpt>
      <trkpt lat="45.07026" lon="6.01947">
        <ele>728</ele>
        <time>2012-07-07T07:08:39Z</time>
      </trkpt>
      <trkpt lat="45.07064" lon="6.01922">
        <ele>729</ele>
        <time>2012-07-07T07:08:44Z</time>
      </trkpt>
      <trkpt lat="45.07103" lon="6.01896">
        <ele>743</ele>
        <time>2012-07-07T07:08:49Z</time>
      </trkpt>
      <trkpt lat="45.07138" lon="6.01871">
        <ele>744</ele>
        <time>2012-07-07T07:08:54Z</time>
      </trkpt>
      <trkpt lat="45.07173" lon="6.01843">
        <ele>730</ele>
        <time>2012-07-07T07:08:59Z</time>
      </trkpt>
      <trkpt lat="45.07206" lon="6.01816">
        <ele>729</ele>
        <time>2012-07-07T07:09:04Z</time>
      </trkpt>
      <trkpt lat="45.07248" lon="6.01783">
        <ele>727</ele>
        <time>2012-07-07T07:09:09Z</time>
      </trkpt>
      <trkpt lat="45.07275" lon="6.01762">
        <ele>723</ele>
        <time>2012-07-07T07:09:14Z</time>
      </trkpt>
      <trkpt lat="45.07314" lon="6.01729">
        <ele>725</ele>
        <time>2012-07-07T07:09:19Z</time>
      </trkpt>
      <trkpt lat="45.07338" lon="6.01706">
        <ele>726</ele>
        <time>2012-07-07T07:09:24Z</time>
      </trkpt>
      <trkpt lat="45.07375" lon="6.01675">
        <ele>726</ele>
        <time>2012-07-07T07:09:29Z</time>
      </trkpt>
      <trkpt lat="45.07399" lon="6.01656">
        <ele>728</ele>
        <time>2012-07-07T07:09:34Z</time>
      </trkpt>
      <trkpt lat="45.07432" lon="6.01631">
        <ele>728</ele>
        <time>2012-07-07T07:09:39Z</time>
      </trkpt>
      <trkpt lat="45.0747" lon="6.01602">
        <ele>728</ele>
        <time>2012-07-07T07:09:44Z</time>
      </trkpt>
      <trkpt lat="45.07512" lon="6.01569">
        <ele>728</ele>
        <time>2012-07-07T07:09:49Z</time>
      </trkpt>
      <trkpt lat="45.07565" lon="6.01528">
        <ele>726</ele>
        <time>2012-07-07T07:09:54Z</time>
      </trkpt>
      <trkpt lat="45.07603" lon="6.015">
        <ele>724</ele>
        <time>2012-07-07T07:09:59Z</time>
      </trkpt>
      <trkpt lat="45.07666" lon="6.01472">
        <ele>722</ele>
        <time>2012-07-07T07:10:04Z</time>
      </trkpt>
      <trkpt lat="45.07712" lon="6.0146">
        <ele>721</ele>
        <time>2012-07-07T07:10:09Z</time>
      </trkpt>
      <trkpt lat="45.07783" lon="6.01443">
        <ele>719</ele>
        <time>2012-07-07T07:10:14Z</time>
      </trkpt>
      <trkpt lat="45.0783" lon="6.01432">
        <ele>718</ele>
        <time>2012-07-07T07:10:19Z</time>
      </trkpt>
      <trkpt lat="45.07889" lon="6.01418">
        <ele>716</ele>
        <time>2012-07-07T07:10:24Z</time>
      </trkpt>
      <trkpt lat="45.07947" lon="6.01404">
        <ele>714</ele>
        <time>2012-07-07T07:10:29Z</time>
      </trkpt>
      <trkpt lat="45.08007" lon="6.0139">
        <ele>714</ele>
        <time>2012-07-07T07:10:34Z</time>
      </trkpt>
      <trkpt lat="45.08066" lon="6.01376">
        <ele>715</ele>
        <time>2012-07-07T07:10:39Z</time>
      </trkpt>
      <trkpt lat="45.08124" lon="6.01362">
        <ele>716</ele>
        <time>2012-07-07T07:10:44Z</time>
      </trkpt>
      <trkpt lat="45.08182" lon="6.01348">
        <ele>716</ele>
        <time>2012-07-07T07:10:49Z</time>
      </trkpt>
      <trkpt lat="45.08238" lon="6.01336">
        <ele>717</ele>
        <time>2012-07-07T07:10:54Z</time>
      </trkpt>
      <trkpt lat="45.08307" lon="6.01319">
        <ele>715</ele>
        <time>2012-07-07T07:10:59Z</time>
      </trkpt>
      <trkpt lat="45.08353" lon="6.01309">
        <ele>714</ele>
        <time>2012-07-07T07:11:04Z</time>
      </trkpt>
      <trkpt lat="45.08408" lon="6.01296">
        <ele>714</ele>
        <time>2012-07-07T07:11:09Z</time>
      </trkpt>
      <trkpt lat="45.08461" lon="6.01283">
        <ele>714</ele>
        <time>2012-07-07T07:11:14Z</time>
      </trkpt>
      <trkpt lat="45.08513" lon="6.01272">
        <ele>715</ele>
        <time>2012-07-07T07:11:19Z</time>
      </trkpt>
      <trkpt lat="45.08563" lon="6.0126">
        <ele>715</ele>
        <time>2012-07-07T07:11:24Z</time>
      </trkpt>
      <trkpt lat="45.08622" lon="6.01246">
        <ele>716</ele>
        <time>2012-07-07T07:11:29Z</time>
      </trkpt>
      <trkpt lat="45.08661" lon="6.01237">
        <ele>716</ele>
        <time>2012-07-07T07:11:34Z</time>
      </trkpt>
      <trkpt lat="45.0871" lon="6.01225">
        <ele>716</ele>
        <time>2012-07-07T07:11:39Z</time>
      </trkpt>
      <trkpt lat="45.0876" lon="6.01214">
        <ele>715</ele>
        <time>2012-07-07T07:11:44Z</time>
      </trkpt>
      <trkpt lat="45.08813" lon="6.012">
        <ele>714</ele>
        <time>2012-07-07T07:11:49Z</time>
      </trkpt>
      <trkpt lat="45.08877" lon="6.01185">
        <ele>714</ele>
        <time>2012-07-07T07:11:54Z</time>
      </trkpt>
      <trkpt lat="45.08919" lon="6.01176">
        <ele>714</ele>
        <time>2012-07-07T07:11:59Z</time>
      </trkpt>
      <trkpt lat="45.08983" lon="6.01162">
        <ele>714</ele>
        <time>2012-07-07T07:12:04Z</time>
      </trkpt>
      <trkpt lat="45.09024" lon="6.01162">
        <ele>714</ele>
        <time>2012-07-07T07:12:09Z</time>
      </trkpt>
      <trkpt lat="45.09073" lon="6.01144">
        <ele>714</ele>
        <time>2012-07-07T07:12:14Z</time>
      </trkpt>
      <trkpt lat="45.09126" lon="6.01127">
        <ele>714</ele>
        <time>2012-07-07T07:12:19Z</time>
      </trkpt>
      <trkpt lat="45.09179" lon="6.01114">
        <ele>715</ele>
        <time>2012-07-07T07:12:24Z</time>
      </trkpt>
      <trkpt lat="45.09231" lon="6.01102">
        <ele>714</ele>
        <time>2012-07-07T07:12:29Z</time>
      </trkpt>
      <trkpt lat="45.09281" lon="6.01089">
        <ele>713</ele>
        <time>2012-07-07T07:12:34Z</time>
      </trkpt>
      <trkpt lat="45.09333" lon="6.01076">
        <ele>712</ele>
        <time>2012-07-07T07:12:39Z</time>
      </trkpt>
      <trkpt lat="45.09386" lon="6.01065">
        <ele>713</ele>
        <time>2012-07-07T07:12:44Z</time>
      </trkpt>
      <trkpt lat="45.09452" lon="6.01049">
        <ele>713</ele>
        <time>2012-07-07T07:12:49Z</time>
      </trkpt>
      <trkpt lat="45.09496" lon="6.01039">
        <ele>713</ele>
        <time>2012-07-07T07:12:54Z</time>
      </trkpt>
      <trkpt lat="45.09562" lon="6.01023">
        <ele>713</ele>
        <time>2012-07-07T07:12:59Z</time>
      </trkpt>
      <trkpt lat="45.09606" lon="6.01013">
        <ele>712</ele>
        <time>2012-07-07T07:13:04Z</time>
      </trkpt>
      <trkpt lat="45.0966" lon="6.00999">
        <ele>712</ele>
        <time>2012-07-07T07:13:09Z</time>
      </trkpt>
      <trkpt lat="45.09714" lon="6.00988">
        <ele>712</ele>
        <time>2012-07-07T07:13:14Z</time>
      </trkpt>
      <trkpt lat="45.09762" lon="6.00966">
        <ele>713</ele>
        <time>2012-07-07T07:13:19Z</time>
      </trkpt>
      <trkpt lat="45.09813" lon="6.00962">
        <ele>713</ele>
        <time>2012-07-07T07:13:24Z</time>
      </trkpt>
      <trkpt lat="45.09865" lon="6.00952">
        <ele>714</ele>
        <time>2012-07-07T07:13:29Z</time>
      </trkpt>
      <trkpt lat="45.09926" lon="6.00938">
        <ele>714</ele>
        <time>2012-07-07T07:13:34Z</time>
      </trkpt>
      <trkpt lat="45.09967" lon="6.00927">
        <ele>714</ele>
        <time>2012-07-07T07:13:39Z</time>
      </trkpt>
      <trkpt lat="45.1003" lon="6.00913">
        <ele>713</ele>
        <time>2012-07-07T07:13:44Z</time>
      </trkpt>
      <trkpt lat="45.10071" lon="6.00903">
        <ele>713</ele>
        <time>2012-07-07T07:13:49Z</time>
      </trkpt>
      <trkpt lat="45.10135" lon="6.00889">
        <ele>712</ele>
        <time>2012-07-07T07:13:54Z</time>
      </trkpt>
      <trkpt lat="45.10178" lon="6.00878">
        <ele>711</ele>
        <time>2012-07-07T07:13:59Z</time>
      </trkpt>
      <trkpt lat="45.10244" lon="6.00862">
        <ele>711</ele>
        <time>2012-07-07T07:14:04Z</time>
      </trkpt>
      <trkpt lat="45.10288" lon="6.00853">
        <ele>712</ele>
        <time>2012-07-07T07:14:09Z</time>
      </trkpt>
      <trkpt lat="45.1034" lon="6.00841">
        <ele>713</ele>
        <time>2012-07-07T07:14:14Z</time>
      </trkpt>
      <trkpt lat="45.10396" lon="6.00827">
        <ele>713</ele>
        <time>2012-07-07T07:14:19Z</time>
      </trkpt>
      <trkpt lat="45.10451" lon="6.00814">
        <ele>713</ele>
        <time>2012-07-07T07:14:24Z</time>
      </trkpt>
      <trkpt lat="45.10519" lon="6.00798">
        <ele>713</ele>
        <time>2012-07-07T07:14:29Z</time>
      </trkpt>
      <trkpt lat="45.10564" lon="6.00787">
        <ele>713</ele>
        <time>2012-07-07T07:14:34Z</time>
      </trkpt>
      <trkpt lat="45.10629" lon="6.00772">
        <ele>712</ele>
        <time>2012-07-07T07:14:39Z</time>
      </trkpt>
      <trkpt lat="45.10672" lon="6.00761">
        <ele>711</ele>
        <time>2012-07-07T07:14:44Z</time>
      </trkpt>
      <trkpt lat="45.10726" lon="6.00749">
        <ele>710</ele>
        <time>2012-07-07T07:14:49Z</time>
      </trkpt>
      <trkpt lat="45.1078" lon="6.00735">
        <ele>710</ele>
        <time>2012-07-07T07:14:54Z</time>
      </trkpt>
      <trkpt lat="45.10834" lon="6.00722">
        <ele>711</ele>
        <time>2012-07-07T07:14:59Z</time>
      </trkpt>
      <trkpt lat="45.10887" lon="6.0071">
        <ele>711</ele>
        <time>2012-07-07T07:15:04Z</time>
      </trkpt>
      <trkpt lat="45.10941" lon="6.00697">
        <ele>712</ele>
        <time>2012-07-07T07:15:09Z</time>
      </trkpt>
      <trkpt lat="45.11004" lon="6.00682">
        <ele>712</ele>
        <time>2012-07-07T07:15:14Z</time>
      </trkpt>
      <trkpt lat="45.11046" lon="6.00672">
        <ele>712</ele>
        <time>2012-07-07T07:15:19Z</time>
      </trkpt>
      <trkpt lat="45.11108" lon="6.00658">
        <ele>713</ele>
        <time>2012-07-07T07:15:24Z</time>
      </trkpt>
      <trkpt lat="45.11147" lon="6.00649">
        <ele>714</ele>
        <time>2012-07-07T07:15:29Z</time>
      </trkpt>
      <trkpt lat="45.11196" lon="6.00637">
        <ele>714</ele>
        <time>2012-07-07T07:15:34Z</time>
      </trkpt>
      <trkpt lat="45.11244" lon="6.00626">
        <ele>714</ele>
        <time>2012-07-07T07:15:39Z</time>
      </trkpt>
      <trkpt lat="45.11302" lon="6.00613">
        <ele>717</ele>
        <time>2012-07-07T07:15:44Z</time>
      </trkpt>
      <trkpt lat="45.1134" lon="6.00605">
        <ele>719</ele>
        <time>2012-07-07T07:15:49Z</time>
      </trkpt>
      <trkpt lat="45.11382" lon="6.00593">
        <ele>716</ele>
        <time>2012-07-07T07:15:54Z</time>
      </trkpt>
      <trkpt lat="45.11414" lon="6.00581">
        <ele>714</ele>
        <time>2012-07-07T07:15:59Z</time>
      </trkpt>
      <trkpt lat="45.11436" lon="6.00606">
        <ele>712</ele>
        <time>2012-07-07T07:16:04Z</time>
      </trkpt>
      <trkpt lat="45.11442" lon="6.00659">
        <ele>713</ele>
        <time>2012-07-07T07:16:09Z</time>
      </trkpt>
      <trkpt lat="45.11447" lon="6.00718">
        <ele>714</ele>
        <time>2012-07-07T07:16:14Z</time>
      </trkpt>
      <trkpt lat="45.11454" lon="6.00792">
        <ele>714</ele>
        <time>2012-07-07T07:16:19Z</time>
      </trkpt>
      <trkpt lat="45.11459" lon="6.00844">
        <ele>713</ele>
        <time>2012-07-07T07:16:24Z</time>
      </trkpt>
      <trkpt lat="45.11466" lon="6.00923">
        <ele>714</ele>
        <time>2012-07-07T07:16:29Z</time>
      </trkpt>
      <trkpt lat="45.11472" lon="6.00976">
        <ele>714</ele>
        <time>2012-07-07T07:16:34Z</time>
      </trkpt>
      <trkpt lat="45.11478" lon="6.01042">
        <ele>715</ele>
        <time>2012-07-07T07:16:39Z</time>
      </trkpt>
      <trkpt lat="45.11485" lon="6.0111">
        <ele>714</ele>
        <time>2012-07-07T07:16:44Z</time>
      </trkpt>
      <trkpt lat="45.11491" lon="6.01177">
        <ele>714</ele>
        <time>2012-07-07T07:16:49Z</time>
      </trkpt>
      <trkpt lat="45.11504" lon="6.01239">
        <ele>715</ele>
        <time>2012-07-07T07:16:54Z</time>
      </trkpt>
      <trkpt lat="45.11527" lon="6.01288">
        <ele>713</ele>
        <time>2012-07-07T07:16:59Z</time>
      </trkpt>
      <trkpt lat="45.11558" lon="6.01327">
        <ele>712</ele>
        <time>2012-07-07T07:17:04Z</time>
      </trkpt>
      <trkpt lat="45.11593" lon="6.01361">
        <ele>711</ele>
        <time>2012-07-07T07:17:09Z</time>
      </trkpt>
      <trkpt lat="45.11636" lon="6.01406">
        <ele>711</ele>
        <time>2012-07-07T07:17:14Z</time>
      </trkpt>
      <trkpt lat="45.11667" lon="6.01438">
        <ele>712</ele>
        <time>2012-07-07T07:17:19Z</time>
      </trkpt>
      <trkpt lat="45.11712" lon="6.0149">
        <ele>713</ele>
        <time>2012-07-07T07:17:24Z</time>
      </trkpt>
      <trkpt lat="45.1174" lon="6.01524">
        <ele>714</ele>
        <time>2012-07-07T07:17:29Z</time>
      </trkpt>
      <trkpt lat="45.11775" lon="6.01566">
        <ele>715</ele>
        <time>2012-07-07T07:17:34Z</time>
      </trkpt>
      <trkpt lat="45.11808" lon="6.01606">
        <ele>716</ele>
        <time>2012-07-07T07:17:39Z</time>
      </trkpt>
      <trkpt lat="45.11841" lon="6.01644">
        <ele>716</ele>
        <time>2012-07-07T07:17:44Z</time>
      </trkpt>
      <trkpt lat="45.1187" lon="6.01684">
        <ele>714</ele>
        <time>2012-07-07T07:17:49Z</time>
      </trkpt>
      <trkpt lat="45.11902" lon="6.01723">
        <ele>714</ele>
        <time>2012-07-07T07:17:54Z</time>
      </trkpt>
      <trkpt lat="45.11931" lon="6.01763">
        <ele>714</ele>
        <time>2012-07-07T07:17:59Z</time>
      </trkpt>
      <trkpt lat="45.11956" lon="6.01814">
        <ele>715</ele>
        <time>2012-07-07T07:18:04Z</time>
      </trkpt>
      <trkpt lat="45.11985" lon="6.01866">
        <ele>715</ele>
        <time>2012-07-07T07:18:09Z</time>
      </trkpt>
      <trkpt lat="45.12" lon="6.01903">
        <ele>714</ele>
        <time>2012-07-07T07:18:14Z</time>
      </trkpt>
      <trkpt lat="45.12021" lon="6.01961">
        <ele>716</ele>
        <time>2012-07-07T07:18:19Z</time>
      </trkpt>
      <trkpt lat="45.12037" lon="6.01999">
        <ele>717</ele>
        <time>2012-07-07T07:18:24Z</time>
      </trkpt>
      <trkpt lat="45.12058" lon="6.02046">
        <ele>719</ele>
        <time>2012-07-07T07:18:29Z</time>
      </trkpt>
      <trkpt lat="45.12079" lon="6.02096">
        <ele>720</ele>
        <time>2012-07-07T07:18:34Z</time>
      </trkpt>
      <trkpt lat="45.12093" lon="6.02151">
        <ele>723</ele>
        <time>2012-07-07T07:18:39Z</time>
      </trkpt>
      <trkpt lat="45.12105" lon="6.02205">
        <ele>720</ele>
        <time>2012-07-07T07:18:44Z</time>
      </trkpt>
      <trkpt lat="45.12128" lon="6.02247">
        <ele>720</ele>
        <time>2012-07-07T07:18:49Z</time>
      </trkpt>
      <trkpt lat="45.12168" lon="6.02275">
        <ele>723</ele>
        <time>2012-07-07T07:18:54Z</time>
      </trkpt>
      <trkpt lat="45.12198" lon="6.02286">
        <ele>725</ele>
        <time>2012-07-07T07:18:59Z</time>
      </trkpt>
      <trkpt lat="45.12233" lon="6.02331">
        <ele>724</ele>
        <time>2012-07-07T07:19:04Z</time>
      </trkpt>
      <trkpt lat="45.12244" lon="6.02376">
        <ele>719</ele>
        <time>2012-07-07T07:19:09Z</time>
      </trkpt>
      <trkpt lat="45.1226" lon="6.02432">
        <ele>721</ele>
        <time>2012-07-07T07:19:14Z</time>
      </trkpt>
      <trkpt lat="45.1228" lon="6.02484">
        <ele>724</ele>
        <time>2012-07-07T07:19:19Z</time>
      </trkpt>
      <trkpt lat="45.12304" lon="6.02544">
        <ele>722</ele>
        <time>2012-07-07T07:19:24Z</time>
      </trkpt>
      <trkpt lat="45.12321" lon="6.02585">
        <ele>720</ele>
        <time>2012-07-07T07:19:29Z</time>
      </trkpt>
      <trkpt lat="45.12338" lon="6.0264">
        <ele>726</ele>
        <time>2012-07-07T07:19:34Z</time>
      </trkpt>
      <trkpt lat="45.1236" lon="6.0269">
        <ele>722</ele>
        <time>2012-07-07T07:19:39Z</time>
      </trkpt>
      <trkpt lat="45.12381" lon="6.02739">
        <ele>722</ele>
        <time>2012-07-07T07:19:44Z</time>
      </trkpt>
      <trkpt lat="45.12405" lon="6.028">
        <ele>721</ele>
        <time>2012-07-07T07:19:49Z</time>
      </trkpt>
      <trkpt lat="45.12422" lon="6.02842">
        <ele>723</ele>
        <time>2012-07-07T07:19:54Z</time>
      </trkpt>
      <trkpt lat="45.12443" lon="6.02892">
        <ele>723</ele>
        <time>2012-07-07T07:19:59Z</time>
      </trkpt>
      <trkpt lat="45.1246" lon="6.02932">
        <ele>722</ele>
        <time>2012-07-07T07:20:04Z</time>
      </trkpt>
      <trkpt lat="45.12484" lon="6.02991">
        <ele>722</ele>
        <time>2012-07-07T07:20:09Z</time>
      </trkpt>
      <trkpt lat="45.12504" lon="6.0304">
        <ele>726</ele>
        <time>2012-07-07T07:20:14Z</time>
      </trkpt>
      <trkpt lat="45.12524" lon="6.03089">
        <ele>724</ele>
        <time>2012-07-07T07:20:19Z</time>
      </trkpt>
      <trkpt lat="45.12544" lon="6.03137">
        <ele>724</ele>
        <time>2012-07-07T07:20:24Z</time>
      </trkpt>
      <trkpt lat="45.12564" lon="6.03185">
        <ele>723</ele>
        <time>2012-07-07T07:20:29Z</time>
      </trkpt>
      <trkpt lat="45.12584" lon="6.03234">
        <ele>726</ele>
        <time>2012-07-07T07:20:34Z</time>
      </trkpt>
      <trkpt lat="45.12604" lon="6.03283">
        <ele>726</ele>
        <time>2012-07-07T07:20:39Z</time>
      </trkpt>
      <trkpt lat="45.12627" lon="6.03341">
        <ele>726</ele>
        <time>2012-07-07T07:20:44Z</time>
      </trkpt>
      <trkpt lat="45.12642" lon="6.0338">
        <ele>726</ele>
        <time>2012-07-07T07:20:49Z</time>
      </trkpt>
      <trkpt lat="45.12665" lon="6.03437">
        <ele>725</ele>
        <time>2012-07-07T07:20:54Z</time>
      </trkpt>
      <trkpt lat="45.1268" lon="6.03474">
        <ele>728</ele>
        <time>2012-07-07T07:20:59Z</time>
      </trkpt>
      <trkpt lat="45.12703" lon="6.03532">
        <ele>728</ele>
        <time>2012-07-07T07:21:04Z</time>
      </trkpt>
      <trkpt lat="45.12719" lon="6.0357">
        <ele>728</ele>
        <time>2012-07-07T07:21:09Z</time>
      </trkpt>
      <trkpt lat="45.12738" lon="6.03617">
        <ele>729</ele>
        <time>2012-07-07T07:21:14Z</time>
      </trkpt>
      <trkpt lat="45.12757" lon="6.03664">
        <ele>733</ele>
        <time>2012-07-07T07:21:19Z</time>
      </trkpt>
      <trkpt lat="45.12775" lon="6.0371">
        <ele>736</ele>
        <time>2012-07-07T07:21:24Z</time>
      </trkpt>
      <trkpt lat="45.12792" lon="6.03758">
        <ele>733</ele>
        <time>2012-07-07T07:21:29Z</time>
      </trkpt>
      <trkpt lat="45.12785" lon="6.03808">
        <ele>731</ele>
        <time>2012-07-07T07:21:34Z</time>
      </trkpt>
      <trkpt lat="45.12801" lon="6.03863">
        <ele>729</ele>
        <time>2012-07-07T07:21:39Z</time>
      </trkpt>
      <trkpt lat="45.12815" lon="6.039">
        <ele>729</ele>
        <time>2012-07-07T07:21:44Z</time>
      </trkpt>
      <trkpt lat="45.12839" lon="6.03952">
        <ele>733</ele>
        <time>2012-07-07T07:21:49Z</time>
      </trkpt>
      <trkpt lat="45.12854" lon="6.03984">
        <ele>733</ele>
        <time>2012-07-07T07:21:54Z</time>
      </trkpt>
      <trkpt lat="45.12871" lon="6.04024">
        <ele>733</ele>
        <time>2012-07-07T07:21:59Z</time>
      </trkpt>
      <trkpt lat="45.12887" lon="6.0406">
        <ele>733</ele>
        <time>2012-07-07T07:22:04Z</time>
      </trkpt>
      <trkpt lat="45.12902" lon="6.04095">
        <ele>733</ele>
        <time>2012-07-07T07:22:09Z</time>
      </trkpt>
      <trkpt lat="45.12918" lon="6.04133">
        <ele>742</ele>
        <time>2012-07-07T07:22:14Z</time>
      </trkpt>
      <trkpt lat="45.12921" lon="6.04175">
        <ele>741</ele>
        <time>2012-07-07T07:22:19Z</time>
      </trkpt>
      <trkpt lat="45.12908" lon="6.04211">
        <ele>739</ele>
        <time>2012-07-07T07:22:24Z</time>
      </trkpt>
      <trkpt lat="45.12893" lon="6.04239">
        <ele>741</ele>
        <time>2012-07-07T07:22:29Z</time>
      </trkpt>
      <trkpt lat="45.12877" lon="6.04271">
        <ele>746</ele>
        <time>2012-07-07T07:22:34Z</time>
      </trkpt>
      <trkpt lat="45.12866" lon="6.04293">
        <ele>746</ele>
        <time>2012-07-07T07:22:39Z</time>
      </trkpt>
      <trkpt lat="45.12853" lon="6.04318">
        <ele>746</ele>
        <time>2012-07-07T07:22:44Z</time>
      </trkpt>
      <trkpt lat="45.12841" lon="6.04341">
        <ele>748</ele>
        <time>2012-07-07T07:22:49Z</time>
      </trkpt>
      <trkpt lat="45.12828" lon="6.04362">
        <ele>749</ele>
        <time>2012-07-07T07:22:54Z</time>
      </trkpt>
      <trkpt lat="45.12812" lon="6.04375">
        <ele>751</ele>
        <time>2012-07-07T07:22:59Z</time>
      </trkpt>
      <trkpt lat="45.12797" lon="6.04391">
        <ele>752</ele>
        <time>2012-07-07T07:23:04Z</time>
      </trkpt>
      <trkpt lat="45.12801" lon="6.04416">
        <ele>753</ele>
        <time>2012-07-07T07:23:09Z</time>
      </trkpt>
      <trkpt lat="45.12822" lon="6.04415">
        <ele>752</ele>
        <time>2012-07-07T07:23:14Z</time>
      </trkpt>
      <trkpt lat="45.1284" lon="6.04391">
        <ele>753</ele>
        <time>2012-07-07T07:23:19Z</time>
      </trkpt>
      <trkpt lat="45.12851" lon="6.04377">
        <ele>752</ele>
        <time>2012-07-07T07:23:24Z</time>
      </trkpt>
      <trkpt lat="45.12868" lon="6.04355">
        <ele>753</ele>
        <time>2012-07-07T07:23:29Z</time>
      </trkpt>
      <trkpt lat="45.12878" lon="6.04341">
        <ele>754</ele>
        <time>2012-07-07T07:23:34Z</time>
      </trkpt>
      <trkpt lat="45.12894" lon="6.04321">
        <ele>752</ele>
        <time>2012-07-07T07:23:39Z</time>
      </trkpt>
      <trkpt lat="45.12905" lon="6.04308">
        <ele>752</ele>
        <time>2012-07-07T07:23:44Z</time>
      </trkpt>
      <trkpt lat="45.1292" lon="6.04288">
        <ele>756</ele>
        <time>2012-07-07T07:23:49Z</time>
      </trkpt>
      <trkpt lat="45.1293" lon="6.04275">
        <ele>755</ele>
        <time>2012-07-07T07:23:54Z</time>
      </trkpt>
      <trkpt lat="45.12942" lon="6.04258">
        <ele>755</ele>
        <time>2012-07-07T07:23:59Z</time>
      </trkpt>
      <trkpt lat="45.12955" lon="6.04242">
        <ele>753</ele>
        <time>2012-07-07T07:24:04Z</time>
      </trkpt>
      <trkpt lat="45.12967" lon="6.04225">
        <ele>753</ele>
        <time>2012-07-07T07:24:09Z</time>
      </trkpt>
      <trkpt lat="45.12981" lon="6.04209">
        <ele>754</ele>
        <time>2012-07-07T07:24:14Z</time>
      </trkpt>
      <trkpt lat="45.12994" lon="6.04194">
        <ele>754</ele>
        <time>2012-07-07T07:24:19Z</time>
      </trkpt>
      <trkpt lat="45.13007" lon="6.04178">
        <ele>760</ele>
        <time>2012-07-07T07:24:24Z</time>
      </trkpt>
      <trkpt lat="45.13019" lon="6.04162">
        <ele>761</ele>
        <time>2012-07-07T07:24:29Z</time>
      </trkpt>
      <trkpt lat="45.13031" lon="6.04146">
        <ele>763</ele>
        <time>2012-07-07T07:24:34Z</time>
      </trkpt>
      <trkpt lat="45.1304" lon="6.04125">
        <ele>764</ele>
        <time>2012-07-07T07:24:39Z</time>
      </trkpt>
      <trkpt lat="45.13047" lon="6.04104">
        <ele>766</ele>
        <time>2012-07-07T07:24:44Z</time>
      </trkpt>
      <trkpt lat="45.13056" lon="6.04085">
        <ele>767</ele>
        <time>2012-07-07T07:24:49Z</time>
      </trkpt>
      <trkpt lat="45.13071" lon="6.04094">
        <ele>770</ele>
        <time>2012-07-07T07:24:54Z</time>
      </trkpt>
      <trkpt lat="45.13064" lon="6.04121">
        <ele>766</ele>
        <time>2012-07-07T07:24:59Z</time>
      </trkpt>
      <trkpt lat="45.13047" lon="6.04149">
        <ele>765</ele>
        <time>2012-07-07T07:25:04Z</time>
      </trkpt>
      <trkpt lat="45.13024" lon="6.04186">
        <ele>761</ele>
        <time>2012-07-07T07:25:09Z</time>
      </trkpt>
      <trkpt lat="45.13009" lon="6.04211">
        <ele>762</ele>
        <time>2012-07-07T07:25:14Z</time>
      </trkpt>
      <trkpt lat="45.12984" lon="6.04251">
        <ele>761</ele>
        <time>2012-07-07T07:25:19Z</time>
      </trkpt>
      <trkpt lat="45.12966" lon="6.0428">
        <ele>758</ele>
        <time>2012-07-07T07:25:24Z</time>
      </trkpt>
      <trkpt lat="45.12943" lon="6.04318">
        <ele>759</ele>
        <time>2012-07-07T07:25:29Z</time>
      </trkpt>
      <trkpt lat="45.12919" lon="6.04355">
        <ele>760</ele>
        <time>2012-07-07T07:25:34Z</time>
      </trkpt>
      <trkpt lat="45.12896" lon="6.04394">
        <ele>755</ele>
        <time>2012-07-07T07:25:39Z</time>
      </trkpt>
      <trkpt lat="45.12873" lon="6.04431">
        <ele>757</ele>
        <time>2012-07-07T07:25:44Z</time>
      </trkpt>
      <trkpt lat="45.1285" lon="6.04468">
        <ele>759</ele>
        <time>2012-07-07T07:25:49Z</time>
      </trkpt>
      <trkpt lat="45.12828" lon="6.04505">
        <ele>772</ele>
        <time>2012-07-07T07:25:54Z</time>
      </trkpt>
      <trkpt lat="45.12808" lon="6.04544">
        <ele>786</ele>
        <time>2012-07-07T07:25:59Z</time>
      </trkpt>
      <trkpt lat="45.12823" lon="6.04595">
        <ele>796</ele>
        <time>2012-07-07T07:26:04Z</time>
      </trkpt>
      <trkpt lat="45.12843" lon="6.04625">
        <ele>784</ele>
        <time>2012-07-07T07:26:09Z</time>
      </trkpt>
      <trkpt lat="45.12872" lon="6.04668">
        <ele>792</ele>
        <time>2012-07-07T07:26:14Z</time>
      </trkpt>
      <trkpt lat="45.12891" lon="6.04699">
        <ele>789</ele>
        <time>2012-07-07T07:26:19Z</time>
      </trkpt>
      <trkpt lat="45.12914" lon="6.04739">
        <ele>790</ele>
        <time>2012-07-07T07:26:24Z</time>
      </trkpt>
      <trkpt lat="45.12937" lon="6.04774">
        <ele>795</ele>
        <time>2012-07-07T07:26:29Z</time>
      </trkpt>
      <trkpt lat="45.1297" lon="6.04794">
        <ele>798</ele>
        <time>2012-07-07T07:26:34Z</time>
      </trkpt>
      <trkpt lat="45.13008" lon="6.04804">
        <ele>795</ele>
        <time>2012-07-07T07:26:39Z</time>
      </trkpt>
      <trkpt lat="45.13043" lon="6.04813">
        <ele>793</ele>
        <time>2012-07-07T07:26:44Z</time>
      </trkpt>
      <trkpt lat="45.13078" lon="6.04825">
        <ele>799</ele>
        <time>2012-07-07T07:26:49Z</time>
      </trkpt>
      <trkpt lat="45.13114" lon="6.04836">
        <ele>805</ele>
        <time>2012-07-07T07:26:54Z</time>
      </trkpt>
      <trkpt lat="45.13156" lon="6.0485">
        <ele>797</ele>
        <time>2012-07-07T07:26:59Z</time>
      </trkpt>
      <trkpt lat="45.13185" lon="6.04859">
        <ele>784</ele>
        <time>2012-07-07T07:27:04Z</time>
      </trkpt>
      <trkpt lat="45.13227" lon="6.04872">
        <ele>779</ele>
        <time>2012-07-07T07:27:09Z</time>
      </trkpt>
      <trkpt lat="45.13256" lon="6.04879">
        <ele>768</ele>
        <time>2012-07-07T07:27:14Z</time>
      </trkpt>
      <trkpt lat="45.13292" lon="6.04889">
        <ele>768</ele>
        <time>2012-07-07T07:27:19Z</time>
      </trkpt>
      <trkpt lat="45.13327" lon="6.04898">
        <ele>770</ele>
        <time>2012-07-07T07:27:24Z</time>
      </trkpt>
      <trkpt lat="45.13362" lon="6.04907">
        <ele>767</ele>
        <time>2012-07-07T07:27:29Z</time>
      </trkpt>
      <trkpt lat="45.13397" lon="6.04916">
        <ele>764</ele>
        <time>2012-07-07T07:27:34Z</time>
      </trkpt>
      <trkpt lat="45.13433" lon="6.04924">
        <ele>769</ele>
        <time>2012-07-07T07:27:39Z</time>
      </trkpt>
      <trkpt lat="45.13476" lon="6.04933">
        <ele>771</ele>
        <time>2012-07-07T07:27:44Z</time>
      </trkpt>
      <trkpt lat="45.13506" lon="6.04939">
        <ele>772</ele>
        <time>2012-07-07T07:27:49Z</time>
      </trkpt>
      <trkpt lat="45.13549" lon="6.04948">
        <ele>777</ele>
        <time>2012-07-07T07:27:54Z</time>
      </trkpt>
      <trkpt lat="45.13578" lon="6.04954">
        <ele>779</ele>
        <time>2012-07-07T07:27:59Z</time>
      </trkpt>
      <trkpt lat="45.13613" lon="6.04958">
        <ele>789</ele>
        <time>2012-07-07T07:28:04Z</time>
      </trkpt>
      <trkpt lat="45.13648" lon="6.04946">
        <ele>790</ele>
        <time>2012-07-07T07:28:09Z</time>
      </trkpt>
      <trkpt lat="45.13681" lon="6.04922">
        <ele>795</ele>
        <time>2012-07-07T07:28:14Z</time>
      </trkpt>
      <trkpt lat="45.13713" lon="6.04896">
        <ele>786</ele>
        <time>2012-07-07T07:28:19Z</time>
      </trkpt>
      <trkpt lat="45.13746" lon="6.04871">
        <ele>785</ele>
        <time>2012-07-07T07:28:24Z</time>
      </trkpt>
      <trkpt lat="45.13784" lon="6.04851">
        <ele>792</ele>
        <time>2012-07-07T07:28:29Z</time>
      </trkpt>
      <trkpt lat="45.13826" lon="6.04852">
        <ele>792</ele>
        <time>2012-07-07T07:28:34Z</time>
      </trkpt>
      <trkpt lat="45.13876" lon="6.04873">
        <ele>791</ele>
        <time>2012-07-07T07:28:39Z</time>
      </trkpt>
      <trkpt lat="45.13909" lon="6.04894">
        <ele>794</ele>
        <time>2012-07-07T07:28:44Z</time>
      </trkpt>
      <trkpt lat="45.13961" lon="6.04906">
        <ele>791</ele>
        <time>2012-07-07T07:28:49Z</time>
      </trkpt>
      <trkpt lat="45.13997" lon="6.04905">
        <ele>800</ele>
        <time>2012-07-07T07:28:54Z</time>
      </trkpt>
      <trkpt lat="45.1405" lon="6.04907">
        <ele>773</ele>
        <time>2012-07-07T07:28:59Z</time>
      </trkpt>
      <trkpt lat="45.14084" lon="6.04913">
        <ele>758</ele>
        <time>2012-07-07T07:29:04Z</time>
      </trkpt>
      <trkpt lat="45.14125" lon="6.04929">
        <ele>784</ele>
        <time>2012-07-07T07:29:09Z</time>
      </trkpt>
      <trkpt lat="45.14164" lon="6.04951">
        <ele>790</ele>
        <time>2012-07-07T07:29:14Z</time>
      </trkpt>
      <trkpt lat="45.142" lon="6.0497">
        <ele>789</ele>
        <time>2012-07-07T07:29:19Z</time>
      </trkpt>
      <trkpt lat="45.14235" lon="6.04991">
        <ele>791</ele>
        <time>2012-07-07T07:29:24Z</time>
      </trkpt>
      <trkpt lat="45.1427" lon="6.05014">
        <ele>794</ele>
        <time>2012-07-07T07:29:29Z</time>
      </trkpt>
      <trkpt lat="45.14309" lon="6.05041">
        <ele>792</ele>
        <time>2012-07-07T07:29:34Z</time>
      </trkpt>
      <trkpt lat="45.14334" lon="6.05058">
        <ele>784</ele>
        <time>2012-07-07T07:29:39Z</time>
      </trkpt>
      <trkpt lat="45.1436" lon="6.05086">
        <ele>797</ele>
        <time>2012-07-07T07:29:44Z</time>
      </trkpt>
      <trkpt lat="45.1438" lon="6.05109">
        <ele>795</ele>
        <time>2012-07-07T07:29:49Z</time>
      </trkpt>
      <trkpt lat="45.14398" lon="6.05125">
        <ele>795</ele>
        <time>2012-07-07T07:29:54Z</time>
      </trkpt>
      <trkpt lat="45.14418" lon="6.05134">
        <ele>785</ele>
        <time>2012-07-07T07:29:59Z</time>
      </trkpt>
      <trkpt lat="45.14437" lon="6.05145">
        <ele>787</ele>
        <time>2012-07-07T07:30:04Z</time>
      </trkpt>
      <trkpt lat="45.14453" lon="6.05171">
        <ele>795</ele>
        <time>2012-07-07T07:30:09Z</time>
      </trkpt>
      <trkpt lat="45.14455" lon="6.05199">
        <ele>796</ele>
        <time>2012-07-07T07:30:14Z</time>
      </trkpt>
      <trkpt lat="45.1445" lon="6.05227">
        <ele>799</ele>
        <time>2012-07-07T07:30:19Z</time>
      </trkpt>
      <trkpt lat="45.14444" lon="6.05252">
        <ele>808</ele>
        <time>2012-07-07T07:30:24Z</time>
      </trkpt>
      <trkpt lat="45.14438" lon="6.05285">
        <ele>809</ele>
        <time>2012-07-07T07:30:29Z</time>
      </trkpt>
      <trkpt lat="45.14437" lon="6.0531">
        <ele>812</ele>
        <time>2012-07-07T07:30:34Z</time>
      </trkpt>
      <trkpt lat="45.14439" lon="6.0534">
        <ele>821</ele>
        <time>2012-07-07T07:30:39Z</time>
      </trkpt>
      <trkpt lat="45.14442" lon="6.05369">
        <ele>821</ele>
        <time>2012-07-07T07:30:44Z</time>
      </trkpt>
      <trkpt lat="45.14448" lon="6.05394">
        <ele>823</ele>
        <time>2012-07-07T07:30:49Z</time>
      </trkpt>
      <trkpt lat="45.14458" lon="6.05418">
        <ele>836</ele>
        <time>2012-07-07T07:30:54Z</time>
      </trkpt>
      <trkpt lat="45.14472" lon="6.05433">
        <ele>832</ele>
        <time>2012-07-07T07:30:59Z</time>
      </trkpt>
      <trkpt lat="45.14491" lon="6.05447">
        <ele>830</ele>
        <time>2012-07-07T07:31:04Z</time>
      </trkpt>
      <trkpt lat="45.14511" lon="6.0545">
        <ele>819</ele>
        <time>2012-07-07T07:31:09Z</time>
      </trkpt>
      <trkpt lat="45.14532" lon="6.05445">
        <ele>819</ele>
        <time>2012-07-07T07:31:14Z</time>
      </trkpt>
      <trkpt lat="45.14545" lon="6.05434">
        <ele>819</ele>
        <time>2012-07-07T07:31:19Z</time>
      </trkpt>
      <trkpt lat="45.14561" lon="6.05411">
        <ele>812</ele>
        <time>2012-07-07T07:31:24Z</time>
      </trkpt>
      <trkpt lat="45.14569" lon="6.05393">
        <ele>812</ele>
        <time>2012-07-07T07:31:29Z</time>
      </trkpt>
      <trkpt lat="45.14577" lon="6.05369">
        <ele>811</ele>
        <time>2012-07-07T07:31:34Z</time>
      </trkpt>
      <trkpt lat="45.1458" lon="6.05343">
        <ele>815</ele>
        <time>2012-07-07T07:31:39Z</time>
      </trkpt>
      <trkpt lat="45.14581" lon="6.05317">
        <ele>811</ele>
        <time>2012-07-07T07:31:44Z</time>
      </trkpt>
      <trkpt lat="45.14583" lon="6.05291">
        <ele>807</ele>
        <time>2012-07-07T07:31:49Z</time>
      </trkpt>
      <trkpt lat="45.14589" lon="6.05263">
        <ele>820</ele>
        <time>2012-07-07T07:31:54Z</time>
      </trkpt>
      <trkpt lat="45.14594" lon="6.05236">
        <ele>816</ele>
        <time>2012-07-07T07:31:59Z</time>
      </trkpt>
      <trkpt lat="45.14598" lon="6.05207">
        <ele>815</ele>
        <time>2012-07-07T07:32:04Z</time>
      </trkpt>
      <trkpt lat="45.14607" lon="6.05173">
        <ele>811</ele>
        <time>2012-07-07T07:32:09Z</time>
      </trkpt>
      <trkpt lat="45.1462" lon="6.05154">
        <ele>805</ele>
        <time>2012-07-07T07:32:14Z</time>
      </trkpt>
      <trkpt lat="45.14643" lon="6.05127">
        <ele>807</ele>
        <time>2012-07-07T07:32:19Z</time>
      </trkpt>
      <trkpt lat="45.1466" lon="6.05106">
        <ele>806</ele>
        <time>2012-07-07T07:32:24Z</time>
      </trkpt>
      <trkpt lat="45.14687" lon="6.05085">
        <ele>815</ele>
        <time>2012-07-07T07:32:29Z</time>
      </trkpt>
      <trkpt lat="45.14722" lon="6.05076">
        <ele>810</ele>
        <time>2012-07-07T07:32:34Z</time>
      </trkpt>
      <trkpt lat="45.14756" lon="6.05043">
        <ele>817</ele>
        <time>2012-07-07T07:32:39Z</time>
      </trkpt>
      <trkpt lat="45.1479" lon="6.04996">
        <ele>805</ele>
        <time>2012-07-07T07:32:44Z</time>
      </trkpt>
      <trkpt lat="45.14814" lon="6.04929">
        <ele>803</ele>
        <time>2012-07-07T07:32:49Z</time>
      </trkpt>
      <trkpt lat="45.14841" lon="6.04864">
        <ele>800</ele>
        <time>2012-07-07T07:32:54Z</time>
      </trkpt>
      <trkpt lat="45.14892" lon="6.04839">
        <ele>802</ele>
        <time>2012-07-07T07:32:59Z</time>
      </trkpt>
      <trkpt lat="45.14953" lon="6.0483">
        <ele>798</ele>
        <time>2012-07-07T07:33:04Z</time>
      </trkpt>
      <trkpt lat="45.14992" lon="6.04817">
        <ele>802</ele>
        <time>2012-07-07T07:33:09Z</time>
      </trkpt>
      <trkpt lat="45.1505" lon="6.04785">
        <ele>803</ele>
        <time>2012-07-07T07:33:14Z</time>
      </trkpt>
      <trkpt lat="45.15085" lon="6.04764">
        <ele>806</ele>
        <time>2012-07-07T07:33:19Z</time>
      </trkpt>
      <trkpt lat="45.15129" lon="6.04735">
        <ele>797</ele>
        <time>2012-07-07T07:33:24Z</time>
      </trkpt>
      <trkpt lat="45.15173" lon="6.04704">
        <ele>804</ele>
        <time>2012-07-07T07:33:29Z</time>
      </trkpt>
      <trkpt lat="45.15211" lon="6.04659">
        <ele>794</ele>
        <time>2012-07-07T07:33:34Z</time>
      </trkpt>
      <trkpt lat="45.15255" lon="6.04634">
        <ele>801</ele>
        <time>2012-07-07T07:33:39Z</time>
      </trkpt>
      <trkpt lat="45.15293" lon="6.04611">
        <ele>800</ele>
        <time>2012-07-07T07:33:44Z</time>
      </trkpt>
      <trkpt lat="45.15323" lon="6.0458">
        <ele>800</ele>
        <time>2012-07-07T07:33:49Z</time>
      </trkpt>
      <trkpt lat="45.15351" lon="6.04558">
        <ele>808</ele>
        <time>2012-07-07T07:33:54Z</time>
      </trkpt>
      <trkpt lat="45.15375" lon="6.04559">
        <ele>810</ele>
        <time>2012-07-07T07:33:59Z</time>
      </trkpt>
      <trkpt lat="45.15388" lon="6.04566">
        <ele>809</ele>
        <time>2012-07-07T07:34:04Z</time>
      </trkpt>
      <trkpt lat="45.15407" lon="6.04562">
        <ele>809</ele>
        <time>2012-07-07T07:34:09Z</time>
      </trkpt>
      <trkpt lat="45.15416" lon="6.04563">
        <ele>809</ele>
        <time>2012-07-07T07:34:14Z</time>
      </trkpt>
      <trkpt lat="45.15436" lon="6.04553">
        <ele>813</ele>
        <time>2012-07-07T07:34:19Z</time>
      </trkpt>
      <trkpt lat="45.15448" lon="6.04553">
        <ele>813</ele>
        <time>2012-07-07T07:34:24Z</time>
      </trkpt>
      <trkpt lat="45.15462" lon="6.04548">
        <ele>814</ele>
        <time>2012-07-07T07:34:29Z</time>
      </trkpt>
      <trkpt lat="45.15471" lon="6.04546">
        <ele>814</ele>
        <time>2012-07-07T07:34:34Z</time>
      </trkpt>
      <trkpt lat="45.1548" lon="6.04544">
        <ele>814</ele>
        <time>2012-07-07T07:34:39Z</time>
      </trkpt>
      <trkpt lat="45.15497" lon="6.04543">
        <ele>815</ele>
        <time>2012-07-07T07:34:44Z</time>
      </trkpt>
      <trkpt lat="45.15514" lon="6.04531">
        <ele>819</ele>
        <time>2012-07-07T07:34:49Z</time>
      </trkpt>
      <trkpt lat="45.15532" lon="6.04522">
        <ele>820</ele>
        <time>2012-07-07T07:34:54Z</time>
      </trkpt>
      <trkpt lat="45.15544" lon="6.04514">
        <ele>820</ele>
        <time>2012-07-07T07:34:59Z</time>
      </trkpt>
      <trkpt lat="45.15558" lon="6.045">
        <ele>828</ele>
        <time>2012-07-07T07:35:04Z</time>
      </trkpt>
      <trkpt lat="45.15565" lon="6.04492">
        <ele>827</ele>
        <time>2012-07-07T07:35:09Z</time>
      </trkpt>
      <trkpt lat="45.15571" lon="6.0448">
        <ele>829</ele>
        <time>2012-07-07T07:35:14Z</time>
      </trkpt>
      <trkpt lat="45.15579" lon="6.04472">
        <ele>830</ele>
        <time>2012-07-07T07:35:19Z</time>
      </trkpt>
      <trkpt lat="45.15588" lon="6.04465">
        <ele>832</ele>
        <time>2012-07-07T07:35:24Z</time>
      </trkpt>
      <trkpt lat="45.15598" lon="6.04457">
        <ele>834</ele>
        <time>2012-07-07T07:35:29Z</time>
      </trkpt>
      <trkpt lat="45.15613" lon="6.04446">
        <ele>836</ele>
        <time>2012-07-07T07:35:34Z</time>
      </trkpt>
      <trkpt lat="45.15628" lon="6.04429">
        <ele>837</ele>
        <time>2012-07-07T07:35:39Z</time>
      </trkpt>
      <trkpt lat="45.15637" lon="6.04422">
        <ele>837</ele>
        <time>2012-07-07T07:35:44Z</time>
      </trkpt>
      <trkpt lat="45.1565" lon="6.04417">
        <ele>838</ele>
        <time>2012-07-07T07:35:49Z</time>
      </trkpt>
      <trkpt lat="45.1566" lon="6.04408">
        <ele>846</ele>
        <time>2012-07-07T07:35:54Z</time>
      </trkpt>
      <trkpt lat="45.1567" lon="6.04401">
        <ele>845</ele>
        <time>2012-07-07T07:35:59Z</time>
      </trkpt>
      <trkpt lat="45.15679" lon="6.04392">
        <ele>848</ele>
        <time>2012-07-07T07:36:04Z</time>
      </trkpt>
      <trkpt lat="45.1569" lon="6.04384">
        <ele>850</ele>
        <time>2012-07-07T07:36:09Z</time>
      </trkpt>
      <trkpt lat="45.15699" lon="6.04378">
        <ele>851</ele>
        <time>2012-07-07T07:36:14Z</time>
      </trkpt>
      <trkpt lat="45.15709" lon="6.04368">
        <ele>852</ele>
        <time>2012-07-07T07:36:19Z</time>
      </trkpt>
      <trkpt lat="45.15718" lon="6.04361">
        <ele>853</ele>
        <time>2012-07-07T07:36:24Z</time>
      </trkpt>
      <trkpt lat="45.15727" lon="6.04357">
        <ele>853</ele>
        <time>2012-07-07T07:36:29Z</time>
      </trkpt>
      <trkpt lat="45.15738" lon="6.04352">
        <ele>854</ele>
        <time>2012-07-07T07:36:34Z</time>
      </trkpt>
      <trkpt lat="45.15747" lon="6.0435">
        <ele>854</ele>
        <time>2012-07-07T07:36:39Z</time>
      </trkpt>
      <trkpt lat="45.1576" lon="6.04346">
        <ele>853</ele>
        <time>2012-07-07T07:36:44Z</time>
      </trkpt>
      <trkpt lat="45.1577" lon="6.04341">
        <ele>852</ele>
        <time>2012-07-07T07:36:49Z</time>
      </trkpt>
      <trkpt lat="45.15783" lon="6.04336">
        <ele>851</ele>
        <time>2012-07-07T07:36:54Z</time>
      </trkpt>
      <trkpt lat="45.15796" lon="6.04333">
        <ele>869</ele>
        <time>2012-07-07T07:36:59Z</time>
      </trkpt>
      <trkpt lat="45.15807" lon="6.04328">
        <ele>868</ele>
        <time>2012-07-07T07:37:04Z</time>
      </trkpt>
      <trkpt lat="45.15819" lon="6.04323">
        <ele>866</ele>
        <time>2012-07-07T07:37:09Z</time>
      </trkpt>
      <trkpt lat="45.15832" lon="6.04313">
        <ele>867</ele>
        <time>2012-07-07T07:37:14Z</time>
      </trkpt>
      <trkpt lat="45.15843" lon="6.04304">
        <ele>866</ele>
        <time>2012-07-07T07:37:19Z</time>
      </trkpt>
      <trkpt lat="45.15854" lon="6.04297">
        <ele>868</ele>
        <time>2012-07-07T07:37:24Z</time>
      </trkpt>
      <trkpt lat="45.15867" lon="6.04293">
        <ele>869</ele>
        <time>2012-07-07T07:37:29Z</time>
      </trkpt>
      <trkpt lat="45.15876" lon="6.04292">
        <ele>868</ele>
        <time>2012-07-07T07:37:34Z</time>
      </trkpt>
      <trkpt lat="45.1589" lon="6.04293">
        <ele>868</ele>
        <time>2012-07-07T07:37:39Z</time>
      </trkpt>
      <trkpt lat="45.15899" lon="6.04292">
        <ele>867</ele>
        <time>2012-07-07T07:37:44Z</time>
      </trkpt>
      <trkpt lat="45.15911" lon="6.04289">
        <ele>868</ele>
        <time>2012-07-07T07:37:49Z</time>
      </trkpt>
      <trkpt lat="45.15921" lon="6.04285">
        <ele>866</ele>
        <time>2012-07-07T07:37:54Z</time>
      </trkpt>
      <trkpt lat="45.1593" lon="6.04284">
        <ele>866</ele>
        <time>2012-07-07T07:37:59Z</time>
      </trkpt>
      <trkpt lat="45.15942" lon="6.04277">
        <ele>867</ele>
        <time>2012-07-07T07:38:04Z</time>
      </trkpt>
      <trkpt lat="45.15953" lon="6.0427">
        <ele>868</ele>
        <time>2012-07-07T07:38:09Z</time>
      </trkpt>
      <trkpt lat="45.15963" lon="6.04264">
        <ele>869</ele>
        <time>2012-07-07T07:38:14Z</time>
      </trkpt>
      <trkpt lat="45.15976" lon="6.04254">
        <ele>870</ele>
        <time>2012-07-07T07:38:19Z</time>
      </trkpt>
      <trkpt lat="45.15991" lon="6.04247">
        <ele>886</ele>
        <time>2012-07-07T07:38:24Z</time>
      </trkpt>
      <trkpt lat="45.16002" lon="6.0424">
        <ele>884</ele>
        <time>2012-07-07T07:38:29Z</time>
      </trkpt>
      <trkpt lat="45.16017" lon="6.0423">
        <ele>889</ele>
        <time>2012-07-07T07:38:34Z</time>
      </trkpt>
      <trkpt lat="45.1603" lon="6.04221">
        <ele>892</ele>
        <time>2012-07-07T07:38:39Z</time>
      </trkpt>
      <trkpt lat="45.16043" lon="6.04214">
        <ele>893</ele>
        <time>2012-07-07T07:38:44Z</time>
      </trkpt>
      <trkpt lat="45.16054" lon="6.04213">
        <ele>893</ele>
        <time>2012-07-07T07:38:49Z</time>
      </trkpt>
      <trkpt lat="45.16071" lon="6.04211">
        <ele>892</ele>
        <time>2012-07-07T07:38:54Z</time>
      </trkpt>
      <trkpt lat="45.16089" lon="6.04208">
        <ele>888</ele>
        <time>2012-07-07T07:38:59Z</time>
      </trkpt>
      <trkpt lat="45.16106" lon="6.04207">
        <ele>888</ele>
        <time>2012-07-07T07:39:04Z</time>
      </trkpt>
      <trkpt lat="45.16125" lon="6.04206">
        <ele>888</ele>
        <time>2012-07-07T07:39:09Z</time>
      </trkpt>
      <trkpt lat="45.16139" lon="6.04207">
        <ele>887</ele>
        <time>2012-07-07T07:39:14Z</time>
      </trkpt>
      <trkpt lat="45.16157" lon="6.04213">
        <ele>885</ele>
        <time>2012-07-07T07:39:19Z</time>
      </trkpt>
      <trkpt lat="45.1617" lon="6.04217">
        <ele>884</ele>
        <time>2012-07-07T07:39:24Z</time>
      </trkpt>
      <trkpt lat="45.1619" lon="6.04223">
        <ele>884</ele>
        <time>2012-07-07T07:39:29Z</time>
      </trkpt>
      <trkpt lat="45.16204" lon="6.04226">
        <ele>885</ele>
        <time>2012-07-07T07:39:34Z</time>
      </trkpt>
      <trkpt lat="45.16223" lon="6.04229">
        <ele>886</ele>
        <time>2012-07-07T07:39:39Z</time>
      </trkpt>
      <trkpt lat="45.1624" lon="6.0423">
        <ele>885</ele>
        <time>2012-07-07T07:39:44Z</time>
      </trkpt>
      <trkpt lat="45.16257" lon="6.0423">
        <ele>889</ele>
        <time>2012-07-07T07:39:49Z</time>
      </trkpt>
      <trkpt lat="45.16275" lon="6.04227">
        <ele>891</ele>
        <time>2012-07-07T07:39:54Z</time>
      </trkpt>
      <trkpt lat="45.16293" lon="6.04225">
        <ele>893</ele>
        <time>2012-07-07T07:39:59Z</time>
      </trkpt>
      <trkpt lat="45.16316" lon="6.04221">
        <ele>893</ele>
        <time>2012-07-07T07:40:04Z</time>
      </trkpt>
      <trkpt lat="45.16329" lon="6.0422">
        <ele>893</ele>
        <time>2012-07-07T07:40:09Z</time>
      </trkpt>
      <trkpt lat="45.16346" lon="6.04218">
        <ele>898</ele>
        <time>2012-07-07T07:40:14Z</time>
      </trkpt>
      <trkpt lat="45.16362" lon="6.04218">
        <ele>899</ele>
        <time>2012-07-07T07:40:19Z</time>
      </trkpt>
      <trkpt lat="45.1638" lon="6.04215">
        <ele>900</ele>
        <time>2012-07-07T07:40:24Z</time>
      </trkpt>
      <trkpt lat="45.1639" lon="6.04215">
        <ele>901</ele>
        <time>2012-07-07T07:40:29Z</time>
      </trkpt>
      <trkpt lat="45.16406" lon="6.04216">
        <ele>901</ele>
        <time>2012-07-07T07:40:34Z</time>
      </trkpt>
      <trkpt lat="45.16419" lon="6.04219">
        <ele>904</ele>
        <time>2012-07-07T07:40:39Z</time>
      </trkpt>
      <trkpt lat="45.16436" lon="6.04216">
        <ele>905</ele>
        <time>2012-07-07T07:40:44Z</time>
      </trkpt>
      <trkpt lat="45.16453" lon="6.04209">
        <ele>907</ele>
        <time>2012-07-07T07:40:49Z</time>
      </trkpt>
      <trkpt lat="45.16468" lon="6.04203">
        <ele>909</ele>
        <time>2012-07-07T07:40:54Z</time>
      </trkpt>
      <trkpt lat="45.16487" lon="6.04197">
        <ele>911</ele>
        <time>2012-07-07T07:40:59Z</time>
      </trkpt>
      <trkpt lat="45.165" lon="6.04195">
        <ele>912</ele>
        <time>2012-07-07T07:41:04Z</time>
      </trkpt>
      <trkpt lat="45.16518" lon="6.04195">
        <ele>914</ele>
        <time>2012-07-07T07:41:09Z</time>
      </trkpt>
      <trkpt lat="45.16528" lon="6.042">
        <ele>913</ele>
        <time>2012-07-07T07:41:14Z</time>
      </trkpt>
      <trkpt lat="45.16541" lon="6.042">
        <ele>913</ele>
        <time>2012-07-07T07:41:19Z</time>
      </trkpt>
      <trkpt lat="45.16555" lon="6.04199">
        <ele>914</ele>
        <time>2012-07-07T07:41:24Z</time>
      </trkpt>
      <trkpt lat="45.16571" lon="6.04191">
        <ele>916</ele>
        <time>2012-07-07T07:41:29Z</time>
      </trkpt>
      <trkpt lat="45.16586" lon="6.04188">
        <ele>922</ele>
        <time>2012-07-07T07:41:34Z</time>
      </trkpt>
      <trkpt lat="45.166" lon="6.04189">
        <ele>921</ele>
        <time>2012-07-07T07:41:39Z</time>
      </trkpt>
      <trkpt lat="45.16613" lon="6.04187">
        <ele>922</ele>
        <time>2012-07-07T07:41:44Z</time>
      </trkpt>
      <trkpt lat="45.16623" lon="6.04192">
        <ele>921</ele>
        <time>2012-07-07T07:41:49Z</time>
      </trkpt>
      <trkpt lat="45.16641" lon="6.04195">
        <ele>922</ele>
        <time>2012-07-07T07:41:54Z</time>
      </trkpt>
      <trkpt lat="45.16652" lon="6.04193">
        <ele>924</ele>
        <time>2012-07-07T07:41:59Z</time>
      </trkpt>
      <trkpt lat="45.16671" lon="6.04191">
        <ele>927</ele>
        <time>2012-07-07T07:42:04Z</time>
      </trkpt>
      <trkpt lat="45.1668" lon="6.04192">
        <ele>926</ele>
        <time>2012-07-07T07:42:09Z</time>
      </trkpt>
      <trkpt lat="45.16699" lon="6.04183">
        <ele>925</ele>
        <time>2012-07-07T07:42:14Z</time>
      </trkpt>
      <trkpt lat="45.16715" lon="6.04174">
        <ele>924</ele>
        <time>2012-07-07T07:42:19Z</time>
      </trkpt>
      <trkpt lat="45.16727" lon="6.04167">
        <ele>924</ele>
        <time>2012-07-07T07:42:24Z</time>
      </trkpt>
      <trkpt lat="45.16739" lon="6.0416">
        <ele>937</ele>
        <time>2012-07-07T07:42:29Z</time>
      </trkpt>
      <trkpt lat="45.1675" lon="6.04153">
        <ele>932</ele>
        <time>2012-07-07T07:42:34Z</time>
      </trkpt>
      <trkpt lat="45.16763" lon="6.04151">
        <ele>934</ele>
        <time>2012-07-07T07:42:39Z</time>
      </trkpt>
      <trkpt lat="45.16775" lon="6.04148">
        <ele>936</ele>
        <time>2012-07-07T07:42:44Z</time>
      </trkpt>
      <trkpt lat="45.16792" lon="6.04141">
        <ele>937</ele>
        <time>2012-07-07T07:42:49Z</time>
      </trkpt>
      <trkpt lat="45.16802" lon="6.04138">
        <ele>937</ele>
        <time>2012-07-07T07:42:54Z</time>
      </trkpt>
      <trkpt lat="45.16816" lon="6.04127">
        <ele>938</ele>
        <time>2012-07-07T07:42:59Z</time>
      </trkpt>
      <trkpt lat="45.1683" lon="6.04115">
        <ele>939</ele>
        <time>2012-07-07T07:43:04Z</time>
      </trkpt>
      <trkpt lat="45.16841" lon="6.04103">
        <ele>933</ele>
        <time>2012-07-07T07:43:09Z</time>
      </trkpt>
      <trkpt lat="45.16851" lon="6.04091">
        <ele>934</ele>
        <time>2012-07-07T07:43:14Z</time>
      </trkpt>
      <trkpt lat="45.1686" lon="6.04077">
        <ele>941</ele>
        <time>2012-07-07T07:43:19Z</time>
      </trkpt>
      <trkpt lat="45.16867" lon="6.04058">
        <ele>942</ele>
        <time>2012-07-07T07:43:24Z</time>
      </trkpt>
      <trkpt lat="45.16875" lon="6.04039">
        <ele>944</ele>
        <time>2012-07-07T07:43:29Z</time>
      </trkpt>
      <trkpt lat="45.16886" lon="6.04018">
        <ele>946</ele>
        <time>2012-07-07T07:43:34Z</time>
      </trkpt>
      <trkpt lat="45.16896" lon="6.04007">
        <ele>945</ele>
        <time>2012-07-07T07:43:39Z</time>
      </trkpt>
      <trkpt lat="45.16907" lon="6.04005">
        <ele>945</ele>
        <time>2012-07-07T07:43:44Z</time>
      </trkpt>
      <trkpt lat="45.1692" lon="6.03998">
        <ele>947</ele>
        <time>2012-07-07T07:43:49Z</time>
      </trkpt>
      <trkpt lat="45.16934" lon="6.03993">
        <ele>951</ele>
        <time>2012-07-07T07:43:54Z</time>
      </trkpt>
      <trkpt lat="45.16947" lon="6.03991">
        <ele>953</ele>
        <time>2012-07-07T07:43:59Z</time>
      </trkpt>
      <trkpt lat="45.16961" lon="6.03985">
        <ele>953</ele>
        <time>2012-07-07T07:44:04Z</time>
      </trkpt>
      <trkpt lat="45.16973" lon="6.03978">
        <ele>953</ele>
        <time>2012-07-07T07:44:09Z</time>
      </trkpt>
      <trkpt lat="45.16985" lon="6.0397">
        <ele>954</ele>
        <time>2012-07-07T07:44:14Z</time>
      </trkpt>
      <trkpt lat="45.16996" lon="6.03962">
        <ele>955</ele>
        <time>2012-07-07T07:44:19Z</time>
      </trkpt>
      <trkpt lat="45.17004" lon="6.03956">
        <ele>951</ele>
        <time>2012-07-07T07:44:24Z</time>
      </trkpt>
      <trkpt lat="45.17018" lon="6.03943">
        <ele>953</ele>
        <time>2012-07-07T07:44:29Z</time>
      </trkpt>
      <trkpt lat="45.17025" lon="6.03937">
        <ele>953</ele>
        <time>2012-07-07T07:44:34Z</time>
      </trkpt>
      <trkpt lat="45.17035" lon="6.03928">
        <ele>953</ele>
        <time>2012-07-07T07:44:39Z</time>
      </trkpt>
      <trkpt lat="45.17044" lon="6.03921">
        <ele>952</ele>
        <time>2012-07-07T07:44:44Z</time>
      </trkpt>
      <trkpt lat="45.17056" lon="6.03914">
        <ele>970</ele>
        <time>2012-07-07T07:44:49Z</time>
      </trkpt>
      <trkpt lat="45.17066" lon="6.03909">
        <ele>967</ele>
        <time>2012-07-07T07:44:54Z</time>
      </trkpt>
      <trkpt lat="45.17081" lon="6.03899">
        <ele>967</ele>
        <time>2012-07-07T07:44:59Z</time>
      </trkpt>
      <trkpt lat="45.17092" lon="6.03893">
        <ele>964</ele>
        <time>2012-07-07T07:45:04Z</time>
      </trkpt>
      <trkpt lat="45.17105" lon="6.03884">
        <ele>967</ele>
        <time>2012-07-07T07:45:09Z</time>
      </trkpt>
      <trkpt lat="45.17119" lon="6.03876">
        <ele>969</ele>
        <time>2012-07-07T07:45:14Z</time>
      </trkpt>
      <trkpt lat="45.17132" lon="6.03868">
        <ele>970</ele>
        <time>2012-07-07T07:45:19Z</time>
      </trkpt>
      <trkpt lat="45.17148" lon="6.03858">
        <ele>971</ele>
        <time>2012-07-07T07:45:24Z</time>
      </trkpt>
      <trkpt lat="45.17158" lon="6.03851">
        <ele>973</ele>
        <time>2012-07-07T07:45:29Z</time>
      </trkpt>
      <trkpt lat="45.1717" lon="6.03844">
        <ele>971</ele>
        <time>2012-07-07T07:45:34Z</time>
      </trkpt>
      <trkpt lat="45.17178" lon="6.03841">
        <ele>970</ele>
        <time>2012-07-07T07:45:39Z</time>
      </trkpt>
      <trkpt lat="45.17189" lon="6.03834">
        <ele>967</ele>
        <time>2012-07-07T07:45:44Z</time>
      </trkpt>
      <trkpt lat="45.172" lon="6.03828">
        <ele>984</ele>
        <time>2012-07-07T07:45:49Z</time>
      </trkpt>
      <trkpt lat="45.1721" lon="6.03825">
        <ele>984</ele>
        <time>2012-07-07T07:45:54Z</time>
      </trkpt>
      <trkpt lat="45.17221" lon="6.03817">
        <ele>983</ele>
        <time>2012-07-07T07:45:59Z</time>
      </trkpt>
      <trkpt lat="45.17232" lon="6.03812">
        <ele>982</ele>
        <time>2012-07-07T07:46:04Z</time>
      </trkpt>
      <trkpt lat="45.17243" lon="6.0381">
        <ele>980</ele>
        <time>2012-07-07T07:46:09Z</time>
      </trkpt>
      <trkpt lat="45.17255" lon="6.03805">
        <ele>976</ele>
        <time>2012-07-07T07:46:14Z</time>
      </trkpt>
      <trkpt lat="45.1727" lon="6.03798">
        <ele>979</ele>
        <time>2012-07-07T07:46:19Z</time>
      </trkpt>
      <trkpt lat="45.1728" lon="6.03793">
        <ele>980</ele>
        <time>2012-07-07T07:46:24Z</time>
      </trkpt>
      <trkpt lat="45.17296" lon="6.03787">
        <ele>981</ele>
        <time>2012-07-07T07:46:29Z</time>
      </trkpt>
      <trkpt lat="45.17304" lon="6.03785">
        <ele>981</ele>
        <time>2012-07-07T07:46:34Z</time>
      </trkpt>
      <trkpt lat="45.17313" lon="6.03787">
        <ele>980</ele>
        <time>2012-07-07T07:46:39Z</time>
      </trkpt>
      <trkpt lat="45.17325" lon="6.03785">
        <ele>981</ele>
        <time>2012-07-07T07:46:44Z</time>
      </trkpt>
      <trkpt lat="45.17336" lon="6.03785">
        <ele>980</ele>
        <time>2012-07-07T07:46:49Z</time>
      </trkpt>
      <trkpt lat="45.17347" lon="6.03784">
        <ele>980</ele>
        <time>2012-07-07T07:46:54Z</time>
      </trkpt>
      <trkpt lat="45.17359" lon="6.03783">
        <ele>980</ele>
        <time>2012-07-07T07:46:59Z</time>
      </trkpt>
      <trkpt lat="45.17371" lon="6.03779">
        <ele>981</ele>
        <time>2012-07-07T07:47:04Z</time>
      </trkpt>
      <trkpt lat="45.1738" lon="6.0378">
        <ele>981</ele>
        <time>2012-07-07T07:47:09Z</time>
      </trkpt>
      <trkpt lat="45.17391" lon="6.03778">
        <ele>982</ele>
        <time>2012-07-07T07:47:14Z</time>
      </trkpt>
      <trkpt lat="45.174" lon="6.03771">
        <ele>985</ele>
        <time>2012-07-07T07:47:19Z</time>
      </trkpt>
      <trkpt lat="45.17414" lon="6.03758">
        <ele>992</ele>
        <time>2012-07-07T07:47:24Z</time>
      </trkpt>
      <trkpt lat="45.17422" lon="6.03749">
        <ele>1000</ele>
        <time>2012-07-07T07:47:29Z</time>
      </trkpt>
      <trkpt lat="45.17429" lon="6.03742">
        <ele>1004</ele>
        <time>2012-07-07T07:47:34Z</time>
      </trkpt>
      <trkpt lat="45.17441" lon="6.03735">
        <ele>1007</ele>
        <time>2012-07-07T07:47:39Z</time>
      </trkpt>
      <trkpt lat="45.17452" lon="6.03728">
        <ele>1008</ele>
        <time>2012-07-07T07:47:44Z</time>
      </trkpt>
      <trkpt lat="45.17464" lon="6.03724">
        <ele>1008</ele>
        <time>2012-07-07T07:47:49Z</time>
      </trkpt>
      <trkpt lat="45.17477" lon="6.0372">
        <ele>1008</ele>
        <time>2012-07-07T07:47:54Z</time>
      </trkpt>
      <trkpt lat="45.17493" lon="6.03719">
        <ele>1007</ele>
        <time>2012-07-07T07:47:59Z</time>
      </trkpt>
      <trkpt lat="45.17505" lon="6.03718">
        <ele>1003</ele>
        <time>2012-07-07T07:48:04Z</time>
      </trkpt>
      <trkpt lat="45.17523" lon="6.03715">
        <ele>1004</ele>
        <time>2012-07-07T07:48:09Z</time>
      </trkpt>
      <trkpt lat="45.17536" lon="6.03711">
        <ele>1004</ele>
        <time>2012-07-07T07:48:14Z</time>
      </trkpt>
      <trkpt lat="45.17556" lon="6.03699">
        <ele>1006</ele>
        <time>2012-07-07T07:48:19Z</time>
      </trkpt>
      <trkpt lat="45.17568" lon="6.03694">
        <ele>1007</ele>
        <time>2012-07-07T07:48:24Z</time>
      </trkpt>
      <trkpt lat="45.17586" lon="6.03692">
        <ele>1004</ele>
        <time>2012-07-07T07:48:29Z</time>
      </trkpt>
      <trkpt lat="45.17602" lon="6.03696">
        <ele>1002</ele>
        <time>2012-07-07T07:48:34Z</time>
      </trkpt>
      <trkpt lat="45.17621" lon="6.03696">
        <ele>1001</ele>
        <time>2012-07-07T07:48:39Z</time>
      </trkpt>
      <trkpt lat="45.1764" lon="6.03689">
        <ele>1002</ele>
        <time>2012-07-07T07:48:44Z</time>
      </trkpt>
      <trkpt lat="45.1766" lon="6.03676">
        <ele>1006</ele>
        <time>2012-07-07T07:48:49Z</time>
      </trkpt>
      <trkpt lat="45.17681" lon="6.03655">
        <ele>1020</ele>
        <time>2012-07-07T07:48:54Z</time>
      </trkpt>
      <trkpt lat="45.17694" lon="6.0364">
        <ele>1025</ele>
        <time>2012-07-07T07:48:59Z</time>
      </trkpt>
      <trkpt lat="45.17713" lon="6.0363">
        <ele>1027</ele>
        <time>2012-07-07T07:49:04Z</time>
      </trkpt>
      <trkpt lat="45.1773" lon="6.03637">
        <ele>1025</ele>
        <time>2012-07-07T07:49:09Z</time>
      </trkpt>
      <trkpt lat="45.17741" lon="6.03648">
        <ele>1022</ele>
        <time>2012-07-07T07:49:14Z</time>
      </trkpt>
      <trkpt lat="45.17752" lon="6.03656">
        <ele>1020</ele>
        <time>2012-07-07T07:49:19Z</time>
      </trkpt>
      <trkpt lat="45.17761" lon="6.03663">
        <ele>1020</ele>
        <time>2012-07-07T07:49:24Z</time>
      </trkpt>
      <trkpt lat="45.17772" lon="6.03671">
        <ele>1008</ele>
        <time>2012-07-07T07:49:29Z</time>
      </trkpt>
      <trkpt lat="45.17784" lon="6.03675">
        <ele>1008</ele>
        <time>2012-07-07T07:49:34Z</time>
      </trkpt>
      <trkpt lat="45.17796" lon="6.03672">
        <ele>1009</ele>
        <time>2012-07-07T07:49:39Z</time>
      </trkpt>
      <trkpt lat="45.17807" lon="6.03664">
        <ele>1028</ele>
        <time>2012-07-07T07:49:44Z</time>
      </trkpt>
      <trkpt lat="45.17821" lon="6.03656">
        <ele>1028</ele>
        <time>2012-07-07T07:49:49Z</time>
      </trkpt>
      <trkpt lat="45.17831" lon="6.03654">
        <ele>1027</ele>
        <time>2012-07-07T07:49:54Z</time>
      </trkpt>
      <trkpt lat="45.17847" lon="6.03655">
        <ele>1033</ele>
        <time>2012-07-07T07:49:59Z</time>
      </trkpt>
      <trkpt lat="45.17856" lon="6.03658">
        <ele>1035</ele>
        <time>2012-07-07T07:50:04Z</time>
      </trkpt>
      <trkpt lat="45.17868" lon="6.03661">
        <ele>1036</ele>
        <time>2012-07-07T07:50:09Z</time>
      </trkpt>
      <trkpt lat="45.1788" lon="6.03662">
        <ele>1037</ele>
        <time>2012-07-07T07:50:14Z</time>
      </trkpt>
      <trkpt lat="45.17891" lon="6.03662">
        <ele>1036</ele>
        <time>2012-07-07T07:50:19Z</time>
      </trkpt>
      <trkpt lat="45.17902" lon="6.03659">
        <ele>1035</ele>
        <time>2012-07-07T07:50:24Z</time>
      </trkpt>
      <trkpt lat="45.17913" lon="6.03654">
        <ele>1035</ele>
        <time>2012-07-07T07:50:29Z</time>
      </trkpt>
      <trkpt lat="45.17922" lon="6.03648">
        <ele>1036</ele>
        <time>2012-07-07T07:50:34Z</time>
      </trkpt>
      <trkpt lat="45.17933" lon="6.0364">
        <ele>1038</ele>
        <time>2012-07-07T07:50:39Z</time>
      </trkpt>
      <trkpt lat="45.17944" lon="6.03629">
        <ele>1041</ele>
        <time>2012-07-07T07:50:44Z</time>
      </trkpt>
      <trkpt lat="45.17951" lon="6.03623">
        <ele>1042</ele>
        <time>2012-07-07T07:50:49Z</time>
      </trkpt>
      <trkpt lat="45.17963" lon="6.03611">
        <ele>1044</ele>
        <time>2012-07-07T07:50:54Z</time>
      </trkpt>
      <trkpt lat="45.1797" lon="6.03605">
        <ele>1044</ele>
        <time>2012-07-07T07:50:59Z</time>
      </trkpt>
      <trkpt lat="45.17978" lon="6.036">
        <ele>1045</ele>
        <time>2012-07-07T07:51:04Z</time>
      </trkpt>
      <trkpt lat="45.17989" lon="6.03592">
        <ele>1048</ele>
        <time>2012-07-07T07:51:09Z</time>
      </trkpt>
      <trkpt lat="45.17997" lon="6.03592">
        <ele>1050</ele>
        <time>2012-07-07T07:51:14Z</time>
      </trkpt>
      <trkpt lat="45.18006" lon="6.0359">
        <ele>1046</ele>
        <time>2012-07-07T07:51:19Z</time>
      </trkpt>
      <trkpt lat="45.18014" lon="6.03591">
        <ele>1043</ele>
        <time>2012-07-07T07:51:24Z</time>
      </trkpt>
      <trkpt lat="45.18023" lon="6.03589">
        <ele>1040</ele>
        <time>2012-07-07T07:51:29Z</time>
      </trkpt>
      <trkpt lat="45.18034" lon="6.03582">
        <ele>1064</ele>
        <time>2012-07-07T07:51:34Z</time>
      </trkpt>
      <trkpt lat="45.18047" lon="6.03574">
        <ele>1064</ele>
        <time>2012-07-07T07:51:39Z</time>
      </trkpt>
      <trkpt lat="45.18056" lon="6.03568">
        <ele>1064</ele>
        <time>2012-07-07T07:51:44Z</time>
      </trkpt>
      <trkpt lat="45.18066" lon="6.03566">
        <ele>1063</ele>
        <time>2012-07-07T07:51:49Z</time>
      </trkpt>
      <trkpt lat="45.18075" lon="6.03566">
        <ele>1061</ele>
        <time>2012-07-07T07:51:54Z</time>
      </trkpt>
      <trkpt lat="45.18084" lon="6.03565">
        <ele>1056</ele>
        <time>2012-07-07T07:51:59Z</time>
      </trkpt>
      <trkpt lat="45.18094" lon="6.03564">
        <ele>1058</ele>
        <time>2012-07-07T07:52:04Z</time>
      </trkpt>
      <trkpt lat="45.18106" lon="6.03557">
        <ele>1061</ele>
        <time>2012-07-07T07:52:09Z</time>
      </trkpt>
      <trkpt lat="45.18116" lon="6.03554">
        <ele>1062</ele>
        <time>2012-07-07T07:52:14Z</time>
      </trkpt>
      <trkpt lat="45.18128" lon="6.03546">
        <ele>1064</ele>
        <time>2012-07-07T07:52:19Z</time>
      </trkpt>
      <trkpt lat="45.18142" lon="6.03537">
        <ele>1067</ele>
        <time>2012-07-07T07:52:24Z</time>
      </trkpt>
      <trkpt lat="45.18153" lon="6.03527">
        <ele>1071</ele>
        <time>2012-07-07T07:52:29Z</time>
      </trkpt>
      <trkpt lat="45.18163" lon="6.03527">
        <ele>1071</ele>
        <time>2012-07-07T07:52:34Z</time>
      </trkpt>
      <trkpt lat="45.18173" lon="6.03524">
        <ele>1069</ele>
        <time>2012-07-07T07:52:39Z</time>
      </trkpt>
      <trkpt lat="45.18184" lon="6.03521">
        <ele>1069</ele>
        <time>2012-07-07T07:52:44Z</time>
      </trkpt>
      <trkpt lat="45.18195" lon="6.03517">
        <ele>1068</ele>
        <time>2012-07-07T07:52:49Z</time>
      </trkpt>
      <trkpt lat="45.18205" lon="6.03517">
        <ele>1067</ele>
        <time>2012-07-07T07:52:54Z</time>
      </trkpt>
      <trkpt lat="45.18213" lon="6.03522">
        <ele>1066</ele>
        <time>2012-07-07T07:52:59Z</time>
      </trkpt>
      <trkpt lat="45.18227" lon="6.03517">
        <ele>1069</ele>
        <time>2012-07-07T07:53:04Z</time>
      </trkpt>
      <trkpt lat="45.18237" lon="6.03518">
        <ele>1070</ele>
        <time>2012-07-07T07:53:09Z</time>
      </trkpt>
      <trkpt lat="45.18252" lon="6.03518">
        <ele>1071</ele>
        <time>2012-07-07T07:53:14Z</time>
      </trkpt>
      <trkpt lat="45.18268" lon="6.03519">
        <ele>1067</ele>
        <time>2012-07-07T07:53:19Z</time>
      </trkpt>
      <trkpt lat="45.18281" lon="6.03513">
        <ele>1067</ele>
        <time>2012-07-07T07:53:24Z</time>
      </trkpt>
      <trkpt lat="45.18295" lon="6.0351">
        <ele>1067</ele>
        <time>2012-07-07T07:53:29Z</time>
      </trkpt>
      <trkpt lat="45.18306" lon="6.03505">
        <ele>1069</ele>
        <time>2012-07-07T07:53:34Z</time>
      </trkpt>
      <trkpt lat="45.18322" lon="6.03498">
        <ele>1095</ele>
        <time>2012-07-07T07:53:39Z</time>
      </trkpt>
      <trkpt lat="45.1833" lon="6.03499">
        <ele>1088</ele>
        <time>2012-07-07T07:53:44Z</time>
      </trkpt>
      <trkpt lat="45.18343" lon="6.03492">
        <ele>1095</ele>
        <time>2012-07-07T07:53:49Z</time>
      </trkpt>
      <trkpt lat="45.18351" lon="6.03493">
        <ele>1098</ele>
        <time>2012-07-07T07:53:54Z</time>
      </trkpt>
      <trkpt lat="45.18363" lon="6.0349">
        <ele>1102</ele>
        <time>2012-07-07T07:53:59Z</time>
      </trkpt>
      <trkpt lat="45.18373" lon="6.03488">
        <ele>1104</ele>
        <time>2012-07-07T07:54:04Z</time>
      </trkpt>
      <trkpt lat="45.18385" lon="6.03486">
        <ele>1104</ele>
        <time>2012-07-07T07:54:09Z</time>
      </trkpt>
      <trkpt lat="45.184" lon="6.0348">
        <ele>1103</ele>
        <time>2012-07-07T07:54:14Z</time>
      </trkpt>
      <trkpt lat="45.18408" lon="6.03477">
        <ele>1104</ele>
        <time>2012-07-07T07:54:19Z</time>
      </trkpt>
      <trkpt lat="45.18421" lon="6.03477">
        <ele>1102</ele>
        <time>2012-07-07T07:54:24Z</time>
      </trkpt>
      <trkpt lat="45.1843" lon="6.03475">
        <ele>1103</ele>
        <time>2012-07-07T07:54:29Z</time>
      </trkpt>
      <trkpt lat="45.18442" lon="6.03471">
        <ele>1106</ele>
        <time>2012-07-07T07:54:34Z</time>
      </trkpt>
      <trkpt lat="45.18452" lon="6.03468">
        <ele>1107</ele>
        <time>2012-07-07T07:54:39Z</time>
      </trkpt>
      <trkpt lat="45.18464" lon="6.03464">
        <ele>1107</ele>
        <time>2012-07-07T07:54:44Z</time>
      </trkpt>
      <trkpt lat="45.18476" lon="6.03463">
        <ele>1108</ele>
        <time>2012-07-07T07:54:49Z</time>
      </trkpt>
      <trkpt lat="45.18485" lon="6.03464">
        <ele>1107</ele>
        <time>2012-07-07T07:54:54Z</time>
      </trkpt>
      <trkpt lat="45.18498" lon="6.03457">
        <ele>1109</ele>
        <time>2012-07-07T07:54:59Z</time>
      </trkpt>
      <trkpt lat="45.18509" lon="6.03455">
        <ele>1110</ele>
        <time>2012-07-07T07:55:04Z</time>
      </trkpt>
      <trkpt lat="45.18522" lon="6.03458">
        <ele>1109</ele>
        <time>2012-07-07T07:55:09Z</time>
      </trkpt>
      <trkpt lat="45.18531" lon="6.03458">
        <ele>1109</ele>
        <time>2012-07-07T07:55:14Z</time>
      </trkpt>
      <trkpt lat="45.18544" lon="6.03455">
        <ele>1109</ele>
        <time>2012-07-07T07:55:19Z</time>
      </trkpt>
      <trkpt lat="45.18554" lon="6.03451">
        <ele>1110</ele>
        <time>2012-07-07T07:55:24Z</time>
      </trkpt>
      <trkpt lat="45.18566" lon="6.03447">
        <ele>1112</ele>
        <time>2012-07-07T07:55:29Z</time>
      </trkpt>
      <trkpt lat="45.18576" lon="6.0344">
        <ele>1115</ele>
        <time>2012-07-07T07:55:34Z</time>
      </trkpt>
      <trkpt lat="45.18586" lon="6.03435">
        <ele>1115</ele>
        <time>2012-07-07T07:55:39Z</time>
      </trkpt>
      <trkpt lat="45.18593" lon="6.03435">
        <ele>1114</ele>
        <time>2012-07-07T07:55:44Z</time>
      </trkpt>
      <trkpt lat="45.18604" lon="6.0343">
        <ele>1113</ele>
        <time>2012-07-07T07:55:49Z</time>
      </trkpt>
      <trkpt lat="45.18616" lon="6.03422">
        <ele>1112</ele>
        <time>2012-07-07T07:55:54Z</time>
      </trkpt>
      <trkpt lat="45.18628" lon="6.03416">
        <ele>1140</ele>
        <time>2012-07-07T07:55:59Z</time>
      </trkpt>
      <trkpt lat="45.18642" lon="6.03408">
        <ele>1139</ele>
        <time>2012-07-07T07:56:04Z</time>
      </trkpt>
      <trkpt lat="45.1865" lon="6.03403">
        <ele>1137</ele>
        <time>2012-07-07T07:56:09Z</time>
      </trkpt>
      <trkpt lat="45.18661" lon="6.03398">
        <ele>1137</ele>
        <time>2012-07-07T07:56:14Z</time>
      </trkpt>
      <trkpt lat="45.18671" lon="6.03396">
        <ele>1139</ele>
        <time>2012-07-07T07:56:19Z</time>
      </trkpt>
      <trkpt lat="45.18681" lon="6.03394">
        <ele>1142</ele>
        <time>2012-07-07T07:56:24Z</time>
      </trkpt>
      <trkpt lat="45.18693" lon="6.03388">
        <ele>1146</ele>
        <time>2012-07-07T07:56:29Z</time>
      </trkpt>
      <trkpt lat="45.18706" lon="6.03385">
        <ele>1148</ele>
        <time>2012-07-07T07:56:34Z</time>
      </trkpt>
      <trkpt lat="45.18718" lon="6.03386">
        <ele>1148</ele>
        <time>2012-07-07T07:56:39Z</time>
      </trkpt>
      <trkpt lat="45.1873" lon="6.03391">
        <ele>1146</ele>
        <time>2012-07-07T07:56:44Z</time>
      </trkpt>
      <trkpt lat="45.18744" lon="6.034">
        <ele>1142</ele>
        <time>2012-07-07T07:56:49Z</time>
      </trkpt>
      <trkpt lat="45.18753" lon="6.03406">
        <ele>1146</ele>
        <time>2012-07-07T07:56:54Z</time>
      </trkpt>
      <trkpt lat="45.18767" lon="6.03413">
        <ele>1151</ele>
        <time>2012-07-07T07:56:59Z</time>
      </trkpt>
      <trkpt lat="45.18774" lon="6.03421">
        <ele>1135</ele>
        <time>2012-07-07T07:57:04Z</time>
      </trkpt>
      <trkpt lat="45.18786" lon="6.0343">
        <ele>1138</ele>
        <time>2012-07-07T07:57:09Z</time>
      </trkpt>
      <trkpt lat="45.18793" lon="6.0344">
        <ele>1138</ele>
        <time>2012-07-07T07:57:14Z</time>
      </trkpt>
      <trkpt lat="45.18801" lon="6.03448">
        <ele>1139</ele>
        <time>2012-07-07T07:57:19Z</time>
      </trkpt>
      <trkpt lat="45.1881" lon="6.03457">
        <ele>1138</ele>
        <time>2012-07-07T07:57:24Z</time>
      </trkpt>
      <trkpt lat="45.18818" lon="6.03467">
        <ele>1137</ele>
        <time>2012-07-07T07:57:29Z</time>
      </trkpt>
      <trkpt lat="45.18828" lon="6.03474">
        <ele>1137</ele>
        <time>2012-07-07T07:57:34Z</time>
      </trkpt>
      <trkpt lat="45.18838" lon="6.03482">
        <ele>1153</ele>
        <time>2012-07-07T07:57:39Z</time>
      </trkpt>
      <trkpt lat="45.18849" lon="6.03494">
        <ele>1152</ele>
        <time>2012-07-07T07:57:44Z</time>
      </trkpt>
      <trkpt lat="45.18855" lon="6.03502">
        <ele>1135</ele>
        <time>2012-07-07T07:57:49Z</time>
      </trkpt>
      <trkpt lat="45.18869" lon="6.03507">
        <ele>1137</ele>
        <time>2012-07-07T07:57:54Z</time>
      </trkpt>
      <trkpt lat="45.18878" lon="6.03511">
        <ele>1139</ele>
        <time>2012-07-07T07:57:59Z</time>
      </trkpt>
      <trkpt lat="45.18891" lon="6.03516">
        <ele>1143</ele>
        <time>2012-07-07T07:58:04Z</time>
      </trkpt>
      <trkpt lat="45.18899" lon="6.03521">
        <ele>1144</ele>
        <time>2012-07-07T07:58:09Z</time>
      </trkpt>
      <trkpt lat="45.1891" lon="6.03524">
        <ele>1145</ele>
        <time>2012-07-07T07:58:14Z</time>
      </trkpt>
      <trkpt lat="45.18922" lon="6.03526">
        <ele>1164</ele>
        <time>2012-07-07T07:58:19Z</time>
      </trkpt>
      <trkpt lat="45.18932" lon="6.0353">
        <ele>1164</ele>
        <time>2012-07-07T07:58:24Z</time>
      </trkpt>
      <trkpt lat="45.18944" lon="6.03531">
        <ele>1165</ele>
        <time>2012-07-07T07:58:29Z</time>
      </trkpt>
      <trkpt lat="45.18953" lon="6.03537">
        <ele>1165</ele>
        <time>2012-07-07T07:58:34Z</time>
      </trkpt>
      <trkpt lat="45.18965" lon="6.03542">
        <ele>1167</ele>
        <time>2012-07-07T07:58:39Z</time>
      </trkpt>
      <trkpt lat="45.18975" lon="6.03545">
        <ele>1168</ele>
        <time>2012-07-07T07:58:44Z</time>
      </trkpt>
      <trkpt lat="45.18988" lon="6.03552">
        <ele>1167</ele>
        <time>2012-07-07T07:58:49Z</time>
      </trkpt>
      <trkpt lat="45.18996" lon="6.03557">
        <ele>1166</ele>
        <time>2012-07-07T07:58:54Z</time>
      </trkpt>
      <trkpt lat="45.19007" lon="6.03563">
        <ele>1180</ele>
        <time>2012-07-07T07:58:59Z</time>
      </trkpt>
      <trkpt lat="45.1902" lon="6.03569">
        <ele>1181</ele>
        <time>2012-07-07T07:59:04Z</time>
      </trkpt>
      <trkpt lat="45.19032" lon="6.03573">
        <ele>1185</ele>
        <time>2012-07-07T07:59:09Z</time>
      </trkpt>
      <trkpt lat="45.19044" lon="6.03578">
        <ele>1187</ele>
        <time>2012-07-07T07:59:14Z</time>
      </trkpt>
      <trkpt lat="45.19054" lon="6.03582">
        <ele>1188</ele>
        <time>2012-07-07T07:59:19Z</time>
      </trkpt>
      <trkpt lat="45.19065" lon="6.03585">
        <ele>1166</ele>
        <time>2012-07-07T07:59:24Z</time>
      </trkpt>
      <trkpt lat="45.19076" lon="6.03589">
        <ele>1173</ele>
        <time>2012-07-07T07:59:29Z</time>
      </trkpt>
      <trkpt lat="45.19089" lon="6.03594">
        <ele>1180</ele>
        <time>2012-07-07T07:59:34Z</time>
      </trkpt>
      <trkpt lat="45.19097" lon="6.03597">
        <ele>1179</ele>
        <time>2012-07-07T07:59:39Z</time>
      </trkpt>
      <trkpt lat="45.1911" lon="6.03601">
        <ele>1178</ele>
        <time>2012-07-07T07:59:44Z</time>
      </trkpt>
      <trkpt lat="45.19117" lon="6.03603">
        <ele>1179</ele>
        <time>2012-07-07T07:59:49Z</time>
      </trkpt>
      <trkpt lat="45.19128" lon="6.03604">
        <ele>1180</ele>
        <time>2012-07-07T07:59:54Z</time>
      </trkpt>
      <trkpt lat="45.19138" lon="6.03606">
        <ele>1182</ele>
        <time>2012-07-07T07:59:59Z</time>
      </trkpt>
      <trkpt lat="45.19148" lon="6.03611">
        <ele>1183</ele>
        <time>2012-07-07T08:00:04Z</time>
      </trkpt>
      <trkpt lat="45.19158" lon="6.03614">
        <ele>1183</ele>
        <time>2012-07-07T08:00:09Z</time>
      </trkpt>
      <trkpt lat="45.19169" lon="6.03618">
        <ele>1197</ele>
        <time>2012-07-07T08:00:14Z</time>
      </trkpt>
      <trkpt lat="45.1918" lon="6.03621">
        <ele>1197</ele>
        <time>2012-07-07T08:00:19Z</time>
      </trkpt>
      <trkpt lat="45.19191" lon="6.03629">
        <ele>1196</ele>
        <time>2012-07-07T08:00:24Z</time>
      </trkpt>
      <trkpt lat="45.19202" lon="6.0364">
        <ele>1195</ele>
        <time>2012-07-07T08:00:29Z</time>
      </trkpt>
      <trkpt lat="45.19211" lon="6.03646">
        <ele>1195</ele>
        <time>2012-07-07T08:00:34Z</time>
      </trkpt>
      <trkpt lat="45.19222" lon="6.0365">
        <ele>1196</ele>
        <time>2012-07-07T08:00:39Z</time>
      </trkpt>
      <trkpt lat="45.19233" lon="6.03652">
        <ele>1197</ele>
        <time>2012-07-07T08:00:44Z</time>
      </trkpt>
      <trkpt lat="45.19245" lon="6.0365">
        <ele>1197</ele>
        <time>2012-07-07T08:00:49Z</time>
      </trkpt>
      <trkpt lat="45.19255" lon="6.03653">
        <ele>1209</ele>
        <time>2012-07-07T08:00:54Z</time>
      </trkpt>
      <trkpt lat="45.19265" lon="6.03656">
        <ele>1212</ele>
        <time>2012-07-07T08:00:59Z</time>
      </trkpt>
      <trkpt lat="45.19275" lon="6.03662">
        <ele>1216</ele>
        <time>2012-07-07T08:01:04Z</time>
      </trkpt>
      <trkpt lat="45.19287" lon="6.03669">
        <ele>1197</ele>
        <time>2012-07-07T08:01:09Z</time>
      </trkpt>
      <trkpt lat="45.193" lon="6.03673">
        <ele>1201</ele>
        <time>2012-07-07T08:01:14Z</time>
      </trkpt>
      <trkpt lat="45.19308" lon="6.03681">
        <ele>1203</ele>
        <time>2012-07-07T08:01:19Z</time>
      </trkpt>
      <trkpt lat="45.19319" lon="6.03695">
        <ele>1201</ele>
        <time>2012-07-07T08:01:24Z</time>
      </trkpt>
      <trkpt lat="45.19326" lon="6.03704">
        <ele>1199</ele>
        <time>2012-07-07T08:01:29Z</time>
      </trkpt>
      <trkpt lat="45.19336" lon="6.03717">
        <ele>1218</ele>
        <time>2012-07-07T08:01:34Z</time>
      </trkpt>
      <trkpt lat="45.19343" lon="6.03724">
        <ele>1216</ele>
        <time>2012-07-07T08:01:39Z</time>
      </trkpt>
      <trkpt lat="45.19353" lon="6.03733">
        <ele>1215</ele>
        <time>2012-07-07T08:01:44Z</time>
      </trkpt>
      <trkpt lat="45.19361" lon="6.03739">
        <ele>1217</ele>
        <time>2012-07-07T08:01:49Z</time>
      </trkpt>
      <trkpt lat="45.19371" lon="6.03744">
        <ele>1221</ele>
        <time>2012-07-07T08:01:54Z</time>
      </trkpt>
      <trkpt lat="45.19382" lon="6.03751">
        <ele>1198</ele>
        <time>2012-07-07T08:01:59Z</time>
      </trkpt>
      <trkpt lat="45.19391" lon="6.03757">
        <ele>1202</ele>
        <time>2012-07-07T08:02:04Z</time>
      </trkpt>
      <trkpt lat="45.19404" lon="6.03765">
        <ele>1206</ele>
        <time>2012-07-07T08:02:09Z</time>
      </trkpt>
      <trkpt lat="45.19412" lon="6.03769">
        <ele>1207</ele>
        <time>2012-07-07T08:02:14Z</time>
      </trkpt>
      <trkpt lat="45.19425" lon="6.03774">
        <ele>1223</ele>
        <time>2012-07-07T08:02:19Z</time>
      </trkpt>
      <trkpt lat="45.19433" lon="6.03778">
        <ele>1223</ele>
        <time>2012-07-07T08:02:24Z</time>
      </trkpt>
      <trkpt lat="45.19445" lon="6.03782">
        <ele>1223</ele>
        <time>2012-07-07T08:02:29Z</time>
      </trkpt>
      <trkpt lat="45.19456" lon="6.03785">
        <ele>1225</ele>
        <time>2012-07-07T08:02:34Z</time>
      </trkpt>
      <trkpt lat="45.19468" lon="6.03788">
        <ele>1226</ele>
        <time>2012-07-07T08:02:39Z</time>
      </trkpt>
      <trkpt lat="45.19479" lon="6.03789">
        <ele>1228</ele>
        <time>2012-07-07T08:02:44Z</time>
      </trkpt>
      <trkpt lat="45.19492" lon="6.03789">
        <ele>1230</ele>
        <time>2012-07-07T08:02:49Z</time>
      </trkpt>
      <trkpt lat="45.19505" lon="6.0379">
        <ele>1251</ele>
        <time>2012-07-07T08:02:54Z</time>
      </trkpt>
      <trkpt lat="45.19512" lon="6.038">
        <ele>1247</ele>
        <time>2012-07-07T08:02:59Z</time>
      </trkpt>
      <trkpt lat="45.19521" lon="6.03813">
        <ele>1242</ele>
        <time>2012-07-07T08:03:04Z</time>
      </trkpt>
      <trkpt lat="45.19529" lon="6.0382">
        <ele>1243</ele>
        <time>2012-07-07T08:03:09Z</time>
      </trkpt>
      <trkpt lat="45.19541" lon="6.03827">
        <ele>1246</ele>
        <time>2012-07-07T08:03:14Z</time>
      </trkpt>
      <trkpt lat="45.19549" lon="6.03832">
        <ele>1247</ele>
        <time>2012-07-07T08:03:19Z</time>
      </trkpt>
      <trkpt lat="45.1956" lon="6.03839">
        <ele>1225</ele>
        <time>2012-07-07T08:03:24Z</time>
      </trkpt>
      <trkpt lat="45.19571" lon="6.03844">
        <ele>1229</ele>
        <time>2012-07-07T08:03:29Z</time>
      </trkpt>
      <trkpt lat="45.19582" lon="6.03852">
        <ele>1228</ele>
        <time>2012-07-07T08:03:34Z</time>
      </trkpt>
      <trkpt lat="45.19592" lon="6.0386">
        <ele>1238</ele>
        <time>2012-07-07T08:03:39Z</time>
      </trkpt>
      <trkpt lat="45.19603" lon="6.03867">
        <ele>1237</ele>
        <time>2012-07-07T08:03:44Z</time>
      </trkpt>
      <trkpt lat="45.19616" lon="6.03871">
        <ele>1238</ele>
        <time>2012-07-07T08:03:49Z</time>
      </trkpt>
      <trkpt lat="45.19629" lon="6.03873">
        <ele>1239</ele>
        <time>2012-07-07T08:03:54Z</time>
      </trkpt>
      <trkpt lat="45.19642" lon="6.03876">
        <ele>1240</ele>
        <time>2012-07-07T08:03:59Z</time>
      </trkpt>
      <trkpt lat="45.19651" lon="6.0388">
        <ele>1240</ele>
        <time>2012-07-07T08:04:04Z</time>
      </trkpt>
      <trkpt lat="45.19665" lon="6.03882">
        <ele>1240</ele>
        <time>2012-07-07T08:04:09Z</time>
      </trkpt>
      <trkpt lat="45.19674" lon="6.03885">
        <ele>1252</ele>
        <time>2012-07-07T08:04:14Z</time>
      </trkpt>
      <trkpt lat="45.19686" lon="6.03885">
        <ele>1253</ele>
        <time>2012-07-07T08:04:19Z</time>
      </trkpt>
      <trkpt lat="45.19697" lon="6.03891">
        <ele>1253</ele>
        <time>2012-07-07T08:04:24Z</time>
      </trkpt>
      <trkpt lat="45.19709" lon="6.03893">
        <ele>1254</ele>
        <time>2012-07-07T08:04:29Z</time>
      </trkpt>
      <trkpt lat="45.1972" lon="6.03896">
        <ele>1254</ele>
        <time>2012-07-07T08:04:34Z</time>
      </trkpt>
      <trkpt lat="45.19731" lon="6.03898">
        <ele>1254</ele>
        <time>2012-07-07T08:04:39Z</time>
      </trkpt>
      <trkpt lat="45.19742" lon="6.039">
        <ele>1253</ele>
        <time>2012-07-07T08:04:44Z</time>
      </trkpt>
      <trkpt lat="45.19752" lon="6.03906">
        <ele>1255</ele>
        <time>2012-07-07T08:04:49Z</time>
      </trkpt>
      <trkpt lat="45.19768" lon="6.03908">
        <ele>1260</ele>
        <time>2012-07-07T08:04:54Z</time>
      </trkpt>
      <trkpt lat="45.19779" lon="6.03909">
        <ele>1263</ele>
        <time>2012-07-07T08:04:59Z</time>
      </trkpt>
      <trkpt lat="45.19792" lon="6.0391">
        <ele>1266</ele>
        <time>2012-07-07T08:05:04Z</time>
      </trkpt>
      <trkpt lat="45.19803" lon="6.03912">
        <ele>1266</ele>
        <time>2012-07-07T08:05:09Z</time>
      </trkpt>
      <trkpt lat="45.19816" lon="6.03914">
        <ele>1266</ele>
        <time>2012-07-07T08:05:14Z</time>
      </trkpt>
      <trkpt lat="45.19828" lon="6.0392">
        <ele>1256</ele>
        <time>2012-07-07T08:05:19Z</time>
      </trkpt>
      <trkpt lat="45.1984" lon="6.03925">
        <ele>1256</ele>
        <time>2012-07-07T08:05:24Z</time>
      </trkpt>
      <trkpt lat="45.19853" lon="6.03931">
        <ele>1252</ele>
        <time>2012-07-07T08:05:29Z</time>
      </trkpt>
      <trkpt lat="45.19867" lon="6.03935">
        <ele>1250</ele>
        <time>2012-07-07T08:05:34Z</time>
      </trkpt>
      <trkpt lat="45.19885" lon="6.03933">
        <ele>1251</ele>
        <time>2012-07-07T08:05:39Z</time>
      </trkpt>
      <trkpt lat="45.19897" lon="6.03928">
        <ele>1253</ele>
        <time>2012-07-07T08:05:44Z</time>
      </trkpt>
      <trkpt lat="45.19915" lon="6.03922">
        <ele>1260</ele>
        <time>2012-07-07T08:05:49Z</time>
      </trkpt>
      <trkpt lat="45.1993" lon="6.03921">
        <ele>1257</ele>
        <time>2012-07-07T08:05:54Z</time>
      </trkpt>
      <trkpt lat="45.1995" lon="6.03913">
        <ele>1270</ele>
        <time>2012-07-07T08:05:59Z</time>
      </trkpt>
      <trkpt lat="45.1997" lon="6.03907">
        <ele>1270</ele>
        <time>2012-07-07T08:06:04Z</time>
      </trkpt>
      <trkpt lat="45.19992" lon="6.0391">
        <ele>1266</ele>
        <time>2012-07-07T08:06:09Z</time>
      </trkpt>
      <trkpt lat="45.20013" lon="6.03914">
        <ele>1268</ele>
        <time>2012-07-07T08:06:14Z</time>
      </trkpt>
      <trkpt lat="45.20035" lon="6.03921">
        <ele>1257</ele>
        <time>2012-07-07T08:06:19Z</time>
      </trkpt>
      <trkpt lat="45.20057" lon="6.03931">
        <ele>1258</ele>
        <time>2012-07-07T08:06:24Z</time>
      </trkpt>
      <trkpt lat="45.2008" lon="6.03942">
        <ele>1258</ele>
        <time>2012-07-07T08:06:29Z</time>
      </trkpt>
      <trkpt lat="45.20108" lon="6.0395">
        <ele>1263</ele>
        <time>2012-07-07T08:06:34Z</time>
      </trkpt>
      <trkpt lat="45.20126" lon="6.0395">
        <ele>1264</ele>
        <time>2012-07-07T08:06:39Z</time>
      </trkpt>
      <trkpt lat="45.20154" lon="6.03953">
        <ele>1266</ele>
        <time>2012-07-07T08:06:44Z</time>
      </trkpt>
      <trkpt lat="45.20172" lon="6.03962">
        <ele>1275</ele>
        <time>2012-07-07T08:06:49Z</time>
      </trkpt>
      <trkpt lat="45.20193" lon="6.03988">
        <ele>1272</ele>
        <time>2012-07-07T08:06:54Z</time>
      </trkpt>
      <trkpt lat="45.20207" lon="6.04005">
        <ele>1257</ele>
        <time>2012-07-07T08:06:59Z</time>
      </trkpt>
      <trkpt lat="45.20225" lon="6.04023">
        <ele>1258</ele>
        <time>2012-07-07T08:07:04Z</time>
      </trkpt>
      <trkpt lat="45.20244" lon="6.04033">
        <ele>1258</ele>
        <time>2012-07-07T08:07:09Z</time>
      </trkpt>
      <trkpt lat="45.20265" lon="6.04031">
        <ele>1270</ele>
        <time>2012-07-07T08:07:14Z</time>
      </trkpt>
      <trkpt lat="45.20283" lon="6.04025">
        <ele>1272</ele>
        <time>2012-07-07T08:07:19Z</time>
      </trkpt>
      <trkpt lat="45.20301" lon="6.04023">
        <ele>1275</ele>
        <time>2012-07-07T08:07:24Z</time>
      </trkpt>
      <trkpt lat="45.2032" lon="6.04034">
        <ele>1276</ele>
        <time>2012-07-07T08:07:29Z</time>
      </trkpt>
      <trkpt lat="45.20331" lon="6.04045">
        <ele>1275</ele>
        <time>2012-07-07T08:07:34Z</time>
      </trkpt>
      <trkpt lat="45.20344" lon="6.04065">
        <ele>1281</ele>
        <time>2012-07-07T08:07:39Z</time>
      </trkpt>
      <trkpt lat="45.20354" lon="6.04078">
        <ele>1281</ele>
        <time>2012-07-07T08:07:44Z</time>
      </trkpt>
      <trkpt lat="45.20367" lon="6.04091">
        <ele>1271</ele>
        <time>2012-07-07T08:07:49Z</time>
      </trkpt>
      <trkpt lat="45.20382" lon="6.04105">
        <ele>1271</ele>
        <time>2012-07-07T08:07:54Z</time>
      </trkpt>
      <trkpt lat="45.20398" lon="6.04122">
        <ele>1271</ele>
        <time>2012-07-07T08:07:59Z</time>
      </trkpt>
      <trkpt lat="45.20414" lon="6.04138">
        <ele>1270</ele>
        <time>2012-07-07T08:08:04Z</time>
      </trkpt>
      <trkpt lat="45.20431" lon="6.04155">
        <ele>1278</ele>
        <time>2012-07-07T08:08:09Z</time>
      </trkpt>
      <trkpt lat="45.20449" lon="6.04177">
        <ele>1273</ele>
        <time>2012-07-07T08:08:14Z</time>
      </trkpt>
      <trkpt lat="45.20464" lon="6.04204">
        <ele>1274</ele>
        <time>2012-07-07T08:08:19Z</time>
      </trkpt>
      <trkpt lat="45.20476" lon="6.0424">
        <ele>1275</ele>
        <time>2012-07-07T08:08:24Z</time>
      </trkpt>
      <trkpt lat="45.20484" lon="6.04264">
        <ele>1273</ele>
        <time>2012-07-07T08:08:29Z</time>
      </trkpt>
      <trkpt lat="45.20495" lon="6.04293">
        <ele>1271</ele>
        <time>2012-07-07T08:08:34Z</time>
      </trkpt>
      <trkpt lat="45.20507" lon="6.0432">
        <ele>1278</ele>
        <time>2012-07-07T08:08:39Z</time>
      </trkpt>
      <trkpt lat="45.20524" lon="6.0434">
        <ele>1273</ele>
        <time>2012-07-07T08:08:44Z</time>
      </trkpt>
      <trkpt lat="45.20545" lon="6.04356">
        <ele>1272</ele>
        <time>2012-07-07T08:08:49Z</time>
      </trkpt>
      <trkpt lat="45.20568" lon="6.04365">
        <ele>1273</ele>
        <time>2012-07-07T08:08:54Z</time>
      </trkpt>
      <trkpt lat="45.20593" lon="6.04374">
        <ele>1278</ele>
        <time>2012-07-07T08:08:59Z</time>
      </trkpt>
      <trkpt lat="45.20621" lon="6.04387">
        <ele>1278</ele>
        <time>2012-07-07T08:09:04Z</time>
      </trkpt>
      <trkpt lat="45.20646" lon="6.04411">
        <ele>1279</ele>
        <time>2012-07-07T08:09:09Z</time>
      </trkpt>
      <trkpt lat="45.20667" lon="6.04435">
        <ele>1275</ele>
        <time>2012-07-07T08:09:14Z</time>
      </trkpt>
      <trkpt lat="45.20696" lon="6.04459">
        <ele>1273</ele>
        <time>2012-07-07T08:09:19Z</time>
      </trkpt>
      <trkpt lat="45.20716" lon="6.0447">
        <ele>1273</ele>
        <time>2012-07-07T08:09:24Z</time>
      </trkpt>
      <trkpt lat="45.20743" lon="6.0448">
        <ele>1273</ele>
        <time>2012-07-07T08:09:29Z</time>
      </trkpt>
      <trkpt lat="45.20771" lon="6.04484">
        <ele>1282</ele>
        <time>2012-07-07T08:09:34Z</time>
      </trkpt>
      <trkpt lat="45.208" lon="6.04485">
        <ele>1286</ele>
        <time>2012-07-07T08:09:39Z</time>
      </trkpt>
      <trkpt lat="45.20826" lon="6.04503">
        <ele>1279</ele>
        <time>2012-07-07T08:09:44Z</time>
      </trkpt>
      <trkpt lat="45.20844" lon="6.04537">
        <ele>1280</ele>
        <time>2012-07-07T08:09:49Z</time>
      </trkpt>
      <trkpt lat="45.20871" lon="6.04554">
        <ele>1280</ele>
        <time>2012-07-07T08:09:54Z</time>
      </trkpt>
      <trkpt lat="45.209" lon="6.0454">
        <ele>1285</ele>
        <time>2012-07-07T08:09:59Z</time>
      </trkpt>
      <trkpt lat="45.20938" lon="6.04524">
        <ele>1303</ele>
        <time>2012-07-07T08:10:04Z</time>
      </trkpt>
      <trkpt lat="45.20949" lon="6.04557">
        <ele>1300</ele>
        <time>2012-07-07T08:10:09Z</time>
      </trkpt>
      <trkpt lat="45.20942" lon="6.04617">
        <ele>1283</ele>
        <time>2012-07-07T08:10:14Z</time>
      </trkpt>
      <trkpt lat="45.2095" lon="6.04651">
        <ele>1280</ele>
        <time>2012-07-07T08:10:19Z</time>
      </trkpt>
      <trkpt lat="45.20981" lon="6.04661">
        <ele>1286</ele>
        <time>2012-07-07T08:10:24Z</time>
      </trkpt>
      <trkpt lat="45.21012" lon="6.04675">
        <ele>1286</ele>
        <time>2012-07-07T08:10:29Z</time>
      </trkpt>
      <trkpt lat="45.21038" lon="6.04702">
        <ele>1281</ele>
        <time>2012-07-07T08:10:34Z</time>
      </trkpt>
      <trkpt lat="45.21068" lon="6.04717">
        <ele>1281</ele>
        <time>2012-07-07T08:10:39Z</time>
      </trkpt>
      <trkpt lat="45.21098" lon="6.04737">
        <ele>1293</ele>
        <time>2012-07-07T08:10:44Z</time>
      </trkpt>
      <trkpt lat="45.21126" lon="6.0476">
        <ele>1290</ele>
        <time>2012-07-07T08:10:49Z</time>
      </trkpt>
      <trkpt lat="45.2112" lon="6.04808">
        <ele>1287</ele>
        <time>2012-07-07T08:10:54Z</time>
      </trkpt>
      <trkpt lat="45.21083" lon="6.04862">
        <ele>1255</ele>
        <time>2012-07-07T08:10:59Z</time>
      </trkpt>
      <trkpt lat="45.21077" lon="6.04911">
        <ele>1266</ele>
        <time>2012-07-07T08:11:04Z</time>
      </trkpt>
      <trkpt lat="45.21086" lon="6.04984">
        <ele>1275</ele>
        <time>2012-07-07T08:11:09Z</time>
      </trkpt>
      <trkpt lat="45.21112" lon="6.05026">
        <ele>1281</ele>
        <time>2012-07-07T08:11:14Z</time>
      </trkpt>
      <trkpt lat="45.21096" lon="6.05096">
        <ele>1275</ele>
        <time>2012-07-07T08:11:19Z</time>
      </trkpt>
      <trkpt lat="45.21075" lon="6.05141">
        <ele>1247</ele>
        <time>2012-07-07T08:11:24Z</time>
      </trkpt>
      <trkpt lat="45.21086" lon="6.05217">
        <ele>1279</ele>
        <time>2012-07-07T08:11:29Z</time>
      </trkpt>
      <trkpt lat="45.21095" lon="6.05299">
        <ele>1278</ele>
        <time>2012-07-07T08:11:34Z</time>
      </trkpt>
      <trkpt lat="45.2109" lon="6.05378">
        <ele>1276</ele>
        <time>2012-07-07T08:11:39Z</time>
      </trkpt>
      <trkpt lat="45.21085" lon="6.05446">
        <ele>1271</ele>
        <time>2012-07-07T08:11:44Z</time>
      </trkpt>
      <trkpt lat="45.21082" lon="6.05503">
        <ele>1251</ele>
        <time>2012-07-07T08:11:49Z</time>
      </trkpt>
      <trkpt lat="45.21089" lon="6.05562">
        <ele>1264</ele>
        <time>2012-07-07T08:11:54Z</time>
      </trkpt>
      <trkpt lat="45.21086" lon="6.05606">
        <ele>1261</ele>
        <time>2012-07-07T08:11:59Z</time>
      </trkpt>
      <trkpt lat="45.21085" lon="6.0567">
        <ele>1248</ele>
        <time>2012-07-07T08:12:04Z</time>
      </trkpt>
      <trkpt lat="45.2108" lon="6.0569">
        <ele>1234</ele>
        <time>2012-07-07T08:12:09Z</time>
      </trkpt>
      <trkpt lat="45.21068" lon="6.05649">
        <ele>1234</ele>
        <time>2012-07-07T08:12:14Z</time>
      </trkpt>
      <trkpt lat="45.21058" lon="6.05585">
        <ele>1235</ele>
        <time>2012-07-07T08:12:19Z</time>
      </trkpt>
      <trkpt lat="45.21049" lon="6.05542">
        <ele>1232</ele>
        <time>2012-07-07T08:12:24Z</time>
      </trkpt>
      <trkpt lat="45.21035" lon="6.0558">
        <ele>1228</ele>
        <time>2012-07-07T08:12:29Z</time>
      </trkpt>
      <trkpt lat="45.21023" lon="6.05645">
        <ele>1223</ele>
        <time>2012-07-07T08:12:34Z</time>
      </trkpt>
      <trkpt lat="45.21016" lon="6.05705">
        <ele>1220</ele>
        <time>2012-07-07T08:12:39Z</time>
      </trkpt>
      <trkpt lat="45.21008" lon="6.05726">
        <ele>1218</ele>
        <time>2012-07-07T08:12:44Z</time>
      </trkpt>
      <trkpt lat="45.20989" lon="6.05666">
        <ele>1204</ele>
        <time>2012-07-07T08:12:49Z</time>
      </trkpt>
      <trkpt lat="45.20979" lon="6.05611">
        <ele>1200</ele>
        <time>2012-07-07T08:12:54Z</time>
      </trkpt>
      <trkpt lat="45.20978" lon="6.05542">
        <ele>1199</ele>
        <time>2012-07-07T08:12:59Z</time>
      </trkpt>
      <trkpt lat="45.20976" lon="6.05504">
        <ele>1199</ele>
        <time>2012-07-07T08:13:04Z</time>
      </trkpt>
      <trkpt lat="45.20955" lon="6.05539">
        <ele>1195</ele>
        <time>2012-07-07T08:13:09Z</time>
      </trkpt>
      <trkpt lat="45.20941" lon="6.05609">
        <ele>1193</ele>
        <time>2012-07-07T08:13:14Z</time>
      </trkpt>
      <trkpt lat="45.20932" lon="6.05683">
        <ele>1190</ele>
        <time>2012-07-07T08:13:19Z</time>
      </trkpt>
      <trkpt lat="45.20917" lon="6.05746">
        <ele>1185</ele>
        <time>2012-07-07T08:13:24Z</time>
      </trkpt>
      <trkpt lat="45.20884" lon="6.05776">
        <ele>1209</ele>
        <time>2012-07-07T08:13:29Z</time>
      </trkpt>
      <trkpt lat="45.20871" lon="6.05805">
        <ele>1214</ele>
        <time>2012-07-07T08:13:34Z</time>
      </trkpt>
      <trkpt lat="45.20866" lon="6.05822">
        <ele>1216</ele>
        <time>2012-07-07T08:13:39Z</time>
      </trkpt>
      <trkpt lat="45.20865" lon="6.05836">
        <ele>1217</ele>
        <time>2012-07-07T08:13:44Z</time>
      </trkpt>
      <trkpt lat="45.20862" lon="6.0585">
        <ele>1217</ele>
        <time>2012-07-07T08:13:49Z</time>
      </trkpt>
      <trkpt lat="45.20859" lon="6.05868">
        <ele>1217</ele>
        <time>2012-07-07T08:13:54Z</time>
      </trkpt>
      <trkpt lat="45.20858" lon="6.05879">
        <ele>1217</ele>
        <time>2012-07-07T08:13:59Z</time>
      </trkpt>
      <trkpt lat="45.20859" lon="6.05893">
        <ele>1217</ele>
        <time>2012-07-07T08:14:04Z</time>
      </trkpt>
      <trkpt lat="45.20859" lon="6.05906">
        <ele>1218</ele>
        <time>2012-07-07T08:14:09Z</time>
      </trkpt>
      <trkpt lat="45.20856" lon="6.05922">
        <ele>1224</ele>
        <time>2012-07-07T08:14:14Z</time>
      </trkpt>
      <trkpt lat="45.20854" lon="6.05936">
        <ele>1223</ele>
        <time>2012-07-07T08:14:19Z</time>
      </trkpt>
      <trkpt lat="45.20853" lon="6.05952">
        <ele>1224</ele>
        <time>2012-07-07T08:14:24Z</time>
      </trkpt>
      <trkpt lat="45.20848" lon="6.05972">
        <ele>1228</ele>
        <time>2012-07-07T08:14:29Z</time>
      </trkpt>
      <trkpt lat="45.20846" lon="6.05985">
        <ele>1233</ele>
        <time>2012-07-07T08:14:34Z</time>
      </trkpt>
      <trkpt lat="45.20845" lon="6.06">
        <ele>1238</ele>
        <time>2012-07-07T08:14:39Z</time>
      </trkpt>
      <trkpt lat="45.20842" lon="6.06012">
        <ele>1238</ele>
        <time>2012-07-07T08:14:44Z</time>
      </trkpt>
      <trkpt lat="45.20838" lon="6.0603">
        <ele>1233</ele>
        <time>2012-07-07T08:14:49Z</time>
      </trkpt>
      <trkpt lat="45.20834" lon="6.06042">
        <ele>1232</ele>
        <time>2012-07-07T08:14:54Z</time>
      </trkpt>
      <trkpt lat="45.20831" lon="6.06057">
        <ele>1271</ele>
        <time>2012-07-07T08:14:59Z</time>
      </trkpt>
      <trkpt lat="45.20827" lon="6.06071">
        <ele>1264</ele>
        <time>2012-07-07T08:15:04Z</time>
      </trkpt>
      <trkpt lat="45.20824" lon="6.06085">
        <ele>1256</ele>
        <time>2012-07-07T08:15:09Z</time>
      </trkpt>
      <trkpt lat="45.20822" lon="6.06099">
        <ele>1261</ele>
        <time>2012-07-07T08:15:14Z</time>
      </trkpt>
      <trkpt lat="45.2082" lon="6.06113">
        <ele>1264</ele>
        <time>2012-07-07T08:15:19Z</time>
      </trkpt>
      <trkpt lat="45.20817" lon="6.06131">
        <ele>1262</ele>
        <time>2012-07-07T08:15:24Z</time>
      </trkpt>
      <trkpt lat="45.20815" lon="6.06142">
        <ele>1259</ele>
        <time>2012-07-07T08:15:29Z</time>
      </trkpt>
      <trkpt lat="45.20812" lon="6.0616">
        <ele>1254</ele>
        <time>2012-07-07T08:15:34Z</time>
      </trkpt>
      <trkpt lat="45.20811" lon="6.06172">
        <ele>1247</ele>
        <time>2012-07-07T08:15:39Z</time>
      </trkpt>
      <trkpt lat="45.20809" lon="6.06187">
        <ele>1251</ele>
        <time>2012-07-07T08:15:44Z</time>
      </trkpt>
      <trkpt lat="45.20806" lon="6.06201">
        <ele>1254</ele>
        <time>2012-07-07T08:15:49Z</time>
      </trkpt>
      <trkpt lat="45.20804" lon="6.06216">
        <ele>1254</ele>
        <time>2012-07-07T08:15:54Z</time>
      </trkpt>
      <trkpt lat="45.20802" lon="6.0623">
        <ele>1253</ele>
        <time>2012-07-07T08:15:59Z</time>
      </trkpt>
      <trkpt lat="45.208" lon="6.06245">
        <ele>1253</ele>
        <time>2012-07-07T08:16:04Z</time>
      </trkpt>
      <trkpt lat="45.20798" lon="6.06259">
        <ele>1250</ele>
        <time>2012-07-07T08:16:09Z</time>
      </trkpt>
      <trkpt lat="45.20796" lon="6.06273">
        <ele>1253</ele>
        <time>2012-07-07T08:16:14Z</time>
      </trkpt>
      <trkpt lat="45.20795" lon="6.06291">
        <ele>1254</ele>
        <time>2012-07-07T08:16:19Z</time>
      </trkpt>
      <trkpt lat="45.20794" lon="6.06302">
        <ele>1254</ele>
        <time>2012-07-07T08:16:24Z</time>
      </trkpt>
      <trkpt lat="45.20792" lon="6.06317">
        <ele>1255</ele>
        <time>2012-07-07T08:16:29Z</time>
      </trkpt>
      <trkpt lat="45.20789" lon="6.06333">
        <ele>1256</ele>
        <time>2012-07-07T08:16:34Z</time>
      </trkpt>
      <trkpt lat="45.20792" lon="6.06346">
        <ele>1251</ele>
        <time>2012-07-07T08:16:39Z</time>
      </trkpt>
      <trkpt lat="45.20791" lon="6.06359">
        <ele>1251</ele>
        <time>2012-07-07T08:16:44Z</time>
      </trkpt>
      <trkpt lat="45.2079" lon="6.06373">
        <ele>1251</ele>
        <time>2012-07-07T08:16:49Z</time>
      </trkpt>
      <trkpt lat="45.20789" lon="6.06387">
        <ele>1251</ele>
        <time>2012-07-07T08:16:54Z</time>
      </trkpt>
      <trkpt lat="45.20786" lon="6.06401">
        <ele>1253</ele>
        <time>2012-07-07T08:16:59Z</time>
      </trkpt>
      <trkpt lat="45.20781" lon="6.06415">
        <ele>1255</ele>
        <time>2012-07-07T08:17:04Z</time>
      </trkpt>
      <trkpt lat="45.20777" lon="6.06428">
        <ele>1253</ele>
        <time>2012-07-07T08:17:09Z</time>
      </trkpt>
      <trkpt lat="45.20771" lon="6.06444">
        <ele>1252</ele>
        <time>2012-07-07T08:17:14Z</time>
      </trkpt>
      <trkpt lat="45.20768" lon="6.06454">
        <ele>1251</ele>
        <time>2012-07-07T08:17:19Z</time>
      </trkpt>
      <trkpt lat="45.20762" lon="6.06469">
        <ele>1251</ele>
        <time>2012-07-07T08:17:24Z</time>
      </trkpt>
      <trkpt lat="45.20758" lon="6.06479">
        <ele>1252</ele>
        <time>2012-07-07T08:17:29Z</time>
      </trkpt>
      <trkpt lat="45.20752" lon="6.0649">
        <ele>1256</ele>
        <time>2012-07-07T08:17:34Z</time>
      </trkpt>
      <trkpt lat="45.20745" lon="6.06501">
        <ele>1266</ele>
        <time>2012-07-07T08:17:39Z</time>
      </trkpt>
      <trkpt lat="45.20739" lon="6.06512">
        <ele>1273</ele>
        <time>2012-07-07T08:17:44Z</time>
      </trkpt>
      <trkpt lat="45.20735" lon="6.06525">
        <ele>1277</ele>
        <time>2012-07-07T08:17:49Z</time>
      </trkpt>
      <trkpt lat="45.20732" lon="6.06539">
        <ele>1277</ele>
        <time>2012-07-07T08:17:54Z</time>
      </trkpt>
      <trkpt lat="45.20726" lon="6.06555">
        <ele>1276</ele>
        <time>2012-07-07T08:17:59Z</time>
      </trkpt>
      <trkpt lat="45.20721" lon="6.06565">
        <ele>1276</ele>
        <time>2012-07-07T08:18:04Z</time>
      </trkpt>
      <trkpt lat="45.20713" lon="6.06579">
        <ele>1279</ele>
        <time>2012-07-07T08:18:09Z</time>
      </trkpt>
      <trkpt lat="45.20707" lon="6.06588">
        <ele>1270</ele>
        <time>2012-07-07T08:18:14Z</time>
      </trkpt>
      <trkpt lat="45.207" lon="6.06599">
        <ele>1274</ele>
        <time>2012-07-07T08:18:19Z</time>
      </trkpt>
      <trkpt lat="45.20692" lon="6.06611">
        <ele>1275</ele>
        <time>2012-07-07T08:18:24Z</time>
      </trkpt>
      <trkpt lat="45.20685" lon="6.06623">
        <ele>1274</ele>
        <time>2012-07-07T08:18:29Z</time>
      </trkpt>
      <trkpt lat="45.20677" lon="6.06636">
        <ele>1273</ele>
        <time>2012-07-07T08:18:34Z</time>
      </trkpt>
      <trkpt lat="45.20671" lon="6.06649">
        <ele>1274</ele>
        <time>2012-07-07T08:18:39Z</time>
      </trkpt>
      <trkpt lat="45.20663" lon="6.06662">
        <ele>1287</ele>
        <time>2012-07-07T08:18:44Z</time>
      </trkpt>
      <trkpt lat="45.20656" lon="6.06675">
        <ele>1285</ele>
        <time>2012-07-07T08:18:49Z</time>
      </trkpt>
      <trkpt lat="45.20649" lon="6.06691">
        <ele>1290</ele>
        <time>2012-07-07T08:18:54Z</time>
      </trkpt>
      <trkpt lat="45.20643" lon="6.06703">
        <ele>1291</ele>
        <time>2012-07-07T08:18:59Z</time>
      </trkpt>
      <trkpt lat="45.20634" lon="6.06719">
        <ele>1292</ele>
        <time>2012-07-07T08:19:04Z</time>
      </trkpt>
      <trkpt lat="45.20629" lon="6.06729">
        <ele>1293</ele>
        <time>2012-07-07T08:19:09Z</time>
      </trkpt>
      <trkpt lat="45.20622" lon="6.06742">
        <ele>1295</ele>
        <time>2012-07-07T08:19:14Z</time>
      </trkpt>
      <trkpt lat="45.20615" lon="6.06755">
        <ele>1291</ele>
        <time>2012-07-07T08:19:19Z</time>
      </trkpt>
      <trkpt lat="45.20608" lon="6.06767">
        <ele>1293</ele>
        <time>2012-07-07T08:19:24Z</time>
      </trkpt>
      <trkpt lat="45.20601" lon="6.0678">
        <ele>1293</ele>
        <time>2012-07-07T08:19:29Z</time>
      </trkpt>
      <trkpt lat="45.20595" lon="6.06794">
        <ele>1292</ele>
        <time>2012-07-07T08:19:34Z</time>
      </trkpt>
      <trkpt lat="45.20589" lon="6.06808">
        <ele>1293</ele>
        <time>2012-07-07T08:19:39Z</time>
      </trkpt>
      <trkpt lat="45.20585" lon="6.06823">
        <ele>1295</ele>
        <time>2012-07-07T08:19:44Z</time>
      </trkpt>
      <trkpt lat="45.20581" lon="6.06841">
        <ele>1306</ele>
        <time>2012-07-07T08:19:49Z</time>
      </trkpt>
      <trkpt lat="45.2058" lon="6.06853">
        <ele>1312</ele>
        <time>2012-07-07T08:19:54Z</time>
      </trkpt>
      <trkpt lat="45.20578" lon="6.06871">
        <ele>1314</ele>
        <time>2012-07-07T08:19:59Z</time>
      </trkpt>
      <trkpt lat="45.20575" lon="6.06881">
        <ele>1314</ele>
        <time>2012-07-07T08:20:04Z</time>
      </trkpt>
      <trkpt lat="45.2057" lon="6.06896">
        <ele>1311</ele>
        <time>2012-07-07T08:20:09Z</time>
      </trkpt>
      <trkpt lat="45.20565" lon="6.0691">
        <ele>1310</ele>
        <time>2012-07-07T08:20:14Z</time>
      </trkpt>
      <trkpt lat="45.2056" lon="6.06923">
        <ele>1306</ele>
        <time>2012-07-07T08:20:19Z</time>
      </trkpt>
      <trkpt lat="45.20555" lon="6.06938">
        <ele>1309</ele>
        <time>2012-07-07T08:20:24Z</time>
      </trkpt>
      <trkpt lat="45.20549" lon="6.06953">
        <ele>1311</ele>
        <time>2012-07-07T08:20:29Z</time>
      </trkpt>
      <trkpt lat="45.20542" lon="6.06969">
        <ele>1312</ele>
        <time>2012-07-07T08:20:34Z</time>
      </trkpt>
      <trkpt lat="45.20535" lon="6.06986">
        <ele>1312</ele>
        <time>2012-07-07T08:20:39Z</time>
      </trkpt>
      <trkpt lat="45.20528" lon="6.07006">
        <ele>1307</ele>
        <time>2012-07-07T08:20:44Z</time>
      </trkpt>
      <trkpt lat="45.20523" lon="6.07019">
        <ele>1307</ele>
        <time>2012-07-07T08:20:49Z</time>
      </trkpt>
      <trkpt lat="45.20516" lon="6.07037">
        <ele>1305</ele>
        <time>2012-07-07T08:20:54Z</time>
      </trkpt>
      <trkpt lat="45.20509" lon="6.07057">
        <ele>1303</ele>
        <time>2012-07-07T08:20:59Z</time>
      </trkpt>
      <trkpt lat="45.20501" lon="6.07077">
        <ele>1303</ele>
        <time>2012-07-07T08:21:04Z</time>
      </trkpt>
      <trkpt lat="45.20492" lon="6.07099">
        <ele>1313</ele>
        <time>2012-07-07T08:21:09Z</time>
      </trkpt>
      <trkpt lat="45.20481" lon="6.07128">
        <ele>1315</ele>
        <time>2012-07-07T08:21:14Z</time>
      </trkpt>
      <trkpt lat="45.20473" lon="6.07168">
        <ele>1304</ele>
        <time>2012-07-07T08:21:19Z</time>
      </trkpt>
      <trkpt lat="45.20462" lon="6.07214">
        <ele>1307</ele>
        <time>2012-07-07T08:21:24Z</time>
      </trkpt>
      <trkpt lat="45.20439" lon="6.07255">
        <ele>1307</ele>
        <time>2012-07-07T08:21:29Z</time>
      </trkpt>
      <trkpt lat="45.20431" lon="6.07302">
        <ele>1304</ele>
        <time>2012-07-07T08:21:34Z</time>
      </trkpt>
      <trkpt lat="45.20442" lon="6.07346">
        <ele>1312</ele>
        <time>2012-07-07T08:21:39Z</time>
      </trkpt>
      <trkpt lat="45.20438" lon="6.07356">
        <ele>1313</ele>
        <time>2012-07-07T08:21:44Z</time>
      </trkpt>
      <trkpt lat="45.20425" lon="6.07363">
        <ele>1312</ele>
        <time>2012-07-07T08:21:49Z</time>
      </trkpt>
      <trkpt lat="45.2042" lon="6.07374">
        <ele>1314</ele>
        <time>2012-07-07T08:21:54Z</time>
      </trkpt>
      <trkpt lat="45.20411" lon="6.07382">
        <ele>1311</ele>
        <time>2012-07-07T08:21:59Z</time>
      </trkpt>
      <trkpt lat="45.2041" lon="6.07401">
        <ele>1312</ele>
        <time>2012-07-07T08:22:04Z</time>
      </trkpt>
      <trkpt lat="45.20405" lon="6.07414">
        <ele>1312</ele>
        <time>2012-07-07T08:22:09Z</time>
      </trkpt>
      <trkpt lat="45.20398" lon="6.07425">
        <ele>1318</ele>
        <time>2012-07-07T08:22:14Z</time>
      </trkpt>
      <trkpt lat="45.20391" lon="6.07435">
        <ele>1319</ele>
        <time>2012-07-07T08:22:19Z</time>
      </trkpt>
      <trkpt lat="45.20384" lon="6.0745">
        <ele>1321</ele>
        <time>2012-07-07T08:22:24Z</time>
      </trkpt>
      <trkpt lat="45.20378" lon="6.07457">
        <ele>1322</ele>
        <time>2012-07-07T08:22:29Z</time>
      </trkpt>
      <trkpt lat="45.20369" lon="6.07465">
        <ele>1322</ele>
        <time>2012-07-07T08:22:34Z</time>
      </trkpt>
      <trkpt lat="45.20361" lon="6.07468">
        <ele>1322</ele>
        <time>2012-07-07T08:22:39Z</time>
      </trkpt>
      <trkpt lat="45.20359" lon="6.07484">
        <ele>1322</ele>
        <time>2012-07-07T08:22:44Z</time>
      </trkpt>
      <trkpt lat="45.20352" lon="6.07496">
        <ele>1322</ele>
        <time>2012-07-07T08:22:49Z</time>
      </trkpt>
      <trkpt lat="45.20343" lon="6.07508">
        <ele>1329</ele>
        <time>2012-07-07T08:22:54Z</time>
      </trkpt>
      <trkpt lat="45.20336" lon="6.07515">
        <ele>1331</ele>
        <time>2012-07-07T08:22:59Z</time>
      </trkpt>
      <trkpt lat="45.20329" lon="6.07524">
        <ele>1327</ele>
        <time>2012-07-07T08:23:04Z</time>
      </trkpt>
      <trkpt lat="45.20322" lon="6.07534">
        <ele>1329</ele>
        <time>2012-07-07T08:23:09Z</time>
      </trkpt>
      <trkpt lat="45.20314" lon="6.07543">
        <ele>1330</ele>
        <time>2012-07-07T08:23:14Z</time>
      </trkpt>
      <trkpt lat="45.20305" lon="6.07553">
        <ele>1331</ele>
        <time>2012-07-07T08:23:19Z</time>
      </trkpt>
      <trkpt lat="45.20306" lon="6.0757">
        <ele>1333</ele>
        <time>2012-07-07T08:23:24Z</time>
      </trkpt>
      <trkpt lat="45.20298" lon="6.07581">
        <ele>1333</ele>
        <time>2012-07-07T08:23:29Z</time>
      </trkpt>
      <trkpt lat="45.20289" lon="6.07585">
        <ele>1343</ele>
        <time>2012-07-07T08:23:34Z</time>
      </trkpt>
      <trkpt lat="45.20282" lon="6.07593">
        <ele>1343</ele>
        <time>2012-07-07T08:23:39Z</time>
      </trkpt>
      <trkpt lat="45.20273" lon="6.07602">
        <ele>1343</ele>
        <time>2012-07-07T08:23:44Z</time>
      </trkpt>
      <trkpt lat="45.20267" lon="6.07615">
        <ele>1345</ele>
        <time>2012-07-07T08:23:49Z</time>
      </trkpt>
      <trkpt lat="45.20262" lon="6.07628">
        <ele>1346</ele>
        <time>2012-07-07T08:23:54Z</time>
      </trkpt>
      <trkpt lat="45.20257" lon="6.0764">
        <ele>1347</ele>
        <time>2012-07-07T08:23:59Z</time>
      </trkpt>
      <trkpt lat="45.20254" lon="6.07653">
        <ele>1348</ele>
        <time>2012-07-07T08:24:04Z</time>
      </trkpt>
      <trkpt lat="45.20245" lon="6.07661">
        <ele>1346</ele>
        <time>2012-07-07T08:24:09Z</time>
      </trkpt>
      <trkpt lat="45.20233" lon="6.07669">
        <ele>1351</ele>
        <time>2012-07-07T08:24:14Z</time>
      </trkpt>
      <trkpt lat="45.20223" lon="6.07669">
        <ele>1352</ele>
        <time>2012-07-07T08:24:19Z</time>
      </trkpt>
      <trkpt lat="45.2021" lon="6.07666">
        <ele>1343</ele>
        <time>2012-07-07T08:24:24Z</time>
      </trkpt>
      <trkpt lat="45.20203" lon="6.07664">
        <ele>1342</ele>
        <time>2012-07-07T08:24:29Z</time>
      </trkpt>
      <trkpt lat="45.20195" lon="6.07663">
        <ele>1342</ele>
        <time>2012-07-07T08:24:34Z</time>
      </trkpt>
      <trkpt lat="45.20186" lon="6.0767">
        <ele>1350</ele>
        <time>2012-07-07T08:24:39Z</time>
      </trkpt>
      <trkpt lat="45.20189" lon="6.07687">
        <ele>1352</ele>
        <time>2012-07-07T08:24:44Z</time>
      </trkpt>
      <trkpt lat="45.20199" lon="6.07695">
        <ele>1353</ele>
        <time>2012-07-07T08:24:49Z</time>
      </trkpt>
      <trkpt lat="45.20209" lon="6.07702">
        <ele>1354</ele>
        <time>2012-07-07T08:24:54Z</time>
      </trkpt>
      <trkpt lat="45.20218" lon="6.07707">
        <ele>1355</ele>
        <time>2012-07-07T08:24:59Z</time>
      </trkpt>
      <trkpt lat="45.20225" lon="6.07708">
        <ele>1356</ele>
        <time>2012-07-07T08:25:04Z</time>
      </trkpt>
      <trkpt lat="45.20236" lon="6.07703">
        <ele>1356</ele>
        <time>2012-07-07T08:25:09Z</time>
      </trkpt>
      <trkpt lat="45.20246" lon="6.07702">
        <ele>1356</ele>
        <time>2012-07-07T08:25:14Z</time>
      </trkpt>
      <trkpt lat="45.20261" lon="6.07702">
        <ele>1368</ele>
        <time>2012-07-07T08:25:19Z</time>
      </trkpt>
      <trkpt lat="45.20273" lon="6.07698">
        <ele>1369</ele>
        <time>2012-07-07T08:25:24Z</time>
      </trkpt>
      <trkpt lat="45.20281" lon="6.07691">
        <ele>1369</ele>
        <time>2012-07-07T08:25:29Z</time>
      </trkpt>
      <trkpt lat="45.20288" lon="6.07682">
        <ele>1369</ele>
        <time>2012-07-07T08:25:34Z</time>
      </trkpt>
      <trkpt lat="45.20298" lon="6.07675">
        <ele>1370</ele>
        <time>2012-07-07T08:25:39Z</time>
      </trkpt>
      <trkpt lat="45.20306" lon="6.07668">
        <ele>1371</ele>
        <time>2012-07-07T08:25:44Z</time>
      </trkpt>
      <trkpt lat="45.20315" lon="6.07659">
        <ele>1358</ele>
        <time>2012-07-07T08:25:49Z</time>
      </trkpt>
      <trkpt lat="45.20323" lon="6.07648">
        <ele>1357</ele>
        <time>2012-07-07T08:25:54Z</time>
      </trkpt>
      <trkpt lat="45.2033" lon="6.07642">
        <ele>1355</ele>
        <time>2012-07-07T08:25:59Z</time>
      </trkpt>
      <trkpt lat="45.2034" lon="6.07632">
        <ele>1370</ele>
        <time>2012-07-07T08:26:04Z</time>
      </trkpt>
      <trkpt lat="45.20346" lon="6.07624">
        <ele>1368</ele>
        <time>2012-07-07T08:26:09Z</time>
      </trkpt>
      <trkpt lat="45.20357" lon="6.07618">
        <ele>1369</ele>
        <time>2012-07-07T08:26:14Z</time>
      </trkpt>
      <trkpt lat="45.20367" lon="6.07618">
        <ele>1372</ele>
        <time>2012-07-07T08:26:19Z</time>
      </trkpt>
      <trkpt lat="45.2036" lon="6.07631">
        <ele>1373</ele>
        <time>2012-07-07T08:26:24Z</time>
      </trkpt>
      <trkpt lat="45.20349" lon="6.0764">
        <ele>1372</ele>
        <time>2012-07-07T08:26:29Z</time>
      </trkpt>
      <trkpt lat="45.20341" lon="6.07651">
        <ele>1372</ele>
        <time>2012-07-07T08:26:34Z</time>
      </trkpt>
      <trkpt lat="45.20332" lon="6.07659">
        <ele>1364</ele>
        <time>2012-07-07T08:26:39Z</time>
      </trkpt>
      <trkpt lat="45.20324" lon="6.0767">
        <ele>1371</ele>
        <time>2012-07-07T08:26:44Z</time>
      </trkpt>
      <trkpt lat="45.20315" lon="6.07684">
        <ele>1373</ele>
        <time>2012-07-07T08:26:49Z</time>
      </trkpt>
      <trkpt lat="45.20308" lon="6.07693">
        <ele>1374</ele>
        <time>2012-07-07T08:26:54Z</time>
      </trkpt>
      <trkpt lat="45.20298" lon="6.07705">
        <ele>1374</ele>
        <time>2012-07-07T08:26:59Z</time>
      </trkpt>
      <trkpt lat="45.2029" lon="6.07713">
        <ele>1374</ele>
        <time>2012-07-07T08:27:04Z</time>
      </trkpt>
      <trkpt lat="45.20278" lon="6.07725">
        <ele>1374</ele>
        <time>2012-07-07T08:27:09Z</time>
      </trkpt>
      <trkpt lat="45.20272" lon="6.07735">
        <ele>1374</ele>
        <time>2012-07-07T08:27:14Z</time>
      </trkpt>
      <trkpt lat="45.20261" lon="6.07747">
        <ele>1373</ele>
        <time>2012-07-07T08:27:19Z</time>
      </trkpt>
      <trkpt lat="45.20253" lon="6.07755">
        <ele>1380</ele>
        <time>2012-07-07T08:27:24Z</time>
      </trkpt>
      <trkpt lat="45.20243" lon="6.07764">
        <ele>1378</ele>
        <time>2012-07-07T08:27:29Z</time>
      </trkpt>
      <trkpt lat="45.20234" lon="6.07774">
        <ele>1382</ele>
        <time>2012-07-07T08:27:34Z</time>
      </trkpt>
      <trkpt lat="45.20226" lon="6.07784">
        <ele>1384</ele>
        <time>2012-07-07T08:27:39Z</time>
      </trkpt>
      <trkpt lat="45.20215" lon="6.07796">
        <ele>1386</ele>
        <time>2012-07-07T08:27:44Z</time>
      </trkpt>
      <trkpt lat="45.20208" lon="6.07806">
        <ele>1387</ele>
        <time>2012-07-07T08:27:49Z</time>
      </trkpt>
      <trkpt lat="45.202" lon="6.07821">
        <ele>1388</ele>
        <time>2012-07-07T08:27:54Z</time>
      </trkpt>
      <trkpt lat="45.20193" lon="6.07829">
        <ele>1387</ele>
        <time>2012-07-07T08:27:59Z</time>
      </trkpt>
      <trkpt lat="45.20185" lon="6.0784">
        <ele>1411</ele>
        <time>2012-07-07T08:28:04Z</time>
      </trkpt>
      <trkpt lat="45.20178" lon="6.07852">
        <ele>1413</ele>
        <time>2012-07-07T08:28:09Z</time>
      </trkpt>
      <trkpt lat="45.20169" lon="6.07862">
        <ele>1417</ele>
        <time>2012-07-07T08:28:14Z</time>
      </trkpt>
      <trkpt lat="45.2016" lon="6.07871">
        <ele>1400</ele>
        <time>2012-07-07T08:28:19Z</time>
      </trkpt>
      <trkpt lat="45.20152" lon="6.07884">
        <ele>1405</ele>
        <time>2012-07-07T08:28:24Z</time>
      </trkpt>
      <trkpt lat="45.20148" lon="6.079">
        <ele>1410</ele>
        <time>2012-07-07T08:28:29Z</time>
      </trkpt>
      <trkpt lat="45.20142" lon="6.0791">
        <ele>1410</ele>
        <time>2012-07-07T08:28:34Z</time>
      </trkpt>
      <trkpt lat="45.20145" lon="6.07936">
        <ele>1423</ele>
        <time>2012-07-07T08:28:39Z</time>
      </trkpt>
      <trkpt lat="45.20144" lon="6.07949">
        <ele>1423</ele>
        <time>2012-07-07T08:28:44Z</time>
      </trkpt>
      <trkpt lat="45.20141" lon="6.07967">
        <ele>1424</ele>
        <time>2012-07-07T08:28:49Z</time>
      </trkpt>
      <trkpt lat="45.20138" lon="6.07978">
        <ele>1425</ele>
        <time>2012-07-07T08:28:54Z</time>
      </trkpt>
      <trkpt lat="45.20137" lon="6.07995">
        <ele>1427</ele>
        <time>2012-07-07T08:28:59Z</time>
      </trkpt>
      <trkpt lat="45.20133" lon="6.0801">
        <ele>1433</ele>
        <time>2012-07-07T08:29:04Z</time>
      </trkpt>
      <trkpt lat="45.20131" lon="6.08026">
        <ele>1432</ele>
        <time>2012-07-07T08:29:09Z</time>
      </trkpt>
      <trkpt lat="45.20129" lon="6.08042">
        <ele>1432</ele>
        <time>2012-07-07T08:29:14Z</time>
      </trkpt>
      <trkpt lat="45.20124" lon="6.08056">
        <ele>1431</ele>
        <time>2012-07-07T08:29:19Z</time>
      </trkpt>
      <trkpt lat="45.20121" lon="6.08073">
        <ele>1431</ele>
        <time>2012-07-07T08:29:24Z</time>
      </trkpt>
      <trkpt lat="45.20117" lon="6.08087">
        <ele>1432</ele>
        <time>2012-07-07T08:29:29Z</time>
      </trkpt>
      <trkpt lat="45.20114" lon="6.08109">
        <ele>1432</ele>
        <time>2012-07-07T08:29:34Z</time>
      </trkpt>
      <trkpt lat="45.20114" lon="6.08123">
        <ele>1433</ele>
        <time>2012-07-07T08:29:39Z</time>
      </trkpt>
      <trkpt lat="45.20117" lon="6.08143">
        <ele>1434</ele>
        <time>2012-07-07T08:29:44Z</time>
      </trkpt>
      <trkpt lat="45.20119" lon="6.08162">
        <ele>1434</ele>
        <time>2012-07-07T08:29:49Z</time>
      </trkpt>
      <trkpt lat="45.20121" lon="6.08179">
        <ele>1436</ele>
        <time>2012-07-07T08:29:54Z</time>
      </trkpt>
      <trkpt lat="45.20124" lon="6.08195">
        <ele>1438</ele>
        <time>2012-07-07T08:29:59Z</time>
      </trkpt>
      <trkpt lat="45.20127" lon="6.08213">
        <ele>1440</ele>
        <time>2012-07-07T08:30:04Z</time>
      </trkpt>
      <trkpt lat="45.20129" lon="6.0823">
        <ele>1441</ele>
        <time>2012-07-07T08:30:09Z</time>
      </trkpt>
      <trkpt lat="45.20131" lon="6.08247">
        <ele>1443</ele>
        <time>2012-07-07T08:30:14Z</time>
      </trkpt>
      <trkpt lat="45.20132" lon="6.08264">
        <ele>1450</ele>
        <time>2012-07-07T08:30:19Z</time>
      </trkpt>
      <trkpt lat="45.20132" lon="6.08282">
        <ele>1451</ele>
        <time>2012-07-07T08:30:24Z</time>
      </trkpt>
      <trkpt lat="45.20131" lon="6.083">
        <ele>1453</ele>
        <time>2012-07-07T08:30:29Z</time>
      </trkpt>
      <trkpt lat="45.20129" lon="6.08312">
        <ele>1454</ele>
        <time>2012-07-07T08:30:34Z</time>
      </trkpt>
      <trkpt lat="45.20124" lon="6.08325">
        <ele>1453</ele>
        <time>2012-07-07T08:30:39Z</time>
      </trkpt>
      <trkpt lat="45.20114" lon="6.08334">
        <ele>1458</ele>
        <time>2012-07-07T08:30:44Z</time>
      </trkpt>
      <trkpt lat="45.20107" lon="6.08351">
        <ele>1456</ele>
        <time>2012-07-07T08:30:49Z</time>
      </trkpt>
      <trkpt lat="45.20102" lon="6.0836">
        <ele>1456</ele>
        <time>2012-07-07T08:30:54Z</time>
      </trkpt>
      <trkpt lat="45.20096" lon="6.08373">
        <ele>1457</ele>
        <time>2012-07-07T08:30:59Z</time>
      </trkpt>
      <trkpt lat="45.20094" lon="6.08392">
        <ele>1456</ele>
        <time>2012-07-07T08:31:04Z</time>
      </trkpt>
      <trkpt lat="45.20095" lon="6.08413">
        <ele>1450</ele>
        <time>2012-07-07T08:31:09Z</time>
      </trkpt>
      <trkpt lat="45.20098" lon="6.08437">
        <ele>1461</ele>
        <time>2012-07-07T08:31:14Z</time>
      </trkpt>
      <trkpt lat="45.20103" lon="6.08452">
        <ele>1466</ele>
        <time>2012-07-07T08:31:19Z</time>
      </trkpt>
      <trkpt lat="45.2011" lon="6.08471">
        <ele>1469</ele>
        <time>2012-07-07T08:31:24Z</time>
      </trkpt>
      <trkpt lat="45.20114" lon="6.08484">
        <ele>1470</ele>
        <time>2012-07-07T08:31:29Z</time>
      </trkpt>
      <trkpt lat="45.20121" lon="6.08504">
        <ele>1463</ele>
        <time>2012-07-07T08:31:34Z</time>
      </trkpt>
      <trkpt lat="45.20125" lon="6.08517">
        <ele>1463</ele>
        <time>2012-07-07T08:31:39Z</time>
      </trkpt>
      <trkpt lat="45.2013" lon="6.08532">
        <ele>1462</ele>
        <time>2012-07-07T08:31:44Z</time>
      </trkpt>
      <trkpt lat="45.20137" lon="6.08546">
        <ele>1460</ele>
        <time>2012-07-07T08:31:49Z</time>
      </trkpt>
      <trkpt lat="45.20145" lon="6.0856">
        <ele>1457</ele>
        <time>2012-07-07T08:31:54Z</time>
      </trkpt>
      <trkpt lat="45.20153" lon="6.08574">
        <ele>1451</ele>
        <time>2012-07-07T08:31:59Z</time>
      </trkpt>
      <trkpt lat="45.2016" lon="6.0859">
        <ele>1442</ele>
        <time>2012-07-07T08:32:04Z</time>
      </trkpt>
      <trkpt lat="45.20171" lon="6.08609">
        <ele>1463</ele>
        <time>2012-07-07T08:32:09Z</time>
      </trkpt>
      <trkpt lat="45.20179" lon="6.08622">
        <ele>1467</ele>
        <time>2012-07-07T08:32:14Z</time>
      </trkpt>
      <trkpt lat="45.20193" lon="6.08641">
        <ele>1468</ele>
        <time>2012-07-07T08:32:19Z</time>
      </trkpt>
      <trkpt lat="45.20203" lon="6.08652">
        <ele>1470</ele>
        <time>2012-07-07T08:32:24Z</time>
      </trkpt>
      <trkpt lat="45.20215" lon="6.08666">
        <ele>1474</ele>
        <time>2012-07-07T08:32:29Z</time>
      </trkpt>
      <trkpt lat="45.20227" lon="6.08682">
        <ele>1460</ele>
        <time>2012-07-07T08:32:34Z</time>
      </trkpt>
      <trkpt lat="45.20239" lon="6.08697">
        <ele>1459</ele>
        <time>2012-07-07T08:32:39Z</time>
      </trkpt>
      <trkpt lat="45.20252" lon="6.08711">
        <ele>1483</ele>
        <time>2012-07-07T08:32:44Z</time>
      </trkpt>
      <trkpt lat="45.20264" lon="6.08724">
        <ele>1480</ele>
        <time>2012-07-07T08:32:49Z</time>
      </trkpt>
      <trkpt lat="45.20278" lon="6.08738">
        <ele>1481</ele>
        <time>2012-07-07T08:32:54Z</time>
      </trkpt>
      <trkpt lat="45.20291" lon="6.08751">
        <ele>1466</ele>
        <time>2012-07-07T08:32:59Z</time>
      </trkpt>
      <trkpt lat="45.20305" lon="6.08768">
        <ele>1470</ele>
        <time>2012-07-07T08:33:04Z</time>
      </trkpt>
      <trkpt lat="45.20315" lon="6.08781">
        <ele>1470</ele>
        <time>2012-07-07T08:33:09Z</time>
      </trkpt>
      <trkpt lat="45.20329" lon="6.08801">
        <ele>1466</ele>
        <time>2012-07-07T08:33:14Z</time>
      </trkpt>
      <trkpt lat="45.20338" lon="6.08814">
        <ele>1485</ele>
        <time>2012-07-07T08:33:19Z</time>
      </trkpt>
      <trkpt lat="45.2035" lon="6.08836">
        <ele>1472</ele>
        <time>2012-07-07T08:33:24Z</time>
      </trkpt>
      <trkpt lat="45.20356" lon="6.08852">
        <ele>1477</ele>
        <time>2012-07-07T08:33:29Z</time>
      </trkpt>
      <trkpt lat="45.20363" lon="6.08873">
        <ele>1479</ele>
        <time>2012-07-07T08:33:34Z</time>
      </trkpt>
      <trkpt lat="45.20368" lon="6.08893">
        <ele>1479</ele>
        <time>2012-07-07T08:33:39Z</time>
      </trkpt>
      <trkpt lat="45.20374" lon="6.08913">
        <ele>1480</ele>
        <time>2012-07-07T08:33:44Z</time>
      </trkpt>
      <trkpt lat="45.2038" lon="6.08934">
        <ele>1479</ele>
        <time>2012-07-07T08:33:49Z</time>
      </trkpt>
      <trkpt lat="45.20384" lon="6.08954">
        <ele>1480</ele>
        <time>2012-07-07T08:33:54Z</time>
      </trkpt>
      <trkpt lat="45.20387" lon="6.08977">
        <ele>1482</ele>
        <time>2012-07-07T08:33:59Z</time>
      </trkpt>
      <trkpt lat="45.20382" lon="6.08992">
        <ele>1481</ele>
        <time>2012-07-07T08:34:04Z</time>
      </trkpt>
      <trkpt lat="45.20377" lon="6.09017">
        <ele>1483</ele>
        <time>2012-07-07T08:34:09Z</time>
      </trkpt>
      <trkpt lat="45.20376" lon="6.09032">
        <ele>1484</ele>
        <time>2012-07-07T08:34:14Z</time>
      </trkpt>
      <trkpt lat="45.20377" lon="6.09051">
        <ele>1485</ele>
        <time>2012-07-07T08:34:19Z</time>
      </trkpt>
      <trkpt lat="45.20379" lon="6.0907">
        <ele>1487</ele>
        <time>2012-07-07T08:34:24Z</time>
      </trkpt>
      <trkpt lat="45.20387" lon="6.09086">
        <ele>1490</ele>
        <time>2012-07-07T08:34:29Z</time>
      </trkpt>
      <trkpt lat="45.20395" lon="6.09103">
        <ele>1491</ele>
        <time>2012-07-07T08:34:34Z</time>
      </trkpt>
      <trkpt lat="45.20402" lon="6.09118">
        <ele>1489</ele>
        <time>2012-07-07T08:34:39Z</time>
      </trkpt>
      <trkpt lat="45.20407" lon="6.09135">
        <ele>1488</ele>
        <time>2012-07-07T08:34:44Z</time>
      </trkpt>
      <trkpt lat="45.20408" lon="6.09153">
        <ele>1490</ele>
        <time>2012-07-07T08:34:49Z</time>
      </trkpt>
      <trkpt lat="45.20411" lon="6.09172">
        <ele>1491</ele>
        <time>2012-07-07T08:34:54Z</time>
      </trkpt>
      <trkpt lat="45.20413" lon="6.09186">
        <ele>1487</ele>
        <time>2012-07-07T08:34:59Z</time>
      </trkpt>
      <trkpt lat="45.20416" lon="6.09206">
        <ele>1485</ele>
        <time>2012-07-07T08:35:04Z</time>
      </trkpt>
      <trkpt lat="45.20419" lon="6.09219">
        <ele>1510</ele>
        <time>2012-07-07T08:35:09Z</time>
      </trkpt>
      <trkpt lat="45.20424" lon="6.09235">
        <ele>1506</ele>
        <time>2012-07-07T08:35:14Z</time>
      </trkpt>
      <trkpt lat="45.20427" lon="6.09251">
        <ele>1500</ele>
        <time>2012-07-07T08:35:19Z</time>
      </trkpt>
      <trkpt lat="45.20431" lon="6.09266">
        <ele>1504</ele>
        <time>2012-07-07T08:35:24Z</time>
      </trkpt>
      <trkpt lat="45.20435" lon="6.0928">
        <ele>1506</ele>
        <time>2012-07-07T08:35:29Z</time>
      </trkpt>
      <trkpt lat="45.2044" lon="6.09295">
        <ele>1507</ele>
        <time>2012-07-07T08:35:34Z</time>
      </trkpt>
      <trkpt lat="45.20445" lon="6.09311">
        <ele>1507</ele>
        <time>2012-07-07T08:35:39Z</time>
      </trkpt>
      <trkpt lat="45.20449" lon="6.09322">
        <ele>1507</ele>
        <time>2012-07-07T08:35:44Z</time>
      </trkpt>
      <trkpt lat="45.20454" lon="6.09339">
        <ele>1505</ele>
        <time>2012-07-07T08:35:49Z</time>
      </trkpt>
      <trkpt lat="45.20458" lon="6.0935">
        <ele>1507</ele>
        <time>2012-07-07T08:35:54Z</time>
      </trkpt>
      <trkpt lat="45.20462" lon="6.09364">
        <ele>1508</ele>
        <time>2012-07-07T08:35:59Z</time>
      </trkpt>
      <trkpt lat="45.20466" lon="6.09383">
        <ele>1508</ele>
        <time>2012-07-07T08:36:04Z</time>
      </trkpt>
      <trkpt lat="45.20468" lon="6.09402">
        <ele>1509</ele>
        <time>2012-07-07T08:36:09Z</time>
      </trkpt>
      <trkpt lat="45.2047" lon="6.09415">
        <ele>1510</ele>
        <time>2012-07-07T08:36:14Z</time>
      </trkpt>
      <trkpt lat="45.20472" lon="6.09431">
        <ele>1511</ele>
        <time>2012-07-07T08:36:19Z</time>
      </trkpt>
      <trkpt lat="45.20473" lon="6.09447">
        <ele>1511</ele>
        <time>2012-07-07T08:36:24Z</time>
      </trkpt>
      <trkpt lat="45.20473" lon="6.09463">
        <ele>1511</ele>
        <time>2012-07-07T08:36:29Z</time>
      </trkpt>
      <trkpt lat="45.20472" lon="6.09482">
        <ele>1513</ele>
        <time>2012-07-07T08:36:34Z</time>
      </trkpt>
      <trkpt lat="45.20471" lon="6.09494">
        <ele>1513</ele>
        <time>2012-07-07T08:36:39Z</time>
      </trkpt>
      <trkpt lat="45.2047" lon="6.09512">
        <ele>1516</ele>
        <time>2012-07-07T08:36:44Z</time>
      </trkpt>
      <trkpt lat="45.20469" lon="6.09524">
        <ele>1516</ele>
        <time>2012-07-07T08:36:49Z</time>
      </trkpt>
      <trkpt lat="45.20466" lon="6.0954">
        <ele>1516</ele>
        <time>2012-07-07T08:36:54Z</time>
      </trkpt>
      <trkpt lat="45.20465" lon="6.09556">
        <ele>1517</ele>
        <time>2012-07-07T08:36:59Z</time>
      </trkpt>
      <trkpt lat="45.20464" lon="6.09571">
        <ele>1517</ele>
        <time>2012-07-07T08:37:04Z</time>
      </trkpt>
      <trkpt lat="45.20462" lon="6.09586">
        <ele>1522</ele>
        <time>2012-07-07T08:37:09Z</time>
      </trkpt>
      <trkpt lat="45.2046" lon="6.09601">
        <ele>1522</ele>
        <time>2012-07-07T08:37:14Z</time>
      </trkpt>
      <trkpt lat="45.20458" lon="6.09617">
        <ele>1522</ele>
        <time>2012-07-07T08:37:19Z</time>
      </trkpt>
      <trkpt lat="45.20457" lon="6.09632">
        <ele>1522</ele>
        <time>2012-07-07T08:37:24Z</time>
      </trkpt>
      <trkpt lat="45.20456" lon="6.0965">
        <ele>1523</ele>
        <time>2012-07-07T08:37:29Z</time>
      </trkpt>
      <trkpt lat="45.20456" lon="6.09662">
        <ele>1523</ele>
        <time>2012-07-07T08:37:34Z</time>
      </trkpt>
      <trkpt lat="45.20457" lon="6.0968">
        <ele>1530</ele>
        <time>2012-07-07T08:37:39Z</time>
      </trkpt>
      <trkpt lat="45.20458" lon="6.09693">
        <ele>1531</ele>
        <time>2012-07-07T08:37:44Z</time>
      </trkpt>
      <trkpt lat="45.20459" lon="6.09708">
        <ele>1532</ele>
        <time>2012-07-07T08:37:49Z</time>
      </trkpt>
      <trkpt lat="45.2046" lon="6.09724">
        <ele>1534</ele>
        <time>2012-07-07T08:37:54Z</time>
      </trkpt>
      <trkpt lat="45.20459" lon="6.0974">
        <ele>1534</ele>
        <time>2012-07-07T08:37:59Z</time>
      </trkpt>
      <trkpt lat="45.20456" lon="6.09755">
        <ele>1541</ele>
        <time>2012-07-07T08:38:04Z</time>
      </trkpt>
      <trkpt lat="45.20453" lon="6.09769">
        <ele>1541</ele>
        <time>2012-07-07T08:38:09Z</time>
      </trkpt>
      <trkpt lat="45.2045" lon="6.09785">
        <ele>1542</ele>
        <time>2012-07-07T08:38:14Z</time>
      </trkpt>
      <trkpt lat="45.20446" lon="6.098">
        <ele>1542</ele>
        <time>2012-07-07T08:38:19Z</time>
      </trkpt>
      <trkpt lat="45.20443" lon="6.09815">
        <ele>1542</ele>
        <time>2012-07-07T08:38:24Z</time>
      </trkpt>
      <trkpt lat="45.2044" lon="6.0983">
        <ele>1542</ele>
        <time>2012-07-07T08:38:29Z</time>
      </trkpt>
      <trkpt lat="45.20438" lon="6.09849">
        <ele>1547</ele>
        <time>2012-07-07T08:38:34Z</time>
      </trkpt>
      <trkpt lat="45.20437" lon="6.09862">
        <ele>1549</ele>
        <time>2012-07-07T08:38:39Z</time>
      </trkpt>
      <trkpt lat="45.20436" lon="6.09881">
        <ele>1550</ele>
        <time>2012-07-07T08:38:44Z</time>
      </trkpt>
      <trkpt lat="45.20437" lon="6.09894">
        <ele>1550</ele>
        <time>2012-07-07T08:38:49Z</time>
      </trkpt>
      <trkpt lat="45.20437" lon="6.09913">
        <ele>1549</ele>
        <time>2012-07-07T08:38:54Z</time>
      </trkpt>
      <trkpt lat="45.20438" lon="6.0993">
        <ele>1555</ele>
        <time>2012-07-07T08:38:59Z</time>
      </trkpt>
      <trkpt lat="45.2044" lon="6.09948">
        <ele>1557</ele>
        <time>2012-07-07T08:39:04Z</time>
      </trkpt>
      <trkpt lat="45.20441" lon="6.09963">
        <ele>1558</ele>
        <time>2012-07-07T08:39:09Z</time>
      </trkpt>
      <trkpt lat="45.20442" lon="6.09979">
        <ele>1558</ele>
        <time>2012-07-07T08:39:14Z</time>
      </trkpt>
      <trkpt lat="45.20443" lon="6.09999">
        <ele>1559</ele>
        <time>2012-07-07T08:39:19Z</time>
      </trkpt>
      <trkpt lat="45.20444" lon="6.10011">
        <ele>1562</ele>
        <time>2012-07-07T08:39:24Z</time>
      </trkpt>
      <trkpt lat="45.20445" lon="6.10028">
        <ele>1563</ele>
        <time>2012-07-07T08:39:29Z</time>
      </trkpt>
      <trkpt lat="45.20447" lon="6.10044">
        <ele>1564</ele>
        <time>2012-07-07T08:39:34Z</time>
      </trkpt>
      <trkpt lat="45.20448" lon="6.10061">
        <ele>1564</ele>
        <time>2012-07-07T08:39:39Z</time>
      </trkpt>
      <trkpt lat="45.20449" lon="6.10077">
        <ele>1564</ele>
        <time>2012-07-07T08:39:44Z</time>
      </trkpt>
      <trkpt lat="45.2045" lon="6.10094">
        <ele>1566</ele>
        <time>2012-07-07T08:39:49Z</time>
      </trkpt>
      <trkpt lat="45.20452" lon="6.1011">
        <ele>1566</ele>
        <time>2012-07-07T08:39:54Z</time>
      </trkpt>
      <trkpt lat="45.20453" lon="6.10126">
        <ele>1566</ele>
        <time>2012-07-07T08:39:59Z</time>
      </trkpt>
      <trkpt lat="45.20454" lon="6.10144">
        <ele>1566</ele>
        <time>2012-07-07T08:40:04Z</time>
      </trkpt>
      <trkpt lat="45.20455" lon="6.10161">
        <ele>1567</ele>
        <time>2012-07-07T08:40:09Z</time>
      </trkpt>
      <trkpt lat="45.20458" lon="6.10181">
        <ele>1566</ele>
        <time>2012-07-07T08:40:14Z</time>
      </trkpt>
      <trkpt lat="45.20461" lon="6.10195">
        <ele>1567</ele>
        <time>2012-07-07T08:40:19Z</time>
      </trkpt>
      <trkpt lat="45.20468" lon="6.10213">
        <ele>1568</ele>
        <time>2012-07-07T08:40:24Z</time>
      </trkpt>
      <trkpt lat="45.20473" lon="6.10225">
        <ele>1569</ele>
        <time>2012-07-07T08:40:29Z</time>
      </trkpt>
      <trkpt lat="45.2048" lon="6.10238">
        <ele>1570</ele>
        <time>2012-07-07T08:40:34Z</time>
      </trkpt>
      <trkpt lat="45.20486" lon="6.10252">
        <ele>1573</ele>
        <time>2012-07-07T08:40:39Z</time>
      </trkpt>
      <trkpt lat="45.20494" lon="6.1027">
        <ele>1572</ele>
        <time>2012-07-07T08:40:44Z</time>
      </trkpt>
      <trkpt lat="45.20501" lon="6.10285">
        <ele>1594</ele>
        <time>2012-07-07T08:40:49Z</time>
      </trkpt>
      <trkpt lat="45.20505" lon="6.10297">
        <ele>1595</ele>
        <time>2012-07-07T08:40:54Z</time>
      </trkpt>
      <trkpt lat="45.20511" lon="6.10316">
        <ele>1592</ele>
        <time>2012-07-07T08:40:59Z</time>
      </trkpt>
      <trkpt lat="45.20515" lon="6.10328">
        <ele>1590</ele>
        <time>2012-07-07T08:41:04Z</time>
      </trkpt>
      <trkpt lat="45.20521" lon="6.10347">
        <ele>1590</ele>
        <time>2012-07-07T08:41:09Z</time>
      </trkpt>
      <trkpt lat="45.20525" lon="6.10358">
        <ele>1592</ele>
        <time>2012-07-07T08:41:14Z</time>
      </trkpt>
      <trkpt lat="45.2053" lon="6.10373">
        <ele>1593</ele>
        <time>2012-07-07T08:41:19Z</time>
      </trkpt>
      <trkpt lat="45.20534" lon="6.10388">
        <ele>1593</ele>
        <time>2012-07-07T08:41:24Z</time>
      </trkpt>
      <trkpt lat="45.20539" lon="6.10404">
        <ele>1593</ele>
        <time>2012-07-07T08:41:29Z</time>
      </trkpt>
      <trkpt lat="45.20542" lon="6.1042">
        <ele>1585</ele>
        <time>2012-07-07T08:41:34Z</time>
      </trkpt>
      <trkpt lat="45.20546" lon="6.10436">
        <ele>1586</ele>
        <time>2012-07-07T08:41:39Z</time>
      </trkpt>
      <trkpt lat="45.20549" lon="6.10452">
        <ele>1586</ele>
        <time>2012-07-07T08:41:44Z</time>
      </trkpt>
      <trkpt lat="45.20553" lon="6.10468">
        <ele>1586</ele>
        <time>2012-07-07T08:41:49Z</time>
      </trkpt>
      <trkpt lat="45.20557" lon="6.10488">
        <ele>1588</ele>
        <time>2012-07-07T08:41:54Z</time>
      </trkpt>
      <trkpt lat="45.2056" lon="6.10501">
        <ele>1585</ele>
        <time>2012-07-07T08:41:59Z</time>
      </trkpt>
      <trkpt lat="45.20567" lon="6.10519">
        <ele>1585</ele>
        <time>2012-07-07T08:42:04Z</time>
      </trkpt>
      <trkpt lat="45.20571" lon="6.10533">
        <ele>1583</ele>
        <time>2012-07-07T08:42:09Z</time>
      </trkpt>
      <trkpt lat="45.20579" lon="6.10548">
        <ele>1582</ele>
        <time>2012-07-07T08:42:14Z</time>
      </trkpt>
      <trkpt lat="45.20585" lon="6.10563">
        <ele>1609</ele>
        <time>2012-07-07T08:42:19Z</time>
      </trkpt>
      <trkpt lat="45.20591" lon="6.10578">
        <ele>1601</ele>
        <time>2012-07-07T08:42:24Z</time>
      </trkpt>
      <trkpt lat="45.20597" lon="6.10593">
        <ele>1601</ele>
        <time>2012-07-07T08:42:29Z</time>
      </trkpt>
      <trkpt lat="45.20603" lon="6.10608">
        <ele>1605</ele>
        <time>2012-07-07T08:42:34Z</time>
      </trkpt>
      <trkpt lat="45.2061" lon="6.10626">
        <ele>1607</ele>
        <time>2012-07-07T08:42:39Z</time>
      </trkpt>
      <trkpt lat="45.20615" lon="6.10637">
        <ele>1607</ele>
        <time>2012-07-07T08:42:44Z</time>
      </trkpt>
      <trkpt lat="45.20622" lon="6.10653">
        <ele>1608</ele>
        <time>2012-07-07T08:42:49Z</time>
      </trkpt>
      <trkpt lat="45.20628" lon="6.10664">
        <ele>1610</ele>
        <time>2012-07-07T08:42:54Z</time>
      </trkpt>
      <trkpt lat="45.20635" lon="6.10681">
        <ele>1605</ele>
        <time>2012-07-07T08:42:59Z</time>
      </trkpt>
      <trkpt lat="45.20641" lon="6.10691">
        <ele>1606</ele>
        <time>2012-07-07T08:43:04Z</time>
      </trkpt>
      <trkpt lat="45.20648" lon="6.10706">
        <ele>1605</ele>
        <time>2012-07-07T08:43:09Z</time>
      </trkpt>
      <trkpt lat="45.20653" lon="6.10721">
        <ele>1606</ele>
        <time>2012-07-07T08:43:14Z</time>
      </trkpt>
      <trkpt lat="45.20657" lon="6.10736">
        <ele>1609</ele>
        <time>2012-07-07T08:43:19Z</time>
      </trkpt>
      <trkpt lat="45.2066" lon="6.10755">
        <ele>1609</ele>
        <time>2012-07-07T08:43:24Z</time>
      </trkpt>
      <trkpt lat="45.20665" lon="6.10772">
        <ele>1601</ele>
        <time>2012-07-07T08:43:29Z</time>
      </trkpt>
      <trkpt lat="45.2067" lon="6.10791">
        <ele>1627</ele>
        <time>2012-07-07T08:43:34Z</time>
      </trkpt>
      <trkpt lat="45.20672" lon="6.10804">
        <ele>1624</ele>
        <time>2012-07-07T08:43:39Z</time>
      </trkpt>
      <trkpt lat="45.20677" lon="6.10824">
        <ele>1617</ele>
        <time>2012-07-07T08:43:44Z</time>
      </trkpt>
      <trkpt lat="45.20677" lon="6.10839">
        <ele>1611</ele>
        <time>2012-07-07T08:43:49Z</time>
      </trkpt>
      <trkpt lat="45.20676" lon="6.10858">
        <ele>1616</ele>
        <time>2012-07-07T08:43:54Z</time>
      </trkpt>
      <trkpt lat="45.20677" lon="6.10877">
        <ele>1617</ele>
        <time>2012-07-07T08:43:59Z</time>
      </trkpt>
      <trkpt lat="45.20687" lon="6.10894">
        <ele>1617</ele>
        <time>2012-07-07T08:44:04Z</time>
      </trkpt>
      <trkpt lat="45.20698" lon="6.10882">
        <ele>1622</ele>
        <time>2012-07-07T08:44:09Z</time>
      </trkpt>
      <trkpt lat="45.20695" lon="6.10859">
        <ele>1621</ele>
        <time>2012-07-07T08:44:14Z</time>
      </trkpt>
      <trkpt lat="45.20688" lon="6.10837">
        <ele>1616</ele>
        <time>2012-07-07T08:44:19Z</time>
      </trkpt>
      <trkpt lat="45.20684" lon="6.10815">
        <ele>1624</ele>
        <time>2012-07-07T08:44:24Z</time>
      </trkpt>
      <trkpt lat="45.20681" lon="6.10789">
        <ele>1629</ele>
        <time>2012-07-07T08:44:29Z</time>
      </trkpt>
      <trkpt lat="45.2068" lon="6.10771">
        <ele>1629</ele>
        <time>2012-07-07T08:44:34Z</time>
      </trkpt>
      <trkpt lat="45.20679" lon="6.10746">
        <ele>1634</ele>
        <time>2012-07-07T08:44:39Z</time>
      </trkpt>
      <trkpt lat="45.20677" lon="6.10729">
        <ele>1641</ele>
        <time>2012-07-07T08:44:44Z</time>
      </trkpt>
      <trkpt lat="45.20672" lon="6.10707">
        <ele>1646</ele>
        <time>2012-07-07T08:44:49Z</time>
      </trkpt>
      <trkpt lat="45.20668" lon="6.1069">
        <ele>1645</ele>
        <time>2012-07-07T08:44:54Z</time>
      </trkpt>
      <trkpt lat="45.20664" lon="6.10673">
        <ele>1624</ele>
        <time>2012-07-07T08:44:59Z</time>
      </trkpt>
      <trkpt lat="45.20661" lon="6.10656">
        <ele>1624</ele>
        <time>2012-07-07T08:45:04Z</time>
      </trkpt>
      <trkpt lat="45.20659" lon="6.10638">
        <ele>1620</ele>
        <time>2012-07-07T08:45:09Z</time>
      </trkpt>
      <trkpt lat="45.20656" lon="6.10621">
        <ele>1621</ele>
        <time>2012-07-07T08:45:14Z</time>
      </trkpt>
      <trkpt lat="45.20654" lon="6.10604">
        <ele>1626</ele>
        <time>2012-07-07T08:45:19Z</time>
      </trkpt>
      <trkpt lat="45.20655" lon="6.10584">
        <ele>1634</ele>
        <time>2012-07-07T08:45:24Z</time>
      </trkpt>
      <trkpt lat="45.20654" lon="6.10571">
        <ele>1637</ele>
        <time>2012-07-07T08:45:29Z</time>
      </trkpt>
      <trkpt lat="45.2065" lon="6.10555">
        <ele>1634</ele>
        <time>2012-07-07T08:45:34Z</time>
      </trkpt>
      <trkpt lat="45.20644" lon="6.10539">
        <ele>1634</ele>
        <time>2012-07-07T08:45:39Z</time>
      </trkpt>
      <trkpt lat="45.20637" lon="6.10526">
        <ele>1634</ele>
        <time>2012-07-07T08:45:44Z</time>
      </trkpt>
      <trkpt lat="45.20631" lon="6.10512">
        <ele>1632</ele>
        <time>2012-07-07T08:45:49Z</time>
      </trkpt>
      <trkpt lat="45.20626" lon="6.10497">
        <ele>1641</ele>
        <time>2012-07-07T08:45:54Z</time>
      </trkpt>
      <trkpt lat="45.20622" lon="6.10481">
        <ele>1640</ele>
        <time>2012-07-07T08:45:59Z</time>
      </trkpt>
      <trkpt lat="45.20618" lon="6.10462">
        <ele>1641</ele>
        <time>2012-07-07T08:46:04Z</time>
      </trkpt>
      <trkpt lat="45.20615" lon="6.10449">
        <ele>1641</ele>
        <time>2012-07-07T08:46:09Z</time>
      </trkpt>
      <trkpt lat="45.20612" lon="6.10432">
        <ele>1640</ele>
        <time>2012-07-07T08:46:14Z</time>
      </trkpt>
      <trkpt lat="45.20607" lon="6.10412">
        <ele>1642</ele>
        <time>2012-07-07T08:46:19Z</time>
      </trkpt>
      <trkpt lat="45.20602" lon="6.10399">
        <ele>1641</ele>
        <time>2012-07-07T08:46:24Z</time>
      </trkpt>
      <trkpt lat="45.20593" lon="6.1038">
        <ele>1644</ele>
        <time>2012-07-07T08:46:29Z</time>
      </trkpt>
      <trkpt lat="45.20587" lon="6.10369">
        <ele>1644</ele>
        <time>2012-07-07T08:46:34Z</time>
      </trkpt>
      <trkpt lat="45.20578" lon="6.10354">
        <ele>1614</ele>
        <time>2012-07-07T08:46:39Z</time>
      </trkpt>
      <trkpt lat="45.2057" lon="6.10336">
        <ele>1620</ele>
        <time>2012-07-07T08:46:44Z</time>
      </trkpt>
      <trkpt lat="45.20575" lon="6.10319">
        <ele>1622</ele>
        <time>2012-07-07T08:46:49Z</time>
      </trkpt>
      <trkpt lat="45.20586" lon="6.10329">
        <ele>1640</ele>
        <time>2012-07-07T08:46:54Z</time>
      </trkpt>
      <trkpt lat="45.20589" lon="6.10351">
        <ele>1643</ele>
        <time>2012-07-07T08:46:59Z</time>
      </trkpt>
      <trkpt lat="45.20596" lon="6.10372">
        <ele>1646</ele>
        <time>2012-07-07T08:47:04Z</time>
      </trkpt>
      <trkpt lat="45.20606" lon="6.10392">
        <ele>1645</ele>
        <time>2012-07-07T08:47:09Z</time>
      </trkpt>
      <trkpt lat="45.20618" lon="6.10417">
        <ele>1644</ele>
        <time>2012-07-07T08:47:14Z</time>
      </trkpt>
      <trkpt lat="45.20625" lon="6.10434">
        <ele>1647</ele>
        <time>2012-07-07T08:47:19Z</time>
      </trkpt>
      <trkpt lat="45.20632" lon="6.10454">
        <ele>1648</ele>
        <time>2012-07-07T08:47:24Z</time>
      </trkpt>
      <trkpt lat="45.20638" lon="6.10474">
        <ele>1649</ele>
        <time>2012-07-07T08:47:29Z</time>
      </trkpt>
      <trkpt lat="45.20646" lon="6.10492">
        <ele>1653</ele>
        <time>2012-07-07T08:47:34Z</time>
      </trkpt>
      <trkpt lat="45.20655" lon="6.10507">
        <ele>1650</ele>
        <time>2012-07-07T08:47:39Z</time>
      </trkpt>
      <trkpt lat="45.20666" lon="6.10522">
        <ele>1645</ele>
        <time>2012-07-07T08:47:44Z</time>
      </trkpt>
      <trkpt lat="45.20679" lon="6.1054">
        <ele>1685</ele>
        <time>2012-07-07T08:47:49Z</time>
      </trkpt>
      <trkpt lat="45.20686" lon="6.10553">
        <ele>1684</ele>
        <time>2012-07-07T08:47:54Z</time>
      </trkpt>
      <trkpt lat="45.20692" lon="6.10569">
        <ele>1683</ele>
        <time>2012-07-07T08:47:59Z</time>
      </trkpt>
      <trkpt lat="45.20696" lon="6.10585">
        <ele>1673</ele>
        <time>2012-07-07T08:48:04Z</time>
      </trkpt>
      <trkpt lat="45.20701" lon="6.10604">
        <ele>1676</ele>
        <time>2012-07-07T08:48:09Z</time>
      </trkpt>
      <trkpt lat="45.20704" lon="6.10617">
        <ele>1677</ele>
        <time>2012-07-07T08:48:14Z</time>
      </trkpt>
      <trkpt lat="45.20709" lon="6.10636">
        <ele>1677</ele>
        <time>2012-07-07T08:48:19Z</time>
      </trkpt>
      <trkpt lat="45.20712" lon="6.10647">
        <ele>1678</ele>
        <time>2012-07-07T08:48:24Z</time>
      </trkpt>
      <trkpt lat="45.20718" lon="6.10661">
        <ele>1681</ele>
        <time>2012-07-07T08:48:29Z</time>
      </trkpt>
      <trkpt lat="45.20723" lon="6.10675">
        <ele>1672</ele>
        <time>2012-07-07T08:48:34Z</time>
      </trkpt>
      <trkpt lat="45.20729" lon="6.1069">
        <ele>1671</ele>
        <time>2012-07-07T08:48:39Z</time>
      </trkpt>
      <trkpt lat="45.20735" lon="6.10709">
        <ele>1667</ele>
        <time>2012-07-07T08:48:44Z</time>
      </trkpt>
      <trkpt lat="45.20741" lon="6.10724">
        <ele>1667</ele>
        <time>2012-07-07T08:48:49Z</time>
      </trkpt>
      <trkpt lat="45.20748" lon="6.10742">
        <ele>1672</ele>
        <time>2012-07-07T08:48:54Z</time>
      </trkpt>
      <trkpt lat="45.2075" lon="6.10755">
        <ele>1670</ele>
        <time>2012-07-07T08:48:59Z</time>
      </trkpt>
      <trkpt lat="45.20751" lon="6.10775">
        <ele>1696</ele>
        <time>2012-07-07T08:49:04Z</time>
      </trkpt>
      <trkpt lat="45.20753" lon="6.10788">
        <ele>1697</ele>
        <time>2012-07-07T08:49:09Z</time>
      </trkpt>
      <trkpt lat="45.20755" lon="6.10805">
        <ele>1690</ele>
        <time>2012-07-07T08:49:14Z</time>
      </trkpt>
      <trkpt lat="45.20757" lon="6.10822">
        <ele>1675</ele>
        <time>2012-07-07T08:49:19Z</time>
      </trkpt>
      <trkpt lat="45.20762" lon="6.10838">
        <ele>1667</ele>
        <time>2012-07-07T08:49:24Z</time>
      </trkpt>
      <trkpt lat="45.20768" lon="6.10854">
        <ele>1679</ele>
        <time>2012-07-07T08:49:29Z</time>
      </trkpt>
      <trkpt lat="45.20773" lon="6.1087">
        <ele>1684</ele>
        <time>2012-07-07T08:49:34Z</time>
      </trkpt>
      <trkpt lat="45.20778" lon="6.10886">
        <ele>1685</ele>
        <time>2012-07-07T08:49:39Z</time>
      </trkpt>
      <trkpt lat="45.20782" lon="6.10903">
        <ele>1685</ele>
        <time>2012-07-07T08:49:44Z</time>
      </trkpt>
      <trkpt lat="45.20786" lon="6.10923">
        <ele>1686</ele>
        <time>2012-07-07T08:49:49Z</time>
      </trkpt>
      <trkpt lat="45.20789" lon="6.10937">
        <ele>1688</ele>
        <time>2012-07-07T08:49:54Z</time>
      </trkpt>
      <trkpt lat="45.20791" lon="6.10954">
        <ele>1690</ele>
        <time>2012-07-07T08:49:59Z</time>
      </trkpt>
      <trkpt lat="45.20789" lon="6.10972">
        <ele>1689</ele>
        <time>2012-07-07T08:50:04Z</time>
      </trkpt>
      <trkpt lat="45.20787" lon="6.1099">
        <ele>1688</ele>
        <time>2012-07-07T08:50:09Z</time>
      </trkpt>
      <trkpt lat="45.20785" lon="6.11008">
        <ele>1688</ele>
        <time>2012-07-07T08:50:14Z</time>
      </trkpt>
      <trkpt lat="45.20785" lon="6.11026">
        <ele>1689</ele>
        <time>2012-07-07T08:50:19Z</time>
      </trkpt>
      <trkpt lat="45.20785" lon="6.11046">
        <ele>1690</ele>
        <time>2012-07-07T08:50:24Z</time>
      </trkpt>
      <trkpt lat="45.20786" lon="6.11064">
        <ele>1690</ele>
        <time>2012-07-07T08:50:29Z</time>
      </trkpt>
      <trkpt lat="45.20785" lon="6.11083">
        <ele>1689</ele>
        <time>2012-07-07T08:50:34Z</time>
      </trkpt>
      <trkpt lat="45.20784" lon="6.11103">
        <ele>1688</ele>
        <time>2012-07-07T08:50:39Z</time>
      </trkpt>
      <trkpt lat="45.2078" lon="6.11128">
        <ele>1687</ele>
        <time>2012-07-07T08:50:44Z</time>
      </trkpt>
      <trkpt lat="45.20778" lon="6.11145">
        <ele>1683</ele>
        <time>2012-07-07T08:50:49Z</time>
      </trkpt>
      <trkpt lat="45.20776" lon="6.11172">
        <ele>1669</ele>
        <time>2012-07-07T08:50:54Z</time>
      </trkpt>
      <trkpt lat="45.20777" lon="6.1119">
        <ele>1669</ele>
        <time>2012-07-07T08:50:59Z</time>
      </trkpt>
      <trkpt lat="45.20779" lon="6.11212">
        <ele>1667</ele>
        <time>2012-07-07T08:51:04Z</time>
      </trkpt>
      <trkpt lat="45.20784" lon="6.11234">
        <ele>1664</ele>
        <time>2012-07-07T08:51:09Z</time>
      </trkpt>
      <trkpt lat="45.20788" lon="6.11254">
        <ele>1647</ele>
        <time>2012-07-07T08:51:14Z</time>
      </trkpt>
      <trkpt lat="45.20792" lon="6.11275">
        <ele>1647</ele>
        <time>2012-07-07T08:51:19Z</time>
      </trkpt>
      <trkpt lat="45.20794" lon="6.11295">
        <ele>1644</ele>
        <time>2012-07-07T08:51:24Z</time>
      </trkpt>
      <trkpt lat="45.20792" lon="6.11315">
        <ele>1641</ele>
        <time>2012-07-07T08:51:29Z</time>
      </trkpt>
      <trkpt lat="45.20789" lon="6.11338">
        <ele>1633</ele>
        <time>2012-07-07T08:51:34Z</time>
      </trkpt>
      <trkpt lat="45.20788" lon="6.11366">
        <ele>1634</ele>
        <time>2012-07-07T08:51:39Z</time>
      </trkpt>
      <trkpt lat="45.20792" lon="6.11384">
        <ele>1634</ele>
        <time>2012-07-07T08:51:44Z</time>
      </trkpt>
      <trkpt lat="45.20798" lon="6.11406">
        <ele>1634</ele>
        <time>2012-07-07T08:51:49Z</time>
      </trkpt>
      <trkpt lat="45.20803" lon="6.11428">
        <ele>1654</ele>
        <time>2012-07-07T08:51:54Z</time>
      </trkpt>
      <trkpt lat="45.20806" lon="6.11449">
        <ele>1661</ele>
        <time>2012-07-07T08:51:59Z</time>
      </trkpt>
      <trkpt lat="45.20812" lon="6.11471">
        <ele>1675</ele>
        <time>2012-07-07T08:52:04Z</time>
      </trkpt>
      <trkpt lat="45.20819" lon="6.11492">
        <ele>1697</ele>
        <time>2012-07-07T08:52:09Z</time>
      </trkpt>
      <trkpt lat="45.20827" lon="6.11514">
        <ele>1717</ele>
        <time>2012-07-07T08:52:14Z</time>
      </trkpt>
      <trkpt lat="45.20832" lon="6.11536">
        <ele>1713</ele>
        <time>2012-07-07T08:52:19Z</time>
      </trkpt>
      <trkpt lat="45.20836" lon="6.11559">
        <ele>1764</ele>
        <time>2012-07-07T08:52:24Z</time>
      </trkpt>
      <trkpt lat="45.20839" lon="6.11582">
        <ele>1747</ele>
        <time>2012-07-07T08:52:29Z</time>
      </trkpt>
      <trkpt lat="45.20844" lon="6.11614">
        <ele>1755</ele>
        <time>2012-07-07T08:52:34Z</time>
      </trkpt>
      <trkpt lat="45.20847" lon="6.11635">
        <ele>1754</ele>
        <time>2012-07-07T08:52:39Z</time>
      </trkpt>
      <trkpt lat="45.20847" lon="6.11669">
        <ele>1735</ele>
        <time>2012-07-07T08:52:44Z</time>
      </trkpt>
      <trkpt lat="45.2085" lon="6.11706">
        <ele>1742</ele>
        <time>2012-07-07T08:52:49Z</time>
      </trkpt>
      <trkpt lat="45.20849" lon="6.11745">
        <ele>1733</ele>
        <time>2012-07-07T08:52:54Z</time>
      </trkpt>
      <trkpt lat="45.20845" lon="6.11786">
        <ele>1732</ele>
        <time>2012-07-07T08:52:59Z</time>
      </trkpt>
      <trkpt lat="45.20845" lon="6.11836">
        <ele>1714</ele>
        <time>2012-07-07T08:53:04Z</time>
      </trkpt>
      <trkpt lat="45.20853" lon="6.11867">
        <ele>1722</ele>
        <time>2012-07-07T08:53:09Z</time>
      </trkpt>
      <trkpt lat="45.20864" lon="6.11907">
        <ele>1720</ele>
        <time>2012-07-07T08:53:14Z</time>
      </trkpt>
      <trkpt lat="45.20861" lon="6.1196">
        <ele>1716</ele>
        <time>2012-07-07T08:53:19Z</time>
      </trkpt>
      <trkpt lat="45.2086" lon="6.11994">
        <ele>1712</ele>
        <time>2012-07-07T08:53:24Z</time>
      </trkpt>
      <trkpt lat="45.20862" lon="6.12041">
        <ele>1712</ele>
        <time>2012-07-07T08:53:29Z</time>
      </trkpt>
      <trkpt lat="45.20867" lon="6.12071">
        <ele>1711</ele>
        <time>2012-07-07T08:53:34Z</time>
      </trkpt>
      <trkpt lat="45.20876" lon="6.12106">
        <ele>1707</ele>
        <time>2012-07-07T08:53:39Z</time>
      </trkpt>
      <trkpt lat="45.20884" lon="6.1214">
        <ele>1708</ele>
        <time>2012-07-07T08:53:44Z</time>
      </trkpt>
      <trkpt lat="45.20893" lon="6.1217">
        <ele>1703</ele>
        <time>2012-07-07T08:53:49Z</time>
      </trkpt>
      <trkpt lat="45.20901" lon="6.12199">
        <ele>1699</ele>
        <time>2012-07-07T08:53:54Z</time>
      </trkpt>
      <trkpt lat="45.20912" lon="6.12225">
        <ele>1698</ele>
        <time>2012-07-07T08:53:59Z</time>
      </trkpt>
      <trkpt lat="45.20922" lon="6.12249">
        <ele>1715</ele>
        <time>2012-07-07T08:54:04Z</time>
      </trkpt>
      <trkpt lat="45.20932" lon="6.12271">
        <ele>1723</ele>
        <time>2012-07-07T08:54:09Z</time>
      </trkpt>
      <trkpt lat="45.20945" lon="6.123">
        <ele>1726</ele>
        <time>2012-07-07T08:54:14Z</time>
      </trkpt>
      <trkpt lat="45.20953" lon="6.12319">
        <ele>1727</ele>
        <time>2012-07-07T08:54:19Z</time>
      </trkpt>
      <trkpt lat="45.20962" lon="6.12342">
        <ele>1720</ele>
        <time>2012-07-07T08:54:24Z</time>
      </trkpt>
      <trkpt lat="45.20971" lon="6.12365">
        <ele>1721</ele>
        <time>2012-07-07T08:54:29Z</time>
      </trkpt>
      <trkpt lat="45.2098" lon="6.12388">
        <ele>1721</ele>
        <time>2012-07-07T08:54:34Z</time>
      </trkpt>
      <trkpt lat="45.20987" lon="6.12409">
        <ele>1726</ele>
        <time>2012-07-07T08:54:39Z</time>
      </trkpt>
      <trkpt lat="45.20995" lon="6.12432">
        <ele>1718</ele>
        <time>2012-07-07T08:54:44Z</time>
      </trkpt>
      <trkpt lat="45.21002" lon="6.12456">
        <ele>1750</ele>
        <time>2012-07-07T08:54:49Z</time>
      </trkpt>
      <trkpt lat="45.21009" lon="6.12479">
        <ele>1744</ele>
        <time>2012-07-07T08:54:54Z</time>
      </trkpt>
      <trkpt lat="45.21016" lon="6.12506">
        <ele>1733</ele>
        <time>2012-07-07T08:54:59Z</time>
      </trkpt>
      <trkpt lat="45.2102" lon="6.12524">
        <ele>1737</ele>
        <time>2012-07-07T08:55:04Z</time>
      </trkpt>
      <trkpt lat="45.21026" lon="6.12551">
        <ele>1738</ele>
        <time>2012-07-07T08:55:09Z</time>
      </trkpt>
      <trkpt lat="45.21031" lon="6.12569">
        <ele>1737</ele>
        <time>2012-07-07T08:55:14Z</time>
      </trkpt>
      <trkpt lat="45.21041" lon="6.12595">
        <ele>1727</ele>
        <time>2012-07-07T08:55:19Z</time>
      </trkpt>
      <trkpt lat="45.21047" lon="6.12613">
        <ele>1728</ele>
        <time>2012-07-07T08:55:24Z</time>
      </trkpt>
      <trkpt lat="45.21056" lon="6.12634">
        <ele>1728</ele>
        <time>2012-07-07T08:55:29Z</time>
      </trkpt>
      <trkpt lat="45.21066" lon="6.12654">
        <ele>1731</ele>
        <time>2012-07-07T08:55:34Z</time>
      </trkpt>
      <trkpt lat="45.21076" lon="6.12675">
        <ele>1727</ele>
        <time>2012-07-07T08:55:39Z</time>
      </trkpt>
      <trkpt lat="45.21087" lon="6.12695">
        <ele>1745</ele>
        <time>2012-07-07T08:55:44Z</time>
      </trkpt>
      <trkpt lat="45.21097" lon="6.12714">
        <ele>1743</ele>
        <time>2012-07-07T08:55:49Z</time>
      </trkpt>
      <trkpt lat="45.21107" lon="6.12734">
        <ele>1740</ele>
        <time>2012-07-07T08:55:54Z</time>
      </trkpt>
      <trkpt lat="45.2112" lon="6.12751">
        <ele>1722</ele>
        <time>2012-07-07T08:55:59Z</time>
      </trkpt>
      <trkpt lat="45.21139" lon="6.12765">
        <ele>1728</ele>
        <time>2012-07-07T08:56:04Z</time>
      </trkpt>
      <trkpt lat="45.21153" lon="6.12771">
        <ele>1731</ele>
        <time>2012-07-07T08:56:09Z</time>
      </trkpt>
      <trkpt lat="45.21172" lon="6.12782">
        <ele>1755</ele>
        <time>2012-07-07T08:56:14Z</time>
      </trkpt>
      <trkpt lat="45.21183" lon="6.12794">
        <ele>1754</ele>
        <time>2012-07-07T08:56:19Z</time>
      </trkpt>
      <trkpt lat="45.21194" lon="6.12813">
        <ele>1751</ele>
        <time>2012-07-07T08:56:24Z</time>
      </trkpt>
      <trkpt lat="45.21203" lon="6.12833">
        <ele>1752</ele>
        <time>2012-07-07T08:56:29Z</time>
      </trkpt>
      <trkpt lat="45.21213" lon="6.12853">
        <ele>1736</ele>
        <time>2012-07-07T08:56:34Z</time>
      </trkpt>
      <trkpt lat="45.21224" lon="6.12872">
        <ele>1736</ele>
        <time>2012-07-07T08:56:39Z</time>
      </trkpt>
      <trkpt lat="45.21237" lon="6.12888">
        <ele>1737</ele>
        <time>2012-07-07T08:56:44Z</time>
      </trkpt>
      <trkpt lat="45.21251" lon="6.12903">
        <ele>1757</ele>
        <time>2012-07-07T08:56:49Z</time>
      </trkpt>
      <trkpt lat="45.21265" lon="6.12919">
        <ele>1745</ele>
        <time>2012-07-07T08:56:54Z</time>
      </trkpt>
      <trkpt lat="45.21281" lon="6.12939">
        <ele>1746</ele>
        <time>2012-07-07T08:56:59Z</time>
      </trkpt>
      <trkpt lat="45.21293" lon="6.12952">
        <ele>1746</ele>
        <time>2012-07-07T08:57:04Z</time>
      </trkpt>
      <trkpt lat="45.21307" lon="6.12967">
        <ele>1747</ele>
        <time>2012-07-07T08:57:09Z</time>
      </trkpt>
      <trkpt lat="45.2132" lon="6.12983">
        <ele>1747</ele>
        <time>2012-07-07T08:57:14Z</time>
      </trkpt>
      <trkpt lat="45.21334" lon="6.12998">
        <ele>1753</ele>
        <time>2012-07-07T08:57:19Z</time>
      </trkpt>
      <trkpt lat="45.21348" lon="6.13013">
        <ele>1751</ele>
        <time>2012-07-07T08:57:24Z</time>
      </trkpt>
      <trkpt lat="45.21362" lon="6.13026">
        <ele>1751</ele>
        <time>2012-07-07T08:57:29Z</time>
      </trkpt>
      <trkpt lat="45.21381" lon="6.13043">
        <ele>1752</ele>
        <time>2012-07-07T08:57:34Z</time>
      </trkpt>
      <trkpt lat="45.21393" lon="6.13054">
        <ele>1752</ele>
        <time>2012-07-07T08:57:39Z</time>
      </trkpt>
      <trkpt lat="45.2141" lon="6.13072">
        <ele>1751</ele>
        <time>2012-07-07T08:57:44Z</time>
      </trkpt>
      <trkpt lat="45.2142" lon="6.13085">
        <ele>1751</ele>
        <time>2012-07-07T08:57:49Z</time>
      </trkpt>
      <trkpt lat="45.21436" lon="6.13105">
        <ele>1753</ele>
        <time>2012-07-07T08:57:54Z</time>
      </trkpt>
      <trkpt lat="45.21448" lon="6.13116">
        <ele>1753</ele>
        <time>2012-07-07T08:57:59Z</time>
      </trkpt>
      <trkpt lat="45.21467" lon="6.13129">
        <ele>1755</ele>
        <time>2012-07-07T08:58:04Z</time>
      </trkpt>
      <trkpt lat="45.2148" lon="6.13136">
        <ele>1756</ele>
        <time>2012-07-07T08:58:09Z</time>
      </trkpt>
      <trkpt lat="45.21496" lon="6.13143">
        <ele>1756</ele>
        <time>2012-07-07T08:58:14Z</time>
      </trkpt>
      <trkpt lat="45.21513" lon="6.13152">
        <ele>1772</ele>
        <time>2012-07-07T08:58:19Z</time>
      </trkpt>
      <trkpt lat="45.21528" lon="6.1316">
        <ele>1776</ele>
        <time>2012-07-07T08:58:24Z</time>
      </trkpt>
      <trkpt lat="45.21544" lon="6.1317">
        <ele>1755</ele>
        <time>2012-07-07T08:58:29Z</time>
      </trkpt>
      <trkpt lat="45.21561" lon="6.13181">
        <ele>1759</ele>
        <time>2012-07-07T08:58:34Z</time>
      </trkpt>
      <trkpt lat="45.21579" lon="6.13195">
        <ele>1758</ele>
        <time>2012-07-07T08:58:39Z</time>
      </trkpt>
      <trkpt lat="45.21592" lon="6.13204">
        <ele>1776</ele>
        <time>2012-07-07T08:58:44Z</time>
      </trkpt>
      <trkpt lat="45.21611" lon="6.13218">
        <ele>1775</ele>
        <time>2012-07-07T08:58:49Z</time>
      </trkpt>
      <trkpt lat="45.21623" lon="6.13227">
        <ele>1777</ele>
        <time>2012-07-07T08:58:54Z</time>
      </trkpt>
      <trkpt lat="45.21638" lon="6.13239">
        <ele>1779</ele>
        <time>2012-07-07T08:58:59Z</time>
      </trkpt>
      <trkpt lat="45.21654" lon="6.1325">
        <ele>1768</ele>
        <time>2012-07-07T08:59:04Z</time>
      </trkpt>
      <trkpt lat="45.2167" lon="6.13264">
        <ele>1781</ele>
        <time>2012-07-07T08:59:09Z</time>
      </trkpt>
      <trkpt lat="45.21686" lon="6.13278">
        <ele>1779</ele>
        <time>2012-07-07T08:59:14Z</time>
      </trkpt>
      <trkpt lat="45.21701" lon="6.13293">
        <ele>1777</ele>
        <time>2012-07-07T08:59:19Z</time>
      </trkpt>
      <trkpt lat="45.21718" lon="6.1331">
        <ele>1777</ele>
        <time>2012-07-07T08:59:24Z</time>
      </trkpt>
      <trkpt lat="45.2173" lon="6.13321">
        <ele>1777</ele>
        <time>2012-07-07T08:59:29Z</time>
      </trkpt>
      <trkpt lat="45.21748" lon="6.13337">
        <ele>1771</ele>
        <time>2012-07-07T08:59:34Z</time>
      </trkpt>
      <trkpt lat="45.2176" lon="6.13346">
        <ele>1776</ele>
        <time>2012-07-07T08:59:39Z</time>
      </trkpt>
      <trkpt lat="45.21778" lon="6.1336">
        <ele>1776</ele>
        <time>2012-07-07T08:59:44Z</time>
      </trkpt>
      <trkpt lat="45.2179" lon="6.13369">
        <ele>1777</ele>
        <time>2012-07-07T08:59:49Z</time>
      </trkpt>
      <trkpt lat="45.21806" lon="6.13379">
        <ele>1777</ele>
        <time>2012-07-07T08:59:54Z</time>
      </trkpt>
      <trkpt lat="45.21822" lon="6.13392">
        <ele>1777</ele>
        <time>2012-07-07T08:59:59Z</time>
      </trkpt>
      <trkpt lat="45.21838" lon="6.13403">
        <ele>1791</ele>
        <time>2012-07-07T09:00:04Z</time>
      </trkpt>
      <trkpt lat="45.21854" lon="6.13415">
        <ele>1796</ele>
        <time>2012-07-07T09:00:09Z</time>
      </trkpt>
      <trkpt lat="45.2187" lon="6.13427">
        <ele>1778</ele>
        <time>2012-07-07T09:00:14Z</time>
      </trkpt>
      <trkpt lat="45.21885" lon="6.1344">
        <ele>1780</ele>
        <time>2012-07-07T09:00:19Z</time>
      </trkpt>
      <trkpt lat="45.219" lon="6.13455">
        <ele>1780</ele>
        <time>2012-07-07T09:00:24Z</time>
      </trkpt>
      <trkpt lat="45.21919" lon="6.13472">
        <ele>1799</ele>
        <time>2012-07-07T09:00:29Z</time>
      </trkpt>
      <trkpt lat="45.21931" lon="6.13483">
        <ele>1796</ele>
        <time>2012-07-07T09:00:34Z</time>
      </trkpt>
      <trkpt lat="45.21947" lon="6.13498">
        <ele>1799</ele>
        <time>2012-07-07T09:00:39Z</time>
      </trkpt>
      <trkpt lat="45.21963" lon="6.13514">
        <ele>1779</ele>
        <time>2012-07-07T09:00:44Z</time>
      </trkpt>
      <trkpt lat="45.21979" lon="6.1353">
        <ele>1780</ele>
        <time>2012-07-07T09:00:49Z</time>
      </trkpt>
      <trkpt lat="45.21996" lon="6.13546">
        <ele>1777</ele>
        <time>2012-07-07T09:00:54Z</time>
      </trkpt>
      <trkpt lat="45.22014" lon="6.13561">
        <ele>1796</ele>
        <time>2012-07-07T09:00:59Z</time>
      </trkpt>
      <trkpt lat="45.22034" lon="6.13573">
        <ele>1799</ele>
        <time>2012-07-07T09:01:04Z</time>
      </trkpt>
      <trkpt lat="45.22055" lon="6.13583">
        <ele>1804</ele>
        <time>2012-07-07T09:01:09Z</time>
      </trkpt>
      <trkpt lat="45.22077" lon="6.13596">
        <ele>1787</ele>
        <time>2012-07-07T09:01:14Z</time>
      </trkpt>
      <trkpt lat="45.221" lon="6.13612">
        <ele>1796</ele>
        <time>2012-07-07T09:01:19Z</time>
      </trkpt>
      <trkpt lat="45.22129" lon="6.13637">
        <ele>1793</ele>
        <time>2012-07-07T09:01:24Z</time>
      </trkpt>
      <trkpt lat="45.22152" lon="6.13652">
        <ele>1792</ele>
        <time>2012-07-07T09:01:29Z</time>
      </trkpt>
      <trkpt lat="45.22183" lon="6.1367">
        <ele>1787</ele>
        <time>2012-07-07T09:01:34Z</time>
      </trkpt>
      <trkpt lat="45.22216" lon="6.13696">
        <ele>1789</ele>
        <time>2012-07-07T09:01:39Z</time>
      </trkpt>
      <trkpt lat="45.22245" lon="6.13742">
        <ele>1786</ele>
        <time>2012-07-07T09:01:44Z</time>
      </trkpt>
      <trkpt lat="45.22267" lon="6.138">
        <ele>1781</ele>
        <time>2012-07-07T09:01:49Z</time>
      </trkpt>
      <trkpt lat="45.22294" lon="6.1386">
        <ele>1764</ele>
        <time>2012-07-07T09:01:54Z</time>
      </trkpt>
      <trkpt lat="45.22341" lon="6.13889">
        <ele>1770</ele>
        <time>2012-07-07T09:01:59Z</time>
      </trkpt>
      <trkpt lat="45.22393" lon="6.13867">
        <ele>1773</ele>
        <time>2012-07-07T09:02:04Z</time>
      </trkpt>
      <trkpt lat="45.22443" lon="6.13901">
        <ele>1772</ele>
        <time>2012-07-07T09:02:09Z</time>
      </trkpt>
      <trkpt lat="45.22464" lon="6.13951">
        <ele>1768</ele>
        <time>2012-07-07T09:02:14Z</time>
      </trkpt>
      <trkpt lat="45.22494" lon="6.14034">
        <ele>1762</ele>
        <time>2012-07-07T09:02:19Z</time>
      </trkpt>
      <trkpt lat="45.22509" lon="6.14097">
        <ele>1771</ele>
        <time>2012-07-07T09:02:24Z</time>
      </trkpt>
      <trkpt lat="45.22526" lon="6.1418">
        <ele>1761</ele>
        <time>2012-07-07T09:02:29Z</time>
      </trkpt>
      <trkpt lat="45.22556" lon="6.1426">
        <ele>1755</ele>
        <time>2012-07-07T09:02:34Z</time>
      </trkpt>
      <trkpt lat="45.22588" lon="6.14341">
        <ele>1760</ele>
        <time>2012-07-07T09:02:39Z</time>
      </trkpt>
      <trkpt lat="45.22615" lon="6.14426">
        <ele>1753</ele>
        <time>2012-07-07T09:02:44Z</time>
      </trkpt>
      <trkpt lat="45.22645" lon="6.14512">
        <ele>1751</ele>
        <time>2012-07-07T09:02:49Z</time>
      </trkpt>
      <trkpt lat="45.2266" lon="6.14607">
        <ele>1742</ele>
        <time>2012-07-07T09:02:54Z</time>
      </trkpt>
      <trkpt lat="45.22668" lon="6.14707">
        <ele>1752</ele>
        <time>2012-07-07T09:02:59Z</time>
      </trkpt>
      <trkpt lat="45.22673" lon="6.14809">
        <ele>1744</ele>
        <time>2012-07-07T09:03:04Z</time>
      </trkpt>
      <trkpt lat="45.2267" lon="6.14895">
        <ele>1737</ele>
        <time>2012-07-07T09:03:09Z</time>
      </trkpt>
      <trkpt lat="45.22709" lon="6.14972">
        <ele>1734</ele>
        <time>2012-07-07T09:03:14Z</time>
      </trkpt>
      <trkpt lat="45.22738" lon="6.15022">
        <ele>1729</ele>
        <time>2012-07-07T09:03:19Z</time>
      </trkpt>
      <trkpt lat="45.22748" lon="6.15104">
        <ele>1721</ele>
        <time>2012-07-07T09:03:24Z</time>
      </trkpt>
      <trkpt lat="45.22783" lon="6.15166">
        <ele>1736</ele>
        <time>2012-07-07T09:03:29Z</time>
      </trkpt>
      <trkpt lat="45.22802" lon="6.15229">
        <ele>1732</ele>
        <time>2012-07-07T09:03:34Z</time>
      </trkpt>
      <trkpt lat="45.22817" lon="6.15282">
        <ele>1728</ele>
        <time>2012-07-07T09:03:39Z</time>
      </trkpt>
      <trkpt lat="45.22833" lon="6.15321">
        <ele>1727</ele>
        <time>2012-07-07T09:03:44Z</time>
      </trkpt>
      <trkpt lat="45.22843" lon="6.15353">
        <ele>1737</ele>
        <time>2012-07-07T09:03:49Z</time>
      </trkpt>
      <trkpt lat="45.22849" lon="6.15379">
        <ele>1740</ele>
        <time>2012-07-07T09:03:54Z</time>
      </trkpt>
      <trkpt lat="45.22856" lon="6.15407">
        <ele>1739</ele>
        <time>2012-07-07T09:03:59Z</time>
      </trkpt>
      <trkpt lat="45.22859" lon="6.15424">
        <ele>1740</ele>
        <time>2012-07-07T09:04:04Z</time>
      </trkpt>
      <trkpt lat="45.22856" lon="6.15445">
        <ele>1741</ele>
        <time>2012-07-07T09:04:09Z</time>
      </trkpt>
      <trkpt lat="45.22851" lon="6.15466">
        <ele>1741</ele>
        <time>2012-07-07T09:04:14Z</time>
      </trkpt>
      <trkpt lat="45.22847" lon="6.15486">
        <ele>1739</ele>
        <time>2012-07-07T09:04:19Z</time>
      </trkpt>
      <trkpt lat="45.22845" lon="6.15507">
        <ele>1739</ele>
        <time>2012-07-07T09:04:24Z</time>
      </trkpt>
      <trkpt lat="45.22845" lon="6.15528">
        <ele>1742</ele>
        <time>2012-07-07T09:04:29Z</time>
      </trkpt>
      <trkpt lat="45.22851" lon="6.15546">
        <ele>1743</ele>
        <time>2012-07-07T09:04:34Z</time>
      </trkpt>
      <trkpt lat="45.22859" lon="6.15562">
        <ele>1743</ele>
        <time>2012-07-07T09:04:39Z</time>
      </trkpt>
      <trkpt lat="45.22867" lon="6.15579">
        <ele>1744</ele>
        <time>2012-07-07T09:04:44Z</time>
      </trkpt>
      <trkpt lat="45.22876" lon="6.15595">
        <ele>1744</ele>
        <time>2012-07-07T09:04:49Z</time>
      </trkpt>
      <trkpt lat="45.22885" lon="6.15614">
        <ele>1745</ele>
        <time>2012-07-07T09:04:54Z</time>
      </trkpt>
      <trkpt lat="45.22891" lon="6.15626">
        <ele>1746</ele>
        <time>2012-07-07T09:04:59Z</time>
      </trkpt>
      <trkpt lat="45.229" lon="6.15642">
        <ele>1747</ele>
        <time>2012-07-07T09:05:04Z</time>
      </trkpt>
      <trkpt lat="45.22909" lon="6.15658">
        <ele>1749</ele>
        <time>2012-07-07T09:05:09Z</time>
      </trkpt>
      <trkpt lat="45.22918" lon="6.15673">
        <ele>1754</ele>
        <time>2012-07-07T09:05:14Z</time>
      </trkpt>
      <trkpt lat="45.22927" lon="6.15688">
        <ele>1759</ele>
        <time>2012-07-07T09:05:19Z</time>
      </trkpt>
      <trkpt lat="45.22937" lon="6.15702">
        <ele>1761</ele>
        <time>2012-07-07T09:05:24Z</time>
      </trkpt>
      <trkpt lat="45.22947" lon="6.15717">
        <ele>1761</ele>
        <time>2012-07-07T09:05:29Z</time>
      </trkpt>
      <trkpt lat="45.22957" lon="6.15731">
        <ele>1762</ele>
        <time>2012-07-07T09:05:34Z</time>
      </trkpt>
      <trkpt lat="45.22966" lon="6.15751">
        <ele>1760</ele>
        <time>2012-07-07T09:05:39Z</time>
      </trkpt>
      <trkpt lat="45.22971" lon="6.15764">
        <ele>1761</ele>
        <time>2012-07-07T09:05:44Z</time>
      </trkpt>
      <trkpt lat="45.22975" lon="6.15787">
        <ele>1760</ele>
        <time>2012-07-07T09:05:49Z</time>
      </trkpt>
      <trkpt lat="45.22977" lon="6.15802">
        <ele>1760</ele>
        <time>2012-07-07T09:05:54Z</time>
      </trkpt>
      <trkpt lat="45.22981" lon="6.1582">
        <ele>1760</ele>
        <time>2012-07-07T09:05:59Z</time>
      </trkpt>
      <trkpt lat="45.22986" lon="6.15838">
        <ele>1760</ele>
        <time>2012-07-07T09:06:04Z</time>
      </trkpt>
      <trkpt lat="45.22994" lon="6.15861">
        <ele>1758</ele>
        <time>2012-07-07T09:06:09Z</time>
      </trkpt>
      <trkpt lat="45.22999" lon="6.15877">
        <ele>1758</ele>
        <time>2012-07-07T09:06:14Z</time>
      </trkpt>
      <trkpt lat="45.23005" lon="6.15895">
        <ele>1769</ele>
        <time>2012-07-07T09:06:19Z</time>
      </trkpt>
      <trkpt lat="45.23013" lon="6.15917">
        <ele>1765</ele>
        <time>2012-07-07T09:06:24Z</time>
      </trkpt>
      <trkpt lat="45.23021" lon="6.15929">
        <ele>1767</ele>
        <time>2012-07-07T09:06:29Z</time>
      </trkpt>
      <trkpt lat="45.23036" lon="6.15942">
        <ele>1769</ele>
        <time>2012-07-07T09:06:34Z</time>
      </trkpt>
      <trkpt lat="45.23046" lon="6.15951">
        <ele>1770</ele>
        <time>2012-07-07T09:06:39Z</time>
      </trkpt>
      <trkpt lat="45.2306" lon="6.15966">
        <ele>1771</ele>
        <time>2012-07-07T09:06:44Z</time>
      </trkpt>
      <trkpt lat="45.23067" lon="6.1598">
        <ele>1771</ele>
        <time>2012-07-07T09:06:49Z</time>
      </trkpt>
      <trkpt lat="45.23075" lon="6.15999">
        <ele>1773</ele>
        <time>2012-07-07T09:06:54Z</time>
      </trkpt>
      <trkpt lat="45.23084" lon="6.16017">
        <ele>1780</ele>
        <time>2012-07-07T09:06:59Z</time>
      </trkpt>
      <trkpt lat="45.23094" lon="6.16033">
        <ele>1783</ele>
        <time>2012-07-07T09:07:04Z</time>
      </trkpt>
      <trkpt lat="45.23105" lon="6.16049">
        <ele>1784</ele>
        <time>2012-07-07T09:07:09Z</time>
      </trkpt>
      <trkpt lat="45.23115" lon="6.16065">
        <ele>1784</ele>
        <time>2012-07-07T09:07:14Z</time>
      </trkpt>
      <trkpt lat="45.23121" lon="6.16083">
        <ele>1785</ele>
        <time>2012-07-07T09:07:19Z</time>
      </trkpt>
      <trkpt lat="45.23126" lon="6.16104">
        <ele>1782</ele>
        <time>2012-07-07T09:07:24Z</time>
      </trkpt>
      <trkpt lat="45.23139" lon="6.16122">
        <ele>1783</ele>
        <time>2012-07-07T09:07:29Z</time>
      </trkpt>
      <trkpt lat="45.23149" lon="6.1613">
        <ele>1783</ele>
        <time>2012-07-07T09:07:34Z</time>
      </trkpt>
      <trkpt lat="45.23163" lon="6.16144">
        <ele>1784</ele>
        <time>2012-07-07T09:07:39Z</time>
      </trkpt>
      <trkpt lat="45.23169" lon="6.16156">
        <ele>1794</ele>
        <time>2012-07-07T09:07:44Z</time>
      </trkpt>
      <trkpt lat="45.23176" lon="6.16173">
        <ele>1791</ele>
        <time>2012-07-07T09:07:49Z</time>
      </trkpt>
      <trkpt lat="45.23183" lon="6.1619">
        <ele>1796</ele>
        <time>2012-07-07T09:07:54Z</time>
      </trkpt>
      <trkpt lat="45.23189" lon="6.16207">
        <ele>1798</ele>
        <time>2012-07-07T09:07:59Z</time>
      </trkpt>
      <trkpt lat="45.23195" lon="6.16224">
        <ele>1798</ele>
        <time>2012-07-07T09:08:04Z</time>
      </trkpt>
      <trkpt lat="45.23198" lon="6.16242">
        <ele>1798</ele>
        <time>2012-07-07T09:08:09Z</time>
      </trkpt>
      <trkpt lat="45.23201" lon="6.16262">
        <ele>1798</ele>
        <time>2012-07-07T09:08:14Z</time>
      </trkpt>
      <trkpt lat="45.23203" lon="6.16275">
        <ele>1799</ele>
        <time>2012-07-07T09:08:19Z</time>
      </trkpt>
      <trkpt lat="45.23206" lon="6.16295">
        <ele>1799</ele>
        <time>2012-07-07T09:08:24Z</time>
      </trkpt>
      <trkpt lat="45.23208" lon="6.16309">
        <ele>1800</ele>
        <time>2012-07-07T09:08:29Z</time>
      </trkpt>
      <trkpt lat="45.23211" lon="6.16326">
        <ele>1800</ele>
        <time>2012-07-07T09:08:34Z</time>
      </trkpt>
      <trkpt lat="45.23214" lon="6.16342">
        <ele>1800</ele>
        <time>2012-07-07T09:08:39Z</time>
      </trkpt>
      <trkpt lat="45.23217" lon="6.1636">
        <ele>1800</ele>
        <time>2012-07-07T09:08:44Z</time>
      </trkpt>
      <trkpt lat="45.23221" lon="6.16377">
        <ele>1800</ele>
        <time>2012-07-07T09:08:49Z</time>
      </trkpt>
      <trkpt lat="45.23225" lon="6.16394">
        <ele>1801</ele>
        <time>2012-07-07T09:08:54Z</time>
      </trkpt>
      <trkpt lat="45.2323" lon="6.16411">
        <ele>1802</ele>
        <time>2012-07-07T09:08:59Z</time>
      </trkpt>
      <trkpt lat="45.23234" lon="6.16427">
        <ele>1802</ele>
        <time>2012-07-07T09:09:04Z</time>
      </trkpt>
      <trkpt lat="45.2324" lon="6.16443">
        <ele>1801</ele>
        <time>2012-07-07T09:09:09Z</time>
      </trkpt>
      <trkpt lat="45.23245" lon="6.1646">
        <ele>1800</ele>
        <time>2012-07-07T09:09:14Z</time>
      </trkpt>
      <trkpt lat="45.23252" lon="6.1648">
        <ele>1814</ele>
        <time>2012-07-07T09:09:19Z</time>
      </trkpt>
      <trkpt lat="45.23256" lon="6.16493">
        <ele>1810</ele>
        <time>2012-07-07T09:09:24Z</time>
      </trkpt>
      <trkpt lat="45.23261" lon="6.16511">
        <ele>1810</ele>
        <time>2012-07-07T09:09:29Z</time>
      </trkpt>
      <trkpt lat="45.23265" lon="6.16529">
        <ele>1813</ele>
        <time>2012-07-07T09:09:34Z</time>
      </trkpt>
      <trkpt lat="45.23269" lon="6.16547">
        <ele>1814</ele>
        <time>2012-07-07T09:09:39Z</time>
      </trkpt>
      <trkpt lat="45.23273" lon="6.16565">
        <ele>1813</ele>
        <time>2012-07-07T09:09:44Z</time>
      </trkpt>
      <trkpt lat="45.23278" lon="6.16583">
        <ele>1813</ele>
        <time>2012-07-07T09:09:49Z</time>
      </trkpt>
      <trkpt lat="45.23283" lon="6.16601">
        <ele>1813</ele>
        <time>2012-07-07T09:09:54Z</time>
      </trkpt>
      <trkpt lat="45.2329" lon="6.16618">
        <ele>1814</ele>
        <time>2012-07-07T09:09:59Z</time>
      </trkpt>
      <trkpt lat="45.23298" lon="6.16639">
        <ele>1816</ele>
        <time>2012-07-07T09:10:04Z</time>
      </trkpt>
      <trkpt lat="45.23303" lon="6.16654">
        <ele>1817</ele>
        <time>2012-07-07T09:10:09Z</time>
      </trkpt>
      <trkpt lat="45.23307" lon="6.16675">
        <ele>1818</ele>
        <time>2012-07-07T09:10:14Z</time>
      </trkpt>
      <trkpt lat="45.2331" lon="6.16695">
        <ele>1817</ele>
        <time>2012-07-07T09:10:19Z</time>
      </trkpt>
      <trkpt lat="45.23313" lon="6.16715">
        <ele>1817</ele>
        <time>2012-07-07T09:10:24Z</time>
      </trkpt>
      <trkpt lat="45.23318" lon="6.16734">
        <ele>1820</ele>
        <time>2012-07-07T09:10:29Z</time>
      </trkpt>
      <trkpt lat="45.23324" lon="6.16753">
        <ele>1822</ele>
        <time>2012-07-07T09:10:34Z</time>
      </trkpt>
      <trkpt lat="45.2333" lon="6.16771">
        <ele>1820</ele>
        <time>2012-07-07T09:10:39Z</time>
      </trkpt>
      <trkpt lat="45.23337" lon="6.1679">
        <ele>1835</ele>
        <time>2012-07-07T09:10:44Z</time>
      </trkpt>
      <trkpt lat="45.23345" lon="6.16808">
        <ele>1834</ele>
        <time>2012-07-07T09:10:49Z</time>
      </trkpt>
      <trkpt lat="45.23351" lon="6.16827">
        <ele>1832</ele>
        <time>2012-07-07T09:10:54Z</time>
      </trkpt>
      <trkpt lat="45.23355" lon="6.16853">
        <ele>1831</ele>
        <time>2012-07-07T09:10:59Z</time>
      </trkpt>
      <trkpt lat="45.23358" lon="6.16867">
        <ele>1831</ele>
        <time>2012-07-07T09:11:04Z</time>
      </trkpt>
      <trkpt lat="45.23363" lon="6.16887">
        <ele>1832</ele>
        <time>2012-07-07T09:11:09Z</time>
      </trkpt>
      <trkpt lat="45.23368" lon="6.16899">
        <ele>1832</ele>
        <time>2012-07-07T09:11:14Z</time>
      </trkpt>
      <trkpt lat="45.23374" lon="6.16915">
        <ele>1832</ele>
        <time>2012-07-07T09:11:19Z</time>
      </trkpt>
      <trkpt lat="45.2338" lon="6.1693">
        <ele>1830</ele>
        <time>2012-07-07T09:11:24Z</time>
      </trkpt>
      <trkpt lat="45.23387" lon="6.16944">
        <ele>1831</ele>
        <time>2012-07-07T09:11:29Z</time>
      </trkpt>
      <trkpt lat="45.23395" lon="6.16957">
        <ele>1832</ele>
        <time>2012-07-07T09:11:34Z</time>
      </trkpt>
      <trkpt lat="45.23402" lon="6.16971">
        <ele>1832</ele>
        <time>2012-07-07T09:11:39Z</time>
      </trkpt>
      <trkpt lat="45.23409" lon="6.16987">
        <ele>1834</ele>
        <time>2012-07-07T09:11:44Z</time>
      </trkpt>
      <trkpt lat="45.23416" lon="6.17004">
        <ele>1836</ele>
        <time>2012-07-07T09:11:49Z</time>
      </trkpt>
      <trkpt lat="45.23421" lon="6.17024">
        <ele>1843</ele>
        <time>2012-07-07T09:11:54Z</time>
      </trkpt>
      <trkpt lat="45.23425" lon="6.17038">
        <ele>1844</ele>
        <time>2012-07-07T09:11:59Z</time>
      </trkpt>
      <trkpt lat="45.2343" lon="6.17059">
        <ele>1843</ele>
        <time>2012-07-07T09:12:04Z</time>
      </trkpt>
      <trkpt lat="45.23433" lon="6.17072">
        <ele>1842</ele>
        <time>2012-07-07T09:12:09Z</time>
      </trkpt>
      <trkpt lat="45.23439" lon="6.17088">
        <ele>1841</ele>
        <time>2012-07-07T09:12:14Z</time>
      </trkpt>
      <trkpt lat="45.23444" lon="6.17103">
        <ele>1842</ele>
        <time>2012-07-07T09:12:19Z</time>
      </trkpt>
      <trkpt lat="45.2345" lon="6.17118">
        <ele>1843</ele>
        <time>2012-07-07T09:12:24Z</time>
      </trkpt>
      <trkpt lat="45.23456" lon="6.17134">
        <ele>1844</ele>
        <time>2012-07-07T09:12:29Z</time>
      </trkpt>
      <trkpt lat="45.23462" lon="6.17149">
        <ele>1844</ele>
        <time>2012-07-07T09:12:34Z</time>
      </trkpt>
      <trkpt lat="45.2347" lon="6.17168">
        <ele>1843</ele>
        <time>2012-07-07T09:12:39Z</time>
      </trkpt>
      <trkpt lat="45.23476" lon="6.17179">
        <ele>1844</ele>
        <time>2012-07-07T09:12:44Z</time>
      </trkpt>
      <trkpt lat="45.23484" lon="6.17196">
        <ele>1843</ele>
        <time>2012-07-07T09:12:49Z</time>
      </trkpt>
      <trkpt lat="45.2349" lon="6.17207">
        <ele>1843</ele>
        <time>2012-07-07T09:12:54Z</time>
      </trkpt>
      <trkpt lat="45.23503" lon="6.1722">
        <ele>1855</ele>
        <time>2012-07-07T09:12:59Z</time>
      </trkpt>
      <trkpt lat="45.23513" lon="6.17225">
        <ele>1855</ele>
        <time>2012-07-07T09:13:04Z</time>
      </trkpt>
      <trkpt lat="45.23525" lon="6.17233">
        <ele>1856</ele>
        <time>2012-07-07T09:13:09Z</time>
      </trkpt>
      <trkpt lat="45.23538" lon="6.17241">
        <ele>1857</ele>
        <time>2012-07-07T09:13:14Z</time>
      </trkpt>
      <trkpt lat="45.2355" lon="6.17249">
        <ele>1859</ele>
        <time>2012-07-07T09:13:19Z</time>
      </trkpt>
      <trkpt lat="45.23561" lon="6.17259">
        <ele>1857</ele>
        <time>2012-07-07T09:13:24Z</time>
      </trkpt>
      <trkpt lat="45.23571" lon="6.17272">
        <ele>1857</ele>
        <time>2012-07-07T09:13:29Z</time>
      </trkpt>
      <trkpt lat="45.23578" lon="6.17288">
        <ele>1856</ele>
        <time>2012-07-07T09:13:34Z</time>
      </trkpt>
      <trkpt lat="45.23585" lon="6.17303">
        <ele>1867</ele>
        <time>2012-07-07T09:13:39Z</time>
      </trkpt>
      <trkpt lat="45.23593" lon="6.17322">
        <ele>1865</ele>
        <time>2012-07-07T09:13:44Z</time>
      </trkpt>
      <trkpt lat="45.23599" lon="6.17333">
        <ele>1865</ele>
        <time>2012-07-07T09:13:49Z</time>
      </trkpt>
      <trkpt lat="45.23609" lon="6.17345">
        <ele>1866</ele>
        <time>2012-07-07T09:13:54Z</time>
      </trkpt>
      <trkpt lat="45.2362" lon="6.17353">
        <ele>1867</ele>
        <time>2012-07-07T09:13:59Z</time>
      </trkpt>
      <trkpt lat="45.23632" lon="6.17361">
        <ele>1869</ele>
        <time>2012-07-07T09:14:04Z</time>
      </trkpt>
      <trkpt lat="45.23642" lon="6.17372">
        <ele>1870</ele>
        <time>2012-07-07T09:14:09Z</time>
      </trkpt>
      <trkpt lat="45.23648" lon="6.17387">
        <ele>1870</ele>
        <time>2012-07-07T09:14:14Z</time>
      </trkpt>
      <trkpt lat="45.23653" lon="6.17405">
        <ele>1872</ele>
        <time>2012-07-07T09:14:19Z</time>
      </trkpt>
      <trkpt lat="45.23656" lon="6.17418">
        <ele>1871</ele>
        <time>2012-07-07T09:14:24Z</time>
      </trkpt>
      <trkpt lat="45.23663" lon="6.17436">
        <ele>1868</ele>
        <time>2012-07-07T09:14:29Z</time>
      </trkpt>
      <trkpt lat="45.23669" lon="6.17447">
        <ele>1879</ele>
        <time>2012-07-07T09:14:34Z</time>
      </trkpt>
      <trkpt lat="45.23678" lon="6.17462">
        <ele>1878</ele>
        <time>2012-07-07T09:14:39Z</time>
      </trkpt>
      <trkpt lat="45.23686" lon="6.1747">
        <ele>1878</ele>
        <time>2012-07-07T09:14:44Z</time>
      </trkpt>
      <trkpt lat="45.23695" lon="6.17477">
        <ele>1879</ele>
        <time>2012-07-07T09:14:49Z</time>
      </trkpt>
      <trkpt lat="45.23706" lon="6.17482">
        <ele>1880</ele>
        <time>2012-07-07T09:14:54Z</time>
      </trkpt>
      <trkpt lat="45.23716" lon="6.17488">
        <ele>1882</ele>
        <time>2012-07-07T09:14:59Z</time>
      </trkpt>
      <trkpt lat="45.23726" lon="6.17494">
        <ele>1883</ele>
        <time>2012-07-07T09:15:04Z</time>
      </trkpt>
      <trkpt lat="45.23735" lon="6.17502">
        <ele>1879</ele>
        <time>2012-07-07T09:15:09Z</time>
      </trkpt>
      <trkpt lat="45.23745" lon="6.1751">
        <ele>1881</ele>
        <time>2012-07-07T09:15:14Z</time>
      </trkpt>
      <trkpt lat="45.23755" lon="6.17515">
        <ele>1888</ele>
        <time>2012-07-07T09:15:19Z</time>
      </trkpt>
      <trkpt lat="45.23768" lon="6.17521">
        <ele>1889</ele>
        <time>2012-07-07T09:15:24Z</time>
      </trkpt>
      <trkpt lat="45.23777" lon="6.17525">
        <ele>1890</ele>
        <time>2012-07-07T09:15:29Z</time>
      </trkpt>
      <trkpt lat="45.23792" lon="6.17531">
        <ele>1892</ele>
        <time>2012-07-07T09:15:34Z</time>
      </trkpt>
      <trkpt lat="45.23801" lon="6.17536">
        <ele>1892</ele>
        <time>2012-07-07T09:15:39Z</time>
      </trkpt>
      <trkpt lat="45.23815" lon="6.17545">
        <ele>1893</ele>
        <time>2012-07-07T09:15:44Z</time>
      </trkpt>
      <trkpt lat="45.23823" lon="6.17552">
        <ele>1893</ele>
        <time>2012-07-07T09:15:49Z</time>
      </trkpt>
      <trkpt lat="45.23833" lon="6.1756">
        <ele>1894</ele>
        <time>2012-07-07T09:15:54Z</time>
      </trkpt>
      <trkpt lat="45.23842" lon="6.17571">
        <ele>1902</ele>
        <time>2012-07-07T09:15:59Z</time>
      </trkpt>
      <trkpt lat="45.23849" lon="6.17585">
        <ele>1900</ele>
        <time>2012-07-07T09:16:04Z</time>
      </trkpt>
      <trkpt lat="45.23851" lon="6.17602">
        <ele>1902</ele>
        <time>2012-07-07T09:16:09Z</time>
      </trkpt>
      <trkpt lat="45.23851" lon="6.17618">
        <ele>1903</ele>
        <time>2012-07-07T09:16:14Z</time>
      </trkpt>
      <trkpt lat="45.23853" lon="6.17638">
        <ele>1903</ele>
        <time>2012-07-07T09:16:19Z</time>
      </trkpt>
      <trkpt lat="45.23856" lon="6.17652">
        <ele>1903</ele>
        <time>2012-07-07T09:16:24Z</time>
      </trkpt>
      <trkpt lat="45.2386" lon="6.17672">
        <ele>1904</ele>
        <time>2012-07-07T09:16:29Z</time>
      </trkpt>
      <trkpt lat="45.23864" lon="6.17685">
        <ele>1906</ele>
        <time>2012-07-07T09:16:34Z</time>
      </trkpt>
      <trkpt lat="45.23869" lon="6.17701">
        <ele>1907</ele>
        <time>2012-07-07T09:16:39Z</time>
      </trkpt>
      <trkpt lat="45.23873" lon="6.17717">
        <ele>1908</ele>
        <time>2012-07-07T09:16:44Z</time>
      </trkpt>
      <trkpt lat="45.23875" lon="6.17734">
        <ele>1909</ele>
        <time>2012-07-07T09:16:49Z</time>
      </trkpt>
      <trkpt lat="45.23874" lon="6.17751">
        <ele>1909</ele>
        <time>2012-07-07T09:16:54Z</time>
      </trkpt>
      <trkpt lat="45.23872" lon="6.17768">
        <ele>1909</ele>
        <time>2012-07-07T09:16:59Z</time>
      </trkpt>
      <trkpt lat="45.23877" lon="6.17785">
        <ele>1910</ele>
        <time>2012-07-07T09:17:04Z</time>
      </trkpt>
      <trkpt lat="45.23888" lon="6.17779">
        <ele>1913</ele>
        <time>2012-07-07T09:17:09Z</time>
      </trkpt>
      <trkpt lat="45.23894" lon="6.17757">
        <ele>1917</ele>
        <time>2012-07-07T09:17:14Z</time>
      </trkpt>
      <trkpt lat="45.23897" lon="6.17743">
        <ele>1917</ele>
        <time>2012-07-07T09:17:19Z</time>
      </trkpt>
      <trkpt lat="45.23901" lon="6.17724">
        <ele>1915</ele>
        <time>2012-07-07T09:17:24Z</time>
      </trkpt>
      <trkpt lat="45.23902" lon="6.1771">
        <ele>1914</ele>
        <time>2012-07-07T09:17:29Z</time>
      </trkpt>
      <trkpt lat="45.23902" lon="6.17692">
        <ele>1913</ele>
        <time>2012-07-07T09:17:34Z</time>
      </trkpt>
      <trkpt lat="45.23903" lon="6.17679">
        <ele>1914</ele>
        <time>2012-07-07T09:17:39Z</time>
      </trkpt>
      <trkpt lat="45.23908" lon="6.17661">
        <ele>1915</ele>
        <time>2012-07-07T09:17:44Z</time>
      </trkpt>
      <trkpt lat="45.23917" lon="6.17645">
        <ele>1913</ele>
        <time>2012-07-07T09:17:49Z</time>
      </trkpt>
      <trkpt lat="45.23923" lon="6.17636">
        <ele>1922</ele>
        <time>2012-07-07T09:17:54Z</time>
      </trkpt>
      <trkpt lat="45.23933" lon="6.17621">
        <ele>1922</ele>
        <time>2012-07-07T09:17:59Z</time>
      </trkpt>
      <trkpt lat="45.23938" lon="6.17609">
        <ele>1921</ele>
        <time>2012-07-07T09:18:04Z</time>
      </trkpt>
      <trkpt lat="45.23941" lon="6.17589">
        <ele>1920</ele>
        <time>2012-07-07T09:18:09Z</time>
      </trkpt>
      <trkpt lat="45.23942" lon="6.17577">
        <ele>1918</ele>
        <time>2012-07-07T09:18:14Z</time>
      </trkpt>
      <trkpt lat="45.23945" lon="6.17566">
        <ele>1918</ele>
        <time>2012-07-07T09:18:19Z</time>
      </trkpt>
      <trkpt lat="45.23946" lon="6.17565">
        <ele>1918</ele>
        <time>2012-07-07T09:18:24Z</time>
      </trkpt>
      <trkpt lat="45.23949" lon="6.17562">
        <ele>1918</ele>
        <time>2012-07-07T09:18:29Z</time>
      </trkpt>
      <trkpt lat="45.2395" lon="6.17559">
        <ele>1918</ele>
        <time>2012-07-07T09:18:34Z</time>
      </trkpt>
      <trkpt lat="45.2395" lon="6.17554">
        <ele>1918</ele>
        <time>2012-07-07T09:18:39Z</time>
      </trkpt>
      <trkpt lat="45.2395" lon="6.17549">
        <ele>1919</ele>
        <time>2012-07-07T09:18:44Z</time>
      </trkpt>
      <trkpt lat="45.23949" lon="6.17543">
        <ele>1919</ele>
        <time>2012-07-07T09:18:49Z</time>
      </trkpt>
      <trkpt lat="45.23949" lon="6.17539">
        <ele>1919</ele>
        <time>2012-07-07T09:18:54Z</time>
      </trkpt>
      <trkpt lat="45.23949" lon="6.17536">
        <ele>1919</ele>
        <time>2012-07-07T09:18:59Z</time>
      </trkpt>
      <trkpt lat="45.23948" lon="6.17535">
        <ele>1919</ele>
        <time>2012-07-07T09:19:04Z</time>
      </trkpt>
      <trkpt lat="45.23948" lon="6.17533">
        <ele>1919</ele>
        <time>2012-07-07T09:19:09Z</time>
      </trkpt>
      <trkpt lat="45.23946" lon="6.17531">
        <ele>1919</ele>
        <time>2012-07-07T09:19:14Z</time>
      </trkpt>
      <trkpt lat="45.23947" lon="6.17529">
        <ele>1919</ele>
        <time>2012-07-07T09:19:19Z</time>
      </trkpt>
      <trkpt lat="45.23946" lon="6.1753">
        <ele>1919</ele>
        <time>2012-07-07T09:19:24Z</time>
      </trkpt>
      <trkpt lat="45.23943" lon="6.1753">
        <ele>1919</ele>
        <time>2012-07-07T09:19:29Z</time>
      </trkpt>
      <trkpt lat="45.23939" lon="6.1753">
        <ele>1919</ele>
        <time>2012-07-07T09:19:34Z</time>
      </trkpt>
      <trkpt lat="45.23939" lon="6.1753">
        <ele>1919</ele>
        <time>2012-07-07T09:19:39Z</time>
      </trkpt>
      <trkpt lat="45.23939" lon="6.1753">
        <ele>1919</ele>
        <time>2012-07-07T09:19:44Z</time>
      </trkpt>
      <trkpt lat="45.23939" lon="6.1753">
        <ele>1919</ele>
        <time>2012-07-07T09:19:49Z</time>
      </trkpt>
      <trkpt lat="45.23939" lon="6.17529">
        <ele>1919</ele>
        <time>2012-07-07T09:19:54Z</time>
      </trkpt>
      <trkpt lat="45.23939" lon="6.17529">
        <ele>1919</ele>
        <time>2012-07-07T09:19:59Z</time>
      </trkpt>
      <trkpt lat="45.23939" lon="6.17529">
        <ele>1919</ele>
        <time>2012-07-07T09:20:04Z</time>
      </trkpt>
      <trkpt lat="45.23939" lon="6.17529">
        <ele>1919</ele>
        <time>2012-07-07T09:20:09Z</time>
      </trkpt>
      <trkpt lat="45.23939" lon="6.17529">
        <ele>1919</ele>
        <time>2012-07-07T09:20:14Z</time>
      </trkpt>
      <trkpt lat="45.23939" lon="6.1753">
        <ele>1919</ele>
        <time>2012-07-07T09:20:19Z</time>
      </trkpt>
      <trkpt lat="45.23939" lon="6.1753">
        <ele>1919</ele>
        <time>2012-07-07T09:20:24Z</time>
      </trkpt>
      <trkpt lat="45.2394" lon="6.1753">
        <ele>1919</ele>
        <time>2012-07-07T09:20:29Z</time>
      </trkpt>
      <trkpt lat="45.23942" lon="6.1753">
        <ele>1919</ele>
        <time>2012-07-07T09:20:34Z</time>
      </trkpt>
      <trkpt lat="45.23944" lon="6.17532">
        <ele>1919</ele>
        <time>2012-07-07T09:20:39Z</time>
      </trkpt>
      <trkpt lat="45.23946" lon="6.17539">
        <ele>1919</ele>
        <time>2012-07-07T09:20:44Z</time>
      </trkpt>
      <trkpt lat="45.23946" lon="6.17543">
        <ele>1919</ele>
        <time>2012-07-07T09:20:49Z</time>
      </trkpt>
      <trkpt lat="45.23947" lon="6.17548">
        <ele>1919</ele>
        <time>2012-07-07T09:20:54Z</time>
      </trkpt>
      <trkpt lat="45.23949" lon="6.17552">
        <ele>1918</ele>
        <time>2012-07-07T09:20:59Z</time>
      </trkpt>
      <trkpt lat="45.23952" lon="6.17555">
        <ele>1918</ele>
        <time>2012-07-07T09:21:04Z</time>
      </trkpt>
      <trkpt lat="45.23953" lon="6.17556">
        <ele>1918</ele>
        <time>2012-07-07T09:21:09Z</time>
      </trkpt>
      <trkpt lat="45.23954" lon="6.17559">
        <ele>1918</ele>
        <time>2012-07-07T09:21:14Z</time>
      </trkpt>
      <trkpt lat="45.23954" lon="6.1756">
        <ele>1918</ele>
        <time>2012-07-07T09:21:19Z</time>
      </trkpt>
      <trkpt lat="45.23954" lon="6.1756">
        <ele>1918</ele>
        <time>2012-07-07T09:21:24Z</time>
      </trkpt>
      <trkpt lat="45.23954" lon="6.17561">
        <ele>1918</ele>
        <time>2012-07-07T09:21:29Z</time>
      </trkpt>
      <trkpt lat="45.23954" lon="6.17561">
        <ele>1918</ele>
        <time>2012-07-07T09:21:34Z</time>
      </trkpt>
      <trkpt lat="45.23954" lon="6.17561">
        <ele>1918</ele>
        <time>2012-07-07T09:21:39Z</time>
      </trkpt>
      <trkpt lat="45.23954" lon="6.17562">
        <ele>1918</ele>
        <time>2012-07-07T09:21:44Z</time>
      </trkpt>
      <trkpt lat="45.23954" lon="6.17562">
        <ele>1918</ele>
        <time>2012-07-07T09:21:49Z</time>
      </trkpt>
      <trkpt lat="45.23953" lon="6.17562">
        <ele>1918</ele>
        <time>2012-07-07T09:21:54Z</time>
      </trkpt>
      <trkpt lat="45.23953" lon="6.1756">
        <ele>1918</ele>
        <time>2012-07-07T09:21:59Z</time>
      </trkpt>
      <trkpt lat="45.23955" lon="6.17558">
        <ele>1918</ele>
        <time>2012-07-07T09:22:04Z</time>
      </trkpt>
      <trkpt lat="45.23959" lon="6.17557">
        <ele>1918</ele>
        <time>2012-07-07T09:22:09Z</time>
      </trkpt>
      <trkpt lat="45.23964" lon="6.17558">
        <ele>1918</ele>
        <time>2012-07-07T09:22:14Z</time>
      </trkpt>
      <trkpt lat="45.23967" lon="6.17558">
        <ele>1918</ele>
        <time>2012-07-07T09:22:19Z</time>
      </trkpt>
      <trkpt lat="45.2397" lon="6.17559">
        <ele>1918</ele>
        <time>2012-07-07T09:22:24Z</time>
      </trkpt>
      <trkpt lat="45.23972" lon="6.17559">
        <ele>1918</ele>
        <time>2012-07-07T09:22:29Z</time>
      </trkpt>
      <trkpt lat="45.23977" lon="6.1756">
        <ele>1918</ele>
        <time>2012-07-07T09:22:34Z</time>
      </trkpt>
      <trkpt lat="45.2398" lon="6.17561">
        <ele>1918</ele>
        <time>2012-07-07T09:22:39Z</time>
      </trkpt>
      <trkpt lat="45.23983" lon="6.17563">
        <ele>1918</ele>
        <time>2012-07-07T09:22:44Z</time>
      </trkpt>
      <trkpt lat="45.23984" lon="6.17562">
        <ele>1918</ele>
        <time>2012-07-07T09:22:49Z</time>
      </trkpt>
      <trkpt lat="45.23986" lon="6.1756">
        <ele>1918</ele>
        <time>2012-07-07T09:22:54Z</time>
      </trkpt>
      <trkpt lat="45.23989" lon="6.1756">
        <ele>1918</ele>
        <time>2012-07-07T09:22:59Z</time>
      </trkpt>
      <trkpt lat="45.2399" lon="6.1756">
        <ele>1918</ele>
        <time>2012-07-07T09:23:04Z</time>
      </trkpt>
      <trkpt lat="45.2399" lon="6.1756">
        <ele>1918</ele>
        <time>2012-07-07T09:23:09Z</time>
      </trkpt>
      <trkpt lat="45.23991" lon="6.17561">
        <ele>1918</ele>
        <time>2012-07-07T09:23:14Z</time>
      </trkpt>
      <trkpt lat="45.23991" lon="6.17561">
        <ele>1918</ele>
        <time>2012-07-07T09:23:19Z</time>
      </trkpt>
      <trkpt lat="45.23991" lon="6.1756">
        <ele>1918</ele>
        <time>2012-07-07T09:23:24Z</time>
      </trkpt>
      <trkpt lat="45.23991" lon="6.1756">
        <ele>1918</ele>
        <time>2012-07-07T09:23:29Z</time>
      </trkpt>
      <trkpt lat="45.23991" lon="6.1756">
        <ele>1918</ele>
        <time>2012-07-07T09:23:34Z</time>
      </trkpt>
      <trkpt lat="45.23992" lon="6.1756">
        <ele>1918</ele>
        <time>2012-07-07T09:23:39Z</time>
      </trkpt>
      <trkpt lat="45.23992" lon="6.1756">
        <ele>1918</ele>
        <time>2012-07-07T09:23:44Z</time>
      </trkpt>
      <trkpt lat="45.23992" lon="6.1756">
        <ele>1918</ele>
        <time>2012-07-07T09:23:49Z</time>
      </trkpt>
      <trkpt lat="45.23992" lon="6.1756">
        <ele>1918</ele>
        <time>2012-07-07T09:23:54Z</time>
      </trkpt>
      <trkpt lat="45.23993" lon="6.1756">
        <ele>1918</ele>
        <time>2012-07-07T09:23:59Z</time>
      </trkpt>
      <trkpt lat="45.23993" lon="6.1756">
        <ele>1918</ele>
        <time>2012-07-07T09:24:04Z</time>
      </trkpt>
      <trkpt lat="45.23994" lon="6.1756">
        <ele>1918</ele>
        <time>2012-07-07T09:24:09Z</time>
      </trkpt>
      <trkpt lat="45.23993" lon="6.1756">
        <ele>1918</ele>
        <time>2012-07-07T09:24:14Z</time>
      </trkpt>
      <trkpt lat="45.23993" lon="6.1756">
        <ele>1918</ele>
        <time>2012-07-07T09:24:19Z</time>
      </trkpt>
      <trkpt lat="45.23993" lon="6.1756">
        <ele>1918</ele>
        <time>2012-07-07T09:24:24Z</time>
      </trkpt>
      <trkpt lat="45.23993" lon="6.1756">
        <ele>1918</ele>
        <time>2012-07-07T09:24:29Z</time>
      </trkpt>
      <trkpt lat="45.23993" lon="6.1756">
        <ele>1918</ele>
        <time>2012-07-07T09:24:34Z</time>
      </trkpt>
      <trkpt lat="45.23993" lon="6.1756">
        <ele>1918</ele>
        <time>2012-07-07T09:24:39Z</time>
      </trkpt>
      <trkpt lat="45.23993" lon="6.1756">
        <ele>1918</ele>
        <time>2012-07-07T09:24:44Z</time>
      </trkpt>
      <trkpt lat="45.23993" lon="6.1756">
        <ele>1918</ele>
        <time>2012-07-07T09:24:49Z</time>
      </trkpt>
      <trkpt lat="45.23993" lon="6.17559">
        <ele>1918</ele>
        <time>2012-07-07T09:24:54Z</time>
      </trkpt>
      <trkpt lat="45.23993" lon="6.17559">
        <ele>1918</ele>
        <time>2012-07-07T09:24:59Z</time>
      </trkpt>
      <trkpt lat="45.23993" lon="6.17559">
        <ele>1918</ele>
        <time>2012-07-07T09:25:04Z</time>
      </trkpt>
      <trkpt lat="45.23993" lon="6.17559">
        <ele>1918</ele>
        <time>2012-07-07T09:25:09Z</time>
      </trkpt>
      <trkpt lat="45.23993" lon="6.17559">
        <ele>1918</ele>
        <time>2012-07-07T09:25:14Z</time>
      </trkpt>
      <trkpt lat="45.23993" lon="6.17559">
        <ele>1918</ele>
        <time>2012-07-07T09:25:19Z</time>
      </trkpt>
      <trkpt lat="45.23993" lon="6.17559">
        <ele>1918</ele>
        <time>2012-07-07T09:25:24Z</time>
      </trkpt>
      <trkpt lat="45.23996" lon="6.1756">
        <ele>1918</ele>
        <time>2012-07-07T09:25:29Z</time>
      </trkpt>
      <trkpt lat="45.24016" lon="6.17567">
        <ele>1911</ele>
        <time>2012-07-07T09:25:34Z</time>
      </trkpt>
      <trkpt lat="45.24042" lon="6.17588">
        <ele>1918</ele>
        <time>2012-07-07T09:25:39Z</time>
      </trkpt>
      <trkpt lat="45.24075" lon="6.17614">
        <ele>1917</ele>
        <time>2012-07-07T09:25:44Z</time>
      </trkpt>
      <trkpt lat="45.2411" lon="6.17649">
        <ele>1906</ele>
        <time>2012-07-07T09:25:49Z</time>
      </trkpt>
      <trkpt lat="45.24154" lon="6.17671">
        <ele>1903</ele>
        <time>2012-07-07T09:25:54Z</time>
      </trkpt>
      <trkpt lat="45.24196" lon="6.17721">
        <ele>1892</ele>
        <time>2012-07-07T09:25:59Z</time>
      </trkpt>
      <trkpt lat="45.2425" lon="6.17772">
        <ele>1898</ele>
        <time>2012-07-07T09:26:04Z</time>
      </trkpt>
      <trkpt lat="45.24271" lon="6.17806">
        <ele>1886</ele>
        <time>2012-07-07T09:26:09Z</time>
      </trkpt>
      <trkpt lat="45.24289" lon="6.17814">
        <ele>1883</ele>
        <time>2012-07-07T09:26:14Z</time>
      </trkpt>
      <trkpt lat="45.24277" lon="6.17771">
        <ele>1881</ele>
        <time>2012-07-07T09:26:19Z</time>
      </trkpt>
      <trkpt lat="45.24251" lon="6.17718">
        <ele>1868</ele>
        <time>2012-07-07T09:26:24Z</time>
      </trkpt>
      <trkpt lat="45.24232" lon="6.17654">
        <ele>1868</ele>
        <time>2012-07-07T09:26:29Z</time>
      </trkpt>
      <trkpt lat="45.24216" lon="6.17596">
        <ele>1865</ele>
        <time>2012-07-07T09:26:34Z</time>
      </trkpt>
      <trkpt lat="45.24191" lon="6.17548">
        <ele>1855</ele>
        <time>2012-07-07T09:26:39Z</time>
      </trkpt>
      <trkpt lat="45.24181" lon="6.17495">
        <ele>1848</ele>
        <time>2012-07-07T09:26:44Z</time>
      </trkpt>
      <trkpt lat="45.24156" lon="6.17439">
        <ele>1860</ele>
        <time>2012-07-07T09:26:49Z</time>
      </trkpt>
      <trkpt lat="45.2415" lon="6.17394">
        <ele>1855</ele>
        <time>2012-07-07T09:26:54Z</time>
      </trkpt>
      <trkpt lat="45.24164" lon="6.17369">
        <ele>1852</ele>
        <time>2012-07-07T09:26:59Z</time>
      </trkpt>
      <trkpt lat="45.24177" lon="6.17401">
        <ele>1833</ele>
        <time>2012-07-07T09:27:04Z</time>
      </trkpt>
      <trkpt lat="45.24201" lon="6.17451">
        <ele>1836</ele>
        <time>2012-07-07T09:27:09Z</time>
      </trkpt>
      <trkpt lat="45.2425" lon="6.17474">
        <ele>1830</ele>
        <time>2012-07-07T09:27:14Z</time>
      </trkpt>
      <trkpt lat="45.2428" lon="6.17534">
        <ele>1818</ele>
        <time>2012-07-07T09:27:19Z</time>
      </trkpt>
      <trkpt lat="45.2429" lon="6.1757">
        <ele>1820</ele>
        <time>2012-07-07T09:27:24Z</time>
      </trkpt>
      <trkpt lat="45.24297" lon="6.17546">
        <ele>1815</ele>
        <time>2012-07-07T09:27:29Z</time>
      </trkpt>
      <trkpt lat="45.24289" lon="6.17498">
        <ele>1798</ele>
        <time>2012-07-07T09:27:34Z</time>
      </trkpt>
      <trkpt lat="45.24272" lon="6.17445">
        <ele>1796</ele>
        <time>2012-07-07T09:27:39Z</time>
      </trkpt>
      <trkpt lat="45.24243" lon="6.17393">
        <ele>1811</ele>
        <time>2012-07-07T09:27:44Z</time>
      </trkpt>
      <trkpt lat="45.24237" lon="6.1734">
        <ele>1798</ele>
        <time>2012-07-07T09:27:49Z</time>
      </trkpt>
      <trkpt lat="45.24219" lon="6.17268">
        <ele>1798</ele>
        <time>2012-07-07T09:27:54Z</time>
      </trkpt>
      <trkpt lat="45.24226" lon="6.17234">
        <ele>1788</ele>
        <time>2012-07-07T09:27:59Z</time>
      </trkpt>
      <trkpt lat="45.24232" lon="6.17174">
        <ele>1782</ele>
        <time>2012-07-07T09:28:04Z</time>
      </trkpt>
      <trkpt lat="45.24235" lon="6.17096">
        <ele>1783</ele>
        <time>2012-07-07T09:28:09Z</time>
      </trkpt>
      <trkpt lat="45.24245" lon="6.17038">
        <ele>1788</ele>
        <time>2012-07-07T09:28:14Z</time>
      </trkpt>
      <trkpt lat="45.2426" lon="6.17034">
        <ele>1766</ele>
        <time>2012-07-07T09:28:19Z</time>
      </trkpt>
      <trkpt lat="45.24254" lon="6.17094">
        <ele>1762</ele>
        <time>2012-07-07T09:28:24Z</time>
      </trkpt>
      <trkpt lat="45.24264" lon="6.17177">
        <ele>1756</ele>
        <time>2012-07-07T09:28:29Z</time>
      </trkpt>
      <trkpt lat="45.24278" lon="6.17239">
        <ele>1753</ele>
        <time>2012-07-07T09:28:34Z</time>
      </trkpt>
      <trkpt lat="45.24312" lon="6.17318">
        <ele>1749</ele>
        <time>2012-07-07T09:28:39Z</time>
      </trkpt>
      <trkpt lat="45.24336" lon="6.17363">
        <ele>1733</ele>
        <time>2012-07-07T09:28:44Z</time>
      </trkpt>
      <trkpt lat="45.24383" lon="6.17412">
        <ele>1727</ele>
        <time>2012-07-07T09:28:49Z</time>
      </trkpt>
      <trkpt lat="45.24406" lon="6.17459">
        <ele>1740</ele>
        <time>2012-07-07T09:28:54Z</time>
      </trkpt>
      <trkpt lat="45.24448" lon="6.17502">
        <ele>1724</ele>
        <time>2012-07-07T09:28:59Z</time>
      </trkpt>
      <trkpt lat="45.24483" lon="6.17547">
        <ele>1719</ele>
        <time>2012-07-07T09:29:04Z</time>
      </trkpt>
      <trkpt lat="45.24515" lon="6.17588">
        <ele>1710</ele>
        <time>2012-07-07T09:29:09Z</time>
      </trkpt>
      <trkpt lat="45.24549" lon="6.1762">
        <ele>1705</ele>
        <time>2012-07-07T09:29:14Z</time>
      </trkpt>
      <trkpt lat="45.24591" lon="6.17655">
        <ele>1691</ele>
        <time>2012-07-07T09:29:19Z</time>
      </trkpt>
      <trkpt lat="45.24655" lon="6.17694">
        <ele>1690</ele>
        <time>2012-07-07T09:29:24Z</time>
      </trkpt>
      <trkpt lat="45.24678" lon="6.17718">
        <ele>1675</ele>
        <time>2012-07-07T09:29:29Z</time>
      </trkpt>
      <trkpt lat="45.24697" lon="6.17722">
        <ele>1672</ele>
        <time>2012-07-07T09:29:34Z</time>
      </trkpt>
      <trkpt lat="45.24683" lon="6.17683">
        <ele>1672</ele>
        <time>2012-07-07T09:29:39Z</time>
      </trkpt>
      <trkpt lat="45.24661" lon="6.17609">
        <ele>1674</ele>
        <time>2012-07-07T09:29:44Z</time>
      </trkpt>
      <trkpt lat="45.24647" lon="6.17571">
        <ele>1666</ele>
        <time>2012-07-07T09:29:49Z</time>
      </trkpt>
      <trkpt lat="45.24645" lon="6.17548">
        <ele>1665</ele>
        <time>2012-07-07T09:29:54Z</time>
      </trkpt>
      <trkpt lat="45.24682" lon="6.17571">
        <ele>1655</ele>
        <time>2012-07-07T09:29:59Z</time>
      </trkpt>
      <trkpt lat="45.24723" lon="6.17589">
        <ele>1654</ele>
        <time>2012-07-07T09:30:04Z</time>
      </trkpt>
      <trkpt lat="45.24762" lon="6.17639">
        <ele>1638</ele>
        <time>2012-07-07T09:30:09Z</time>
      </trkpt>
      <trkpt lat="45.24797" lon="6.17694">
        <ele>1638</ele>
        <time>2012-07-07T09:30:14Z</time>
      </trkpt>
      <trkpt lat="45.2483" lon="6.17773">
        <ele>1641</ele>
        <time>2012-07-07T09:30:19Z</time>
      </trkpt>
      <trkpt lat="45.24857" lon="6.17812">
        <ele>1628</ele>
        <time>2012-07-07T09:30:24Z</time>
      </trkpt>
      <trkpt lat="45.24916" lon="6.17857">
        <ele>1628</ele>
        <time>2012-07-07T09:30:29Z</time>
      </trkpt>
      <trkpt lat="45.24944" lon="6.17892">
        <ele>1616</ele>
        <time>2012-07-07T09:30:34Z</time>
      </trkpt>
      <trkpt lat="45.24968" lon="6.17967">
        <ele>1622</ele>
        <time>2012-07-07T09:30:39Z</time>
      </trkpt>
      <trkpt lat="45.24992" lon="6.18019">
        <ele>1629</ele>
        <time>2012-07-07T09:30:44Z</time>
      </trkpt>
      <trkpt lat="45.25032" lon="6.1807">
        <ele>1614</ele>
        <time>2012-07-07T09:30:49Z</time>
      </trkpt>
      <trkpt lat="45.25067" lon="6.18125">
        <ele>1618</ele>
        <time>2012-07-07T09:30:54Z</time>
      </trkpt>
      <trkpt lat="45.25093" lon="6.18174">
        <ele>1609</ele>
        <time>2012-07-07T09:30:59Z</time>
      </trkpt>
      <trkpt lat="45.2514" lon="6.18202">
        <ele>1606</ele>
        <time>2012-07-07T09:31:04Z</time>
      </trkpt>
      <trkpt lat="45.25179" lon="6.1823">
        <ele>1595</ele>
        <time>2012-07-07T09:31:09Z</time>
      </trkpt>
      <trkpt lat="45.25201" lon="6.1828">
        <ele>1593</ele>
        <time>2012-07-07T09:31:14Z</time>
      </trkpt>
      <trkpt lat="45.25224" lon="6.18336">
        <ele>1590</ele>
        <time>2012-07-07T09:31:19Z</time>
      </trkpt>
      <trkpt lat="45.25235" lon="6.18414">
        <ele>1587</ele>
        <time>2012-07-07T09:31:24Z</time>
      </trkpt>
      <trkpt lat="45.25245" lon="6.18467">
        <ele>1598</ele>
        <time>2012-07-07T09:31:29Z</time>
      </trkpt>
      <trkpt lat="45.25252" lon="6.18538">
        <ele>1589</ele>
        <time>2012-07-07T09:31:34Z</time>
      </trkpt>
      <trkpt lat="45.25277" lon="6.18573">
        <ele>1591</ele>
        <time>2012-07-07T09:31:39Z</time>
      </trkpt>
      <trkpt lat="45.25323" lon="6.18606">
        <ele>1589</ele>
        <time>2012-07-07T09:31:44Z</time>
      </trkpt>
      <trkpt lat="45.25357" lon="6.18639">
        <ele>1572</ele>
        <time>2012-07-07T09:31:49Z</time>
      </trkpt>
      <trkpt lat="45.25365" lon="6.18695">
        <ele>1579</ele>
        <time>2012-07-07T09:31:54Z</time>
      </trkpt>
      <trkpt lat="45.25393" lon="6.18727">
        <ele>1577</ele>
        <time>2012-07-07T09:31:59Z</time>
      </trkpt>
      <trkpt lat="45.25409" lon="6.18787">
        <ele>1586</ele>
        <time>2012-07-07T09:32:04Z</time>
      </trkpt>
      <trkpt lat="45.25443" lon="6.18835">
        <ele>1574</ele>
        <time>2012-07-07T09:32:09Z</time>
      </trkpt>
      <trkpt lat="45.25488" lon="6.18887">
        <ele>1568</ele>
        <time>2012-07-07T09:32:14Z</time>
      </trkpt>
      <trkpt lat="45.25534" lon="6.18954">
        <ele>1558</ele>
        <time>2012-07-07T09:32:19Z</time>
      </trkpt>
      <trkpt lat="45.25571" lon="6.18987">
        <ele>1555</ele>
        <time>2012-07-07T09:32:24Z</time>
      </trkpt>
      <trkpt lat="45.25619" lon="6.19032">
        <ele>1550</ele>
        <time>2012-07-07T09:32:29Z</time>
      </trkpt>
      <trkpt lat="45.2567" lon="6.1905">
        <ele>1541</ele>
        <time>2012-07-07T09:32:34Z</time>
      </trkpt>
      <trkpt lat="45.25729" lon="6.19062">
        <ele>1538</ele>
        <time>2012-07-07T09:32:39Z</time>
      </trkpt>
      <trkpt lat="45.25781" lon="6.19085">
        <ele>1534</ele>
        <time>2012-07-07T09:32:44Z</time>
      </trkpt>
      <trkpt lat="45.2582" lon="6.19133">
        <ele>1533</ele>
        <time>2012-07-07T09:32:49Z</time>
      </trkpt>
      <trkpt lat="45.25861" lon="6.1918">
        <ele>1527</ele>
        <time>2012-07-07T09:32:54Z</time>
      </trkpt>
      <trkpt lat="45.25896" lon="6.19224">
        <ele>1523</ele>
        <time>2012-07-07T09:32:59Z</time>
      </trkpt>
      <trkpt lat="45.25911" lon="6.193">
        <ele>1522</ele>
        <time>2012-07-07T09:33:04Z</time>
      </trkpt>
      <trkpt lat="45.25922" lon="6.19343">
        <ele>1515</ele>
        <time>2012-07-07T09:33:09Z</time>
      </trkpt>
      <trkpt lat="45.25944" lon="6.19424">
        <ele>1508</ele>
        <time>2012-07-07T09:33:14Z</time>
      </trkpt>
      <trkpt lat="45.25952" lon="6.19481">
        <ele>1506</ele>
        <time>2012-07-07T09:33:19Z</time>
      </trkpt>
      <trkpt lat="45.25959" lon="6.1953">
        <ele>1506</ele>
        <time>2012-07-07T09:33:24Z</time>
      </trkpt>
      <trkpt lat="45.25988" lon="6.19525">
        <ele>1504</ele>
        <time>2012-07-07T09:33:29Z</time>
      </trkpt>
      <trkpt lat="45.26023" lon="6.19495">
        <ele>1495</ele>
        <time>2012-07-07T09:33:34Z</time>
      </trkpt>
      <trkpt lat="45.26065" lon="6.1946">
        <ele>1492</ele>
        <time>2012-07-07T09:33:39Z</time>
      </trkpt>
      <trkpt lat="45.26103" lon="6.1943">
        <ele>1484</ele>
        <time>2012-07-07T09:33:44Z</time>
      </trkpt>
      <trkpt lat="45.2612" lon="6.1948">
        <ele>1480</ele>
        <time>2012-07-07T09:33:49Z</time>
      </trkpt>
      <trkpt lat="45.26141" lon="6.19554">
        <ele>1476</ele>
        <time>2012-07-07T09:33:54Z</time>
      </trkpt>
      <trkpt lat="45.26179" lon="6.19624">
        <ele>1467</ele>
        <time>2012-07-07T09:33:59Z</time>
      </trkpt>
      <trkpt lat="45.26198" lon="6.19658">
        <ele>1467</ele>
        <time>2012-07-07T09:34:04Z</time>
      </trkpt>
      <trkpt lat="45.26242" lon="6.19638">
        <ele>1465</ele>
        <time>2012-07-07T09:34:09Z</time>
      </trkpt>
      <trkpt lat="45.26276" lon="6.19614">
        <ele>1456</ele>
        <time>2012-07-07T09:34:14Z</time>
      </trkpt>
      <trkpt lat="45.263" lon="6.19571">
        <ele>1453</ele>
        <time>2012-07-07T09:34:19Z</time>
      </trkpt>
      <trkpt lat="45.26323" lon="6.19591">
        <ele>1451</ele>
        <time>2012-07-07T09:34:24Z</time>
      </trkpt>
      <trkpt lat="45.26371" lon="6.1961">
        <ele>1442</ele>
        <time>2012-07-07T09:34:29Z</time>
      </trkpt>
      <trkpt lat="45.26417" lon="6.19642">
        <ele>1432</ele>
        <time>2012-07-07T09:34:34Z</time>
      </trkpt>
      <trkpt lat="45.2647" lon="6.1968">
        <ele>1428</ele>
        <time>2012-07-07T09:34:39Z</time>
      </trkpt>
      <trkpt lat="45.26528" lon="6.19716">
        <ele>1416</ele>
        <time>2012-07-07T09:34:44Z</time>
      </trkpt>
      <trkpt lat="45.26549" lon="6.19738">
        <ele>1414</ele>
        <time>2012-07-07T09:34:49Z</time>
      </trkpt>
      <trkpt lat="45.26538" lon="6.19703">
        <ele>1415</ele>
        <time>2012-07-07T09:34:54Z</time>
      </trkpt>
      <trkpt lat="45.26522" lon="6.19674">
        <ele>1417</ele>
        <time>2012-07-07T09:34:59Z</time>
      </trkpt>
      <trkpt lat="45.26543" lon="6.19621">
        <ele>1419</ele>
        <time>2012-07-07T09:35:04Z</time>
      </trkpt>
      <trkpt lat="45.2656" lon="6.19596">
        <ele>1420</ele>
        <time>2012-07-07T09:35:09Z</time>
      </trkpt>
      <trkpt lat="45.26595" lon="6.1961">
        <ele>1418</ele>
        <time>2012-07-07T09:35:14Z</time>
      </trkpt>
      <trkpt lat="45.26644" lon="6.19628">
        <ele>1415</ele>
        <time>2012-07-07T09:35:19Z</time>
      </trkpt>
      <trkpt lat="45.26689" lon="6.19649">
        <ele>1413</ele>
        <time>2012-07-07T09:35:24Z</time>
      </trkpt>
      <trkpt lat="45.26692" lon="6.19702">
        <ele>1397</ele>
        <time>2012-07-07T09:35:29Z</time>
      </trkpt>
      <trkpt lat="45.26725" lon="6.19721">
        <ele>1395</ele>
        <time>2012-07-07T09:35:34Z</time>
      </trkpt>
      <trkpt lat="45.2678" lon="6.19723">
        <ele>1394</ele>
        <time>2012-07-07T09:35:39Z</time>
      </trkpt>
      <trkpt lat="45.26796" lon="6.19756">
        <ele>1382</ele>
        <time>2012-07-07T09:35:44Z</time>
      </trkpt>
      <trkpt lat="45.26812" lon="6.19799">
        <ele>1380</ele>
        <time>2012-07-07T09:35:49Z</time>
      </trkpt>
      <trkpt lat="45.26857" lon="6.19794">
        <ele>1376</ele>
        <time>2012-07-07T09:35:54Z</time>
      </trkpt>
      <trkpt lat="45.26914" lon="6.19785">
        <ele>1376</ele>
        <time>2012-07-07T09:35:59Z</time>
      </trkpt>
      <trkpt lat="45.26932" lon="6.19815">
        <ele>1372</ele>
        <time>2012-07-07T09:36:04Z</time>
      </trkpt>
      <trkpt lat="45.26952" lon="6.19871">
        <ele>1359</ele>
        <time>2012-07-07T09:36:09Z</time>
      </trkpt>
      <trkpt lat="45.26972" lon="6.19928">
        <ele>1353</ele>
        <time>2012-07-07T09:36:14Z</time>
      </trkpt>
      <trkpt lat="45.26957" lon="6.19976">
        <ele>1351</ele>
        <time>2012-07-07T09:36:19Z</time>
      </trkpt>
      <trkpt lat="45.2697" lon="6.20005">
        <ele>1348</ele>
        <time>2012-07-07T09:36:24Z</time>
      </trkpt>
      <trkpt lat="45.27016" lon="6.20012">
        <ele>1342</ele>
        <time>2012-07-07T09:36:29Z</time>
      </trkpt>
      <trkpt lat="45.27074" lon="6.20038">
        <ele>1338</ele>
        <time>2012-07-07T09:36:34Z</time>
      </trkpt>
      <trkpt lat="45.2711" lon="6.20077">
        <ele>1331</ele>
        <time>2012-07-07T09:36:39Z</time>
      </trkpt>
      <trkpt lat="45.27147" lon="6.20076">
        <ele>1329</ele>
        <time>2012-07-07T09:36:44Z</time>
      </trkpt>
      <trkpt lat="45.27169" lon="6.20042">
        <ele>1329</ele>
        <time>2012-07-07T09:36:49Z</time>
      </trkpt>
      <trkpt lat="45.27202" lon="6.20042">
        <ele>1329</ele>
        <time>2012-07-07T09:36:54Z</time>
      </trkpt>
      <trkpt lat="45.27236" lon="6.20083">
        <ele>1324</ele>
        <time>2012-07-07T09:36:59Z</time>
      </trkpt>
      <trkpt lat="45.27262" lon="6.20145">
        <ele>1316</ele>
        <time>2012-07-07T09:37:04Z</time>
      </trkpt>
      <trkpt lat="45.27293" lon="6.20185">
        <ele>1309</ele>
        <time>2012-07-07T09:37:09Z</time>
      </trkpt>
      <trkpt lat="45.27333" lon="6.20185">
        <ele>1311</ele>
        <time>2012-07-07T09:37:14Z</time>
      </trkpt>
      <trkpt lat="45.27367" lon="6.20188">
        <ele>1314</ele>
        <time>2012-07-07T09:37:19Z</time>
      </trkpt>
      <trkpt lat="45.274" lon="6.20239">
        <ele>1309</ele>
        <time>2012-07-07T09:37:24Z</time>
      </trkpt>
      <trkpt lat="45.27445" lon="6.2029">
        <ele>1307</ele>
        <time>2012-07-07T09:37:29Z</time>
      </trkpt>
      <trkpt lat="45.2747" lon="6.20337">
        <ele>1298</ele>
        <time>2012-07-07T09:37:34Z</time>
      </trkpt>
      <trkpt lat="45.27513" lon="6.20423">
        <ele>1293</ele>
        <time>2012-07-07T09:37:39Z</time>
      </trkpt>
      <trkpt lat="45.27543" lon="6.20481">
        <ele>1294</ele>
        <time>2012-07-07T09:37:44Z</time>
      </trkpt>
      <trkpt lat="45.27573" lon="6.20542">
        <ele>1281</ele>
        <time>2012-07-07T09:37:49Z</time>
      </trkpt>
      <trkpt lat="45.27587" lon="6.20599">
        <ele>1278</ele>
        <time>2012-07-07T09:37:54Z</time>
      </trkpt>
      <trkpt lat="45.27587" lon="6.20665">
        <ele>1267</ele>
        <time>2012-07-07T09:37:59Z</time>
      </trkpt>
      <trkpt lat="45.27604" lon="6.20723">
        <ele>1266</ele>
        <time>2012-07-07T09:38:04Z</time>
      </trkpt>
      <trkpt lat="45.27641" lon="6.20756">
        <ele>1258</ele>
        <time>2012-07-07T09:38:09Z</time>
      </trkpt>
      <trkpt lat="45.27683" lon="6.20807">
        <ele>1258</ele>
        <time>2012-07-07T09:38:14Z</time>
      </trkpt>
      <trkpt lat="45.27725" lon="6.20847">
        <ele>1247</ele>
        <time>2012-07-07T09:38:19Z</time>
      </trkpt>
      <trkpt lat="45.27786" lon="6.20909">
        <ele>1252</ele>
        <time>2012-07-07T09:38:24Z</time>
      </trkpt>
      <trkpt lat="45.27815" lon="6.20949">
        <ele>1238</ele>
        <time>2012-07-07T09:38:29Z</time>
      </trkpt>
      <trkpt lat="45.27857" lon="6.20995">
        <ele>1236</ele>
        <time>2012-07-07T09:38:34Z</time>
      </trkpt>
      <trkpt lat="45.27897" lon="6.21019">
        <ele>1226</ele>
        <time>2012-07-07T09:38:39Z</time>
      </trkpt>
      <trkpt lat="45.27947" lon="6.21039">
        <ele>1226</ele>
        <time>2012-07-07T09:38:44Z</time>
      </trkpt>
      <trkpt lat="45.27992" lon="6.21082">
        <ele>1216</ele>
        <time>2012-07-07T09:38:49Z</time>
      </trkpt>
      <trkpt lat="45.28024" lon="6.21131">
        <ele>1211</ele>
        <time>2012-07-07T09:38:54Z</time>
      </trkpt>
      <trkpt lat="45.28052" lon="6.21173">
        <ele>1210</ele>
        <time>2012-07-07T09:38:59Z</time>
      </trkpt>
      <trkpt lat="45.28078" lon="6.21213">
        <ele>1211</ele>
        <time>2012-07-07T09:39:04Z</time>
      </trkpt>
      <trkpt lat="45.28094" lon="6.21271">
        <ele>1213</ele>
        <time>2012-07-07T09:39:09Z</time>
      </trkpt>
      <trkpt lat="45.28107" lon="6.21309">
        <ele>1217</ele>
        <time>2012-07-07T09:39:14Z</time>
      </trkpt>
      <trkpt lat="45.28147" lon="6.21322">
        <ele>1212</ele>
        <time>2012-07-07T09:39:19Z</time>
      </trkpt>
      <trkpt lat="45.28196" lon="6.21337">
        <ele>1208</ele>
        <time>2012-07-07T09:39:24Z</time>
      </trkpt>
      <trkpt lat="45.28252" lon="6.21387">
        <ele>1192</ele>
        <time>2012-07-07T09:39:29Z</time>
      </trkpt>
      <trkpt lat="45.28297" lon="6.21418">
        <ele>1198</ele>
        <time>2012-07-07T09:39:34Z</time>
      </trkpt>
      <trkpt lat="45.28353" lon="6.21443">
        <ele>1185</ele>
        <time>2012-07-07T09:39:39Z</time>
      </trkpt>
      <trkpt lat="45.28395" lon="6.21496">
        <ele>1188</ele>
        <time>2012-07-07T09:39:44Z</time>
      </trkpt>
      <trkpt lat="45.28445" lon="6.21529">
        <ele>1190</ele>
        <time>2012-07-07T09:39:49Z</time>
      </trkpt>
      <trkpt lat="45.28505" lon="6.21571">
        <ele>1180</ele>
        <time>2012-07-07T09:39:54Z</time>
      </trkpt>
      <trkpt lat="45.2857" lon="6.21607">
        <ele>1178</ele>
        <time>2012-07-07T09:39:59Z</time>
      </trkpt>
      <trkpt lat="45.28631" lon="6.21652">
        <ele>1160</ele>
        <time>2012-07-07T09:40:04Z</time>
      </trkpt>
      <trkpt lat="45.2867" lon="6.21659">
        <ele>1148</ele>
        <time>2012-07-07T09:40:09Z</time>
      </trkpt>
      <trkpt lat="45.28726" lon="6.21681">
        <ele>1144</ele>
        <time>2012-07-07T09:40:14Z</time>
      </trkpt>
      <trkpt lat="45.28754" lon="6.21729">
        <ele>1137</ele>
        <time>2012-07-07T09:40:19Z</time>
      </trkpt>
      <trkpt lat="45.28763" lon="6.21799">
        <ele>1139</ele>
        <time>2012-07-07T09:40:24Z</time>
      </trkpt>
      <trkpt lat="45.28787" lon="6.21854">
        <ele>1144</ele>
        <time>2012-07-07T09:40:29Z</time>
      </trkpt>
      <trkpt lat="45.28814" lon="6.219">
        <ele>1143</ele>
        <time>2012-07-07T09:40:34Z</time>
      </trkpt>
      <trkpt lat="45.28838" lon="6.21944">
        <ele>1139</ele>
        <time>2012-07-07T09:40:39Z</time>
      </trkpt>
      <trkpt lat="45.28857" lon="6.21999">
        <ele>1140</ele>
        <time>2012-07-07T09:40:44Z</time>
      </trkpt>
      <trkpt lat="45.28883" lon="6.22064">
        <ele>1138</ele>
        <time>2012-07-07T09:40:49Z</time>
      </trkpt>
      <trkpt lat="45.28924" lon="6.22099">
        <ele>1128</ele>
        <time>2012-07-07T09:40:54Z</time>
      </trkpt>
      <trkpt lat="45.2898" lon="6.22118">
        <ele>1125</ele>
        <time>2012-07-07T09:40:59Z</time>
      </trkpt>
      <trkpt lat="45.29012" lon="6.22107">
        <ele>1118</ele>
        <time>2012-07-07T09:41:04Z</time>
      </trkpt>
      <trkpt lat="45.29057" lon="6.22054">
        <ele>1115</ele>
        <time>2012-07-07T09:41:09Z</time>
      </trkpt>
      <trkpt lat="45.29084" lon="6.22014">
        <ele>1113</ele>
        <time>2012-07-07T09:41:14Z</time>
      </trkpt>
      <trkpt lat="45.2912" lon="6.2199">
        <ele>1124</ele>
        <time>2012-07-07T09:41:19Z</time>
      </trkpt>
      <trkpt lat="45.29148" lon="6.22037">
        <ele>1115</ele>
        <time>2012-07-07T09:41:24Z</time>
      </trkpt>
      <trkpt lat="45.29178" lon="6.22075">
        <ele>1117</ele>
        <time>2012-07-07T09:41:29Z</time>
      </trkpt>
      <trkpt lat="45.29203" lon="6.22123">
        <ele>1115</ele>
        <time>2012-07-07T09:41:34Z</time>
      </trkpt>
      <trkpt lat="45.29227" lon="6.22173">
        <ele>1110</ele>
        <time>2012-07-07T09:41:39Z</time>
      </trkpt>
      <trkpt lat="45.29254" lon="6.22216">
        <ele>1117</ele>
        <time>2012-07-07T09:41:44Z</time>
      </trkpt>
      <trkpt lat="45.29272" lon="6.22267">
        <ele>1109</ele>
        <time>2012-07-07T09:41:49Z</time>
      </trkpt>
      <trkpt lat="45.29294" lon="6.22329">
        <ele>1110</ele>
        <time>2012-07-07T09:41:54Z</time>
      </trkpt>
      <trkpt lat="45.2931" lon="6.22369">
        <ele>1106</ele>
        <time>2012-07-07T09:41:59Z</time>
      </trkpt>
      <trkpt lat="45.29328" lon="6.22429">
        <ele>1107</ele>
        <time>2012-07-07T09:42:04Z</time>
      </trkpt>
      <trkpt lat="45.29331" lon="6.22472">
        <ele>1104</ele>
        <time>2012-07-07T09:42:09Z</time>
      </trkpt>
      <trkpt lat="45.29341" lon="6.22525">
        <ele>1110</ele>
        <time>2012-07-07T09:42:14Z</time>
      </trkpt>
      <trkpt lat="45.29361" lon="6.22573">
        <ele>1109</ele>
        <time>2012-07-07T09:42:19Z</time>
      </trkpt>
      <trkpt lat="45.29391" lon="6.22629">
        <ele>1103</ele>
        <time>2012-07-07T09:42:24Z</time>
      </trkpt>
      <trkpt lat="45.29412" lon="6.22661">
        <ele>1103</ele>
        <time>2012-07-07T09:42:29Z</time>
      </trkpt>
      <trkpt lat="45.29432" lon="6.22706">
        <ele>1103</ele>
        <time>2012-07-07T09:42:34Z</time>
      </trkpt>
      <trkpt lat="45.29455" lon="6.22751">
        <ele>1094</ele>
        <time>2012-07-07T09:42:39Z</time>
      </trkpt>
      <trkpt lat="45.2948" lon="6.22798">
        <ele>1093</ele>
        <time>2012-07-07T09:42:44Z</time>
      </trkpt>
      <trkpt lat="45.29518" lon="6.22846">
        <ele>1095</ele>
        <time>2012-07-07T09:42:49Z</time>
      </trkpt>
      <trkpt lat="45.29545" lon="6.22872">
        <ele>1096</ele>
        <time>2012-07-07T09:42:54Z</time>
      </trkpt>
      <trkpt lat="45.29575" lon="6.22928">
        <ele>1094</ele>
        <time>2012-07-07T09:42:59Z</time>
      </trkpt>
      <trkpt lat="45.29593" lon="6.22968">
        <ele>1103</ele>
        <time>2012-07-07T09:43:04Z</time>
      </trkpt>
      <trkpt lat="45.29617" lon="6.23025">
        <ele>1099</ele>
        <time>2012-07-07T09:43:09Z</time>
      </trkpt>
      <trkpt lat="45.29633" lon="6.23062">
        <ele>1099</ele>
        <time>2012-07-07T09:43:14Z</time>
      </trkpt>
      <trkpt lat="45.29648" lon="6.23108">
        <ele>1095</ele>
        <time>2012-07-07T09:43:19Z</time>
      </trkpt>
      <trkpt lat="45.29657" lon="6.23156">
        <ele>1096</ele>
        <time>2012-07-07T09:43:24Z</time>
      </trkpt>
      <trkpt lat="45.29667" lon="6.23202">
        <ele>1106</ele>
        <time>2012-07-07T09:43:29Z</time>
      </trkpt>
      <trkpt lat="45.29671" lon="6.23247">
        <ele>1102</ele>
        <time>2012-07-07T09:43:34Z</time>
      </trkpt>
      <trkpt lat="45.29667" lon="6.23292">
        <ele>1107</ele>
        <time>2012-07-07T09:43:39Z</time>
      </trkpt>
      <trkpt lat="45.29666" lon="6.23337">
        <ele>1098</ele>
        <time>2012-07-07T09:43:44Z</time>
      </trkpt>
      <trkpt lat="45.29662" lon="6.23382">
        <ele>1087</ele>
        <time>2012-07-07T09:43:49Z</time>
      </trkpt>
      <trkpt lat="45.29662" lon="6.23427">
        <ele>1090</ele>
        <time>2012-07-07T09:43:54Z</time>
      </trkpt>
      <trkpt lat="45.2967" lon="6.2347">
        <ele>1103</ele>
        <time>2012-07-07T09:43:59Z</time>
      </trkpt>
      <trkpt lat="45.29681" lon="6.23521">
        <ele>1099</ele>
        <time>2012-07-07T09:44:04Z</time>
      </trkpt>
      <trkpt lat="45.29686" lon="6.23554">
        <ele>1099</ele>
        <time>2012-07-07T09:44:09Z</time>
      </trkpt>
      <trkpt lat="45.29695" lon="6.23592">
        <ele>1096</ele>
        <time>2012-07-07T09:44:14Z</time>
      </trkpt>
      <trkpt lat="45.29708" lon="6.23628">
        <ele>1098</ele>
        <time>2012-07-07T09:44:19Z</time>
      </trkpt>
      <trkpt lat="45.29719" lon="6.23665">
        <ele>1100</ele>
        <time>2012-07-07T09:44:24Z</time>
      </trkpt>
      <trkpt lat="45.29718" lon="6.23705">
        <ele>1097</ele>
        <time>2012-07-07T09:44:29Z</time>
      </trkpt>
      <trkpt lat="45.29713" lon="6.23756">
        <ele>1094</ele>
        <time>2012-07-07T09:44:34Z</time>
      </trkpt>
      <trkpt lat="45.29712" lon="6.23817">
        <ele>1093</ele>
        <time>2012-07-07T09:44:39Z</time>
      </trkpt>
      <trkpt lat="45.29735" lon="6.23836">
        <ele>1094</ele>
        <time>2012-07-07T09:44:44Z</time>
      </trkpt>
      <trkpt lat="45.29733" lon="6.23882">
        <ele>1087</ele>
        <time>2012-07-07T09:44:49Z</time>
      </trkpt>
      <trkpt lat="45.29748" lon="6.23924">
        <ele>1087</ele>
        <time>2012-07-07T09:44:54Z</time>
      </trkpt>
      <trkpt lat="45.29753" lon="6.23973">
        <ele>1089</ele>
        <time>2012-07-07T09:44:59Z</time>
      </trkpt>
      <trkpt lat="45.29764" lon="6.24031">
        <ele>1081</ele>
        <time>2012-07-07T09:45:04Z</time>
      </trkpt>
      <trkpt lat="45.298" lon="6.24079">
        <ele>1080</ele>
        <time>2012-07-07T09:45:09Z</time>
      </trkpt>
      <trkpt lat="45.29842" lon="6.24071">
        <ele>1086</ele>
        <time>2012-07-07T09:45:14Z</time>
      </trkpt>
      <trkpt lat="45.29871" lon="6.24069">
        <ele>1090</ele>
        <time>2012-07-07T09:45:19Z</time>
      </trkpt>
      <trkpt lat="45.29884" lon="6.24144">
        <ele>1075</ele>
        <time>2012-07-07T09:45:24Z</time>
      </trkpt>
      <trkpt lat="45.2989" lon="6.24189">
        <ele>1064</ele>
        <time>2012-07-07T09:45:29Z</time>
      </trkpt>
      <trkpt lat="45.29859" lon="6.24246">
        <ele>1054</ele>
        <time>2012-07-07T09:45:34Z</time>
      </trkpt>
      <trkpt lat="45.29857" lon="6.24282">
        <ele>1043</ele>
        <time>2012-07-07T09:45:39Z</time>
      </trkpt>
      <trkpt lat="45.29894" lon="6.24305">
        <ele>1043</ele>
        <time>2012-07-07T09:45:44Z</time>
      </trkpt>
      <trkpt lat="45.29922" lon="6.24282">
        <ele>1058</ele>
        <time>2012-07-07T09:45:49Z</time>
      </trkpt>
      <trkpt lat="45.29951" lon="6.24297">
        <ele>1057</ele>
        <time>2012-07-07T09:45:54Z</time>
      </trkpt>
      <trkpt lat="45.29983" lon="6.2431">
        <ele>1057</ele>
        <time>2012-07-07T09:45:59Z</time>
      </trkpt>
      <trkpt lat="45.29992" lon="6.24362">
        <ele>1041</ele>
        <time>2012-07-07T09:46:04Z</time>
      </trkpt>
      <trkpt lat="45.29997" lon="6.24468">
        <ele>1020</ele>
        <time>2012-07-07T09:46:09Z</time>
      </trkpt>
      <trkpt lat="45.30002" lon="6.24529">
        <ele>1024</ele>
        <time>2012-07-07T09:46:14Z</time>
      </trkpt>
      <trkpt lat="45.30032" lon="6.24587">
        <ele>1011</ele>
        <time>2012-07-07T09:46:19Z</time>
      </trkpt>
      <trkpt lat="45.30067" lon="6.2462">
        <ele>1014</ele>
        <time>2012-07-07T09:46:24Z</time>
      </trkpt>
      <trkpt lat="45.3009" lon="6.24698">
        <ele>1014</ele>
        <time>2012-07-07T09:46:29Z</time>
      </trkpt>
      <trkpt lat="45.30105" lon="6.24742">
        <ele>1010</ele>
        <time>2012-07-07T09:46:34Z</time>
      </trkpt>
      <trkpt lat="45.30145" lon="6.24762">
        <ele>1009</ele>
        <time>2012-07-07T09:46:39Z</time>
      </trkpt>
      <trkpt lat="45.30148" lon="6.24815">
        <ele>1004</ele>
        <time>2012-07-07T09:46:44Z</time>
      </trkpt>
      <trkpt lat="45.30151" lon="6.24868">
        <ele>992</ele>
        <time>2012-07-07T09:46:49Z</time>
      </trkpt>
      <trkpt lat="45.30192" lon="6.24899">
        <ele>1009</ele>
        <time>2012-07-07T09:46:54Z</time>
      </trkpt>
      <trkpt lat="45.30188" lon="6.24955">
        <ele>1001</ele>
        <time>2012-07-07T09:46:59Z</time>
      </trkpt>
      <trkpt lat="45.30192" lon="6.25026">
        <ele>991</ele>
        <time>2012-07-07T09:47:04Z</time>
      </trkpt>
      <trkpt lat="45.30216" lon="6.25075">
        <ele>995</ele>
        <time>2012-07-07T09:47:09Z</time>
      </trkpt>
      <trkpt lat="45.3024" lon="6.25164">
        <ele>977</ele>
        <time>2012-07-07T09:47:14Z</time>
      </trkpt>
      <trkpt lat="45.3026" lon="6.25197">
        <ele>972</ele>
        <time>2012-07-07T09:47:19Z</time>
      </trkpt>
      <trkpt lat="45.30307" lon="6.25169">
        <ele>977</ele>
        <time>2012-07-07T09:47:24Z</time>
      </trkpt>
      <trkpt lat="45.30337" lon="6.2515">
        <ele>997</ele>
        <time>2012-07-07T09:47:29Z</time>
      </trkpt>
      <trkpt lat="45.30354" lon="6.25203">
        <ele>985</ele>
        <time>2012-07-07T09:47:34Z</time>
      </trkpt>
      <trkpt lat="45.30355" lon="6.25268">
        <ele>964</ele>
        <time>2012-07-07T09:47:39Z</time>
      </trkpt>
      <trkpt lat="45.30384" lon="6.25292">
        <ele>964</ele>
        <time>2012-07-07T09:47:44Z</time>
      </trkpt>
      <trkpt lat="45.30435" lon="6.25316">
        <ele>974</ele>
        <time>2012-07-07T09:47:49Z</time>
      </trkpt>
      <trkpt lat="45.30454" lon="6.25352">
        <ele>956</ele>
        <time>2012-07-07T09:47:54Z</time>
      </trkpt>
      <trkpt lat="45.30498" lon="6.2541">
        <ele>948</ele>
        <time>2012-07-07T09:47:59Z</time>
      </trkpt>
      <trkpt lat="45.30534" lon="6.25446">
        <ele>944</ele>
        <time>2012-07-07T09:48:04Z</time>
      </trkpt>
      <trkpt lat="45.30583" lon="6.25501">
        <ele>939</ele>
        <time>2012-07-07T09:48:09Z</time>
      </trkpt>
      <trkpt lat="45.30618" lon="6.25522">
        <ele>925</ele>
        <time>2012-07-07T09:48:14Z</time>
      </trkpt>
      <trkpt lat="45.30654" lon="6.25479">
        <ele>940</ele>
        <time>2012-07-07T09:48:19Z</time>
      </trkpt>
      <trkpt lat="45.30661" lon="6.25429">
        <ele>947</ele>
        <time>2012-07-07T09:48:24Z</time>
      </trkpt>
      <trkpt lat="45.30709" lon="6.25439">
        <ele>944</ele>
        <time>2012-07-07T09:48:29Z</time>
      </trkpt>
      <trkpt lat="45.30743" lon="6.25485">
        <ele>935</ele>
        <time>2012-07-07T09:48:34Z</time>
      </trkpt>
      <trkpt lat="45.30768" lon="6.25547">
        <ele>921</ele>
        <time>2012-07-07T09:48:39Z</time>
      </trkpt>
      <trkpt lat="45.30814" lon="6.25559">
        <ele>925</ele>
        <time>2012-07-07T09:48:44Z</time>
      </trkpt>
      <trkpt lat="45.30829" lon="6.25596">
        <ele>911</ele>
        <time>2012-07-07T09:48:49Z</time>
      </trkpt>
      <trkpt lat="45.30864" lon="6.25657">
        <ele>911</ele>
        <time>2012-07-07T09:48:54Z</time>
      </trkpt>
      <trkpt lat="45.30904" lon="6.25669">
        <ele>901</ele>
        <time>2012-07-07T09:48:59Z</time>
      </trkpt>
      <trkpt lat="45.30976" lon="6.25668">
        <ele>901</ele>
        <time>2012-07-07T09:49:04Z</time>
      </trkpt>
      <trkpt lat="45.31022" lon="6.2568">
        <ele>903</ele>
        <time>2012-07-07T09:49:09Z</time>
      </trkpt>
      <trkpt lat="45.31077" lon="6.25706">
        <ele>901</ele>
        <time>2012-07-07T09:49:14Z</time>
      </trkpt>
      <trkpt lat="45.3109" lon="6.25752">
        <ele>898</ele>
        <time>2012-07-07T09:49:19Z</time>
      </trkpt>
      <trkpt lat="45.31086" lon="6.25816">
        <ele>900</ele>
        <time>2012-07-07T09:49:24Z</time>
      </trkpt>
      <trkpt lat="45.31087" lon="6.25886">
        <ele>899</ele>
        <time>2012-07-07T09:49:29Z</time>
      </trkpt>
      <trkpt lat="45.31086" lon="6.25954">
        <ele>894</ele>
        <time>2012-07-07T09:49:34Z</time>
      </trkpt>
      <trkpt lat="45.31069" lon="6.26022">
        <ele>863</ele>
        <time>2012-07-07T09:49:39Z</time>
      </trkpt>
      <trkpt lat="45.31059" lon="6.26098">
        <ele>854</ele>
        <time>2012-07-07T09:49:44Z</time>
      </trkpt>
      <trkpt lat="45.31061" lon="6.26175">
        <ele>843</ele>
        <time>2012-07-07T09:49:49Z</time>
      </trkpt>
      <trkpt lat="45.31098" lon="6.26198">
        <ele>856</ele>
        <time>2012-07-07T09:49:54Z</time>
      </trkpt>
      <trkpt lat="45.31155" lon="6.26241">
        <ele>851</ele>
        <time>2012-07-07T09:49:59Z</time>
      </trkpt>
      <trkpt lat="45.31199" lon="6.26246">
        <ele>859</ele>
        <time>2012-07-07T09:50:04Z</time>
      </trkpt>
      <trkpt lat="45.31262" lon="6.2626">
        <ele>844</ele>
        <time>2012-07-07T09:50:09Z</time>
      </trkpt>
      <trkpt lat="45.31293" lon="6.26238">
        <ele>861</ele>
        <time>2012-07-07T09:50:14Z</time>
      </trkpt>
      <trkpt lat="45.31317" lon="6.26209">
        <ele>865</ele>
        <time>2012-07-07T09:50:19Z</time>
      </trkpt>
      <trkpt lat="45.31334" lon="6.26253">
        <ele>853</ele>
        <time>2012-07-07T09:50:24Z</time>
      </trkpt>
      <trkpt lat="45.31321" lon="6.26318">
        <ele>840</ele>
        <time>2012-07-07T09:50:29Z</time>
      </trkpt>
      <trkpt lat="45.31298" lon="6.26369">
        <ele>817</ele>
        <time>2012-07-07T09:50:34Z</time>
      </trkpt>
      <trkpt lat="45.31319" lon="6.26427">
        <ele>803</ele>
        <time>2012-07-07T09:50:39Z</time>
      </trkpt>
      <trkpt lat="45.31383" lon="6.26437">
        <ele>810</ele>
        <time>2012-07-07T09:50:44Z</time>
      </trkpt>
      <trkpt lat="45.31424" lon="6.26434">
        <ele>821</ele>
        <time>2012-07-07T09:50:49Z</time>
      </trkpt>
      <trkpt lat="45.31478" lon="6.26443">
        <ele>814</ele>
        <time>2012-07-07T09:50:54Z</time>
      </trkpt>
      <trkpt lat="45.31516" lon="6.26463">
        <ele>819</ele>
        <time>2012-07-07T09:50:59Z</time>
      </trkpt>
      <trkpt lat="45.31556" lon="6.26508">
        <ele>798</ele>
        <time>2012-07-07T09:51:04Z</time>
      </trkpt>
      <trkpt lat="45.31598" lon="6.26521">
        <ele>816</ele>
        <time>2012-07-07T09:51:09Z</time>
      </trkpt>
      <trkpt lat="45.31579" lon="6.26534">
        <ele>795</ele>
        <time>2012-07-07T09:51:14Z</time>
      </trkpt>
      <trkpt lat="45.31542" lon="6.26512">
        <ele>794</ele>
        <time>2012-07-07T09:51:19Z</time>
      </trkpt>
      <trkpt lat="45.31494" lon="6.26499">
        <ele>795</ele>
        <time>2012-07-07T09:51:24Z</time>
      </trkpt>
      <trkpt lat="45.31448" lon="6.26481">
        <ele>803</ele>
        <time>2012-07-07T09:51:29Z</time>
      </trkpt>
      <trkpt lat="45.31391" lon="6.2648">
        <ele>797</ele>
        <time>2012-07-07T09:51:34Z</time>
      </trkpt>
      <trkpt lat="45.31323" lon="6.265">
        <ele>782</ele>
        <time>2012-07-07T09:51:39Z</time>
      </trkpt>
      <trkpt lat="45.31291" lon="6.26498">
        <ele>785</ele>
        <time>2012-07-07T09:51:44Z</time>
      </trkpt>
      <trkpt lat="45.31297" lon="6.26516">
        <ele>780</ele>
        <time>2012-07-07T09:51:49Z</time>
      </trkpt>
      <trkpt lat="45.31327" lon="6.26519">
        <ele>779</ele>
        <time>2012-07-07T09:51:54Z</time>
      </trkpt>
      <trkpt lat="45.31372" lon="6.26518">
        <ele>775</ele>
        <time>2012-07-07T09:51:59Z</time>
      </trkpt>
      <trkpt lat="45.31434" lon="6.26538">
        <ele>775</ele>
        <time>2012-07-07T09:52:04Z</time>
      </trkpt>
      <trkpt lat="45.31485" lon="6.26583">
        <ele>770</ele>
        <time>2012-07-07T09:52:09Z</time>
      </trkpt>
      <trkpt lat="45.31534" lon="6.26647">
        <ele>758</ele>
        <time>2012-07-07T09:52:14Z</time>
      </trkpt>
      <trkpt lat="45.31586" lon="6.26694">
        <ele>751</ele>
        <time>2012-07-07T09:52:19Z</time>
      </trkpt>
      <trkpt lat="45.31667" lon="6.26752">
        <ele>742</ele>
        <time>2012-07-07T09:52:24Z</time>
      </trkpt>
      <trkpt lat="45.3172" lon="6.26803">
        <ele>747</ele>
        <time>2012-07-07T09:52:29Z</time>
      </trkpt>
      <trkpt lat="45.31783" lon="6.26894">
        <ele>735</ele>
        <time>2012-07-07T09:52:34Z</time>
      </trkpt>
      <trkpt lat="45.31806" lon="6.2694">
        <ele>724</ele>
        <time>2012-07-07T09:52:39Z</time>
      </trkpt>
      <trkpt lat="45.31855" lon="6.26961">
        <ele>727</ele>
        <time>2012-07-07T09:52:44Z</time>
      </trkpt>
      <trkpt lat="45.31904" lon="6.27001">
        <ele>720</ele>
        <time>2012-07-07T09:52:49Z</time>
      </trkpt>
      <trkpt lat="45.3195" lon="6.27078">
        <ele>717</ele>
        <time>2012-07-07T09:52:54Z</time>
      </trkpt>
      <trkpt lat="45.3199" lon="6.27115">
        <ele>708</ele>
        <time>2012-07-07T09:52:59Z</time>
      </trkpt>
      <trkpt lat="45.32045" lon="6.27148">
        <ele>708</ele>
        <time>2012-07-07T09:53:04Z</time>
      </trkpt>
      <trkpt lat="45.32106" lon="6.2718">
        <ele>696</ele>
        <time>2012-07-07T09:53:09Z</time>
      </trkpt>
      <trkpt lat="45.32164" lon="6.27202">
        <ele>695</ele>
        <time>2012-07-07T09:53:14Z</time>
      </trkpt>
      <trkpt lat="45.32198" lon="6.2729">
        <ele>685</ele>
        <time>2012-07-07T09:53:19Z</time>
      </trkpt>
      <trkpt lat="45.32222" lon="6.27341">
        <ele>679</ele>
        <time>2012-07-07T09:53:24Z</time>
      </trkpt>
      <trkpt lat="45.32281" lon="6.27398">
        <ele>678</ele>
        <time>2012-07-07T09:53:29Z</time>
      </trkpt>
      <trkpt lat="45.32324" lon="6.27406">
        <ele>675</ele>
        <time>2012-07-07T09:53:34Z</time>
      </trkpt>
      <trkpt lat="45.3238" lon="6.27417">
        <ele>677</ele>
        <time>2012-07-07T09:53:39Z</time>
      </trkpt>
      <trkpt lat="45.32411" lon="6.27484">
        <ele>668</ele>
        <time>2012-07-07T09:53:44Z</time>
      </trkpt>
      <trkpt lat="45.3246" lon="6.2754">
        <ele>671</ele>
        <time>2012-07-07T09:53:49Z</time>
      </trkpt>
      <trkpt lat="45.32513" lon="6.27597">
        <ele>667</ele>
        <time>2012-07-07T09:53:54Z</time>
      </trkpt>
      <trkpt lat="45.32548" lon="6.27682">
        <ele>655</ele>
        <time>2012-07-07T09:53:59Z</time>
      </trkpt>
      <trkpt lat="45.32558" lon="6.27771">
        <ele>648</ele>
        <time>2012-07-07T09:54:04Z</time>
      </trkpt>
      <trkpt lat="45.32551" lon="6.27845">
        <ele>638</ele>
        <time>2012-07-07T09:54:09Z</time>
      </trkpt>
      <trkpt lat="45.32582" lon="6.27898">
        <ele>630</ele>
        <time>2012-07-07T09:54:14Z</time>
      </trkpt>
      <trkpt lat="45.32623" lon="6.27883">
        <ele>638</ele>
        <time>2012-07-07T09:54:19Z</time>
      </trkpt>
      <trkpt lat="45.32688" lon="6.27911">
        <ele>641</ele>
        <time>2012-07-07T09:54:24Z</time>
      </trkpt>
      <trkpt lat="45.32725" lon="6.27945">
        <ele>627</ele>
        <time>2012-07-07T09:54:29Z</time>
      </trkpt>
      <trkpt lat="45.32777" lon="6.27998">
        <ele>629</ele>
        <time>2012-07-07T09:54:34Z</time>
      </trkpt>
      <trkpt lat="45.32832" lon="6.28055">
        <ele>613</ele>
        <time>2012-07-07T09:54:39Z</time>
      </trkpt>
      <trkpt lat="45.32879" lon="6.28112">
        <ele>606</ele>
        <time>2012-07-07T09:54:44Z</time>
      </trkpt>
      <trkpt lat="45.32925" lon="6.28171">
        <ele>601</ele>
        <time>2012-07-07T09:54:49Z</time>
      </trkpt>
      <trkpt lat="45.32964" lon="6.28224">
        <ele>601</ele>
        <time>2012-07-07T09:54:54Z</time>
      </trkpt>
      <trkpt lat="45.32993" lon="6.28275">
        <ele>592</ele>
        <time>2012-07-07T09:54:59Z</time>
      </trkpt>
      <trkpt lat="45.33017" lon="6.28338">
        <ele>582</ele>
        <time>2012-07-07T09:55:04Z</time>
      </trkpt>
      <trkpt lat="45.33062" lon="6.28409">
        <ele>580</ele>
        <time>2012-07-07T09:55:09Z</time>
      </trkpt>
      <trkpt lat="45.33087" lon="6.28463">
        <ele>574</ele>
        <time>2012-07-07T09:55:14Z</time>
      </trkpt>
      <trkpt lat="45.33129" lon="6.28513">
        <ele>568</ele>
        <time>2012-07-07T09:55:19Z</time>
      </trkpt>
      <trkpt lat="45.33167" lon="6.28533">
        <ele>568</ele>
        <time>2012-07-07T09:55:24Z</time>
      </trkpt>
      <trkpt lat="45.33219" lon="6.28562">
        <ele>568</ele>
        <time>2012-07-07T09:55:29Z</time>
      </trkpt>
      <trkpt lat="45.33269" lon="6.28587">
        <ele>559</ele>
        <time>2012-07-07T09:55:34Z</time>
      </trkpt>
      <trkpt lat="45.33315" lon="6.28588">
        <ele>557</ele>
        <time>2012-07-07T09:55:39Z</time>
      </trkpt>
      <trkpt lat="45.33354" lon="6.28579">
        <ele>567</ele>
        <time>2012-07-07T09:55:44Z</time>
      </trkpt>
      <trkpt lat="45.33364" lon="6.28609">
        <ele>553</ele>
        <time>2012-07-07T09:55:49Z</time>
      </trkpt>
      <trkpt lat="45.33341" lon="6.28655">
        <ele>549</ele>
        <time>2012-07-07T09:55:54Z</time>
      </trkpt>
      <trkpt lat="45.33342" lon="6.28715">
        <ele>544</ele>
        <time>2012-07-07T09:55:59Z</time>
      </trkpt>
      <trkpt lat="45.33361" lon="6.28789">
        <ele>540</ele>
        <time>2012-07-07T09:56:04Z</time>
      </trkpt>
      <trkpt lat="45.33395" lon="6.28801">
        <ele>539</ele>
        <time>2012-07-07T09:56:09Z</time>
      </trkpt>
      <trkpt lat="45.33447" lon="6.28796">
        <ele>534</ele>
        <time>2012-07-07T09:56:14Z</time>
      </trkpt>
      <trkpt lat="45.335" lon="6.28812">
        <ele>531</ele>
        <time>2012-07-07T09:56:19Z</time>
      </trkpt>
      <trkpt lat="45.33552" lon="6.2883">
        <ele>526</ele>
        <time>2012-07-07T09:56:24Z</time>
      </trkpt>
      <trkpt lat="45.336" lon="6.28846">
        <ele>521</ele>
        <time>2012-07-07T09:56:29Z</time>
      </trkpt>
      <trkpt lat="45.33643" lon="6.28861">
        <ele>518</ele>
        <time>2012-07-07T09:56:34Z</time>
      </trkpt>
      <trkpt lat="45.33682" lon="6.28874">
        <ele>514</ele>
        <time>2012-07-07T09:56:39Z</time>
      </trkpt>
      <trkpt lat="45.33732" lon="6.28891">
        <ele>513</ele>
        <time>2012-07-07T09:56:44Z</time>
      </trkpt>
      <trkpt lat="45.33782" lon="6.28909">
        <ele>512</ele>
        <time>2012-07-07T09:56:49Z</time>
      </trkpt>
      <trkpt lat="45.33828" lon="6.28925">
        <ele>507</ele>
        <time>2012-07-07T09:56:54Z</time>
      </trkpt>
      <trkpt lat="45.33874" lon="6.28941">
        <ele>505</ele>
        <time>2012-07-07T09:56:59Z</time>
      </trkpt>
      <trkpt lat="45.33901" lon="6.2895">
        <ele>505</ele>
        <time>2012-07-07T09:57:04Z</time>
      </trkpt>
      <trkpt lat="45.33936" lon="6.28962">
        <ele>505</ele>
        <time>2012-07-07T09:57:09Z</time>
      </trkpt>
      <trkpt lat="45.33977" lon="6.28977">
        <ele>504</ele>
        <time>2012-07-07T09:57:14Z</time>
      </trkpt>
      <trkpt lat="45.34019" lon="6.28993">
        <ele>501</ele>
        <time>2012-07-07T09:57:19Z</time>
      </trkpt>
      <trkpt lat="45.34059" lon="6.29005">
        <ele>494</ele>
        <time>2012-07-07T09:57:24Z</time>
      </trkpt>
      <trkpt lat="45.34091" lon="6.29024">
        <ele>492</ele>
        <time>2012-07-07T09:57:29Z</time>
      </trkpt>
      <trkpt lat="45.34121" lon="6.29046">
        <ele>492</ele>
        <time>2012-07-07T09:57:34Z</time>
      </trkpt>
      <trkpt lat="45.34159" lon="6.29062">
        <ele>491</ele>
        <time>2012-07-07T09:57:39Z</time>
      </trkpt>
      <trkpt lat="45.34197" lon="6.29103">
        <ele>488</ele>
        <time>2012-07-07T09:57:44Z</time>
      </trkpt>
      <trkpt lat="45.34219" lon="6.29122">
        <ele>487</ele>
        <time>2012-07-07T09:57:49Z</time>
      </trkpt>
      <trkpt lat="45.34219" lon="6.29159">
        <ele>487</ele>
        <time>2012-07-07T09:57:54Z</time>
      </trkpt>
      <trkpt lat="45.34213" lon="6.29171">
        <ele>486</ele>
        <time>2012-07-07T09:57:59Z</time>
      </trkpt>
      <trkpt lat="45.34208" lon="6.29178">
        <ele>486</ele>
        <time>2012-07-07T09:58:04Z</time>
      </trkpt>
      <trkpt lat="45.34207" lon="6.29178">
        <ele>486</ele>
        <time>2012-07-07T09:58:09Z</time>
      </trkpt>
      <trkpt lat="45.34207" lon="6.29178">
        <ele>486</ele>
        <time>2012-07-07T09:58:14Z</time>
      </trkpt>
      <trkpt lat="45.34206" lon="6.29179">
        <ele>486</ele>
        <time>2012-07-07T09:58:19Z</time>
      </trkpt>
      <trkpt lat="45.34206" lon="6.29179">
        <ele>486</ele>
        <time>2012-07-07T09:58:24Z</time>
      </trkpt>
      <trkpt lat="45.34205" lon="6.29179">
        <ele>486</ele>
        <time>2012-07-07T09:58:29Z</time>
      </trkpt>
      <trkpt lat="45.34205" lon="6.29179">
        <ele>486</ele>
        <time>2012-07-07T09:58:34Z</time>
      </trkpt>
      <trkpt lat="45.34205" lon="6.29179">
        <ele>486</ele>
        <time>2012-07-07T09:58:39Z</time>
      </trkpt>
      <trkpt lat="45.34205" lon="6.29179">
        <ele>486</ele>
        <time>2012-07-07T09:58:44Z</time>
      </trkpt>
      <trkpt lat="45.34205" lon="6.29179">
        <ele>486</ele>
        <time>2012-07-07T09:58:49Z</time>
      </trkpt>
      <trkpt lat="45.34205" lon="6.2918">
        <ele>486</ele>
        <time>2012-07-07T09:58:54Z</time>
      </trkpt>
      <trkpt lat="45.34205" lon="6.2918">
        <ele>486</ele>
        <time>2012-07-07T09:58:59Z</time>
      </trkpt>
      <trkpt lat="45.34205" lon="6.2918">
        <ele>486</ele>
        <time>2012-07-07T09:59:04Z</time>
      </trkpt>
      <trkpt lat="45.34205" lon="6.2918">
        <ele>486</ele>
        <time>2012-07-07T09:59:09Z</time>
      </trkpt>
      <trkpt lat="45.34205" lon="6.29179">
        <ele>486</ele>
        <time>2012-07-07T09:59:14Z</time>
      </trkpt>
      <trkpt lat="45.34205" lon="6.29183">
        <ele>486</ele>
        <time>2012-07-07T09:59:19Z</time>
      </trkpt>
      <trkpt lat="45.34201" lon="6.29201">
        <ele>486</ele>
        <time>2012-07-07T09:59:24Z</time>
      </trkpt>
      <trkpt lat="45.34195" lon="6.29221">
        <ele>486</ele>
        <time>2012-07-07T09:59:29Z</time>
      </trkpt>
      <trkpt lat="45.34186" lon="6.29262">
        <ele>486</ele>
        <time>2012-07-07T09:59:34Z</time>
      </trkpt>
      <trkpt lat="45.34181" lon="6.29291">
        <ele>486</ele>
        <time>2012-07-07T09:59:39Z</time>
      </trkpt>
      <trkpt lat="45.34171" lon="6.29331">
        <ele>487</ele>
        <time>2012-07-07T09:59:44Z</time>
      </trkpt>
      <trkpt lat="45.34161" lon="6.2937">
        <ele>487</ele>
        <time>2012-07-07T09:59:49Z</time>
      </trkpt>
      <trkpt lat="45.3415" lon="6.29411">
        <ele>487</ele>
        <time>2012-07-07T09:59:54Z</time>
      </trkpt>
      <trkpt lat="45.34139" lon="6.29452">
        <ele>486</ele>
        <time>2012-07-07T09:59:59Z</time>
      </trkpt>
      <trkpt lat="45.3413" lon="6.29492">
        <ele>485</ele>
        <time>2012-07-07T10:00:04Z</time>
      </trkpt>
      <trkpt lat="45.3412" lon="6.29532">
        <ele>485</ele>
        <time>2012-07-07T10:00:09Z</time>
      </trkpt>
      <trkpt lat="45.3411" lon="6.29576">
        <ele>485</ele>
        <time>2012-07-07T10:00:14Z</time>
      </trkpt>
      <trkpt lat="45.341" lon="6.29635">
        <ele>485</ele>
        <time>2012-07-07T10:00:19Z</time>
      </trkpt>
      <trkpt lat="45.34095" lon="6.29677">
        <ele>485</ele>
        <time>2012-07-07T10:00:24Z</time>
      </trkpt>
      <trkpt lat="45.34087" lon="6.2974">
        <ele>484</ele>
        <time>2012-07-07T10:00:29Z</time>
      </trkpt>
      <trkpt lat="45.3408" lon="6.29781">
        <ele>484</ele>
        <time>2012-07-07T10:00:34Z</time>
      </trkpt>
      <trkpt lat="45.3406" lon="6.2984">
        <ele>482</ele>
        <time>2012-07-07T10:00:39Z</time>
      </trkpt>
      <trkpt lat="45.34042" lon="6.29881">
        <ele>482</ele>
        <time>2012-07-07T10:00:44Z</time>
      </trkpt>
      <trkpt lat="45.34026" lon="6.29935">
        <ele>481</ele>
        <time>2012-07-07T10:00:49Z</time>
      </trkpt>
      <trkpt lat="45.34011" lon="6.29992">
        <ele>479</ele>
        <time>2012-07-07T10:00:54Z</time>
      </trkpt>
      <trkpt lat="45.33981" lon="6.30034">
        <ele>479</ele>
        <time>2012-07-07T10:00:59Z</time>
      </trkpt>
      <trkpt lat="45.33944" lon="6.30066">
        <ele>479</ele>
        <time>2012-07-07T10:01:04Z</time>
      </trkpt>
      <trkpt lat="45.33908" lon="6.30101">
        <ele>482</ele>
        <time>2012-07-07T10:01:09Z</time>
      </trkpt>
      <trkpt lat="45.33879" lon="6.30153">
        <ele>482</ele>
        <time>2012-07-07T10:01:14Z</time>
      </trkpt>
      <trkpt lat="45.33842" lon="6.302">
        <ele>476</ele>
        <time>2012-07-07T10:01:19Z</time>
      </trkpt>
      <trkpt lat="45.33787" lon="6.30255">
        <ele>469</ele>
        <time>2012-07-07T10:01:24Z</time>
      </trkpt>
      <trkpt lat="45.33747" lon="6.30288">
        <ele>467</ele>
        <time>2012-07-07T10:01:29Z</time>
      </trkpt>
      <trkpt lat="45.33696" lon="6.30327">
        <ele>467</ele>
        <time>2012-07-07T10:01:34Z</time>
      </trkpt>
      <trkpt lat="45.3365" lon="6.30369">
        <ele>465</ele>
        <time>2012-07-07T10:01:39Z</time>
      </trkpt>
      <trkpt lat="45.33609" lon="6.30411">
        <ele>464</ele>
        <time>2012-07-07T10:01:44Z</time>
      </trkpt>
      <trkpt lat="45.3357" lon="6.30452">
        <ele>464</ele>
        <time>2012-07-07T10:01:49Z</time>
      </trkpt>
      <trkpt lat="45.33535" lon="6.30497">
        <ele>464</ele>
        <time>2012-07-07T10:01:54Z</time>
      </trkpt>
      <trkpt lat="45.335" lon="6.30533">
        <ele>463</ele>
        <time>2012-07-07T10:01:59Z</time>
      </trkpt>
      <trkpt lat="45.33466" lon="6.30566">
        <ele>463</ele>
        <time>2012-07-07T10:02:04Z</time>
      </trkpt>
      <trkpt lat="45.33438" lon="6.30618">
        <ele>463</ele>
        <time>2012-07-07T10:02:09Z</time>
      </trkpt>
      <trkpt lat="45.33424" lon="6.30658">
        <ele>464</ele>
        <time>2012-07-07T10:02:14Z</time>
      </trkpt>
      <trkpt lat="45.33404" lon="6.30716">
        <ele>465</ele>
        <time>2012-07-07T10:02:19Z</time>
      </trkpt>
      <trkpt lat="45.33391" lon="6.30753">
        <ele>463</ele>
        <time>2012-07-07T10:02:24Z</time>
      </trkpt>
      <trkpt lat="45.33371" lon="6.30795">
        <ele>463</ele>
        <time>2012-07-07T10:02:29Z</time>
      </trkpt>
      <trkpt lat="45.33345" lon="6.3083">
        <ele>462</ele>
        <time>2012-07-07T10:02:34Z</time>
      </trkpt>
      <trkpt lat="45.33316" lon="6.3086">
        <ele>465</ele>
        <time>2012-07-07T10:02:39Z</time>
      </trkpt>
      <trkpt lat="45.33288" lon="6.30896">
        <ele>466</ele>
        <time>2012-07-07T10:02:44Z</time>
      </trkpt>
      <trkpt lat="45.33261" lon="6.3093">
        <ele>463</ele>
        <time>2012-07-07T10:02:49Z</time>
      </trkpt>
      <trkpt lat="45.33237" lon="6.30967">
        <ele>465</ele>
        <time>2012-07-07T10:02:54Z</time>
      </trkpt>
      <trkpt lat="45.33221" lon="6.31008">
        <ele>464</ele>
        <time>2012-07-07T10:02:59Z</time>
      </trkpt>
      <trkpt lat="45.33202" lon="6.31057">
        <ele>465</ele>
        <time>2012-07-07T10:03:04Z</time>
      </trkpt>
      <trkpt lat="45.33189" lon="6.31087">
        <ele>466</ele>
        <time>2012-07-07T10:03:09Z</time>
      </trkpt>
      <trkpt lat="45.33167" lon="6.31118">
        <ele>466</ele>
        <time>2012-07-07T10:03:14Z</time>
      </trkpt>
      <trkpt lat="45.33141" lon="6.31145">
        <ele>466</ele>
        <time>2012-07-07T10:03:19Z</time>
      </trkpt>
      <trkpt lat="45.33116" lon="6.31174">
        <ele>466</ele>
        <time>2012-07-07T10:03:24Z</time>
      </trkpt>
      <trkpt lat="45.33093" lon="6.31206">
        <ele>467</ele>
        <time>2012-07-07T10:03:29Z</time>
      </trkpt>
      <trkpt lat="45.33069" lon="6.31237">
        <ele>467</ele>
        <time>2012-07-07T10:03:34Z</time>
      </trkpt>
      <trkpt lat="45.33043" lon="6.3127">
        <ele>468</ele>
        <time>2012-07-07T10:03:39Z</time>
      </trkpt>
      <trkpt lat="45.33016" lon="6.31302">
        <ele>468</ele>
        <time>2012-07-07T10:03:44Z</time>
      </trkpt>
      <trkpt lat="45.32983" lon="6.31341">
        <ele>468</ele>
        <time>2012-07-07T10:03:49Z</time>
      </trkpt>
      <trkpt lat="45.32961" lon="6.31365">
        <ele>467</ele>
        <time>2012-07-07T10:03:54Z</time>
      </trkpt>
      <trkpt lat="45.32928" lon="6.31399">
        <ele>467</ele>
        <time>2012-07-07T10:03:59Z</time>
      </trkpt>
      <trkpt lat="45.32904" lon="6.3142">
        <ele>467</ele>
        <time>2012-07-07T10:04:04Z</time>
      </trkpt>
      <trkpt lat="45.32868" lon="6.31451">
        <ele>467</ele>
        <time>2012-07-07T10:04:09Z</time>
      </trkpt>
      <trkpt lat="45.32843" lon="6.31471">
        <ele>468</ele>
        <time>2012-07-07T10:04:14Z</time>
      </trkpt>
      <trkpt lat="45.32806" lon="6.31503">
        <ele>469</ele>
        <time>2012-07-07T10:04:19Z</time>
      </trkpt>
      <trkpt lat="45.32784" lon="6.31529">
        <ele>468</ele>
        <time>2012-07-07T10:04:24Z</time>
      </trkpt>
      <trkpt lat="45.32757" lon="6.31562">
        <ele>469</ele>
        <time>2012-07-07T10:04:29Z</time>
      </trkpt>
      <trkpt lat="45.3272" lon="6.31581">
        <ele>470</ele>
        <time>2012-07-07T10:04:34Z</time>
      </trkpt>
      <trkpt lat="45.32683" lon="6.31607">
        <ele>470</ele>
        <time>2012-07-07T10:04:39Z</time>
      </trkpt>
      <trkpt lat="45.32652" lon="6.3165">
        <ele>470</ele>
        <time>2012-07-07T10:04:44Z</time>
      </trkpt>
      <trkpt lat="45.32623" lon="6.31691">
        <ele>469</ele>
        <time>2012-07-07T10:04:49Z</time>
      </trkpt>
      <trkpt lat="45.32585" lon="6.31727">
        <ele>470</ele>
        <time>2012-07-07T10:04:54Z</time>
      </trkpt>
      <trkpt lat="45.32558" lon="6.31743">
        <ele>471</ele>
        <time>2012-07-07T10:04:59Z</time>
      </trkpt>
      <trkpt lat="45.32516" lon="6.3176">
        <ele>470</ele>
        <time>2012-07-07T10:05:04Z</time>
      </trkpt>
      <trkpt lat="45.32489" lon="6.31769">
        <ele>472</ele>
        <time>2012-07-07T10:05:09Z</time>
      </trkpt>
      <trkpt lat="45.32449" lon="6.31782">
        <ele>473</ele>
        <time>2012-07-07T10:05:14Z</time>
      </trkpt>
      <trkpt lat="45.32426" lon="6.3179">
        <ele>474</ele>
        <time>2012-07-07T10:05:19Z</time>
      </trkpt>
      <trkpt lat="45.32406" lon="6.31795">
        <ele>478</ele>
        <time>2012-07-07T10:05:24Z</time>
      </trkpt>
      <trkpt lat="45.32388" lon="6.31799">
        <ele>479</ele>
        <time>2012-07-07T10:05:29Z</time>
      </trkpt>
      <trkpt lat="45.32372" lon="6.31802">
        <ele>479</ele>
        <time>2012-07-07T10:05:34Z</time>
      </trkpt>
      <trkpt lat="45.32351" lon="6.31805">
        <ele>480</ele>
        <time>2012-07-07T10:05:39Z</time>
      </trkpt>
      <trkpt lat="45.32338" lon="6.31808">
        <ele>480</ele>
        <time>2012-07-07T10:05:44Z</time>
      </trkpt>
      <trkpt lat="45.32317" lon="6.31811">
        <ele>485</ele>
        <time>2012-07-07T10:05:49Z</time>
      </trkpt>
      <trkpt lat="45.32302" lon="6.31811">
        <ele>487</ele>
        <time>2012-07-07T10:05:54Z</time>
      </trkpt>
      <trkpt lat="45.32285" lon="6.31811">
        <ele>488</ele>
        <time>2012-07-07T10:05:59Z</time>
      </trkpt>
      <trkpt lat="45.32267" lon="6.31812">
        <ele>488</ele>
        <time>2012-07-07T10:06:04Z</time>
      </trkpt>
      <trkpt lat="45.3225" lon="6.31814">
        <ele>493</ele>
        <time>2012-07-07T10:06:09Z</time>
      </trkpt>
      <trkpt lat="45.32233" lon="6.31815">
        <ele>495</ele>
        <time>2012-07-07T10:06:14Z</time>
      </trkpt>
      <trkpt lat="45.32216" lon="6.31817">
        <ele>496</ele>
        <time>2012-07-07T10:06:19Z</time>
      </trkpt>
      <trkpt lat="45.32197" lon="6.31821">
        <ele>498</ele>
        <time>2012-07-07T10:06:24Z</time>
      </trkpt>
      <trkpt lat="45.32185" lon="6.31824">
        <ele>498</ele>
        <time>2012-07-07T10:06:29Z</time>
      </trkpt>
      <trkpt lat="45.32166" lon="6.31831">
        <ele>500</ele>
        <time>2012-07-07T10:06:34Z</time>
      </trkpt>
      <trkpt lat="45.32154" lon="6.31836">
        <ele>500</ele>
        <time>2012-07-07T10:06:39Z</time>
      </trkpt>
      <trkpt lat="45.32135" lon="6.31844">
        <ele>502</ele>
        <time>2012-07-07T10:06:44Z</time>
      </trkpt>
      <trkpt lat="45.32123" lon="6.3185">
        <ele>504</ele>
        <time>2012-07-07T10:06:49Z</time>
      </trkpt>
      <trkpt lat="45.32109" lon="6.31859">
        <ele>505</ele>
        <time>2012-07-07T10:06:54Z</time>
      </trkpt>
      <trkpt lat="45.32094" lon="6.3187">
        <ele>505</ele>
        <time>2012-07-07T10:06:59Z</time>
      </trkpt>
      <trkpt lat="45.3208" lon="6.31881">
        <ele>515</ele>
        <time>2012-07-07T10:07:04Z</time>
      </trkpt>
      <trkpt lat="45.32066" lon="6.31894">
        <ele>513</ele>
        <time>2012-07-07T10:07:09Z</time>
      </trkpt>
      <trkpt lat="45.32051" lon="6.31908">
        <ele>514</ele>
        <time>2012-07-07T10:07:14Z</time>
      </trkpt>
      <trkpt lat="45.32035" lon="6.31926">
        <ele>505</ele>
        <time>2012-07-07T10:07:19Z</time>
      </trkpt>
      <trkpt lat="45.32018" lon="6.31946">
        <ele>506</ele>
        <time>2012-07-07T10:07:24Z</time>
      </trkpt>
      <trkpt lat="45.31996" lon="6.31977">
        <ele>516</ele>
        <time>2012-07-07T10:07:29Z</time>
      </trkpt>
      <trkpt lat="45.31981" lon="6.32002">
        <ele>507</ele>
        <time>2012-07-07T10:07:34Z</time>
      </trkpt>
      <trkpt lat="45.31962" lon="6.32038">
        <ele>508</ele>
        <time>2012-07-07T10:07:39Z</time>
      </trkpt>
      <trkpt lat="45.31941" lon="6.32076">
        <ele>509</ele>
        <time>2012-07-07T10:07:44Z</time>
      </trkpt>
      <trkpt lat="45.3192" lon="6.32117">
        <ele>500</ele>
        <time>2012-07-07T10:07:49Z</time>
      </trkpt>
      <trkpt lat="45.31898" lon="6.3216">
        <ele>510</ele>
        <time>2012-07-07T10:07:54Z</time>
      </trkpt>
      <trkpt lat="45.31874" lon="6.32208">
        <ele>504</ele>
        <time>2012-07-07T10:07:59Z</time>
      </trkpt>
      <trkpt lat="45.31842" lon="6.32263">
        <ele>498</ele>
        <time>2012-07-07T10:08:04Z</time>
      </trkpt>
      <trkpt lat="45.31798" lon="6.32321">
        <ele>499</ele>
        <time>2012-07-07T10:08:09Z</time>
      </trkpt>
      <trkpt lat="45.31742" lon="6.32376">
        <ele>492</ele>
        <time>2012-07-07T10:08:14Z</time>
      </trkpt>
      <trkpt lat="45.31681" lon="6.32416">
        <ele>491</ele>
        <time>2012-07-07T10:08:19Z</time>
      </trkpt>
      <trkpt lat="45.31609" lon="6.32445">
        <ele>490</ele>
        <time>2012-07-07T10:08:24Z</time>
      </trkpt>
      <trkpt lat="45.31567" lon="6.32479">
        <ele>493</ele>
        <time>2012-07-07T10:08:29Z</time>
      </trkpt>
      <trkpt lat="45.31517" lon="6.32545">
        <ele>491</ele>
        <time>2012-07-07T10:08:34Z</time>
      </trkpt>
      <trkpt lat="45.31502" lon="6.32599">
        <ele>491</ele>
        <time>2012-07-07T10:08:39Z</time>
      </trkpt>
      <trkpt lat="45.31507" lon="6.32675">
        <ele>500</ele>
        <time>2012-07-07T10:08:44Z</time>
      </trkpt>
      <trkpt lat="45.31522" lon="6.32721">
        <ele>500</ele>
        <time>2012-07-07T10:08:49Z</time>
      </trkpt>
      <trkpt lat="45.31541" lon="6.32776">
        <ele>499</ele>
        <time>2012-07-07T10:08:54Z</time>
      </trkpt>
      <trkpt lat="45.31538" lon="6.3285">
        <ele>495</ele>
        <time>2012-07-07T10:08:59Z</time>
      </trkpt>
      <trkpt lat="45.31516" lon="6.32894">
        <ele>494</ele>
        <time>2012-07-07T10:09:04Z</time>
      </trkpt>
      <trkpt lat="45.31482" lon="6.32945">
        <ele>495</ele>
        <time>2012-07-07T10:09:09Z</time>
      </trkpt>
      <trkpt lat="45.31451" lon="6.33">
        <ele>492</ele>
        <time>2012-07-07T10:09:14Z</time>
      </trkpt>
      <trkpt lat="45.31421" lon="6.33073">
        <ele>483</ele>
        <time>2012-07-07T10:09:19Z</time>
      </trkpt>
      <trkpt lat="45.31405" lon="6.33125">
        <ele>485</ele>
        <time>2012-07-07T10:09:24Z</time>
      </trkpt>
      <trkpt lat="45.31385" lon="6.33184">
        <ele>482</ele>
        <time>2012-07-07T10:09:29Z</time>
      </trkpt>
      <trkpt lat="45.31362" lon="6.33237">
        <ele>482</ele>
        <time>2012-07-07T10:09:34Z</time>
      </trkpt>
      <trkpt lat="45.31331" lon="6.33293">
        <ele>486</ele>
        <time>2012-07-07T10:09:39Z</time>
      </trkpt>
      <trkpt lat="45.31309" lon="6.33328">
        <ele>487</ele>
        <time>2012-07-07T10:09:44Z</time>
      </trkpt>
      <trkpt lat="45.3128" lon="6.33369">
        <ele>488</ele>
        <time>2012-07-07T10:09:49Z</time>
      </trkpt>
      <trkpt lat="45.31262" lon="6.33417">
        <ele>490</ele>
        <time>2012-07-07T10:09:54Z</time>
      </trkpt>
      <trkpt lat="45.31277" lon="6.33467">
        <ele>490</ele>
        <time>2012-07-07T10:09:59Z</time>
      </trkpt>
      <trkpt lat="45.3131" lon="6.33512">
        <ele>488</ele>
        <time>2012-07-07T10:10:04Z</time>
      </trkpt>
      <trkpt lat="45.31339" lon="6.33523">
        <ele>486</ele>
        <time>2012-07-07T10:10:09Z</time>
      </trkpt>
      <trkpt lat="45.31371" lon="6.3355">
        <ele>485</ele>
        <time>2012-07-07T10:10:14Z</time>
      </trkpt>
      <trkpt lat="45.31392" lon="6.33569">
        <ele>486</ele>
        <time>2012-07-07T10:10:19Z</time>
      </trkpt>
      <trkpt lat="45.3141" lon="6.33603">
        <ele>487</ele>
        <time>2012-07-07T10:10:24Z</time>
      </trkpt>
      <trkpt lat="45.31418" lon="6.33647">
        <ele>490</ele>
        <time>2012-07-07T10:10:29Z</time>
      </trkpt>
      <trkpt lat="45.31403" lon="6.33689">
        <ele>490</ele>
        <time>2012-07-07T10:10:34Z</time>
      </trkpt>
      <trkpt lat="45.3138" lon="6.33731">
        <ele>490</ele>
        <time>2012-07-07T10:10:39Z</time>
      </trkpt>
      <trkpt lat="45.31358" lon="6.33771">
        <ele>493</ele>
        <time>2012-07-07T10:10:44Z</time>
      </trkpt>
      <trkpt lat="45.31332" lon="6.33818">
        <ele>493</ele>
        <time>2012-07-07T10:10:49Z</time>
      </trkpt>
      <trkpt lat="45.31314" lon="6.3385">
        <ele>494</ele>
        <time>2012-07-07T10:10:54Z</time>
      </trkpt>
      <trkpt lat="45.31285" lon="6.339">
        <ele>493</ele>
        <time>2012-07-07T10:10:59Z</time>
      </trkpt>
      <trkpt lat="45.31264" lon="6.33932">
        <ele>494</ele>
        <time>2012-07-07T10:11:04Z</time>
      </trkpt>
      <trkpt lat="45.31234" lon="6.33975">
        <ele>494</ele>
        <time>2012-07-07T10:11:09Z</time>
      </trkpt>
      <trkpt lat="45.31214" lon="6.34001">
        <ele>497</ele>
        <time>2012-07-07T10:11:14Z</time>
      </trkpt>
      <trkpt lat="45.31188" lon="6.34032">
        <ele>497</ele>
        <time>2012-07-07T10:11:19Z</time>
      </trkpt>
      <trkpt lat="45.31162" lon="6.34061">
        <ele>497</ele>
        <time>2012-07-07T10:11:24Z</time>
      </trkpt>
      <trkpt lat="45.31133" lon="6.34094">
        <ele>499</ele>
        <time>2012-07-07T10:11:29Z</time>
      </trkpt>
      <trkpt lat="45.31103" lon="6.34128">
        <ele>498</ele>
        <time>2012-07-07T10:11:34Z</time>
      </trkpt>
      <trkpt lat="45.31072" lon="6.34164">
        <ele>497</ele>
        <time>2012-07-07T10:11:39Z</time>
      </trkpt>
      <trkpt lat="45.31033" lon="6.34208">
        <ele>499</ele>
        <time>2012-07-07T10:11:44Z</time>
      </trkpt>
      <trkpt lat="45.31008" lon="6.34237">
        <ele>499</ele>
        <time>2012-07-07T10:11:49Z</time>
      </trkpt>
      <trkpt lat="45.3097" lon="6.3428">
        <ele>499</ele>
        <time>2012-07-07T10:11:54Z</time>
      </trkpt>
      <trkpt lat="45.30945" lon="6.34307">
        <ele>499</ele>
        <time>2012-07-07T10:11:59Z</time>
      </trkpt>
      <trkpt lat="45.30914" lon="6.34341">
        <ele>499</ele>
        <time>2012-07-07T10:12:04Z</time>
      </trkpt>
      <trkpt lat="45.30885" lon="6.34374">
        <ele>498</ele>
        <time>2012-07-07T10:12:09Z</time>
      </trkpt>
      <trkpt lat="45.30856" lon="6.34406">
        <ele>498</ele>
        <time>2012-07-07T10:12:14Z</time>
      </trkpt>
      <trkpt lat="45.30828" lon="6.34438">
        <ele>497</ele>
        <time>2012-07-07T10:12:19Z</time>
      </trkpt>
      <trkpt lat="45.308" lon="6.34471">
        <ele>497</ele>
        <time>2012-07-07T10:12:24Z</time>
      </trkpt>
      <trkpt lat="45.30773" lon="6.34501">
        <ele>498</ele>
        <time>2012-07-07T10:12:29Z</time>
      </trkpt>
      <trkpt lat="45.30747" lon="6.3453">
        <ele>498</ele>
        <time>2012-07-07T10:12:34Z</time>
      </trkpt>
      <trkpt lat="45.30715" lon="6.34566">
        <ele>498</ele>
        <time>2012-07-07T10:12:39Z</time>
      </trkpt>
      <trkpt lat="45.30696" lon="6.34588">
        <ele>497</ele>
        <time>2012-07-07T10:12:44Z</time>
      </trkpt>
      <trkpt lat="45.30665" lon="6.34621">
        <ele>498</ele>
        <time>2012-07-07T10:12:49Z</time>
      </trkpt>
      <trkpt lat="45.30645" lon="6.34645">
        <ele>498</ele>
        <time>2012-07-07T10:12:54Z</time>
      </trkpt>
      <trkpt lat="45.30614" lon="6.3468">
        <ele>499</ele>
        <time>2012-07-07T10:12:59Z</time>
      </trkpt>
      <trkpt lat="45.30593" lon="6.34703">
        <ele>499</ele>
        <time>2012-07-07T10:13:04Z</time>
      </trkpt>
      <trkpt lat="45.30567" lon="6.34733">
        <ele>499</ele>
        <time>2012-07-07T10:13:09Z</time>
      </trkpt>
      <trkpt lat="45.3054" lon="6.34763">
        <ele>500</ele>
        <time>2012-07-07T10:13:14Z</time>
      </trkpt>
      <trkpt lat="45.30514" lon="6.34793">
        <ele>500</ele>
        <time>2012-07-07T10:13:19Z</time>
      </trkpt>
      <trkpt lat="45.30486" lon="6.34824">
        <ele>501</ele>
        <time>2012-07-07T10:13:24Z</time>
      </trkpt>
      <trkpt lat="45.30459" lon="6.34855">
        <ele>502</ele>
        <time>2012-07-07T10:13:29Z</time>
      </trkpt>
      <trkpt lat="45.30425" lon="6.34892">
        <ele>503</ele>
        <time>2012-07-07T10:13:34Z</time>
      </trkpt>
      <trkpt lat="45.30403" lon="6.34918">
        <ele>503</ele>
        <time>2012-07-07T10:13:39Z</time>
      </trkpt>
      <trkpt lat="45.30368" lon="6.34957">
        <ele>501</ele>
        <time>2012-07-07T10:13:44Z</time>
      </trkpt>
      <trkpt lat="45.30345" lon="6.34983">
        <ele>499</ele>
        <time>2012-07-07T10:13:49Z</time>
      </trkpt>
      <trkpt lat="45.30317" lon="6.35015">
        <ele>498</ele>
        <time>2012-07-07T10:13:54Z</time>
      </trkpt>
      <trkpt lat="45.30288" lon="6.35047">
        <ele>500</ele>
        <time>2012-07-07T10:13:59Z</time>
      </trkpt>
      <trkpt lat="45.3026" lon="6.35077">
        <ele>502</ele>
        <time>2012-07-07T10:14:04Z</time>
      </trkpt>
      <trkpt lat="45.30235" lon="6.35109">
        <ele>507</ele>
        <time>2012-07-07T10:14:09Z</time>
      </trkpt>
      <trkpt lat="45.30205" lon="6.35126">
        <ele>508</ele>
        <time>2012-07-07T10:14:14Z</time>
      </trkpt>
      <trkpt lat="45.30168" lon="6.3515">
        <ele>507</ele>
        <time>2012-07-07T10:14:19Z</time>
      </trkpt>
      <trkpt lat="45.30145" lon="6.35172">
        <ele>507</ele>
        <time>2012-07-07T10:14:24Z</time>
      </trkpt>
      <trkpt lat="45.30112" lon="6.35206">
        <ele>508</ele>
        <time>2012-07-07T10:14:29Z</time>
      </trkpt>
      <trkpt lat="45.30089" lon="6.35227">
        <ele>508</ele>
        <time>2012-07-07T10:14:34Z</time>
      </trkpt>
      <trkpt lat="45.30054" lon="6.35256">
        <ele>510</ele>
        <time>2012-07-07T10:14:39Z</time>
      </trkpt>
      <trkpt lat="45.30031" lon="6.35275">
        <ele>510</ele>
        <time>2012-07-07T10:14:44Z</time>
      </trkpt>
      <trkpt lat="45.3" lon="6.35298">
        <ele>510</ele>
        <time>2012-07-07T10:14:49Z</time>
      </trkpt>
      <trkpt lat="45.29967" lon="6.3532">
        <ele>512</ele>
        <time>2012-07-07T10:14:54Z</time>
      </trkpt>
      <trkpt lat="45.29935" lon="6.35341">
        <ele>511</ele>
        <time>2012-07-07T10:14:59Z</time>
      </trkpt>
      <trkpt lat="45.29902" lon="6.35361">
        <ele>513</ele>
        <time>2012-07-07T10:15:04Z</time>
      </trkpt>
      <trkpt lat="45.2987" lon="6.35379">
        <ele>514</ele>
        <time>2012-07-07T10:15:09Z</time>
      </trkpt>
      <trkpt lat="45.29833" lon="6.354">
        <ele>515</ele>
        <time>2012-07-07T10:15:14Z</time>
      </trkpt>
      <trkpt lat="45.29808" lon="6.35414">
        <ele>515</ele>
        <time>2012-07-07T10:15:19Z</time>
      </trkpt>
      <trkpt lat="45.29769" lon="6.35433">
        <ele>514</ele>
        <time>2012-07-07T10:15:24Z</time>
      </trkpt>
      <trkpt lat="45.29742" lon="6.35446">
        <ele>514</ele>
        <time>2012-07-07T10:15:29Z</time>
      </trkpt>
      <trkpt lat="45.29706" lon="6.3546">
        <ele>514</ele>
        <time>2012-07-07T10:15:34Z</time>
      </trkpt>
      <trkpt lat="45.29671" lon="6.35473">
        <ele>515</ele>
        <time>2012-07-07T10:15:39Z</time>
      </trkpt>
      <trkpt lat="45.29633" lon="6.35484">
        <ele>516</ele>
        <time>2012-07-07T10:15:44Z</time>
      </trkpt>
      <trkpt lat="45.29592" lon="6.35498">
        <ele>518</ele>
        <time>2012-07-07T10:15:49Z</time>
      </trkpt>
      <trkpt lat="45.29554" lon="6.35503">
        <ele>518</ele>
        <time>2012-07-07T10:15:54Z</time>
      </trkpt>
      <trkpt lat="45.29512" lon="6.35507">
        <ele>517</ele>
        <time>2012-07-07T10:15:59Z</time>
      </trkpt>
      <trkpt lat="45.29465" lon="6.35509">
        <ele>518</ele>
        <time>2012-07-07T10:16:04Z</time>
      </trkpt>
      <trkpt lat="45.29406" lon="6.35508">
        <ele>518</ele>
        <time>2012-07-07T10:16:09Z</time>
      </trkpt>
      <trkpt lat="45.29368" lon="6.35505">
        <ele>519</ele>
        <time>2012-07-07T10:16:14Z</time>
      </trkpt>
      <trkpt lat="45.29317" lon="6.35499">
        <ele>519</ele>
        <time>2012-07-07T10:16:19Z</time>
      </trkpt>
      <trkpt lat="45.29286" lon="6.35494">
        <ele>520</ele>
        <time>2012-07-07T10:16:24Z</time>
      </trkpt>
      <trkpt lat="45.29238" lon="6.35487">
        <ele>523</ele>
        <time>2012-07-07T10:16:29Z</time>
      </trkpt>
      <trkpt lat="45.29209" lon="6.35482">
        <ele>523</ele>
        <time>2012-07-07T10:16:34Z</time>
      </trkpt>
      <trkpt lat="45.29171" lon="6.35476">
        <ele>524</ele>
        <time>2012-07-07T10:16:39Z</time>
      </trkpt>
      <trkpt lat="45.29135" lon="6.35471">
        <ele>523</ele>
        <time>2012-07-07T10:16:44Z</time>
      </trkpt>
      <trkpt lat="45.291" lon="6.35468">
        <ele>522</ele>
        <time>2012-07-07T10:16:49Z</time>
      </trkpt>
      <trkpt lat="45.29068" lon="6.35465">
        <ele>521</ele>
        <time>2012-07-07T10:16:54Z</time>
      </trkpt>
      <trkpt lat="45.29036" lon="6.35463">
        <ele>521</ele>
        <time>2012-07-07T10:16:59Z</time>
      </trkpt>
      <trkpt lat="45.29005" lon="6.35459">
        <ele>520</ele>
        <time>2012-07-07T10:17:04Z</time>
      </trkpt>
      <trkpt lat="45.28975" lon="6.35456">
        <ele>519</ele>
        <time>2012-07-07T10:17:09Z</time>
      </trkpt>
      <trkpt lat="45.2894" lon="6.3545">
        <ele>519</ele>
        <time>2012-07-07T10:17:14Z</time>
      </trkpt>
      <trkpt lat="45.28916" lon="6.35445">
        <ele>519</ele>
        <time>2012-07-07T10:17:19Z</time>
      </trkpt>
      <trkpt lat="45.28887" lon="6.35438">
        <ele>519</ele>
        <time>2012-07-07T10:17:24Z</time>
      </trkpt>
      <trkpt lat="45.28859" lon="6.3543">
        <ele>520</ele>
        <time>2012-07-07T10:17:29Z</time>
      </trkpt>
      <trkpt lat="45.28832" lon="6.35421">
        <ele>520</ele>
        <time>2012-07-07T10:17:34Z</time>
      </trkpt>
      <trkpt lat="45.28805" lon="6.35413">
        <ele>520</ele>
        <time>2012-07-07T10:17:39Z</time>
      </trkpt>
      <trkpt lat="45.28777" lon="6.35405">
        <ele>520</ele>
        <time>2012-07-07T10:17:44Z</time>
      </trkpt>
      <trkpt lat="45.28749" lon="6.35399">
        <ele>520</ele>
        <time>2012-07-07T10:17:49Z</time>
      </trkpt>
      <trkpt lat="45.2872" lon="6.35397">
        <ele>520</ele>
        <time>2012-07-07T10:17:54Z</time>
      </trkpt>
      <trkpt lat="45.28684" lon="6.354">
        <ele>521</ele>
        <time>2012-07-07T10:17:59Z</time>
      </trkpt>
      <trkpt lat="45.2866" lon="6.35407">
        <ele>522</ele>
        <time>2012-07-07T10:18:04Z</time>
      </trkpt>
      <trkpt lat="45.28624" lon="6.35423">
        <ele>523</ele>
        <time>2012-07-07T10:18:09Z</time>
      </trkpt>
      <trkpt lat="45.286" lon="6.35437">
        <ele>523</ele>
        <time>2012-07-07T10:18:14Z</time>
      </trkpt>
      <trkpt lat="45.28568" lon="6.35453">
        <ele>523</ele>
        <time>2012-07-07T10:18:19Z</time>
      </trkpt>
      <trkpt lat="45.28535" lon="6.35471">
        <ele>523</ele>
        <time>2012-07-07T10:18:24Z</time>
      </trkpt>
      <trkpt lat="45.28502" lon="6.35489">
        <ele>523</ele>
        <time>2012-07-07T10:18:29Z</time>
      </trkpt>
      <trkpt lat="45.28469" lon="6.35506">
        <ele>523</ele>
        <time>2012-07-07T10:18:34Z</time>
      </trkpt>
      <trkpt lat="45.28436" lon="6.35524">
        <ele>522</ele>
        <time>2012-07-07T10:18:39Z</time>
      </trkpt>
      <trkpt lat="45.28395" lon="6.35546">
        <ele>522</ele>
        <time>2012-07-07T10:18:44Z</time>
      </trkpt>
      <trkpt lat="45.28368" lon="6.3556">
        <ele>523</ele>
        <time>2012-07-07T10:18:49Z</time>
      </trkpt>
      <trkpt lat="45.28327" lon="6.35582">
        <ele>525</ele>
        <time>2012-07-07T10:18:54Z</time>
      </trkpt>
      <trkpt lat="45.283" lon="6.35597">
        <ele>525</ele>
        <time>2012-07-07T10:18:59Z</time>
      </trkpt>
      <trkpt lat="45.2826" lon="6.35618">
        <ele>525</ele>
        <time>2012-07-07T10:19:04Z</time>
      </trkpt>
      <trkpt lat="45.28234" lon="6.35631">
        <ele>525</ele>
        <time>2012-07-07T10:19:09Z</time>
      </trkpt>
      <trkpt lat="45.28202" lon="6.35646">
        <ele>526</ele>
        <time>2012-07-07T10:19:14Z</time>
      </trkpt>
      <trkpt lat="45.28169" lon="6.35657">
        <ele>527</ele>
        <time>2012-07-07T10:19:19Z</time>
      </trkpt>
      <trkpt lat="45.28138" lon="6.35665">
        <ele>527</ele>
        <time>2012-07-07T10:19:24Z</time>
      </trkpt>
      <trkpt lat="45.28109" lon="6.35668">
        <ele>529</ele>
        <time>2012-07-07T10:19:29Z</time>
      </trkpt>
      <trkpt lat="45.2808" lon="6.35664">
        <ele>528</ele>
        <time>2012-07-07T10:19:34Z</time>
      </trkpt>
      <trkpt lat="45.28045" lon="6.35654">
        <ele>528</ele>
        <time>2012-07-07T10:19:39Z</time>
      </trkpt>
      <trkpt lat="45.28019" lon="6.3565">
        <ele>528</ele>
        <time>2012-07-07T10:19:44Z</time>
      </trkpt>
      <trkpt lat="45.27976" lon="6.35663">
        <ele>530</ele>
        <time>2012-07-07T10:19:49Z</time>
      </trkpt>
      <trkpt lat="45.27946" lon="6.35682">
        <ele>530</ele>
        <time>2012-07-07T10:19:54Z</time>
      </trkpt>
      <trkpt lat="45.27912" lon="6.35712">
        <ele>534</ele>
        <time>2012-07-07T10:19:59Z</time>
      </trkpt>
      <trkpt lat="45.27883" lon="6.35742">
        <ele>535</ele>
        <time>2012-07-07T10:20:04Z</time>
      </trkpt>
      <trkpt lat="45.27854" lon="6.35771">
        <ele>537</ele>
        <time>2012-07-07T10:20:09Z</time>
      </trkpt>
      <trkpt lat="45.27825" lon="6.35799">
        <ele>539</ele>
        <time>2012-07-07T10:20:14Z</time>
      </trkpt>
      <trkpt lat="45.27797" lon="6.35827">
        <ele>539</ele>
        <time>2012-07-07T10:20:19Z</time>
      </trkpt>
      <trkpt lat="45.27769" lon="6.35856">
        <ele>538</ele>
        <time>2012-07-07T10:20:24Z</time>
      </trkpt>
      <trkpt lat="45.27741" lon="6.35884">
        <ele>539</ele>
        <time>2012-07-07T10:20:29Z</time>
      </trkpt>
      <trkpt lat="45.27706" lon="6.35914">
        <ele>538</ele>
        <time>2012-07-07T10:20:34Z</time>
      </trkpt>
      <trkpt lat="45.27679" lon="6.35928">
        <ele>536</ele>
        <time>2012-07-07T10:20:39Z</time>
      </trkpt>
      <trkpt lat="45.27637" lon="6.35934">
        <ele>535</ele>
        <time>2012-07-07T10:20:44Z</time>
      </trkpt>
      <trkpt lat="45.27609" lon="6.35938">
        <ele>535</ele>
        <time>2012-07-07T10:20:49Z</time>
      </trkpt>
      <trkpt lat="45.27574" lon="6.35947">
        <ele>536</ele>
        <time>2012-07-07T10:20:54Z</time>
      </trkpt>
      <trkpt lat="45.27545" lon="6.35972">
        <ele>536</ele>
        <time>2012-07-07T10:20:59Z</time>
      </trkpt>
      <trkpt lat="45.27524" lon="6.36012">
        <ele>537</ele>
        <time>2012-07-07T10:21:04Z</time>
      </trkpt>
      <trkpt lat="45.27505" lon="6.36052">
        <ele>537</ele>
        <time>2012-07-07T10:21:09Z</time>
      </trkpt>
      <trkpt lat="45.27486" lon="6.36092">
        <ele>537</ele>
        <time>2012-07-07T10:21:14Z</time>
      </trkpt>
      <trkpt lat="45.27467" lon="6.36132">
        <ele>537</ele>
        <time>2012-07-07T10:21:19Z</time>
      </trkpt>
      <trkpt lat="45.27449" lon="6.36172">
        <ele>537</ele>
        <time>2012-07-07T10:21:24Z</time>
      </trkpt>
      <trkpt lat="45.27429" lon="6.36212">
        <ele>538</ele>
        <time>2012-07-07T10:21:29Z</time>
      </trkpt>
      <trkpt lat="45.2741" lon="6.36252">
        <ele>539</ele>
        <time>2012-07-07T10:21:34Z</time>
      </trkpt>
      <trkpt lat="45.27387" lon="6.36299">
        <ele>538</ele>
        <time>2012-07-07T10:21:39Z</time>
      </trkpt>
      <trkpt lat="45.27372" lon="6.3633">
        <ele>538</ele>
        <time>2012-07-07T10:21:44Z</time>
      </trkpt>
      <trkpt lat="45.2735" lon="6.36377">
        <ele>538</ele>
        <time>2012-07-07T10:21:49Z</time>
      </trkpt>
      <trkpt lat="45.27335" lon="6.36407">
        <ele>539</ele>
        <time>2012-07-07T10:21:54Z</time>
      </trkpt>
      <trkpt lat="45.27314" lon="6.36451">
        <ele>539</ele>
        <time>2012-07-07T10:21:59Z</time>
      </trkpt>
      <trkpt lat="45.273" lon="6.36481">
        <ele>539</ele>
        <time>2012-07-07T10:22:04Z</time>
      </trkpt>
      <trkpt lat="45.27282" lon="6.36518">
        <ele>539</ele>
        <time>2012-07-07T10:22:09Z</time>
      </trkpt>
      <trkpt lat="45.27264" lon="6.36555">
        <ele>539</ele>
        <time>2012-07-07T10:22:14Z</time>
      </trkpt>
      <trkpt lat="45.27247" lon="6.36592">
        <ele>539</ele>
        <time>2012-07-07T10:22:19Z</time>
      </trkpt>
      <trkpt lat="45.27226" lon="6.36637">
        <ele>538</ele>
        <time>2012-07-07T10:22:24Z</time>
      </trkpt>
      <trkpt lat="45.27211" lon="6.36667">
        <ele>539</ele>
        <time>2012-07-07T10:22:29Z</time>
      </trkpt>
      <trkpt lat="45.2719" lon="6.36712">
        <ele>539</ele>
        <time>2012-07-07T10:22:34Z</time>
      </trkpt>
      <trkpt lat="45.27176" lon="6.36742">
        <ele>539</ele>
        <time>2012-07-07T10:22:39Z</time>
      </trkpt>
      <trkpt lat="45.27159" lon="6.3678">
        <ele>539</ele>
        <time>2012-07-07T10:22:44Z</time>
      </trkpt>
      <trkpt lat="45.2714" lon="6.36818">
        <ele>539</ele>
        <time>2012-07-07T10:22:49Z</time>
      </trkpt>
      <trkpt lat="45.27122" lon="6.36856">
        <ele>539</ele>
        <time>2012-07-07T10:22:54Z</time>
      </trkpt>
      <trkpt lat="45.27105" lon="6.36893">
        <ele>539</ele>
        <time>2012-07-07T10:22:59Z</time>
      </trkpt>
      <trkpt lat="45.27088" lon="6.36931">
        <ele>540</ele>
        <time>2012-07-07T10:23:04Z</time>
      </trkpt>
      <trkpt lat="45.27069" lon="6.36976">
        <ele>540</ele>
        <time>2012-07-07T10:23:09Z</time>
      </trkpt>
      <trkpt lat="45.27055" lon="6.37006">
        <ele>541</ele>
        <time>2012-07-07T10:23:14Z</time>
      </trkpt>
      <trkpt lat="45.27033" lon="6.37051">
        <ele>542</ele>
        <time>2012-07-07T10:23:19Z</time>
      </trkpt>
      <trkpt lat="45.27019" lon="6.37079">
        <ele>542</ele>
        <time>2012-07-07T10:23:24Z</time>
      </trkpt>
      <trkpt lat="45.26998" lon="6.37121">
        <ele>544</ele>
        <time>2012-07-07T10:23:29Z</time>
      </trkpt>
      <trkpt lat="45.26983" lon="6.3715">
        <ele>544</ele>
        <time>2012-07-07T10:23:34Z</time>
      </trkpt>
      <trkpt lat="45.26966" lon="6.37185">
        <ele>545</ele>
        <time>2012-07-07T10:23:39Z</time>
      </trkpt>
      <trkpt lat="45.26949" lon="6.37221">
        <ele>545</ele>
        <time>2012-07-07T10:23:44Z</time>
      </trkpt>
      <trkpt lat="45.26931" lon="6.37256">
        <ele>545</ele>
        <time>2012-07-07T10:23:49Z</time>
      </trkpt>
      <trkpt lat="45.26914" lon="6.37291">
        <ele>544</ele>
        <time>2012-07-07T10:23:54Z</time>
      </trkpt>
      <trkpt lat="45.26897" lon="6.37326">
        <ele>544</ele>
        <time>2012-07-07T10:23:59Z</time>
      </trkpt>
      <trkpt lat="45.2688" lon="6.37362">
        <ele>545</ele>
        <time>2012-07-07T10:24:04Z</time>
      </trkpt>
      <trkpt lat="45.26863" lon="6.37397">
        <ele>545</ele>
        <time>2012-07-07T10:24:09Z</time>
      </trkpt>
      <trkpt lat="45.26842" lon="6.37441">
        <ele>547</ele>
        <time>2012-07-07T10:24:14Z</time>
      </trkpt>
      <trkpt lat="45.26828" lon="6.3747">
        <ele>548</ele>
        <time>2012-07-07T10:24:19Z</time>
      </trkpt>
      <trkpt lat="45.26807" lon="6.37513">
        <ele>549</ele>
        <time>2012-07-07T10:24:24Z</time>
      </trkpt>
      <trkpt lat="45.26794" lon="6.37541">
        <ele>549</ele>
        <time>2012-07-07T10:24:29Z</time>
      </trkpt>
      <trkpt lat="45.26778" lon="6.37577">
        <ele>549</ele>
        <time>2012-07-07T10:24:34Z</time>
      </trkpt>
      <trkpt lat="45.26762" lon="6.37613">
        <ele>550</ele>
        <time>2012-07-07T10:24:39Z</time>
      </trkpt>
      <trkpt lat="45.26751" lon="6.37653">
        <ele>550</ele>
        <time>2012-07-07T10:24:44Z</time>
      </trkpt>
      <trkpt lat="45.26745" lon="6.37697">
        <ele>551</ele>
        <time>2012-07-07T10:24:49Z</time>
      </trkpt>
      <trkpt lat="45.26742" lon="6.3774">
        <ele>552</ele>
        <time>2012-07-07T10:24:54Z</time>
      </trkpt>
      <trkpt lat="45.26738" lon="6.3778">
        <ele>552</ele>
        <time>2012-07-07T10:24:59Z</time>
      </trkpt>
      <trkpt lat="45.26733" lon="6.3782">
        <ele>552</ele>
        <time>2012-07-07T10:25:04Z</time>
      </trkpt>
      <trkpt lat="45.26724" lon="6.37864">
        <ele>551</ele>
        <time>2012-07-07T10:25:09Z</time>
      </trkpt>
      <trkpt lat="45.26719" lon="6.37889">
        <ele>551</ele>
        <time>2012-07-07T10:25:14Z</time>
      </trkpt>
      <trkpt lat="45.2671" lon="6.37921">
        <ele>551</ele>
        <time>2012-07-07T10:25:19Z</time>
      </trkpt>
      <trkpt lat="45.26705" lon="6.37942">
        <ele>552</ele>
        <time>2012-07-07T10:25:24Z</time>
      </trkpt>
      <trkpt lat="45.26698" lon="6.37968">
        <ele>552</ele>
        <time>2012-07-07T10:25:29Z</time>
      </trkpt>
      <trkpt lat="45.26692" lon="6.37995">
        <ele>553</ele>
        <time>2012-07-07T10:25:34Z</time>
      </trkpt>
      <trkpt lat="45.26685" lon="6.38022">
        <ele>555</ele>
        <time>2012-07-07T10:25:39Z</time>
      </trkpt>
      <trkpt lat="45.26678" lon="6.38048">
        <ele>556</ele>
        <time>2012-07-07T10:25:44Z</time>
      </trkpt>
      <trkpt lat="45.26672" lon="6.38075">
        <ele>559</ele>
        <time>2012-07-07T10:25:49Z</time>
      </trkpt>
      <trkpt lat="45.2666" lon="6.38105">
        <ele>559</ele>
        <time>2012-07-07T10:25:54Z</time>
      </trkpt>
      <trkpt lat="45.26651" lon="6.38124">
        <ele>559</ele>
        <time>2012-07-07T10:25:59Z</time>
      </trkpt>
      <trkpt lat="45.26641" lon="6.38157">
        <ele>558</ele>
        <time>2012-07-07T10:26:04Z</time>
      </trkpt>
      <trkpt lat="45.26638" lon="6.38181">
        <ele>558</ele>
        <time>2012-07-07T10:26:09Z</time>
      </trkpt>
      <trkpt lat="45.26635" lon="6.38224">
        <ele>558</ele>
        <time>2012-07-07T10:26:14Z</time>
      </trkpt>
      <trkpt lat="45.26635" lon="6.38254">
        <ele>559</ele>
        <time>2012-07-07T10:26:19Z</time>
      </trkpt>
      <trkpt lat="45.26635" lon="6.38292">
        <ele>560</ele>
        <time>2012-07-07T10:26:24Z</time>
      </trkpt>
      <trkpt lat="45.26634" lon="6.38331">
        <ele>561</ele>
        <time>2012-07-07T10:26:29Z</time>
      </trkpt>
      <trkpt lat="45.26627" lon="6.38369">
        <ele>566</ele>
        <time>2012-07-07T10:26:34Z</time>
      </trkpt>
      <trkpt lat="45.26614" lon="6.38402">
        <ele>567</ele>
        <time>2012-07-07T10:26:39Z</time>
      </trkpt>
      <trkpt lat="45.26597" lon="6.38429">
        <ele>572</ele>
        <time>2012-07-07T10:26:44Z</time>
      </trkpt>
      <trkpt lat="45.26572" lon="6.38452">
        <ele>567</ele>
        <time>2012-07-07T10:26:49Z</time>
      </trkpt>
      <trkpt lat="45.26553" lon="6.38464">
        <ele>567</ele>
        <time>2012-07-07T10:26:54Z</time>
      </trkpt>
      <trkpt lat="45.26524" lon="6.38481">
        <ele>566</ele>
        <time>2012-07-07T10:26:59Z</time>
      </trkpt>
      <trkpt lat="45.26504" lon="6.38491">
        <ele>566</ele>
        <time>2012-07-07T10:27:04Z</time>
      </trkpt>
      <trkpt lat="45.26481" lon="6.38505">
        <ele>569</ele>
        <time>2012-07-07T10:27:09Z</time>
      </trkpt>
      <trkpt lat="45.26457" lon="6.38519">
        <ele>570</ele>
        <time>2012-07-07T10:27:14Z</time>
      </trkpt>
      <trkpt lat="45.26435" lon="6.38532">
        <ele>570</ele>
        <time>2012-07-07T10:27:19Z</time>
      </trkpt>
      <trkpt lat="45.26412" lon="6.38545">
        <ele>569</ele>
        <time>2012-07-07T10:27:24Z</time>
      </trkpt>
      <trkpt lat="45.26391" lon="6.38557">
        <ele>569</ele>
        <time>2012-07-07T10:27:29Z</time>
      </trkpt>
      <trkpt lat="45.2637" lon="6.3857">
        <ele>569</ele>
        <time>2012-07-07T10:27:34Z</time>
      </trkpt>
      <trkpt lat="45.26348" lon="6.38582">
        <ele>569</ele>
        <time>2012-07-07T10:27:39Z</time>
      </trkpt>
      <trkpt lat="45.26322" lon="6.38596">
        <ele>574</ele>
        <time>2012-07-07T10:27:44Z</time>
      </trkpt>
      <trkpt lat="45.26305" lon="6.38604">
        <ele>576</ele>
        <time>2012-07-07T10:27:49Z</time>
      </trkpt>
      <trkpt lat="45.26279" lon="6.38614">
        <ele>577</ele>
        <time>2012-07-07T10:27:54Z</time>
      </trkpt>
      <trkpt lat="45.26262" lon="6.3862">
        <ele>577</ele>
        <time>2012-07-07T10:27:59Z</time>
      </trkpt>
      <trkpt lat="45.2624" lon="6.38626">
        <ele>576</ele>
        <time>2012-07-07T10:28:04Z</time>
      </trkpt>
      <trkpt lat="45.26218" lon="6.38632">
        <ele>576</ele>
        <time>2012-07-07T10:28:09Z</time>
      </trkpt>
      <trkpt lat="45.26196" lon="6.38636">
        <ele>576</ele>
        <time>2012-07-07T10:28:14Z</time>
      </trkpt>
      <trkpt lat="45.26174" lon="6.38639">
        <ele>576</ele>
        <time>2012-07-07T10:28:19Z</time>
      </trkpt>
      <trkpt lat="45.26151" lon="6.38641">
        <ele>576</ele>
        <time>2012-07-07T10:28:24Z</time>
      </trkpt>
      <trkpt lat="45.26122" lon="6.38642">
        <ele>576</ele>
        <time>2012-07-07T10:28:29Z</time>
      </trkpt>
      <trkpt lat="45.26104" lon="6.38643">
        <ele>577</ele>
        <time>2012-07-07T10:28:34Z</time>
      </trkpt>
      <trkpt lat="45.26076" lon="6.38645">
        <ele>579</ele>
        <time>2012-07-07T10:28:39Z</time>
      </trkpt>
      <trkpt lat="45.26057" lon="6.38647">
        <ele>579</ele>
        <time>2012-07-07T10:28:44Z</time>
      </trkpt>
      <trkpt lat="45.26029" lon="6.3865">
        <ele>580</ele>
        <time>2012-07-07T10:28:49Z</time>
      </trkpt>
      <trkpt lat="45.26011" lon="6.38654">
        <ele>582</ele>
        <time>2012-07-07T10:28:54Z</time>
      </trkpt>
      <trkpt lat="45.25988" lon="6.38659">
        <ele>582</ele>
        <time>2012-07-07T10:28:59Z</time>
      </trkpt>
      <trkpt lat="45.25964" lon="6.38668">
        <ele>586</ele>
        <time>2012-07-07T10:29:04Z</time>
      </trkpt>
      <trkpt lat="45.25942" lon="6.38678">
        <ele>585</ele>
        <time>2012-07-07T10:29:09Z</time>
      </trkpt>
      <trkpt lat="45.2592" lon="6.3869">
        <ele>585</ele>
        <time>2012-07-07T10:29:14Z</time>
      </trkpt>
      <trkpt lat="45.25898" lon="6.38703">
        <ele>583</ele>
        <time>2012-07-07T10:29:19Z</time>
      </trkpt>
      <trkpt lat="45.25878" lon="6.38718">
        <ele>583</ele>
        <time>2012-07-07T10:29:24Z</time>
      </trkpt>
      <trkpt lat="45.25859" lon="6.38734">
        <ele>584</ele>
        <time>2012-07-07T10:29:29Z</time>
      </trkpt>
      <trkpt lat="45.25833" lon="6.38757">
        <ele>586</ele>
        <time>2012-07-07T10:29:34Z</time>
      </trkpt>
      <trkpt lat="45.25818" lon="6.38772">
        <ele>586</ele>
        <time>2012-07-07T10:29:39Z</time>
      </trkpt>
      <trkpt lat="45.25799" lon="6.38791">
        <ele>587</ele>
        <time>2012-07-07T10:29:44Z</time>
      </trkpt>
      <trkpt lat="45.25781" lon="6.3881">
        <ele>587</ele>
        <time>2012-07-07T10:29:49Z</time>
      </trkpt>
      <trkpt lat="45.25763" lon="6.38829">
        <ele>587</ele>
        <time>2012-07-07T10:29:54Z</time>
      </trkpt>
      <trkpt lat="45.25745" lon="6.38848">
        <ele>588</ele>
        <time>2012-07-07T10:29:59Z</time>
      </trkpt>
      <trkpt lat="45.25727" lon="6.38866">
        <ele>589</ele>
        <time>2012-07-07T10:30:04Z</time>
      </trkpt>
      <trkpt lat="45.25709" lon="6.38884">
        <ele>589</ele>
        <time>2012-07-07T10:30:09Z</time>
      </trkpt>
      <trkpt lat="45.25691" lon="6.38903">
        <ele>589</ele>
        <time>2012-07-07T10:30:14Z</time>
      </trkpt>
      <trkpt lat="45.25673" lon="6.38921">
        <ele>591</ele>
        <time>2012-07-07T10:30:19Z</time>
      </trkpt>
      <trkpt lat="45.25655" lon="6.3894">
        <ele>590</ele>
        <time>2012-07-07T10:30:24Z</time>
      </trkpt>
      <trkpt lat="45.25634" lon="6.38961">
        <ele>591</ele>
        <time>2012-07-07T10:30:29Z</time>
      </trkpt>
      <trkpt lat="45.25619" lon="6.38976">
        <ele>592</ele>
        <time>2012-07-07T10:30:34Z</time>
      </trkpt>
      <trkpt lat="45.25598" lon="6.38999">
        <ele>593</ele>
        <time>2012-07-07T10:30:39Z</time>
      </trkpt>
      <trkpt lat="45.25583" lon="6.39013">
        <ele>595</ele>
        <time>2012-07-07T10:30:44Z</time>
      </trkpt>
      <trkpt lat="45.25566" lon="6.39033">
        <ele>595</ele>
        <time>2012-07-07T10:30:49Z</time>
      </trkpt>
      <trkpt lat="45.25549" lon="6.39052">
        <ele>596</ele>
        <time>2012-07-07T10:30:54Z</time>
      </trkpt>
      <trkpt lat="45.25533" lon="6.39074">
        <ele>596</ele>
        <time>2012-07-07T10:30:59Z</time>
      </trkpt>
      <trkpt lat="45.25518" lon="6.39097">
        <ele>601</ele>
        <time>2012-07-07T10:31:04Z</time>
      </trkpt>
      <trkpt lat="45.25505" lon="6.39122">
        <ele>602</ele>
        <time>2012-07-07T10:31:09Z</time>
      </trkpt>
      <trkpt lat="45.25493" lon="6.39149">
        <ele>598</ele>
        <time>2012-07-07T10:31:14Z</time>
      </trkpt>
      <trkpt lat="45.25483" lon="6.39175">
        <ele>602</ele>
        <time>2012-07-07T10:31:19Z</time>
      </trkpt>
      <trkpt lat="45.25472" lon="6.39209">
        <ele>602</ele>
        <time>2012-07-07T10:31:24Z</time>
      </trkpt>
      <trkpt lat="45.25467" lon="6.39232">
        <ele>602</ele>
        <time>2012-07-07T10:31:29Z</time>
      </trkpt>
      <trkpt lat="45.2546" lon="6.39262">
        <ele>607</ele>
        <time>2012-07-07T10:31:34Z</time>
      </trkpt>
      <trkpt lat="45.25454" lon="6.39292">
        <ele>607</ele>
        <time>2012-07-07T10:31:39Z</time>
      </trkpt>
      <trkpt lat="45.25447" lon="6.39323">
        <ele>608</ele>
        <time>2012-07-07T10:31:44Z</time>
      </trkpt>
      <trkpt lat="45.25441" lon="6.39354">
        <ele>614</ele>
        <time>2012-07-07T10:31:49Z</time>
      </trkpt>
      <trkpt lat="45.25433" lon="6.39384">
        <ele>615</ele>
        <time>2012-07-07T10:31:54Z</time>
      </trkpt>
      <trkpt lat="45.25424" lon="6.39413">
        <ele>615</ele>
        <time>2012-07-07T10:31:59Z</time>
      </trkpt>
      <trkpt lat="45.25409" lon="6.39434">
        <ele>614</ele>
        <time>2012-07-07T10:32:04Z</time>
      </trkpt>
      <trkpt lat="45.25405" lon="6.3947">
        <ele>615</ele>
        <time>2012-07-07T10:32:09Z</time>
      </trkpt>
      <trkpt lat="45.25404" lon="6.39495">
        <ele>618</ele>
        <time>2012-07-07T10:32:14Z</time>
      </trkpt>
      <trkpt lat="45.25396" lon="6.3953">
        <ele>620</ele>
        <time>2012-07-07T10:32:19Z</time>
      </trkpt>
      <trkpt lat="45.2539" lon="6.39553">
        <ele>620</ele>
        <time>2012-07-07T10:32:24Z</time>
      </trkpt>
      <trkpt lat="45.25383" lon="6.39582">
        <ele>620</ele>
        <time>2012-07-07T10:32:29Z</time>
      </trkpt>
      <trkpt lat="45.25375" lon="6.3961">
        <ele>624</ele>
        <time>2012-07-07T10:32:34Z</time>
      </trkpt>
      <trkpt lat="45.25367" lon="6.39639">
        <ele>624</ele>
        <time>2012-07-07T10:32:39Z</time>
      </trkpt>
      <trkpt lat="45.25359" lon="6.39668">
        <ele>627</ele>
        <time>2012-07-07T10:32:44Z</time>
      </trkpt>
      <trkpt lat="45.2535" lon="6.39696">
        <ele>628</ele>
        <time>2012-07-07T10:32:49Z</time>
      </trkpt>
      <trkpt lat="45.2534" lon="6.39731">
        <ele>629</ele>
        <time>2012-07-07T10:32:54Z</time>
      </trkpt>
      <trkpt lat="45.25334" lon="6.39754">
        <ele>630</ele>
        <time>2012-07-07T10:32:59Z</time>
      </trkpt>
      <trkpt lat="45.25325" lon="6.39782">
        <ele>627</ele>
        <time>2012-07-07T10:33:04Z</time>
      </trkpt>
      <trkpt lat="45.25316" lon="6.39811">
        <ele>628</ele>
        <time>2012-07-07T10:33:09Z</time>
      </trkpt>
      <trkpt lat="45.25305" lon="6.39849">
        <ele>630</ele>
        <time>2012-07-07T10:33:14Z</time>
      </trkpt>
      <trkpt lat="45.25298" lon="6.39873">
        <ele>630</ele>
        <time>2012-07-07T10:33:19Z</time>
      </trkpt>
      <trkpt lat="45.2529" lon="6.39903">
        <ele>630</ele>
        <time>2012-07-07T10:33:24Z</time>
      </trkpt>
      <trkpt lat="45.25283" lon="6.39934">
        <ele>632</ele>
        <time>2012-07-07T10:33:29Z</time>
      </trkpt>
      <trkpt lat="45.25277" lon="6.39965">
        <ele>633</ele>
        <time>2012-07-07T10:33:34Z</time>
      </trkpt>
      <trkpt lat="45.25271" lon="6.39997">
        <ele>633</ele>
        <time>2012-07-07T10:33:39Z</time>
      </trkpt>
      <trkpt lat="45.25266" lon="6.40029">
        <ele>635</ele>
        <time>2012-07-07T10:33:44Z</time>
      </trkpt>
      <trkpt lat="45.25261" lon="6.40062">
        <ele>636</ele>
        <time>2012-07-07T10:33:49Z</time>
      </trkpt>
      <trkpt lat="45.25258" lon="6.40096">
        <ele>636</ele>
        <time>2012-07-07T10:33:54Z</time>
      </trkpt>
      <trkpt lat="45.25254" lon="6.40139">
        <ele>637</ele>
        <time>2012-07-07T10:33:59Z</time>
      </trkpt>
      <trkpt lat="45.25253" lon="6.40168">
        <ele>634</ele>
        <time>2012-07-07T10:34:04Z</time>
      </trkpt>
      <trkpt lat="45.25252" lon="6.40207">
        <ele>637</ele>
        <time>2012-07-07T10:34:09Z</time>
      </trkpt>
      <trkpt lat="45.25251" lon="6.40246">
        <ele>635</ele>
        <time>2012-07-07T10:34:14Z</time>
      </trkpt>
      <trkpt lat="45.2525" lon="6.40288">
        <ele>636</ele>
        <time>2012-07-07T10:34:19Z</time>
      </trkpt>
      <trkpt lat="45.2525" lon="6.40331">
        <ele>633</ele>
        <time>2012-07-07T10:34:24Z</time>
      </trkpt>
      <trkpt lat="45.2525" lon="6.40374">
        <ele>629</ele>
        <time>2012-07-07T10:34:29Z</time>
      </trkpt>
      <trkpt lat="45.2525" lon="6.40415">
        <ele>633</ele>
        <time>2012-07-07T10:34:34Z</time>
      </trkpt>
      <trkpt lat="45.2525" lon="6.40456">
        <ele>637</ele>
        <time>2012-07-07T10:34:39Z</time>
      </trkpt>
      <trkpt lat="45.2525" lon="6.40498">
        <ele>634</ele>
        <time>2012-07-07T10:34:44Z</time>
      </trkpt>
      <trkpt lat="45.2525" lon="6.40541">
        <ele>631</ele>
        <time>2012-07-07T10:34:49Z</time>
      </trkpt>
      <trkpt lat="45.25249" lon="6.4059">
        <ele>634</ele>
        <time>2012-07-07T10:34:54Z</time>
      </trkpt>
      <trkpt lat="45.25249" lon="6.40622">
        <ele>631</ele>
        <time>2012-07-07T10:34:59Z</time>
      </trkpt>
      <trkpt lat="45.25249" lon="6.4066">
        <ele>634</ele>
        <time>2012-07-07T10:35:04Z</time>
      </trkpt>
      <trkpt lat="45.25249" lon="6.40696">
        <ele>632</ele>
        <time>2012-07-07T10:35:09Z</time>
      </trkpt>
      <trkpt lat="45.25249" lon="6.40731">
        <ele>634</ele>
        <time>2012-07-07T10:35:14Z</time>
      </trkpt>
      <trkpt lat="45.25248" lon="6.40765">
        <ele>637</ele>
        <time>2012-07-07T10:35:19Z</time>
      </trkpt>
      <trkpt lat="45.25245" lon="6.40796">
        <ele>638</ele>
        <time>2012-07-07T10:35:24Z</time>
      </trkpt>
      <trkpt lat="45.25242" lon="6.40827">
        <ele>641</ele>
        <time>2012-07-07T10:35:29Z</time>
      </trkpt>
      <trkpt lat="45.25238" lon="6.40858">
        <ele>644</ele>
        <time>2012-07-07T10:35:34Z</time>
      </trkpt>
      <trkpt lat="45.25234" lon="6.40888">
        <ele>645</ele>
        <time>2012-07-07T10:35:39Z</time>
      </trkpt>
      <trkpt lat="45.25229" lon="6.40918">
        <ele>648</ele>
        <time>2012-07-07T10:35:44Z</time>
      </trkpt>
      <trkpt lat="45.2522" lon="6.40953">
        <ele>649</ele>
        <time>2012-07-07T10:35:49Z</time>
      </trkpt>
      <trkpt lat="45.25215" lon="6.40976">
        <ele>650</ele>
        <time>2012-07-07T10:35:54Z</time>
      </trkpt>
      <trkpt lat="45.25206" lon="6.41005">
        <ele>654</ele>
        <time>2012-07-07T10:35:59Z</time>
      </trkpt>
      <trkpt lat="45.25197" lon="6.41033">
        <ele>654</ele>
        <time>2012-07-07T10:36:04Z</time>
      </trkpt>
      <trkpt lat="45.25188" lon="6.41061">
        <ele>655</ele>
        <time>2012-07-07T10:36:09Z</time>
      </trkpt>
      <trkpt lat="45.25178" lon="6.41087">
        <ele>657</ele>
        <time>2012-07-07T10:36:14Z</time>
      </trkpt>
      <trkpt lat="45.25167" lon="6.41113">
        <ele>658</ele>
        <time>2012-07-07T10:36:19Z</time>
      </trkpt>
      <trkpt lat="45.25153" lon="6.41143">
        <ele>657</ele>
        <time>2012-07-07T10:36:24Z</time>
      </trkpt>
      <trkpt lat="45.25144" lon="6.41163">
        <ele>658</ele>
        <time>2012-07-07T10:36:29Z</time>
      </trkpt>
      <trkpt lat="45.2513" lon="6.41192">
        <ele>661</ele>
        <time>2012-07-07T10:36:34Z</time>
      </trkpt>
      <trkpt lat="45.2512" lon="6.41212">
        <ele>662</ele>
        <time>2012-07-07T10:36:39Z</time>
      </trkpt>
      <trkpt lat="45.25105" lon="6.41244">
        <ele>662</ele>
        <time>2012-07-07T10:36:44Z</time>
      </trkpt>
      <trkpt lat="45.25095" lon="6.41265">
        <ele>665</ele>
        <time>2012-07-07T10:36:49Z</time>
      </trkpt>
      <trkpt lat="45.25083" lon="6.41291">
        <ele>663</ele>
        <time>2012-07-07T10:36:54Z</time>
      </trkpt>
      <trkpt lat="45.2507" lon="6.41316">
        <ele>664</ele>
        <time>2012-07-07T10:36:59Z</time>
      </trkpt>
      <trkpt lat="45.25058" lon="6.4134">
        <ele>667</ele>
        <time>2012-07-07T10:37:04Z</time>
      </trkpt>
      <trkpt lat="45.25046" lon="6.41365">
        <ele>667</ele>
        <time>2012-07-07T10:37:09Z</time>
      </trkpt>
      <trkpt lat="45.25034" lon="6.4139">
        <ele>668</ele>
        <time>2012-07-07T10:37:14Z</time>
      </trkpt>
      <trkpt lat="45.25023" lon="6.41416">
        <ele>667</ele>
        <time>2012-07-07T10:37:19Z</time>
      </trkpt>
      <trkpt lat="45.2501" lon="6.41441">
        <ele>671</ele>
        <time>2012-07-07T10:37:24Z</time>
      </trkpt>
      <trkpt lat="45.24995" lon="6.41473">
        <ele>668</ele>
        <time>2012-07-07T10:37:29Z</time>
      </trkpt>
      <trkpt lat="45.24985" lon="6.41494">
        <ele>669</ele>
        <time>2012-07-07T10:37:34Z</time>
      </trkpt>
      <trkpt lat="45.24969" lon="6.41526">
        <ele>671</ele>
        <time>2012-07-07T10:37:39Z</time>
      </trkpt>
      <trkpt lat="45.24958" lon="6.41548">
        <ele>671</ele>
        <time>2012-07-07T10:37:44Z</time>
      </trkpt>
      <trkpt lat="45.24945" lon="6.41576">
        <ele>671</ele>
        <time>2012-07-07T10:37:49Z</time>
      </trkpt>
      <trkpt lat="45.24932" lon="6.41604">
        <ele>672</ele>
        <time>2012-07-07T10:37:54Z</time>
      </trkpt>
      <trkpt lat="45.24918" lon="6.41634">
        <ele>673</ele>
        <time>2012-07-07T10:37:59Z</time>
      </trkpt>
      <trkpt lat="45.24904" lon="6.41664">
        <ele>668</ele>
        <time>2012-07-07T10:38:04Z</time>
      </trkpt>
      <trkpt lat="45.2489" lon="6.41696">
        <ele>671</ele>
        <time>2012-07-07T10:38:09Z</time>
      </trkpt>
      <trkpt lat="45.24872" lon="6.41734">
        <ele>672</ele>
        <time>2012-07-07T10:38:14Z</time>
      </trkpt>
      <trkpt lat="45.2486" lon="6.4176">
        <ele>675</ele>
        <time>2012-07-07T10:38:19Z</time>
      </trkpt>
      <trkpt lat="45.24844" lon="6.41802">
        <ele>676</ele>
        <time>2012-07-07T10:38:24Z</time>
      </trkpt>
      <trkpt lat="45.24833" lon="6.41831">
        <ele>674</ele>
        <time>2012-07-07T10:38:29Z</time>
      </trkpt>
      <trkpt lat="45.2482" lon="6.4187">
        <ele>674</ele>
        <time>2012-07-07T10:38:34Z</time>
      </trkpt>
      <trkpt lat="45.24807" lon="6.41911">
        <ele>675</ele>
        <time>2012-07-07T10:38:39Z</time>
      </trkpt>
      <trkpt lat="45.24795" lon="6.41955">
        <ele>677</ele>
        <time>2012-07-07T10:38:44Z</time>
      </trkpt>
      <trkpt lat="45.24782" lon="6.42">
        <ele>679</ele>
        <time>2012-07-07T10:38:49Z</time>
      </trkpt>
      <trkpt lat="45.24769" lon="6.42046">
        <ele>678</ele>
        <time>2012-07-07T10:38:54Z</time>
      </trkpt>
      <trkpt lat="45.24755" lon="6.42094">
        <ele>677</ele>
        <time>2012-07-07T10:38:59Z</time>
      </trkpt>
      <trkpt lat="45.2474" lon="6.42143">
        <ele>672</ele>
        <time>2012-07-07T10:39:04Z</time>
      </trkpt>
      <trkpt lat="45.24724" lon="6.42201">
        <ele>671</ele>
        <time>2012-07-07T10:39:09Z</time>
      </trkpt>
      <trkpt lat="45.24713" lon="6.42238">
        <ele>670</ele>
        <time>2012-07-07T10:39:14Z</time>
      </trkpt>
      <trkpt lat="45.24697" lon="6.42293">
        <ele>672</ele>
        <time>2012-07-07T10:39:19Z</time>
      </trkpt>
      <trkpt lat="45.24687" lon="6.42329">
        <ele>671</ele>
        <time>2012-07-07T10:39:24Z</time>
      </trkpt>
      <trkpt lat="45.24674" lon="6.42375">
        <ele>673</ele>
        <time>2012-07-07T10:39:29Z</time>
      </trkpt>
      <trkpt lat="45.2466" lon="6.42423">
        <ele>671</ele>
        <time>2012-07-07T10:39:34Z</time>
      </trkpt>
      <trkpt lat="45.24645" lon="6.42473">
        <ele>670</ele>
        <time>2012-07-07T10:39:39Z</time>
      </trkpt>
      <trkpt lat="45.2463" lon="6.42525">
        <ele>672</ele>
        <time>2012-07-07T10:39:44Z</time>
      </trkpt>
      <trkpt lat="45.24615" lon="6.42578">
        <ele>671</ele>
        <time>2012-07-07T10:39:49Z</time>
      </trkpt>
      <trkpt lat="45.24599" lon="6.42632">
        <ele>673</ele>
        <time>2012-07-07T10:39:54Z</time>
      </trkpt>
      <trkpt lat="45.24584" lon="6.42684">
        <ele>674</ele>
        <time>2012-07-07T10:39:59Z</time>
      </trkpt>
      <trkpt lat="45.24567" lon="6.42743">
        <ele>672</ele>
        <time>2012-07-07T10:40:04Z</time>
      </trkpt>
      <trkpt lat="45.24556" lon="6.42782">
        <ele>673</ele>
        <time>2012-07-07T10:40:09Z</time>
      </trkpt>
      <trkpt lat="45.24542" lon="6.42828">
        <ele>674</ele>
        <time>2012-07-07T10:40:14Z</time>
      </trkpt>
      <trkpt lat="45.24527" lon="6.42874">
        <ele>677</ele>
        <time>2012-07-07T10:40:19Z</time>
      </trkpt>
      <trkpt lat="45.24511" lon="6.42918">
        <ele>678</ele>
        <time>2012-07-07T10:40:24Z</time>
      </trkpt>
      <trkpt lat="45.24494" lon="6.4296">
        <ele>673</ele>
        <time>2012-07-07T10:40:29Z</time>
      </trkpt>
      <trkpt lat="45.24476" lon="6.43001">
        <ele>677</ele>
        <time>2012-07-07T10:40:34Z</time>
      </trkpt>
      <trkpt lat="45.24457" lon="6.43041">
        <ele>676</ele>
        <time>2012-07-07T10:40:39Z</time>
      </trkpt>
      <trkpt lat="45.24436" lon="6.43078">
        <ele>676</ele>
        <time>2012-07-07T10:40:44Z</time>
      </trkpt>
      <trkpt lat="45.2441" lon="6.43121">
        <ele>673</ele>
        <time>2012-07-07T10:40:49Z</time>
      </trkpt>
      <trkpt lat="45.2439" lon="6.43149">
        <ele>674</ele>
        <time>2012-07-07T10:40:54Z</time>
      </trkpt>
      <trkpt lat="45.24358" lon="6.4319">
        <ele>677</ele>
        <time>2012-07-07T10:40:59Z</time>
      </trkpt>
      <trkpt lat="45.24335" lon="6.43216">
        <ele>678</ele>
        <time>2012-07-07T10:41:04Z</time>
      </trkpt>
      <trkpt lat="45.24298" lon="6.43252">
        <ele>677</ele>
        <time>2012-07-07T10:41:09Z</time>
      </trkpt>
      <trkpt lat="45.24273" lon="6.43275">
        <ele>677</ele>
        <time>2012-07-07T10:41:14Z</time>
      </trkpt>
      <trkpt lat="45.24243" lon="6.43302">
        <ele>675</ele>
        <time>2012-07-07T10:41:19Z</time>
      </trkpt>
      <trkpt lat="45.24213" lon="6.4333">
        <ele>674</ele>
        <time>2012-07-07T10:41:24Z</time>
      </trkpt>
      <trkpt lat="45.24182" lon="6.43357">
        <ele>677</ele>
        <time>2012-07-07T10:41:29Z</time>
      </trkpt>
      <trkpt lat="45.24152" lon="6.43385">
        <ele>676</ele>
        <time>2012-07-07T10:41:34Z</time>
      </trkpt>
      <trkpt lat="45.24122" lon="6.43414">
        <ele>676</ele>
        <time>2012-07-07T10:41:39Z</time>
      </trkpt>
      <trkpt lat="45.24093" lon="6.43442">
        <ele>679</ele>
        <time>2012-07-07T10:41:44Z</time>
      </trkpt>
      <trkpt lat="45.24066" lon="6.43468">
        <ele>679</ele>
        <time>2012-07-07T10:41:49Z</time>
      </trkpt>
      <trkpt lat="45.24033" lon="6.43498">
        <ele>680</ele>
        <time>2012-07-07T10:41:54Z</time>
      </trkpt>
      <trkpt lat="45.24012" lon="6.43518">
        <ele>683</ele>
        <time>2012-07-07T10:41:59Z</time>
      </trkpt>
      <trkpt lat="45.23981" lon="6.43549">
        <ele>684</ele>
        <time>2012-07-07T10:42:04Z</time>
      </trkpt>
      <trkpt lat="45.23957" lon="6.43569">
        <ele>684</ele>
        <time>2012-07-07T10:42:09Z</time>
      </trkpt>
      <trkpt lat="45.2393" lon="6.43591">
        <ele>687</ele>
        <time>2012-07-07T10:42:14Z</time>
      </trkpt>
      <trkpt lat="45.23903" lon="6.43607">
        <ele>686</ele>
        <time>2012-07-07T10:42:19Z</time>
      </trkpt>
      <trkpt lat="45.23875" lon="6.43619">
        <ele>686</ele>
        <time>2012-07-07T10:42:24Z</time>
      </trkpt>
      <trkpt lat="45.23849" lon="6.43632">
        <ele>686</ele>
        <time>2012-07-07T10:42:29Z</time>
      </trkpt>
      <trkpt lat="45.23821" lon="6.43641">
        <ele>683</ele>
        <time>2012-07-07T10:42:34Z</time>
      </trkpt>
      <trkpt lat="45.23789" lon="6.43656">
        <ele>682</ele>
        <time>2012-07-07T10:42:39Z</time>
      </trkpt>
      <trkpt lat="45.23767" lon="6.4367">
        <ele>685</ele>
        <time>2012-07-07T10:42:44Z</time>
      </trkpt>
      <trkpt lat="45.23738" lon="6.43698">
        <ele>684</ele>
        <time>2012-07-07T10:42:49Z</time>
      </trkpt>
      <trkpt lat="45.23719" lon="6.43722">
        <ele>685</ele>
        <time>2012-07-07T10:42:54Z</time>
      </trkpt>
      <trkpt lat="45.23693" lon="6.43768">
        <ele>688</ele>
        <time>2012-07-07T10:42:59Z</time>
      </trkpt>
      <trkpt lat="45.23679" lon="6.43804">
        <ele>688</ele>
        <time>2012-07-07T10:43:04Z</time>
      </trkpt>
      <trkpt lat="45.23666" lon="6.43856">
        <ele>685</ele>
        <time>2012-07-07T10:43:09Z</time>
      </trkpt>
      <trkpt lat="45.23654" lon="6.43912">
        <ele>685</ele>
        <time>2012-07-07T10:43:14Z</time>
      </trkpt>
      <trkpt lat="45.23648" lon="6.43963">
        <ele>684</ele>
        <time>2012-07-07T10:43:19Z</time>
      </trkpt>
      <trkpt lat="45.23643" lon="6.4401">
        <ele>683</ele>
        <time>2012-07-07T10:43:24Z</time>
      </trkpt>
      <trkpt lat="45.23636" lon="6.44053">
        <ele>683</ele>
        <time>2012-07-07T10:43:29Z</time>
      </trkpt>
      <trkpt lat="45.23625" lon="6.44103">
        <ele>685</ele>
        <time>2012-07-07T10:43:34Z</time>
      </trkpt>
      <trkpt lat="45.23616" lon="6.44134">
        <ele>685</ele>
        <time>2012-07-07T10:43:39Z</time>
      </trkpt>
      <trkpt lat="45.236" lon="6.4418">
        <ele>687</ele>
        <time>2012-07-07T10:43:44Z</time>
      </trkpt>
      <trkpt lat="45.23586" lon="6.44209">
        <ele>689</ele>
        <time>2012-07-07T10:43:49Z</time>
      </trkpt>
      <trkpt lat="45.23566" lon="6.44244">
        <ele>688</ele>
        <time>2012-07-07T10:43:54Z</time>
      </trkpt>
      <trkpt lat="45.23542" lon="6.44277">
        <ele>688</ele>
        <time>2012-07-07T10:43:59Z</time>
      </trkpt>
      <trkpt lat="45.23511" lon="6.44311">
        <ele>688</ele>
        <time>2012-07-07T10:44:04Z</time>
      </trkpt>
      <trkpt lat="45.23489" lon="6.44333">
        <ele>691</ele>
        <time>2012-07-07T10:44:09Z</time>
      </trkpt>
      <trkpt lat="45.23461" lon="6.44358">
        <ele>689</ele>
        <time>2012-07-07T10:44:14Z</time>
      </trkpt>
      <trkpt lat="45.23427" lon="6.44388">
        <ele>689</ele>
        <time>2012-07-07T10:44:19Z</time>
      </trkpt>
      <trkpt lat="45.23403" lon="6.44409">
        <ele>689</ele>
        <time>2012-07-07T10:44:24Z</time>
      </trkpt>
      <trkpt lat="45.23368" lon="6.44439">
        <ele>692</ele>
        <time>2012-07-07T10:44:29Z</time>
      </trkpt>
      <trkpt lat="45.23346" lon="6.44461">
        <ele>692</ele>
        <time>2012-07-07T10:44:34Z</time>
      </trkpt>
      <trkpt lat="45.23318" lon="6.44488">
        <ele>690</ele>
        <time>2012-07-07T10:44:39Z</time>
      </trkpt>
      <trkpt lat="45.2329" lon="6.44517">
        <ele>691</ele>
        <time>2012-07-07T10:44:44Z</time>
      </trkpt>
      <trkpt lat="45.23263" lon="6.44546">
        <ele>691</ele>
        <time>2012-07-07T10:44:49Z</time>
      </trkpt>
      <trkpt lat="45.23236" lon="6.44576">
        <ele>687</ele>
        <time>2012-07-07T10:44:54Z</time>
      </trkpt>
      <trkpt lat="45.2321" lon="6.44607">
        <ele>688</ele>
        <time>2012-07-07T10:44:59Z</time>
      </trkpt>
      <trkpt lat="45.23185" lon="6.44641">
        <ele>687</ele>
        <time>2012-07-07T10:45:04Z</time>
      </trkpt>
      <trkpt lat="45.23162" lon="6.44678">
        <ele>687</ele>
        <time>2012-07-07T10:45:09Z</time>
      </trkpt>
      <trkpt lat="45.2314" lon="6.44715">
        <ele>688</ele>
        <time>2012-07-07T10:45:14Z</time>
      </trkpt>
      <trkpt lat="45.23124" lon="6.44752">
        <ele>691</ele>
        <time>2012-07-07T10:45:19Z</time>
      </trkpt>
      <trkpt lat="45.23093" lon="6.44797">
        <ele>691</ele>
        <time>2012-07-07T10:45:24Z</time>
      </trkpt>
      <trkpt lat="45.23071" lon="6.44823">
        <ele>689</ele>
        <time>2012-07-07T10:45:29Z</time>
      </trkpt>
      <trkpt lat="45.23039" lon="6.44864">
        <ele>689</ele>
        <time>2012-07-07T10:45:34Z</time>
      </trkpt>
      <trkpt lat="45.23016" lon="6.44886">
        <ele>689</ele>
        <time>2012-07-07T10:45:39Z</time>
      </trkpt>
      <trkpt lat="45.22986" lon="6.4491">
        <ele>688</ele>
        <time>2012-07-07T10:45:44Z</time>
      </trkpt>
      <trkpt lat="45.22956" lon="6.44931">
        <ele>689</ele>
        <time>2012-07-07T10:45:49Z</time>
      </trkpt>
      <trkpt lat="45.22925" lon="6.4495">
        <ele>689</ele>
        <time>2012-07-07T10:45:54Z</time>
      </trkpt>
      <trkpt lat="45.22894" lon="6.44968">
        <ele>688</ele>
        <time>2012-07-07T10:45:59Z</time>
      </trkpt>
      <trkpt lat="45.22861" lon="6.44982">
        <ele>688</ele>
        <time>2012-07-07T10:46:04Z</time>
      </trkpt>
      <trkpt lat="45.22821" lon="6.44998">
        <ele>687</ele>
        <time>2012-07-07T10:46:09Z</time>
      </trkpt>
      <trkpt lat="45.22794" lon="6.45006">
        <ele>691</ele>
        <time>2012-07-07T10:46:14Z</time>
      </trkpt>
      <trkpt lat="45.22752" lon="6.45016">
        <ele>690</ele>
        <time>2012-07-07T10:46:19Z</time>
      </trkpt>
      <trkpt lat="45.22724" lon="6.4502">
        <ele>691</ele>
        <time>2012-07-07T10:46:24Z</time>
      </trkpt>
      <trkpt lat="45.22683" lon="6.45026">
        <ele>690</ele>
        <time>2012-07-07T10:46:29Z</time>
      </trkpt>
      <trkpt lat="45.22656" lon="6.45028">
        <ele>690</ele>
        <time>2012-07-07T10:46:34Z</time>
      </trkpt>
      <trkpt lat="45.22623" lon="6.4503">
        <ele>690</ele>
        <time>2012-07-07T10:46:39Z</time>
      </trkpt>
      <trkpt lat="45.2259" lon="6.45033">
        <ele>690</ele>
        <time>2012-07-07T10:46:44Z</time>
      </trkpt>
      <trkpt lat="45.22558" lon="6.45036">
        <ele>693</ele>
        <time>2012-07-07T10:46:49Z</time>
      </trkpt>
      <trkpt lat="45.22525" lon="6.45038">
        <ele>694</ele>
        <time>2012-07-07T10:46:54Z</time>
      </trkpt>
      <trkpt lat="45.22492" lon="6.4504">
        <ele>695</ele>
        <time>2012-07-07T10:46:59Z</time>
      </trkpt>
      <trkpt lat="45.22461" lon="6.45044">
        <ele>694</ele>
        <time>2012-07-07T10:47:04Z</time>
      </trkpt>
      <trkpt lat="45.22433" lon="6.4505">
        <ele>694</ele>
        <time>2012-07-07T10:47:09Z</time>
      </trkpt>
      <trkpt lat="45.22404" lon="6.45058">
        <ele>692</ele>
        <time>2012-07-07T10:47:14Z</time>
      </trkpt>
      <trkpt lat="45.22386" lon="6.45065">
        <ele>691</ele>
        <time>2012-07-07T10:47:19Z</time>
      </trkpt>
      <trkpt lat="45.22363" lon="6.45075">
        <ele>690</ele>
        <time>2012-07-07T10:47:24Z</time>
      </trkpt>
      <trkpt lat="45.2234" lon="6.45087">
        <ele>693</ele>
        <time>2012-07-07T10:47:29Z</time>
      </trkpt>
      <trkpt lat="45.22316" lon="6.45103">
        <ele>695</ele>
        <time>2012-07-07T10:47:34Z</time>
      </trkpt>
      <trkpt lat="45.22294" lon="6.45125">
        <ele>698</ele>
        <time>2012-07-07T10:47:39Z</time>
      </trkpt>
      <trkpt lat="45.22276" lon="6.45153">
        <ele>699</ele>
        <time>2012-07-07T10:47:44Z</time>
      </trkpt>
      <trkpt lat="45.22265" lon="6.4519">
        <ele>708</ele>
        <time>2012-07-07T10:47:49Z</time>
      </trkpt>
      <trkpt lat="45.22249" lon="6.45235">
        <ele>703</ele>
        <time>2012-07-07T10:47:54Z</time>
      </trkpt>
      <trkpt lat="45.22224" lon="6.4529">
        <ele>701</ele>
        <time>2012-07-07T10:47:59Z</time>
      </trkpt>
      <trkpt lat="45.22203" lon="6.45326">
        <ele>700</ele>
        <time>2012-07-07T10:48:04Z</time>
      </trkpt>
      <trkpt lat="45.22171" lon="6.4538">
        <ele>707</ele>
        <time>2012-07-07T10:48:09Z</time>
      </trkpt>
      <trkpt lat="45.22149" lon="6.45414">
        <ele>696</ele>
        <time>2012-07-07T10:48:14Z</time>
      </trkpt>
      <trkpt lat="45.22121" lon="6.45467">
        <ele>709</ele>
        <time>2012-07-07T10:48:19Z</time>
      </trkpt>
      <trkpt lat="45.22104" lon="6.45505">
        <ele>719</ele>
        <time>2012-07-07T10:48:24Z</time>
      </trkpt>
      <trkpt lat="45.22091" lon="6.45561">
        <ele>722</ele>
        <time>2012-07-07T10:48:29Z</time>
      </trkpt>
      <trkpt lat="45.22083" lon="6.45599">
        <ele>706</ele>
        <time>2012-07-07T10:48:34Z</time>
      </trkpt>
      <trkpt lat="45.22077" lon="6.45647">
        <ele>701</ele>
        <time>2012-07-07T10:48:39Z</time>
      </trkpt>
      <trkpt lat="45.22072" lon="6.45695">
        <ele>697</ele>
        <time>2012-07-07T10:48:44Z</time>
      </trkpt>
      <trkpt lat="45.22067" lon="6.45741">
        <ele>696</ele>
        <time>2012-07-07T10:48:49Z</time>
      </trkpt>
      <trkpt lat="45.22062" lon="6.45796">
        <ele>697</ele>
        <time>2012-07-07T10:48:54Z</time>
      </trkpt>
      <trkpt lat="45.22058" lon="6.45832">
        <ele>697</ele>
        <time>2012-07-07T10:48:59Z</time>
      </trkpt>
      <trkpt lat="45.22055" lon="6.45876">
        <ele>699</ele>
        <time>2012-07-07T10:49:04Z</time>
      </trkpt>
      <trkpt lat="45.22051" lon="6.45919">
        <ele>699</ele>
        <time>2012-07-07T10:49:09Z</time>
      </trkpt>
      <trkpt lat="45.22048" lon="6.45962">
        <ele>699</ele>
        <time>2012-07-07T10:49:14Z</time>
      </trkpt>
      <trkpt lat="45.22044" lon="6.46005">
        <ele>699</ele>
        <time>2012-07-07T10:49:19Z</time>
      </trkpt>
      <trkpt lat="45.22043" lon="6.46048">
        <ele>699</ele>
        <time>2012-07-07T10:49:24Z</time>
      </trkpt>
      <trkpt lat="45.22035" lon="6.46088">
        <ele>699</ele>
        <time>2012-07-07T10:49:29Z</time>
      </trkpt>
      <trkpt lat="45.22028" lon="6.46132">
        <ele>700</ele>
        <time>2012-07-07T10:49:34Z</time>
      </trkpt>
      <trkpt lat="45.22019" lon="6.46186">
        <ele>701</ele>
        <time>2012-07-07T10:49:39Z</time>
      </trkpt>
      <trkpt lat="45.22007" lon="6.46225">
        <ele>702</ele>
        <time>2012-07-07T10:49:44Z</time>
      </trkpt>
      <trkpt lat="45.22002" lon="6.46276">
        <ele>704</ele>
        <time>2012-07-07T10:49:49Z</time>
      </trkpt>
      <trkpt lat="45.22001" lon="6.46308">
        <ele>705</ele>
        <time>2012-07-07T10:49:54Z</time>
      </trkpt>
      <trkpt lat="45.22002" lon="6.46352">
        <ele>707</ele>
        <time>2012-07-07T10:49:59Z</time>
      </trkpt>
      <trkpt lat="45.21997" lon="6.46381">
        <ele>705</ele>
        <time>2012-07-07T10:50:04Z</time>
      </trkpt>
      <trkpt lat="45.21984" lon="6.46418">
        <ele>705</ele>
        <time>2012-07-07T10:50:09Z</time>
      </trkpt>
      <trkpt lat="45.21979" lon="6.46437">
        <ele>704</ele>
        <time>2012-07-07T10:50:14Z</time>
      </trkpt>
      <trkpt lat="45.21977" lon="6.46446">
        <ele>704</ele>
        <time>2012-07-07T10:50:19Z</time>
      </trkpt>
      <trkpt lat="45.21977" lon="6.46444">
        <ele>704</ele>
        <time>2012-07-07T10:50:24Z</time>
      </trkpt>
      <trkpt lat="45.21983" lon="6.46441">
        <ele>705</ele>
        <time>2012-07-07T10:50:29Z</time>
      </trkpt>
      <trkpt lat="45.21974" lon="6.46443">
        <ele>704</ele>
        <time>2012-07-07T10:50:34Z</time>
      </trkpt>
      <trkpt lat="45.21974" lon="6.46443">
        <ele>704</ele>
        <time>2012-07-07T10:50:39Z</time>
      </trkpt>
      <trkpt lat="45.21971" lon="6.46444">
        <ele>704</ele>
        <time>2012-07-07T10:50:44Z</time>
      </trkpt>
      <trkpt lat="45.2197" lon="6.46443">
        <ele>704</ele>
        <time>2012-07-07T10:50:49Z</time>
      </trkpt>
      <trkpt lat="45.21966" lon="6.4645">
        <ele>704</ele>
        <time>2012-07-07T10:50:54Z</time>
      </trkpt>
      <trkpt lat="45.21964" lon="6.46458">
        <ele>704</ele>
        <time>2012-07-07T10:50:59Z</time>
      </trkpt>
      <trkpt lat="45.21964" lon="6.46473">
        <ele>704</ele>
        <time>2012-07-07T10:51:04Z</time>
      </trkpt>
      <trkpt lat="45.21971" lon="6.46487">
        <ele>705</ele>
        <time>2012-07-07T10:51:09Z</time>
      </trkpt>
      <trkpt lat="45.21977" lon="6.46512">
        <ele>705</ele>
        <time>2012-07-07T10:51:14Z</time>
      </trkpt>
      <trkpt lat="45.21977" lon="6.46539">
        <ele>705</ele>
        <time>2012-07-07T10:51:19Z</time>
      </trkpt>
      <trkpt lat="45.21975" lon="6.4657">
        <ele>705</ele>
        <time>2012-07-07T10:51:24Z</time>
      </trkpt>
      <trkpt lat="45.2197" lon="6.46612">
        <ele>705</ele>
        <time>2012-07-07T10:51:29Z</time>
      </trkpt>
      <trkpt lat="45.21967" lon="6.46641">
        <ele>705</ele>
        <time>2012-07-07T10:51:34Z</time>
      </trkpt>
      <trkpt lat="45.21961" lon="6.46686">
        <ele>705</ele>
        <time>2012-07-07T10:51:39Z</time>
      </trkpt>
      <trkpt lat="45.21958" lon="6.46715">
        <ele>705</ele>
        <time>2012-07-07T10:51:44Z</time>
      </trkpt>
      <trkpt lat="45.21956" lon="6.46753">
        <ele>706</ele>
        <time>2012-07-07T10:51:49Z</time>
      </trkpt>
      <trkpt lat="45.21953" lon="6.4679">
        <ele>706</ele>
        <time>2012-07-07T10:51:54Z</time>
      </trkpt>
      <trkpt lat="45.21951" lon="6.46826">
        <ele>707</ele>
        <time>2012-07-07T10:51:59Z</time>
      </trkpt>
      <trkpt lat="45.21947" lon="6.46864">
        <ele>709</ele>
        <time>2012-07-07T10:52:04Z</time>
      </trkpt>
      <trkpt lat="45.21937" lon="6.46902">
        <ele>710</ele>
        <time>2012-07-07T10:52:09Z</time>
      </trkpt>
      <trkpt lat="45.21919" lon="6.46934">
        <ele>712</ele>
        <time>2012-07-07T10:52:14Z</time>
      </trkpt>
      <trkpt lat="45.21901" lon="6.46962">
        <ele>709</ele>
        <time>2012-07-07T10:52:19Z</time>
      </trkpt>
      <trkpt lat="45.21878" lon="6.46998">
        <ele>709</ele>
        <time>2012-07-07T10:52:24Z</time>
      </trkpt>
      <trkpt lat="45.21862" lon="6.47022">
        <ele>711</ele>
        <time>2012-07-07T10:52:29Z</time>
      </trkpt>
      <trkpt lat="45.21839" lon="6.47057">
        <ele>711</ele>
        <time>2012-07-07T10:52:34Z</time>
      </trkpt>
      <trkpt lat="45.21823" lon="6.4708">
        <ele>711</ele>
        <time>2012-07-07T10:52:39Z</time>
      </trkpt>
      <trkpt lat="45.21802" lon="6.47106">
        <ele>711</ele>
        <time>2012-07-07T10:52:44Z</time>
      </trkpt>
      <trkpt lat="45.2178" lon="6.4713">
        <ele>711</ele>
        <time>2012-07-07T10:52:49Z</time>
      </trkpt>
      <trkpt lat="45.21755" lon="6.47162">
        <ele>711</ele>
        <time>2012-07-07T10:52:54Z</time>
      </trkpt>
      <trkpt lat="45.21742" lon="6.47188">
        <ele>712</ele>
        <time>2012-07-07T10:52:59Z</time>
      </trkpt>
      <trkpt lat="45.21725" lon="6.47218">
        <ele>712</ele>
        <time>2012-07-07T10:53:04Z</time>
      </trkpt>
      <trkpt lat="45.21705" lon="6.47254">
        <ele>713</ele>
        <time>2012-07-07T10:53:09Z</time>
      </trkpt>
      <trkpt lat="45.21694" lon="6.47282">
        <ele>713</ele>
        <time>2012-07-07T10:53:14Z</time>
      </trkpt>
      <trkpt lat="45.21674" lon="6.47317">
        <ele>714</ele>
        <time>2012-07-07T10:53:19Z</time>
      </trkpt>
      <trkpt lat="45.21659" lon="6.47338">
        <ele>714</ele>
        <time>2012-07-07T10:53:24Z</time>
      </trkpt>
      <trkpt lat="45.21643" lon="6.47371">
        <ele>714</ele>
        <time>2012-07-07T10:53:29Z</time>
      </trkpt>
      <trkpt lat="45.21629" lon="6.47393">
        <ele>714</ele>
        <time>2012-07-07T10:53:34Z</time>
      </trkpt>
      <trkpt lat="45.21613" lon="6.47423">
        <ele>716</ele>
        <time>2012-07-07T10:53:39Z</time>
      </trkpt>
      <trkpt lat="45.21599" lon="6.47453">
        <ele>717</ele>
        <time>2012-07-07T10:53:44Z</time>
      </trkpt>
      <trkpt lat="45.21582" lon="6.47481">
        <ele>717</ele>
        <time>2012-07-07T10:53:49Z</time>
      </trkpt>
      <trkpt lat="45.21551" lon="6.47473">
        <ele>716</ele>
        <time>2012-07-07T10:53:54Z</time>
      </trkpt>
      <trkpt lat="45.21536" lon="6.47459">
        <ele>715</ele>
        <time>2012-07-07T10:53:59Z</time>
      </trkpt>
      <trkpt lat="45.2152" lon="6.47436">
        <ele>715</ele>
        <time>2012-07-07T10:54:04Z</time>
      </trkpt>
      <trkpt lat="45.21508" lon="6.47417">
        <ele>714</ele>
        <time>2012-07-07T10:54:09Z</time>
      </trkpt>
      <trkpt lat="45.21488" lon="6.47385">
        <ele>717</ele>
        <time>2012-07-07T10:54:14Z</time>
      </trkpt>
      <trkpt lat="45.21474" lon="6.47362">
        <ele>718</ele>
        <time>2012-07-07T10:54:19Z</time>
      </trkpt>
      <trkpt lat="45.21452" lon="6.47329">
        <ele>722</ele>
        <time>2012-07-07T10:54:24Z</time>
      </trkpt>
      <trkpt lat="45.2144" lon="6.47329">
        <ele>723</ele>
        <time>2012-07-07T10:54:29Z</time>
      </trkpt>
      <trkpt lat="45.21427" lon="6.47327">
        <ele>724</ele>
        <time>2012-07-07T10:54:34Z</time>
      </trkpt>
      <trkpt lat="45.21413" lon="6.47283">
        <ele>731</ele>
        <time>2012-07-07T10:54:39Z</time>
      </trkpt>
      <trkpt lat="45.21401" lon="6.47271">
        <ele>732</ele>
        <time>2012-07-07T10:54:44Z</time>
      </trkpt>
      <trkpt lat="45.21391" lon="6.47259">
        <ele>732</ele>
        <time>2012-07-07T10:54:49Z</time>
      </trkpt>
      <trkpt lat="45.21382" lon="6.47245">
        <ele>732</ele>
        <time>2012-07-07T10:54:54Z</time>
      </trkpt>
      <trkpt lat="45.21374" lon="6.47226">
        <ele>733</ele>
        <time>2012-07-07T10:54:59Z</time>
      </trkpt>
      <trkpt lat="45.21369" lon="6.47213">
        <ele>733</ele>
        <time>2012-07-07T10:55:04Z</time>
      </trkpt>
      <trkpt lat="45.21364" lon="6.47192">
        <ele>733</ele>
        <time>2012-07-07T10:55:09Z</time>
      </trkpt>
      <trkpt lat="45.21359" lon="6.47176">
        <ele>733</ele>
        <time>2012-07-07T10:55:14Z</time>
      </trkpt>
      <trkpt lat="45.21351" lon="6.47151">
        <ele>733</ele>
        <time>2012-07-07T10:55:19Z</time>
      </trkpt>
      <trkpt lat="45.21346" lon="6.47131">
        <ele>733</ele>
        <time>2012-07-07T10:55:24Z</time>
      </trkpt>
      <trkpt lat="45.21338" lon="6.47107">
        <ele>733</ele>
        <time>2012-07-07T10:55:29Z</time>
      </trkpt>
      <trkpt lat="45.21331" lon="6.47082">
        <ele>736</ele>
        <time>2012-07-07T10:55:34Z</time>
      </trkpt>
      <trkpt lat="45.2133" lon="6.47057">
        <ele>741</ele>
        <time>2012-07-07T10:55:39Z</time>
      </trkpt>
      <trkpt lat="45.21342" lon="6.4704">
        <ele>740</ele>
        <time>2012-07-07T10:55:44Z</time>
      </trkpt>
      <trkpt lat="45.21359" lon="6.47041">
        <ele>739</ele>
        <time>2012-07-07T10:55:49Z</time>
      </trkpt>
      <trkpt lat="45.21378" lon="6.47045">
        <ele>739</ele>
        <time>2012-07-07T10:55:54Z</time>
      </trkpt>
      <trkpt lat="45.21391" lon="6.47047">
        <ele>738</ele>
        <time>2012-07-07T10:55:59Z</time>
      </trkpt>
      <trkpt lat="45.21409" lon="6.47038">
        <ele>739</ele>
        <time>2012-07-07T10:56:04Z</time>
      </trkpt>
      <trkpt lat="45.21418" lon="6.47026">
        <ele>738</ele>
        <time>2012-07-07T10:56:09Z</time>
      </trkpt>
      <trkpt lat="45.2143" lon="6.47003">
        <ele>740</ele>
        <time>2012-07-07T10:56:14Z</time>
      </trkpt>
      <trkpt lat="45.21435" lon="6.46987">
        <ele>742</ele>
        <time>2012-07-07T10:56:19Z</time>
      </trkpt>
      <trkpt lat="45.21437" lon="6.46965">
        <ele>742</ele>
        <time>2012-07-07T10:56:24Z</time>
      </trkpt>
      <trkpt lat="45.21439" lon="6.46943">
        <ele>742</ele>
        <time>2012-07-07T10:56:29Z</time>
      </trkpt>
      <trkpt lat="45.21439" lon="6.46921">
        <ele>743</ele>
        <time>2012-07-07T10:56:34Z</time>
      </trkpt>
      <trkpt lat="45.21435" lon="6.469">
        <ele>744</ele>
        <time>2012-07-07T10:56:39Z</time>
      </trkpt>
      <trkpt lat="45.21428" lon="6.46881">
        <ele>744</ele>
        <time>2012-07-07T10:56:44Z</time>
      </trkpt>
      <trkpt lat="45.21416" lon="6.46861">
        <ele>750</ele>
        <time>2012-07-07T10:56:49Z</time>
      </trkpt>
      <trkpt lat="45.21407" lon="6.46849">
        <ele>749</ele>
        <time>2012-07-07T10:56:54Z</time>
      </trkpt>
      <trkpt lat="45.21394" lon="6.46833">
        <ele>751</ele>
        <time>2012-07-07T10:56:59Z</time>
      </trkpt>
      <trkpt lat="45.21387" lon="6.46822">
        <ele>752</ele>
        <time>2012-07-07T10:57:04Z</time>
      </trkpt>
      <trkpt lat="45.21377" lon="6.46809">
        <ele>753</ele>
        <time>2012-07-07T10:57:09Z</time>
      </trkpt>
      <trkpt lat="45.21366" lon="6.46797">
        <ele>754</ele>
        <time>2012-07-07T10:57:14Z</time>
      </trkpt>
      <trkpt lat="45.21355" lon="6.46786">
        <ele>754</ele>
        <time>2012-07-07T10:57:19Z</time>
      </trkpt>
      <trkpt lat="45.21341" lon="6.46775">
        <ele>755</ele>
        <time>2012-07-07T10:57:24Z</time>
      </trkpt>
      <trkpt lat="45.21327" lon="6.46768">
        <ele>761</ele>
        <time>2012-07-07T10:57:29Z</time>
      </trkpt>
      <trkpt lat="45.21309" lon="6.46762">
        <ele>763</ele>
        <time>2012-07-07T10:57:34Z</time>
      </trkpt>
      <trkpt lat="45.21296" lon="6.4676">
        <ele>764</ele>
        <time>2012-07-07T10:57:39Z</time>
      </trkpt>
      <trkpt lat="45.21277" lon="6.46757">
        <ele>766</ele>
        <time>2012-07-07T10:57:44Z</time>
      </trkpt>
      <trkpt lat="45.21264" lon="6.46751">
        <ele>767</ele>
        <time>2012-07-07T10:57:49Z</time>
      </trkpt>
      <trkpt lat="45.21254" lon="6.46729">
        <ele>767</ele>
        <time>2012-07-07T10:57:54Z</time>
      </trkpt>
      <trkpt lat="45.21252" lon="6.46712">
        <ele>766</ele>
        <time>2012-07-07T10:57:59Z</time>
      </trkpt>
      <trkpt lat="45.21252" lon="6.46691">
        <ele>766</ele>
        <time>2012-07-07T10:58:04Z</time>
      </trkpt>
      <trkpt lat="45.21252" lon="6.46671">
        <ele>767</ele>
        <time>2012-07-07T10:58:09Z</time>
      </trkpt>
      <trkpt lat="45.21251" lon="6.46651">
        <ele>768</ele>
        <time>2012-07-07T10:58:14Z</time>
      </trkpt>
      <trkpt lat="45.21251" lon="6.46632">
        <ele>769</ele>
        <time>2012-07-07T10:58:19Z</time>
      </trkpt>
      <trkpt lat="45.21248" lon="6.46613">
        <ele>778</ele>
        <time>2012-07-07T10:58:24Z</time>
      </trkpt>
      <trkpt lat="45.21237" lon="6.46596">
        <ele>778</ele>
        <time>2012-07-07T10:58:29Z</time>
      </trkpt>
      <trkpt lat="45.21228" lon="6.4659">
        <ele>779</ele>
        <time>2012-07-07T10:58:34Z</time>
      </trkpt>
      <trkpt lat="45.21214" lon="6.46593">
        <ele>780</ele>
        <time>2012-07-07T10:58:39Z</time>
      </trkpt>
      <trkpt lat="45.21207" lon="6.46604">
        <ele>781</ele>
        <time>2012-07-07T10:58:44Z</time>
      </trkpt>
      <trkpt lat="45.21194" lon="6.46619">
        <ele>782</ele>
        <time>2012-07-07T10:58:49Z</time>
      </trkpt>
      <trkpt lat="45.21184" lon="6.46627">
        <ele>782</ele>
        <time>2012-07-07T10:58:54Z</time>
      </trkpt>
      <trkpt lat="45.21168" lon="6.46631">
        <ele>783</ele>
        <time>2012-07-07T10:58:59Z</time>
      </trkpt>
      <trkpt lat="45.21156" lon="6.46634">
        <ele>796</ele>
        <time>2012-07-07T10:59:04Z</time>
      </trkpt>
      <trkpt lat="45.21144" lon="6.46643">
        <ele>797</ele>
        <time>2012-07-07T10:59:09Z</time>
      </trkpt>
      <trkpt lat="45.21138" lon="6.46661">
        <ele>797</ele>
        <time>2012-07-07T10:59:14Z</time>
      </trkpt>
      <trkpt lat="45.21138" lon="6.46679">
        <ele>798</ele>
        <time>2012-07-07T10:59:19Z</time>
      </trkpt>
      <trkpt lat="45.21146" lon="6.46696">
        <ele>798</ele>
        <time>2012-07-07T10:59:24Z</time>
      </trkpt>
      <trkpt lat="45.21153" lon="6.46704">
        <ele>798</ele>
        <time>2012-07-07T10:59:29Z</time>
      </trkpt>
      <trkpt lat="45.21166" lon="6.46717">
        <ele>798</ele>
        <time>2012-07-07T10:59:34Z</time>
      </trkpt>
      <trkpt lat="45.21174" lon="6.46724">
        <ele>785</ele>
        <time>2012-07-07T10:59:39Z</time>
      </trkpt>
      <trkpt lat="45.21183" lon="6.46741">
        <ele>786</ele>
        <time>2012-07-07T10:59:44Z</time>
      </trkpt>
      <trkpt lat="45.21186" lon="6.46755">
        <ele>787</ele>
        <time>2012-07-07T10:59:49Z</time>
      </trkpt>
      <trkpt lat="45.21184" lon="6.46768">
        <ele>786</ele>
        <time>2012-07-07T10:59:54Z</time>
      </trkpt>
      <trkpt lat="45.21183" lon="6.46767">
        <ele>786</ele>
        <time>2012-07-07T10:59:59Z</time>
      </trkpt>
      <trkpt lat="45.21183" lon="6.46763">
        <ele>787</ele>
        <time>2012-07-07T11:00:04Z</time>
      </trkpt>
      <trkpt lat="45.21182" lon="6.46762">
        <ele>787</ele>
        <time>2012-07-07T11:00:09Z</time>
      </trkpt>
      <trkpt lat="45.21184" lon="6.46761">
        <ele>786</ele>
        <time>2012-07-07T11:00:14Z</time>
      </trkpt>
      <trkpt lat="45.21186" lon="6.46761">
        <ele>786</ele>
        <time>2012-07-07T11:00:19Z</time>
      </trkpt>
      <trkpt lat="45.21186" lon="6.4676">
        <ele>786</ele>
        <time>2012-07-07T11:00:24Z</time>
      </trkpt>
      <trkpt lat="45.21188" lon="6.46759">
        <ele>786</ele>
        <time>2012-07-07T11:00:29Z</time>
      </trkpt>
      <trkpt lat="45.21188" lon="6.46761">
        <ele>786</ele>
        <time>2012-07-07T11:00:34Z</time>
      </trkpt>
      <trkpt lat="45.21186" lon="6.46761">
        <ele>786</ele>
        <time>2012-07-07T11:00:39Z</time>
      </trkpt>
      <trkpt lat="45.2119" lon="6.46764">
        <ele>785</ele>
        <time>2012-07-07T11:00:44Z</time>
      </trkpt>
      <trkpt lat="45.21187" lon="6.46764">
        <ele>786</ele>
        <time>2012-07-07T11:00:49Z</time>
      </trkpt>
      <trkpt lat="45.21186" lon="6.46763">
        <ele>786</ele>
        <time>2012-07-07T11:00:54Z</time>
      </trkpt>
      <trkpt lat="45.21185" lon="6.46763">
        <ele>786</ele>
        <time>2012-07-07T11:00:59Z</time>
      </trkpt>
      <trkpt lat="45.21185" lon="6.46763">
        <ele>786</ele>
        <time>2012-07-07T11:01:04Z</time>
      </trkpt>
      <trkpt lat="45.21185" lon="6.46763">
        <ele>786</ele>
        <time>2012-07-07T11:01:09Z</time>
      </trkpt>
      <trkpt lat="45.21185" lon="6.46763">
        <ele>786</ele>
        <time>2012-07-07T11:01:14Z</time>
      </trkpt>
      <trkpt lat="45.21186" lon="6.46763">
        <ele>786</ele>
        <time>2012-07-07T11:01:19Z</time>
      </trkpt>
      <trkpt lat="45.21187" lon="6.46763">
        <ele>786</ele>
        <time>2012-07-07T11:01:24Z</time>
      </trkpt>
      <trkpt lat="45.21186" lon="6.46764">
        <ele>786</ele>
        <time>2012-07-07T11:01:29Z</time>
      </trkpt>
      <trkpt lat="45.21186" lon="6.46764">
        <ele>786</ele>
        <time>2012-07-07T11:01:34Z</time>
      </trkpt>
      <trkpt lat="45.21186" lon="6.46764">
        <ele>786</ele>
        <time>2012-07-07T11:01:39Z</time>
      </trkpt>
      <trkpt lat="45.21187" lon="6.46765">
        <ele>786</ele>
        <time>2012-07-07T11:01:44Z</time>
      </trkpt>
      <trkpt lat="45.21188" lon="6.46768">
        <ele>785</ele>
        <time>2012-07-07T11:01:49Z</time>
      </trkpt>
      <trkpt lat="45.21188" lon="6.46768">
        <ele>785</ele>
        <time>2012-07-07T11:01:54Z</time>
      </trkpt>
      <trkpt lat="45.21184" lon="6.46778">
        <ele>785</ele>
        <time>2012-07-07T11:01:59Z</time>
      </trkpt>
      <trkpt lat="45.21182" lon="6.46785">
        <ele>785</ele>
        <time>2012-07-07T11:02:04Z</time>
      </trkpt>
      <trkpt lat="45.21177" lon="6.46795">
        <ele>785</ele>
        <time>2012-07-07T11:02:09Z</time>
      </trkpt>
      <trkpt lat="45.21169" lon="6.46807">
        <ele>786</ele>
        <time>2012-07-07T11:02:14Z</time>
      </trkpt>
      <trkpt lat="45.21158" lon="6.4682">
        <ele>796</ele>
        <time>2012-07-07T11:02:19Z</time>
      </trkpt>
      <trkpt lat="45.21151" lon="6.46829">
        <ele>797</ele>
        <time>2012-07-07T11:02:24Z</time>
      </trkpt>
      <trkpt lat="45.21141" lon="6.46842">
        <ele>795</ele>
        <time>2012-07-07T11:02:29Z</time>
      </trkpt>
      <trkpt lat="45.21133" lon="6.46851">
        <ele>796</ele>
        <time>2012-07-07T11:02:34Z</time>
      </trkpt>
      <trkpt lat="45.21124" lon="6.46861">
        <ele>796</ele>
        <time>2012-07-07T11:02:39Z</time>
      </trkpt>
      <trkpt lat="45.21114" lon="6.4687">
        <ele>797</ele>
        <time>2012-07-07T11:02:44Z</time>
      </trkpt>
      <trkpt lat="45.21104" lon="6.46877">
        <ele>798</ele>
        <time>2012-07-07T11:02:49Z</time>
      </trkpt>
      <trkpt lat="45.21091" lon="6.46884">
        <ele>799</ele>
        <time>2012-07-07T11:02:54Z</time>
      </trkpt>
      <trkpt lat="45.21082" lon="6.4689">
        <ele>811</ele>
        <time>2012-07-07T11:02:59Z</time>
      </trkpt>
      <trkpt lat="45.2107" lon="6.46897">
        <ele>811</ele>
        <time>2012-07-07T11:03:04Z</time>
      </trkpt>
      <trkpt lat="45.21061" lon="6.46902">
        <ele>812</ele>
        <time>2012-07-07T11:03:09Z</time>
      </trkpt>
      <trkpt lat="45.21051" lon="6.46909">
        <ele>813</ele>
        <time>2012-07-07T11:03:14Z</time>
      </trkpt>
      <trkpt lat="45.2104" lon="6.46915">
        <ele>815</ele>
        <time>2012-07-07T11:03:19Z</time>
      </trkpt>
      <trkpt lat="45.2103" lon="6.46921">
        <ele>809</ele>
        <time>2012-07-07T11:03:24Z</time>
      </trkpt>
      <trkpt lat="45.2102" lon="6.46929">
        <ele>810</ele>
        <time>2012-07-07T11:03:29Z</time>
      </trkpt>
      <trkpt lat="45.21011" lon="6.46939">
        <ele>810</ele>
        <time>2012-07-07T11:03:34Z</time>
      </trkpt>
      <trkpt lat="45.21003" lon="6.4695">
        <ele>808</ele>
        <time>2012-07-07T11:03:39Z</time>
      </trkpt>
      <trkpt lat="45.20993" lon="6.46952">
        <ele>819</ele>
        <time>2012-07-07T11:03:44Z</time>
      </trkpt>
      <trkpt lat="45.20989" lon="6.46936">
        <ele>821</ele>
        <time>2012-07-07T11:03:49Z</time>
      </trkpt>
      <trkpt lat="45.20991" lon="6.46923">
        <ele>821</ele>
        <time>2012-07-07T11:03:54Z</time>
      </trkpt>
      <trkpt lat="45.20996" lon="6.46906">
        <ele>827</ele>
        <time>2012-07-07T11:03:59Z</time>
      </trkpt>
      <trkpt lat="45.21" lon="6.46894">
        <ele>819</ele>
        <time>2012-07-07T11:04:04Z</time>
      </trkpt>
      <trkpt lat="45.21006" lon="6.46874">
        <ele>820</ele>
        <time>2012-07-07T11:04:09Z</time>
      </trkpt>
      <trkpt lat="45.21009" lon="6.46861">
        <ele>822</ele>
        <time>2012-07-07T11:04:14Z</time>
      </trkpt>
      <trkpt lat="45.21012" lon="6.46845">
        <ele>825</ele>
        <time>2012-07-07T11:04:19Z</time>
      </trkpt>
      <trkpt lat="45.21015" lon="6.46829">
        <ele>828</ele>
        <time>2012-07-07T11:04:24Z</time>
      </trkpt>
      <trkpt lat="45.21017" lon="6.46812">
        <ele>828</ele>
        <time>2012-07-07T11:04:29Z</time>
      </trkpt>
      <trkpt lat="45.21017" lon="6.46795">
        <ele>828</ele>
        <time>2012-07-07T11:04:34Z</time>
      </trkpt>
      <trkpt lat="45.21018" lon="6.46778">
        <ele>829</ele>
        <time>2012-07-07T11:04:39Z</time>
      </trkpt>
      <trkpt lat="45.21017" lon="6.46758">
        <ele>832</ele>
        <time>2012-07-07T11:04:44Z</time>
      </trkpt>
      <trkpt lat="45.21017" lon="6.46744">
        <ele>834</ele>
        <time>2012-07-07T11:04:49Z</time>
      </trkpt>
      <trkpt lat="45.21019" lon="6.46724">
        <ele>832</ele>
        <time>2012-07-07T11:04:54Z</time>
      </trkpt>
      <trkpt lat="45.21021" lon="6.46711">
        <ele>832</ele>
        <time>2012-07-07T11:04:59Z</time>
      </trkpt>
      <trkpt lat="45.21021" lon="6.46691">
        <ele>832</ele>
        <time>2012-07-07T11:05:04Z</time>
      </trkpt>
      <trkpt lat="45.21016" lon="6.46681">
        <ele>835</ele>
        <time>2012-07-07T11:05:09Z</time>
      </trkpt>
      <trkpt lat="45.21001" lon="6.46687">
        <ele>836</ele>
        <time>2012-07-07T11:05:14Z</time>
      </trkpt>
      <trkpt lat="45.20998" lon="6.46702">
        <ele>852</ele>
        <time>2012-07-07T11:05:19Z</time>
      </trkpt>
      <trkpt lat="45.20996" lon="6.4672">
        <ele>851</ele>
        <time>2012-07-07T11:05:24Z</time>
      </trkpt>
      <trkpt lat="45.20993" lon="6.46737">
        <ele>848</ele>
        <time>2012-07-07T11:05:29Z</time>
      </trkpt>
      <trkpt lat="45.20991" lon="6.46753">
        <ele>844</ele>
        <time>2012-07-07T11:05:34Z</time>
      </trkpt>
      <trkpt lat="45.20987" lon="6.46773">
        <ele>846</ele>
        <time>2012-07-07T11:05:39Z</time>
      </trkpt>
      <trkpt lat="45.20984" lon="6.46786">
        <ele>847</ele>
        <time>2012-07-07T11:05:44Z</time>
      </trkpt>
      <trkpt lat="45.20975" lon="6.46804">
        <ele>846</ele>
        <time>2012-07-07T11:05:49Z</time>
      </trkpt>
      <trkpt lat="45.20969" lon="6.46815">
        <ele>846</ele>
        <time>2012-07-07T11:05:54Z</time>
      </trkpt>
      <trkpt lat="45.20962" lon="6.46829">
        <ele>847</ele>
        <time>2012-07-07T11:05:59Z</time>
      </trkpt>
      <trkpt lat="45.20953" lon="6.4684">
        <ele>842</ele>
        <time>2012-07-07T11:06:04Z</time>
      </trkpt>
      <trkpt lat="45.20943" lon="6.46848">
        <ele>844</ele>
        <time>2012-07-07T11:06:09Z</time>
      </trkpt>
      <trkpt lat="45.20932" lon="6.46854">
        <ele>846</ele>
        <time>2012-07-07T11:06:14Z</time>
      </trkpt>
      <trkpt lat="45.20919" lon="6.4686">
        <ele>846</ele>
        <time>2012-07-07T11:06:19Z</time>
      </trkpt>
      <trkpt lat="45.20905" lon="6.46867">
        <ele>858</ele>
        <time>2012-07-07T11:06:24Z</time>
      </trkpt>
      <trkpt lat="45.20896" lon="6.4687">
        <ele>858</ele>
        <time>2012-07-07T11:06:29Z</time>
      </trkpt>
      <trkpt lat="45.20884" lon="6.46874">
        <ele>859</ele>
        <time>2012-07-07T11:06:34Z</time>
      </trkpt>
      <trkpt lat="45.20876" lon="6.46876">
        <ele>860</ele>
        <time>2012-07-07T11:06:39Z</time>
      </trkpt>
      <trkpt lat="45.20862" lon="6.46881">
        <ele>861</ele>
        <time>2012-07-07T11:06:44Z</time>
      </trkpt>
      <trkpt lat="45.20856" lon="6.46886">
        <ele>861</ele>
        <time>2012-07-07T11:06:49Z</time>
      </trkpt>
      <trkpt lat="45.20844" lon="6.46893">
        <ele>861</ele>
        <time>2012-07-07T11:06:54Z</time>
      </trkpt>
      <trkpt lat="45.20833" lon="6.46902">
        <ele>869</ele>
        <time>2012-07-07T11:06:59Z</time>
      </trkpt>
      <trkpt lat="45.20822" lon="6.46911">
        <ele>868</ele>
        <time>2012-07-07T11:07:04Z</time>
      </trkpt>
      <trkpt lat="45.2081" lon="6.46921">
        <ele>861</ele>
        <time>2012-07-07T11:07:09Z</time>
      </trkpt>
      <trkpt lat="45.20799" lon="6.46931">
        <ele>862</ele>
        <time>2012-07-07T11:07:14Z</time>
      </trkpt>
      <trkpt lat="45.20786" lon="6.46937">
        <ele>864</ele>
        <time>2012-07-07T11:07:19Z</time>
      </trkpt>
      <trkpt lat="45.20776" lon="6.46931">
        <ele>867</ele>
        <time>2012-07-07T11:07:24Z</time>
      </trkpt>
      <trkpt lat="45.20776" lon="6.46911">
        <ele>879</ele>
        <time>2012-07-07T11:07:29Z</time>
      </trkpt>
      <trkpt lat="45.20784" lon="6.46903">
        <ele>879</ele>
        <time>2012-07-07T11:07:34Z</time>
      </trkpt>
      <trkpt lat="45.20795" lon="6.46892">
        <ele>878</ele>
        <time>2012-07-07T11:07:39Z</time>
      </trkpt>
      <trkpt lat="45.20805" lon="6.46881">
        <ele>878</ele>
        <time>2012-07-07T11:07:44Z</time>
      </trkpt>
      <trkpt lat="45.20814" lon="6.4687">
        <ele>878</ele>
        <time>2012-07-07T11:07:49Z</time>
      </trkpt>
      <trkpt lat="45.20823" lon="6.4686">
        <ele>879</ele>
        <time>2012-07-07T11:07:54Z</time>
      </trkpt>
      <trkpt lat="45.20833" lon="6.46849">
        <ele>879</ele>
        <time>2012-07-07T11:07:59Z</time>
      </trkpt>
      <trkpt lat="45.20843" lon="6.46838">
        <ele>872</ele>
        <time>2012-07-07T11:08:04Z</time>
      </trkpt>
      <trkpt lat="45.20852" lon="6.46825">
        <ele>876</ele>
        <time>2012-07-07T11:08:09Z</time>
      </trkpt>
      <trkpt lat="45.20859" lon="6.46806">
        <ele>877</ele>
        <time>2012-07-07T11:08:14Z</time>
      </trkpt>
      <trkpt lat="45.20863" lon="6.46793">
        <ele>877</ele>
        <time>2012-07-07T11:08:19Z</time>
      </trkpt>
      <trkpt lat="45.20869" lon="6.46774">
        <ele>878</ele>
        <time>2012-07-07T11:08:24Z</time>
      </trkpt>
      <trkpt lat="45.20876" lon="6.46763">
        <ele>878</ele>
        <time>2012-07-07T11:08:29Z</time>
      </trkpt>
      <trkpt lat="45.20883" lon="6.46751">
        <ele>877</ele>
        <time>2012-07-07T11:08:34Z</time>
      </trkpt>
      <trkpt lat="45.20888" lon="6.46738">
        <ele>884</ele>
        <time>2012-07-07T11:08:39Z</time>
      </trkpt>
      <trkpt lat="45.20891" lon="6.46722">
        <ele>884</ele>
        <time>2012-07-07T11:08:44Z</time>
      </trkpt>
      <trkpt lat="45.20891" lon="6.46706">
        <ele>886</ele>
        <time>2012-07-07T11:08:49Z</time>
      </trkpt>
      <trkpt lat="45.20885" lon="6.4669">
        <ele>887</ele>
        <time>2012-07-07T11:08:54Z</time>
      </trkpt>
      <trkpt lat="45.20879" lon="6.46675">
        <ele>889</ele>
        <time>2012-07-07T11:08:59Z</time>
      </trkpt>
      <trkpt lat="45.20874" lon="6.46659">
        <ele>895</ele>
        <time>2012-07-07T11:09:04Z</time>
      </trkpt>
      <trkpt lat="45.20869" lon="6.46639">
        <ele>897</ele>
        <time>2012-07-07T11:09:09Z</time>
      </trkpt>
      <trkpt lat="45.20868" lon="6.46625">
        <ele>897</ele>
        <time>2012-07-07T11:09:14Z</time>
      </trkpt>
      <trkpt lat="45.2087" lon="6.46605">
        <ele>897</ele>
        <time>2012-07-07T11:09:19Z</time>
      </trkpt>
      <trkpt lat="45.20872" lon="6.46592">
        <ele>897</ele>
        <time>2012-07-07T11:09:24Z</time>
      </trkpt>
      <trkpt lat="45.20874" lon="6.46572">
        <ele>897</ele>
        <time>2012-07-07T11:09:29Z</time>
      </trkpt>
      <trkpt lat="45.2087" lon="6.46559">
        <ele>898</ele>
        <time>2012-07-07T11:09:34Z</time>
      </trkpt>
      <trkpt lat="45.20866" lon="6.46542">
        <ele>898</ele>
        <time>2012-07-07T11:09:39Z</time>
      </trkpt>
      <trkpt lat="45.20863" lon="6.46525">
        <ele>899</ele>
        <time>2012-07-07T11:09:44Z</time>
      </trkpt>
      <trkpt lat="45.20861" lon="6.46508">
        <ele>900</ele>
        <time>2012-07-07T11:09:49Z</time>
      </trkpt>
      <trkpt lat="45.20861" lon="6.4649">
        <ele>900</ele>
        <time>2012-07-07T11:09:54Z</time>
      </trkpt>
      <trkpt lat="45.20862" lon="6.46473">
        <ele>900</ele>
        <time>2012-07-07T11:09:59Z</time>
      </trkpt>
      <trkpt lat="45.20862" lon="6.46453">
        <ele>900</ele>
        <time>2012-07-07T11:10:04Z</time>
      </trkpt>
      <trkpt lat="45.20861" lon="6.46439">
        <ele>900</ele>
        <time>2012-07-07T11:10:09Z</time>
      </trkpt>
      <trkpt lat="45.20855" lon="6.46421">
        <ele>902</ele>
        <time>2012-07-07T11:10:14Z</time>
      </trkpt>
      <trkpt lat="45.20847" lon="6.46413">
        <ele>904</ele>
        <time>2012-07-07T11:10:19Z</time>
      </trkpt>
      <trkpt lat="45.20838" lon="6.46407">
        <ele>905</ele>
        <time>2012-07-07T11:10:24Z</time>
      </trkpt>
      <trkpt lat="45.20828" lon="6.46403">
        <ele>914</ele>
        <time>2012-07-07T11:10:29Z</time>
      </trkpt>
      <trkpt lat="45.20818" lon="6.464">
        <ele>917</ele>
        <time>2012-07-07T11:10:34Z</time>
      </trkpt>
      <trkpt lat="45.20806" lon="6.46395">
        <ele>919</ele>
        <time>2012-07-07T11:10:39Z</time>
      </trkpt>
      <trkpt lat="45.20795" lon="6.4639">
        <ele>922</ele>
        <time>2012-07-07T11:10:44Z</time>
      </trkpt>
      <trkpt lat="45.20785" lon="6.46378">
        <ele>924</ele>
        <time>2012-07-07T11:10:49Z</time>
      </trkpt>
      <trkpt lat="45.20781" lon="6.46368">
        <ele>925</ele>
        <time>2012-07-07T11:10:54Z</time>
      </trkpt>
      <trkpt lat="45.20781" lon="6.46349">
        <ele>926</ele>
        <time>2012-07-07T11:10:59Z</time>
      </trkpt>
      <trkpt lat="45.20785" lon="6.46337">
        <ele>926</ele>
        <time>2012-07-07T11:11:04Z</time>
      </trkpt>
      <trkpt lat="45.20794" lon="6.46319">
        <ele>927</ele>
        <time>2012-07-07T11:11:09Z</time>
      </trkpt>
      <trkpt lat="45.20797" lon="6.46305">
        <ele>926</ele>
        <time>2012-07-07T11:11:14Z</time>
      </trkpt>
      <trkpt lat="45.20799" lon="6.46288">
        <ele>927</ele>
        <time>2012-07-07T11:11:19Z</time>
      </trkpt>
      <trkpt lat="45.208" lon="6.4627">
        <ele>926</ele>
        <time>2012-07-07T11:11:24Z</time>
      </trkpt>
      <trkpt lat="45.20801" lon="6.46253">
        <ele>926</ele>
        <time>2012-07-07T11:11:29Z</time>
      </trkpt>
      <trkpt lat="45.208" lon="6.46236">
        <ele>928</ele>
        <time>2012-07-07T11:11:34Z</time>
      </trkpt>
      <trkpt lat="45.20799" lon="6.4622">
        <ele>929</ele>
        <time>2012-07-07T11:11:39Z</time>
      </trkpt>
      <trkpt lat="45.20793" lon="6.46202">
        <ele>930</ele>
        <time>2012-07-07T11:11:44Z</time>
      </trkpt>
      <trkpt lat="45.20786" lon="6.4619">
        <ele>933</ele>
        <time>2012-07-07T11:11:49Z</time>
      </trkpt>
      <trkpt lat="45.20778" lon="6.46174">
        <ele>937</ele>
        <time>2012-07-07T11:11:54Z</time>
      </trkpt>
      <trkpt lat="45.20772" lon="6.46163">
        <ele>938</ele>
        <time>2012-07-07T11:11:59Z</time>
      </trkpt>
      <trkpt lat="45.20764" lon="6.46142">
        <ele>937</ele>
        <time>2012-07-07T11:12:04Z</time>
      </trkpt>
      <trkpt lat="45.20763" lon="6.46128">
        <ele>935</ele>
        <time>2012-07-07T11:12:09Z</time>
      </trkpt>
      <trkpt lat="45.20762" lon="6.46111">
        <ele>935</ele>
        <time>2012-07-07T11:12:14Z</time>
      </trkpt>
      <trkpt lat="45.2076" lon="6.46096">
        <ele>937</ele>
        <time>2012-07-07T11:12:19Z</time>
      </trkpt>
      <trkpt lat="45.20755" lon="6.46083">
        <ele>942</ele>
        <time>2012-07-07T11:12:24Z</time>
      </trkpt>
      <trkpt lat="45.20751" lon="6.4607">
        <ele>938</ele>
        <time>2012-07-07T11:12:29Z</time>
      </trkpt>
      <trkpt lat="45.20746" lon="6.46051">
        <ele>959</ele>
        <time>2012-07-07T11:12:34Z</time>
      </trkpt>
      <trkpt lat="45.20742" lon="6.46031">
        <ele>958</ele>
        <time>2012-07-07T11:12:39Z</time>
      </trkpt>
      <trkpt lat="45.20744" lon="6.4602">
        <ele>954</ele>
        <time>2012-07-07T11:12:44Z</time>
      </trkpt>
      <trkpt lat="45.20742" lon="6.46008">
        <ele>949</ele>
        <time>2012-07-07T11:12:49Z</time>
      </trkpt>
      <trkpt lat="45.20735" lon="6.45999">
        <ele>949</ele>
        <time>2012-07-07T11:12:54Z</time>
      </trkpt>
      <trkpt lat="45.20731" lon="6.45989">
        <ele>953</ele>
        <time>2012-07-07T11:12:59Z</time>
      </trkpt>
      <trkpt lat="45.20723" lon="6.45974">
        <ele>957</ele>
        <time>2012-07-07T11:13:04Z</time>
      </trkpt>
      <trkpt lat="45.20717" lon="6.45957">
        <ele>959</ele>
        <time>2012-07-07T11:13:09Z</time>
      </trkpt>
      <trkpt lat="45.20721" lon="6.45941">
        <ele>958</ele>
        <time>2012-07-07T11:13:14Z</time>
      </trkpt>
      <trkpt lat="45.20729" lon="6.45927">
        <ele>956</ele>
        <time>2012-07-07T11:13:19Z</time>
      </trkpt>
      <trkpt lat="45.20732" lon="6.4591">
        <ele>958</ele>
        <time>2012-07-07T11:13:24Z</time>
      </trkpt>
      <trkpt lat="45.20737" lon="6.45896">
        <ele>960</ele>
        <time>2012-07-07T11:13:29Z</time>
      </trkpt>
      <trkpt lat="45.20743" lon="6.45879">
        <ele>962</ele>
        <time>2012-07-07T11:13:34Z</time>
      </trkpt>
      <trkpt lat="45.20747" lon="6.45867">
        <ele>963</ele>
        <time>2012-07-07T11:13:39Z</time>
      </trkpt>
      <trkpt lat="45.20753" lon="6.45853">
        <ele>952</ele>
        <time>2012-07-07T11:13:44Z</time>
      </trkpt>
      <trkpt lat="45.20758" lon="6.45838">
        <ele>955</ele>
        <time>2012-07-07T11:13:49Z</time>
      </trkpt>
      <trkpt lat="45.20766" lon="6.45819">
        <ele>960</ele>
        <time>2012-07-07T11:13:54Z</time>
      </trkpt>
      <trkpt lat="45.20771" lon="6.45807">
        <ele>961</ele>
        <time>2012-07-07T11:13:59Z</time>
      </trkpt>
      <trkpt lat="45.2078" lon="6.45798">
        <ele>961</ele>
        <time>2012-07-07T11:14:04Z</time>
      </trkpt>
      <trkpt lat="45.20792" lon="6.45795">
        <ele>961</ele>
        <time>2012-07-07T11:14:09Z</time>
      </trkpt>
      <trkpt lat="45.20804" lon="6.45796">
        <ele>960</ele>
        <time>2012-07-07T11:14:14Z</time>
      </trkpt>
      <trkpt lat="45.20815" lon="6.45795">
        <ele>960</ele>
        <time>2012-07-07T11:14:19Z</time>
      </trkpt>
      <trkpt lat="45.20824" lon="6.45795">
        <ele>960</ele>
        <time>2012-07-07T11:14:24Z</time>
      </trkpt>
      <trkpt lat="45.20838" lon="6.45793">
        <ele>958</ele>
        <time>2012-07-07T11:14:29Z</time>
      </trkpt>
      <trkpt lat="45.20848" lon="6.4579">
        <ele>959</ele>
        <time>2012-07-07T11:14:34Z</time>
      </trkpt>
      <trkpt lat="45.20862" lon="6.45786">
        <ele>960</ele>
        <time>2012-07-07T11:14:39Z</time>
      </trkpt>
      <trkpt lat="45.20871" lon="6.45784">
        <ele>960</ele>
        <time>2012-07-07T11:14:44Z</time>
      </trkpt>
      <trkpt lat="45.20884" lon="6.45785">
        <ele>960</ele>
        <time>2012-07-07T11:14:49Z</time>
      </trkpt>
      <trkpt lat="45.20896" lon="6.45788">
        <ele>960</ele>
        <time>2012-07-07T11:14:54Z</time>
      </trkpt>
      <trkpt lat="45.20908" lon="6.4579">
        <ele>960</ele>
        <time>2012-07-07T11:14:59Z</time>
      </trkpt>
      <trkpt lat="45.20919" lon="6.45789">
        <ele>963</ele>
        <time>2012-07-07T11:15:04Z</time>
      </trkpt>
      <trkpt lat="45.2093" lon="6.45785">
        <ele>964</ele>
        <time>2012-07-07T11:15:09Z</time>
      </trkpt>
      <trkpt lat="45.20942" lon="6.45776">
        <ele>965</ele>
        <time>2012-07-07T11:15:14Z</time>
      </trkpt>
      <trkpt lat="45.2095" lon="6.45768">
        <ele>966</ele>
        <time>2012-07-07T11:15:19Z</time>
      </trkpt>
      <trkpt lat="45.20962" lon="6.45758">
        <ele>967</ele>
        <time>2012-07-07T11:15:24Z</time>
      </trkpt>
      <trkpt lat="45.20972" lon="6.45752">
        <ele>968</ele>
        <time>2012-07-07T11:15:29Z</time>
      </trkpt>
      <trkpt lat="45.20984" lon="6.45749">
        <ele>980</ele>
        <time>2012-07-07T11:15:34Z</time>
      </trkpt>
      <trkpt lat="45.20996" lon="6.45748">
        <ele>977</ele>
        <time>2012-07-07T11:15:39Z</time>
      </trkpt>
      <trkpt lat="45.2101" lon="6.45748">
        <ele>976</ele>
        <time>2012-07-07T11:15:44Z</time>
      </trkpt>
      <trkpt lat="45.21019" lon="6.45749">
        <ele>976</ele>
        <time>2012-07-07T11:15:49Z</time>
      </trkpt>
      <trkpt lat="45.21029" lon="6.4575">
        <ele>969</ele>
        <time>2012-07-07T11:15:54Z</time>
      </trkpt>
      <trkpt lat="45.2104" lon="6.45756">
        <ele>968</ele>
        <time>2012-07-07T11:15:59Z</time>
      </trkpt>
      <trkpt lat="45.21051" lon="6.45764">
        <ele>968</ele>
        <time>2012-07-07T11:16:04Z</time>
      </trkpt>
      <trkpt lat="45.21064" lon="6.45771">
        <ele>967</ele>
        <time>2012-07-07T11:16:09Z</time>
      </trkpt>
      <trkpt lat="45.21072" lon="6.45769">
        <ele>968</ele>
        <time>2012-07-07T11:16:14Z</time>
      </trkpt>
      <trkpt lat="45.21076" lon="6.45749">
        <ele>972</ele>
        <time>2012-07-07T11:16:19Z</time>
      </trkpt>
      <trkpt lat="45.2107" lon="6.45738">
        <ele>974</ele>
        <time>2012-07-07T11:16:24Z</time>
      </trkpt>
      <trkpt lat="45.21061" lon="6.45726">
        <ele>975</ele>
        <time>2012-07-07T11:16:29Z</time>
      </trkpt>
      <trkpt lat="45.21052" lon="6.45714">
        <ele>976</ele>
        <time>2012-07-07T11:16:34Z</time>
      </trkpt>
      <trkpt lat="45.21046" lon="6.45702">
        <ele>977</ele>
        <time>2012-07-07T11:16:39Z</time>
      </trkpt>
      <trkpt lat="45.2104" lon="6.45691">
        <ele>978</ele>
        <time>2012-07-07T11:16:44Z</time>
      </trkpt>
      <trkpt lat="45.21031" lon="6.45679">
        <ele>980</ele>
        <time>2012-07-07T11:16:49Z</time>
      </trkpt>
      <trkpt lat="45.21023" lon="6.45664">
        <ele>986</ele>
        <time>2012-07-07T11:16:54Z</time>
      </trkpt>
      <trkpt lat="45.21015" lon="6.45648">
        <ele>987</ele>
        <time>2012-07-07T11:16:59Z</time>
      </trkpt>
      <trkpt lat="45.21008" lon="6.4563">
        <ele>987</ele>
        <time>2012-07-07T11:17:04Z</time>
      </trkpt>
      <trkpt lat="45.21006" lon="6.45618">
        <ele>988</ele>
        <time>2012-07-07T11:17:09Z</time>
      </trkpt>
      <trkpt lat="45.21005" lon="6.45599">
        <ele>991</ele>
        <time>2012-07-07T11:17:14Z</time>
      </trkpt>
      <trkpt lat="45.21003" lon="6.45586">
        <ele>995</ele>
        <time>2012-07-07T11:17:19Z</time>
      </trkpt>
      <trkpt lat="45.21005" lon="6.45569">
        <ele>995</ele>
        <time>2012-07-07T11:17:24Z</time>
      </trkpt>
      <trkpt lat="45.21009" lon="6.45554">
        <ele>994</ele>
        <time>2012-07-07T11:17:29Z</time>
      </trkpt>
      <trkpt lat="45.21014" lon="6.45538">
        <ele>995</ele>
        <time>2012-07-07T11:17:34Z</time>
      </trkpt>
      <trkpt lat="45.2102" lon="6.45524">
        <ele>996</ele>
        <time>2012-07-07T11:17:39Z</time>
      </trkpt>
      <trkpt lat="45.21025" lon="6.45509">
        <ele>997</ele>
        <time>2012-07-07T11:17:44Z</time>
      </trkpt>
      <trkpt lat="45.2103" lon="6.45495">
        <ele>1006</ele>
        <time>2012-07-07T11:17:49Z</time>
      </trkpt>
      <trkpt lat="45.21037" lon="6.45481">
        <ele>1006</ele>
        <time>2012-07-07T11:17:54Z</time>
      </trkpt>
      <trkpt lat="45.21043" lon="6.45463">
        <ele>1008</ele>
        <time>2012-07-07T11:17:59Z</time>
      </trkpt>
      <trkpt lat="45.2104" lon="6.45453">
        <ele>1010</ele>
        <time>2012-07-07T11:18:04Z</time>
      </trkpt>
      <trkpt lat="45.21027" lon="6.45448">
        <ele>1012</ele>
        <time>2012-07-07T11:18:09Z</time>
      </trkpt>
      <trkpt lat="45.21017" lon="6.45454">
        <ele>1012</ele>
        <time>2012-07-07T11:18:14Z</time>
      </trkpt>
      <trkpt lat="45.2101" lon="6.4547">
        <ele>1010</ele>
        <time>2012-07-07T11:18:19Z</time>
      </trkpt>
      <trkpt lat="45.21002" lon="6.45485">
        <ele>1008</ele>
        <time>2012-07-07T11:18:24Z</time>
      </trkpt>
      <trkpt lat="45.20992" lon="6.45497">
        <ele>1013</ele>
        <time>2012-07-07T11:18:29Z</time>
      </trkpt>
      <trkpt lat="45.20984" lon="6.45503">
        <ele>1010</ele>
        <time>2012-07-07T11:18:34Z</time>
      </trkpt>
      <trkpt lat="45.20974" lon="6.45512">
        <ele>1012</ele>
        <time>2012-07-07T11:18:39Z</time>
      </trkpt>
      <trkpt lat="45.20965" lon="6.45524">
        <ele>1013</ele>
        <time>2012-07-07T11:18:44Z</time>
      </trkpt>
      <trkpt lat="45.20957" lon="6.45535">
        <ele>1013</ele>
        <time>2012-07-07T11:18:49Z</time>
      </trkpt>
      <trkpt lat="45.20955" lon="6.45553">
        <ele>1012</ele>
        <time>2012-07-07T11:18:54Z</time>
      </trkpt>
      <trkpt lat="45.20953" lon="6.45569">
        <ele>1012</ele>
        <time>2012-07-07T11:18:59Z</time>
      </trkpt>
      <trkpt lat="45.20951" lon="6.45589">
        <ele>1005</ele>
        <time>2012-07-07T11:19:04Z</time>
      </trkpt>
      <trkpt lat="45.20949" lon="6.45602">
        <ele>1004</ele>
        <time>2012-07-07T11:19:09Z</time>
      </trkpt>
      <trkpt lat="45.20941" lon="6.4561">
        <ele>1005</ele>
        <time>2012-07-07T11:19:14Z</time>
      </trkpt>
      <trkpt lat="45.20928" lon="6.4561">
        <ele>1006</ele>
        <time>2012-07-07T11:19:19Z</time>
      </trkpt>
      <trkpt lat="45.20914" lon="6.45607">
        <ele>1008</ele>
        <time>2012-07-07T11:19:24Z</time>
      </trkpt>
      <trkpt lat="45.20902" lon="6.45602">
        <ele>1008</ele>
        <time>2012-07-07T11:19:29Z</time>
      </trkpt>
      <trkpt lat="45.20893" lon="6.45592">
        <ele>1007</ele>
        <time>2012-07-07T11:19:34Z</time>
      </trkpt>
      <trkpt lat="45.20886" lon="6.45578">
        <ele>1016</ele>
        <time>2012-07-07T11:19:39Z</time>
      </trkpt>
      <trkpt lat="45.20881" lon="6.45562">
        <ele>1016</ele>
        <time>2012-07-07T11:19:44Z</time>
      </trkpt>
      <trkpt lat="45.20874" lon="6.45544">
        <ele>1017</ele>
        <time>2012-07-07T11:19:49Z</time>
      </trkpt>
      <trkpt lat="45.2087" lon="6.45531">
        <ele>1018</ele>
        <time>2012-07-07T11:19:54Z</time>
      </trkpt>
      <trkpt lat="45.20862" lon="6.45513">
        <ele>1019</ele>
        <time>2012-07-07T11:19:59Z</time>
      </trkpt>
      <trkpt lat="45.20857" lon="6.45502">
        <ele>1020</ele>
        <time>2012-07-07T11:20:04Z</time>
      </trkpt>
      <trkpt lat="45.2085" lon="6.45489">
        <ele>1028</ele>
        <time>2012-07-07T11:20:09Z</time>
      </trkpt>
      <trkpt lat="45.20843" lon="6.45476">
        <ele>1030</ele>
        <time>2012-07-07T11:20:14Z</time>
      </trkpt>
      <trkpt lat="45.20837" lon="6.45462">
        <ele>1032</ele>
        <time>2012-07-07T11:20:19Z</time>
      </trkpt>
      <trkpt lat="45.20831" lon="6.45448">
        <ele>1029</ele>
        <time>2012-07-07T11:20:24Z</time>
      </trkpt>
      <trkpt lat="45.20825" lon="6.45435">
        <ele>1032</ele>
        <time>2012-07-07T11:20:29Z</time>
      </trkpt>
      <trkpt lat="45.20817" lon="6.45418">
        <ele>1033</ele>
        <time>2012-07-07T11:20:34Z</time>
      </trkpt>
      <trkpt lat="45.20813" lon="6.45408">
        <ele>1044</ele>
        <time>2012-07-07T11:20:39Z</time>
      </trkpt>
      <trkpt lat="45.20806" lon="6.45391">
        <ele>1045</ele>
        <time>2012-07-07T11:20:44Z</time>
      </trkpt>
      <trkpt lat="45.20801" lon="6.4538">
        <ele>1047</ele>
        <time>2012-07-07T11:20:49Z</time>
      </trkpt>
      <trkpt lat="45.20795" lon="6.45367">
        <ele>1048</ele>
        <time>2012-07-07T11:20:54Z</time>
      </trkpt>
      <trkpt lat="45.20785" lon="6.45355">
        <ele>1049</ele>
        <time>2012-07-07T11:20:59Z</time>
      </trkpt>
      <trkpt lat="45.20775" lon="6.45346">
        <ele>1049</ele>
        <time>2012-07-07T11:21:04Z</time>
      </trkpt>
      <trkpt lat="45.20765" lon="6.45342">
        <ele>1049</ele>
        <time>2012-07-07T11:21:09Z</time>
      </trkpt>
      <trkpt lat="45.20754" lon="6.45339">
        <ele>1050</ele>
        <time>2012-07-07T11:21:14Z</time>
      </trkpt>
      <trkpt lat="45.20744" lon="6.45336">
        <ele>1049</ele>
        <time>2012-07-07T11:21:19Z</time>
      </trkpt>
      <trkpt lat="45.20733" lon="6.45334">
        <ele>1047</ele>
        <time>2012-07-07T11:21:24Z</time>
      </trkpt>
      <trkpt lat="45.20719" lon="6.45333">
        <ele>1063</ele>
        <time>2012-07-07T11:21:29Z</time>
      </trkpt>
      <trkpt lat="45.2071" lon="6.45334">
        <ele>1046</ele>
        <time>2012-07-07T11:21:34Z</time>
      </trkpt>
      <trkpt lat="45.20695" lon="6.45338">
        <ele>1048</ele>
        <time>2012-07-07T11:21:39Z</time>
      </trkpt>
      <trkpt lat="45.20685" lon="6.45341">
        <ele>1049</ele>
        <time>2012-07-07T11:21:44Z</time>
      </trkpt>
      <trkpt lat="45.20672" lon="6.45342">
        <ele>1053</ele>
        <time>2012-07-07T11:21:49Z</time>
      </trkpt>
      <trkpt lat="45.2066" lon="6.45342">
        <ele>1054</ele>
        <time>2012-07-07T11:21:54Z</time>
      </trkpt>
      <trkpt lat="45.20646" lon="6.45341">
        <ele>1052</ele>
        <time>2012-07-07T11:21:59Z</time>
      </trkpt>
      <trkpt lat="45.20636" lon="6.4534">
        <ele>1051</ele>
        <time>2012-07-07T11:22:04Z</time>
      </trkpt>
      <trkpt lat="45.20625" lon="6.45336">
        <ele>1052</ele>
        <time>2012-07-07T11:22:09Z</time>
      </trkpt>
      <trkpt lat="45.20613" lon="6.4533">
        <ele>1070</ele>
        <time>2012-07-07T11:22:14Z</time>
      </trkpt>
      <trkpt lat="45.20602" lon="6.45325">
        <ele>1069</ele>
        <time>2012-07-07T11:22:19Z</time>
      </trkpt>
      <trkpt lat="45.20588" lon="6.45322">
        <ele>1067</ele>
        <time>2012-07-07T11:22:24Z</time>
      </trkpt>
      <trkpt lat="45.20578" lon="6.4532">
        <ele>1070</ele>
        <time>2012-07-07T11:22:29Z</time>
      </trkpt>
      <trkpt lat="45.20564" lon="6.45318">
        <ele>1074</ele>
        <time>2012-07-07T11:22:34Z</time>
      </trkpt>
      <trkpt lat="45.20555" lon="6.45317">
        <ele>1076</ele>
        <time>2012-07-07T11:22:39Z</time>
      </trkpt>
      <trkpt lat="45.20544" lon="6.45316">
        <ele>1078</ele>
        <time>2012-07-07T11:22:44Z</time>
      </trkpt>
      <trkpt lat="45.20532" lon="6.45316">
        <ele>1078</ele>
        <time>2012-07-07T11:22:49Z</time>
      </trkpt>
      <trkpt lat="45.20522" lon="6.45317">
        <ele>1078</ele>
        <time>2012-07-07T11:22:54Z</time>
      </trkpt>
      <trkpt lat="45.20511" lon="6.45317">
        <ele>1077</ele>
        <time>2012-07-07T11:22:59Z</time>
      </trkpt>
      <trkpt lat="45.20501" lon="6.45317">
        <ele>1077</ele>
        <time>2012-07-07T11:23:04Z</time>
      </trkpt>
      <trkpt lat="45.20489" lon="6.45318">
        <ele>1082</ele>
        <time>2012-07-07T11:23:09Z</time>
      </trkpt>
      <trkpt lat="45.20477" lon="6.45319">
        <ele>1085</ele>
        <time>2012-07-07T11:23:14Z</time>
      </trkpt>
      <trkpt lat="45.20463" lon="6.45318">
        <ele>1087</ele>
        <time>2012-07-07T11:23:19Z</time>
      </trkpt>
      <trkpt lat="45.20454" lon="6.45317">
        <ele>1089</ele>
        <time>2012-07-07T11:23:24Z</time>
      </trkpt>
      <trkpt lat="45.2044" lon="6.45316">
        <ele>1089</ele>
        <time>2012-07-07T11:23:29Z</time>
      </trkpt>
      <trkpt lat="45.20431" lon="6.45316">
        <ele>1089</ele>
        <time>2012-07-07T11:23:34Z</time>
      </trkpt>
      <trkpt lat="45.20419" lon="6.45316">
        <ele>1089</ele>
        <time>2012-07-07T11:23:39Z</time>
      </trkpt>
      <trkpt lat="45.20408" lon="6.45319">
        <ele>1097</ele>
        <time>2012-07-07T11:23:44Z</time>
      </trkpt>
      <trkpt lat="45.20396" lon="6.45325">
        <ele>1099</ele>
        <time>2012-07-07T11:23:49Z</time>
      </trkpt>
      <trkpt lat="45.20384" lon="6.45335">
        <ele>1092</ele>
        <time>2012-07-07T11:23:54Z</time>
      </trkpt>
      <trkpt lat="45.20376" lon="6.4535">
        <ele>1094</ele>
        <time>2012-07-07T11:23:59Z</time>
      </trkpt>
      <trkpt lat="45.20372" lon="6.45372">
        <ele>1093</ele>
        <time>2012-07-07T11:24:04Z</time>
      </trkpt>
      <trkpt lat="45.20369" lon="6.45387">
        <ele>1092</ele>
        <time>2012-07-07T11:24:09Z</time>
      </trkpt>
      <trkpt lat="45.20364" lon="6.45408">
        <ele>1092</ele>
        <time>2012-07-07T11:24:14Z</time>
      </trkpt>
      <trkpt lat="45.20361" lon="6.4542">
        <ele>1087</ele>
        <time>2012-07-07T11:24:19Z</time>
      </trkpt>
      <trkpt lat="45.20354" lon="6.45438">
        <ele>1087</ele>
        <time>2012-07-07T11:24:24Z</time>
      </trkpt>
      <trkpt lat="45.20349" lon="6.4545">
        <ele>1086</ele>
        <time>2012-07-07T11:24:29Z</time>
      </trkpt>
      <trkpt lat="45.2034" lon="6.45465">
        <ele>1086</ele>
        <time>2012-07-07T11:24:34Z</time>
      </trkpt>
      <trkpt lat="45.20334" lon="6.45476">
        <ele>1086</ele>
        <time>2012-07-07T11:24:39Z</time>
      </trkpt>
      <trkpt lat="45.20325" lon="6.45487">
        <ele>1095</ele>
        <time>2012-07-07T11:24:44Z</time>
      </trkpt>
      <trkpt lat="45.20316" lon="6.45494">
        <ele>1096</ele>
        <time>2012-07-07T11:24:49Z</time>
      </trkpt>
      <trkpt lat="45.20309" lon="6.45504">
        <ele>1094</ele>
        <time>2012-07-07T11:24:54Z</time>
      </trkpt>
      <trkpt lat="45.20293" lon="6.45509">
        <ele>1097</ele>
        <time>2012-07-07T11:24:59Z</time>
      </trkpt>
      <trkpt lat="45.20286" lon="6.45513">
        <ele>1098</ele>
        <time>2012-07-07T11:25:04Z</time>
      </trkpt>
      <trkpt lat="45.20275" lon="6.45523">
        <ele>1099</ele>
        <time>2012-07-07T11:25:09Z</time>
      </trkpt>
      <trkpt lat="45.2027" lon="6.4553">
        <ele>1099</ele>
        <time>2012-07-07T11:25:14Z</time>
      </trkpt>
      <trkpt lat="45.20262" lon="6.4554">
        <ele>1099</ele>
        <time>2012-07-07T11:25:19Z</time>
      </trkpt>
      <trkpt lat="45.20252" lon="6.4555">
        <ele>1100</ele>
        <time>2012-07-07T11:25:24Z</time>
      </trkpt>
      <trkpt lat="45.20241" lon="6.45549">
        <ele>1118</ele>
        <time>2012-07-07T11:25:29Z</time>
      </trkpt>
      <trkpt lat="45.20234" lon="6.45541">
        <ele>1119</ele>
        <time>2012-07-07T11:25:34Z</time>
      </trkpt>
      <trkpt lat="45.20236" lon="6.4554">
        <ele>1119</ele>
        <time>2012-07-07T11:25:39Z</time>
      </trkpt>
      <trkpt lat="45.20236" lon="6.45541">
        <ele>1119</ele>
        <time>2012-07-07T11:25:44Z</time>
      </trkpt>
      <trkpt lat="45.2024" lon="6.45541">
        <ele>1118</ele>
        <time>2012-07-07T11:25:49Z</time>
      </trkpt>
      <trkpt lat="45.20243" lon="6.4554">
        <ele>1118</ele>
        <time>2012-07-07T11:25:54Z</time>
      </trkpt>
      <trkpt lat="45.20244" lon="6.4554">
        <ele>1118</ele>
        <time>2012-07-07T11:25:59Z</time>
      </trkpt>
      <trkpt lat="45.20244" lon="6.45539">
        <ele>1118</ele>
        <time>2012-07-07T11:26:04Z</time>
      </trkpt>
      <trkpt lat="45.20244" lon="6.45538">
        <ele>1118</ele>
        <time>2012-07-07T11:26:09Z</time>
      </trkpt>
      <trkpt lat="45.20242" lon="6.45539">
        <ele>1118</ele>
        <time>2012-07-07T11:26:14Z</time>
      </trkpt>
      <trkpt lat="45.20239" lon="6.4554">
        <ele>1118</ele>
        <time>2012-07-07T11:26:19Z</time>
      </trkpt>
      <trkpt lat="45.20237" lon="6.45535">
        <ele>1119</ele>
        <time>2012-07-07T11:26:24Z</time>
      </trkpt>
      <trkpt lat="45.20242" lon="6.45523">
        <ele>1117</ele>
        <time>2012-07-07T11:26:29Z</time>
      </trkpt>
      <trkpt lat="45.20252" lon="6.4551">
        <ele>1104</ele>
        <time>2012-07-07T11:26:34Z</time>
      </trkpt>
      <trkpt lat="45.20261" lon="6.45497">
        <ele>1106</ele>
        <time>2012-07-07T11:26:39Z</time>
      </trkpt>
      <trkpt lat="45.2027" lon="6.45483">
        <ele>1105</ele>
        <time>2012-07-07T11:26:44Z</time>
      </trkpt>
      <trkpt lat="45.2028" lon="6.45469">
        <ele>1104</ele>
        <time>2012-07-07T11:26:49Z</time>
      </trkpt>
      <trkpt lat="45.20286" lon="6.45459">
        <ele>1104</ele>
        <time>2012-07-07T11:26:54Z</time>
      </trkpt>
      <trkpt lat="45.20298" lon="6.45445">
        <ele>1103</ele>
        <time>2012-07-07T11:26:59Z</time>
      </trkpt>
      <trkpt lat="45.20304" lon="6.45435">
        <ele>1103</ele>
        <time>2012-07-07T11:27:04Z</time>
      </trkpt>
      <trkpt lat="45.20311" lon="6.45418">
        <ele>1102</ele>
        <time>2012-07-07T11:27:09Z</time>
      </trkpt>
      <trkpt lat="45.20306" lon="6.45403">
        <ele>1111</ele>
        <time>2012-07-07T11:27:14Z</time>
      </trkpt>
      <trkpt lat="45.20292" lon="6.454">
        <ele>1113</ele>
        <time>2012-07-07T11:27:19Z</time>
      </trkpt>
      <trkpt lat="45.20283" lon="6.45409">
        <ele>1114</ele>
        <time>2012-07-07T11:27:24Z</time>
      </trkpt>
      <trkpt lat="45.20274" lon="6.45424">
        <ele>1109</ele>
        <time>2012-07-07T11:27:29Z</time>
      </trkpt>
      <trkpt lat="45.20262" lon="6.45438">
        <ele>1109</ele>
        <time>2012-07-07T11:27:34Z</time>
      </trkpt>
      <trkpt lat="45.20252" lon="6.45452">
        <ele>1108</ele>
        <time>2012-07-07T11:27:39Z</time>
      </trkpt>
      <trkpt lat="45.2024" lon="6.45466">
        <ele>1123</ele>
        <time>2012-07-07T11:27:44Z</time>
      </trkpt>
      <trkpt lat="45.20231" lon="6.45473">
        <ele>1124</ele>
        <time>2012-07-07T11:27:49Z</time>
      </trkpt>
      <trkpt lat="45.20216" lon="6.45475">
        <ele>1127</ele>
        <time>2012-07-07T11:27:54Z</time>
      </trkpt>
      <trkpt lat="45.20206" lon="6.45475">
        <ele>1129</ele>
        <time>2012-07-07T11:27:59Z</time>
      </trkpt>
      <trkpt lat="45.20193" lon="6.45479">
        <ele>1132</ele>
        <time>2012-07-07T11:28:04Z</time>
      </trkpt>
      <trkpt lat="45.20185" lon="6.45493">
        <ele>1135</ele>
        <time>2012-07-07T11:28:09Z</time>
      </trkpt>
      <trkpt lat="45.2018" lon="6.45511">
        <ele>1133</ele>
        <time>2012-07-07T11:28:14Z</time>
      </trkpt>
      <trkpt lat="45.20179" lon="6.45525">
        <ele>1131</ele>
        <time>2012-07-07T11:28:19Z</time>
      </trkpt>
      <trkpt lat="45.20181" lon="6.45539">
        <ele>1130</ele>
        <time>2012-07-07T11:28:24Z</time>
      </trkpt>
      <trkpt lat="45.20188" lon="6.45556">
        <ele>1129</ele>
        <time>2012-07-07T11:28:29Z</time>
      </trkpt>
      <trkpt lat="45.20192" lon="6.45567">
        <ele>1130</ele>
        <time>2012-07-07T11:28:34Z</time>
      </trkpt>
      <trkpt lat="45.20197" lon="6.45586">
        <ele>1128</ele>
        <time>2012-07-07T11:28:39Z</time>
      </trkpt>
      <trkpt lat="45.20201" lon="6.45597">
        <ele>1126</ele>
        <time>2012-07-07T11:28:44Z</time>
      </trkpt>
      <trkpt lat="45.20203" lon="6.45612">
        <ele>1125</ele>
        <time>2012-07-07T11:28:49Z</time>
      </trkpt>
      <trkpt lat="45.20196" lon="6.45625">
        <ele>1125</ele>
        <time>2012-07-07T11:28:54Z</time>
      </trkpt>
      <trkpt lat="45.20185" lon="6.45633">
        <ele>1127</ele>
        <time>2012-07-07T11:28:59Z</time>
      </trkpt>
      <trkpt lat="45.20174" lon="6.45636">
        <ele>1129</ele>
        <time>2012-07-07T11:29:04Z</time>
      </trkpt>
      <trkpt lat="45.20165" lon="6.4564">
        <ele>1152</ele>
        <time>2012-07-07T11:29:09Z</time>
      </trkpt>
      <trkpt lat="45.20154" lon="6.4564">
        <ele>1154</ele>
        <time>2012-07-07T11:29:14Z</time>
      </trkpt>
      <trkpt lat="45.20146" lon="6.45642">
        <ele>1156</ele>
        <time>2012-07-07T11:29:19Z</time>
      </trkpt>
      <trkpt lat="45.20137" lon="6.4565">
        <ele>1158</ele>
        <time>2012-07-07T11:29:24Z</time>
      </trkpt>
      <trkpt lat="45.20133" lon="6.45664">
        <ele>1158</ele>
        <time>2012-07-07T11:29:29Z</time>
      </trkpt>
      <trkpt lat="45.20134" lon="6.45682">
        <ele>1161</ele>
        <time>2012-07-07T11:29:34Z</time>
      </trkpt>
      <trkpt lat="45.20136" lon="6.4569">
        <ele>1162</ele>
        <time>2012-07-07T11:29:39Z</time>
      </trkpt>
      <trkpt lat="45.20142" lon="6.45703">
        <ele>1163</ele>
        <time>2012-07-07T11:29:44Z</time>
      </trkpt>
      <trkpt lat="45.20147" lon="6.4571">
        <ele>1163</ele>
        <time>2012-07-07T11:29:49Z</time>
      </trkpt>
      <trkpt lat="45.20153" lon="6.45721">
        <ele>1163</ele>
        <time>2012-07-07T11:29:54Z</time>
      </trkpt>
      <trkpt lat="45.20163" lon="6.45732">
        <ele>1162</ele>
        <time>2012-07-07T11:29:59Z</time>
      </trkpt>
      <trkpt lat="45.20171" lon="6.45741">
        <ele>1150</ele>
        <time>2012-07-07T11:30:04Z</time>
      </trkpt>
      <trkpt lat="45.20179" lon="6.45749">
        <ele>1148</ele>
        <time>2012-07-07T11:30:09Z</time>
      </trkpt>
      <trkpt lat="45.2019" lon="6.45757">
        <ele>1156</ele>
        <time>2012-07-07T11:30:14Z</time>
      </trkpt>
      <trkpt lat="45.20206" lon="6.4577">
        <ele>1154</ele>
        <time>2012-07-07T11:30:19Z</time>
      </trkpt>
      <trkpt lat="45.20215" lon="6.4578">
        <ele>1153</ele>
        <time>2012-07-07T11:30:24Z</time>
      </trkpt>
      <trkpt lat="45.20224" lon="6.45796">
        <ele>1154</ele>
        <time>2012-07-07T11:30:29Z</time>
      </trkpt>
      <trkpt lat="45.2023" lon="6.45807">
        <ele>1154</ele>
        <time>2012-07-07T11:30:34Z</time>
      </trkpt>
      <trkpt lat="45.20237" lon="6.45823">
        <ele>1153</ele>
        <time>2012-07-07T11:30:39Z</time>
      </trkpt>
      <trkpt lat="45.20244" lon="6.45838">
        <ele>1159</ele>
        <time>2012-07-07T11:30:44Z</time>
      </trkpt>
      <trkpt lat="45.2025" lon="6.45854">
        <ele>1169</ele>
        <time>2012-07-07T11:30:49Z</time>
      </trkpt>
      <trkpt lat="45.20259" lon="6.45868">
        <ele>1149</ele>
        <time>2012-07-07T11:30:54Z</time>
      </trkpt>
      <trkpt lat="45.20268" lon="6.45882">
        <ele>1151</ele>
        <time>2012-07-07T11:30:59Z</time>
      </trkpt>
      <trkpt lat="45.20275" lon="6.45896">
        <ele>1153</ele>
        <time>2012-07-07T11:31:04Z</time>
      </trkpt>
      <trkpt lat="45.20283" lon="6.4591">
        <ele>1153</ele>
        <time>2012-07-07T11:31:09Z</time>
      </trkpt>
      <trkpt lat="45.20293" lon="6.45926">
        <ele>1163</ele>
        <time>2012-07-07T11:31:14Z</time>
      </trkpt>
      <trkpt lat="45.20299" lon="6.45938">
        <ele>1162</ele>
        <time>2012-07-07T11:31:19Z</time>
      </trkpt>
      <trkpt lat="45.20308" lon="6.45956">
        <ele>1162</ele>
        <time>2012-07-07T11:31:24Z</time>
      </trkpt>
      <trkpt lat="45.20313" lon="6.45968">
        <ele>1162</ele>
        <time>2012-07-07T11:31:29Z</time>
      </trkpt>
      <trkpt lat="45.20317" lon="6.45986">
        <ele>1162</ele>
        <time>2012-07-07T11:31:34Z</time>
      </trkpt>
      <trkpt lat="45.2032" lon="6.46002">
        <ele>1167</ele>
        <time>2012-07-07T11:31:39Z</time>
      </trkpt>
      <trkpt lat="45.20321" lon="6.46024">
        <ele>1172</ele>
        <time>2012-07-07T11:31:44Z</time>
      </trkpt>
      <trkpt lat="45.2032" lon="6.46038">
        <ele>1176</ele>
        <time>2012-07-07T11:31:49Z</time>
      </trkpt>
      <trkpt lat="45.20322" lon="6.46055">
        <ele>1177</ele>
        <time>2012-07-07T11:31:54Z</time>
      </trkpt>
      <trkpt lat="45.20326" lon="6.46071">
        <ele>1176</ele>
        <time>2012-07-07T11:31:59Z</time>
      </trkpt>
      <trkpt lat="45.20329" lon="6.46086">
        <ele>1177</ele>
        <time>2012-07-07T11:32:04Z</time>
      </trkpt>
      <trkpt lat="45.20336" lon="6.46105">
        <ele>1166</ele>
        <time>2012-07-07T11:32:09Z</time>
      </trkpt>
      <trkpt lat="45.2034" lon="6.46118">
        <ele>1166</ele>
        <time>2012-07-07T11:32:14Z</time>
      </trkpt>
      <trkpt lat="45.20347" lon="6.46136">
        <ele>1167</ele>
        <time>2012-07-07T11:32:19Z</time>
      </trkpt>
      <trkpt lat="45.20351" lon="6.46148">
        <ele>1169</ele>
        <time>2012-07-07T11:32:24Z</time>
      </trkpt>
      <trkpt lat="45.20351" lon="6.46165">
        <ele>1172</ele>
        <time>2012-07-07T11:32:29Z</time>
      </trkpt>
      <trkpt lat="45.2035" lon="6.46181">
        <ele>1174</ele>
        <time>2012-07-07T11:32:34Z</time>
      </trkpt>
      <trkpt lat="45.20351" lon="6.46198">
        <ele>1172</ele>
        <time>2012-07-07T11:32:39Z</time>
      </trkpt>
      <trkpt lat="45.20353" lon="6.46213">
        <ele>1172</ele>
        <time>2012-07-07T11:32:44Z</time>
      </trkpt>
      <trkpt lat="45.20355" lon="6.46228">
        <ele>1173</ele>
        <time>2012-07-07T11:32:49Z</time>
      </trkpt>
      <trkpt lat="45.20358" lon="6.46247">
        <ele>1174</ele>
        <time>2012-07-07T11:32:54Z</time>
      </trkpt>
      <trkpt lat="45.20359" lon="6.4626">
        <ele>1170</ele>
        <time>2012-07-07T11:32:59Z</time>
      </trkpt>
      <trkpt lat="45.20358" lon="6.4628">
        <ele>1167</ele>
        <time>2012-07-07T11:33:04Z</time>
      </trkpt>
      <trkpt lat="45.20356" lon="6.46293">
        <ele>1166</ele>
        <time>2012-07-07T11:33:09Z</time>
      </trkpt>
      <trkpt lat="45.20349" lon="6.46309">
        <ele>1167</ele>
        <time>2012-07-07T11:33:14Z</time>
      </trkpt>
      <trkpt lat="45.20337" lon="6.4632">
        <ele>1172</ele>
        <time>2012-07-07T11:33:19Z</time>
      </trkpt>
      <trkpt lat="45.20325" lon="6.46326">
        <ele>1188</ele>
        <time>2012-07-07T11:33:24Z</time>
      </trkpt>
      <trkpt lat="45.20313" lon="6.46332">
        <ele>1193</ele>
        <time>2012-07-07T11:33:29Z</time>
      </trkpt>
      <trkpt lat="45.20301" lon="6.46339">
        <ele>1186</ele>
        <time>2012-07-07T11:33:34Z</time>
      </trkpt>
      <trkpt lat="45.20289" lon="6.46346">
        <ele>1189</ele>
        <time>2012-07-07T11:33:39Z</time>
      </trkpt>
      <trkpt lat="45.20276" lon="6.46359">
        <ele>1190</ele>
        <time>2012-07-07T11:33:44Z</time>
      </trkpt>
      <trkpt lat="45.20262" lon="6.46379">
        <ele>1189</ele>
        <time>2012-07-07T11:33:49Z</time>
      </trkpt>
      <trkpt lat="45.20253" lon="6.46393">
        <ele>1187</ele>
        <time>2012-07-07T11:33:54Z</time>
      </trkpt>
      <trkpt lat="45.20243" lon="6.4641">
        <ele>1198</ele>
        <time>2012-07-07T11:33:59Z</time>
      </trkpt>
      <trkpt lat="45.20233" lon="6.46428">
        <ele>1197</ele>
        <time>2012-07-07T11:34:04Z</time>
      </trkpt>
      <trkpt lat="45.20221" lon="6.46449">
        <ele>1201</ele>
        <time>2012-07-07T11:34:09Z</time>
      </trkpt>
      <trkpt lat="45.20213" lon="6.46463">
        <ele>1202</ele>
        <time>2012-07-07T11:34:14Z</time>
      </trkpt>
      <trkpt lat="45.20205" lon="6.46478">
        <ele>1204</ele>
        <time>2012-07-07T11:34:19Z</time>
      </trkpt>
      <trkpt lat="45.20198" lon="6.46492">
        <ele>1205</ele>
        <time>2012-07-07T11:34:24Z</time>
      </trkpt>
      <trkpt lat="45.20191" lon="6.46506">
        <ele>1204</ele>
        <time>2012-07-07T11:34:29Z</time>
      </trkpt>
      <trkpt lat="45.20185" lon="6.46522">
        <ele>1204</ele>
        <time>2012-07-07T11:34:34Z</time>
      </trkpt>
      <trkpt lat="45.20181" lon="6.46539">
        <ele>1203</ele>
        <time>2012-07-07T11:34:39Z</time>
      </trkpt>
      <trkpt lat="45.20177" lon="6.46558">
        <ele>1204</ele>
        <time>2012-07-07T11:34:44Z</time>
      </trkpt>
      <trkpt lat="45.20176" lon="6.46571">
        <ele>1206</ele>
        <time>2012-07-07T11:34:49Z</time>
      </trkpt>
      <trkpt lat="45.20173" lon="6.46588">
        <ele>1207</ele>
        <time>2012-07-07T11:34:54Z</time>
      </trkpt>
      <trkpt lat="45.20171" lon="6.466">
        <ele>1203</ele>
        <time>2012-07-07T11:34:59Z</time>
      </trkpt>
      <trkpt lat="45.20169" lon="6.46614">
        <ele>1199</ele>
        <time>2012-07-07T11:35:04Z</time>
      </trkpt>
      <trkpt lat="45.20168" lon="6.46629">
        <ele>1197</ele>
        <time>2012-07-07T11:35:09Z</time>
      </trkpt>
      <trkpt lat="45.20161" lon="6.46643">
        <ele>1220</ele>
        <time>2012-07-07T11:35:14Z</time>
      </trkpt>
      <trkpt lat="45.20154" lon="6.46658">
        <ele>1216</ele>
        <time>2012-07-07T11:35:19Z</time>
      </trkpt>
      <trkpt lat="45.20147" lon="6.46669">
        <ele>1208</ele>
        <time>2012-07-07T11:35:24Z</time>
      </trkpt>
      <trkpt lat="45.20141" lon="6.46681">
        <ele>1209</ele>
        <time>2012-07-07T11:35:29Z</time>
      </trkpt>
      <trkpt lat="45.20133" lon="6.46691">
        <ele>1210</ele>
        <time>2012-07-07T11:35:34Z</time>
      </trkpt>
      <trkpt lat="45.20124" lon="6.46703">
        <ele>1211</ele>
        <time>2012-07-07T11:35:39Z</time>
      </trkpt>
      <trkpt lat="45.20117" lon="6.4671">
        <ele>1211</ele>
        <time>2012-07-07T11:35:44Z</time>
      </trkpt>
      <trkpt lat="45.20106" lon="6.46721">
        <ele>1211</ele>
        <time>2012-07-07T11:35:49Z</time>
      </trkpt>
      <trkpt lat="45.20099" lon="6.46729">
        <ele>1211</ele>
        <time>2012-07-07T11:35:54Z</time>
      </trkpt>
      <trkpt lat="45.2009" lon="6.46739">
        <ele>1211</ele>
        <time>2012-07-07T11:35:59Z</time>
      </trkpt>
      <trkpt lat="45.2008" lon="6.46746">
        <ele>1216</ele>
        <time>2012-07-07T11:36:04Z</time>
      </trkpt>
      <trkpt lat="45.20066" lon="6.46751">
        <ele>1209</ele>
        <time>2012-07-07T11:36:09Z</time>
      </trkpt>
      <trkpt lat="45.20057" lon="6.46751">
        <ele>1210</ele>
        <time>2012-07-07T11:36:14Z</time>
      </trkpt>
      <trkpt lat="45.20045" lon="6.46752">
        <ele>1212</ele>
        <time>2012-07-07T11:36:19Z</time>
      </trkpt>
      <trkpt lat="45.20033" lon="6.46754">
        <ele>1215</ele>
        <time>2012-07-07T11:36:24Z</time>
      </trkpt>
      <trkpt lat="45.20021" lon="6.46758">
        <ele>1219</ele>
        <time>2012-07-07T11:36:29Z</time>
      </trkpt>
      <trkpt lat="45.20007" lon="6.46764">
        <ele>1223</ele>
        <time>2012-07-07T11:36:34Z</time>
      </trkpt>
      <trkpt lat="45.19997" lon="6.46768">
        <ele>1232</ele>
        <time>2012-07-07T11:36:39Z</time>
      </trkpt>
      <trkpt lat="45.19983" lon="6.46774">
        <ele>1230</ele>
        <time>2012-07-07T11:36:44Z</time>
      </trkpt>
      <trkpt lat="45.19973" lon="6.46778">
        <ele>1230</ele>
        <time>2012-07-07T11:36:49Z</time>
      </trkpt>
      <trkpt lat="45.19961" lon="6.46783">
        <ele>1230</ele>
        <time>2012-07-07T11:36:54Z</time>
      </trkpt>
      <trkpt lat="45.19948" lon="6.46789">
        <ele>1230</ele>
        <time>2012-07-07T11:36:59Z</time>
      </trkpt>
      <trkpt lat="45.19938" lon="6.46802">
        <ele>1228</ele>
        <time>2012-07-07T11:37:04Z</time>
      </trkpt>
      <trkpt lat="45.19928" lon="6.46812">
        <ele>1227</ele>
        <time>2012-07-07T11:37:09Z</time>
      </trkpt>
      <trkpt lat="45.19915" lon="6.46819">
        <ele>1233</ele>
        <time>2012-07-07T11:37:14Z</time>
      </trkpt>
      <trkpt lat="45.199" lon="6.46818">
        <ele>1237</ele>
        <time>2012-07-07T11:37:19Z</time>
      </trkpt>
      <trkpt lat="45.19892" lon="6.46816">
        <ele>1239</ele>
        <time>2012-07-07T11:37:24Z</time>
      </trkpt>
      <trkpt lat="45.19877" lon="6.46808">
        <ele>1242</ele>
        <time>2012-07-07T11:37:29Z</time>
      </trkpt>
      <trkpt lat="45.19867" lon="6.46803">
        <ele>1244</ele>
        <time>2012-07-07T11:37:34Z</time>
      </trkpt>
      <trkpt lat="45.19855" lon="6.46803">
        <ele>1245</ele>
        <time>2012-07-07T11:37:39Z</time>
      </trkpt>
      <trkpt lat="45.19846" lon="6.46807">
        <ele>1245</ele>
        <time>2012-07-07T11:37:44Z</time>
      </trkpt>
      <trkpt lat="45.19833" lon="6.46818">
        <ele>1253</ele>
        <time>2012-07-07T11:37:49Z</time>
      </trkpt>
      <trkpt lat="45.19825" lon="6.46829">
        <ele>1249</ele>
        <time>2012-07-07T11:37:54Z</time>
      </trkpt>
      <trkpt lat="45.19817" lon="6.46844">
        <ele>1246</ele>
        <time>2012-07-07T11:37:59Z</time>
      </trkpt>
      <trkpt lat="45.19809" lon="6.46857">
        <ele>1247</ele>
        <time>2012-07-07T11:38:04Z</time>
      </trkpt>
      <trkpt lat="45.19801" lon="6.4687">
        <ele>1247</ele>
        <time>2012-07-07T11:38:09Z</time>
      </trkpt>
      <trkpt lat="45.19794" lon="6.46888">
        <ele>1247</ele>
        <time>2012-07-07T11:38:14Z</time>
      </trkpt>
      <trkpt lat="45.19791" lon="6.46902">
        <ele>1246</ele>
        <time>2012-07-07T11:38:19Z</time>
      </trkpt>
      <trkpt lat="45.19788" lon="6.46922">
        <ele>1235</ele>
        <time>2012-07-07T11:38:24Z</time>
      </trkpt>
      <trkpt lat="45.19787" lon="6.46936">
        <ele>1234</ele>
        <time>2012-07-07T11:38:29Z</time>
      </trkpt>
      <trkpt lat="45.19782" lon="6.46951">
        <ele>1233</ele>
        <time>2012-07-07T11:38:34Z</time>
      </trkpt>
      <trkpt lat="45.1977" lon="6.46948">
        <ele>1235</ele>
        <time>2012-07-07T11:38:39Z</time>
      </trkpt>
      <trkpt lat="45.19768" lon="6.46928">
        <ele>1240</ele>
        <time>2012-07-07T11:38:44Z</time>
      </trkpt>
      <trkpt lat="45.19772" lon="6.46915">
        <ele>1249</ele>
        <time>2012-07-07T11:38:49Z</time>
      </trkpt>
      <trkpt lat="45.19778" lon="6.46899">
        <ele>1249</ele>
        <time>2012-07-07T11:38:54Z</time>
      </trkpt>
      <trkpt lat="45.19782" lon="6.46882">
        <ele>1249</ele>
        <time>2012-07-07T11:38:59Z</time>
      </trkpt>
      <trkpt lat="45.19787" lon="6.46866">
        <ele>1250</ele>
        <time>2012-07-07T11:39:04Z</time>
      </trkpt>
      <trkpt lat="45.19794" lon="6.46847">
        <ele>1251</ele>
        <time>2012-07-07T11:39:09Z</time>
      </trkpt>
      <trkpt lat="45.19798" lon="6.46836">
        <ele>1250</ele>
        <time>2012-07-07T11:39:14Z</time>
      </trkpt>
      <trkpt lat="45.19806" lon="6.46819">
        <ele>1260</ele>
        <time>2012-07-07T11:39:19Z</time>
      </trkpt>
      <trkpt lat="45.19812" lon="6.46808">
        <ele>1260</ele>
        <time>2012-07-07T11:39:24Z</time>
      </trkpt>
      <trkpt lat="45.1982" lon="6.46794">
        <ele>1262</ele>
        <time>2012-07-07T11:39:29Z</time>
      </trkpt>
      <trkpt lat="45.19827" lon="6.46779">
        <ele>1263</ele>
        <time>2012-07-07T11:39:34Z</time>
      </trkpt>
      <trkpt lat="45.19835" lon="6.46763">
        <ele>1256</ele>
        <time>2012-07-07T11:39:39Z</time>
      </trkpt>
      <trkpt lat="45.19842" lon="6.46753">
        <ele>1258</ele>
        <time>2012-07-07T11:39:44Z</time>
      </trkpt>
      <trkpt lat="45.19853" lon="6.46744">
        <ele>1268</ele>
        <time>2012-07-07T11:39:49Z</time>
      </trkpt>
      <trkpt lat="45.19865" lon="6.46739">
        <ele>1269</ele>
        <time>2012-07-07T11:39:54Z</time>
      </trkpt>
      <trkpt lat="45.19876" lon="6.46735">
        <ele>1269</ele>
        <time>2012-07-07T11:39:59Z</time>
      </trkpt>
      <trkpt lat="45.19889" lon="6.46729">
        <ele>1268</ele>
        <time>2012-07-07T11:40:04Z</time>
      </trkpt>
      <trkpt lat="45.19898" lon="6.46727">
        <ele>1267</ele>
        <time>2012-07-07T11:40:09Z</time>
      </trkpt>
      <trkpt lat="45.19911" lon="6.46724">
        <ele>1267</ele>
        <time>2012-07-07T11:40:14Z</time>
      </trkpt>
      <trkpt lat="45.1992" lon="6.46722">
        <ele>1259</ele>
        <time>2012-07-07T11:40:19Z</time>
      </trkpt>
      <trkpt lat="45.19934" lon="6.4672">
        <ele>1259</ele>
        <time>2012-07-07T11:40:24Z</time>
      </trkpt>
      <trkpt lat="45.19946" lon="6.46711">
        <ele>1260</ele>
        <time>2012-07-07T11:40:29Z</time>
      </trkpt>
      <trkpt lat="45.19951" lon="6.46693">
        <ele>1262</ele>
        <time>2012-07-07T11:40:34Z</time>
      </trkpt>
      <trkpt lat="45.19943" lon="6.46683">
        <ele>1265</ele>
        <time>2012-07-07T11:40:39Z</time>
      </trkpt>
      <trkpt lat="45.19926" lon="6.46688">
        <ele>1268</ele>
        <time>2012-07-07T11:40:44Z</time>
      </trkpt>
      <trkpt lat="45.1991" lon="6.46693">
        <ele>1274</ele>
        <time>2012-07-07T11:40:49Z</time>
      </trkpt>
      <trkpt lat="45.19896" lon="6.46696">
        <ele>1274</ele>
        <time>2012-07-07T11:40:54Z</time>
      </trkpt>
      <trkpt lat="45.19879" lon="6.46695">
        <ele>1275</ele>
        <time>2012-07-07T11:40:59Z</time>
      </trkpt>
      <trkpt lat="45.19868" lon="6.46693">
        <ele>1276</ele>
        <time>2012-07-07T11:41:04Z</time>
      </trkpt>
      <trkpt lat="45.19854" lon="6.46694">
        <ele>1278</ele>
        <time>2012-07-07T11:41:09Z</time>
      </trkpt>
      <trkpt lat="45.19845" lon="6.46696">
        <ele>1278</ele>
        <time>2012-07-07T11:41:14Z</time>
      </trkpt>
      <trkpt lat="45.19833" lon="6.46702">
        <ele>1287</ele>
        <time>2012-07-07T11:41:19Z</time>
      </trkpt>
      <trkpt lat="45.19823" lon="6.4671">
        <ele>1286</ele>
        <time>2012-07-07T11:41:24Z</time>
      </trkpt>
      <trkpt lat="45.19812" lon="6.46717">
        <ele>1285</ele>
        <time>2012-07-07T11:41:29Z</time>
      </trkpt>
      <trkpt lat="45.19802" lon="6.46727">
        <ele>1285</ele>
        <time>2012-07-07T11:41:34Z</time>
      </trkpt>
      <trkpt lat="45.19793" lon="6.46741">
        <ele>1285</ele>
        <time>2012-07-07T11:41:39Z</time>
      </trkpt>
      <trkpt lat="45.19783" lon="6.46756">
        <ele>1272</ele>
        <time>2012-07-07T11:41:44Z</time>
      </trkpt>
      <trkpt lat="45.19776" lon="6.46765">
        <ele>1274</ele>
        <time>2012-07-07T11:41:49Z</time>
      </trkpt>
      <trkpt lat="45.19766" lon="6.46778">
        <ele>1273</ele>
        <time>2012-07-07T11:41:54Z</time>
      </trkpt>
      <trkpt lat="45.1976" lon="6.46788">
        <ele>1272</ele>
        <time>2012-07-07T11:41:59Z</time>
      </trkpt>
      <trkpt lat="45.19753" lon="6.46798">
        <ele>1271</ele>
        <time>2012-07-07T11:42:04Z</time>
      </trkpt>
      <trkpt lat="45.19742" lon="6.4681">
        <ele>1285</ele>
        <time>2012-07-07T11:42:09Z</time>
      </trkpt>
      <trkpt lat="45.19732" lon="6.46821">
        <ele>1284</ele>
        <time>2012-07-07T11:42:14Z</time>
      </trkpt>
      <trkpt lat="45.19719" lon="6.46828">
        <ele>1287</ele>
        <time>2012-07-07T11:42:19Z</time>
      </trkpt>
      <trkpt lat="45.19706" lon="6.46831">
        <ele>1289</ele>
        <time>2012-07-07T11:42:24Z</time>
      </trkpt>
      <trkpt lat="45.19694" lon="6.46832">
        <ele>1291</ele>
        <time>2012-07-07T11:42:29Z</time>
      </trkpt>
      <trkpt lat="45.19682" lon="6.46833">
        <ele>1292</ele>
        <time>2012-07-07T11:42:34Z</time>
      </trkpt>
      <trkpt lat="45.19668" lon="6.46836">
        <ele>1290</ele>
        <time>2012-07-07T11:42:39Z</time>
      </trkpt>
      <trkpt lat="45.19658" lon="6.46838">
        <ele>1293</ele>
        <time>2012-07-07T11:42:44Z</time>
      </trkpt>
      <trkpt lat="45.19644" lon="6.46844">
        <ele>1294</ele>
        <time>2012-07-07T11:42:49Z</time>
      </trkpt>
      <trkpt lat="45.19635" lon="6.46848">
        <ele>1296</ele>
        <time>2012-07-07T11:42:54Z</time>
      </trkpt>
      <trkpt lat="45.19622" lon="6.46856">
        <ele>1297</ele>
        <time>2012-07-07T11:42:59Z</time>
      </trkpt>
      <trkpt lat="45.19615" lon="6.46864">
        <ele>1298</ele>
        <time>2012-07-07T11:43:04Z</time>
      </trkpt>
      <trkpt lat="45.19603" lon="6.46872">
        <ele>1298</ele>
        <time>2012-07-07T11:43:09Z</time>
      </trkpt>
      <trkpt lat="45.19592" lon="6.46865">
        <ele>1301</ele>
        <time>2012-07-07T11:43:14Z</time>
      </trkpt>
      <trkpt lat="45.19592" lon="6.4685">
        <ele>1304</ele>
        <time>2012-07-07T11:43:19Z</time>
      </trkpt>
      <trkpt lat="45.19605" lon="6.46843">
        <ele>1302</ele>
        <time>2012-07-07T11:43:24Z</time>
      </trkpt>
      <trkpt lat="45.1962" lon="6.46841">
        <ele>1299</ele>
        <time>2012-07-07T11:43:29Z</time>
      </trkpt>
      <trkpt lat="45.19636" lon="6.46828">
        <ele>1309</ele>
        <time>2012-07-07T11:43:34Z</time>
      </trkpt>
      <trkpt lat="45.19646" lon="6.46817">
        <ele>1307</ele>
        <time>2012-07-07T11:43:39Z</time>
      </trkpt>
      <trkpt lat="45.19661" lon="6.46799">
        <ele>1310</ele>
        <time>2012-07-07T11:43:44Z</time>
      </trkpt>
      <trkpt lat="45.1967" lon="6.46789">
        <ele>1298</ele>
        <time>2012-07-07T11:43:49Z</time>
      </trkpt>
      <trkpt lat="45.19681" lon="6.46776">
        <ele>1300</ele>
        <time>2012-07-07T11:43:54Z</time>
      </trkpt>
      <trkpt lat="45.19692" lon="6.46763">
        <ele>1300</ele>
        <time>2012-07-07T11:43:59Z</time>
      </trkpt>
      <trkpt lat="45.19701" lon="6.46747">
        <ele>1313</ele>
        <time>2012-07-07T11:44:04Z</time>
      </trkpt>
      <trkpt lat="45.1971" lon="6.46732">
        <ele>1312</ele>
        <time>2012-07-07T11:44:09Z</time>
      </trkpt>
      <trkpt lat="45.19722" lon="6.4672">
        <ele>1312</ele>
        <time>2012-07-07T11:44:14Z</time>
      </trkpt>
      <trkpt lat="45.19728" lon="6.46705">
        <ele>1313</ele>
        <time>2012-07-07T11:44:19Z</time>
      </trkpt>
      <trkpt lat="45.19724" lon="6.46688">
        <ele>1316</ele>
        <time>2012-07-07T11:44:24Z</time>
      </trkpt>
      <trkpt lat="45.19709" lon="6.46685">
        <ele>1319</ele>
        <time>2012-07-07T11:44:29Z</time>
      </trkpt>
      <trkpt lat="45.19701" lon="6.46695">
        <ele>1319</ele>
        <time>2012-07-07T11:44:34Z</time>
      </trkpt>
      <trkpt lat="45.1969" lon="6.46714">
        <ele>1318</ele>
        <time>2012-07-07T11:44:39Z</time>
      </trkpt>
      <trkpt lat="45.19683" lon="6.46725">
        <ele>1317</ele>
        <time>2012-07-07T11:44:44Z</time>
      </trkpt>
      <trkpt lat="45.19673" lon="6.46737">
        <ele>1316</ele>
        <time>2012-07-07T11:44:49Z</time>
      </trkpt>
      <trkpt lat="45.19661" lon="6.46746">
        <ele>1322</ele>
        <time>2012-07-07T11:44:54Z</time>
      </trkpt>
      <trkpt lat="45.19648" lon="6.46754">
        <ele>1317</ele>
        <time>2012-07-07T11:44:59Z</time>
      </trkpt>
      <trkpt lat="45.19634" lon="6.46762">
        <ele>1318</ele>
        <time>2012-07-07T11:45:04Z</time>
      </trkpt>
      <trkpt lat="45.1962" lon="6.46772">
        <ele>1319</ele>
        <time>2012-07-07T11:45:09Z</time>
      </trkpt>
      <trkpt lat="45.19606" lon="6.46782">
        <ele>1320</ele>
        <time>2012-07-07T11:45:14Z</time>
      </trkpt>
      <trkpt lat="45.19593" lon="6.46791">
        <ele>1319</ele>
        <time>2012-07-07T11:45:19Z</time>
      </trkpt>
      <trkpt lat="45.19578" lon="6.46804">
        <ele>1329</ele>
        <time>2012-07-07T11:45:24Z</time>
      </trkpt>
      <trkpt lat="45.1957" lon="6.46814">
        <ele>1328</ele>
        <time>2012-07-07T11:45:29Z</time>
      </trkpt>
      <trkpt lat="45.19556" lon="6.46829">
        <ele>1328</ele>
        <time>2012-07-07T11:45:34Z</time>
      </trkpt>
      <trkpt lat="45.19547" lon="6.46839">
        <ele>1318</ele>
        <time>2012-07-07T11:45:39Z</time>
      </trkpt>
      <trkpt lat="45.19533" lon="6.46849">
        <ele>1319</ele>
        <time>2012-07-07T11:45:44Z</time>
      </trkpt>
      <trkpt lat="45.19523" lon="6.46853">
        <ele>1320</ele>
        <time>2012-07-07T11:45:49Z</time>
      </trkpt>
      <trkpt lat="45.19511" lon="6.46861">
        <ele>1320</ele>
        <time>2012-07-07T11:45:54Z</time>
      </trkpt>
      <trkpt lat="45.19499" lon="6.4687">
        <ele>1324</ele>
        <time>2012-07-07T11:45:59Z</time>
      </trkpt>
      <trkpt lat="45.19488" lon="6.46882">
        <ele>1322</ele>
        <time>2012-07-07T11:46:04Z</time>
      </trkpt>
      <trkpt lat="45.19476" lon="6.46891">
        <ele>1321</ele>
        <time>2012-07-07T11:46:09Z</time>
      </trkpt>
      <trkpt lat="45.19464" lon="6.46895">
        <ele>1320</ele>
        <time>2012-07-07T11:46:14Z</time>
      </trkpt>
      <trkpt lat="45.19449" lon="6.46885">
        <ele>1321</ele>
        <time>2012-07-07T11:46:19Z</time>
      </trkpt>
      <trkpt lat="45.1944" lon="6.46876">
        <ele>1322</ele>
        <time>2012-07-07T11:46:24Z</time>
      </trkpt>
      <trkpt lat="45.19427" lon="6.46861">
        <ele>1325</ele>
        <time>2012-07-07T11:46:29Z</time>
      </trkpt>
      <trkpt lat="45.19419" lon="6.46851">
        <ele>1327</ele>
        <time>2012-07-07T11:46:34Z</time>
      </trkpt>
      <trkpt lat="45.19406" lon="6.46838">
        <ele>1330</ele>
        <time>2012-07-07T11:46:39Z</time>
      </trkpt>
      <trkpt lat="45.19395" lon="6.46829">
        <ele>1340</ele>
        <time>2012-07-07T11:46:44Z</time>
      </trkpt>
      <trkpt lat="45.19384" lon="6.46824">
        <ele>1342</ele>
        <time>2012-07-07T11:46:49Z</time>
      </trkpt>
      <trkpt lat="45.19373" lon="6.46825">
        <ele>1343</ele>
        <time>2012-07-07T11:46:54Z</time>
      </trkpt>
      <trkpt lat="45.19358" lon="6.46825">
        <ele>1342</ele>
        <time>2012-07-07T11:46:59Z</time>
      </trkpt>
      <trkpt lat="45.1934" lon="6.46829">
        <ele>1339</ele>
        <time>2012-07-07T11:47:04Z</time>
      </trkpt>
      <trkpt lat="45.19329" lon="6.46825">
        <ele>1344</ele>
        <time>2012-07-07T11:47:09Z</time>
      </trkpt>
      <trkpt lat="45.19328" lon="6.46805">
        <ele>1354</ele>
        <time>2012-07-07T11:47:14Z</time>
      </trkpt>
      <trkpt lat="45.19343" lon="6.46802">
        <ele>1345</ele>
        <time>2012-07-07T11:47:19Z</time>
      </trkpt>
      <trkpt lat="45.19362" lon="6.46802">
        <ele>1345</ele>
        <time>2012-07-07T11:47:24Z</time>
      </trkpt>
      <trkpt lat="45.19372" lon="6.46801">
        <ele>1345</ele>
        <time>2012-07-07T11:47:29Z</time>
      </trkpt>
      <trkpt lat="45.19385" lon="6.46801">
        <ele>1345</ele>
        <time>2012-07-07T11:47:34Z</time>
      </trkpt>
      <trkpt lat="45.19399" lon="6.46802">
        <ele>1344</ele>
        <time>2012-07-07T11:47:39Z</time>
      </trkpt>
      <trkpt lat="45.19413" lon="6.46801">
        <ele>1344</ele>
        <time>2012-07-07T11:47:44Z</time>
      </trkpt>
      <trkpt lat="45.19426" lon="6.46799">
        <ele>1343</ele>
        <time>2012-07-07T11:47:49Z</time>
      </trkpt>
      <trkpt lat="45.1944" lon="6.46797">
        <ele>1344</ele>
        <time>2012-07-07T11:47:54Z</time>
      </trkpt>
      <trkpt lat="45.19456" lon="6.46787">
        <ele>1345</ele>
        <time>2012-07-07T11:47:59Z</time>
      </trkpt>
      <trkpt lat="45.19466" lon="6.4678">
        <ele>1346</ele>
        <time>2012-07-07T11:48:04Z</time>
      </trkpt>
      <trkpt lat="45.19484" lon="6.46771">
        <ele>1348</ele>
        <time>2012-07-07T11:48:09Z</time>
      </trkpt>
      <trkpt lat="45.19495" lon="6.46765">
        <ele>1350</ele>
        <time>2012-07-07T11:48:14Z</time>
      </trkpt>
      <trkpt lat="45.1951" lon="6.4676">
        <ele>1347</ele>
        <time>2012-07-07T11:48:19Z</time>
      </trkpt>
      <trkpt lat="45.19526" lon="6.46754">
        <ele>1343</ele>
        <time>2012-07-07T11:48:24Z</time>
      </trkpt>
      <trkpt lat="45.19535" lon="6.46736">
        <ele>1357</ele>
        <time>2012-07-07T11:48:29Z</time>
      </trkpt>
      <trkpt lat="45.19541" lon="6.46715">
        <ele>1359</ele>
        <time>2012-07-07T11:48:34Z</time>
      </trkpt>
      <trkpt lat="45.19547" lon="6.46699">
        <ele>1360</ele>
        <time>2012-07-07T11:48:39Z</time>
      </trkpt>
      <trkpt lat="45.19563" lon="6.46688">
        <ele>1361</ele>
        <time>2012-07-07T11:48:44Z</time>
      </trkpt>
      <trkpt lat="45.19579" lon="6.46682">
        <ele>1361</ele>
        <time>2012-07-07T11:48:49Z</time>
      </trkpt>
      <trkpt lat="45.19593" lon="6.46672">
        <ele>1355</ele>
        <time>2012-07-07T11:48:54Z</time>
      </trkpt>
      <trkpt lat="45.19604" lon="6.46667">
        <ele>1351</ele>
        <time>2012-07-07T11:48:59Z</time>
      </trkpt>
      <trkpt lat="45.19619" lon="6.46657">
        <ele>1361</ele>
        <time>2012-07-07T11:49:04Z</time>
      </trkpt>
      <trkpt lat="45.19629" lon="6.46648">
        <ele>1360</ele>
        <time>2012-07-07T11:49:09Z</time>
      </trkpt>
      <trkpt lat="45.1964" lon="6.46636">
        <ele>1360</ele>
        <time>2012-07-07T11:49:14Z</time>
      </trkpt>
      <trkpt lat="45.19651" lon="6.46624">
        <ele>1360</ele>
        <time>2012-07-07T11:49:19Z</time>
      </trkpt>
      <trkpt lat="45.19661" lon="6.4661">
        <ele>1362</ele>
        <time>2012-07-07T11:49:24Z</time>
      </trkpt>
      <trkpt lat="45.19667" lon="6.46591">
        <ele>1357</ele>
        <time>2012-07-07T11:49:29Z</time>
      </trkpt>
      <trkpt lat="45.1967" lon="6.46572">
        <ele>1362</ele>
        <time>2012-07-07T11:49:34Z</time>
      </trkpt>
      <trkpt lat="45.19673" lon="6.46552">
        <ele>1362</ele>
        <time>2012-07-07T11:49:39Z</time>
      </trkpt>
      <trkpt lat="45.19676" lon="6.46532">
        <ele>1365</ele>
        <time>2012-07-07T11:49:44Z</time>
      </trkpt>
      <trkpt lat="45.19679" lon="6.46509">
        <ele>1369</ele>
        <time>2012-07-07T11:49:49Z</time>
      </trkpt>
      <trkpt lat="45.19681" lon="6.46494">
        <ele>1379</ele>
        <time>2012-07-07T11:49:54Z</time>
      </trkpt>
      <trkpt lat="45.19687" lon="6.46474">
        <ele>1381</ele>
        <time>2012-07-07T11:49:59Z</time>
      </trkpt>
      <trkpt lat="45.19696" lon="6.46459">
        <ele>1383</ele>
        <time>2012-07-07T11:50:04Z</time>
      </trkpt>
      <trkpt lat="45.1971" lon="6.46451">
        <ele>1382</ele>
        <time>2012-07-07T11:50:09Z</time>
      </trkpt>
      <trkpt lat="45.19723" lon="6.46445">
        <ele>1382</ele>
        <time>2012-07-07T11:50:14Z</time>
      </trkpt>
      <trkpt lat="45.19737" lon="6.46439">
        <ele>1382</ele>
        <time>2012-07-07T11:50:19Z</time>
      </trkpt>
      <trkpt lat="45.19749" lon="6.46434">
        <ele>1383</ele>
        <time>2012-07-07T11:50:24Z</time>
      </trkpt>
      <trkpt lat="45.19762" lon="6.46429">
        <ele>1378</ele>
        <time>2012-07-07T11:50:29Z</time>
      </trkpt>
      <trkpt lat="45.19774" lon="6.46427">
        <ele>1377</ele>
        <time>2012-07-07T11:50:34Z</time>
      </trkpt>
      <trkpt lat="45.19786" lon="6.46426">
        <ele>1375</ele>
        <time>2012-07-07T11:50:39Z</time>
      </trkpt>
      <trkpt lat="45.19802" lon="6.46429">
        <ele>1375</ele>
        <time>2012-07-07T11:50:44Z</time>
      </trkpt>
      <trkpt lat="45.19813" lon="6.4643">
        <ele>1375</ele>
        <time>2012-07-07T11:50:49Z</time>
      </trkpt>
      <trkpt lat="45.19825" lon="6.46419">
        <ele>1379</ele>
        <time>2012-07-07T11:50:54Z</time>
      </trkpt>
      <trkpt lat="45.19834" lon="6.46402">
        <ele>1383</ele>
        <time>2012-07-07T11:50:59Z</time>
      </trkpt>
      <trkpt lat="45.19841" lon="6.46384">
        <ele>1385</ele>
        <time>2012-07-07T11:51:04Z</time>
      </trkpt>
      <trkpt lat="45.19847" lon="6.46366">
        <ele>1388</ele>
        <time>2012-07-07T11:51:09Z</time>
      </trkpt>
      <trkpt lat="45.19854" lon="6.46347">
        <ele>1392</ele>
        <time>2012-07-07T11:51:14Z</time>
      </trkpt>
      <trkpt lat="45.19861" lon="6.46328">
        <ele>1402</ele>
        <time>2012-07-07T11:51:19Z</time>
      </trkpt>
      <trkpt lat="45.19865" lon="6.46308">
        <ele>1401</ele>
        <time>2012-07-07T11:51:24Z</time>
      </trkpt>
      <trkpt lat="45.19871" lon="6.46286">
        <ele>1402</ele>
        <time>2012-07-07T11:51:29Z</time>
      </trkpt>
      <trkpt lat="45.19876" lon="6.46272">
        <ele>1402</ele>
        <time>2012-07-07T11:51:34Z</time>
      </trkpt>
      <trkpt lat="45.19886" lon="6.46251">
        <ele>1400</ele>
        <time>2012-07-07T11:51:39Z</time>
      </trkpt>
      <trkpt lat="45.19893" lon="6.46236">
        <ele>1407</ele>
        <time>2012-07-07T11:51:44Z</time>
      </trkpt>
      <trkpt lat="45.19901" lon="6.46219">
        <ele>1408</ele>
        <time>2012-07-07T11:51:49Z</time>
      </trkpt>
      <trkpt lat="45.19912" lon="6.46206">
        <ele>1409</ele>
        <time>2012-07-07T11:51:54Z</time>
      </trkpt>
      <trkpt lat="45.19921" lon="6.46195">
        <ele>1390</ele>
        <time>2012-07-07T11:51:59Z</time>
      </trkpt>
      <trkpt lat="45.19931" lon="6.46185">
        <ele>1391</ele>
        <time>2012-07-07T11:52:04Z</time>
      </trkpt>
      <trkpt lat="45.19936" lon="6.46168">
        <ele>1393</ele>
        <time>2012-07-07T11:52:09Z</time>
      </trkpt>
      <trkpt lat="45.19933" lon="6.4615">
        <ele>1397</ele>
        <time>2012-07-07T11:52:14Z</time>
      </trkpt>
      <trkpt lat="45.19929" lon="6.46133">
        <ele>1396</ele>
        <time>2012-07-07T11:52:19Z</time>
      </trkpt>
      <trkpt lat="45.19924" lon="6.46113">
        <ele>1397</ele>
        <time>2012-07-07T11:52:24Z</time>
      </trkpt>
      <trkpt lat="45.19921" lon="6.46099">
        <ele>1400</ele>
        <time>2012-07-07T11:52:29Z</time>
      </trkpt>
      <trkpt lat="45.19915" lon="6.46079">
        <ele>1409</ele>
        <time>2012-07-07T11:52:34Z</time>
      </trkpt>
      <trkpt lat="45.19911" lon="6.46066">
        <ele>1411</ele>
        <time>2012-07-07T11:52:39Z</time>
      </trkpt>
      <trkpt lat="45.19902" lon="6.46046">
        <ele>1411</ele>
        <time>2012-07-07T11:52:44Z</time>
      </trkpt>
      <trkpt lat="45.19896" lon="6.46034">
        <ele>1410</ele>
        <time>2012-07-07T11:52:49Z</time>
      </trkpt>
      <trkpt lat="45.19886" lon="6.46021">
        <ele>1410</ele>
        <time>2012-07-07T11:52:54Z</time>
      </trkpt>
      <trkpt lat="45.19876" lon="6.46009">
        <ele>1413</ele>
        <time>2012-07-07T11:52:59Z</time>
      </trkpt>
      <trkpt lat="45.19864" lon="6.45997">
        <ele>1402</ele>
        <time>2012-07-07T11:53:04Z</time>
      </trkpt>
      <trkpt lat="45.19855" lon="6.45986">
        <ele>1404</ele>
        <time>2012-07-07T11:53:09Z</time>
      </trkpt>
      <trkpt lat="45.19844" lon="6.45975">
        <ele>1403</ele>
        <time>2012-07-07T11:53:14Z</time>
      </trkpt>
      <trkpt lat="45.1983" lon="6.45963">
        <ele>1418</ele>
        <time>2012-07-07T11:53:19Z</time>
      </trkpt>
      <trkpt lat="45.1982" lon="6.45955">
        <ele>1416</ele>
        <time>2012-07-07T11:53:24Z</time>
      </trkpt>
      <trkpt lat="45.19804" lon="6.45939">
        <ele>1415</ele>
        <time>2012-07-07T11:53:29Z</time>
      </trkpt>
      <trkpt lat="45.19792" lon="6.4593">
        <ele>1415</ele>
        <time>2012-07-07T11:53:34Z</time>
      </trkpt>
      <trkpt lat="45.19778" lon="6.45918">
        <ele>1416</ele>
        <time>2012-07-07T11:53:39Z</time>
      </trkpt>
      <trkpt lat="45.19762" lon="6.4591">
        <ele>1402</ele>
        <time>2012-07-07T11:53:44Z</time>
      </trkpt>
      <trkpt lat="45.19745" lon="6.45908">
        <ele>1413</ele>
        <time>2012-07-07T11:53:49Z</time>
      </trkpt>
      <trkpt lat="45.19727" lon="6.45906">
        <ele>1413</ele>
        <time>2012-07-07T11:53:54Z</time>
      </trkpt>
      <trkpt lat="45.1971" lon="6.45902">
        <ele>1414</ele>
        <time>2012-07-07T11:53:59Z</time>
      </trkpt>
      <trkpt lat="45.19693" lon="6.45899">
        <ele>1417</ele>
        <time>2012-07-07T11:54:04Z</time>
      </trkpt>
      <trkpt lat="45.19678" lon="6.45896">
        <ele>1421</ele>
        <time>2012-07-07T11:54:09Z</time>
      </trkpt>
      <trkpt lat="45.19666" lon="6.45891">
        <ele>1435</ele>
        <time>2012-07-07T11:54:14Z</time>
      </trkpt>
      <trkpt lat="45.19663" lon="6.45888">
        <ele>1434</ele>
        <time>2012-07-07T11:54:19Z</time>
      </trkpt>
      <trkpt lat="45.19647" lon="6.45883">
        <ele>1435</ele>
        <time>2012-07-07T11:54:24Z</time>
      </trkpt>
      <trkpt lat="45.19635" lon="6.45875">
        <ele>1435</ele>
        <time>2012-07-07T11:54:29Z</time>
      </trkpt>
      <trkpt lat="45.19623" lon="6.45869">
        <ele>1436</ele>
        <time>2012-07-07T11:54:34Z</time>
      </trkpt>
      <trkpt lat="45.19613" lon="6.45863">
        <ele>1436</ele>
        <time>2012-07-07T11:54:39Z</time>
      </trkpt>
      <trkpt lat="45.19605" lon="6.45854">
        <ele>1435</ele>
        <time>2012-07-07T11:54:44Z</time>
      </trkpt>
      <trkpt lat="45.19598" lon="6.45844">
        <ele>1434</ele>
        <time>2012-07-07T11:54:49Z</time>
      </trkpt>
      <trkpt lat="45.19591" lon="6.45832">
        <ele>1424</ele>
        <time>2012-07-07T11:54:54Z</time>
      </trkpt>
      <trkpt lat="45.19578" lon="6.45823">
        <ele>1433</ele>
        <time>2012-07-07T11:54:59Z</time>
      </trkpt>
      <trkpt lat="45.19565" lon="6.45822">
        <ele>1434</ele>
        <time>2012-07-07T11:55:04Z</time>
      </trkpt>
      <trkpt lat="45.19548" lon="6.45821">
        <ele>1438</ele>
        <time>2012-07-07T11:55:09Z</time>
      </trkpt>
      <trkpt lat="45.19536" lon="6.45816">
        <ele>1440</ele>
        <time>2012-07-07T11:55:14Z</time>
      </trkpt>
      <trkpt lat="45.19518" lon="6.45807">
        <ele>1443</ele>
        <time>2012-07-07T11:55:19Z</time>
      </trkpt>
      <trkpt lat="45.19504" lon="6.45804">
        <ele>1445</ele>
        <time>2012-07-07T11:55:24Z</time>
      </trkpt>
      <trkpt lat="45.1949" lon="6.45802">
        <ele>1470</ele>
        <time>2012-07-07T11:55:29Z</time>
      </trkpt>
      <trkpt lat="45.1948" lon="6.45801">
        <ele>1472</ele>
        <time>2012-07-07T11:55:34Z</time>
      </trkpt>
      <trkpt lat="45.19473" lon="6.45801">
        <ele>1474</ele>
        <time>2012-07-07T11:55:39Z</time>
      </trkpt>
      <trkpt lat="45.1946" lon="6.45791">
        <ele>1477</ele>
        <time>2012-07-07T11:55:44Z</time>
      </trkpt>
      <trkpt lat="45.19462" lon="6.45778">
        <ele>1475</ele>
        <time>2012-07-07T11:55:49Z</time>
      </trkpt>
      <trkpt lat="45.19468" lon="6.4576">
        <ele>1470</ele>
        <time>2012-07-07T11:55:54Z</time>
      </trkpt>
      <trkpt lat="45.19473" lon="6.45747">
        <ele>1462</ele>
        <time>2012-07-07T11:55:59Z</time>
      </trkpt>
      <trkpt lat="45.19477" lon="6.45726">
        <ele>1461</ele>
        <time>2012-07-07T11:56:04Z</time>
      </trkpt>
      <trkpt lat="45.19479" lon="6.45711">
        <ele>1461</ele>
        <time>2012-07-07T11:56:09Z</time>
      </trkpt>
      <trkpt lat="45.19478" lon="6.45689">
        <ele>1458</ele>
        <time>2012-07-07T11:56:14Z</time>
      </trkpt>
      <trkpt lat="45.19474" lon="6.45675">
        <ele>1458</ele>
        <time>2012-07-07T11:56:19Z</time>
      </trkpt>
      <trkpt lat="45.19469" lon="6.45658">
        <ele>1457</ele>
        <time>2012-07-07T11:56:24Z</time>
      </trkpt>
      <trkpt lat="45.19461" lon="6.45642">
        <ele>1461</ele>
        <time>2012-07-07T11:56:29Z</time>
      </trkpt>
      <trkpt lat="45.19453" lon="6.45624">
        <ele>1464</ele>
        <time>2012-07-07T11:56:34Z</time>
      </trkpt>
      <trkpt lat="45.19451" lon="6.4561">
        <ele>1464</ele>
        <time>2012-07-07T11:56:39Z</time>
      </trkpt>
      <trkpt lat="45.19452" lon="6.45592">
        <ele>1464</ele>
        <time>2012-07-07T11:56:44Z</time>
      </trkpt>
      <trkpt lat="45.19456" lon="6.45574">
        <ele>1461</ele>
        <time>2012-07-07T11:56:49Z</time>
      </trkpt>
      <trkpt lat="45.19458" lon="6.45556">
        <ele>1461</ele>
        <time>2012-07-07T11:56:54Z</time>
      </trkpt>
      <trkpt lat="45.19458" lon="6.45534">
        <ele>1461</ele>
        <time>2012-07-07T11:56:59Z</time>
      </trkpt>
      <trkpt lat="45.19455" lon="6.4552">
        <ele>1462</ele>
        <time>2012-07-07T11:57:04Z</time>
      </trkpt>
      <trkpt lat="45.19451" lon="6.45499">
        <ele>1463</ele>
        <time>2012-07-07T11:57:09Z</time>
      </trkpt>
      <trkpt lat="45.19452" lon="6.45483">
        <ele>1462</ele>
        <time>2012-07-07T11:57:14Z</time>
      </trkpt>
      <trkpt lat="45.19447" lon="6.45467">
        <ele>1462</ele>
        <time>2012-07-07T11:57:19Z</time>
      </trkpt>
      <trkpt lat="45.19441" lon="6.45452">
        <ele>1462</ele>
        <time>2012-07-07T11:57:24Z</time>
      </trkpt>
      <trkpt lat="45.19431" lon="6.45434">
        <ele>1464</ele>
        <time>2012-07-07T11:57:29Z</time>
      </trkpt>
      <trkpt lat="45.19424" lon="6.45424">
        <ele>1468</ele>
        <time>2012-07-07T11:57:34Z</time>
      </trkpt>
      <trkpt lat="45.19416" lon="6.45411">
        <ele>1475</ele>
        <time>2012-07-07T11:57:39Z</time>
      </trkpt>
      <trkpt lat="45.19405" lon="6.45395">
        <ele>1482</ele>
        <time>2012-07-07T11:57:44Z</time>
      </trkpt>
      <trkpt lat="45.19402" lon="6.45381">
        <ele>1483</ele>
        <time>2012-07-07T11:57:49Z</time>
      </trkpt>
      <trkpt lat="45.19396" lon="6.45362">
        <ele>1482</ele>
        <time>2012-07-07T11:57:54Z</time>
      </trkpt>
      <trkpt lat="45.19391" lon="6.45347">
        <ele>1481</ele>
        <time>2012-07-07T11:57:59Z</time>
      </trkpt>
      <trkpt lat="45.19383" lon="6.45325">
        <ele>1479</ele>
        <time>2012-07-07T11:58:04Z</time>
      </trkpt>
      <trkpt lat="45.19373" lon="6.45314">
        <ele>1483</ele>
        <time>2012-07-07T11:58:09Z</time>
      </trkpt>
      <trkpt lat="45.19362" lon="6.453">
        <ele>1487</ele>
        <time>2012-07-07T11:58:14Z</time>
      </trkpt>
      <trkpt lat="45.19356" lon="6.45283">
        <ele>1488</ele>
        <time>2012-07-07T11:58:19Z</time>
      </trkpt>
      <trkpt lat="45.19355" lon="6.45265">
        <ele>1489</ele>
        <time>2012-07-07T11:58:24Z</time>
      </trkpt>
      <trkpt lat="45.19355" lon="6.45247">
        <ele>1492</ele>
        <time>2012-07-07T11:58:29Z</time>
      </trkpt>
      <trkpt lat="45.19355" lon="6.4523">
        <ele>1491</ele>
        <time>2012-07-07T11:58:34Z</time>
      </trkpt>
      <trkpt lat="45.19357" lon="6.4521">
        <ele>1489</ele>
        <time>2012-07-07T11:58:39Z</time>
      </trkpt>
      <trkpt lat="45.19359" lon="6.45196">
        <ele>1490</ele>
        <time>2012-07-07T11:58:44Z</time>
      </trkpt>
      <trkpt lat="45.19364" lon="6.45175">
        <ele>1490</ele>
        <time>2012-07-07T11:58:49Z</time>
      </trkpt>
      <trkpt lat="45.19367" lon="6.45162">
        <ele>1494</ele>
        <time>2012-07-07T11:58:54Z</time>
      </trkpt>
      <trkpt lat="45.19372" lon="6.45145">
        <ele>1493</ele>
        <time>2012-07-07T11:58:59Z</time>
      </trkpt>
      <trkpt lat="45.19379" lon="6.45129">
        <ele>1492</ele>
        <time>2012-07-07T11:59:04Z</time>
      </trkpt>
      <trkpt lat="45.19386" lon="6.45115">
        <ele>1492</ele>
        <time>2012-07-07T11:59:09Z</time>
      </trkpt>
      <trkpt lat="45.19392" lon="6.451">
        <ele>1490</ele>
        <time>2012-07-07T11:59:14Z</time>
      </trkpt>
      <trkpt lat="45.194" lon="6.45087">
        <ele>1487</ele>
        <time>2012-07-07T11:59:19Z</time>
      </trkpt>
      <trkpt lat="45.19408" lon="6.45073">
        <ele>1489</ele>
        <time>2012-07-07T11:59:24Z</time>
      </trkpt>
      <trkpt lat="45.19416" lon="6.4506">
        <ele>1492</ele>
        <time>2012-07-07T11:59:29Z</time>
      </trkpt>
      <trkpt lat="45.19425" lon="6.45043">
        <ele>1482</ele>
        <time>2012-07-07T11:59:34Z</time>
      </trkpt>
      <trkpt lat="45.19433" lon="6.45033">
        <ele>1483</ele>
        <time>2012-07-07T11:59:39Z</time>
      </trkpt>
      <trkpt lat="45.19442" lon="6.45016">
        <ele>1484</ele>
        <time>2012-07-07T11:59:44Z</time>
      </trkpt>
      <trkpt lat="45.19448" lon="6.45004">
        <ele>1484</ele>
        <time>2012-07-07T11:59:49Z</time>
      </trkpt>
      <trkpt lat="45.19456" lon="6.4499">
        <ele>1490</ele>
        <time>2012-07-07T11:59:54Z</time>
      </trkpt>
      <trkpt lat="45.19464" lon="6.44975">
        <ele>1490</ele>
        <time>2012-07-07T11:59:59Z</time>
      </trkpt>
      <trkpt lat="45.19471" lon="6.44961">
        <ele>1490</ele>
        <time>2012-07-07T12:00:04Z</time>
      </trkpt>
      <trkpt lat="45.19478" lon="6.44947">
        <ele>1491</ele>
        <time>2012-07-07T12:00:09Z</time>
      </trkpt>
      <trkpt lat="45.19486" lon="6.44932">
        <ele>1492</ele>
        <time>2012-07-07T12:00:14Z</time>
      </trkpt>
      <trkpt lat="45.19494" lon="6.44911">
        <ele>1495</ele>
        <time>2012-07-07T12:00:19Z</time>
      </trkpt>
      <trkpt lat="45.19497" lon="6.44898">
        <ele>1498</ele>
        <time>2012-07-07T12:00:24Z</time>
      </trkpt>
      <trkpt lat="45.195" lon="6.44877">
        <ele>1488</ele>
        <time>2012-07-07T12:00:29Z</time>
      </trkpt>
      <trkpt lat="45.19501" lon="6.44863">
        <ele>1490</ele>
        <time>2012-07-07T12:00:34Z</time>
      </trkpt>
      <trkpt lat="45.19501" lon="6.44845">
        <ele>1495</ele>
        <time>2012-07-07T12:00:39Z</time>
      </trkpt>
      <trkpt lat="45.195" lon="6.44827">
        <ele>1506</ele>
        <time>2012-07-07T12:00:44Z</time>
      </trkpt>
      <trkpt lat="45.195" lon="6.44807">
        <ele>1513</ele>
        <time>2012-07-07T12:00:49Z</time>
      </trkpt>
      <trkpt lat="45.19502" lon="6.44793">
        <ele>1503</ele>
        <time>2012-07-07T12:00:54Z</time>
      </trkpt>
      <trkpt lat="45.19506" lon="6.44777">
        <ele>1506</ele>
        <time>2012-07-07T12:00:59Z</time>
      </trkpt>
      <trkpt lat="45.19514" lon="6.44762">
        <ele>1509</ele>
        <time>2012-07-07T12:01:04Z</time>
      </trkpt>
      <trkpt lat="45.19523" lon="6.4475">
        <ele>1520</ele>
        <time>2012-07-07T12:01:09Z</time>
      </trkpt>
      <trkpt lat="45.19535" lon="6.44735">
        <ele>1520</ele>
        <time>2012-07-07T12:01:14Z</time>
      </trkpt>
      <trkpt lat="45.19544" lon="6.44727">
        <ele>1519</ele>
        <time>2012-07-07T12:01:19Z</time>
      </trkpt>
      <trkpt lat="45.19559" lon="6.44717">
        <ele>1519</ele>
        <time>2012-07-07T12:01:24Z</time>
      </trkpt>
      <trkpt lat="45.19568" lon="6.4471">
        <ele>1519</ele>
        <time>2012-07-07T12:01:29Z</time>
      </trkpt>
      <trkpt lat="45.19581" lon="6.44699">
        <ele>1520</ele>
        <time>2012-07-07T12:01:34Z</time>
      </trkpt>
      <trkpt lat="45.19592" lon="6.44686">
        <ele>1513</ele>
        <time>2012-07-07T12:01:39Z</time>
      </trkpt>
      <trkpt lat="45.19601" lon="6.44673">
        <ele>1514</ele>
        <time>2012-07-07T12:01:44Z</time>
      </trkpt>
      <trkpt lat="45.19609" lon="6.44655">
        <ele>1530</ele>
        <time>2012-07-07T12:01:49Z</time>
      </trkpt>
      <trkpt lat="45.19616" lon="6.44637">
        <ele>1533</ele>
        <time>2012-07-07T12:01:54Z</time>
      </trkpt>
      <trkpt lat="45.19625" lon="6.44625">
        <ele>1534</ele>
        <time>2012-07-07T12:01:59Z</time>
      </trkpt>
      <trkpt lat="45.19637" lon="6.44618">
        <ele>1535</ele>
        <time>2012-07-07T12:02:04Z</time>
      </trkpt>
      <trkpt lat="45.19651" lon="6.44609">
        <ele>1536</ele>
        <time>2012-07-07T12:02:09Z</time>
      </trkpt>
      <trkpt lat="45.19661" lon="6.44603">
        <ele>1537</ele>
        <time>2012-07-07T12:02:14Z</time>
      </trkpt>
      <trkpt lat="45.19676" lon="6.446">
        <ele>1528</ele>
        <time>2012-07-07T12:02:19Z</time>
      </trkpt>
      <trkpt lat="45.19685" lon="6.446">
        <ele>1526</ele>
        <time>2012-07-07T12:02:24Z</time>
      </trkpt>
      <trkpt lat="45.19697" lon="6.44598">
        <ele>1524</ele>
        <time>2012-07-07T12:02:29Z</time>
      </trkpt>
      <trkpt lat="45.19708" lon="6.44601">
        <ele>1522</ele>
        <time>2012-07-07T12:02:34Z</time>
      </trkpt>
      <trkpt lat="45.1972" lon="6.44601">
        <ele>1520</ele>
        <time>2012-07-07T12:02:39Z</time>
      </trkpt>
      <trkpt lat="45.19731" lon="6.44599">
        <ele>1521</ele>
        <time>2012-07-07T12:02:44Z</time>
      </trkpt>
      <trkpt lat="45.19744" lon="6.44598">
        <ele>1521</ele>
        <time>2012-07-07T12:02:49Z</time>
      </trkpt>
      <trkpt lat="45.19757" lon="6.44606">
        <ele>1515</ele>
        <time>2012-07-07T12:02:54Z</time>
      </trkpt>
      <trkpt lat="45.19766" lon="6.44591">
        <ele>1518</ele>
        <time>2012-07-07T12:02:59Z</time>
      </trkpt>
      <trkpt lat="45.19777" lon="6.44586">
        <ele>1516</ele>
        <time>2012-07-07T12:03:04Z</time>
      </trkpt>
      <trkpt lat="45.19789" lon="6.44581">
        <ele>1546</ele>
        <time>2012-07-07T12:03:09Z</time>
      </trkpt>
      <trkpt lat="45.19803" lon="6.44575">
        <ele>1546</ele>
        <time>2012-07-07T12:03:14Z</time>
      </trkpt>
      <trkpt lat="45.19813" lon="6.4457">
        <ele>1545</ele>
        <time>2012-07-07T12:03:19Z</time>
      </trkpt>
      <trkpt lat="45.19825" lon="6.44565">
        <ele>1544</ele>
        <time>2012-07-07T12:03:24Z</time>
      </trkpt>
      <trkpt lat="45.19838" lon="6.44561">
        <ele>1547</ele>
        <time>2012-07-07T12:03:29Z</time>
      </trkpt>
      <trkpt lat="45.19851" lon="6.44557">
        <ele>1550</ele>
        <time>2012-07-07T12:03:34Z</time>
      </trkpt>
      <trkpt lat="45.19863" lon="6.44558">
        <ele>1552</ele>
        <time>2012-07-07T12:03:39Z</time>
      </trkpt>
      <trkpt lat="45.19875" lon="6.44564">
        <ele>1552</ele>
        <time>2012-07-07T12:03:44Z</time>
      </trkpt>
      <trkpt lat="45.19887" lon="6.4457">
        <ele>1551</ele>
        <time>2012-07-07T12:03:49Z</time>
      </trkpt>
      <trkpt lat="45.19898" lon="6.44578">
        <ele>1549</ele>
        <time>2012-07-07T12:03:54Z</time>
      </trkpt>
      <trkpt lat="45.19913" lon="6.44586">
        <ele>1536</ele>
        <time>2012-07-07T12:03:59Z</time>
      </trkpt>
      <trkpt lat="45.19922" lon="6.44592">
        <ele>1535</ele>
        <time>2012-07-07T12:04:04Z</time>
      </trkpt>
      <trkpt lat="45.19934" lon="6.44598">
        <ele>1531</ele>
        <time>2012-07-07T12:04:09Z</time>
      </trkpt>
      <trkpt lat="45.19946" lon="6.446">
        <ele>1529</ele>
        <time>2012-07-07T12:04:14Z</time>
      </trkpt>
      <trkpt lat="45.19956" lon="6.44591">
        <ele>1530</ele>
        <time>2012-07-07T12:04:19Z</time>
      </trkpt>
      <trkpt lat="45.19963" lon="6.44575">
        <ele>1552</ele>
        <time>2012-07-07T12:04:24Z</time>
      </trkpt>
      <trkpt lat="45.19968" lon="6.44559">
        <ele>1555</ele>
        <time>2012-07-07T12:04:29Z</time>
      </trkpt>
      <trkpt lat="45.19976" lon="6.44544">
        <ele>1558</ele>
        <time>2012-07-07T12:04:34Z</time>
      </trkpt>
      <trkpt lat="45.19983" lon="6.44529">
        <ele>1562</ele>
        <time>2012-07-07T12:04:39Z</time>
      </trkpt>
      <trkpt lat="45.19996" lon="6.44516">
        <ele>1567</ele>
        <time>2012-07-07T12:04:44Z</time>
      </trkpt>
      <trkpt lat="45.20008" lon="6.44517">
        <ele>1564</ele>
        <time>2012-07-07T12:04:49Z</time>
      </trkpt>
      <trkpt lat="45.20024" lon="6.44521">
        <ele>1561</ele>
        <time>2012-07-07T12:04:54Z</time>
      </trkpt>
      <trkpt lat="45.20037" lon="6.44525">
        <ele>1559</ele>
        <time>2012-07-07T12:04:59Z</time>
      </trkpt>
      <trkpt lat="45.20053" lon="6.44529">
        <ele>1559</ele>
        <time>2012-07-07T12:05:04Z</time>
      </trkpt>
      <trkpt lat="45.20068" lon="6.44539">
        <ele>1556</ele>
        <time>2012-07-07T12:05:09Z</time>
      </trkpt>
      <trkpt lat="45.20084" lon="6.44555">
        <ele>1551</ele>
        <time>2012-07-07T12:05:14Z</time>
      </trkpt>
      <trkpt lat="45.20095" lon="6.44564">
        <ele>1549</ele>
        <time>2012-07-07T12:05:19Z</time>
      </trkpt>
      <trkpt lat="45.2011" lon="6.44559">
        <ele>1552</ele>
        <time>2012-07-07T12:05:24Z</time>
      </trkpt>
      <trkpt lat="45.20122" lon="6.44546">
        <ele>1555</ele>
        <time>2012-07-07T12:05:29Z</time>
      </trkpt>
      <trkpt lat="45.20134" lon="6.44534">
        <ele>1558</ele>
        <time>2012-07-07T12:05:34Z</time>
      </trkpt>
      <trkpt lat="45.20151" lon="6.44532">
        <ele>1559</ele>
        <time>2012-07-07T12:05:39Z</time>
      </trkpt>
      <trkpt lat="45.20162" lon="6.44534">
        <ele>1558</ele>
        <time>2012-07-07T12:05:44Z</time>
      </trkpt>
      <trkpt lat="45.20179" lon="6.44534">
        <ele>1557</ele>
        <time>2012-07-07T12:05:49Z</time>
      </trkpt>
      <trkpt lat="45.20189" lon="6.44531">
        <ele>1558</ele>
        <time>2012-07-07T12:05:54Z</time>
      </trkpt>
      <trkpt lat="45.20202" lon="6.44524">
        <ele>1558</ele>
        <time>2012-07-07T12:05:59Z</time>
      </trkpt>
      <trkpt lat="45.20214" lon="6.44516">
        <ele>1558</ele>
        <time>2012-07-07T12:06:04Z</time>
      </trkpt>
      <trkpt lat="45.20226" lon="6.44507">
        <ele>1558</ele>
        <time>2012-07-07T12:06:09Z</time>
      </trkpt>
      <trkpt lat="45.20238" lon="6.44499">
        <ele>1563</ele>
        <time>2012-07-07T12:06:14Z</time>
      </trkpt>
      <trkpt lat="45.20249" lon="6.4449">
        <ele>1563</ele>
        <time>2012-07-07T12:06:19Z</time>
      </trkpt>
      <trkpt lat="45.2026" lon="6.44482">
        <ele>1563</ele>
        <time>2012-07-07T12:06:24Z</time>
      </trkpt>
      <trkpt lat="45.20268" lon="6.4447">
        <ele>1563</ele>
        <time>2012-07-07T12:06:29Z</time>
      </trkpt>
      <trkpt lat="45.20266" lon="6.44448">
        <ele>1564</ele>
        <time>2012-07-07T12:06:34Z</time>
      </trkpt>
      <trkpt lat="45.20257" lon="6.44437">
        <ele>1563</ele>
        <time>2012-07-07T12:06:39Z</time>
      </trkpt>
      <trkpt lat="45.20245" lon="6.44426">
        <ele>1564</ele>
        <time>2012-07-07T12:06:44Z</time>
      </trkpt>
      <trkpt lat="45.20234" lon="6.44418">
        <ele>1565</ele>
        <time>2012-07-07T12:06:49Z</time>
      </trkpt>
      <trkpt lat="45.20215" lon="6.44411">
        <ele>1555</ele>
        <time>2012-07-07T12:06:54Z</time>
      </trkpt>
      <trkpt lat="45.20193" lon="6.44403">
        <ele>1556</ele>
        <time>2012-07-07T12:06:59Z</time>
      </trkpt>
      <trkpt lat="45.20173" lon="6.44394">
        <ele>1557</ele>
        <time>2012-07-07T12:07:04Z</time>
      </trkpt>
      <trkpt lat="45.20148" lon="6.44385">
        <ele>1557</ele>
        <time>2012-07-07T12:07:09Z</time>
      </trkpt>
      <trkpt lat="45.20113" lon="6.44395">
        <ele>1560</ele>
        <time>2012-07-07T12:07:14Z</time>
      </trkpt>
      <trkpt lat="45.20076" lon="6.44385">
        <ele>1566</ele>
        <time>2012-07-07T12:07:19Z</time>
      </trkpt>
      <trkpt lat="45.20025" lon="6.44359">
        <ele>1563</ele>
        <time>2012-07-07T12:07:24Z</time>
      </trkpt>
      <trkpt lat="45.19969" lon="6.44336">
        <ele>1573</ele>
        <time>2012-07-07T12:07:29Z</time>
      </trkpt>
      <trkpt lat="45.19934" lon="6.4432">
        <ele>1558</ele>
        <time>2012-07-07T12:07:34Z</time>
      </trkpt>
      <trkpt lat="45.19894" lon="6.443">
        <ele>1567</ele>
        <time>2012-07-07T12:07:39Z</time>
      </trkpt>
      <trkpt lat="45.19873" lon="6.44289">
        <ele>1567</ele>
        <time>2012-07-07T12:07:44Z</time>
      </trkpt>
      <trkpt lat="45.19849" lon="6.44275">
        <ele>1565</ele>
        <time>2012-07-07T12:07:49Z</time>
      </trkpt>
      <trkpt lat="45.19827" lon="6.44264">
        <ele>1570</ele>
        <time>2012-07-07T12:07:54Z</time>
      </trkpt>
      <trkpt lat="45.19803" lon="6.44256">
        <ele>1576</ele>
        <time>2012-07-07T12:07:59Z</time>
      </trkpt>
      <trkpt lat="45.19778" lon="6.44252">
        <ele>1580</ele>
        <time>2012-07-07T12:08:04Z</time>
      </trkpt>
      <trkpt lat="45.19753" lon="6.44247">
        <ele>1569</ele>
        <time>2012-07-07T12:08:09Z</time>
      </trkpt>
      <trkpt lat="45.19727" lon="6.44238">
        <ele>1559</ele>
        <time>2012-07-07T12:08:14Z</time>
      </trkpt>
      <trkpt lat="45.19699" lon="6.44228">
        <ele>1556</ele>
        <time>2012-07-07T12:08:19Z</time>
      </trkpt>
      <trkpt lat="45.19664" lon="6.44229">
        <ele>1564</ele>
        <time>2012-07-07T12:08:24Z</time>
      </trkpt>
      <trkpt lat="45.1964" lon="6.44234">
        <ele>1564</ele>
        <time>2012-07-07T12:08:29Z</time>
      </trkpt>
      <trkpt lat="45.19609" lon="6.44233">
        <ele>1568</ele>
        <time>2012-07-07T12:08:34Z</time>
      </trkpt>
      <trkpt lat="45.19575" lon="6.44224">
        <ele>1575</ele>
        <time>2012-07-07T12:08:39Z</time>
      </trkpt>
      <trkpt lat="45.19535" lon="6.44203">
        <ele>1567</ele>
        <time>2012-07-07T12:08:44Z</time>
      </trkpt>
      <trkpt lat="45.19506" lon="6.44189">
        <ele>1559</ele>
        <time>2012-07-07T12:08:49Z</time>
      </trkpt>
      <trkpt lat="45.19467" lon="6.44182">
        <ele>1569</ele>
        <time>2012-07-07T12:08:54Z</time>
      </trkpt>
      <trkpt lat="45.19426" lon="6.44183">
        <ele>1569</ele>
        <time>2012-07-07T12:08:59Z</time>
      </trkpt>
      <trkpt lat="45.19386" lon="6.44177">
        <ele>1581</ele>
        <time>2012-07-07T12:09:04Z</time>
      </trkpt>
      <trkpt lat="45.19336" lon="6.44149">
        <ele>1553</ele>
        <time>2012-07-07T12:09:09Z</time>
      </trkpt>
      <trkpt lat="45.19304" lon="6.44132">
        <ele>1559</ele>
        <time>2012-07-07T12:09:14Z</time>
      </trkpt>
      <trkpt lat="45.19263" lon="6.44091">
        <ele>1554</ele>
        <time>2012-07-07T12:09:19Z</time>
      </trkpt>
      <trkpt lat="45.19231" lon="6.44068">
        <ele>1540</ele>
        <time>2012-07-07T12:09:24Z</time>
      </trkpt>
      <trkpt lat="45.19186" lon="6.44057">
        <ele>1542</ele>
        <time>2012-07-07T12:09:29Z</time>
      </trkpt>
      <trkpt lat="45.19139" lon="6.44051">
        <ele>1549</ele>
        <time>2012-07-07T12:09:34Z</time>
      </trkpt>
      <trkpt lat="45.19094" lon="6.44039">
        <ele>1546</ele>
        <time>2012-07-07T12:09:39Z</time>
      </trkpt>
      <trkpt lat="45.19051" lon="6.44039">
        <ele>1549</ele>
        <time>2012-07-07T12:09:44Z</time>
      </trkpt>
      <trkpt lat="45.19007" lon="6.44049">
        <ele>1554</ele>
        <time>2012-07-07T12:09:49Z</time>
      </trkpt>
      <trkpt lat="45.18964" lon="6.44051">
        <ele>1562</ele>
        <time>2012-07-07T12:09:54Z</time>
      </trkpt>
      <trkpt lat="45.18922" lon="6.44032">
        <ele>1558</ele>
        <time>2012-07-07T12:09:59Z</time>
      </trkpt>
      <trkpt lat="45.18879" lon="6.43997">
        <ele>1539</ele>
        <time>2012-07-07T12:10:04Z</time>
      </trkpt>
      <trkpt lat="45.18849" lon="6.43983">
        <ele>1545</ele>
        <time>2012-07-07T12:10:09Z</time>
      </trkpt>
      <trkpt lat="45.18803" lon="6.43967">
        <ele>1548</ele>
        <time>2012-07-07T12:10:14Z</time>
      </trkpt>
      <trkpt lat="45.18771" lon="6.43956">
        <ele>1546</ele>
        <time>2012-07-07T12:10:19Z</time>
      </trkpt>
      <trkpt lat="45.1873" lon="6.43944">
        <ele>1547</ele>
        <time>2012-07-07T12:10:24Z</time>
      </trkpt>
      <trkpt lat="45.18688" lon="6.43937">
        <ele>1546</ele>
        <time>2012-07-07T12:10:29Z</time>
      </trkpt>
      <trkpt lat="45.18639" lon="6.43928">
        <ele>1549</ele>
        <time>2012-07-07T12:10:34Z</time>
      </trkpt>
      <trkpt lat="45.18609" lon="6.43914">
        <ele>1536</ele>
        <time>2012-07-07T12:10:39Z</time>
      </trkpt>
      <trkpt lat="45.18573" lon="6.43893">
        <ele>1541</ele>
        <time>2012-07-07T12:10:44Z</time>
      </trkpt>
      <trkpt lat="45.18541" lon="6.43865">
        <ele>1538</ele>
        <time>2012-07-07T12:10:49Z</time>
      </trkpt>
      <trkpt lat="45.18507" lon="6.43842">
        <ele>1535</ele>
        <time>2012-07-07T12:10:54Z</time>
      </trkpt>
      <trkpt lat="45.18463" lon="6.43831">
        <ele>1529</ele>
        <time>2012-07-07T12:10:59Z</time>
      </trkpt>
      <trkpt lat="45.18433" lon="6.43832">
        <ele>1531</ele>
        <time>2012-07-07T12:11:04Z</time>
      </trkpt>
      <trkpt lat="45.18388" lon="6.43841">
        <ele>1535</ele>
        <time>2012-07-07T12:11:09Z</time>
      </trkpt>
      <trkpt lat="45.18363" lon="6.43858">
        <ele>1534</ele>
        <time>2012-07-07T12:11:14Z</time>
      </trkpt>
      <trkpt lat="45.18335" lon="6.43888">
        <ele>1537</ele>
        <time>2012-07-07T12:11:19Z</time>
      </trkpt>
      <trkpt lat="45.183" lon="6.43896">
        <ele>1532</ele>
        <time>2012-07-07T12:11:24Z</time>
      </trkpt>
      <trkpt lat="45.18263" lon="6.43887">
        <ele>1531</ele>
        <time>2012-07-07T12:11:29Z</time>
      </trkpt>
      <trkpt lat="45.18225" lon="6.43894">
        <ele>1526</ele>
        <time>2012-07-07T12:11:34Z</time>
      </trkpt>
      <trkpt lat="45.18181" lon="6.43913">
        <ele>1524</ele>
        <time>2012-07-07T12:11:39Z</time>
      </trkpt>
      <trkpt lat="45.18134" lon="6.43934">
        <ele>1530</ele>
        <time>2012-07-07T12:11:44Z</time>
      </trkpt>
      <trkpt lat="45.18085" lon="6.43955">
        <ele>1531</ele>
        <time>2012-07-07T12:11:49Z</time>
      </trkpt>
      <trkpt lat="45.1803" lon="6.43953">
        <ele>1528</ele>
        <time>2012-07-07T12:11:54Z</time>
      </trkpt>
      <trkpt lat="45.17996" lon="6.43928">
        <ele>1521</ele>
        <time>2012-07-07T12:11:59Z</time>
      </trkpt>
      <trkpt lat="45.17934" lon="6.43936">
        <ele>1525</ele>
        <time>2012-07-07T12:12:04Z</time>
      </trkpt>
      <trkpt lat="45.17891" lon="6.43928">
        <ele>1527</ele>
        <time>2012-07-07T12:12:09Z</time>
      </trkpt>
      <trkpt lat="45.17828" lon="6.439">
        <ele>1517</ele>
        <time>2012-07-07T12:12:14Z</time>
      </trkpt>
      <trkpt lat="45.17794" lon="6.43851">
        <ele>1515</ele>
        <time>2012-07-07T12:12:19Z</time>
      </trkpt>
      <trkpt lat="45.17752" lon="6.43795">
        <ele>1503</ele>
        <time>2012-07-07T12:12:24Z</time>
      </trkpt>
      <trkpt lat="45.17714" lon="6.43737">
        <ele>1505</ele>
        <time>2012-07-07T12:12:29Z</time>
      </trkpt>
      <trkpt lat="45.17696" lon="6.43665">
        <ele>1493</ele>
        <time>2012-07-07T12:12:34Z</time>
      </trkpt>
      <trkpt lat="45.17683" lon="6.43583">
        <ele>1488</ele>
        <time>2012-07-07T12:12:39Z</time>
      </trkpt>
      <trkpt lat="45.17675" lon="6.43497">
        <ele>1483</ele>
        <time>2012-07-07T12:12:44Z</time>
      </trkpt>
      <trkpt lat="45.17666" lon="6.43414">
        <ele>1479</ele>
        <time>2012-07-07T12:12:49Z</time>
      </trkpt>
      <trkpt lat="45.1763" lon="6.43391">
        <ele>1475</ele>
        <time>2012-07-07T12:12:54Z</time>
      </trkpt>
      <trkpt lat="45.17567" lon="6.43346">
        <ele>1474</ele>
        <time>2012-07-07T12:12:59Z</time>
      </trkpt>
      <trkpt lat="45.17533" lon="6.43311">
        <ele>1462</ele>
        <time>2012-07-07T12:13:04Z</time>
      </trkpt>
      <trkpt lat="45.17477" lon="6.43292">
        <ele>1463</ele>
        <time>2012-07-07T12:13:09Z</time>
      </trkpt>
      <trkpt lat="45.17437" lon="6.43285">
        <ele>1463</ele>
        <time>2012-07-07T12:13:14Z</time>
      </trkpt>
      <trkpt lat="45.17389" lon="6.43273">
        <ele>1460</ele>
        <time>2012-07-07T12:13:19Z</time>
      </trkpt>
      <trkpt lat="45.17339" lon="6.43272">
        <ele>1457</ele>
        <time>2012-07-07T12:13:24Z</time>
      </trkpt>
      <trkpt lat="45.17296" lon="6.43298">
        <ele>1453</ele>
        <time>2012-07-07T12:13:29Z</time>
      </trkpt>
      <trkpt lat="45.17254" lon="6.43355">
        <ele>1459</ele>
        <time>2012-07-07T12:13:34Z</time>
      </trkpt>
      <trkpt lat="45.17225" lon="6.43379">
        <ele>1455</ele>
        <time>2012-07-07T12:13:39Z</time>
      </trkpt>
      <trkpt lat="45.17166" lon="6.43386">
        <ele>1448</ele>
        <time>2012-07-07T12:13:44Z</time>
      </trkpt>
      <trkpt lat="45.17126" lon="6.434">
        <ele>1446</ele>
        <time>2012-07-07T12:13:49Z</time>
      </trkpt>
      <trkpt lat="45.17069" lon="6.43407">
        <ele>1440</ele>
        <time>2012-07-07T12:13:54Z</time>
      </trkpt>
      <trkpt lat="45.17038" lon="6.43407">
        <ele>1435</ele>
        <time>2012-07-07T12:13:59Z</time>
      </trkpt>
      <trkpt lat="45.1699" lon="6.43449">
        <ele>1439</ele>
        <time>2012-07-07T12:14:04Z</time>
      </trkpt>
      <trkpt lat="45.16958" lon="6.43474">
        <ele>1442</ele>
        <time>2012-07-07T12:14:09Z</time>
      </trkpt>
      <trkpt lat="45.16913" lon="6.43464">
        <ele>1443</ele>
        <time>2012-07-07T12:14:14Z</time>
      </trkpt>
      <trkpt lat="45.16866" lon="6.43437">
        <ele>1437</ele>
        <time>2012-07-07T12:14:19Z</time>
      </trkpt>
      <trkpt lat="45.1682" lon="6.43438">
        <ele>1438</ele>
        <time>2012-07-07T12:14:24Z</time>
      </trkpt>
      <trkpt lat="45.16764" lon="6.43433">
        <ele>1438</ele>
        <time>2012-07-07T12:14:29Z</time>
      </trkpt>
      <trkpt lat="45.16727" lon="6.43403">
        <ele>1432</ele>
        <time>2012-07-07T12:14:34Z</time>
      </trkpt>
      <trkpt lat="45.1669" lon="6.43361">
        <ele>1431</ele>
        <time>2012-07-07T12:14:39Z</time>
      </trkpt>
      <trkpt lat="45.16666" lon="6.43304">
        <ele>1424</ele>
        <time>2012-07-07T12:14:44Z</time>
      </trkpt>
      <trkpt lat="45.16625" lon="6.43269">
        <ele>1420</ele>
        <time>2012-07-07T12:14:49Z</time>
      </trkpt>
      <trkpt lat="45.16581" lon="6.43241">
        <ele>1415</ele>
        <time>2012-07-07T12:14:54Z</time>
      </trkpt>
      <trkpt lat="45.16537" lon="6.43214">
        <ele>1413</ele>
        <time>2012-07-07T12:14:59Z</time>
      </trkpt>
      <trkpt lat="45.16515" lon="6.43176">
        <ele>1410</ele>
        <time>2012-07-07T12:15:04Z</time>
      </trkpt>
      <trkpt lat="45.16522" lon="6.43133">
        <ele>1407</ele>
        <time>2012-07-07T12:15:09Z</time>
      </trkpt>
      <trkpt lat="45.1653" lon="6.43093">
        <ele>1406</ele>
        <time>2012-07-07T12:15:14Z</time>
      </trkpt>
      <trkpt lat="45.16539" lon="6.43061">
        <ele>1406</ele>
        <time>2012-07-07T12:15:19Z</time>
      </trkpt>
      <trkpt lat="45.16546" lon="6.43025">
        <ele>1406</ele>
        <time>2012-07-07T12:15:24Z</time>
      </trkpt>
      <trkpt lat="45.16549" lon="6.43">
        <ele>1406</ele>
        <time>2012-07-07T12:15:29Z</time>
      </trkpt>
      <trkpt lat="45.16556" lon="6.42958">
        <ele>1407</ele>
        <time>2012-07-07T12:15:34Z</time>
      </trkpt>
      <trkpt lat="45.16558" lon="6.42927">
        <ele>1407</ele>
        <time>2012-07-07T12:15:39Z</time>
      </trkpt>
      <trkpt lat="45.16556" lon="6.42897">
        <ele>1408</ele>
        <time>2012-07-07T12:15:44Z</time>
      </trkpt>
      <trkpt lat="45.16553" lon="6.42874">
        <ele>1408</ele>
        <time>2012-07-07T12:15:49Z</time>
      </trkpt>
      <trkpt lat="45.16556" lon="6.42844">
        <ele>1408</ele>
        <time>2012-07-07T12:15:54Z</time>
      </trkpt>
      <trkpt lat="45.16563" lon="6.42817">
        <ele>1410</ele>
        <time>2012-07-07T12:15:59Z</time>
      </trkpt>
      <trkpt lat="45.1657" lon="6.42791">
        <ele>1411</ele>
        <time>2012-07-07T12:16:04Z</time>
      </trkpt>
      <trkpt lat="45.16576" lon="6.42767">
        <ele>1412</ele>
        <time>2012-07-07T12:16:09Z</time>
      </trkpt>
      <trkpt lat="45.16581" lon="6.42744">
        <ele>1412</ele>
        <time>2012-07-07T12:16:14Z</time>
      </trkpt>
      <trkpt lat="45.16573" lon="6.42718">
        <ele>1413</ele>
        <time>2012-07-07T12:16:19Z</time>
      </trkpt>
      <trkpt lat="45.16566" lon="6.42704">
        <ele>1414</ele>
        <time>2012-07-07T12:16:24Z</time>
      </trkpt>
      <trkpt lat="45.16554" lon="6.42686">
        <ele>1414</ele>
        <time>2012-07-07T12:16:29Z</time>
      </trkpt>
      <trkpt lat="45.16546" lon="6.42674">
        <ele>1414</ele>
        <time>2012-07-07T12:16:34Z</time>
      </trkpt>
      <trkpt lat="45.16536" lon="6.4266">
        <ele>1415</ele>
        <time>2012-07-07T12:16:39Z</time>
      </trkpt>
      <trkpt lat="45.16526" lon="6.42646">
        <ele>1416</ele>
        <time>2012-07-07T12:16:44Z</time>
      </trkpt>
      <trkpt lat="45.16516" lon="6.42632">
        <ele>1416</ele>
        <time>2012-07-07T12:16:49Z</time>
      </trkpt>
      <trkpt lat="45.16506" lon="6.42618">
        <ele>1416</ele>
        <time>2012-07-07T12:16:54Z</time>
      </trkpt>
      <trkpt lat="45.16497" lon="6.42605">
        <ele>1419</ele>
        <time>2012-07-07T12:16:59Z</time>
      </trkpt>
      <trkpt lat="45.16488" lon="6.42587">
        <ele>1419</ele>
        <time>2012-07-07T12:17:04Z</time>
      </trkpt>
      <trkpt lat="45.16482" lon="6.42574">
        <ele>1421</ele>
        <time>2012-07-07T12:17:09Z</time>
      </trkpt>
      <trkpt lat="45.16477" lon="6.42553">
        <ele>1421</ele>
        <time>2012-07-07T12:17:14Z</time>
      </trkpt>
      <trkpt lat="45.16473" lon="6.42539">
        <ele>1422</ele>
        <time>2012-07-07T12:17:19Z</time>
      </trkpt>
      <trkpt lat="45.16469" lon="6.42522">
        <ele>1422</ele>
        <time>2012-07-07T12:17:24Z</time>
      </trkpt>
      <trkpt lat="45.16462" lon="6.42506">
        <ele>1422</ele>
        <time>2012-07-07T12:17:29Z</time>
      </trkpt>
      <trkpt lat="45.16454" lon="6.42491">
        <ele>1426</ele>
        <time>2012-07-07T12:17:34Z</time>
      </trkpt>
      <trkpt lat="45.16443" lon="6.4248">
        <ele>1427</ele>
        <time>2012-07-07T12:17:39Z</time>
      </trkpt>
      <trkpt lat="45.16432" lon="6.42471">
        <ele>1428</ele>
        <time>2012-07-07T12:17:44Z</time>
      </trkpt>
      <trkpt lat="45.16421" lon="6.42461">
        <ele>1428</ele>
        <time>2012-07-07T12:17:49Z</time>
      </trkpt>
      <trkpt lat="45.16411" lon="6.4245">
        <ele>1438</ele>
        <time>2012-07-07T12:17:54Z</time>
      </trkpt>
      <trkpt lat="45.16398" lon="6.42435">
        <ele>1438</ele>
        <time>2012-07-07T12:17:59Z</time>
      </trkpt>
      <trkpt lat="45.16391" lon="6.42425">
        <ele>1439</ele>
        <time>2012-07-07T12:18:04Z</time>
      </trkpt>
      <trkpt lat="45.1638" lon="6.42409">
        <ele>1442</ele>
        <time>2012-07-07T12:18:09Z</time>
      </trkpt>
      <trkpt lat="45.16379" lon="6.42393">
        <ele>1442</ele>
        <time>2012-07-07T12:18:14Z</time>
      </trkpt>
      <trkpt lat="45.16384" lon="6.42374">
        <ele>1442</ele>
        <time>2012-07-07T12:18:19Z</time>
      </trkpt>
      <trkpt lat="45.1639" lon="6.42356">
        <ele>1441</ele>
        <time>2012-07-07T12:18:24Z</time>
      </trkpt>
      <trkpt lat="45.16395" lon="6.42335">
        <ele>1440</ele>
        <time>2012-07-07T12:18:29Z</time>
      </trkpt>
      <trkpt lat="45.16397" lon="6.42322">
        <ele>1440</ele>
        <time>2012-07-07T12:18:34Z</time>
      </trkpt>
      <trkpt lat="45.16396" lon="6.42306">
        <ele>1441</ele>
        <time>2012-07-07T12:18:39Z</time>
      </trkpt>
      <trkpt lat="45.16392" lon="6.42291">
        <ele>1442</ele>
        <time>2012-07-07T12:18:44Z</time>
      </trkpt>
      <trkpt lat="45.16385" lon="6.42278">
        <ele>1442</ele>
        <time>2012-07-07T12:18:49Z</time>
      </trkpt>
      <trkpt lat="45.16372" lon="6.42268">
        <ele>1442</ele>
        <time>2012-07-07T12:18:54Z</time>
      </trkpt>
      <trkpt lat="45.16361" lon="6.42262">
        <ele>1442</ele>
        <time>2012-07-07T12:18:59Z</time>
      </trkpt>
      <trkpt lat="45.16344" lon="6.42255">
        <ele>1442</ele>
        <time>2012-07-07T12:19:04Z</time>
      </trkpt>
      <trkpt lat="45.16332" lon="6.42249">
        <ele>1443</ele>
        <time>2012-07-07T12:19:09Z</time>
      </trkpt>
      <trkpt lat="45.16315" lon="6.42242">
        <ele>1448</ele>
        <time>2012-07-07T12:19:14Z</time>
      </trkpt>
      <trkpt lat="45.16303" lon="6.42237">
        <ele>1450</ele>
        <time>2012-07-07T12:19:19Z</time>
      </trkpt>
      <trkpt lat="45.16288" lon="6.42231">
        <ele>1452</ele>
        <time>2012-07-07T12:19:24Z</time>
      </trkpt>
      <trkpt lat="45.16272" lon="6.42224">
        <ele>1453</ele>
        <time>2012-07-07T12:19:29Z</time>
      </trkpt>
      <trkpt lat="45.16257" lon="6.42218">
        <ele>1454</ele>
        <time>2012-07-07T12:19:34Z</time>
      </trkpt>
      <trkpt lat="45.16241" lon="6.42211">
        <ele>1459</ele>
        <time>2012-07-07T12:19:39Z</time>
      </trkpt>
      <trkpt lat="45.16225" lon="6.42204">
        <ele>1461</ele>
        <time>2012-07-07T12:19:44Z</time>
      </trkpt>
      <trkpt lat="45.16206" lon="6.42198">
        <ele>1461</ele>
        <time>2012-07-07T12:19:49Z</time>
      </trkpt>
      <trkpt lat="45.16194" lon="6.42197">
        <ele>1461</ele>
        <time>2012-07-07T12:19:54Z</time>
      </trkpt>
      <trkpt lat="45.16174" lon="6.42192">
        <ele>1462</ele>
        <time>2012-07-07T12:19:59Z</time>
      </trkpt>
      <trkpt lat="45.16161" lon="6.4219">
        <ele>1463</ele>
        <time>2012-07-07T12:20:04Z</time>
      </trkpt>
      <trkpt lat="45.16145" lon="6.42188">
        <ele>1463</ele>
        <time>2012-07-07T12:20:09Z</time>
      </trkpt>
      <trkpt lat="45.16128" lon="6.42185">
        <ele>1463</ele>
        <time>2012-07-07T12:20:14Z</time>
      </trkpt>
      <trkpt lat="45.16112" lon="6.42184">
        <ele>1463</ele>
        <time>2012-07-07T12:20:19Z</time>
      </trkpt>
      <trkpt lat="45.16096" lon="6.42181">
        <ele>1462</ele>
        <time>2012-07-07T12:20:24Z</time>
      </trkpt>
      <trkpt lat="45.16079" lon="6.42178">
        <ele>1464</ele>
        <time>2012-07-07T12:20:29Z</time>
      </trkpt>
      <trkpt lat="45.16063" lon="6.42174">
        <ele>1465</ele>
        <time>2012-07-07T12:20:34Z</time>
      </trkpt>
      <trkpt lat="45.16048" lon="6.4217">
        <ele>1466</ele>
        <time>2012-07-07T12:20:39Z</time>
      </trkpt>
      <trkpt lat="45.16029" lon="6.42165">
        <ele>1464</ele>
        <time>2012-07-07T12:20:44Z</time>
      </trkpt>
      <trkpt lat="45.16019" lon="6.42158">
        <ele>1463</ele>
        <time>2012-07-07T12:20:49Z</time>
      </trkpt>
      <trkpt lat="45.16003" lon="6.42146">
        <ele>1464</ele>
        <time>2012-07-07T12:20:54Z</time>
      </trkpt>
      <trkpt lat="45.1599" lon="6.42149">
        <ele>1465</ele>
        <time>2012-07-07T12:20:59Z</time>
      </trkpt>
      <trkpt lat="45.15974" lon="6.4215">
        <ele>1466</ele>
        <time>2012-07-07T12:21:04Z</time>
      </trkpt>
      <trkpt lat="45.15961" lon="6.4215">
        <ele>1466</ele>
        <time>2012-07-07T12:21:09Z</time>
      </trkpt>
      <trkpt lat="45.15947" lon="6.42146">
        <ele>1467</ele>
        <time>2012-07-07T12:21:14Z</time>
      </trkpt>
      <trkpt lat="45.15932" lon="6.42141">
        <ele>1467</ele>
        <time>2012-07-07T12:21:19Z</time>
      </trkpt>
      <trkpt lat="45.15918" lon="6.42139">
        <ele>1468</ele>
        <time>2012-07-07T12:21:24Z</time>
      </trkpt>
      <trkpt lat="45.15904" lon="6.42134">
        <ele>1472</ele>
        <time>2012-07-07T12:21:29Z</time>
      </trkpt>
      <trkpt lat="45.15891" lon="6.42132">
        <ele>1473</ele>
        <time>2012-07-07T12:21:34Z</time>
      </trkpt>
      <trkpt lat="45.15875" lon="6.42129">
        <ele>1474</ele>
        <time>2012-07-07T12:21:39Z</time>
      </trkpt>
      <trkpt lat="45.15865" lon="6.42126">
        <ele>1474</ele>
        <time>2012-07-07T12:21:44Z</time>
      </trkpt>
      <trkpt lat="45.1585" lon="6.42124">
        <ele>1475</ele>
        <time>2012-07-07T12:21:49Z</time>
      </trkpt>
      <trkpt lat="45.15841" lon="6.42122">
        <ele>1475</ele>
        <time>2012-07-07T12:21:54Z</time>
      </trkpt>
      <trkpt lat="45.15829" lon="6.4212">
        <ele>1479</ele>
        <time>2012-07-07T12:21:59Z</time>
      </trkpt>
      <trkpt lat="45.15818" lon="6.42118">
        <ele>1480</ele>
        <time>2012-07-07T12:22:04Z</time>
      </trkpt>
      <trkpt lat="45.15807" lon="6.42115">
        <ele>1480</ele>
        <time>2012-07-07T12:22:09Z</time>
      </trkpt>
      <trkpt lat="45.15796" lon="6.42112">
        <ele>1480</ele>
        <time>2012-07-07T12:22:14Z</time>
      </trkpt>
      <trkpt lat="45.15784" lon="6.42111">
        <ele>1481</ele>
        <time>2012-07-07T12:22:19Z</time>
      </trkpt>
      <trkpt lat="45.1577" lon="6.42107">
        <ele>1481</ele>
        <time>2012-07-07T12:22:24Z</time>
      </trkpt>
      <trkpt lat="45.15761" lon="6.42105">
        <ele>1481</ele>
        <time>2012-07-07T12:22:29Z</time>
      </trkpt>
      <trkpt lat="45.15747" lon="6.42102">
        <ele>1485</ele>
        <time>2012-07-07T12:22:34Z</time>
      </trkpt>
      <trkpt lat="45.15738" lon="6.421">
        <ele>1485</ele>
        <time>2012-07-07T12:22:39Z</time>
      </trkpt>
      <trkpt lat="45.15726" lon="6.42097">
        <ele>1486</ele>
        <time>2012-07-07T12:22:44Z</time>
      </trkpt>
      <trkpt lat="45.15715" lon="6.42095">
        <ele>1486</ele>
        <time>2012-07-07T12:22:49Z</time>
      </trkpt>
      <trkpt lat="45.15702" lon="6.42092">
        <ele>1487</ele>
        <time>2012-07-07T12:22:54Z</time>
      </trkpt>
      <trkpt lat="45.15693" lon="6.42091">
        <ele>1488</ele>
        <time>2012-07-07T12:22:59Z</time>
      </trkpt>
      <trkpt lat="45.15682" lon="6.42088">
        <ele>1488</ele>
        <time>2012-07-07T12:23:04Z</time>
      </trkpt>
      <trkpt lat="45.1567" lon="6.42084">
        <ele>1490</ele>
        <time>2012-07-07T12:23:09Z</time>
      </trkpt>
      <trkpt lat="45.15658" lon="6.42081">
        <ele>1493</ele>
        <time>2012-07-07T12:23:14Z</time>
      </trkpt>
      <trkpt lat="45.15643" lon="6.42078">
        <ele>1496</ele>
        <time>2012-07-07T12:23:19Z</time>
      </trkpt>
      <trkpt lat="45.15633" lon="6.42076">
        <ele>1497</ele>
        <time>2012-07-07T12:23:24Z</time>
      </trkpt>
      <trkpt lat="45.15619" lon="6.42073">
        <ele>1499</ele>
        <time>2012-07-07T12:23:29Z</time>
      </trkpt>
      <trkpt lat="45.15609" lon="6.42071">
        <ele>1499</ele>
        <time>2012-07-07T12:23:34Z</time>
      </trkpt>
      <trkpt lat="45.15595" lon="6.42068">
        <ele>1500</ele>
        <time>2012-07-07T12:23:39Z</time>
      </trkpt>
      <trkpt lat="45.15585" lon="6.42067">
        <ele>1500</ele>
        <time>2012-07-07T12:23:44Z</time>
      </trkpt>
      <trkpt lat="45.15573" lon="6.42065">
        <ele>1504</ele>
        <time>2012-07-07T12:23:49Z</time>
      </trkpt>
      <trkpt lat="45.15561" lon="6.42066">
        <ele>1505</ele>
        <time>2012-07-07T12:23:54Z</time>
      </trkpt>
      <trkpt lat="45.15549" lon="6.42066">
        <ele>1506</ele>
        <time>2012-07-07T12:23:59Z</time>
      </trkpt>
      <trkpt lat="45.15537" lon="6.42068">
        <ele>1506</ele>
        <time>2012-07-07T12:24:04Z</time>
      </trkpt>
      <trkpt lat="45.15525" lon="6.42069">
        <ele>1507</ele>
        <time>2012-07-07T12:24:09Z</time>
      </trkpt>
      <trkpt lat="45.15511" lon="6.42071">
        <ele>1507</ele>
        <time>2012-07-07T12:24:14Z</time>
      </trkpt>
      <trkpt lat="45.15501" lon="6.42072">
        <ele>1507</ele>
        <time>2012-07-07T12:24:19Z</time>
      </trkpt>
      <trkpt lat="45.1549" lon="6.42074">
        <ele>1510</ele>
        <time>2012-07-07T12:24:24Z</time>
      </trkpt>
      <trkpt lat="45.15478" lon="6.42076">
        <ele>1511</ele>
        <time>2012-07-07T12:24:29Z</time>
      </trkpt>
      <trkpt lat="45.15467" lon="6.42076">
        <ele>1512</ele>
        <time>2012-07-07T12:24:34Z</time>
      </trkpt>
      <trkpt lat="45.15456" lon="6.42078">
        <ele>1513</ele>
        <time>2012-07-07T12:24:39Z</time>
      </trkpt>
      <trkpt lat="45.15444" lon="6.4208">
        <ele>1514</ele>
        <time>2012-07-07T12:24:44Z</time>
      </trkpt>
      <trkpt lat="45.15432" lon="6.4208">
        <ele>1514</ele>
        <time>2012-07-07T12:24:49Z</time>
      </trkpt>
      <trkpt lat="45.1542" lon="6.42079">
        <ele>1515</ele>
        <time>2012-07-07T12:24:54Z</time>
      </trkpt>
      <trkpt lat="45.15408" lon="6.42077">
        <ele>1518</ele>
        <time>2012-07-07T12:24:59Z</time>
      </trkpt>
      <trkpt lat="45.15396" lon="6.42075">
        <ele>1520</ele>
        <time>2012-07-07T12:25:04Z</time>
      </trkpt>
      <trkpt lat="45.15381" lon="6.42072">
        <ele>1521</ele>
        <time>2012-07-07T12:25:09Z</time>
      </trkpt>
      <trkpt lat="45.15372" lon="6.42073">
        <ele>1522</ele>
        <time>2012-07-07T12:25:14Z</time>
      </trkpt>
      <trkpt lat="45.15357" lon="6.42071">
        <ele>1523</ele>
        <time>2012-07-07T12:25:19Z</time>
      </trkpt>
      <trkpt lat="45.15348" lon="6.42069">
        <ele>1523</ele>
        <time>2012-07-07T12:25:24Z</time>
      </trkpt>
      <trkpt lat="45.15333" lon="6.42067">
        <ele>1528</ele>
        <time>2012-07-07T12:25:29Z</time>
      </trkpt>
      <trkpt lat="45.15323" lon="6.42066">
        <ele>1528</ele>
        <time>2012-07-07T12:25:34Z</time>
      </trkpt>
      <trkpt lat="45.15311" lon="6.42067">
        <ele>1529</ele>
        <time>2012-07-07T12:25:39Z</time>
      </trkpt>
      <trkpt lat="45.153" lon="6.4207">
        <ele>1530</ele>
        <time>2012-07-07T12:25:44Z</time>
      </trkpt>
      <trkpt lat="45.15286" lon="6.42071">
        <ele>1531</ele>
        <time>2012-07-07T12:25:49Z</time>
      </trkpt>
      <trkpt lat="45.15274" lon="6.42074">
        <ele>1532</ele>
        <time>2012-07-07T12:25:54Z</time>
      </trkpt>
      <trkpt lat="45.15262" lon="6.42073">
        <ele>1533</ele>
        <time>2012-07-07T12:25:59Z</time>
      </trkpt>
      <trkpt lat="45.15249" lon="6.42067">
        <ele>1536</ele>
        <time>2012-07-07T12:26:04Z</time>
      </trkpt>
      <trkpt lat="45.15241" lon="6.42064">
        <ele>1536</ele>
        <time>2012-07-07T12:26:09Z</time>
      </trkpt>
      <trkpt lat="45.1523" lon="6.42061">
        <ele>1536</ele>
        <time>2012-07-07T12:26:14Z</time>
      </trkpt>
      <trkpt lat="45.15219" lon="6.42055">
        <ele>1537</ele>
        <time>2012-07-07T12:26:19Z</time>
      </trkpt>
      <trkpt lat="45.15206" lon="6.42048">
        <ele>1537</ele>
        <time>2012-07-07T12:26:24Z</time>
      </trkpt>
      <trkpt lat="45.15198" lon="6.42043">
        <ele>1538</ele>
        <time>2012-07-07T12:26:29Z</time>
      </trkpt>
      <trkpt lat="45.15187" lon="6.42037">
        <ele>1538</ele>
        <time>2012-07-07T12:26:34Z</time>
      </trkpt>
      <trkpt lat="45.15176" lon="6.42031">
        <ele>1539</ele>
        <time>2012-07-07T12:26:39Z</time>
      </trkpt>
      <trkpt lat="45.15165" lon="6.42027">
        <ele>1542</ele>
        <time>2012-07-07T12:26:44Z</time>
      </trkpt>
      <trkpt lat="45.15151" lon="6.42022">
        <ele>1542</ele>
        <time>2012-07-07T12:26:49Z</time>
      </trkpt>
      <trkpt lat="45.15141" lon="6.42021">
        <ele>1543</ele>
        <time>2012-07-07T12:26:54Z</time>
      </trkpt>
      <trkpt lat="45.15127" lon="6.42022">
        <ele>1543</ele>
        <time>2012-07-07T12:26:59Z</time>
      </trkpt>
      <trkpt lat="45.15117" lon="6.42026">
        <ele>1544</ele>
        <time>2012-07-07T12:27:04Z</time>
      </trkpt>
      <trkpt lat="45.15106" lon="6.42032">
        <ele>1544</ele>
        <time>2012-07-07T12:27:09Z</time>
      </trkpt>
      <trkpt lat="45.15095" lon="6.42039">
        <ele>1544</ele>
        <time>2012-07-07T12:27:14Z</time>
      </trkpt>
      <trkpt lat="45.15084" lon="6.42046">
        <ele>1544</ele>
        <time>2012-07-07T12:27:19Z</time>
      </trkpt>
      <trkpt lat="45.15072" lon="6.4205">
        <ele>1548</ele>
        <time>2012-07-07T12:27:24Z</time>
      </trkpt>
      <trkpt lat="45.1506" lon="6.42049">
        <ele>1548</ele>
        <time>2012-07-07T12:27:29Z</time>
      </trkpt>
      <trkpt lat="45.15048" lon="6.42047">
        <ele>1549</ele>
        <time>2012-07-07T12:27:34Z</time>
      </trkpt>
      <trkpt lat="45.15034" lon="6.42046">
        <ele>1549</ele>
        <time>2012-07-07T12:27:39Z</time>
      </trkpt>
      <trkpt lat="45.15016" lon="6.42043">
        <ele>1550</ele>
        <time>2012-07-07T12:27:44Z</time>
      </trkpt>
      <trkpt lat="45.15004" lon="6.42042">
        <ele>1550</ele>
        <time>2012-07-07T12:27:49Z</time>
      </trkpt>
      <trkpt lat="45.14984" lon="6.42045">
        <ele>1555</ele>
        <time>2012-07-07T12:27:54Z</time>
      </trkpt>
      <trkpt lat="45.14971" lon="6.42048">
        <ele>1555</ele>
        <time>2012-07-07T12:27:59Z</time>
      </trkpt>
      <trkpt lat="45.14955" lon="6.42052">
        <ele>1555</ele>
        <time>2012-07-07T12:28:04Z</time>
      </trkpt>
      <trkpt lat="45.14939" lon="6.42054">
        <ele>1556</ele>
        <time>2012-07-07T12:28:09Z</time>
      </trkpt>
      <trkpt lat="45.14921" lon="6.42053">
        <ele>1556</ele>
        <time>2012-07-07T12:28:14Z</time>
      </trkpt>
      <trkpt lat="45.14907" lon="6.4205">
        <ele>1559</ele>
        <time>2012-07-07T12:28:19Z</time>
      </trkpt>
      <trkpt lat="45.14888" lon="6.42049">
        <ele>1559</ele>
        <time>2012-07-07T12:28:24Z</time>
      </trkpt>
      <trkpt lat="45.14871" lon="6.4205">
        <ele>1559</ele>
        <time>2012-07-07T12:28:29Z</time>
      </trkpt>
      <trkpt lat="45.14854" lon="6.42056">
        <ele>1559</ele>
        <time>2012-07-07T12:28:34Z</time>
      </trkpt>
      <trkpt lat="45.14835" lon="6.42055">
        <ele>1559</ele>
        <time>2012-07-07T12:28:39Z</time>
      </trkpt>
      <trkpt lat="45.14816" lon="6.4205">
        <ele>1561</ele>
        <time>2012-07-07T12:28:44Z</time>
      </trkpt>
      <trkpt lat="45.14797" lon="6.42039">
        <ele>1562</ele>
        <time>2012-07-07T12:28:49Z</time>
      </trkpt>
      <trkpt lat="45.14777" lon="6.42033">
        <ele>1562</ele>
        <time>2012-07-07T12:28:54Z</time>
      </trkpt>
      <trkpt lat="45.14755" lon="6.42027">
        <ele>1562</ele>
        <time>2012-07-07T12:28:59Z</time>
      </trkpt>
      <trkpt lat="45.1473" lon="6.42025">
        <ele>1564</ele>
        <time>2012-07-07T12:29:04Z</time>
      </trkpt>
      <trkpt lat="45.14705" lon="6.42027">
        <ele>1565</ele>
        <time>2012-07-07T12:29:09Z</time>
      </trkpt>
      <trkpt lat="45.14685" lon="6.42028">
        <ele>1565</ele>
        <time>2012-07-07T12:29:14Z</time>
      </trkpt>
      <trkpt lat="45.14651" lon="6.42021">
        <ele>1564</ele>
        <time>2012-07-07T12:29:19Z</time>
      </trkpt>
      <trkpt lat="45.14626" lon="6.42015">
        <ele>1564</ele>
        <time>2012-07-07T12:29:24Z</time>
      </trkpt>
      <trkpt lat="45.14599" lon="6.42007">
        <ele>1562</ele>
        <time>2012-07-07T12:29:29Z</time>
      </trkpt>
      <trkpt lat="45.14575" lon="6.42002">
        <ele>1562</ele>
        <time>2012-07-07T12:29:34Z</time>
      </trkpt>
      <trkpt lat="45.14551" lon="6.41996">
        <ele>1563</ele>
        <time>2012-07-07T12:29:39Z</time>
      </trkpt>
      <trkpt lat="45.14526" lon="6.4199">
        <ele>1563</ele>
        <time>2012-07-07T12:29:44Z</time>
      </trkpt>
      <trkpt lat="45.14502" lon="6.41986">
        <ele>1564</ele>
        <time>2012-07-07T12:29:49Z</time>
      </trkpt>
      <trkpt lat="45.14479" lon="6.41982">
        <ele>1564</ele>
        <time>2012-07-07T12:29:54Z</time>
      </trkpt>
      <trkpt lat="45.14461" lon="6.41979">
        <ele>1564</ele>
        <time>2012-07-07T12:29:59Z</time>
      </trkpt>
      <trkpt lat="45.14438" lon="6.41979">
        <ele>1564</ele>
        <time>2012-07-07T12:30:04Z</time>
      </trkpt>
      <trkpt lat="45.14417" lon="6.41978">
        <ele>1565</ele>
        <time>2012-07-07T12:30:09Z</time>
      </trkpt>
      <trkpt lat="45.14403" lon="6.41983">
        <ele>1565</ele>
        <time>2012-07-07T12:30:14Z</time>
      </trkpt>
      <trkpt lat="45.14401" lon="6.41984">
        <ele>1565</ele>
        <time>2012-07-07T12:30:19Z</time>
      </trkpt>
      <trkpt lat="45.144" lon="6.41989">
        <ele>1565</ele>
        <time>2012-07-07T12:30:24Z</time>
      </trkpt>
      <trkpt lat="45.14401" lon="6.41994">
        <ele>1565</ele>
        <time>2012-07-07T12:30:29Z</time>
      </trkpt>
      <trkpt lat="45.14402" lon="6.41995">
        <ele>1565</ele>
        <time>2012-07-07T12:30:34Z</time>
      </trkpt>
      <trkpt lat="45.14402" lon="6.41997">
        <ele>1565</ele>
        <time>2012-07-07T12:30:39Z</time>
      </trkpt>
      <trkpt lat="45.14402" lon="6.42">
        <ele>1565</ele>
        <time>2012-07-07T12:30:44Z</time>
      </trkpt>
      <trkpt lat="45.14404" lon="6.42002">
        <ele>1567</ele>
        <time>2012-07-07T12:30:49Z</time>
      </trkpt>
      <trkpt lat="45.14404" lon="6.42001">
        <ele>1567</ele>
        <time>2012-07-07T12:30:54Z</time>
      </trkpt>
      <trkpt lat="45.14405" lon="6.42001">
        <ele>1567</ele>
        <time>2012-07-07T12:30:59Z</time>
      </trkpt>
      <trkpt lat="45.14405" lon="6.42001">
        <ele>1567</ele>
        <time>2012-07-07T12:31:04Z</time>
      </trkpt>
      <trkpt lat="45.14405" lon="6.42001">
        <ele>1567</ele>
        <time>2012-07-07T12:31:09Z</time>
      </trkpt>
      <trkpt lat="45.14405" lon="6.42001">
        <ele>1567</ele>
        <time>2012-07-07T12:31:14Z</time>
      </trkpt>
      <trkpt lat="45.14405" lon="6.42001">
        <ele>1567</ele>
        <time>2012-07-07T12:31:19Z</time>
      </trkpt>
      <trkpt lat="45.14405" lon="6.42001">
        <ele>1567</ele>
        <time>2012-07-07T12:31:24Z</time>
      </trkpt>
      <trkpt lat="45.14405" lon="6.42001">
        <ele>1567</ele>
        <time>2012-07-07T12:31:29Z</time>
      </trkpt>
      <trkpt lat="45.14405" lon="6.42001">
        <ele>1567</ele>
        <time>2012-07-07T12:31:34Z</time>
      </trkpt>
      <trkpt lat="45.14405" lon="6.42001">
        <ele>1567</ele>
        <time>2012-07-07T12:31:39Z</time>
      </trkpt>
      <trkpt lat="45.14405" lon="6.42001">
        <ele>1567</ele>
        <time>2012-07-07T12:31:44Z</time>
      </trkpt>
      <trkpt lat="45.14405" lon="6.42001">
        <ele>1567</ele>
        <time>2012-07-07T12:31:49Z</time>
      </trkpt>
      <trkpt lat="45.14405" lon="6.42001">
        <ele>1567</ele>
        <time>2012-07-07T12:31:54Z</time>
      </trkpt>
      <trkpt lat="45.14405" lon="6.42001">
        <ele>1567</ele>
        <time>2012-07-07T12:31:59Z</time>
      </trkpt>
      <trkpt lat="45.14405" lon="6.42001">
        <ele>1567</ele>
        <time>2012-07-07T12:32:04Z</time>
      </trkpt>
      <trkpt lat="45.14405" lon="6.42001">
        <ele>1567</ele>
        <time>2012-07-07T12:32:09Z</time>
      </trkpt>
      <trkpt lat="45.14405" lon="6.42">
        <ele>1567</ele>
        <time>2012-07-07T12:32:14Z</time>
      </trkpt>
      <trkpt lat="45.14405" lon="6.42">
        <ele>1565</ele>
        <time>2012-07-07T12:32:19Z</time>
      </trkpt>
      <trkpt lat="45.14405" lon="6.42">
        <ele>1565</ele>
        <time>2012-07-07T12:32:24Z</time>
      </trkpt>
      <trkpt lat="45.14405" lon="6.41999">
        <ele>1565</ele>
        <time>2012-07-07T12:32:29Z</time>
      </trkpt>
      <trkpt lat="45.14405" lon="6.41999">
        <ele>1565</ele>
        <time>2012-07-07T12:32:34Z</time>
      </trkpt>
      <trkpt lat="45.14405" lon="6.41999">
        <ele>1565</ele>
        <time>2012-07-07T12:32:39Z</time>
      </trkpt>
      <trkpt lat="45.14405" lon="6.41999">
        <ele>1565</ele>
        <time>2012-07-07T12:32:44Z</time>
      </trkpt>
      <trkpt lat="45.14405" lon="6.41999">
        <ele>1565</ele>
        <time>2012-07-07T12:32:49Z</time>
      </trkpt>
      <trkpt lat="45.14406" lon="6.41999">
        <ele>1565</ele>
        <time>2012-07-07T12:32:54Z</time>
      </trkpt>
      <trkpt lat="45.14406" lon="6.41999">
        <ele>1565</ele>
        <time>2012-07-07T12:32:59Z</time>
      </trkpt>
      <trkpt lat="45.14406" lon="6.41999">
        <ele>1565</ele>
        <time>2012-07-07T12:33:04Z</time>
      </trkpt>
      <trkpt lat="45.14406" lon="6.41999">
        <ele>1565</ele>
        <time>2012-07-07T12:33:09Z</time>
      </trkpt>
      <trkpt lat="45.14406" lon="6.41999">
        <ele>1565</ele>
        <time>2012-07-07T12:33:14Z</time>
      </trkpt>
      <trkpt lat="45.14406" lon="6.41999">
        <ele>1565</ele>
        <time>2012-07-07T12:33:19Z</time>
      </trkpt>
      <trkpt lat="45.14406" lon="6.41999">
        <ele>1565</ele>
        <time>2012-07-07T12:33:24Z</time>
      </trkpt>
      <trkpt lat="45.14406" lon="6.41999">
        <ele>1565</ele>
        <time>2012-07-07T12:33:29Z</time>
      </trkpt>
      <trkpt lat="45.14405" lon="6.42">
        <ele>1567</ele>
        <time>2012-07-07T12:33:34Z</time>
      </trkpt>
      <trkpt lat="45.14404" lon="6.41998">
        <ele>1565</ele>
        <time>2012-07-07T12:33:39Z</time>
      </trkpt>
      <trkpt lat="45.14404" lon="6.41997">
        <ele>1565</ele>
        <time>2012-07-07T12:33:44Z</time>
      </trkpt>
      <trkpt lat="45.14404" lon="6.41995">
        <ele>1565</ele>
        <time>2012-07-07T12:33:49Z</time>
      </trkpt>
      <trkpt lat="45.14405" lon="6.41993">
        <ele>1565</ele>
        <time>2012-07-07T12:33:54Z</time>
      </trkpt>
      <trkpt lat="45.14406" lon="6.41989">
        <ele>1565</ele>
        <time>2012-07-07T12:33:59Z</time>
      </trkpt>
      <trkpt lat="45.14407" lon="6.41989">
        <ele>1565</ele>
        <time>2012-07-07T12:34:04Z</time>
      </trkpt>
      <trkpt lat="45.14408" lon="6.4199">
        <ele>1565</ele>
        <time>2012-07-07T12:34:09Z</time>
      </trkpt>
      <trkpt lat="45.14408" lon="6.41993">
        <ele>1565</ele>
        <time>2012-07-07T12:34:14Z</time>
      </trkpt>
      <trkpt lat="45.14408" lon="6.41993">
        <ele>1565</ele>
        <time>2012-07-07T12:34:19Z</time>
      </trkpt>
      <trkpt lat="45.14408" lon="6.41993">
        <ele>1565</ele>
        <time>2012-07-07T12:34:24Z</time>
      </trkpt>
      <trkpt lat="45.14408" lon="6.41993">
        <ele>1565</ele>
        <time>2012-07-07T12:34:29Z</time>
      </trkpt>
      <trkpt lat="45.14409" lon="6.41993">
        <ele>1565</ele>
        <time>2012-07-07T12:34:34Z</time>
      </trkpt>
      <trkpt lat="45.14408" lon="6.41994">
        <ele>1565</ele>
        <time>2012-07-07T12:34:39Z</time>
      </trkpt>
      <trkpt lat="45.14408" lon="6.41994">
        <ele>1565</ele>
        <time>2012-07-07T12:34:44Z</time>
      </trkpt>
      <trkpt lat="45.14408" lon="6.41994">
        <ele>1565</ele>
        <time>2012-07-07T12:34:49Z</time>
      </trkpt>
      <trkpt lat="45.14408" lon="6.41994">
        <ele>1565</ele>
        <time>2012-07-07T12:34:54Z</time>
      </trkpt>
      <trkpt lat="45.1441" lon="6.41991">
        <ele>1565</ele>
        <time>2012-07-07T12:34:59Z</time>
      </trkpt>
      <trkpt lat="45.14409" lon="6.41988">
        <ele>1565</ele>
        <time>2012-07-07T12:35:04Z</time>
      </trkpt>
      <trkpt lat="45.14409" lon="6.41987">
        <ele>1565</ele>
        <time>2012-07-07T12:35:09Z</time>
      </trkpt>
      <trkpt lat="45.14409" lon="6.41987">
        <ele>1565</ele>
        <time>2012-07-07T12:35:14Z</time>
      </trkpt>
      <trkpt lat="45.14409" lon="6.41987">
        <ele>1565</ele>
        <time>2012-07-07T12:35:19Z</time>
      </trkpt>
      <trkpt lat="45.14409" lon="6.41987">
        <ele>1565</ele>
        <time>2012-07-07T12:35:24Z</time>
      </trkpt>
      <trkpt lat="45.14409" lon="6.41987">
        <ele>1565</ele>
        <time>2012-07-07T12:35:29Z</time>
      </trkpt>
      <trkpt lat="45.14408" lon="6.41986">
        <ele>1565</ele>
        <time>2012-07-07T12:35:34Z</time>
      </trkpt>
      <trkpt lat="45.14408" lon="6.41986">
        <ele>1565</ele>
        <time>2012-07-07T12:35:39Z</time>
      </trkpt>
      <trkpt lat="45.14408" lon="6.41986">
        <ele>1565</ele>
        <time>2012-07-07T12:35:44Z</time>
      </trkpt>
      <trkpt lat="45.14408" lon="6.41985">
        <ele>1565</ele>
        <time>2012-07-07T12:35:49Z</time>
      </trkpt>
      <trkpt lat="45.14408" lon="6.41985">
        <ele>1565</ele>
        <time>2012-07-07T12:35:54Z</time>
      </trkpt>
      <trkpt lat="45.14408" lon="6.41985">
        <ele>1565</ele>
        <time>2012-07-07T12:35:59Z</time>
      </trkpt>
      <trkpt lat="45.14408" lon="6.41985">
        <ele>1565</ele>
        <time>2012-07-07T12:36:04Z</time>
      </trkpt>
      <trkpt lat="45.14409" lon="6.41985">
        <ele>1565</ele>
        <time>2012-07-07T12:36:09Z</time>
      </trkpt>
      <trkpt lat="45.14407" lon="6.41984">
        <ele>1565</ele>
        <time>2012-07-07T12:36:14Z</time>
      </trkpt>
      <trkpt lat="45.14402" lon="6.41981">
        <ele>1565</ele>
        <time>2012-07-07T12:36:19Z</time>
      </trkpt>
      <trkpt lat="45.14394" lon="6.4198">
        <ele>1564</ele>
        <time>2012-07-07T12:36:24Z</time>
      </trkpt>
      <trkpt lat="45.14379" lon="6.41978">
        <ele>1564</ele>
        <time>2012-07-07T12:36:29Z</time>
      </trkpt>
      <trkpt lat="45.14358" lon="6.41977">
        <ele>1564</ele>
        <time>2012-07-07T12:36:34Z</time>
      </trkpt>
      <trkpt lat="45.14342" lon="6.41976">
        <ele>1564</ele>
        <time>2012-07-07T12:36:39Z</time>
      </trkpt>
      <trkpt lat="45.14319" lon="6.41975">
        <ele>1566</ele>
        <time>2012-07-07T12:36:44Z</time>
      </trkpt>
      <trkpt lat="45.14303" lon="6.41976">
        <ele>1566</ele>
        <time>2012-07-07T12:36:49Z</time>
      </trkpt>
      <trkpt lat="45.14278" lon="6.41975">
        <ele>1567</ele>
        <time>2012-07-07T12:36:54Z</time>
      </trkpt>
      <trkpt lat="45.1426" lon="6.41974">
        <ele>1568</ele>
        <time>2012-07-07T12:36:59Z</time>
      </trkpt>
      <trkpt lat="45.14239" lon="6.41974">
        <ele>1570</ele>
        <time>2012-07-07T12:37:04Z</time>
      </trkpt>
      <trkpt lat="45.14216" lon="6.41973">
        <ele>1571</ele>
        <time>2012-07-07T12:37:09Z</time>
      </trkpt>
      <trkpt lat="45.14194" lon="6.41974">
        <ele>1571</ele>
        <time>2012-07-07T12:37:14Z</time>
      </trkpt>
      <trkpt lat="45.14172" lon="6.41974">
        <ele>1571</ele>
        <time>2012-07-07T12:37:19Z</time>
      </trkpt>
      <trkpt lat="45.14149" lon="6.41974">
        <ele>1573</ele>
        <time>2012-07-07T12:37:24Z</time>
      </trkpt>
      <trkpt lat="45.14122" lon="6.41976">
        <ele>1574</ele>
        <time>2012-07-07T12:37:29Z</time>
      </trkpt>
      <trkpt lat="45.14103" lon="6.41977">
        <ele>1574</ele>
        <time>2012-07-07T12:37:34Z</time>
      </trkpt>
      <trkpt lat="45.14076" lon="6.41979">
        <ele>1578</ele>
        <time>2012-07-07T12:37:39Z</time>
      </trkpt>
      <trkpt lat="45.14057" lon="6.4198">
        <ele>1578</ele>
        <time>2012-07-07T12:37:44Z</time>
      </trkpt>
      <trkpt lat="45.14029" lon="6.41982">
        <ele>1580</ele>
        <time>2012-07-07T12:37:49Z</time>
      </trkpt>
      <trkpt lat="45.14012" lon="6.41984">
        <ele>1580</ele>
        <time>2012-07-07T12:37:54Z</time>
      </trkpt>
      <trkpt lat="45.13987" lon="6.41985">
        <ele>1583</ele>
        <time>2012-07-07T12:37:59Z</time>
      </trkpt>
      <trkpt lat="45.1397" lon="6.41986">
        <ele>1584</ele>
        <time>2012-07-07T12:38:04Z</time>
      </trkpt>
      <trkpt lat="45.1395" lon="6.41988">
        <ele>1584</ele>
        <time>2012-07-07T12:38:09Z</time>
      </trkpt>
      <trkpt lat="45.13931" lon="6.4199">
        <ele>1584</ele>
        <time>2012-07-07T12:38:14Z</time>
      </trkpt>
      <trkpt lat="45.13912" lon="6.41992">
        <ele>1584</ele>
        <time>2012-07-07T12:38:19Z</time>
      </trkpt>
      <trkpt lat="45.13891" lon="6.41995">
        <ele>1586</ele>
        <time>2012-07-07T12:38:24Z</time>
      </trkpt>
      <trkpt lat="45.13876" lon="6.41996">
        <ele>1586</ele>
        <time>2012-07-07T12:38:29Z</time>
      </trkpt>
      <trkpt lat="45.13854" lon="6.41991">
        <ele>1586</ele>
        <time>2012-07-07T12:38:34Z</time>
      </trkpt>
      <trkpt lat="45.1384" lon="6.41985">
        <ele>1585</ele>
        <time>2012-07-07T12:38:39Z</time>
      </trkpt>
      <trkpt lat="45.13818" lon="6.41979">
        <ele>1587</ele>
        <time>2012-07-07T12:38:44Z</time>
      </trkpt>
      <trkpt lat="45.13803" lon="6.41974">
        <ele>1588</ele>
        <time>2012-07-07T12:38:49Z</time>
      </trkpt>
      <trkpt lat="45.13782" lon="6.41966">
        <ele>1589</ele>
        <time>2012-07-07T12:38:54Z</time>
      </trkpt>
      <trkpt lat="45.13768" lon="6.41961">
        <ele>1590</ele>
        <time>2012-07-07T12:38:59Z</time>
      </trkpt>
      <trkpt lat="45.1375" lon="6.41953">
        <ele>1592</ele>
        <time>2012-07-07T12:39:04Z</time>
      </trkpt>
      <trkpt lat="45.13726" lon="6.41945">
        <ele>1592</ele>
        <time>2012-07-07T12:39:09Z</time>
      </trkpt>
      <trkpt lat="45.13709" lon="6.41952">
        <ele>1593</ele>
        <time>2012-07-07T12:39:14Z</time>
      </trkpt>
      <trkpt lat="45.13689" lon="6.41976">
        <ele>1594</ele>
        <time>2012-07-07T12:39:19Z</time>
      </trkpt>
      <trkpt lat="45.13671" lon="6.41983">
        <ele>1596</ele>
        <time>2012-07-07T12:39:24Z</time>
      </trkpt>
      <trkpt lat="45.1364" lon="6.41982">
        <ele>1596</ele>
        <time>2012-07-07T12:39:29Z</time>
      </trkpt>
      <trkpt lat="45.1362" lon="6.41979">
        <ele>1596</ele>
        <time>2012-07-07T12:39:34Z</time>
      </trkpt>
      <trkpt lat="45.13586" lon="6.41972">
        <ele>1596</ele>
        <time>2012-07-07T12:39:39Z</time>
      </trkpt>
      <trkpt lat="45.13566" lon="6.41967">
        <ele>1596</ele>
        <time>2012-07-07T12:39:44Z</time>
      </trkpt>
      <trkpt lat="45.13536" lon="6.41959">
        <ele>1596</ele>
        <time>2012-07-07T12:39:49Z</time>
      </trkpt>
      <trkpt lat="45.13516" lon="6.41953">
        <ele>1595</ele>
        <time>2012-07-07T12:39:54Z</time>
      </trkpt>
      <trkpt lat="45.13491" lon="6.41945">
        <ele>1597</ele>
        <time>2012-07-07T12:39:59Z</time>
      </trkpt>
      <trkpt lat="45.13461" lon="6.41937">
        <ele>1597</ele>
        <time>2012-07-07T12:40:04Z</time>
      </trkpt>
      <trkpt lat="45.13442" lon="6.41931">
        <ele>1597</ele>
        <time>2012-07-07T12:40:09Z</time>
      </trkpt>
      <trkpt lat="45.13414" lon="6.41924">
        <ele>1596</ele>
        <time>2012-07-07T12:40:14Z</time>
      </trkpt>
      <trkpt lat="45.13396" lon="6.41918">
        <ele>1600</ele>
        <time>2012-07-07T12:40:19Z</time>
      </trkpt>
      <trkpt lat="45.13369" lon="6.4191">
        <ele>1597</ele>
        <time>2012-07-07T12:40:24Z</time>
      </trkpt>
      <trkpt lat="45.13351" lon="6.41905">
        <ele>1599</ele>
        <time>2012-07-07T12:40:29Z</time>
      </trkpt>
      <trkpt lat="45.13329" lon="6.41899">
        <ele>1600</ele>
        <time>2012-07-07T12:40:34Z</time>
      </trkpt>
      <trkpt lat="45.13308" lon="6.41893">
        <ele>1600</ele>
        <time>2012-07-07T12:40:39Z</time>
      </trkpt>
      <trkpt lat="45.13286" lon="6.41886">
        <ele>1599</ele>
        <time>2012-07-07T12:40:44Z</time>
      </trkpt>
      <trkpt lat="45.13261" lon="6.41878">
        <ele>1599</ele>
        <time>2012-07-07T12:40:49Z</time>
      </trkpt>
      <trkpt lat="45.13245" lon="6.41873">
        <ele>1600</ele>
        <time>2012-07-07T12:40:54Z</time>
      </trkpt>
      <trkpt lat="45.13217" lon="6.41866">
        <ele>1600</ele>
        <time>2012-07-07T12:40:59Z</time>
      </trkpt>
      <trkpt lat="45.13199" lon="6.41862">
        <ele>1600</ele>
        <time>2012-07-07T12:41:04Z</time>
      </trkpt>
      <trkpt lat="45.13171" lon="6.41858">
        <ele>1600</ele>
        <time>2012-07-07T12:41:09Z</time>
      </trkpt>
      <trkpt lat="45.13153" lon="6.41854">
        <ele>1604</ele>
        <time>2012-07-07T12:41:14Z</time>
      </trkpt>
      <trkpt lat="45.13126" lon="6.41848">
        <ele>1605</ele>
        <time>2012-07-07T12:41:19Z</time>
      </trkpt>
      <trkpt lat="45.13108" lon="6.41844">
        <ele>1605</ele>
        <time>2012-07-07T12:41:24Z</time>
      </trkpt>
      <trkpt lat="45.13087" lon="6.41839">
        <ele>1604</ele>
        <time>2012-07-07T12:41:29Z</time>
      </trkpt>
      <trkpt lat="45.13064" lon="6.41835">
        <ele>1608</ele>
        <time>2012-07-07T12:41:34Z</time>
      </trkpt>
      <trkpt lat="45.13042" lon="6.41832">
        <ele>1604</ele>
        <time>2012-07-07T12:41:39Z</time>
      </trkpt>
      <trkpt lat="45.13016" lon="6.41831">
        <ele>1604</ele>
        <time>2012-07-07T12:41:44Z</time>
      </trkpt>
      <trkpt lat="45.13" lon="6.4183">
        <ele>1604</ele>
        <time>2012-07-07T12:41:49Z</time>
      </trkpt>
      <trkpt lat="45.12974" lon="6.41832">
        <ele>1605</ele>
        <time>2012-07-07T12:41:54Z</time>
      </trkpt>
      <trkpt lat="45.12957" lon="6.41834">
        <ele>1610</ele>
        <time>2012-07-07T12:41:59Z</time>
      </trkpt>
      <trkpt lat="45.12933" lon="6.41836">
        <ele>1609</ele>
        <time>2012-07-07T12:42:04Z</time>
      </trkpt>
      <trkpt lat="45.12917" lon="6.41838">
        <ele>1607</ele>
        <time>2012-07-07T12:42:09Z</time>
      </trkpt>
      <trkpt lat="45.12898" lon="6.41839">
        <ele>1612</ele>
        <time>2012-07-07T12:42:14Z</time>
      </trkpt>
      <trkpt lat="45.1288" lon="6.41838">
        <ele>1615</ele>
        <time>2012-07-07T12:42:19Z</time>
      </trkpt>
      <trkpt lat="45.1286" lon="6.41838">
        <ele>1615</ele>
        <time>2012-07-07T12:42:24Z</time>
      </trkpt>
      <trkpt lat="45.12847" lon="6.41838">
        <ele>1615</ele>
        <time>2012-07-07T12:42:29Z</time>
      </trkpt>
      <trkpt lat="45.12831" lon="6.41839">
        <ele>1616</ele>
        <time>2012-07-07T12:42:34Z</time>
      </trkpt>
      <trkpt lat="45.12811" lon="6.41842">
        <ele>1620</ele>
        <time>2012-07-07T12:42:39Z</time>
      </trkpt>
      <trkpt lat="45.12797" lon="6.41844">
        <ele>1622</ele>
        <time>2012-07-07T12:42:44Z</time>
      </trkpt>
      <trkpt lat="45.12777" lon="6.41848">
        <ele>1623</ele>
        <time>2012-07-07T12:42:49Z</time>
      </trkpt>
      <trkpt lat="45.12763" lon="6.4185">
        <ele>1623</ele>
        <time>2012-07-07T12:42:54Z</time>
      </trkpt>
      <trkpt lat="45.12742" lon="6.41853">
        <ele>1627</ele>
        <time>2012-07-07T12:42:59Z</time>
      </trkpt>
      <trkpt lat="45.12728" lon="6.41855">
        <ele>1629</ele>
        <time>2012-07-07T12:43:04Z</time>
      </trkpt>
      <trkpt lat="45.12708" lon="6.41858">
        <ele>1630</ele>
        <time>2012-07-07T12:43:09Z</time>
      </trkpt>
      <trkpt lat="45.12696" lon="6.41861">
        <ele>1631</ele>
        <time>2012-07-07T12:43:14Z</time>
      </trkpt>
      <trkpt lat="45.12677" lon="6.41864">
        <ele>1632</ele>
        <time>2012-07-07T12:43:19Z</time>
      </trkpt>
      <trkpt lat="45.12664" lon="6.41866">
        <ele>1638</ele>
        <time>2012-07-07T12:43:24Z</time>
      </trkpt>
      <trkpt lat="45.12649" lon="6.41866">
        <ele>1639</ele>
        <time>2012-07-07T12:43:29Z</time>
      </trkpt>
      <trkpt lat="45.12632" lon="6.41866">
        <ele>1640</ele>
        <time>2012-07-07T12:43:34Z</time>
      </trkpt>
      <trkpt lat="45.12621" lon="6.41866">
        <ele>1641</ele>
        <time>2012-07-07T12:43:39Z</time>
      </trkpt>
      <trkpt lat="45.12605" lon="6.41867">
        <ele>1642</ele>
        <time>2012-07-07T12:43:44Z</time>
      </trkpt>
      <trkpt lat="45.12594" lon="6.41868">
        <ele>1643</ele>
        <time>2012-07-07T12:43:49Z</time>
      </trkpt>
      <trkpt lat="45.12578" lon="6.4187">
        <ele>1647</ele>
        <time>2012-07-07T12:43:54Z</time>
      </trkpt>
      <trkpt lat="45.12567" lon="6.4187">
        <ele>1647</ele>
        <time>2012-07-07T12:43:59Z</time>
      </trkpt>
      <trkpt lat="45.12553" lon="6.4187">
        <ele>1647</ele>
        <time>2012-07-07T12:44:04Z</time>
      </trkpt>
      <trkpt lat="45.1254" lon="6.41871">
        <ele>1647</ele>
        <time>2012-07-07T12:44:09Z</time>
      </trkpt>
      <trkpt lat="45.12524" lon="6.41872">
        <ele>1647</ele>
        <time>2012-07-07T12:44:14Z</time>
      </trkpt>
      <trkpt lat="45.12513" lon="6.41872">
        <ele>1647</ele>
        <time>2012-07-07T12:44:19Z</time>
      </trkpt>
      <trkpt lat="45.12499" lon="6.41872">
        <ele>1650</ele>
        <time>2012-07-07T12:44:24Z</time>
      </trkpt>
      <trkpt lat="45.12487" lon="6.41864">
        <ele>1649</ele>
        <time>2012-07-07T12:44:29Z</time>
      </trkpt>
      <trkpt lat="45.1248" lon="6.41856">
        <ele>1649</ele>
        <time>2012-07-07T12:44:34Z</time>
      </trkpt>
      <trkpt lat="45.1247" lon="6.41842">
        <ele>1648</ele>
        <time>2012-07-07T12:44:39Z</time>
      </trkpt>
      <trkpt lat="45.12464" lon="6.41834">
        <ele>1649</ele>
        <time>2012-07-07T12:44:44Z</time>
      </trkpt>
      <trkpt lat="45.12454" lon="6.41819">
        <ele>1647</ele>
        <time>2012-07-07T12:44:49Z</time>
      </trkpt>
      <trkpt lat="45.12448" lon="6.41811">
        <ele>1648</ele>
        <time>2012-07-07T12:44:54Z</time>
      </trkpt>
      <trkpt lat="45.12439" lon="6.41802">
        <ele>1648</ele>
        <time>2012-07-07T12:44:59Z</time>
      </trkpt>
      <trkpt lat="45.12429" lon="6.41794">
        <ele>1648</ele>
        <time>2012-07-07T12:45:04Z</time>
      </trkpt>
      <trkpt lat="45.12419" lon="6.41787">
        <ele>1647</ele>
        <time>2012-07-07T12:45:09Z</time>
      </trkpt>
      <trkpt lat="45.12406" lon="6.41778">
        <ele>1650</ele>
        <time>2012-07-07T12:45:14Z</time>
      </trkpt>
      <trkpt lat="45.12398" lon="6.41771">
        <ele>1650</ele>
        <time>2012-07-07T12:45:19Z</time>
      </trkpt>
      <trkpt lat="45.12385" lon="6.41763">
        <ele>1650</ele>
        <time>2012-07-07T12:45:24Z</time>
      </trkpt>
      <trkpt lat="45.12375" lon="6.41763">
        <ele>1651</ele>
        <time>2012-07-07T12:45:29Z</time>
      </trkpt>
      <trkpt lat="45.12367" lon="6.41777">
        <ele>1652</ele>
        <time>2012-07-07T12:45:34Z</time>
      </trkpt>
      <trkpt lat="45.12369" lon="6.41792">
        <ele>1653</ele>
        <time>2012-07-07T12:45:39Z</time>
      </trkpt>
      <trkpt lat="45.12375" lon="6.41813">
        <ele>1653</ele>
        <time>2012-07-07T12:45:44Z</time>
      </trkpt>
      <trkpt lat="45.12379" lon="6.41827">
        <ele>1653</ele>
        <time>2012-07-07T12:45:49Z</time>
      </trkpt>
      <trkpt lat="45.12383" lon="6.41842">
        <ele>1658</ele>
        <time>2012-07-07T12:45:54Z</time>
      </trkpt>
      <trkpt lat="45.12391" lon="6.41856">
        <ele>1658</ele>
        <time>2012-07-07T12:45:59Z</time>
      </trkpt>
      <trkpt lat="45.124" lon="6.41871">
        <ele>1659</ele>
        <time>2012-07-07T12:46:04Z</time>
      </trkpt>
      <trkpt lat="45.124" lon="6.4189">
        <ele>1660</ele>
        <time>2012-07-07T12:46:09Z</time>
      </trkpt>
      <trkpt lat="45.1239" lon="6.41891">
        <ele>1661</ele>
        <time>2012-07-07T12:46:14Z</time>
      </trkpt>
      <trkpt lat="45.12374" lon="6.41877">
        <ele>1661</ele>
        <time>2012-07-07T12:46:19Z</time>
      </trkpt>
      <trkpt lat="45.12363" lon="6.41867">
        <ele>1661</ele>
        <time>2012-07-07T12:46:24Z</time>
      </trkpt>
      <trkpt lat="45.12347" lon="6.41857">
        <ele>1661</ele>
        <time>2012-07-07T12:46:29Z</time>
      </trkpt>
      <trkpt lat="45.12336" lon="6.4185">
        <ele>1661</ele>
        <time>2012-07-07T12:46:34Z</time>
      </trkpt>
      <trkpt lat="45.12321" lon="6.4184">
        <ele>1665</ele>
        <time>2012-07-07T12:46:39Z</time>
      </trkpt>
      <trkpt lat="45.12311" lon="6.41832">
        <ele>1662</ele>
        <time>2012-07-07T12:46:44Z</time>
      </trkpt>
      <trkpt lat="45.12295" lon="6.41823">
        <ele>1664</ele>
        <time>2012-07-07T12:46:49Z</time>
      </trkpt>
      <trkpt lat="45.12284" lon="6.41816">
        <ele>1664</ele>
        <time>2012-07-07T12:46:54Z</time>
      </trkpt>
      <trkpt lat="45.12271" lon="6.41808">
        <ele>1665</ele>
        <time>2012-07-07T12:46:59Z</time>
      </trkpt>
      <trkpt lat="45.12254" lon="6.418">
        <ele>1665</ele>
        <time>2012-07-07T12:47:04Z</time>
      </trkpt>
      <trkpt lat="45.12244" lon="6.41794">
        <ele>1670</ele>
        <time>2012-07-07T12:47:09Z</time>
      </trkpt>
      <trkpt lat="45.12228" lon="6.41786">
        <ele>1670</ele>
        <time>2012-07-07T12:47:14Z</time>
      </trkpt>
      <trkpt lat="45.12217" lon="6.41783">
        <ele>1670</ele>
        <time>2012-07-07T12:47:19Z</time>
      </trkpt>
      <trkpt lat="45.122" lon="6.4178">
        <ele>1670</ele>
        <time>2012-07-07T12:47:24Z</time>
      </trkpt>
      <trkpt lat="45.1219" lon="6.41781">
        <ele>1671</ele>
        <time>2012-07-07T12:47:29Z</time>
      </trkpt>
      <trkpt lat="45.12176" lon="6.41782">
        <ele>1671</ele>
        <time>2012-07-07T12:47:34Z</time>
      </trkpt>
      <trkpt lat="45.12166" lon="6.41783">
        <ele>1675</ele>
        <time>2012-07-07T12:47:39Z</time>
      </trkpt>
      <trkpt lat="45.12154" lon="6.41783">
        <ele>1676</ele>
        <time>2012-07-07T12:47:44Z</time>
      </trkpt>
      <trkpt lat="45.12142" lon="6.41784">
        <ele>1676</ele>
        <time>2012-07-07T12:47:49Z</time>
      </trkpt>
      <trkpt lat="45.1213" lon="6.41785">
        <ele>1677</ele>
        <time>2012-07-07T12:47:54Z</time>
      </trkpt>
      <trkpt lat="45.12115" lon="6.41786">
        <ele>1678</ele>
        <time>2012-07-07T12:47:59Z</time>
      </trkpt>
      <trkpt lat="45.12105" lon="6.41786">
        <ele>1678</ele>
        <time>2012-07-07T12:48:04Z</time>
      </trkpt>
      <trkpt lat="45.12091" lon="6.41787">
        <ele>1678</ele>
        <time>2012-07-07T12:48:09Z</time>
      </trkpt>
      <trkpt lat="45.12081" lon="6.41788">
        <ele>1683</ele>
        <time>2012-07-07T12:48:14Z</time>
      </trkpt>
      <trkpt lat="45.12067" lon="6.41789">
        <ele>1683</ele>
        <time>2012-07-07T12:48:19Z</time>
      </trkpt>
      <trkpt lat="45.12058" lon="6.4179">
        <ele>1684</ele>
        <time>2012-07-07T12:48:24Z</time>
      </trkpt>
      <trkpt lat="45.12046" lon="6.41791">
        <ele>1684</ele>
        <time>2012-07-07T12:48:29Z</time>
      </trkpt>
      <trkpt lat="45.12034" lon="6.41792">
        <ele>1685</ele>
        <time>2012-07-07T12:48:34Z</time>
      </trkpt>
      <trkpt lat="45.12022" lon="6.41793">
        <ele>1685</ele>
        <time>2012-07-07T12:48:39Z</time>
      </trkpt>
      <trkpt lat="45.1201" lon="6.41794">
        <ele>1686</ele>
        <time>2012-07-07T12:48:44Z</time>
      </trkpt>
      <trkpt lat="45.11998" lon="6.41793">
        <ele>1691</ele>
        <time>2012-07-07T12:48:49Z</time>
      </trkpt>
      <trkpt lat="45.11982" lon="6.41793">
        <ele>1691</ele>
        <time>2012-07-07T12:48:54Z</time>
      </trkpt>
      <trkpt lat="45.11972" lon="6.41794">
        <ele>1692</ele>
        <time>2012-07-07T12:48:59Z</time>
      </trkpt>
      <trkpt lat="45.11957" lon="6.41795">
        <ele>1692</ele>
        <time>2012-07-07T12:49:04Z</time>
      </trkpt>
      <trkpt lat="45.11948" lon="6.41795">
        <ele>1693</ele>
        <time>2012-07-07T12:49:09Z</time>
      </trkpt>
      <trkpt lat="45.11933" lon="6.41793">
        <ele>1693</ele>
        <time>2012-07-07T12:49:14Z</time>
      </trkpt>
      <trkpt lat="45.11923" lon="6.41794">
        <ele>1694</ele>
        <time>2012-07-07T12:49:19Z</time>
      </trkpt>
      <trkpt lat="45.11908" lon="6.41795">
        <ele>1701</ele>
        <time>2012-07-07T12:49:24Z</time>
      </trkpt>
      <trkpt lat="45.11899" lon="6.41797">
        <ele>1702</ele>
        <time>2012-07-07T12:49:29Z</time>
      </trkpt>
      <trkpt lat="45.11888" lon="6.41803">
        <ele>1702</ele>
        <time>2012-07-07T12:49:34Z</time>
      </trkpt>
      <trkpt lat="45.11876" lon="6.41816">
        <ele>1703</ele>
        <time>2012-07-07T12:49:39Z</time>
      </trkpt>
      <trkpt lat="45.11869" lon="6.41827">
        <ele>1703</ele>
        <time>2012-07-07T12:49:44Z</time>
      </trkpt>
      <trkpt lat="45.11859" lon="6.41843">
        <ele>1703</ele>
        <time>2012-07-07T12:49:49Z</time>
      </trkpt>
      <trkpt lat="45.11853" lon="6.41854">
        <ele>1704</ele>
        <time>2012-07-07T12:49:54Z</time>
      </trkpt>
      <trkpt lat="45.11843" lon="6.4187">
        <ele>1704</ele>
        <time>2012-07-07T12:49:59Z</time>
      </trkpt>
      <trkpt lat="45.11837" lon="6.41881">
        <ele>1704</ele>
        <time>2012-07-07T12:50:04Z</time>
      </trkpt>
      <trkpt lat="45.11827" lon="6.41897">
        <ele>1712</ele>
        <time>2012-07-07T12:50:09Z</time>
      </trkpt>
      <trkpt lat="45.1182" lon="6.41907">
        <ele>1711</ele>
        <time>2012-07-07T12:50:14Z</time>
      </trkpt>
      <trkpt lat="45.11812" lon="6.41921">
        <ele>1712</ele>
        <time>2012-07-07T12:50:19Z</time>
      </trkpt>
      <trkpt lat="45.11804" lon="6.41934">
        <ele>1714</ele>
        <time>2012-07-07T12:50:24Z</time>
      </trkpt>
      <trkpt lat="45.11796" lon="6.41948">
        <ele>1715</ele>
        <time>2012-07-07T12:50:29Z</time>
      </trkpt>
      <trkpt lat="45.11785" lon="6.41964">
        <ele>1716</ele>
        <time>2012-07-07T12:50:34Z</time>
      </trkpt>
      <trkpt lat="45.11777" lon="6.41973">
        <ele>1716</ele>
        <time>2012-07-07T12:50:39Z</time>
      </trkpt>
      <trkpt lat="45.11764" lon="6.41985">
        <ele>1716</ele>
        <time>2012-07-07T12:50:44Z</time>
      </trkpt>
      <trkpt lat="45.11756" lon="6.41993">
        <ele>1717</ele>
        <time>2012-07-07T12:50:49Z</time>
      </trkpt>
      <trkpt lat="45.11743" lon="6.42004">
        <ele>1719</ele>
        <time>2012-07-07T12:50:54Z</time>
      </trkpt>
      <trkpt lat="45.11735" lon="6.42012">
        <ele>1722</ele>
        <time>2012-07-07T12:50:59Z</time>
      </trkpt>
      <trkpt lat="45.11723" lon="6.42025">
        <ele>1724</ele>
        <time>2012-07-07T12:51:04Z</time>
      </trkpt>
      <trkpt lat="45.11715" lon="6.42034">
        <ele>1724</ele>
        <time>2012-07-07T12:51:09Z</time>
      </trkpt>
      <trkpt lat="45.11704" lon="6.42048">
        <ele>1725</ele>
        <time>2012-07-07T12:51:14Z</time>
      </trkpt>
      <trkpt lat="45.11696" lon="6.42058">
        <ele>1725</ele>
        <time>2012-07-07T12:51:19Z</time>
      </trkpt>
      <trkpt lat="45.11687" lon="6.4207">
        <ele>1724</ele>
        <time>2012-07-07T12:51:24Z</time>
      </trkpt>
      <trkpt lat="45.11675" lon="6.42083">
        <ele>1724</ele>
        <time>2012-07-07T12:51:29Z</time>
      </trkpt>
      <trkpt lat="45.11667" lon="6.42092">
        <ele>1725</ele>
        <time>2012-07-07T12:51:34Z</time>
      </trkpt>
      <trkpt lat="45.11654" lon="6.42102">
        <ele>1726</ele>
        <time>2012-07-07T12:51:39Z</time>
      </trkpt>
      <trkpt lat="45.11644" lon="6.42106">
        <ele>1727</ele>
        <time>2012-07-07T12:51:44Z</time>
      </trkpt>
      <trkpt lat="45.11631" lon="6.42114">
        <ele>1727</ele>
        <time>2012-07-07T12:51:49Z</time>
      </trkpt>
      <trkpt lat="45.11622" lon="6.42119">
        <ele>1727</ele>
        <time>2012-07-07T12:51:54Z</time>
      </trkpt>
      <trkpt lat="45.11608" lon="6.42128">
        <ele>1727</ele>
        <time>2012-07-07T12:51:59Z</time>
      </trkpt>
      <trkpt lat="45.11598" lon="6.42135">
        <ele>1728</ele>
        <time>2012-07-07T12:52:04Z</time>
      </trkpt>
      <trkpt lat="45.11586" lon="6.42146">
        <ele>1728</ele>
        <time>2012-07-07T12:52:09Z</time>
      </trkpt>
      <trkpt lat="45.11578" lon="6.42155">
        <ele>1728</ele>
        <time>2012-07-07T12:52:14Z</time>
      </trkpt>
      <trkpt lat="45.11569" lon="6.42166">
        <ele>1729</ele>
        <time>2012-07-07T12:52:19Z</time>
      </trkpt>
      <trkpt lat="45.11558" lon="6.4218">
        <ele>1731</ele>
        <time>2012-07-07T12:52:24Z</time>
      </trkpt>
      <trkpt lat="45.11552" lon="6.42191">
        <ele>1732</ele>
        <time>2012-07-07T12:52:29Z</time>
      </trkpt>
      <trkpt lat="45.11545" lon="6.42207">
        <ele>1733</ele>
        <time>2012-07-07T12:52:34Z</time>
      </trkpt>
      <trkpt lat="45.1154" lon="6.42219">
        <ele>1734</ele>
        <time>2012-07-07T12:52:39Z</time>
      </trkpt>
      <trkpt lat="45.11534" lon="6.42237">
        <ele>1734</ele>
        <time>2012-07-07T12:52:44Z</time>
      </trkpt>
      <trkpt lat="45.1153" lon="6.42249">
        <ele>1735</ele>
        <time>2012-07-07T12:52:49Z</time>
      </trkpt>
      <trkpt lat="45.11524" lon="6.42267">
        <ele>1740</ele>
        <time>2012-07-07T12:52:54Z</time>
      </trkpt>
      <trkpt lat="45.11519" lon="6.42278">
        <ele>1740</ele>
        <time>2012-07-07T12:52:59Z</time>
      </trkpt>
      <trkpt lat="45.11512" lon="6.42295">
        <ele>1741</ele>
        <time>2012-07-07T12:53:04Z</time>
      </trkpt>
      <trkpt lat="45.11506" lon="6.42306">
        <ele>1742</ele>
        <time>2012-07-07T12:53:09Z</time>
      </trkpt>
      <trkpt lat="45.11498" lon="6.42319">
        <ele>1743</ele>
        <time>2012-07-07T12:53:14Z</time>
      </trkpt>
      <trkpt lat="45.11489" lon="6.42334">
        <ele>1747</ele>
        <time>2012-07-07T12:53:19Z</time>
      </trkpt>
      <trkpt lat="45.11481" lon="6.42342">
        <ele>1748</ele>
        <time>2012-07-07T12:53:24Z</time>
      </trkpt>
      <trkpt lat="45.11469" lon="6.42352">
        <ele>1750</ele>
        <time>2012-07-07T12:53:29Z</time>
      </trkpt>
      <trkpt lat="45.1146" lon="6.42355">
        <ele>1751</ele>
        <time>2012-07-07T12:53:34Z</time>
      </trkpt>
      <trkpt lat="45.11446" lon="6.42358">
        <ele>1752</ele>
        <time>2012-07-07T12:53:39Z</time>
      </trkpt>
      <trkpt lat="45.11437" lon="6.4236">
        <ele>1752</ele>
        <time>2012-07-07T12:53:44Z</time>
      </trkpt>
      <trkpt lat="45.11422" lon="6.42361">
        <ele>1752</ele>
        <time>2012-07-07T12:53:49Z</time>
      </trkpt>
      <trkpt lat="45.11413" lon="6.42361">
        <ele>1754</ele>
        <time>2012-07-07T12:53:54Z</time>
      </trkpt>
      <trkpt lat="45.11401" lon="6.42361">
        <ele>1755</ele>
        <time>2012-07-07T12:53:59Z</time>
      </trkpt>
      <trkpt lat="45.11387" lon="6.42361">
        <ele>1755</ele>
        <time>2012-07-07T12:54:04Z</time>
      </trkpt>
      <trkpt lat="45.11378" lon="6.42361">
        <ele>1755</ele>
        <time>2012-07-07T12:54:09Z</time>
      </trkpt>
      <trkpt lat="45.11363" lon="6.42361">
        <ele>1755</ele>
        <time>2012-07-07T12:54:14Z</time>
      </trkpt>
      <trkpt lat="45.11354" lon="6.42361">
        <ele>1755</ele>
        <time>2012-07-07T12:54:19Z</time>
      </trkpt>
      <trkpt lat="45.11339" lon="6.42363">
        <ele>1755</ele>
        <time>2012-07-07T12:54:24Z</time>
      </trkpt>
      <trkpt lat="45.11329" lon="6.42365">
        <ele>1757</ele>
        <time>2012-07-07T12:54:29Z</time>
      </trkpt>
      <trkpt lat="45.11315" lon="6.42369">
        <ele>1758</ele>
        <time>2012-07-07T12:54:34Z</time>
      </trkpt>
      <trkpt lat="45.11305" lon="6.42372">
        <ele>1758</ele>
        <time>2012-07-07T12:54:39Z</time>
      </trkpt>
      <trkpt lat="45.11293" lon="6.42379">
        <ele>1759</ele>
        <time>2012-07-07T12:54:44Z</time>
      </trkpt>
      <trkpt lat="45.11283" lon="6.42387">
        <ele>1760</ele>
        <time>2012-07-07T12:54:49Z</time>
      </trkpt>
      <trkpt lat="45.11272" lon="6.424">
        <ele>1761</ele>
        <time>2012-07-07T12:54:54Z</time>
      </trkpt>
      <trkpt lat="45.11261" lon="6.42414">
        <ele>1763</ele>
        <time>2012-07-07T12:54:59Z</time>
      </trkpt>
      <trkpt lat="45.11253" lon="6.42423">
        <ele>1768</ele>
        <time>2012-07-07T12:55:04Z</time>
      </trkpt>
      <trkpt lat="45.11239" lon="6.4243">
        <ele>1772</ele>
        <time>2012-07-07T12:55:09Z</time>
      </trkpt>
      <trkpt lat="45.1123" lon="6.42432">
        <ele>1774</ele>
        <time>2012-07-07T12:55:14Z</time>
      </trkpt>
      <trkpt lat="45.11215" lon="6.42431">
        <ele>1775</ele>
        <time>2012-07-07T12:55:19Z</time>
      </trkpt>
      <trkpt lat="45.11204" lon="6.42431">
        <ele>1775</ele>
        <time>2012-07-07T12:55:24Z</time>
      </trkpt>
      <trkpt lat="45.11189" lon="6.42431">
        <ele>1774</ele>
        <time>2012-07-07T12:55:29Z</time>
      </trkpt>
      <trkpt lat="45.11179" lon="6.42431">
        <ele>1773</ele>
        <time>2012-07-07T12:55:34Z</time>
      </trkpt>
      <trkpt lat="45.11164" lon="6.42431">
        <ele>1771</ele>
        <time>2012-07-07T12:55:39Z</time>
      </trkpt>
      <trkpt lat="45.11154" lon="6.42431">
        <ele>1772</ele>
        <time>2012-07-07T12:55:44Z</time>
      </trkpt>
      <trkpt lat="45.11142" lon="6.42431">
        <ele>1774</ele>
        <time>2012-07-07T12:55:49Z</time>
      </trkpt>
      <trkpt lat="45.11127" lon="6.42434">
        <ele>1775</ele>
        <time>2012-07-07T12:55:54Z</time>
      </trkpt>
      <trkpt lat="45.11117" lon="6.42437">
        <ele>1775</ele>
        <time>2012-07-07T12:55:59Z</time>
      </trkpt>
      <trkpt lat="45.11103" lon="6.42445">
        <ele>1775</ele>
        <time>2012-07-07T12:56:04Z</time>
      </trkpt>
      <trkpt lat="45.11094" lon="6.42452">
        <ele>1776</ele>
        <time>2012-07-07T12:56:09Z</time>
      </trkpt>
      <trkpt lat="45.11081" lon="6.42463">
        <ele>1775</ele>
        <time>2012-07-07T12:56:14Z</time>
      </trkpt>
      <trkpt lat="45.11071" lon="6.42469">
        <ele>1776</ele>
        <time>2012-07-07T12:56:19Z</time>
      </trkpt>
      <trkpt lat="45.11056" lon="6.42478">
        <ele>1777</ele>
        <time>2012-07-07T12:56:24Z</time>
      </trkpt>
      <trkpt lat="45.11047" lon="6.42485">
        <ele>1777</ele>
        <time>2012-07-07T12:56:29Z</time>
      </trkpt>
      <trkpt lat="45.11035" lon="6.42492">
        <ele>1777</ele>
        <time>2012-07-07T12:56:34Z</time>
      </trkpt>
      <trkpt lat="45.11024" lon="6.42499">
        <ele>1778</ele>
        <time>2012-07-07T12:56:39Z</time>
      </trkpt>
      <trkpt lat="45.11013" lon="6.42506">
        <ele>1788</ele>
        <time>2012-07-07T12:56:44Z</time>
      </trkpt>
      <trkpt lat="45.10999" lon="6.42516">
        <ele>1785</ele>
        <time>2012-07-07T12:56:49Z</time>
      </trkpt>
      <trkpt lat="45.10991" lon="6.42523">
        <ele>1786</ele>
        <time>2012-07-07T12:56:54Z</time>
      </trkpt>
      <trkpt lat="45.10979" lon="6.42537">
        <ele>1788</ele>
        <time>2012-07-07T12:56:59Z</time>
      </trkpt>
      <trkpt lat="45.10971" lon="6.42548">
        <ele>1790</ele>
        <time>2012-07-07T12:57:04Z</time>
      </trkpt>
      <trkpt lat="45.10961" lon="6.42564">
        <ele>1791</ele>
        <time>2012-07-07T12:57:09Z</time>
      </trkpt>
      <trkpt lat="45.10954" lon="6.42575">
        <ele>1792</ele>
        <time>2012-07-07T12:57:14Z</time>
      </trkpt>
      <trkpt lat="45.10942" lon="6.42592">
        <ele>1805</ele>
        <time>2012-07-07T12:57:19Z</time>
      </trkpt>
      <trkpt lat="45.10934" lon="6.42601">
        <ele>1806</ele>
        <time>2012-07-07T12:57:24Z</time>
      </trkpt>
      <trkpt lat="45.10921" lon="6.42607">
        <ele>1806</ele>
        <time>2012-07-07T12:57:29Z</time>
      </trkpt>
      <trkpt lat="45.10911" lon="6.42606">
        <ele>1807</ele>
        <time>2012-07-07T12:57:34Z</time>
      </trkpt>
      <trkpt lat="45.10898" lon="6.42599">
        <ele>1807</ele>
        <time>2012-07-07T12:57:39Z</time>
      </trkpt>
      <trkpt lat="45.10882" lon="6.42592">
        <ele>1809</ele>
        <time>2012-07-07T12:57:44Z</time>
      </trkpt>
      <trkpt lat="45.10872" lon="6.42588">
        <ele>1810</ele>
        <time>2012-07-07T12:57:49Z</time>
      </trkpt>
      <trkpt lat="45.10856" lon="6.42583">
        <ele>1796</ele>
        <time>2012-07-07T12:57:54Z</time>
      </trkpt>
      <trkpt lat="45.10846" lon="6.42579">
        <ele>1799</ele>
        <time>2012-07-07T12:57:59Z</time>
      </trkpt>
      <trkpt lat="45.10831" lon="6.42573">
        <ele>1803</ele>
        <time>2012-07-07T12:58:04Z</time>
      </trkpt>
      <trkpt lat="45.10822" lon="6.42571">
        <ele>1802</ele>
        <time>2012-07-07T12:58:09Z</time>
      </trkpt>
      <trkpt lat="45.1081" lon="6.42566">
        <ele>1801</ele>
        <time>2012-07-07T12:58:14Z</time>
      </trkpt>
      <trkpt lat="45.10798" lon="6.42563">
        <ele>1800</ele>
        <time>2012-07-07T12:58:19Z</time>
      </trkpt>
      <trkpt lat="45.10786" lon="6.42559">
        <ele>1801</ele>
        <time>2012-07-07T12:58:24Z</time>
      </trkpt>
      <trkpt lat="45.10772" lon="6.42555">
        <ele>1801</ele>
        <time>2012-07-07T12:58:29Z</time>
      </trkpt>
      <trkpt lat="45.10762" lon="6.42551">
        <ele>1801</ele>
        <time>2012-07-07T12:58:34Z</time>
      </trkpt>
      <trkpt lat="45.10747" lon="6.42546">
        <ele>1807</ele>
        <time>2012-07-07T12:58:39Z</time>
      </trkpt>
      <trkpt lat="45.10737" lon="6.42543">
        <ele>1807</ele>
        <time>2012-07-07T12:58:44Z</time>
      </trkpt>
      <trkpt lat="45.10723" lon="6.42541">
        <ele>1807</ele>
        <time>2012-07-07T12:58:49Z</time>
      </trkpt>
      <trkpt lat="45.10713" lon="6.42539">
        <ele>1808</ele>
        <time>2012-07-07T12:58:54Z</time>
      </trkpt>
      <trkpt lat="45.10699" lon="6.42538">
        <ele>1808</ele>
        <time>2012-07-07T12:58:59Z</time>
      </trkpt>
      <trkpt lat="45.10689" lon="6.42537">
        <ele>1809</ele>
        <time>2012-07-07T12:59:04Z</time>
      </trkpt>
      <trkpt lat="45.10678" lon="6.42537">
        <ele>1809</ele>
        <time>2012-07-07T12:59:09Z</time>
      </trkpt>
      <trkpt lat="45.10665" lon="6.42539">
        <ele>1813</ele>
        <time>2012-07-07T12:59:14Z</time>
      </trkpt>
      <trkpt lat="45.10653" lon="6.42541">
        <ele>1813</ele>
        <time>2012-07-07T12:59:19Z</time>
      </trkpt>
      <trkpt lat="45.10638" lon="6.42545">
        <ele>1814</ele>
        <time>2012-07-07T12:59:24Z</time>
      </trkpt>
      <trkpt lat="45.10629" lon="6.42547">
        <ele>1814</ele>
        <time>2012-07-07T12:59:29Z</time>
      </trkpt>
      <trkpt lat="45.10615" lon="6.42552">
        <ele>1815</ele>
        <time>2012-07-07T12:59:34Z</time>
      </trkpt>
      <trkpt lat="45.10606" lon="6.42555">
        <ele>1816</ele>
        <time>2012-07-07T12:59:39Z</time>
      </trkpt>
      <trkpt lat="45.10591" lon="6.4256">
        <ele>1819</ele>
        <time>2012-07-07T12:59:44Z</time>
      </trkpt>
      <trkpt lat="45.10582" lon="6.42564">
        <ele>1817</ele>
        <time>2012-07-07T12:59:49Z</time>
      </trkpt>
      <trkpt lat="45.10568" lon="6.42571">
        <ele>1817</ele>
        <time>2012-07-07T12:59:54Z</time>
      </trkpt>
      <trkpt lat="45.10558" lon="6.42575">
        <ele>1815</ele>
        <time>2012-07-07T12:59:59Z</time>
      </trkpt>
      <trkpt lat="45.10548" lon="6.42584">
        <ele>1834</ele>
        <time>2012-07-07T13:00:04Z</time>
      </trkpt>
      <trkpt lat="45.10537" lon="6.42591">
        <ele>1833</ele>
        <time>2012-07-07T13:00:09Z</time>
      </trkpt>
      <trkpt lat="45.10527" lon="6.426">
        <ele>1832</ele>
        <time>2012-07-07T13:00:14Z</time>
      </trkpt>
      <trkpt lat="45.10515" lon="6.42611">
        <ele>1833</ele>
        <time>2012-07-07T13:00:19Z</time>
      </trkpt>
      <trkpt lat="45.10505" lon="6.42619">
        <ele>1834</ele>
        <time>2012-07-07T13:00:24Z</time>
      </trkpt>
      <trkpt lat="45.10492" lon="6.42628">
        <ele>1826</ele>
        <time>2012-07-07T13:00:29Z</time>
      </trkpt>
      <trkpt lat="45.10483" lon="6.42636">
        <ele>1827</ele>
        <time>2012-07-07T13:00:34Z</time>
      </trkpt>
      <trkpt lat="45.10471" lon="6.42647">
        <ele>1827</ele>
        <time>2012-07-07T13:00:39Z</time>
      </trkpt>
      <trkpt lat="45.10463" lon="6.42653">
        <ele>1827</ele>
        <time>2012-07-07T13:00:44Z</time>
      </trkpt>
      <trkpt lat="45.10452" lon="6.42663">
        <ele>1826</ele>
        <time>2012-07-07T13:00:49Z</time>
      </trkpt>
      <trkpt lat="45.10444" lon="6.42669">
        <ele>1840</ele>
        <time>2012-07-07T13:00:54Z</time>
      </trkpt>
      <trkpt lat="45.10435" lon="6.42678">
        <ele>1838</ele>
        <time>2012-07-07T13:00:59Z</time>
      </trkpt>
      <trkpt lat="45.10427" lon="6.4269">
        <ele>1840</ele>
        <time>2012-07-07T13:01:04Z</time>
      </trkpt>
      <trkpt lat="45.10421" lon="6.42703">
        <ele>1843</ele>
        <time>2012-07-07T13:01:09Z</time>
      </trkpt>
      <trkpt lat="45.10415" lon="6.42721">
        <ele>1837</ele>
        <time>2012-07-07T13:01:14Z</time>
      </trkpt>
      <trkpt lat="45.10411" lon="6.42732">
        <ele>1840</ele>
        <time>2012-07-07T13:01:19Z</time>
      </trkpt>
      <trkpt lat="45.104" lon="6.42742">
        <ele>1840</ele>
        <time>2012-07-07T13:01:24Z</time>
      </trkpt>
      <trkpt lat="45.10391" lon="6.42747">
        <ele>1839</ele>
        <time>2012-07-07T13:01:29Z</time>
      </trkpt>
      <trkpt lat="45.10378" lon="6.42753">
        <ele>1854</ele>
        <time>2012-07-07T13:01:34Z</time>
      </trkpt>
      <trkpt lat="45.1037" lon="6.42757">
        <ele>1853</ele>
        <time>2012-07-07T13:01:39Z</time>
      </trkpt>
      <trkpt lat="45.10359" lon="6.42763">
        <ele>1852</ele>
        <time>2012-07-07T13:01:44Z</time>
      </trkpt>
      <trkpt lat="45.10348" lon="6.42768">
        <ele>1851</ele>
        <time>2012-07-07T13:01:49Z</time>
      </trkpt>
      <trkpt lat="45.10337" lon="6.42774">
        <ele>1852</ele>
        <time>2012-07-07T13:01:54Z</time>
      </trkpt>
      <trkpt lat="45.10326" lon="6.42779">
        <ele>1846</ele>
        <time>2012-07-07T13:01:59Z</time>
      </trkpt>
      <trkpt lat="45.10315" lon="6.42784">
        <ele>1846</ele>
        <time>2012-07-07T13:02:04Z</time>
      </trkpt>
      <trkpt lat="45.10302" lon="6.42792">
        <ele>1847</ele>
        <time>2012-07-07T13:02:09Z</time>
      </trkpt>
      <trkpt lat="45.10294" lon="6.42799">
        <ele>1847</ele>
        <time>2012-07-07T13:02:14Z</time>
      </trkpt>
      <trkpt lat="45.10284" lon="6.42812">
        <ele>1848</ele>
        <time>2012-07-07T13:02:19Z</time>
      </trkpt>
      <trkpt lat="45.10279" lon="6.42822">
        <ele>1848</ele>
        <time>2012-07-07T13:02:24Z</time>
      </trkpt>
      <trkpt lat="45.10271" lon="6.42832">
        <ele>1848</ele>
        <time>2012-07-07T13:02:29Z</time>
      </trkpt>
      <trkpt lat="45.10269" lon="6.42836">
        <ele>1859</ele>
        <time>2012-07-07T13:02:34Z</time>
      </trkpt>
      <trkpt lat="45.1027" lon="6.42835">
        <ele>1860</ele>
        <time>2012-07-07T13:02:39Z</time>
      </trkpt>
      <trkpt lat="45.1027" lon="6.42835">
        <ele>1860</ele>
        <time>2012-07-07T13:02:44Z</time>
      </trkpt>
      <trkpt lat="45.1027" lon="6.42835">
        <ele>1860</ele>
        <time>2012-07-07T13:02:49Z</time>
      </trkpt>
      <trkpt lat="45.1027" lon="6.42835">
        <ele>1860</ele>
        <time>2012-07-07T13:02:54Z</time>
      </trkpt>
      <trkpt lat="45.1027" lon="6.42835">
        <ele>1860</ele>
        <time>2012-07-07T13:02:59Z</time>
      </trkpt>
      <trkpt lat="45.10268" lon="6.4284">
        <ele>1859</ele>
        <time>2012-07-07T13:03:04Z</time>
      </trkpt>
      <trkpt lat="45.10264" lon="6.42847">
        <ele>1860</ele>
        <time>2012-07-07T13:03:09Z</time>
      </trkpt>
      <trkpt lat="45.10257" lon="6.42859">
        <ele>1862</ele>
        <time>2012-07-07T13:03:14Z</time>
      </trkpt>
      <trkpt lat="45.10251" lon="6.42869">
        <ele>1864</ele>
        <time>2012-07-07T13:03:19Z</time>
      </trkpt>
      <trkpt lat="45.10242" lon="6.42883">
        <ele>1858</ele>
        <time>2012-07-07T13:03:24Z</time>
      </trkpt>
      <trkpt lat="45.10234" lon="6.4289">
        <ele>1859</ele>
        <time>2012-07-07T13:03:29Z</time>
      </trkpt>
      <trkpt lat="45.10224" lon="6.42897">
        <ele>1859</ele>
        <time>2012-07-07T13:03:34Z</time>
      </trkpt>
      <trkpt lat="45.10212" lon="6.429">
        <ele>1859</ele>
        <time>2012-07-07T13:03:39Z</time>
      </trkpt>
      <trkpt lat="45.10201" lon="6.42903">
        <ele>1858</ele>
        <time>2012-07-07T13:03:44Z</time>
      </trkpt>
      <trkpt lat="45.10187" lon="6.42908">
        <ele>1859</ele>
        <time>2012-07-07T13:03:49Z</time>
      </trkpt>
      <trkpt lat="45.10179" lon="6.42913">
        <ele>1861</ele>
        <time>2012-07-07T13:03:54Z</time>
      </trkpt>
      <trkpt lat="45.10168" lon="6.42924">
        <ele>1869</ele>
        <time>2012-07-07T13:03:59Z</time>
      </trkpt>
      <trkpt lat="45.10161" lon="6.42933">
        <ele>1873</ele>
        <time>2012-07-07T13:04:04Z</time>
      </trkpt>
      <trkpt lat="45.1015" lon="6.42944">
        <ele>1878</ele>
        <time>2012-07-07T13:04:09Z</time>
      </trkpt>
      <trkpt lat="45.10143" lon="6.42949">
        <ele>1880</ele>
        <time>2012-07-07T13:04:14Z</time>
      </trkpt>
      <trkpt lat="45.1013" lon="6.42956">
        <ele>1881</ele>
        <time>2012-07-07T13:04:19Z</time>
      </trkpt>
      <trkpt lat="45.10121" lon="6.42958">
        <ele>1882</ele>
        <time>2012-07-07T13:04:24Z</time>
      </trkpt>
      <trkpt lat="45.1011" lon="6.42961">
        <ele>1883</ele>
        <time>2012-07-07T13:04:29Z</time>
      </trkpt>
      <trkpt lat="45.10098" lon="6.42962">
        <ele>1883</ele>
        <time>2012-07-07T13:04:34Z</time>
      </trkpt>
      <trkpt lat="45.10087" lon="6.42959">
        <ele>1883</ele>
        <time>2012-07-07T13:04:39Z</time>
      </trkpt>
      <trkpt lat="45.10076" lon="6.42949">
        <ele>1889</ele>
        <time>2012-07-07T13:04:44Z</time>
      </trkpt>
      <trkpt lat="45.1007" lon="6.42941">
        <ele>1888</ele>
        <time>2012-07-07T13:04:49Z</time>
      </trkpt>
      <trkpt lat="45.1006" lon="6.42927">
        <ele>1888</ele>
        <time>2012-07-07T13:04:54Z</time>
      </trkpt>
      <trkpt lat="45.10052" lon="6.42918">
        <ele>1889</ele>
        <time>2012-07-07T13:04:59Z</time>
      </trkpt>
      <trkpt lat="45.10041" lon="6.42905">
        <ele>1876</ele>
        <time>2012-07-07T13:05:04Z</time>
      </trkpt>
      <trkpt lat="45.10034" lon="6.42897">
        <ele>1877</ele>
        <time>2012-07-07T13:05:09Z</time>
      </trkpt>
      <trkpt lat="45.10022" lon="6.42889">
        <ele>1877</ele>
        <time>2012-07-07T13:05:14Z</time>
      </trkpt>
      <trkpt lat="45.10013" lon="6.42885">
        <ele>1877</ele>
        <time>2012-07-07T13:05:19Z</time>
      </trkpt>
      <trkpt lat="45.10002" lon="6.42885">
        <ele>1878</ele>
        <time>2012-07-07T13:05:24Z</time>
      </trkpt>
      <trkpt lat="45.09991" lon="6.42888">
        <ele>1886</ele>
        <time>2012-07-07T13:05:29Z</time>
      </trkpt>
      <trkpt lat="45.0998" lon="6.42891">
        <ele>1886</ele>
        <time>2012-07-07T13:05:34Z</time>
      </trkpt>
      <trkpt lat="45.09968" lon="6.42893">
        <ele>1886</ele>
        <time>2012-07-07T13:05:39Z</time>
      </trkpt>
      <trkpt lat="45.09959" lon="6.42894">
        <ele>1886</ele>
        <time>2012-07-07T13:05:44Z</time>
      </trkpt>
      <trkpt lat="45.09946" lon="6.42892">
        <ele>1887</ele>
        <time>2012-07-07T13:05:49Z</time>
      </trkpt>
      <trkpt lat="45.09938" lon="6.42892">
        <ele>1887</ele>
        <time>2012-07-07T13:05:54Z</time>
      </trkpt>
      <trkpt lat="45.09925" lon="6.42893">
        <ele>1888</ele>
        <time>2012-07-07T13:05:59Z</time>
      </trkpt>
      <trkpt lat="45.09916" lon="6.42896">
        <ele>1888</ele>
        <time>2012-07-07T13:06:04Z</time>
      </trkpt>
      <trkpt lat="45.09904" lon="6.42906">
        <ele>1889</ele>
        <time>2012-07-07T13:06:09Z</time>
      </trkpt>
      <trkpt lat="45.09898" lon="6.42916">
        <ele>1889</ele>
        <time>2012-07-07T13:06:14Z</time>
      </trkpt>
      <trkpt lat="45.0989" lon="6.42932">
        <ele>1900</ele>
        <time>2012-07-07T13:06:19Z</time>
      </trkpt>
      <trkpt lat="45.09882" lon="6.42944">
        <ele>1901</ele>
        <time>2012-07-07T13:06:24Z</time>
      </trkpt>
      <trkpt lat="45.09874" lon="6.42954">
        <ele>1902</ele>
        <time>2012-07-07T13:06:29Z</time>
      </trkpt>
      <trkpt lat="45.09863" lon="6.42963">
        <ele>1902</ele>
        <time>2012-07-07T13:06:34Z</time>
      </trkpt>
      <trkpt lat="45.09854" lon="6.42967">
        <ele>1903</ele>
        <time>2012-07-07T13:06:39Z</time>
      </trkpt>
      <trkpt lat="45.0984" lon="6.42971">
        <ele>1903</ele>
        <time>2012-07-07T13:06:44Z</time>
      </trkpt>
      <trkpt lat="45.0983" lon="6.42972">
        <ele>1901</ele>
        <time>2012-07-07T13:06:49Z</time>
      </trkpt>
      <trkpt lat="45.09819" lon="6.42975">
        <ele>1901</ele>
        <time>2012-07-07T13:06:54Z</time>
      </trkpt>
      <trkpt lat="45.09808" lon="6.42978">
        <ele>1901</ele>
        <time>2012-07-07T13:06:59Z</time>
      </trkpt>
      <trkpt lat="45.09797" lon="6.4298">
        <ele>1901</ele>
        <time>2012-07-07T13:07:04Z</time>
      </trkpt>
      <trkpt lat="45.09786" lon="6.42982">
        <ele>1901</ele>
        <time>2012-07-07T13:07:09Z</time>
      </trkpt>
      <trkpt lat="45.09774" lon="6.42985">
        <ele>1902</ele>
        <time>2012-07-07T13:07:14Z</time>
      </trkpt>
      <trkpt lat="45.09761" lon="6.4299">
        <ele>1904</ele>
        <time>2012-07-07T13:07:19Z</time>
      </trkpt>
      <trkpt lat="45.09753" lon="6.42993">
        <ele>1907</ele>
        <time>2012-07-07T13:07:24Z</time>
      </trkpt>
      <trkpt lat="45.09739" lon="6.42998">
        <ele>1907</ele>
        <time>2012-07-07T13:07:29Z</time>
      </trkpt>
      <trkpt lat="45.09731" lon="6.43001">
        <ele>1915</ele>
        <time>2012-07-07T13:07:34Z</time>
      </trkpt>
      <trkpt lat="45.09718" lon="6.4301">
        <ele>1917</ele>
        <time>2012-07-07T13:07:39Z</time>
      </trkpt>
      <trkpt lat="45.0971" lon="6.43017">
        <ele>1918</ele>
        <time>2012-07-07T13:07:44Z</time>
      </trkpt>
      <trkpt lat="45.09698" lon="6.43028">
        <ele>1919</ele>
        <time>2012-07-07T13:07:49Z</time>
      </trkpt>
      <trkpt lat="45.0969" lon="6.43036">
        <ele>1920</ele>
        <time>2012-07-07T13:07:54Z</time>
      </trkpt>
      <trkpt lat="45.09679" lon="6.43044">
        <ele>1922</ele>
        <time>2012-07-07T13:07:59Z</time>
      </trkpt>
      <trkpt lat="45.09668" lon="6.4305">
        <ele>1923</ele>
        <time>2012-07-07T13:08:04Z</time>
      </trkpt>
      <trkpt lat="45.09655" lon="6.43053">
        <ele>1925</ele>
        <time>2012-07-07T13:08:09Z</time>
      </trkpt>
      <trkpt lat="45.09641" lon="6.43053">
        <ele>1925</ele>
        <time>2012-07-07T13:08:14Z</time>
      </trkpt>
      <trkpt lat="45.09632" lon="6.43053">
        <ele>1925</ele>
        <time>2012-07-07T13:08:19Z</time>
      </trkpt>
      <trkpt lat="45.09618" lon="6.43052">
        <ele>1925</ele>
        <time>2012-07-07T13:08:24Z</time>
      </trkpt>
      <trkpt lat="45.09609" lon="6.43051">
        <ele>1926</ele>
        <time>2012-07-07T13:08:29Z</time>
      </trkpt>
      <trkpt lat="45.09595" lon="6.4305">
        <ele>1926</ele>
        <time>2012-07-07T13:08:34Z</time>
      </trkpt>
      <trkpt lat="45.09585" lon="6.4305">
        <ele>1926</ele>
        <time>2012-07-07T13:08:39Z</time>
      </trkpt>
      <trkpt lat="45.09572" lon="6.4305">
        <ele>1929</ele>
        <time>2012-07-07T13:08:44Z</time>
      </trkpt>
      <trkpt lat="45.09562" lon="6.43051">
        <ele>1929</ele>
        <time>2012-07-07T13:08:49Z</time>
      </trkpt>
      <trkpt lat="45.09551" lon="6.43053">
        <ele>1929</ele>
        <time>2012-07-07T13:08:54Z</time>
      </trkpt>
      <trkpt lat="45.09539" lon="6.43053">
        <ele>1930</ele>
        <time>2012-07-07T13:08:59Z</time>
      </trkpt>
      <trkpt lat="45.09527" lon="6.43052">
        <ele>1930</ele>
        <time>2012-07-07T13:09:04Z</time>
      </trkpt>
      <trkpt lat="45.09513" lon="6.43051">
        <ele>1931</ele>
        <time>2012-07-07T13:09:09Z</time>
      </trkpt>
      <trkpt lat="45.09503" lon="6.4305">
        <ele>1931</ele>
        <time>2012-07-07T13:09:14Z</time>
      </trkpt>
      <trkpt lat="45.09488" lon="6.43051">
        <ele>1931</ele>
        <time>2012-07-07T13:09:19Z</time>
      </trkpt>
      <trkpt lat="45.09479" lon="6.43056">
        <ele>1931</ele>
        <time>2012-07-07T13:09:24Z</time>
      </trkpt>
      <trkpt lat="45.09466" lon="6.43067">
        <ele>1931</ele>
        <time>2012-07-07T13:09:29Z</time>
      </trkpt>
      <trkpt lat="45.09458" lon="6.43075">
        <ele>1931</ele>
        <time>2012-07-07T13:09:34Z</time>
      </trkpt>
      <trkpt lat="45.09447" lon="6.43085">
        <ele>1940</ele>
        <time>2012-07-07T13:09:39Z</time>
      </trkpt>
      <trkpt lat="45.09435" lon="6.43097">
        <ele>1939</ele>
        <time>2012-07-07T13:09:44Z</time>
      </trkpt>
      <trkpt lat="45.09423" lon="6.43107">
        <ele>1940</ele>
        <time>2012-07-07T13:09:49Z</time>
      </trkpt>
      <trkpt lat="45.09409" lon="6.43116">
        <ele>1940</ele>
        <time>2012-07-07T13:09:54Z</time>
      </trkpt>
      <trkpt lat="45.09395" lon="6.43125">
        <ele>1941</ele>
        <time>2012-07-07T13:09:59Z</time>
      </trkpt>
      <trkpt lat="45.09379" lon="6.4314">
        <ele>1943</ele>
        <time>2012-07-07T13:10:04Z</time>
      </trkpt>
      <trkpt lat="45.09368" lon="6.4315">
        <ele>1943</ele>
        <time>2012-07-07T13:10:09Z</time>
      </trkpt>
      <trkpt lat="45.0935" lon="6.43162">
        <ele>1943</ele>
        <time>2012-07-07T13:10:14Z</time>
      </trkpt>
      <trkpt lat="45.09337" lon="6.43168">
        <ele>1947</ele>
        <time>2012-07-07T13:10:19Z</time>
      </trkpt>
      <trkpt lat="45.0932" lon="6.43181">
        <ele>1949</ele>
        <time>2012-07-07T13:10:24Z</time>
      </trkpt>
      <trkpt lat="45.09309" lon="6.43192">
        <ele>1951</ele>
        <time>2012-07-07T13:10:29Z</time>
      </trkpt>
      <trkpt lat="45.09295" lon="6.43214">
        <ele>1953</ele>
        <time>2012-07-07T13:10:34Z</time>
      </trkpt>
      <trkpt lat="45.09286" lon="6.43228">
        <ele>1954</ele>
        <time>2012-07-07T13:10:39Z</time>
      </trkpt>
      <trkpt lat="45.0927" lon="6.43238">
        <ele>1953</ele>
        <time>2012-07-07T13:10:44Z</time>
      </trkpt>
      <trkpt lat="45.09254" lon="6.43246">
        <ele>1951</ele>
        <time>2012-07-07T13:10:49Z</time>
      </trkpt>
      <trkpt lat="45.09238" lon="6.43254">
        <ele>1953</ele>
        <time>2012-07-07T13:10:54Z</time>
      </trkpt>
      <trkpt lat="45.0922" lon="6.43266">
        <ele>1954</ele>
        <time>2012-07-07T13:10:59Z</time>
      </trkpt>
      <trkpt lat="45.09209" lon="6.43275">
        <ele>1955</ele>
        <time>2012-07-07T13:11:04Z</time>
      </trkpt>
      <trkpt lat="45.09193" lon="6.43292">
        <ele>1955</ele>
        <time>2012-07-07T13:11:09Z</time>
      </trkpt>
      <trkpt lat="45.09184" lon="6.43306">
        <ele>1955</ele>
        <time>2012-07-07T13:11:14Z</time>
      </trkpt>
      <trkpt lat="45.09173" lon="6.43331">
        <ele>1953</ele>
        <time>2012-07-07T13:11:19Z</time>
      </trkpt>
      <trkpt lat="45.09167" lon="6.43348">
        <ele>1961</ele>
        <time>2012-07-07T13:11:24Z</time>
      </trkpt>
      <trkpt lat="45.09156" lon="6.43367">
        <ele>1956</ele>
        <time>2012-07-07T13:11:29Z</time>
      </trkpt>
      <trkpt lat="45.09146" lon="6.43384">
        <ele>1957</ele>
        <time>2012-07-07T13:11:34Z</time>
      </trkpt>
      <trkpt lat="45.09137" lon="6.43402">
        <ele>1958</ele>
        <time>2012-07-07T13:11:39Z</time>
      </trkpt>
      <trkpt lat="45.09131" lon="6.43429">
        <ele>1964</ele>
        <time>2012-07-07T13:11:44Z</time>
      </trkpt>
      <trkpt lat="45.09127" lon="6.43448">
        <ele>1964</ele>
        <time>2012-07-07T13:11:49Z</time>
      </trkpt>
      <trkpt lat="45.09121" lon="6.43477">
        <ele>1965</ele>
        <time>2012-07-07T13:11:54Z</time>
      </trkpt>
      <trkpt lat="45.09115" lon="6.43493">
        <ele>1964</ele>
        <time>2012-07-07T13:11:59Z</time>
      </trkpt>
      <trkpt lat="45.09102" lon="6.43509">
        <ele>1970</ele>
        <time>2012-07-07T13:12:04Z</time>
      </trkpt>
      <trkpt lat="45.09091" lon="6.43516">
        <ele>1969</ele>
        <time>2012-07-07T13:12:09Z</time>
      </trkpt>
      <trkpt lat="45.09074" lon="6.43525">
        <ele>1965</ele>
        <time>2012-07-07T13:12:14Z</time>
      </trkpt>
      <trkpt lat="45.09063" lon="6.43531">
        <ele>1966</ele>
        <time>2012-07-07T13:12:19Z</time>
      </trkpt>
      <trkpt lat="45.09048" lon="6.43535">
        <ele>1966</ele>
        <time>2012-07-07T13:12:24Z</time>
      </trkpt>
      <trkpt lat="45.09033" lon="6.43537">
        <ele>1966</ele>
        <time>2012-07-07T13:12:29Z</time>
      </trkpt>
      <trkpt lat="45.09018" lon="6.43538">
        <ele>1965</ele>
        <time>2012-07-07T13:12:34Z</time>
      </trkpt>
      <trkpt lat="45.09" lon="6.43536">
        <ele>1965</ele>
        <time>2012-07-07T13:12:39Z</time>
      </trkpt>
      <trkpt lat="45.08988" lon="6.43534">
        <ele>1965</ele>
        <time>2012-07-07T13:12:44Z</time>
      </trkpt>
      <trkpt lat="45.0897" lon="6.43528">
        <ele>1965</ele>
        <time>2012-07-07T13:12:49Z</time>
      </trkpt>
      <trkpt lat="45.08958" lon="6.43526">
        <ele>1965</ele>
        <time>2012-07-07T13:12:54Z</time>
      </trkpt>
      <trkpt lat="45.08939" lon="6.43528">
        <ele>1965</ele>
        <time>2012-07-07T13:12:59Z</time>
      </trkpt>
      <trkpt lat="45.08926" lon="6.43531">
        <ele>1965</ele>
        <time>2012-07-07T13:13:04Z</time>
      </trkpt>
      <trkpt lat="45.08908" lon="6.43535">
        <ele>1967</ele>
        <time>2012-07-07T13:13:09Z</time>
      </trkpt>
      <trkpt lat="45.08895" lon="6.43538">
        <ele>1967</ele>
        <time>2012-07-07T13:13:14Z</time>
      </trkpt>
      <trkpt lat="45.08877" lon="6.43542">
        <ele>1968</ele>
        <time>2012-07-07T13:13:19Z</time>
      </trkpt>
      <trkpt lat="45.08865" lon="6.43545">
        <ele>1968</ele>
        <time>2012-07-07T13:13:24Z</time>
      </trkpt>
      <trkpt lat="45.0885" lon="6.43549">
        <ele>1969</ele>
        <time>2012-07-07T13:13:29Z</time>
      </trkpt>
      <trkpt lat="45.08831" lon="6.43554">
        <ele>1972</ele>
        <time>2012-07-07T13:13:34Z</time>
      </trkpt>
      <trkpt lat="45.08819" lon="6.43557">
        <ele>1972</ele>
        <time>2012-07-07T13:13:39Z</time>
      </trkpt>
      <trkpt lat="45.08803" lon="6.43564">
        <ele>1973</ele>
        <time>2012-07-07T13:13:44Z</time>
      </trkpt>
      <trkpt lat="45.08791" lon="6.43571">
        <ele>1973</ele>
        <time>2012-07-07T13:13:49Z</time>
      </trkpt>
      <trkpt lat="45.08773" lon="6.4358">
        <ele>1973</ele>
        <time>2012-07-07T13:13:54Z</time>
      </trkpt>
      <trkpt lat="45.08762" lon="6.43587">
        <ele>1976</ele>
        <time>2012-07-07T13:13:59Z</time>
      </trkpt>
      <trkpt lat="45.0875" lon="6.43598">
        <ele>1977</ele>
        <time>2012-07-07T13:14:04Z</time>
      </trkpt>
      <trkpt lat="45.08739" lon="6.4361">
        <ele>1979</ele>
        <time>2012-07-07T13:14:09Z</time>
      </trkpt>
      <trkpt lat="45.08728" lon="6.4362">
        <ele>1980</ele>
        <time>2012-07-07T13:14:14Z</time>
      </trkpt>
      <trkpt lat="45.0872" lon="6.43629">
        <ele>1980</ele>
        <time>2012-07-07T13:14:19Z</time>
      </trkpt>
      <trkpt lat="45.08708" lon="6.43642">
        <ele>1981</ele>
        <time>2012-07-07T13:14:24Z</time>
      </trkpt>
      <trkpt lat="45.08695" lon="6.43656">
        <ele>1981</ele>
        <time>2012-07-07T13:14:29Z</time>
      </trkpt>
      <trkpt lat="45.08687" lon="6.43666">
        <ele>1982</ele>
        <time>2012-07-07T13:14:34Z</time>
      </trkpt>
      <trkpt lat="45.08674" lon="6.43681">
        <ele>1986</ele>
        <time>2012-07-07T13:14:39Z</time>
      </trkpt>
      <trkpt lat="45.08665" lon="6.43691">
        <ele>1987</ele>
        <time>2012-07-07T13:14:44Z</time>
      </trkpt>
      <trkpt lat="45.08651" lon="6.43704">
        <ele>1988</ele>
        <time>2012-07-07T13:14:49Z</time>
      </trkpt>
      <trkpt lat="45.08642" lon="6.43713">
        <ele>1989</ele>
        <time>2012-07-07T13:14:54Z</time>
      </trkpt>
      <trkpt lat="45.08629" lon="6.43726">
        <ele>1989</ele>
        <time>2012-07-07T13:14:59Z</time>
      </trkpt>
      <trkpt lat="45.0862" lon="6.43734">
        <ele>1989</ele>
        <time>2012-07-07T13:15:04Z</time>
      </trkpt>
      <trkpt lat="45.08603" lon="6.43741">
        <ele>1990</ele>
        <time>2012-07-07T13:15:09Z</time>
      </trkpt>
      <trkpt lat="45.08592" lon="6.43737">
        <ele>1990</ele>
        <time>2012-07-07T13:15:14Z</time>
      </trkpt>
      <trkpt lat="45.0858" lon="6.43724">
        <ele>1995</ele>
        <time>2012-07-07T13:15:19Z</time>
      </trkpt>
      <trkpt lat="45.08569" lon="6.43707">
        <ele>1996</ele>
        <time>2012-07-07T13:15:24Z</time>
      </trkpt>
      <trkpt lat="45.08567" lon="6.43705">
        <ele>1996</ele>
        <time>2012-07-07T13:15:29Z</time>
      </trkpt>
      <trkpt lat="45.08566" lon="6.43704">
        <ele>1996</ele>
        <time>2012-07-07T13:15:34Z</time>
      </trkpt>
      <trkpt lat="45.08566" lon="6.43704">
        <ele>1996</ele>
        <time>2012-07-07T13:15:39Z</time>
      </trkpt>
      <trkpt lat="45.08565" lon="6.43704">
        <ele>1996</ele>
        <time>2012-07-07T13:15:44Z</time>
      </trkpt>
      <trkpt lat="45.08565" lon="6.43704">
        <ele>1996</ele>
        <time>2012-07-07T13:15:49Z</time>
      </trkpt>
      <trkpt lat="45.08566" lon="6.43704">
        <ele>1996</ele>
        <time>2012-07-07T13:15:54Z</time>
      </trkpt>
      <trkpt lat="45.08568" lon="6.43701">
        <ele>1996</ele>
        <time>2012-07-07T13:15:59Z</time>
      </trkpt>
      <trkpt lat="45.08569" lon="6.43696">
        <ele>1996</ele>
        <time>2012-07-07T13:16:04Z</time>
      </trkpt>
      <trkpt lat="45.08568" lon="6.43689">
        <ele>1996</ele>
        <time>2012-07-07T13:16:09Z</time>
      </trkpt>
      <trkpt lat="45.08567" lon="6.43684">
        <ele>1995</ele>
        <time>2012-07-07T13:16:14Z</time>
      </trkpt>
      <trkpt lat="45.08565" lon="6.43684">
        <ele>1996</ele>
        <time>2012-07-07T13:16:19Z</time>
      </trkpt>
      <trkpt lat="45.08565" lon="6.43684">
        <ele>1996</ele>
        <time>2012-07-07T13:16:24Z</time>
      </trkpt>
      <trkpt lat="45.08565" lon="6.43685">
        <ele>1996</ele>
        <time>2012-07-07T13:16:29Z</time>
      </trkpt>
      <trkpt lat="45.08565" lon="6.43685">
        <ele>1996</ele>
        <time>2012-07-07T13:16:34Z</time>
      </trkpt>
      <trkpt lat="45.08565" lon="6.43686">
        <ele>1996</ele>
        <time>2012-07-07T13:16:39Z</time>
      </trkpt>
      <trkpt lat="45.08565" lon="6.43686">
        <ele>1996</ele>
        <time>2012-07-07T13:16:44Z</time>
      </trkpt>
      <trkpt lat="45.08564" lon="6.43686">
        <ele>1996</ele>
        <time>2012-07-07T13:16:49Z</time>
      </trkpt>
      <trkpt lat="45.08564" lon="6.43686">
        <ele>1996</ele>
        <time>2012-07-07T13:16:54Z</time>
      </trkpt>
      <trkpt lat="45.08564" lon="6.43686">
        <ele>1996</ele>
        <time>2012-07-07T13:16:59Z</time>
      </trkpt>
      <trkpt lat="45.08564" lon="6.43686">
        <ele>1996</ele>
        <time>2012-07-07T13:17:04Z</time>
      </trkpt>
      <trkpt lat="45.08564" lon="6.43686">
        <ele>1996</ele>
        <time>2012-07-07T13:17:09Z</time>
      </trkpt>
      <trkpt lat="45.08564" lon="6.43686">
        <ele>1996</ele>
        <time>2012-07-07T13:17:14Z</time>
      </trkpt>
      <trkpt lat="45.08564" lon="6.43686">
        <ele>1996</ele>
        <time>2012-07-07T13:17:19Z</time>
      </trkpt>
      <trkpt lat="45.08564" lon="6.43686">
        <ele>1996</ele>
        <time>2012-07-07T13:17:24Z</time>
      </trkpt>
      <trkpt lat="45.08564" lon="6.43686">
        <ele>1996</ele>
        <time>2012-07-07T13:17:29Z</time>
      </trkpt>
      <trkpt lat="45.08564" lon="6.43686">
        <ele>1996</ele>
        <time>2012-07-07T13:17:34Z</time>
      </trkpt>
      <trkpt lat="45.08564" lon="6.43686">
        <ele>1996</ele>
        <time>2012-07-07T13:17:39Z</time>
      </trkpt>
      <trkpt lat="45.08564" lon="6.43686">
        <ele>1996</ele>
        <time>2012-07-07T13:17:44Z</time>
      </trkpt>
      <trkpt lat="45.08564" lon="6.43685">
        <ele>1996</ele>
        <time>2012-07-07T13:17:49Z</time>
      </trkpt>
      <trkpt lat="45.08564" lon="6.43685">
        <ele>1996</ele>
        <time>2012-07-07T13:17:54Z</time>
      </trkpt>
      <trkpt lat="45.08564" lon="6.43685">
        <ele>1996</ele>
        <time>2012-07-07T13:17:59Z</time>
      </trkpt>
      <trkpt lat="45.08564" lon="6.43685">
        <ele>1996</ele>
        <time>2012-07-07T13:18:04Z</time>
      </trkpt>
      <trkpt lat="45.08564" lon="6.43685">
        <ele>1996</ele>
        <time>2012-07-07T13:18:09Z</time>
      </trkpt>
      <trkpt lat="45.08564" lon="6.43685">
        <ele>1996</ele>
        <time>2012-07-07T13:18:14Z</time>
      </trkpt>
      <trkpt lat="45.08564" lon="6.43685">
        <ele>1996</ele>
        <time>2012-07-07T13:18:19Z</time>
      </trkpt>
      <trkpt lat="45.08564" lon="6.43685">
        <ele>1996</ele>
        <time>2012-07-07T13:18:24Z</time>
      </trkpt>
      <trkpt lat="45.08564" lon="6.43685">
        <ele>1996</ele>
        <time>2012-07-07T13:18:29Z</time>
      </trkpt>
      <trkpt lat="45.08564" lon="6.43685">
        <ele>1996</ele>
        <time>2012-07-07T13:18:34Z</time>
      </trkpt>
      <trkpt lat="45.08564" lon="6.43685">
        <ele>1996</ele>
        <time>2012-07-07T13:18:39Z</time>
      </trkpt>
      <trkpt lat="45.08564" lon="6.43685">
        <ele>1996</ele>
        <time>2012-07-07T13:18:44Z</time>
      </trkpt>
      <trkpt lat="45.08564" lon="6.43685">
        <ele>1996</ele>
        <time>2012-07-07T13:18:49Z</time>
      </trkpt>
      <trkpt lat="45.08564" lon="6.43685">
        <ele>1996</ele>
        <time>2012-07-07T13:18:54Z</time>
      </trkpt>
      <trkpt lat="45.08564" lon="6.43685">
        <ele>1996</ele>
        <time>2012-07-07T13:18:59Z</time>
      </trkpt>
      <trkpt lat="45.08564" lon="6.43685">
        <ele>1996</ele>
        <time>2012-07-07T13:19:04Z</time>
      </trkpt>
      <trkpt lat="45.08564" lon="6.43685">
        <ele>1996</ele>
        <time>2012-07-07T13:19:09Z</time>
      </trkpt>
      <trkpt lat="45.08564" lon="6.43685">
        <ele>1996</ele>
        <time>2012-07-07T13:19:14Z</time>
      </trkpt>
      <trkpt lat="45.08564" lon="6.43685">
        <ele>1996</ele>
        <time>2012-07-07T13:19:19Z</time>
      </trkpt>
      <trkpt lat="45.08564" lon="6.43685">
        <ele>1996</ele>
        <time>2012-07-07T13:19:24Z</time>
      </trkpt>
      <trkpt lat="45.08564" lon="6.43685">
        <ele>1996</ele>
        <time>2012-07-07T13:19:29Z</time>
      </trkpt>
      <trkpt lat="45.08564" lon="6.43686">
        <ele>1996</ele>
        <time>2012-07-07T13:19:34Z</time>
      </trkpt>
      <trkpt lat="45.08565" lon="6.43683">
        <ele>1995</ele>
        <time>2012-07-07T13:19:39Z</time>
      </trkpt>
      <trkpt lat="45.08567" lon="6.43681">
        <ele>1995</ele>
        <time>2012-07-07T13:19:44Z</time>
      </trkpt>
      <trkpt lat="45.08568" lon="6.43679">
        <ele>1995</ele>
        <time>2012-07-07T13:19:49Z</time>
      </trkpt>
      <trkpt lat="45.08568" lon="6.43679">
        <ele>1995</ele>
        <time>2012-07-07T13:19:54Z</time>
      </trkpt>
      <trkpt lat="45.08568" lon="6.43679">
        <ele>1995</ele>
        <time>2012-07-07T13:19:59Z</time>
      </trkpt>
      <trkpt lat="45.08568" lon="6.43679">
        <ele>1995</ele>
        <time>2012-07-07T13:20:04Z</time>
      </trkpt>
      <trkpt lat="45.08569" lon="6.4367">
        <ele>1994</ele>
        <time>2012-07-07T13:20:09Z</time>
      </trkpt>
      <trkpt lat="45.08571" lon="6.43663">
        <ele>1998</ele>
        <time>2012-07-07T13:20:14Z</time>
      </trkpt>
      <trkpt lat="45.08574" lon="6.43654">
        <ele>1999</ele>
        <time>2012-07-07T13:20:19Z</time>
      </trkpt>
      <trkpt lat="45.08578" lon="6.43646">
        <ele>2001</ele>
        <time>2012-07-07T13:20:24Z</time>
      </trkpt>
      <trkpt lat="45.08586" lon="6.43635">
        <ele>1991</ele>
        <time>2012-07-07T13:20:29Z</time>
      </trkpt>
      <trkpt lat="45.08593" lon="6.43618">
        <ele>1992</ele>
        <time>2012-07-07T13:20:34Z</time>
      </trkpt>
      <trkpt lat="45.08598" lon="6.43607">
        <ele>1993</ele>
        <time>2012-07-07T13:20:39Z</time>
      </trkpt>
      <trkpt lat="45.08604" lon="6.4359">
        <ele>1994</ele>
        <time>2012-07-07T13:20:44Z</time>
      </trkpt>
      <trkpt lat="45.08607" lon="6.43579">
        <ele>2003</ele>
        <time>2012-07-07T13:20:49Z</time>
      </trkpt>
      <trkpt lat="45.08613" lon="6.43563">
        <ele>2003</ele>
        <time>2012-07-07T13:20:54Z</time>
      </trkpt>
      <trkpt lat="45.08618" lon="6.43553">
        <ele>2004</ele>
        <time>2012-07-07T13:20:59Z</time>
      </trkpt>
      <trkpt lat="45.08625" lon="6.43542">
        <ele>2004</ele>
        <time>2012-07-07T13:21:04Z</time>
      </trkpt>
      <trkpt lat="45.08633" lon="6.43532">
        <ele>2004</ele>
        <time>2012-07-07T13:21:09Z</time>
      </trkpt>
      <trkpt lat="45.0864" lon="6.4352">
        <ele>2004</ele>
        <time>2012-07-07T13:21:14Z</time>
      </trkpt>
      <trkpt lat="45.08647" lon="6.4351">
        <ele>2004</ele>
        <time>2012-07-07T13:21:19Z</time>
      </trkpt>
      <trkpt lat="45.08654" lon="6.43499">
        <ele>2014</ele>
        <time>2012-07-07T13:21:24Z</time>
      </trkpt>
      <trkpt lat="45.08663" lon="6.43487">
        <ele>2015</ele>
        <time>2012-07-07T13:21:29Z</time>
      </trkpt>
      <trkpt lat="45.08667" lon="6.43479">
        <ele>2004</ele>
        <time>2012-07-07T13:21:34Z</time>
      </trkpt>
      <trkpt lat="45.08675" lon="6.43466">
        <ele>2007</ele>
        <time>2012-07-07T13:21:39Z</time>
      </trkpt>
      <trkpt lat="45.08681" lon="6.43457">
        <ele>2008</ele>
        <time>2012-07-07T13:21:44Z</time>
      </trkpt>
      <trkpt lat="45.08689" lon="6.43445">
        <ele>2011</ele>
        <time>2012-07-07T13:21:49Z</time>
      </trkpt>
      <trkpt lat="45.08695" lon="6.43437">
        <ele>2011</ele>
        <time>2012-07-07T13:21:54Z</time>
      </trkpt>
      <trkpt lat="45.08705" lon="6.43426">
        <ele>2010</ele>
        <time>2012-07-07T13:21:59Z</time>
      </trkpt>
      <trkpt lat="45.08712" lon="6.4342">
        <ele>2008</ele>
        <time>2012-07-07T13:22:04Z</time>
      </trkpt>
      <trkpt lat="45.0872" lon="6.43412">
        <ele>2026</ele>
        <time>2012-07-07T13:22:09Z</time>
      </trkpt>
      <trkpt lat="45.08728" lon="6.43404">
        <ele>2024</ele>
        <time>2012-07-07T13:22:14Z</time>
      </trkpt>
      <trkpt lat="45.08737" lon="6.43396">
        <ele>2024</ele>
        <time>2012-07-07T13:22:19Z</time>
      </trkpt>
      <trkpt lat="45.08746" lon="6.43386">
        <ele>2027</ele>
        <time>2012-07-07T13:22:24Z</time>
      </trkpt>
      <trkpt lat="45.08753" lon="6.4338">
        <ele>2009</ele>
        <time>2012-07-07T13:22:29Z</time>
      </trkpt>
      <trkpt lat="45.08764" lon="6.43371">
        <ele>2011</ele>
        <time>2012-07-07T13:22:34Z</time>
      </trkpt>
      <trkpt lat="45.08771" lon="6.43365">
        <ele>2012</ele>
        <time>2012-07-07T13:22:39Z</time>
      </trkpt>
      <trkpt lat="45.08783" lon="6.43355">
        <ele>2011</ele>
        <time>2012-07-07T13:22:44Z</time>
      </trkpt>
      <trkpt lat="45.08789" lon="6.43348">
        <ele>2011</ele>
        <time>2012-07-07T13:22:49Z</time>
      </trkpt>
      <trkpt lat="45.08797" lon="6.4334">
        <ele>2010</ele>
        <time>2012-07-07T13:22:54Z</time>
      </trkpt>
      <trkpt lat="45.08804" lon="6.43329">
        <ele>2028</ele>
        <time>2012-07-07T13:22:59Z</time>
      </trkpt>
      <trkpt lat="45.0881" lon="6.43316">
        <ele>2029</ele>
        <time>2012-07-07T13:23:04Z</time>
      </trkpt>
      <trkpt lat="45.08814" lon="6.43303">
        <ele>2031</ele>
        <time>2012-07-07T13:23:09Z</time>
      </trkpt>
      <trkpt lat="45.08817" lon="6.43288">
        <ele>2034</ele>
        <time>2012-07-07T13:23:14Z</time>
      </trkpt>
      <trkpt lat="45.08821" lon="6.4327">
        <ele>2036</ele>
        <time>2012-07-07T13:23:19Z</time>
      </trkpt>
      <trkpt lat="45.08823" lon="6.43258">
        <ele>2036</ele>
        <time>2012-07-07T13:23:24Z</time>
      </trkpt>
      <trkpt lat="45.0883" lon="6.43246">
        <ele>2040</ele>
        <time>2012-07-07T13:23:29Z</time>
      </trkpt>
      <trkpt lat="45.08837" lon="6.4324">
        <ele>2035</ele>
        <time>2012-07-07T13:23:34Z</time>
      </trkpt>
      <trkpt lat="45.08846" lon="6.43234">
        <ele>2037</ele>
        <time>2012-07-07T13:23:39Z</time>
      </trkpt>
      <trkpt lat="45.08857" lon="6.43226">
        <ele>2038</ele>
        <time>2012-07-07T13:23:44Z</time>
      </trkpt>
      <trkpt lat="45.08864" lon="6.43219">
        <ele>2038</ele>
        <time>2012-07-07T13:23:49Z</time>
      </trkpt>
      <trkpt lat="45.08873" lon="6.43211">
        <ele>2039</ele>
        <time>2012-07-07T13:23:54Z</time>
      </trkpt>
      <trkpt lat="45.08882" lon="6.43201">
        <ele>2040</ele>
        <time>2012-07-07T13:23:59Z</time>
      </trkpt>
      <trkpt lat="45.0889" lon="6.43192">
        <ele>2041</ele>
        <time>2012-07-07T13:24:04Z</time>
      </trkpt>
      <trkpt lat="45.08899" lon="6.43184">
        <ele>2042</ele>
        <time>2012-07-07T13:24:09Z</time>
      </trkpt>
      <trkpt lat="45.0891" lon="6.43176">
        <ele>2044</ele>
        <time>2012-07-07T13:24:14Z</time>
      </trkpt>
      <trkpt lat="45.08918" lon="6.43172">
        <ele>2043</ele>
        <time>2012-07-07T13:24:19Z</time>
      </trkpt>
      <trkpt lat="45.08931" lon="6.43164">
        <ele>2050</ele>
        <time>2012-07-07T13:24:24Z</time>
      </trkpt>
      <trkpt lat="45.08939" lon="6.43159">
        <ele>2051</ele>
        <time>2012-07-07T13:24:29Z</time>
      </trkpt>
      <trkpt lat="45.08951" lon="6.43151">
        <ele>2052</ele>
        <time>2012-07-07T13:24:34Z</time>
      </trkpt>
      <trkpt lat="45.0896" lon="6.43145">
        <ele>2052</ele>
        <time>2012-07-07T13:24:39Z</time>
      </trkpt>
      <trkpt lat="45.0897" lon="6.43138">
        <ele>2052</ele>
        <time>2012-07-07T13:24:44Z</time>
      </trkpt>
      <trkpt lat="45.08981" lon="6.43134">
        <ele>2052</ele>
        <time>2012-07-07T13:24:49Z</time>
      </trkpt>
      <trkpt lat="45.08991" lon="6.43128">
        <ele>2052</ele>
        <time>2012-07-07T13:24:54Z</time>
      </trkpt>
      <trkpt lat="45.09" lon="6.43116">
        <ele>2046</ele>
        <time>2012-07-07T13:24:59Z</time>
      </trkpt>
      <trkpt lat="45.08997" lon="6.431">
        <ele>2059</ele>
        <time>2012-07-07T13:25:04Z</time>
      </trkpt>
      <trkpt lat="45.08981" lon="6.43108">
        <ele>2057</ele>
        <time>2012-07-07T13:25:09Z</time>
      </trkpt>
      <trkpt lat="45.0897" lon="6.43115">
        <ele>2056</ele>
        <time>2012-07-07T13:25:14Z</time>
      </trkpt>
      <trkpt lat="45.08957" lon="6.43121">
        <ele>2056</ele>
        <time>2012-07-07T13:25:19Z</time>
      </trkpt>
      <trkpt lat="45.08948" lon="6.43126">
        <ele>2056</ele>
        <time>2012-07-07T13:25:24Z</time>
      </trkpt>
      <trkpt lat="45.08937" lon="6.43132">
        <ele>2055</ele>
        <time>2012-07-07T13:25:29Z</time>
      </trkpt>
      <trkpt lat="45.08926" lon="6.43136">
        <ele>2055</ele>
        <time>2012-07-07T13:25:34Z</time>
      </trkpt>
      <trkpt lat="45.08915" lon="6.43136">
        <ele>2062</ele>
        <time>2012-07-07T13:25:39Z</time>
      </trkpt>
      <trkpt lat="45.08905" lon="6.43136">
        <ele>2063</ele>
        <time>2012-07-07T13:25:44Z</time>
      </trkpt>
      <trkpt lat="45.08894" lon="6.43136">
        <ele>2065</ele>
        <time>2012-07-07T13:25:49Z</time>
      </trkpt>
      <trkpt lat="45.08881" lon="6.43138">
        <ele>2065</ele>
        <time>2012-07-07T13:25:54Z</time>
      </trkpt>
      <trkpt lat="45.08872" lon="6.43139">
        <ele>2066</ele>
        <time>2012-07-07T13:25:59Z</time>
      </trkpt>
      <trkpt lat="45.08863" lon="6.43133">
        <ele>2068</ele>
        <time>2012-07-07T13:26:04Z</time>
      </trkpt>
      <trkpt lat="45.08861" lon="6.43136">
        <ele>2068</ele>
        <time>2012-07-07T13:26:09Z</time>
      </trkpt>
      <trkpt lat="45.08861" lon="6.43138">
        <ele>2067</ele>
        <time>2012-07-07T13:26:14Z</time>
      </trkpt>
      <trkpt lat="45.08861" lon="6.43139">
        <ele>2067</ele>
        <time>2012-07-07T13:26:19Z</time>
      </trkpt>
      <trkpt lat="45.08862" lon="6.43138">
        <ele>2067</ele>
        <time>2012-07-07T13:26:24Z</time>
      </trkpt>
      <trkpt lat="45.08862" lon="6.43137">
        <ele>2067</ele>
        <time>2012-07-07T13:26:29Z</time>
      </trkpt>
      <trkpt lat="45.08862" lon="6.43136">
        <ele>2067</ele>
        <time>2012-07-07T13:26:34Z</time>
      </trkpt>
      <trkpt lat="45.08862" lon="6.43136">
        <ele>2068</ele>
        <time>2012-07-07T13:26:39Z</time>
      </trkpt>
      <trkpt lat="45.08862" lon="6.43135">
        <ele>2068</ele>
        <time>2012-07-07T13:26:44Z</time>
      </trkpt>
      <trkpt lat="45.08863" lon="6.43135">
        <ele>2068</ele>
        <time>2012-07-07T13:26:49Z</time>
      </trkpt>
      <trkpt lat="45.08862" lon="6.43136">
        <ele>2068</ele>
        <time>2012-07-07T13:26:54Z</time>
      </trkpt>
      <trkpt lat="45.08862" lon="6.43136">
        <ele>2067</ele>
        <time>2012-07-07T13:26:59Z</time>
      </trkpt>
      <trkpt lat="45.08862" lon="6.43136">
        <ele>2067</ele>
        <time>2012-07-07T13:27:04Z</time>
      </trkpt>
      <trkpt lat="45.08862" lon="6.43137">
        <ele>2067</ele>
        <time>2012-07-07T13:27:09Z</time>
      </trkpt>
      <trkpt lat="45.08866" lon="6.43134">
        <ele>2068</ele>
        <time>2012-07-07T13:27:14Z</time>
      </trkpt>
      <trkpt lat="45.08871" lon="6.4312">
        <ele>2069</ele>
        <time>2012-07-07T13:27:19Z</time>
      </trkpt>
      <trkpt lat="45.08886" lon="6.4312">
        <ele>2068</ele>
        <time>2012-07-07T13:27:24Z</time>
      </trkpt>
      <trkpt lat="45.08899" lon="6.43121">
        <ele>2067</ele>
        <time>2012-07-07T13:27:29Z</time>
      </trkpt>
      <trkpt lat="45.08911" lon="6.43121">
        <ele>2067</ele>
        <time>2012-07-07T13:27:34Z</time>
      </trkpt>
      <trkpt lat="45.08922" lon="6.43119">
        <ele>2059</ele>
        <time>2012-07-07T13:27:39Z</time>
      </trkpt>
      <trkpt lat="45.08935" lon="6.43109">
        <ele>2060</ele>
        <time>2012-07-07T13:27:44Z</time>
      </trkpt>
      <trkpt lat="45.08944" lon="6.43102">
        <ele>2060</ele>
        <time>2012-07-07T13:27:49Z</time>
      </trkpt>
      <trkpt lat="45.08956" lon="6.43091">
        <ele>2060</ele>
        <time>2012-07-07T13:27:54Z</time>
      </trkpt>
      <trkpt lat="45.08964" lon="6.43084">
        <ele>2060</ele>
        <time>2012-07-07T13:27:59Z</time>
      </trkpt>
      <trkpt lat="45.08974" lon="6.43079">
        <ele>2077</ele>
        <time>2012-07-07T13:28:04Z</time>
      </trkpt>
      <trkpt lat="45.08985" lon="6.43077">
        <ele>2073</ele>
        <time>2012-07-07T13:28:09Z</time>
      </trkpt>
      <trkpt lat="45.08996" lon="6.43074">
        <ele>2071</ele>
        <time>2012-07-07T13:28:14Z</time>
      </trkpt>
      <trkpt lat="45.09006" lon="6.43067">
        <ele>2068</ele>
        <time>2012-07-07T13:28:19Z</time>
      </trkpt>
      <trkpt lat="45.09016" lon="6.43058">
        <ele>2071</ele>
        <time>2012-07-07T13:28:24Z</time>
      </trkpt>
      <trkpt lat="45.09026" lon="6.43049">
        <ele>2072</ele>
        <time>2012-07-07T13:28:29Z</time>
      </trkpt>
      <trkpt lat="45.09034" lon="6.4304">
        <ele>2074</ele>
        <time>2012-07-07T13:28:34Z</time>
      </trkpt>
      <trkpt lat="45.09046" lon="6.4303">
        <ele>2074</ele>
        <time>2012-07-07T13:28:39Z</time>
      </trkpt>
      <trkpt lat="45.09055" lon="6.43023">
        <ele>2074</ele>
        <time>2012-07-07T13:28:44Z</time>
      </trkpt>
      <trkpt lat="45.09063" lon="6.43007">
        <ele>2076</ele>
        <time>2012-07-07T13:28:49Z</time>
      </trkpt>
      <trkpt lat="45.0906" lon="6.42995">
        <ele>2092</ele>
        <time>2012-07-07T13:28:54Z</time>
      </trkpt>
      <trkpt lat="45.09046" lon="6.42997">
        <ele>2095</ele>
        <time>2012-07-07T13:28:59Z</time>
      </trkpt>
      <trkpt lat="45.09034" lon="6.43007">
        <ele>2079</ele>
        <time>2012-07-07T13:29:04Z</time>
      </trkpt>
      <trkpt lat="45.09022" lon="6.43016">
        <ele>2081</ele>
        <time>2012-07-07T13:29:09Z</time>
      </trkpt>
      <trkpt lat="45.0901" lon="6.43024">
        <ele>2081</ele>
        <time>2012-07-07T13:29:14Z</time>
      </trkpt>
      <trkpt lat="45.08996" lon="6.43028">
        <ele>2087</ele>
        <time>2012-07-07T13:29:19Z</time>
      </trkpt>
      <trkpt lat="45.08984" lon="6.43031">
        <ele>2086</ele>
        <time>2012-07-07T13:29:24Z</time>
      </trkpt>
      <trkpt lat="45.08973" lon="6.43036">
        <ele>2086</ele>
        <time>2012-07-07T13:29:29Z</time>
      </trkpt>
      <trkpt lat="45.08959" lon="6.4304">
        <ele>2085</ele>
        <time>2012-07-07T13:29:34Z</time>
      </trkpt>
      <trkpt lat="45.0895" lon="6.43041">
        <ele>2086</ele>
        <time>2012-07-07T13:29:39Z</time>
      </trkpt>
      <trkpt lat="45.08937" lon="6.43039">
        <ele>2087</ele>
        <time>2012-07-07T13:29:44Z</time>
      </trkpt>
      <trkpt lat="45.08928" lon="6.43036">
        <ele>2088</ele>
        <time>2012-07-07T13:29:49Z</time>
      </trkpt>
      <trkpt lat="45.08918" lon="6.43032">
        <ele>2090</ele>
        <time>2012-07-07T13:29:54Z</time>
      </trkpt>
      <trkpt lat="45.08907" lon="6.43028">
        <ele>2097</ele>
        <time>2012-07-07T13:29:59Z</time>
      </trkpt>
      <trkpt lat="45.08896" lon="6.43024">
        <ele>2098</ele>
        <time>2012-07-07T13:30:04Z</time>
      </trkpt>
      <trkpt lat="45.08886" lon="6.43021">
        <ele>2098</ele>
        <time>2012-07-07T13:30:09Z</time>
      </trkpt>
      <trkpt lat="45.08874" lon="6.4302">
        <ele>2099</ele>
        <time>2012-07-07T13:30:14Z</time>
      </trkpt>
      <trkpt lat="45.08861" lon="6.43019">
        <ele>2100</ele>
        <time>2012-07-07T13:30:19Z</time>
      </trkpt>
      <trkpt lat="45.08853" lon="6.43019">
        <ele>2102</ele>
        <time>2012-07-07T13:30:24Z</time>
      </trkpt>
      <trkpt lat="45.0884" lon="6.43023">
        <ele>2102</ele>
        <time>2012-07-07T13:30:29Z</time>
      </trkpt>
      <trkpt lat="45.08831" lon="6.43025">
        <ele>2109</ele>
        <time>2012-07-07T13:30:34Z</time>
      </trkpt>
      <trkpt lat="45.08819" lon="6.43027">
        <ele>2109</ele>
        <time>2012-07-07T13:30:39Z</time>
      </trkpt>
      <trkpt lat="45.08812" lon="6.43027">
        <ele>2109</ele>
        <time>2012-07-07T13:30:44Z</time>
      </trkpt>
      <trkpt lat="45.08799" lon="6.43026">
        <ele>2110</ele>
        <time>2012-07-07T13:30:49Z</time>
      </trkpt>
      <trkpt lat="45.0879" lon="6.43025">
        <ele>2112</ele>
        <time>2012-07-07T13:30:54Z</time>
      </trkpt>
      <trkpt lat="45.08779" lon="6.43024">
        <ele>2113</ele>
        <time>2012-07-07T13:30:59Z</time>
      </trkpt>
      <trkpt lat="45.08769" lon="6.43026">
        <ele>2114</ele>
        <time>2012-07-07T13:31:04Z</time>
      </trkpt>
      <trkpt lat="45.08759" lon="6.43029">
        <ele>2115</ele>
        <time>2012-07-07T13:31:09Z</time>
      </trkpt>
      <trkpt lat="45.08746" lon="6.43032">
        <ele>2126</ele>
        <time>2012-07-07T13:31:14Z</time>
      </trkpt>
      <trkpt lat="45.08737" lon="6.43034">
        <ele>2127</ele>
        <time>2012-07-07T13:31:19Z</time>
      </trkpt>
      <trkpt lat="45.08725" lon="6.43037">
        <ele>2127</ele>
        <time>2012-07-07T13:31:24Z</time>
      </trkpt>
      <trkpt lat="45.08717" lon="6.43038">
        <ele>2128</ele>
        <time>2012-07-07T13:31:29Z</time>
      </trkpt>
      <trkpt lat="45.08705" lon="6.4304">
        <ele>2130</ele>
        <time>2012-07-07T13:31:34Z</time>
      </trkpt>
      <trkpt lat="45.08697" lon="6.43043">
        <ele>2130</ele>
        <time>2012-07-07T13:31:39Z</time>
      </trkpt>
      <trkpt lat="45.08687" lon="6.43054">
        <ele>2130</ele>
        <time>2012-07-07T13:31:44Z</time>
      </trkpt>
      <trkpt lat="45.08686" lon="6.43067">
        <ele>2129</ele>
        <time>2012-07-07T13:31:49Z</time>
      </trkpt>
      <trkpt lat="45.08687" lon="6.43084">
        <ele>2122</ele>
        <time>2012-07-07T13:31:54Z</time>
      </trkpt>
      <trkpt lat="45.08688" lon="6.431">
        <ele>2120</ele>
        <time>2012-07-07T13:31:59Z</time>
      </trkpt>
      <trkpt lat="45.08688" lon="6.43116">
        <ele>2118</ele>
        <time>2012-07-07T13:32:04Z</time>
      </trkpt>
      <trkpt lat="45.08687" lon="6.43135">
        <ele>2117</ele>
        <time>2012-07-07T13:32:09Z</time>
      </trkpt>
      <trkpt lat="45.08686" lon="6.43149">
        <ele>2118</ele>
        <time>2012-07-07T13:32:14Z</time>
      </trkpt>
      <trkpt lat="45.08684" lon="6.43168">
        <ele>2114</ele>
        <time>2012-07-07T13:32:19Z</time>
      </trkpt>
      <trkpt lat="45.08681" lon="6.4318">
        <ele>2113</ele>
        <time>2012-07-07T13:32:24Z</time>
      </trkpt>
      <trkpt lat="45.08675" lon="6.43193">
        <ele>2111</ele>
        <time>2012-07-07T13:32:29Z</time>
      </trkpt>
      <trkpt lat="45.08668" lon="6.43203">
        <ele>2109</ele>
        <time>2012-07-07T13:32:34Z</time>
      </trkpt>
      <trkpt lat="45.0866" lon="6.43212">
        <ele>2125</ele>
        <time>2012-07-07T13:32:39Z</time>
      </trkpt>
      <trkpt lat="45.08651" lon="6.4322">
        <ele>2124</ele>
        <time>2012-07-07T13:32:44Z</time>
      </trkpt>
      <trkpt lat="45.08641" lon="6.43226">
        <ele>2125</ele>
        <time>2012-07-07T13:32:49Z</time>
      </trkpt>
      <trkpt lat="45.08632" lon="6.43234">
        <ele>2126</ele>
        <time>2012-07-07T13:32:54Z</time>
      </trkpt>
      <trkpt lat="45.08622" lon="6.4324">
        <ele>2128</ele>
        <time>2012-07-07T13:32:59Z</time>
      </trkpt>
      <trkpt lat="45.0861" lon="6.43248">
        <ele>2130</ele>
        <time>2012-07-07T13:33:04Z</time>
      </trkpt>
      <trkpt lat="45.08602" lon="6.43251">
        <ele>2122</ele>
        <time>2012-07-07T13:33:09Z</time>
      </trkpt>
      <trkpt lat="45.08589" lon="6.43246">
        <ele>2133</ele>
        <time>2012-07-07T13:33:14Z</time>
      </trkpt>
      <trkpt lat="45.08582" lon="6.43239">
        <ele>2138</ele>
        <time>2012-07-07T13:33:19Z</time>
      </trkpt>
      <trkpt lat="45.08575" lon="6.43222">
        <ele>2141</ele>
        <time>2012-07-07T13:33:24Z</time>
      </trkpt>
      <trkpt lat="45.08573" lon="6.4321">
        <ele>2143</ele>
        <time>2012-07-07T13:33:29Z</time>
      </trkpt>
      <trkpt lat="45.08571" lon="6.43195">
        <ele>2144</ele>
        <time>2012-07-07T13:33:34Z</time>
      </trkpt>
      <trkpt lat="45.08571" lon="6.43178">
        <ele>2145</ele>
        <time>2012-07-07T13:33:39Z</time>
      </trkpt>
      <trkpt lat="45.08572" lon="6.43161">
        <ele>2149</ele>
        <time>2012-07-07T13:33:44Z</time>
      </trkpt>
      <trkpt lat="45.08573" lon="6.43145">
        <ele>2150</ele>
        <time>2012-07-07T13:33:49Z</time>
      </trkpt>
      <trkpt lat="45.08575" lon="6.4313">
        <ele>2151</ele>
        <time>2012-07-07T13:33:54Z</time>
      </trkpt>
      <trkpt lat="45.08577" lon="6.43112">
        <ele>2152</ele>
        <time>2012-07-07T13:33:59Z</time>
      </trkpt>
      <trkpt lat="45.08578" lon="6.431">
        <ele>2152</ele>
        <time>2012-07-07T13:34:04Z</time>
      </trkpt>
      <trkpt lat="45.08585" lon="6.43082">
        <ele>2152</ele>
        <time>2012-07-07T13:34:09Z</time>
      </trkpt>
      <trkpt lat="45.0859" lon="6.43071">
        <ele>2152</ele>
        <time>2012-07-07T13:34:14Z</time>
      </trkpt>
      <trkpt lat="45.08597" lon="6.43058">
        <ele>2152</ele>
        <time>2012-07-07T13:34:19Z</time>
      </trkpt>
      <trkpt lat="45.08603" lon="6.43045">
        <ele>2152</ele>
        <time>2012-07-07T13:34:24Z</time>
      </trkpt>
      <trkpt lat="45.08611" lon="6.43033">
        <ele>2153</ele>
        <time>2012-07-07T13:34:29Z</time>
      </trkpt>
      <trkpt lat="45.08617" lon="6.4302">
        <ele>2154</ele>
        <time>2012-07-07T13:34:34Z</time>
      </trkpt>
      <trkpt lat="45.08623" lon="6.43007">
        <ele>2154</ele>
        <time>2012-07-07T13:34:39Z</time>
      </trkpt>
      <trkpt lat="45.08632" lon="6.42994">
        <ele>2163</ele>
        <time>2012-07-07T13:34:44Z</time>
      </trkpt>
      <trkpt lat="45.08641" lon="6.42987">
        <ele>2162</ele>
        <time>2012-07-07T13:34:49Z</time>
      </trkpt>
      <trkpt lat="45.08655" lon="6.42975">
        <ele>2161</ele>
        <time>2012-07-07T13:34:54Z</time>
      </trkpt>
      <trkpt lat="45.08664" lon="6.42968">
        <ele>2162</ele>
        <time>2012-07-07T13:34:59Z</time>
      </trkpt>
      <trkpt lat="45.08671" lon="6.42952">
        <ele>2156</ele>
        <time>2012-07-07T13:35:04Z</time>
      </trkpt>
      <trkpt lat="45.08669" lon="6.42938">
        <ele>2159</ele>
        <time>2012-07-07T13:35:09Z</time>
      </trkpt>
      <trkpt lat="45.08653" lon="6.42929">
        <ele>2168</ele>
        <time>2012-07-07T13:35:14Z</time>
      </trkpt>
      <trkpt lat="45.08642" lon="6.42939">
        <ele>2167</ele>
        <time>2012-07-07T13:35:19Z</time>
      </trkpt>
      <trkpt lat="45.08631" lon="6.42955">
        <ele>2167</ele>
        <time>2012-07-07T13:35:24Z</time>
      </trkpt>
      <trkpt lat="45.08621" lon="6.42967">
        <ele>2167</ele>
        <time>2012-07-07T13:35:29Z</time>
      </trkpt>
      <trkpt lat="45.0861" lon="6.42977">
        <ele>2167</ele>
        <time>2012-07-07T13:35:34Z</time>
      </trkpt>
      <trkpt lat="45.08597" lon="6.42985">
        <ele>2167</ele>
        <time>2012-07-07T13:35:39Z</time>
      </trkpt>
      <trkpt lat="45.08587" lon="6.42987">
        <ele>2168</ele>
        <time>2012-07-07T13:35:44Z</time>
      </trkpt>
      <trkpt lat="45.08574" lon="6.42989">
        <ele>2172</ele>
        <time>2012-07-07T13:35:49Z</time>
      </trkpt>
      <trkpt lat="45.08564" lon="6.42991">
        <ele>2173</ele>
        <time>2012-07-07T13:35:54Z</time>
      </trkpt>
      <trkpt lat="45.08553" lon="6.42992">
        <ele>2174</ele>
        <time>2012-07-07T13:35:59Z</time>
      </trkpt>
      <trkpt lat="45.08542" lon="6.42992">
        <ele>2174</ele>
        <time>2012-07-07T13:36:04Z</time>
      </trkpt>
      <trkpt lat="45.08532" lon="6.42988">
        <ele>2175</ele>
        <time>2012-07-07T13:36:09Z</time>
      </trkpt>
      <trkpt lat="45.08522" lon="6.42982">
        <ele>2175</ele>
        <time>2012-07-07T13:36:14Z</time>
      </trkpt>
      <trkpt lat="45.08512" lon="6.42974">
        <ele>2176</ele>
        <time>2012-07-07T13:36:19Z</time>
      </trkpt>
      <trkpt lat="45.08505" lon="6.42963">
        <ele>2177</ele>
        <time>2012-07-07T13:36:24Z</time>
      </trkpt>
      <trkpt lat="45.08501" lon="6.42945">
        <ele>2178</ele>
        <time>2012-07-07T13:36:29Z</time>
      </trkpt>
      <trkpt lat="45.08495" lon="6.42926">
        <ele>2181</ele>
        <time>2012-07-07T13:36:34Z</time>
      </trkpt>
      <trkpt lat="45.08492" lon="6.42915">
        <ele>2183</ele>
        <time>2012-07-07T13:36:39Z</time>
      </trkpt>
      <trkpt lat="45.08485" lon="6.42901">
        <ele>2185</ele>
        <time>2012-07-07T13:36:44Z</time>
      </trkpt>
      <trkpt lat="45.08479" lon="6.42892">
        <ele>2185</ele>
        <time>2012-07-07T13:36:49Z</time>
      </trkpt>
      <trkpt lat="45.08472" lon="6.42881">
        <ele>2186</ele>
        <time>2012-07-07T13:36:54Z</time>
      </trkpt>
      <trkpt lat="45.08465" lon="6.4287">
        <ele>2187</ele>
        <time>2012-07-07T13:36:59Z</time>
      </trkpt>
      <trkpt lat="45.08458" lon="6.42858">
        <ele>2187</ele>
        <time>2012-07-07T13:37:04Z</time>
      </trkpt>
      <trkpt lat="45.08452" lon="6.42846">
        <ele>2188</ele>
        <time>2012-07-07T13:37:09Z</time>
      </trkpt>
      <trkpt lat="45.08446" lon="6.42834">
        <ele>2188</ele>
        <time>2012-07-07T13:37:14Z</time>
      </trkpt>
      <trkpt lat="45.0844" lon="6.42822">
        <ele>2198</ele>
        <time>2012-07-07T13:37:19Z</time>
      </trkpt>
      <trkpt lat="45.08435" lon="6.4281">
        <ele>2199</ele>
        <time>2012-07-07T13:37:24Z</time>
      </trkpt>
      <trkpt lat="45.08427" lon="6.42798">
        <ele>2201</ele>
        <time>2012-07-07T13:37:29Z</time>
      </trkpt>
      <trkpt lat="45.08421" lon="6.4279">
        <ele>2203</ele>
        <time>2012-07-07T13:37:34Z</time>
      </trkpt>
      <trkpt lat="45.0841" lon="6.42782">
        <ele>2201</ele>
        <time>2012-07-07T13:37:39Z</time>
      </trkpt>
      <trkpt lat="45.08402" lon="6.42777">
        <ele>2202</ele>
        <time>2012-07-07T13:37:44Z</time>
      </trkpt>
      <trkpt lat="45.0839" lon="6.4277">
        <ele>2202</ele>
        <time>2012-07-07T13:37:49Z</time>
      </trkpt>
      <trkpt lat="45.08382" lon="6.42765">
        <ele>2201</ele>
        <time>2012-07-07T13:37:54Z</time>
      </trkpt>
      <trkpt lat="45.08373" lon="6.42758">
        <ele>2201</ele>
        <time>2012-07-07T13:37:59Z</time>
      </trkpt>
      <trkpt lat="45.08365" lon="6.42748">
        <ele>2213</ele>
        <time>2012-07-07T13:38:04Z</time>
      </trkpt>
      <trkpt lat="45.08357" lon="6.42738">
        <ele>2212</ele>
        <time>2012-07-07T13:38:09Z</time>
      </trkpt>
      <trkpt lat="45.0835" lon="6.42728">
        <ele>2213</ele>
        <time>2012-07-07T13:38:14Z</time>
      </trkpt>
      <trkpt lat="45.08341" lon="6.42721">
        <ele>2214</ele>
        <time>2012-07-07T13:38:19Z</time>
      </trkpt>
      <trkpt lat="45.0833" lon="6.42715">
        <ele>2213</ele>
        <time>2012-07-07T13:38:24Z</time>
      </trkpt>
      <trkpt lat="45.08322" lon="6.42711">
        <ele>2214</ele>
        <time>2012-07-07T13:38:29Z</time>
      </trkpt>
      <trkpt lat="45.0831" lon="6.42706">
        <ele>2215</ele>
        <time>2012-07-07T13:38:34Z</time>
      </trkpt>
      <trkpt lat="45.08302" lon="6.42703">
        <ele>2215</ele>
        <time>2012-07-07T13:38:39Z</time>
      </trkpt>
      <trkpt lat="45.0829" lon="6.42698">
        <ele>2216</ele>
        <time>2012-07-07T13:38:44Z</time>
      </trkpt>
      <trkpt lat="45.08282" lon="6.42695">
        <ele>2216</ele>
        <time>2012-07-07T13:38:49Z</time>
      </trkpt>
      <trkpt lat="45.0827" lon="6.42692">
        <ele>2217</ele>
        <time>2012-07-07T13:38:54Z</time>
      </trkpt>
      <trkpt lat="45.0826" lon="6.42687">
        <ele>2218</ele>
        <time>2012-07-07T13:38:59Z</time>
      </trkpt>
      <trkpt lat="45.0825" lon="6.42683">
        <ele>2220</ele>
        <time>2012-07-07T13:39:04Z</time>
      </trkpt>
      <trkpt lat="45.0824" lon="6.4268">
        <ele>2221</ele>
        <time>2012-07-07T13:39:09Z</time>
      </trkpt>
      <trkpt lat="45.08231" lon="6.42675">
        <ele>2221</ele>
        <time>2012-07-07T13:39:14Z</time>
      </trkpt>
      <trkpt lat="45.0822" lon="6.42671">
        <ele>2220</ele>
        <time>2012-07-07T13:39:19Z</time>
      </trkpt>
      <trkpt lat="45.08212" lon="6.42666">
        <ele>2233</ele>
        <time>2012-07-07T13:39:24Z</time>
      </trkpt>
      <trkpt lat="45.08202" lon="6.4266">
        <ele>2233</ele>
        <time>2012-07-07T13:39:29Z</time>
      </trkpt>
      <trkpt lat="45.08195" lon="6.42656">
        <ele>2233</ele>
        <time>2012-07-07T13:39:34Z</time>
      </trkpt>
      <trkpt lat="45.08185" lon="6.42651">
        <ele>2233</ele>
        <time>2012-07-07T13:39:39Z</time>
      </trkpt>
      <trkpt lat="45.08176" lon="6.42645">
        <ele>2233</ele>
        <time>2012-07-07T13:39:44Z</time>
      </trkpt>
      <trkpt lat="45.08167" lon="6.4264">
        <ele>2234</ele>
        <time>2012-07-07T13:39:49Z</time>
      </trkpt>
      <trkpt lat="45.08158" lon="6.42636">
        <ele>2235</ele>
        <time>2012-07-07T13:39:54Z</time>
      </trkpt>
      <trkpt lat="45.08149" lon="6.42629">
        <ele>2236</ele>
        <time>2012-07-07T13:39:59Z</time>
      </trkpt>
      <trkpt lat="45.08137" lon="6.42622">
        <ele>2237</ele>
        <time>2012-07-07T13:40:04Z</time>
      </trkpt>
      <trkpt lat="45.0813" lon="6.42616">
        <ele>2238</ele>
        <time>2012-07-07T13:40:09Z</time>
      </trkpt>
      <trkpt lat="45.08118" lon="6.42608">
        <ele>2238</ele>
        <time>2012-07-07T13:40:14Z</time>
      </trkpt>
      <trkpt lat="45.08111" lon="6.42602">
        <ele>2239</ele>
        <time>2012-07-07T13:40:19Z</time>
      </trkpt>
      <trkpt lat="45.08101" lon="6.42598">
        <ele>2240</ele>
        <time>2012-07-07T13:40:24Z</time>
      </trkpt>
      <trkpt lat="45.0809" lon="6.42596">
        <ele>2241</ele>
        <time>2012-07-07T13:40:29Z</time>
      </trkpt>
      <trkpt lat="45.08078" lon="6.42598">
        <ele>2242</ele>
        <time>2012-07-07T13:40:34Z</time>
      </trkpt>
      <trkpt lat="45.08067" lon="6.42605">
        <ele>2242</ele>
        <time>2012-07-07T13:40:39Z</time>
      </trkpt>
      <trkpt lat="45.08059" lon="6.42616">
        <ele>2241</ele>
        <time>2012-07-07T13:40:44Z</time>
      </trkpt>
      <trkpt lat="45.08053" lon="6.42627">
        <ele>2240</ele>
        <time>2012-07-07T13:40:49Z</time>
      </trkpt>
      <trkpt lat="45.08046" lon="6.42639">
        <ele>2240</ele>
        <time>2012-07-07T13:40:54Z</time>
      </trkpt>
      <trkpt lat="45.08036" lon="6.42653">
        <ele>2240</ele>
        <time>2012-07-07T13:40:59Z</time>
      </trkpt>
      <trkpt lat="45.08027" lon="6.42658">
        <ele>2240</ele>
        <time>2012-07-07T13:41:04Z</time>
      </trkpt>
      <trkpt lat="45.08013" lon="6.42661">
        <ele>2241</ele>
        <time>2012-07-07T13:41:09Z</time>
      </trkpt>
      <trkpt lat="45.08004" lon="6.42663">
        <ele>2242</ele>
        <time>2012-07-07T13:41:14Z</time>
      </trkpt>
      <trkpt lat="45.07993" lon="6.42666">
        <ele>2244</ele>
        <time>2012-07-07T13:41:19Z</time>
      </trkpt>
      <trkpt lat="45.07982" lon="6.42669">
        <ele>2244</ele>
        <time>2012-07-07T13:41:24Z</time>
      </trkpt>
      <trkpt lat="45.07971" lon="6.42671">
        <ele>2244</ele>
        <time>2012-07-07T13:41:29Z</time>
      </trkpt>
      <trkpt lat="45.0796" lon="6.42669">
        <ele>2245</ele>
        <time>2012-07-07T13:41:34Z</time>
      </trkpt>
      <trkpt lat="45.0795" lon="6.42664">
        <ele>2250</ele>
        <time>2012-07-07T13:41:39Z</time>
      </trkpt>
      <trkpt lat="45.0794" lon="6.42656">
        <ele>2251</ele>
        <time>2012-07-07T13:41:44Z</time>
      </trkpt>
      <trkpt lat="45.07929" lon="6.42645">
        <ele>2251</ele>
        <time>2012-07-07T13:41:49Z</time>
      </trkpt>
      <trkpt lat="45.07918" lon="6.42638">
        <ele>2252</ele>
        <time>2012-07-07T13:41:54Z</time>
      </trkpt>
      <trkpt lat="45.07912" lon="6.42632">
        <ele>2257</ele>
        <time>2012-07-07T13:41:59Z</time>
      </trkpt>
      <trkpt lat="45.07902" lon="6.42621">
        <ele>2258</ele>
        <time>2012-07-07T13:42:04Z</time>
      </trkpt>
      <trkpt lat="45.07895" lon="6.42615">
        <ele>2258</ele>
        <time>2012-07-07T13:42:09Z</time>
      </trkpt>
      <trkpt lat="45.07887" lon="6.42605">
        <ele>2259</ele>
        <time>2012-07-07T13:42:14Z</time>
      </trkpt>
      <trkpt lat="45.07888" lon="6.42604">
        <ele>2259</ele>
        <time>2012-07-07T13:42:19Z</time>
      </trkpt>
      <trkpt lat="45.07888" lon="6.42603">
        <ele>2259</ele>
        <time>2012-07-07T13:42:24Z</time>
      </trkpt>
      <trkpt lat="45.07888" lon="6.42603">
        <ele>2259</ele>
        <time>2012-07-07T13:42:29Z</time>
      </trkpt>
      <trkpt lat="45.07888" lon="6.42603">
        <ele>2259</ele>
        <time>2012-07-07T13:42:34Z</time>
      </trkpt>
      <trkpt lat="45.07888" lon="6.42604">
        <ele>2259</ele>
        <time>2012-07-07T13:42:39Z</time>
      </trkpt>
      <trkpt lat="45.07888" lon="6.42603">
        <ele>2259</ele>
        <time>2012-07-07T13:42:44Z</time>
      </trkpt>
      <trkpt lat="45.07888" lon="6.42604">
        <ele>2259</ele>
        <time>2012-07-07T13:42:49Z</time>
      </trkpt>
      <trkpt lat="45.07888" lon="6.42604">
        <ele>2259</ele>
        <time>2012-07-07T13:42:54Z</time>
      </trkpt>
      <trkpt lat="45.07888" lon="6.42604">
        <ele>2259</ele>
        <time>2012-07-07T13:42:59Z</time>
      </trkpt>
      <trkpt lat="45.07887" lon="6.42604">
        <ele>2259</ele>
        <time>2012-07-07T13:43:04Z</time>
      </trkpt>
      <trkpt lat="45.07885" lon="6.42603">
        <ele>2259</ele>
        <time>2012-07-07T13:43:09Z</time>
      </trkpt>
      <trkpt lat="45.07884" lon="6.42602">
        <ele>2259</ele>
        <time>2012-07-07T13:43:14Z</time>
      </trkpt>
      <trkpt lat="45.0788" lon="6.42598">
        <ele>2259</ele>
        <time>2012-07-07T13:43:19Z</time>
      </trkpt>
      <trkpt lat="45.07874" lon="6.42593">
        <ele>2260</ele>
        <time>2012-07-07T13:43:24Z</time>
      </trkpt>
      <trkpt lat="45.07865" lon="6.42586">
        <ele>2261</ele>
        <time>2012-07-07T13:43:29Z</time>
      </trkpt>
      <trkpt lat="45.07857" lon="6.42579">
        <ele>2265</ele>
        <time>2012-07-07T13:43:34Z</time>
      </trkpt>
      <trkpt lat="45.07848" lon="6.4257">
        <ele>2265</ele>
        <time>2012-07-07T13:43:39Z</time>
      </trkpt>
      <trkpt lat="45.07837" lon="6.42561">
        <ele>2266</ele>
        <time>2012-07-07T13:43:44Z</time>
      </trkpt>
      <trkpt lat="45.0783" lon="6.42555">
        <ele>2269</ele>
        <time>2012-07-07T13:43:49Z</time>
      </trkpt>
      <trkpt lat="45.07821" lon="6.42547">
        <ele>2270</ele>
        <time>2012-07-07T13:43:54Z</time>
      </trkpt>
      <trkpt lat="45.07812" lon="6.42539">
        <ele>2271</ele>
        <time>2012-07-07T13:43:59Z</time>
      </trkpt>
      <trkpt lat="45.07803" lon="6.42528">
        <ele>2271</ele>
        <time>2012-07-07T13:44:04Z</time>
      </trkpt>
      <trkpt lat="45.07796" lon="6.4252">
        <ele>2272</ele>
        <time>2012-07-07T13:44:09Z</time>
      </trkpt>
      <trkpt lat="45.0779" lon="6.42508">
        <ele>2272</ele>
        <time>2012-07-07T13:44:14Z</time>
      </trkpt>
      <trkpt lat="45.07788" lon="6.42494">
        <ele>2276</ele>
        <time>2012-07-07T13:44:19Z</time>
      </trkpt>
      <trkpt lat="45.07792" lon="6.42478">
        <ele>2276</ele>
        <time>2012-07-07T13:44:24Z</time>
      </trkpt>
      <trkpt lat="45.07804" lon="6.42466">
        <ele>2276</ele>
        <time>2012-07-07T13:44:29Z</time>
      </trkpt>
      <trkpt lat="45.07813" lon="6.42461">
        <ele>2276</ele>
        <time>2012-07-07T13:44:34Z</time>
      </trkpt>
      <trkpt lat="45.07826" lon="6.42453">
        <ele>2277</ele>
        <time>2012-07-07T13:44:39Z</time>
      </trkpt>
      <trkpt lat="45.07832" lon="6.42445">
        <ele>2278</ele>
        <time>2012-07-07T13:44:44Z</time>
      </trkpt>
      <trkpt lat="45.0784" lon="6.42435">
        <ele>2278</ele>
        <time>2012-07-07T13:44:49Z</time>
      </trkpt>
      <trkpt lat="45.07848" lon="6.42423">
        <ele>2279</ele>
        <time>2012-07-07T13:44:54Z</time>
      </trkpt>
      <trkpt lat="45.07859" lon="6.42411">
        <ele>2285</ele>
        <time>2012-07-07T13:44:59Z</time>
      </trkpt>
      <trkpt lat="45.07867" lon="6.42402">
        <ele>2285</ele>
        <time>2012-07-07T13:45:04Z</time>
      </trkpt>
      <trkpt lat="45.07874" lon="6.42392">
        <ele>2286</ele>
        <time>2012-07-07T13:45:09Z</time>
      </trkpt>
      <trkpt lat="45.0788" lon="6.42382">
        <ele>2287</ele>
        <time>2012-07-07T13:45:14Z</time>
      </trkpt>
      <trkpt lat="45.07885" lon="6.42372">
        <ele>2287</ele>
        <time>2012-07-07T13:45:19Z</time>
      </trkpt>
      <trkpt lat="45.07887" lon="6.42355">
        <ele>2288</ele>
        <time>2012-07-07T13:45:24Z</time>
      </trkpt>
      <trkpt lat="45.07888" lon="6.42343">
        <ele>2289</ele>
        <time>2012-07-07T13:45:29Z</time>
      </trkpt>
      <trkpt lat="45.07889" lon="6.42326">
        <ele>2293</ele>
        <time>2012-07-07T13:45:34Z</time>
      </trkpt>
      <trkpt lat="45.07891" lon="6.42314">
        <ele>2294</ele>
        <time>2012-07-07T13:45:39Z</time>
      </trkpt>
      <trkpt lat="45.07893" lon="6.42298">
        <ele>2294</ele>
        <time>2012-07-07T13:45:44Z</time>
      </trkpt>
      <trkpt lat="45.07897" lon="6.42284">
        <ele>2294</ele>
        <time>2012-07-07T13:45:49Z</time>
      </trkpt>
      <trkpt lat="45.07902" lon="6.4227">
        <ele>2295</ele>
        <time>2012-07-07T13:45:54Z</time>
      </trkpt>
      <trkpt lat="45.0791" lon="6.42257">
        <ele>2295</ele>
        <time>2012-07-07T13:45:59Z</time>
      </trkpt>
      <trkpt lat="45.0792" lon="6.42245">
        <ele>2296</ele>
        <time>2012-07-07T13:46:04Z</time>
      </trkpt>
      <trkpt lat="45.07928" lon="6.42234">
        <ele>2298</ele>
        <time>2012-07-07T13:46:09Z</time>
      </trkpt>
      <trkpt lat="45.07938" lon="6.42223">
        <ele>2299</ele>
        <time>2012-07-07T13:46:14Z</time>
      </trkpt>
      <trkpt lat="45.07948" lon="6.4221">
        <ele>2300</ele>
        <time>2012-07-07T13:46:19Z</time>
      </trkpt>
      <trkpt lat="45.07954" lon="6.42201">
        <ele>2301</ele>
        <time>2012-07-07T13:46:24Z</time>
      </trkpt>
      <trkpt lat="45.07965" lon="6.42189">
        <ele>2301</ele>
        <time>2012-07-07T13:46:29Z</time>
      </trkpt>
      <trkpt lat="45.07973" lon="6.42183">
        <ele>2302</ele>
        <time>2012-07-07T13:46:34Z</time>
      </trkpt>
      <trkpt lat="45.07985" lon="6.42188">
        <ele>2303</ele>
        <time>2012-07-07T13:46:39Z</time>
      </trkpt>
      <trkpt lat="45.07992" lon="6.42197">
        <ele>2303</ele>
        <time>2012-07-07T13:46:44Z</time>
      </trkpt>
      <trkpt lat="45.07997" lon="6.42214">
        <ele>2302</ele>
        <time>2012-07-07T13:46:49Z</time>
      </trkpt>
      <trkpt lat="45.07999" lon="6.42233">
        <ele>2303</ele>
        <time>2012-07-07T13:46:54Z</time>
      </trkpt>
      <trkpt lat="45.08001" lon="6.4225">
        <ele>2305</ele>
        <time>2012-07-07T13:46:59Z</time>
      </trkpt>
      <trkpt lat="45.08009" lon="6.42263">
        <ele>2310</ele>
        <time>2012-07-07T13:47:04Z</time>
      </trkpt>
      <trkpt lat="45.08017" lon="6.42276">
        <ele>2314</ele>
        <time>2012-07-07T13:47:09Z</time>
      </trkpt>
      <trkpt lat="45.08025" lon="6.42294">
        <ele>2316</ele>
        <time>2012-07-07T13:47:14Z</time>
      </trkpt>
      <trkpt lat="45.08027" lon="6.42308">
        <ele>2316</ele>
        <time>2012-07-07T13:47:19Z</time>
      </trkpt>
      <trkpt lat="45.08028" lon="6.42325">
        <ele>2316</ele>
        <time>2012-07-07T13:47:24Z</time>
      </trkpt>
      <trkpt lat="45.08025" lon="6.42341">
        <ele>2313</ele>
        <time>2012-07-07T13:47:29Z</time>
      </trkpt>
      <trkpt lat="45.0802" lon="6.42358">
        <ele>2312</ele>
        <time>2012-07-07T13:47:34Z</time>
      </trkpt>
      <trkpt lat="45.08018" lon="6.42376">
        <ele>2311</ele>
        <time>2012-07-07T13:47:39Z</time>
      </trkpt>
      <trkpt lat="45.08024" lon="6.42391">
        <ele>2311</ele>
        <time>2012-07-07T13:47:44Z</time>
      </trkpt>
      <trkpt lat="45.08036" lon="6.42393">
        <ele>2313</ele>
        <time>2012-07-07T13:47:49Z</time>
      </trkpt>
      <trkpt lat="45.08045" lon="6.42378">
        <ele>2315</ele>
        <time>2012-07-07T13:47:54Z</time>
      </trkpt>
      <trkpt lat="45.08048" lon="6.42359">
        <ele>2317</ele>
        <time>2012-07-07T13:47:59Z</time>
      </trkpt>
      <trkpt lat="45.08051" lon="6.4234">
        <ele>2319</ele>
        <time>2012-07-07T13:48:04Z</time>
      </trkpt>
      <trkpt lat="45.08054" lon="6.4232">
        <ele>2322</ele>
        <time>2012-07-07T13:48:09Z</time>
      </trkpt>
      <trkpt lat="45.08056" lon="6.42307">
        <ele>2321</ele>
        <time>2012-07-07T13:48:14Z</time>
      </trkpt>
      <trkpt lat="45.0806" lon="6.42286">
        <ele>2321</ele>
        <time>2012-07-07T13:48:19Z</time>
      </trkpt>
      <trkpt lat="45.08064" lon="6.42273">
        <ele>2321</ele>
        <time>2012-07-07T13:48:24Z</time>
      </trkpt>
      <trkpt lat="45.08069" lon="6.42254">
        <ele>2323</ele>
        <time>2012-07-07T13:48:29Z</time>
      </trkpt>
      <trkpt lat="45.08073" lon="6.42241">
        <ele>2323</ele>
        <time>2012-07-07T13:48:34Z</time>
      </trkpt>
      <trkpt lat="45.0808" lon="6.42225">
        <ele>2321</ele>
        <time>2012-07-07T13:48:39Z</time>
      </trkpt>
      <trkpt lat="45.08085" lon="6.4221">
        <ele>2335</ele>
        <time>2012-07-07T13:48:44Z</time>
      </trkpt>
      <trkpt lat="45.08089" lon="6.42195">
        <ele>2334</ele>
        <time>2012-07-07T13:48:49Z</time>
      </trkpt>
      <trkpt lat="45.08093" lon="6.42177">
        <ele>2331</ele>
        <time>2012-07-07T13:48:54Z</time>
      </trkpt>
      <trkpt lat="45.08096" lon="6.42165">
        <ele>2330</ele>
        <time>2012-07-07T13:48:59Z</time>
      </trkpt>
      <trkpt lat="45.08099" lon="6.42145">
        <ele>2333</ele>
        <time>2012-07-07T13:49:04Z</time>
      </trkpt>
      <trkpt lat="45.08102" lon="6.4213">
        <ele>2335</ele>
        <time>2012-07-07T13:49:09Z</time>
      </trkpt>
      <trkpt lat="45.08106" lon="6.42111">
        <ele>2335</ele>
        <time>2012-07-07T13:49:14Z</time>
      </trkpt>
      <trkpt lat="45.08108" lon="6.42099">
        <ele>2335</ele>
        <time>2012-07-07T13:49:19Z</time>
      </trkpt>
      <trkpt lat="45.08111" lon="6.42081">
        <ele>2337</ele>
        <time>2012-07-07T13:49:24Z</time>
      </trkpt>
      <trkpt lat="45.08111" lon="6.42068">
        <ele>2338</ele>
        <time>2012-07-07T13:49:29Z</time>
      </trkpt>
      <trkpt lat="45.08108" lon="6.42051">
        <ele>2339</ele>
        <time>2012-07-07T13:49:34Z</time>
      </trkpt>
      <trkpt lat="45.08105" lon="6.42035">
        <ele>2339</ele>
        <time>2012-07-07T13:49:39Z</time>
      </trkpt>
      <trkpt lat="45.08102" lon="6.42019">
        <ele>2338</ele>
        <time>2012-07-07T13:49:44Z</time>
      </trkpt>
      <trkpt lat="45.08097" lon="6.42">
        <ele>2339</ele>
        <time>2012-07-07T13:49:49Z</time>
      </trkpt>
      <trkpt lat="45.08095" lon="6.41988">
        <ele>2340</ele>
        <time>2012-07-07T13:49:54Z</time>
      </trkpt>
      <trkpt lat="45.08091" lon="6.41968">
        <ele>2344</ele>
        <time>2012-07-07T13:49:59Z</time>
      </trkpt>
      <trkpt lat="45.08089" lon="6.41955">
        <ele>2345</ele>
        <time>2012-07-07T13:50:04Z</time>
      </trkpt>
      <trkpt lat="45.08086" lon="6.4194">
        <ele>2344</ele>
        <time>2012-07-07T13:50:09Z</time>
      </trkpt>
      <trkpt lat="45.08084" lon="6.41924">
        <ele>2342</ele>
        <time>2012-07-07T13:50:14Z</time>
      </trkpt>
      <trkpt lat="45.08083" lon="6.41908">
        <ele>2338</ele>
        <time>2012-07-07T13:50:19Z</time>
      </trkpt>
      <trkpt lat="45.08082" lon="6.41892">
        <ele>2336</ele>
        <time>2012-07-07T13:50:24Z</time>
      </trkpt>
      <trkpt lat="45.08081" lon="6.41877">
        <ele>2336</ele>
        <time>2012-07-07T13:50:29Z</time>
      </trkpt>
      <trkpt lat="45.08081" lon="6.41861">
        <ele>2337</ele>
        <time>2012-07-07T13:50:34Z</time>
      </trkpt>
      <trkpt lat="45.08081" lon="6.41844">
        <ele>2341</ele>
        <time>2012-07-07T13:50:39Z</time>
      </trkpt>
      <trkpt lat="45.0808" lon="6.41825">
        <ele>2345</ele>
        <time>2012-07-07T13:50:44Z</time>
      </trkpt>
      <trkpt lat="45.0808" lon="6.41812">
        <ele>2344</ele>
        <time>2012-07-07T13:50:49Z</time>
      </trkpt>
      <trkpt lat="45.0808" lon="6.41791">
        <ele>2344</ele>
        <time>2012-07-07T13:50:54Z</time>
      </trkpt>
      <trkpt lat="45.08079" lon="6.41778">
        <ele>2346</ele>
        <time>2012-07-07T13:50:59Z</time>
      </trkpt>
      <trkpt lat="45.08078" lon="6.41758">
        <ele>2351</ele>
        <time>2012-07-07T13:51:04Z</time>
      </trkpt>
      <trkpt lat="45.08076" lon="6.41746">
        <ele>2355</ele>
        <time>2012-07-07T13:51:09Z</time>
      </trkpt>
      <trkpt lat="45.08072" lon="6.4173">
        <ele>2355</ele>
        <time>2012-07-07T13:51:14Z</time>
      </trkpt>
      <trkpt lat="45.08067" lon="6.41716">
        <ele>2355</ele>
        <time>2012-07-07T13:51:19Z</time>
      </trkpt>
      <trkpt lat="45.0806" lon="6.41702">
        <ele>2356</ele>
        <time>2012-07-07T13:51:24Z</time>
      </trkpt>
      <trkpt lat="45.08053" lon="6.4169">
        <ele>2357</ele>
        <time>2012-07-07T13:51:29Z</time>
      </trkpt>
      <trkpt lat="45.08045" lon="6.41678">
        <ele>2356</ele>
        <time>2012-07-07T13:51:34Z</time>
      </trkpt>
      <trkpt lat="45.08034" lon="6.41666">
        <ele>2367</ele>
        <time>2012-07-07T13:51:39Z</time>
      </trkpt>
      <trkpt lat="45.08026" lon="6.41659">
        <ele>2366</ele>
        <time>2012-07-07T13:51:44Z</time>
      </trkpt>
      <trkpt lat="45.08015" lon="6.41652">
        <ele>2364</ele>
        <time>2012-07-07T13:51:49Z</time>
      </trkpt>
      <trkpt lat="45.08004" lon="6.41645">
        <ele>2364</ele>
        <time>2012-07-07T13:51:54Z</time>
      </trkpt>
      <trkpt lat="45.07992" lon="6.41636">
        <ele>2356</ele>
        <time>2012-07-07T13:51:59Z</time>
      </trkpt>
      <trkpt lat="45.07984" lon="6.41631">
        <ele>2357</ele>
        <time>2012-07-07T13:52:04Z</time>
      </trkpt>
      <trkpt lat="45.07973" lon="6.41625">
        <ele>2357</ele>
        <time>2012-07-07T13:52:09Z</time>
      </trkpt>
      <trkpt lat="45.07962" lon="6.41618">
        <ele>2357</ele>
        <time>2012-07-07T13:52:14Z</time>
      </trkpt>
      <trkpt lat="45.07953" lon="6.41608">
        <ele>2357</ele>
        <time>2012-07-07T13:52:19Z</time>
      </trkpt>
      <trkpt lat="45.07947" lon="6.41595">
        <ele>2358</ele>
        <time>2012-07-07T13:52:24Z</time>
      </trkpt>
      <trkpt lat="45.07941" lon="6.41582">
        <ele>2367</ele>
        <time>2012-07-07T13:52:29Z</time>
      </trkpt>
      <trkpt lat="45.07933" lon="6.41566">
        <ele>2368</ele>
        <time>2012-07-07T13:52:34Z</time>
      </trkpt>
      <trkpt lat="45.07928" lon="6.41555">
        <ele>2369</ele>
        <time>2012-07-07T13:52:39Z</time>
      </trkpt>
      <trkpt lat="45.07922" lon="6.41537">
        <ele>2371</ele>
        <time>2012-07-07T13:52:44Z</time>
      </trkpt>
      <trkpt lat="45.07919" lon="6.41522">
        <ele>2372</ele>
        <time>2012-07-07T13:52:49Z</time>
      </trkpt>
      <trkpt lat="45.07918" lon="6.415">
        <ele>2372</ele>
        <time>2012-07-07T13:52:54Z</time>
      </trkpt>
      <trkpt lat="45.07917" lon="6.41487">
        <ele>2380</ele>
        <time>2012-07-07T13:52:59Z</time>
      </trkpt>
      <trkpt lat="45.07912" lon="6.41472">
        <ele>2375</ele>
        <time>2012-07-07T13:53:04Z</time>
      </trkpt>
      <trkpt lat="45.07905" lon="6.41459">
        <ele>2376</ele>
        <time>2012-07-07T13:53:09Z</time>
      </trkpt>
      <trkpt lat="45.07899" lon="6.41447">
        <ele>2378</ele>
        <time>2012-07-07T13:53:14Z</time>
      </trkpt>
      <trkpt lat="45.0789" lon="6.41432">
        <ele>2379</ele>
        <time>2012-07-07T13:53:19Z</time>
      </trkpt>
      <trkpt lat="45.07884" lon="6.41423">
        <ele>2378</ele>
        <time>2012-07-07T13:53:24Z</time>
      </trkpt>
      <trkpt lat="45.07873" lon="6.4141">
        <ele>2389</ele>
        <time>2012-07-07T13:53:29Z</time>
      </trkpt>
      <trkpt lat="45.07865" lon="6.41403">
        <ele>2389</ele>
        <time>2012-07-07T13:53:34Z</time>
      </trkpt>
      <trkpt lat="45.07856" lon="6.41393">
        <ele>2389</ele>
        <time>2012-07-07T13:53:39Z</time>
      </trkpt>
      <trkpt lat="45.07846" lon="6.41385">
        <ele>2389</ele>
        <time>2012-07-07T13:53:44Z</time>
      </trkpt>
      <trkpt lat="45.07833" lon="6.41376">
        <ele>2383</ele>
        <time>2012-07-07T13:53:49Z</time>
      </trkpt>
      <trkpt lat="45.07825" lon="6.41369">
        <ele>2384</ele>
        <time>2012-07-07T13:53:54Z</time>
      </trkpt>
      <trkpt lat="45.07814" lon="6.41361">
        <ele>2385</ele>
        <time>2012-07-07T13:53:59Z</time>
      </trkpt>
      <trkpt lat="45.07804" lon="6.41353">
        <ele>2385</ele>
        <time>2012-07-07T13:54:04Z</time>
      </trkpt>
      <trkpt lat="45.07794" lon="6.41343">
        <ele>2385</ele>
        <time>2012-07-07T13:54:09Z</time>
      </trkpt>
      <trkpt lat="45.07782" lon="6.41332">
        <ele>2394</ele>
        <time>2012-07-07T13:54:14Z</time>
      </trkpt>
      <trkpt lat="45.07774" lon="6.41325">
        <ele>2393</ele>
        <time>2012-07-07T13:54:19Z</time>
      </trkpt>
      <trkpt lat="45.07762" lon="6.41315">
        <ele>2392</ele>
        <time>2012-07-07T13:54:24Z</time>
      </trkpt>
      <trkpt lat="45.07754" lon="6.41308">
        <ele>2393</ele>
        <time>2012-07-07T13:54:29Z</time>
      </trkpt>
      <trkpt lat="45.07745" lon="6.41297">
        <ele>2389</ele>
        <time>2012-07-07T13:54:34Z</time>
      </trkpt>
      <trkpt lat="45.07736" lon="6.41286">
        <ele>2391</ele>
        <time>2012-07-07T13:54:39Z</time>
      </trkpt>
      <trkpt lat="45.07727" lon="6.41275">
        <ele>2392</ele>
        <time>2012-07-07T13:54:44Z</time>
      </trkpt>
      <trkpt lat="45.07718" lon="6.41265">
        <ele>2392</ele>
        <time>2012-07-07T13:54:49Z</time>
      </trkpt>
      <trkpt lat="45.07709" lon="6.41257">
        <ele>2392</ele>
        <time>2012-07-07T13:54:54Z</time>
      </trkpt>
      <trkpt lat="45.07699" lon="6.41247">
        <ele>2400</ele>
        <time>2012-07-07T13:54:59Z</time>
      </trkpt>
      <trkpt lat="45.07688" lon="6.41238">
        <ele>2400</ele>
        <time>2012-07-07T13:55:04Z</time>
      </trkpt>
      <trkpt lat="45.07675" lon="6.41228">
        <ele>2400</ele>
        <time>2012-07-07T13:55:09Z</time>
      </trkpt>
      <trkpt lat="45.07667" lon="6.4122">
        <ele>2400</ele>
        <time>2012-07-07T13:55:14Z</time>
      </trkpt>
      <trkpt lat="45.07655" lon="6.41211">
        <ele>2400</ele>
        <time>2012-07-07T13:55:19Z</time>
      </trkpt>
      <trkpt lat="45.07647" lon="6.41205">
        <ele>2401</ele>
        <time>2012-07-07T13:55:24Z</time>
      </trkpt>
      <trkpt lat="45.07635" lon="6.41196">
        <ele>2402</ele>
        <time>2012-07-07T13:55:29Z</time>
      </trkpt>
      <trkpt lat="45.07627" lon="6.41191">
        <ele>2402</ele>
        <time>2012-07-07T13:55:34Z</time>
      </trkpt>
      <trkpt lat="45.07616" lon="6.41188">
        <ele>2402</ele>
        <time>2012-07-07T13:55:39Z</time>
      </trkpt>
      <trkpt lat="45.07605" lon="6.4119">
        <ele>2402</ele>
        <time>2012-07-07T13:55:44Z</time>
      </trkpt>
      <trkpt lat="45.07596" lon="6.41198">
        <ele>2402</ele>
        <time>2012-07-07T13:55:49Z</time>
      </trkpt>
      <trkpt lat="45.07592" lon="6.41213">
        <ele>2401</ele>
        <time>2012-07-07T13:55:54Z</time>
      </trkpt>
      <trkpt lat="45.07591" lon="6.4123">
        <ele>2400</ele>
        <time>2012-07-07T13:55:59Z</time>
      </trkpt>
      <trkpt lat="45.07588" lon="6.4125">
        <ele>2399</ele>
        <time>2012-07-07T13:56:04Z</time>
      </trkpt>
      <trkpt lat="45.07582" lon="6.41259">
        <ele>2402</ele>
        <time>2012-07-07T13:56:09Z</time>
      </trkpt>
      <trkpt lat="45.07573" lon="6.41269">
        <ele>2404</ele>
        <time>2012-07-07T13:56:14Z</time>
      </trkpt>
      <trkpt lat="45.07564" lon="6.41277">
        <ele>2405</ele>
        <time>2012-07-07T13:56:19Z</time>
      </trkpt>
      <trkpt lat="45.07552" lon="6.41288">
        <ele>2407</ele>
        <time>2012-07-07T13:56:24Z</time>
      </trkpt>
      <trkpt lat="45.07544" lon="6.41294">
        <ele>2407</ele>
        <time>2012-07-07T13:56:29Z</time>
      </trkpt>
      <trkpt lat="45.07534" lon="6.41301">
        <ele>2408</ele>
        <time>2012-07-07T13:56:34Z</time>
      </trkpt>
      <trkpt lat="45.07525" lon="6.41308">
        <ele>2409</ele>
        <time>2012-07-07T13:56:39Z</time>
      </trkpt>
      <trkpt lat="45.07515" lon="6.41315">
        <ele>2410</ele>
        <time>2012-07-07T13:56:44Z</time>
      </trkpt>
      <trkpt lat="45.07505" lon="6.41321">
        <ele>2411</ele>
        <time>2012-07-07T13:56:49Z</time>
      </trkpt>
      <trkpt lat="45.07495" lon="6.41325">
        <ele>2416</ele>
        <time>2012-07-07T13:56:54Z</time>
      </trkpt>
      <trkpt lat="45.07481" lon="6.41327">
        <ele>2418</ele>
        <time>2012-07-07T13:56:59Z</time>
      </trkpt>
      <trkpt lat="45.07472" lon="6.41328">
        <ele>2419</ele>
        <time>2012-07-07T13:57:04Z</time>
      </trkpt>
      <trkpt lat="45.07461" lon="6.41329">
        <ele>2420</ele>
        <time>2012-07-07T13:57:09Z</time>
      </trkpt>
      <trkpt lat="45.0745" lon="6.41331">
        <ele>2421</ele>
        <time>2012-07-07T13:57:14Z</time>
      </trkpt>
      <trkpt lat="45.07436" lon="6.41332">
        <ele>2422</ele>
        <time>2012-07-07T13:57:19Z</time>
      </trkpt>
      <trkpt lat="45.07427" lon="6.41334">
        <ele>2419</ele>
        <time>2012-07-07T13:57:24Z</time>
      </trkpt>
      <trkpt lat="45.07416" lon="6.41333">
        <ele>2423</ele>
        <time>2012-07-07T13:57:29Z</time>
      </trkpt>
      <trkpt lat="45.07406" lon="6.41325">
        <ele>2425</ele>
        <time>2012-07-07T13:57:34Z</time>
      </trkpt>
      <trkpt lat="45.07398" lon="6.41314">
        <ele>2426</ele>
        <time>2012-07-07T13:57:39Z</time>
      </trkpt>
      <trkpt lat="45.0739" lon="6.413">
        <ele>2427</ele>
        <time>2012-07-07T13:57:44Z</time>
      </trkpt>
      <trkpt lat="45.07383" lon="6.41291">
        <ele>2428</ele>
        <time>2012-07-07T13:57:49Z</time>
      </trkpt>
      <trkpt lat="45.07372" lon="6.41281">
        <ele>2428</ele>
        <time>2012-07-07T13:57:54Z</time>
      </trkpt>
      <trkpt lat="45.07363" lon="6.41278">
        <ele>2429</ele>
        <time>2012-07-07T13:57:59Z</time>
      </trkpt>
      <trkpt lat="45.07352" lon="6.41278">
        <ele>2429</ele>
        <time>2012-07-07T13:58:04Z</time>
      </trkpt>
      <trkpt lat="45.07341" lon="6.41279">
        <ele>2430</ele>
        <time>2012-07-07T13:58:09Z</time>
      </trkpt>
      <trkpt lat="45.07327" lon="6.41282">
        <ele>2435</ele>
        <time>2012-07-07T13:58:14Z</time>
      </trkpt>
      <trkpt lat="45.07318" lon="6.41283">
        <ele>2435</ele>
        <time>2012-07-07T13:58:19Z</time>
      </trkpt>
      <trkpt lat="45.07307" lon="6.41284">
        <ele>2436</ele>
        <time>2012-07-07T13:58:24Z</time>
      </trkpt>
      <trkpt lat="45.07295" lon="6.41286">
        <ele>2436</ele>
        <time>2012-07-07T13:58:29Z</time>
      </trkpt>
      <trkpt lat="45.07284" lon="6.41287">
        <ele>2437</ele>
        <time>2012-07-07T13:58:34Z</time>
      </trkpt>
      <trkpt lat="45.0727" lon="6.41292">
        <ele>2438</ele>
        <time>2012-07-07T13:58:39Z</time>
      </trkpt>
      <trkpt lat="45.07261" lon="6.41295">
        <ele>2438</ele>
        <time>2012-07-07T13:58:44Z</time>
      </trkpt>
      <trkpt lat="45.07247" lon="6.41299">
        <ele>2444</ele>
        <time>2012-07-07T13:58:49Z</time>
      </trkpt>
      <trkpt lat="45.07237" lon="6.41301">
        <ele>2444</ele>
        <time>2012-07-07T13:58:54Z</time>
      </trkpt>
      <trkpt lat="45.07225" lon="6.41301">
        <ele>2444</ele>
        <time>2012-07-07T13:58:59Z</time>
      </trkpt>
      <trkpt lat="45.07214" lon="6.41293">
        <ele>2445</ele>
        <time>2012-07-07T13:59:04Z</time>
      </trkpt>
      <trkpt lat="45.07208" lon="6.41277">
        <ele>2446</ele>
        <time>2012-07-07T13:59:09Z</time>
      </trkpt>
      <trkpt lat="45.07207" lon="6.41257">
        <ele>2446</ele>
        <time>2012-07-07T13:59:14Z</time>
      </trkpt>
      <trkpt lat="45.07209" lon="6.41239">
        <ele>2448</ele>
        <time>2012-07-07T13:59:19Z</time>
      </trkpt>
      <trkpt lat="45.07212" lon="6.41221">
        <ele>2448</ele>
        <time>2012-07-07T13:59:24Z</time>
      </trkpt>
      <trkpt lat="45.07213" lon="6.41204">
        <ele>2448</ele>
        <time>2012-07-07T13:59:29Z</time>
      </trkpt>
      <trkpt lat="45.07211" lon="6.41184">
        <ele>2448</ele>
        <time>2012-07-07T13:59:34Z</time>
      </trkpt>
      <trkpt lat="45.07206" lon="6.41173">
        <ele>2449</ele>
        <time>2012-07-07T13:59:39Z</time>
      </trkpt>
      <trkpt lat="45.07193" lon="6.41163">
        <ele>2447</ele>
        <time>2012-07-07T13:59:44Z</time>
      </trkpt>
      <trkpt lat="45.07184" lon="6.4116">
        <ele>2449</ele>
        <time>2012-07-07T13:59:49Z</time>
      </trkpt>
      <trkpt lat="45.07172" lon="6.41157">
        <ele>2451</ele>
        <time>2012-07-07T13:59:54Z</time>
      </trkpt>
      <trkpt lat="45.0716" lon="6.41155">
        <ele>2455</ele>
        <time>2012-07-07T13:59:59Z</time>
      </trkpt>
      <trkpt lat="45.07148" lon="6.41153">
        <ele>2455</ele>
        <time>2012-07-07T14:00:04Z</time>
      </trkpt>
      <trkpt lat="45.07136" lon="6.41151">
        <ele>2455</ele>
        <time>2012-07-07T14:00:09Z</time>
      </trkpt>
      <trkpt lat="45.07125" lon="6.41151">
        <ele>2455</ele>
        <time>2012-07-07T14:00:14Z</time>
      </trkpt>
      <trkpt lat="45.07111" lon="6.41152">
        <ele>2456</ele>
        <time>2012-07-07T14:00:19Z</time>
      </trkpt>
      <trkpt lat="45.07099" lon="6.41148">
        <ele>2457</ele>
        <time>2012-07-07T14:00:24Z</time>
      </trkpt>
      <trkpt lat="45.07085" lon="6.41139">
        <ele>2456</ele>
        <time>2012-07-07T14:00:29Z</time>
      </trkpt>
      <trkpt lat="45.07076" lon="6.41132">
        <ele>2460</ele>
        <time>2012-07-07T14:00:34Z</time>
      </trkpt>
      <trkpt lat="45.07064" lon="6.41123">
        <ele>2460</ele>
        <time>2012-07-07T14:00:39Z</time>
      </trkpt>
      <trkpt lat="45.07056" lon="6.41116">
        <ele>2460</ele>
        <time>2012-07-07T14:00:44Z</time>
      </trkpt>
      <trkpt lat="45.07046" lon="6.41109">
        <ele>2461</ele>
        <time>2012-07-07T14:00:49Z</time>
      </trkpt>
      <trkpt lat="45.07036" lon="6.41102">
        <ele>2462</ele>
        <time>2012-07-07T14:00:54Z</time>
      </trkpt>
      <trkpt lat="45.07026" lon="6.41095">
        <ele>2463</ele>
        <time>2012-07-07T14:00:59Z</time>
      </trkpt>
      <trkpt lat="45.07015" lon="6.4109">
        <ele>2465</ele>
        <time>2012-07-07T14:01:04Z</time>
      </trkpt>
      <trkpt lat="45.07004" lon="6.41088">
        <ele>2467</ele>
        <time>2012-07-07T14:01:09Z</time>
      </trkpt>
      <trkpt lat="45.0699" lon="6.41086">
        <ele>2468</ele>
        <time>2012-07-07T14:01:14Z</time>
      </trkpt>
      <trkpt lat="45.06981" lon="6.41084">
        <ele>2467</ele>
        <time>2012-07-07T14:01:19Z</time>
      </trkpt>
      <trkpt lat="45.06967" lon="6.41081">
        <ele>2468</ele>
        <time>2012-07-07T14:01:24Z</time>
      </trkpt>
      <trkpt lat="45.06958" lon="6.41078">
        <ele>2468</ele>
        <time>2012-07-07T14:01:29Z</time>
      </trkpt>
      <trkpt lat="45.06948" lon="6.41073">
        <ele>2468</ele>
        <time>2012-07-07T14:01:34Z</time>
      </trkpt>
      <trkpt lat="45.06937" lon="6.41067">
        <ele>2468</ele>
        <time>2012-07-07T14:01:39Z</time>
      </trkpt>
      <trkpt lat="45.06925" lon="6.41059">
        <ele>2468</ele>
        <time>2012-07-07T14:01:44Z</time>
      </trkpt>
      <trkpt lat="45.06919" lon="6.41049">
        <ele>2469</ele>
        <time>2012-07-07T14:01:49Z</time>
      </trkpt>
      <trkpt lat="45.06918" lon="6.41033">
        <ele>2469</ele>
        <time>2012-07-07T14:01:54Z</time>
      </trkpt>
      <trkpt lat="45.06922" lon="6.41016">
        <ele>2471</ele>
        <time>2012-07-07T14:01:59Z</time>
      </trkpt>
      <trkpt lat="45.06926" lon="6.41">
        <ele>2472</ele>
        <time>2012-07-07T14:02:04Z</time>
      </trkpt>
      <trkpt lat="45.06923" lon="6.40981">
        <ele>2470</ele>
        <time>2012-07-07T14:02:09Z</time>
      </trkpt>
      <trkpt lat="45.06915" lon="6.40976">
        <ele>2482</ele>
        <time>2012-07-07T14:02:14Z</time>
      </trkpt>
      <trkpt lat="45.06902" lon="6.40982">
        <ele>2483</ele>
        <time>2012-07-07T14:02:19Z</time>
      </trkpt>
      <trkpt lat="45.06894" lon="6.40988">
        <ele>2483</ele>
        <time>2012-07-07T14:02:24Z</time>
      </trkpt>
      <trkpt lat="45.06882" lon="6.40994">
        <ele>2485</ele>
        <time>2012-07-07T14:02:29Z</time>
      </trkpt>
      <trkpt lat="45.06873" lon="6.40996">
        <ele>2486</ele>
        <time>2012-07-07T14:02:34Z</time>
      </trkpt>
      <trkpt lat="45.0686" lon="6.40998">
        <ele>2488</ele>
        <time>2012-07-07T14:02:39Z</time>
      </trkpt>
      <trkpt lat="45.06851" lon="6.41001">
        <ele>2486</ele>
        <time>2012-07-07T14:02:44Z</time>
      </trkpt>
      <trkpt lat="45.06841" lon="6.41008">
        <ele>2488</ele>
        <time>2012-07-07T14:02:49Z</time>
      </trkpt>
      <trkpt lat="45.06832" lon="6.41017">
        <ele>2498</ele>
        <time>2012-07-07T14:02:54Z</time>
      </trkpt>
      <trkpt lat="45.06824" lon="6.41028">
        <ele>2501</ele>
        <time>2012-07-07T14:02:59Z</time>
      </trkpt>
      <trkpt lat="45.06819" lon="6.41044">
        <ele>2502</ele>
        <time>2012-07-07T14:03:04Z</time>
      </trkpt>
      <trkpt lat="45.06819" lon="6.41057">
        <ele>2501</ele>
        <time>2012-07-07T14:03:09Z</time>
      </trkpt>
      <trkpt lat="45.06822" lon="6.41074">
        <ele>2497</ele>
        <time>2012-07-07T14:03:14Z</time>
      </trkpt>
      <trkpt lat="45.06822" lon="6.41081">
        <ele>2495</ele>
        <time>2012-07-07T14:03:19Z</time>
      </trkpt>
      <trkpt lat="45.06817" lon="6.41096">
        <ele>2500</ele>
        <time>2012-07-07T14:03:24Z</time>
      </trkpt>
      <trkpt lat="45.06814" lon="6.41099">
        <ele>2501</ele>
        <time>2012-07-07T14:03:29Z</time>
      </trkpt>
      <trkpt lat="45.06814" lon="6.41099">
        <ele>2501</ele>
        <time>2012-07-07T14:03:34Z</time>
      </trkpt>
      <trkpt lat="45.06815" lon="6.411">
        <ele>2501</ele>
        <time>2012-07-07T14:03:39Z</time>
      </trkpt>
      <trkpt lat="45.06816" lon="6.41099">
        <ele>2500</ele>
        <time>2012-07-07T14:03:44Z</time>
      </trkpt>
      <trkpt lat="45.06816" lon="6.41099">
        <ele>2500</ele>
        <time>2012-07-07T14:03:49Z</time>
      </trkpt>
      <trkpt lat="45.06816" lon="6.41099">
        <ele>2500</ele>
        <time>2012-07-07T14:03:54Z</time>
      </trkpt>
      <trkpt lat="45.06816" lon="6.41099">
        <ele>2500</ele>
        <time>2012-07-07T14:03:59Z</time>
      </trkpt>
      <trkpt lat="45.06816" lon="6.41099">
        <ele>2500</ele>
        <time>2012-07-07T14:04:04Z</time>
      </trkpt>
      <trkpt lat="45.06816" lon="6.41098">
        <ele>2500</ele>
        <time>2012-07-07T14:04:09Z</time>
      </trkpt>
      <trkpt lat="45.06816" lon="6.41098">
        <ele>2500</ele>
        <time>2012-07-07T14:04:14Z</time>
      </trkpt>
      <trkpt lat="45.06816" lon="6.41098">
        <ele>2500</ele>
        <time>2012-07-07T14:04:19Z</time>
      </trkpt>
      <trkpt lat="45.06816" lon="6.41099">
        <ele>2500</ele>
        <time>2012-07-07T14:04:24Z</time>
      </trkpt>
      <trkpt lat="45.06816" lon="6.41099">
        <ele>2500</ele>
        <time>2012-07-07T14:04:29Z</time>
      </trkpt>
      <trkpt lat="45.06816" lon="6.41099">
        <ele>2500</ele>
        <time>2012-07-07T14:04:34Z</time>
      </trkpt>
      <trkpt lat="45.06816" lon="6.41099">
        <ele>2500</ele>
        <time>2012-07-07T14:04:39Z</time>
      </trkpt>
      <trkpt lat="45.06816" lon="6.41099">
        <ele>2500</ele>
        <time>2012-07-07T14:04:44Z</time>
      </trkpt>
      <trkpt lat="45.06816" lon="6.41099">
        <ele>2500</ele>
        <time>2012-07-07T14:04:49Z</time>
      </trkpt>
      <trkpt lat="45.06814" lon="6.411">
        <ele>2501</ele>
        <time>2012-07-07T14:04:54Z</time>
      </trkpt>
      <trkpt lat="45.06813" lon="6.411">
        <ele>2502</ele>
        <time>2012-07-07T14:04:59Z</time>
      </trkpt>
      <trkpt lat="45.06812" lon="6.411">
        <ele>2502</ele>
        <time>2012-07-07T14:05:04Z</time>
      </trkpt>
      <trkpt lat="45.06806" lon="6.411">
        <ele>2504</ele>
        <time>2012-07-07T14:05:09Z</time>
      </trkpt>
      <trkpt lat="45.06794" lon="6.41083">
        <ele>2507</ele>
        <time>2012-07-07T14:05:14Z</time>
      </trkpt>
      <trkpt lat="45.06796" lon="6.41066">
        <ele>2506</ele>
        <time>2012-07-07T14:05:19Z</time>
      </trkpt>
      <trkpt lat="45.068" lon="6.41048">
        <ele>2506</ele>
        <time>2012-07-07T14:05:24Z</time>
      </trkpt>
      <trkpt lat="45.06802" lon="6.41032">
        <ele>2505</ele>
        <time>2012-07-07T14:05:29Z</time>
      </trkpt>
      <trkpt lat="45.06803" lon="6.41014">
        <ele>2504</ele>
        <time>2012-07-07T14:05:34Z</time>
      </trkpt>
      <trkpt lat="45.06803" lon="6.40998">
        <ele>2506</ele>
        <time>2012-07-07T14:05:39Z</time>
      </trkpt>
      <trkpt lat="45.06805" lon="6.40982">
        <ele>2507</ele>
        <time>2012-07-07T14:05:44Z</time>
      </trkpt>
      <trkpt lat="45.06806" lon="6.40962">
        <ele>2508</ele>
        <time>2012-07-07T14:05:49Z</time>
      </trkpt>
      <trkpt lat="45.06809" lon="6.40949">
        <ele>2508</ele>
        <time>2012-07-07T14:05:54Z</time>
      </trkpt>
      <trkpt lat="45.06817" lon="6.40937">
        <ele>2507</ele>
        <time>2012-07-07T14:05:59Z</time>
      </trkpt>
      <trkpt lat="45.06829" lon="6.40932">
        <ele>2505</ele>
        <time>2012-07-07T14:06:04Z</time>
      </trkpt>
      <trkpt lat="45.06843" lon="6.40929">
        <ele>2494</ele>
        <time>2012-07-07T14:06:09Z</time>
      </trkpt>
      <trkpt lat="45.06851" lon="6.40922">
        <ele>2494</ele>
        <time>2012-07-07T14:06:14Z</time>
      </trkpt>
      <trkpt lat="45.06857" lon="6.40908">
        <ele>2491</ele>
        <time>2012-07-07T14:06:19Z</time>
      </trkpt>
      <trkpt lat="45.06859" lon="6.40893">
        <ele>2490</ele>
        <time>2012-07-07T14:06:24Z</time>
      </trkpt>
      <trkpt lat="45.06854" lon="6.40879">
        <ele>2489</ele>
        <time>2012-07-07T14:06:29Z</time>
      </trkpt>
      <trkpt lat="45.06844" lon="6.40867">
        <ele>2490</ele>
        <time>2012-07-07T14:06:34Z</time>
      </trkpt>
      <trkpt lat="45.06836" lon="6.40864">
        <ele>2491</ele>
        <time>2012-07-07T14:06:39Z</time>
      </trkpt>
      <trkpt lat="45.06823" lon="6.40864">
        <ele>2508</ele>
        <time>2012-07-07T14:06:44Z</time>
      </trkpt>
      <trkpt lat="45.06814" lon="6.40867">
        <ele>2510</ele>
        <time>2012-07-07T14:06:49Z</time>
      </trkpt>
      <trkpt lat="45.06804" lon="6.40873">
        <ele>2511</ele>
        <time>2012-07-07T14:06:54Z</time>
      </trkpt>
      <trkpt lat="45.06793" lon="6.40878">
        <ele>2513</ele>
        <time>2012-07-07T14:06:59Z</time>
      </trkpt>
      <trkpt lat="45.06782" lon="6.40885">
        <ele>2515</ele>
        <time>2012-07-07T14:07:04Z</time>
      </trkpt>
      <trkpt lat="45.06774" lon="6.40889">
        <ele>2516</ele>
        <time>2012-07-07T14:07:09Z</time>
      </trkpt>
      <trkpt lat="45.06765" lon="6.40894">
        <ele>2518</ele>
        <time>2012-07-07T14:07:14Z</time>
      </trkpt>
      <trkpt lat="45.06756" lon="6.40902">
        <ele>2521</ele>
        <time>2012-07-07T14:07:19Z</time>
      </trkpt>
      <trkpt lat="45.0675" lon="6.40912">
        <ele>2525</ele>
        <time>2012-07-07T14:07:24Z</time>
      </trkpt>
      <trkpt lat="45.06748" lon="6.40928">
        <ele>2531</ele>
        <time>2012-07-07T14:07:29Z</time>
      </trkpt>
      <trkpt lat="45.06745" lon="6.4094">
        <ele>2534</ele>
        <time>2012-07-07T14:07:34Z</time>
      </trkpt>
      <trkpt lat="45.0674" lon="6.40956">
        <ele>2535</ele>
        <time>2012-07-07T14:07:39Z</time>
      </trkpt>
      <trkpt lat="45.06738" lon="6.40968">
        <ele>2535</ele>
        <time>2012-07-07T14:07:44Z</time>
      </trkpt>
      <trkpt lat="45.06734" lon="6.40986">
        <ele>2533</ele>
        <time>2012-07-07T14:07:49Z</time>
      </trkpt>
      <trkpt lat="45.06732" lon="6.40998">
        <ele>2533</ele>
        <time>2012-07-07T14:07:54Z</time>
      </trkpt>
      <trkpt lat="45.0673" lon="6.41013">
        <ele>2532</ele>
        <time>2012-07-07T14:07:59Z</time>
      </trkpt>
      <trkpt lat="45.0673" lon="6.41028">
        <ele>2533</ele>
        <time>2012-07-07T14:08:04Z</time>
      </trkpt>
      <trkpt lat="45.0673" lon="6.41043">
        <ele>2533</ele>
        <time>2012-07-07T14:08:09Z</time>
      </trkpt>
      <trkpt lat="45.06729" lon="6.41058">
        <ele>2532</ele>
        <time>2012-07-07T14:08:14Z</time>
      </trkpt>
      <trkpt lat="45.06724" lon="6.41072">
        <ele>2532</ele>
        <time>2012-07-07T14:08:19Z</time>
      </trkpt>
      <trkpt lat="45.06712" lon="6.41069">
        <ele>2534</ele>
        <time>2012-07-07T14:08:24Z</time>
      </trkpt>
      <trkpt lat="45.06708" lon="6.41059">
        <ele>2535</ele>
        <time>2012-07-07T14:08:29Z</time>
      </trkpt>
      <trkpt lat="45.06706" lon="6.4104">
        <ele>2536</ele>
        <time>2012-07-07T14:08:34Z</time>
      </trkpt>
      <trkpt lat="45.06705" lon="6.41027">
        <ele>2538</ele>
        <time>2012-07-07T14:08:39Z</time>
      </trkpt>
      <trkpt lat="45.06701" lon="6.41009">
        <ele>2540</ele>
        <time>2012-07-07T14:08:44Z</time>
      </trkpt>
      <trkpt lat="45.067" lon="6.40996">
        <ele>2543</ele>
        <time>2012-07-07T14:08:49Z</time>
      </trkpt>
      <trkpt lat="45.06697" lon="6.40981">
        <ele>2543</ele>
        <time>2012-07-07T14:08:54Z</time>
      </trkpt>
      <trkpt lat="45.06695" lon="6.40965">
        <ele>2542</ele>
        <time>2012-07-07T14:08:59Z</time>
      </trkpt>
      <trkpt lat="45.06694" lon="6.4095">
        <ele>2542</ele>
        <time>2012-07-07T14:09:04Z</time>
      </trkpt>
      <trkpt lat="45.06694" lon="6.40932">
        <ele>2542</ele>
        <time>2012-07-07T14:09:09Z</time>
      </trkpt>
      <trkpt lat="45.06692" lon="6.4092">
        <ele>2543</ele>
        <time>2012-07-07T14:09:14Z</time>
      </trkpt>
      <trkpt lat="45.06683" lon="6.40912">
        <ele>2544</ele>
        <time>2012-07-07T14:09:19Z</time>
      </trkpt>
      <trkpt lat="45.06673" lon="6.40919">
        <ele>2549</ele>
        <time>2012-07-07T14:09:24Z</time>
      </trkpt>
      <trkpt lat="45.06663" lon="6.40932">
        <ele>2552</ele>
        <time>2012-07-07T14:09:29Z</time>
      </trkpt>
      <trkpt lat="45.06657" lon="6.40941">
        <ele>2553</ele>
        <time>2012-07-07T14:09:34Z</time>
      </trkpt>
      <trkpt lat="45.06647" lon="6.40952">
        <ele>2554</ele>
        <time>2012-07-07T14:09:39Z</time>
      </trkpt>
      <trkpt lat="45.0664" lon="6.40955">
        <ele>2554</ele>
        <time>2012-07-07T14:09:44Z</time>
      </trkpt>
      <trkpt lat="45.06631" lon="6.40949">
        <ele>2554</ele>
        <time>2012-07-07T14:09:49Z</time>
      </trkpt>
      <trkpt lat="45.06624" lon="6.40939">
        <ele>2553</ele>
        <time>2012-07-07T14:09:54Z</time>
      </trkpt>
      <trkpt lat="45.0662" lon="6.40926">
        <ele>2553</ele>
        <time>2012-07-07T14:09:59Z</time>
      </trkpt>
      <trkpt lat="45.06614" lon="6.40913">
        <ele>2549</ele>
        <time>2012-07-07T14:10:04Z</time>
      </trkpt>
      <trkpt lat="45.06608" lon="6.40907">
        <ele>2549</ele>
        <time>2012-07-07T14:10:09Z</time>
      </trkpt>
      <trkpt lat="45.06597" lon="6.40912">
        <ele>2549</ele>
        <time>2012-07-07T14:10:14Z</time>
      </trkpt>
      <trkpt lat="45.06592" lon="6.40922">
        <ele>2553</ele>
        <time>2012-07-07T14:10:19Z</time>
      </trkpt>
      <trkpt lat="45.06594" lon="6.40939">
        <ele>2554</ele>
        <time>2012-07-07T14:10:24Z</time>
      </trkpt>
      <trkpt lat="45.06596" lon="6.4095">
        <ele>2554</ele>
        <time>2012-07-07T14:10:29Z</time>
      </trkpt>
      <trkpt lat="45.066" lon="6.40963">
        <ele>2554</ele>
        <time>2012-07-07T14:10:34Z</time>
      </trkpt>
      <trkpt lat="45.06601" lon="6.40964">
        <ele>2554</ele>
        <time>2012-07-07T14:10:39Z</time>
      </trkpt>
      <trkpt lat="45.06601" lon="6.40964">
        <ele>2554</ele>
        <time>2012-07-07T14:10:44Z</time>
      </trkpt>
      <trkpt lat="45.06603" lon="6.40963">
        <ele>2554</ele>
        <time>2012-07-07T14:10:49Z</time>
      </trkpt>
      <trkpt lat="45.06604" lon="6.40963">
        <ele>2554</ele>
        <time>2012-07-07T14:10:54Z</time>
      </trkpt>
      <trkpt lat="45.06606" lon="6.40963">
        <ele>2554</ele>
        <time>2012-07-07T14:10:59Z</time>
      </trkpt>
      <trkpt lat="45.06607" lon="6.40964">
        <ele>2554</ele>
        <time>2012-07-07T14:11:04Z</time>
      </trkpt>
      <trkpt lat="45.06604" lon="6.40965">
        <ele>2554</ele>
        <time>2012-07-07T14:11:09Z</time>
      </trkpt>
      <trkpt lat="45.06603" lon="6.40966">
        <ele>2554</ele>
        <time>2012-07-07T14:11:14Z</time>
      </trkpt>
      <trkpt lat="45.06602" lon="6.40966">
        <ele>2554</ele>
        <time>2012-07-07T14:11:19Z</time>
      </trkpt>
      <trkpt lat="45.06604" lon="6.4097">
        <ele>2554</ele>
        <time>2012-07-07T14:11:24Z</time>
      </trkpt>
      <trkpt lat="45.06609" lon="6.40981">
        <ele>2555</ele>
        <time>2012-07-07T14:11:29Z</time>
      </trkpt>
      <trkpt lat="45.06613" lon="6.4099">
        <ele>2555</ele>
        <time>2012-07-07T14:11:34Z</time>
      </trkpt>
      <trkpt lat="45.06619" lon="6.41002">
        <ele>2557</ele>
        <time>2012-07-07T14:11:39Z</time>
      </trkpt>
      <trkpt lat="45.06623" lon="6.41015">
        <ele>2557</ele>
        <time>2012-07-07T14:11:44Z</time>
      </trkpt>
      <trkpt lat="45.06628" lon="6.41027">
        <ele>2557</ele>
        <time>2012-07-07T14:11:49Z</time>
      </trkpt>
      <trkpt lat="45.06634" lon="6.41042">
        <ele>2557</ele>
        <time>2012-07-07T14:11:54Z</time>
      </trkpt>
      <trkpt lat="45.06637" lon="6.41053">
        <ele>2557</ele>
        <time>2012-07-07T14:11:59Z</time>
      </trkpt>
      <trkpt lat="45.06642" lon="6.41069">
        <ele>2557</ele>
        <time>2012-07-07T14:12:04Z</time>
      </trkpt>
      <trkpt lat="45.06645" lon="6.41079">
        <ele>2557</ele>
        <time>2012-07-07T14:12:09Z</time>
      </trkpt>
      <trkpt lat="45.06651" lon="6.4109">
        <ele>2574.1</ele>
        <time>2012-07-07T14:12:14Z</time>
      </trkpt>
      <trkpt lat="45.06656" lon="6.41101">
        <ele>2577.6</ele>
        <time>2012-07-07T14:12:19Z</time>
      </trkpt>
      <trkpt lat="45.06661" lon="6.41111">
        <ele>2579.7</ele>
        <time>2012-07-07T14:12:24Z</time>
      </trkpt>
      <trkpt lat="45.06667" lon="6.41121">
        <ele>2578.9</ele>
        <time>2012-07-07T14:12:29Z</time>
      </trkpt>
      <trkpt lat="45.06672" lon="6.41134">
        <ele>2529</ele>
        <time>2012-07-07T14:12:34Z</time>
      </trkpt>
      <trkpt lat="45.06672" lon="6.4115">
        <ele>2529</ele>
        <time>2012-07-07T14:12:39Z</time>
      </trkpt>
      <trkpt lat="45.06668" lon="6.4116">
        <ele>2529</ele>
        <time>2012-07-07T14:12:44Z</time>
      </trkpt>
      <trkpt lat="45.06661" lon="6.41174">
        <ele>2581.9</ele>
        <time>2012-07-07T14:12:49Z</time>
      </trkpt>
      <trkpt lat="45.06657" lon="6.41183">
        <ele>2582.7</ele>
        <time>2012-07-07T14:12:54Z</time>
      </trkpt>
      <trkpt lat="45.06651" lon="6.41198">
        <ele>2583.5</ele>
        <time>2012-07-07T14:12:59Z</time>
      </trkpt>
      <trkpt lat="45.06647" lon="6.41207">
        <ele>2584.7</ele>
        <time>2012-07-07T14:13:04Z</time>
      </trkpt>
      <trkpt lat="45.06643" lon="6.4122">
        <ele>2585.7</ele>
        <time>2012-07-07T14:13:09Z</time>
      </trkpt>
      <trkpt lat="45.06638" lon="6.41232">
        <ele>2587.8</ele>
        <time>2012-07-07T14:13:14Z</time>
      </trkpt>
      <trkpt lat="45.06633" lon="6.41243">
        <ele>2589.6</ele>
        <time>2012-07-07T14:13:19Z</time>
      </trkpt>
      <trkpt lat="45.06625" lon="6.41254">
        <ele>2591.7</ele>
        <time>2012-07-07T14:13:24Z</time>
      </trkpt>
      <trkpt lat="45.06619" lon="6.41265">
        <ele>2593.1</ele>
        <time>2012-07-07T14:13:29Z</time>
      </trkpt>
      <trkpt lat="45.06612" lon="6.41276">
        <ele>2594.9</ele>
        <time>2012-07-07T14:13:34Z</time>
      </trkpt>
      <trkpt lat="45.06606" lon="6.41287">
        <ele>2595.7</ele>
        <time>2012-07-07T14:13:39Z</time>
      </trkpt>
      <trkpt lat="45.066" lon="6.413">
        <ele>2595.4</ele>
        <time>2012-07-07T14:13:44Z</time>
      </trkpt>
      <trkpt lat="45.06596" lon="6.41307">
        <ele>2595.3</ele>
        <time>2012-07-07T14:13:49Z</time>
      </trkpt>
      <trkpt lat="45.06586" lon="6.41307">
        <ele>2597.9</ele>
        <time>2012-07-07T14:13:54Z</time>
      </trkpt>
      <trkpt lat="45.06585" lon="6.41296">
        <ele>2601.2</ele>
        <time>2012-07-07T14:13:59Z</time>
      </trkpt>
      <trkpt lat="45.06591" lon="6.41283">
        <ele>2602.5</ele>
        <time>2012-07-07T14:14:04Z</time>
      </trkpt>
      <trkpt lat="45.06598" lon="6.4127">
        <ele>2602.6</ele>
        <time>2012-07-07T14:14:09Z</time>
      </trkpt>
      <trkpt lat="45.06603" lon="6.41256">
        <ele>2603.1</ele>
        <time>2012-07-07T14:14:14Z</time>
      </trkpt>
      <trkpt lat="45.06607" lon="6.41241">
        <ele>2603.4</ele>
        <time>2012-07-07T14:14:19Z</time>
      </trkpt>
      <trkpt lat="45.0661" lon="6.41226">
        <ele>2604.3</ele>
        <time>2012-07-07T14:14:24Z</time>
      </trkpt>
      <trkpt lat="45.06612" lon="6.41209">
        <ele>2605</ele>
        <time>2012-07-07T14:14:29Z</time>
      </trkpt>
      <trkpt lat="45.06612" lon="6.41193">
        <ele>2606.5</ele>
        <time>2012-07-07T14:14:34Z</time>
      </trkpt>
      <trkpt lat="45.06612" lon="6.41172">
        <ele>2607.1</ele>
        <time>2012-07-07T14:14:39Z</time>
      </trkpt>
      <trkpt lat="45.06614" lon="6.41159">
        <ele>2607.4</ele>
        <time>2012-07-07T14:14:44Z</time>
      </trkpt>
      <trkpt lat="45.06613" lon="6.41142">
        <ele>2608.9</ele>
        <time>2012-07-07T14:14:49Z</time>
      </trkpt>
      <trkpt lat="45.06606" lon="6.41129">
        <ele>2610.1</ele>
        <time>2012-07-07T14:14:54Z</time>
      </trkpt>
      <trkpt lat="45.06593" lon="6.41119">
        <ele>2613</ele>
        <time>2012-07-07T14:14:59Z</time>
      </trkpt>
      <trkpt lat="45.06584" lon="6.41114">
        <ele>2614.4</ele>
        <time>2012-07-07T14:15:04Z</time>
      </trkpt>
      <trkpt lat="45.06573" lon="6.41107">
        <ele>2614.7</ele>
        <time>2012-07-07T14:15:09Z</time>
      </trkpt>
      <trkpt lat="45.06561" lon="6.411">
        <ele>2615.7</ele>
        <time>2012-07-07T14:15:14Z</time>
      </trkpt>
      <trkpt lat="45.0655" lon="6.41092">
        <ele>2617.2</ele>
        <time>2012-07-07T14:15:19Z</time>
      </trkpt>
      <trkpt lat="45.06541" lon="6.4108">
        <ele>2618.4</ele>
        <time>2012-07-07T14:15:24Z</time>
      </trkpt>
      <trkpt lat="45.06536" lon="6.41069">
        <ele>2619.1</ele>
        <time>2012-07-07T14:15:29Z</time>
      </trkpt>
      <trkpt lat="45.06529" lon="6.41052">
        <ele>2620</ele>
        <time>2012-07-07T14:15:34Z</time>
      </trkpt>
      <trkpt lat="45.06523" lon="6.41042">
        <ele>2621.8</ele>
        <time>2012-07-07T14:15:39Z</time>
      </trkpt>
      <trkpt lat="45.06515" lon="6.41027">
        <ele>2623.7</ele>
        <time>2012-07-07T14:15:44Z</time>
      </trkpt>
      <trkpt lat="45.0651" lon="6.41018">
        <ele>2624.1</ele>
        <time>2012-07-07T14:15:49Z</time>
      </trkpt>
      <trkpt lat="45.06503" lon="6.41005">
        <ele>2623.8</ele>
        <time>2012-07-07T14:15:54Z</time>
      </trkpt>
      <trkpt lat="45.06497" lon="6.40992">
        <ele>2625.3</ele>
        <time>2012-07-07T14:15:59Z</time>
      </trkpt>
      <trkpt lat="45.06492" lon="6.40979">
        <ele>2627.1</ele>
        <time>2012-07-07T14:16:04Z</time>
      </trkpt>
      <trkpt lat="45.06485" lon="6.40967">
        <ele>2627.9</ele>
        <time>2012-07-07T14:16:09Z</time>
      </trkpt>
      <trkpt lat="45.06477" lon="6.40957">
        <ele>2628.8</ele>
        <time>2012-07-07T14:16:14Z</time>
      </trkpt>
      <trkpt lat="45.06467" lon="6.40946">
        <ele>2630.5</ele>
        <time>2012-07-07T14:16:19Z</time>
      </trkpt>
      <trkpt lat="45.06461" lon="6.40938">
        <ele>2630.6</ele>
        <time>2012-07-07T14:16:24Z</time>
      </trkpt>
      <trkpt lat="45.0645" lon="6.40925">
        <ele>2631.7</ele>
        <time>2012-07-07T14:16:29Z</time>
      </trkpt>
      <trkpt lat="45.06445" lon="6.40915">
        <ele>2631.8</ele>
        <time>2012-07-07T14:16:34Z</time>
      </trkpt>
      <trkpt lat="45.06438" lon="6.409">
        <ele>2634.5</ele>
        <time>2012-07-07T14:16:39Z</time>
      </trkpt>
      <trkpt lat="45.06433" lon="6.40889">
        <ele>2637</ele>
        <time>2012-07-07T14:16:44Z</time>
      </trkpt>
      <trkpt lat="45.06428" lon="6.40876">
        <ele>2637.6</ele>
        <time>2012-07-07T14:16:49Z</time>
      </trkpt>
      <trkpt lat="45.06425" lon="6.40862">
        <ele>2637.1</ele>
        <time>2012-07-07T14:16:54Z</time>
      </trkpt>
      <trkpt lat="45.06423" lon="6.40847">
        <ele>2637</ele>
        <time>2012-07-07T14:16:59Z</time>
      </trkpt>
      <trkpt lat="45.06421" lon="6.40833">
        <ele>2636.5</ele>
        <time>2012-07-07T14:17:04Z</time>
      </trkpt>
      <trkpt lat="45.06421" lon="6.40818">
        <ele>2637.5</ele>
        <time>2012-07-07T14:17:09Z</time>
      </trkpt>
      <trkpt lat="45.06421" lon="6.40802">
        <ele>2638.6</ele>
        <time>2012-07-07T14:17:14Z</time>
      </trkpt>
      <trkpt lat="45.0642" lon="6.40796">
        <ele>2640</ele>
        <time>2012-07-07T14:17:19Z</time>
      </trkpt>
      <trkpt lat="45.06416" lon="6.40791">
        <ele>2641.3</ele>
        <time>2012-07-07T14:17:24Z</time>
      </trkpt>
      <trkpt lat="45.06412" lon="6.40789">
        <ele>2640.3</ele>
        <time>2012-07-07T14:17:29Z</time>
      </trkpt>
      <trkpt lat="45.06402" lon="6.40797">
        <ele>2637</ele>
        <time>2012-07-07T14:17:34Z</time>
      </trkpt>
      <trkpt lat="45.06394" lon="6.40819">
        <ele>2635.8</ele>
        <time>2012-07-07T14:17:39Z</time>
      </trkpt>
      <trkpt lat="45.06392" lon="6.40838">
        <ele>2637.2</ele>
        <time>2012-07-07T14:17:44Z</time>
      </trkpt>
      <trkpt lat="45.06391" lon="6.40841">
        <ele>2637.2</ele>
        <time>2012-07-07T14:17:49Z</time>
      </trkpt>
      <trkpt lat="45.06391" lon="6.40841">
        <ele>2637.2</ele>
        <time>2012-07-07T14:17:54Z</time>
      </trkpt>
      <trkpt lat="45.06391" lon="6.40841">
        <ele>2637.2</ele>
        <time>2012-07-07T14:17:59Z</time>
      </trkpt>
      <trkpt lat="45.06391" lon="6.40841">
        <ele>2637.2</ele>
        <time>2012-07-07T14:18:04Z</time>
      </trkpt>
      <trkpt lat="45.06392" lon="6.40841">
        <ele>2637.3</ele>
        <time>2012-07-07T14:18:09Z</time>
      </trkpt>
      <trkpt lat="45.06392" lon="6.40841">
        <ele>2637.3</ele>
        <time>2012-07-07T14:18:14Z</time>
      </trkpt>
      <trkpt lat="45.06392" lon="6.40841">
        <ele>2637.3</ele>
        <time>2012-07-07T14:18:19Z</time>
      </trkpt>
      <trkpt lat="45.06389" lon="6.40852">
        <ele>2636.7</ele>
        <time>2012-07-07T14:18:24Z</time>
      </trkpt>
      <trkpt lat="45.06372" lon="6.40897">
        <ele>2633.4</ele>
        <time>2012-07-07T14:18:29Z</time>
      </trkpt>
      <trkpt lat="45.06349" lon="6.40923">
        <ele>2627.9</ele>
        <time>2012-07-07T14:18:34Z</time>
      </trkpt>
      <trkpt lat="45.0633" lon="6.40981">
        <ele>2621.8</ele>
        <time>2012-07-07T14:18:39Z</time>
      </trkpt>
      <trkpt lat="45.063" lon="6.41034">
        <ele>2615.7</ele>
        <time>2012-07-07T14:18:44Z</time>
      </trkpt>
      <trkpt lat="45.0628" lon="6.41102">
        <ele>2608.5</ele>
        <time>2012-07-07T14:18:49Z</time>
      </trkpt>
      <trkpt lat="45.06267" lon="6.41166">
        <ele>2607.7</ele>
        <time>2012-07-07T14:18:54Z</time>
      </trkpt>
      <trkpt lat="45.06254" lon="6.41143">
        <ele>2600.8</ele>
        <time>2012-07-07T14:18:59Z</time>
      </trkpt>
      <trkpt lat="45.06256" lon="6.41088">
        <ele>2599.4</ele>
        <time>2012-07-07T14:19:04Z</time>
      </trkpt>
      <trkpt lat="45.06244" lon="6.41109">
        <ele>2594.4</ele>
        <time>2012-07-07T14:19:09Z</time>
      </trkpt>
      <trkpt lat="45.06237" lon="6.4115">
        <ele>2596.2</ele>
        <time>2012-07-07T14:19:14Z</time>
      </trkpt>
      <trkpt lat="45.06224" lon="6.41137">
        <ele>2591.4</ele>
        <time>2012-07-07T14:19:19Z</time>
      </trkpt>
      <trkpt lat="45.06227" lon="6.41086">
        <ele>2587.8</ele>
        <time>2012-07-07T14:19:24Z</time>
      </trkpt>
      <trkpt lat="45.06223" lon="6.41019">
        <ele>2549</ele>
        <time>2012-07-07T14:19:29Z</time>
      </trkpt>
      <trkpt lat="45.06234" lon="6.40951">
        <ele>2541</ele>
        <time>2012-07-07T14:19:34Z</time>
      </trkpt>
      <trkpt lat="45.06264" lon="6.40887">
        <ele>2557</ele>
        <time>2012-07-07T14:19:39Z</time>
      </trkpt>
      <trkpt lat="45.06297" lon="6.40837">
        <ele>2557</ele>
        <time>2012-07-07T14:19:44Z</time>
      </trkpt>
      <trkpt lat="45.06301" lon="6.40767">
        <ele>2550</ele>
        <time>2012-07-07T14:19:49Z</time>
      </trkpt>
      <trkpt lat="45.0629" lon="6.40702">
        <ele>2549</ele>
        <time>2012-07-07T14:19:54Z</time>
      </trkpt>
      <trkpt lat="45.06257" lon="6.40663">
        <ele>2552</ele>
        <time>2012-07-07T14:19:59Z</time>
      </trkpt>
      <trkpt lat="45.0623" lon="6.40645">
        <ele>2547</ele>
        <time>2012-07-07T14:20:04Z</time>
      </trkpt>
      <trkpt lat="45.06195" lon="6.40588">
        <ele>2545</ele>
        <time>2012-07-07T14:20:09Z</time>
      </trkpt>
      <trkpt lat="45.06172" lon="6.40571">
        <ele>2545</ele>
        <time>2012-07-07T14:20:14Z</time>
      </trkpt>
      <trkpt lat="45.06143" lon="6.40601">
        <ele>2532</ele>
        <time>2012-07-07T14:20:19Z</time>
      </trkpt>
      <trkpt lat="45.06156" lon="6.40654">
        <ele>2530</ele>
        <time>2012-07-07T14:20:24Z</time>
      </trkpt>
      <trkpt lat="45.06195" lon="6.40694">
        <ele>2536</ele>
        <time>2012-07-07T14:20:29Z</time>
      </trkpt>
      <trkpt lat="45.06247" lon="6.40733">
        <ele>2542</ele>
        <time>2012-07-07T14:20:34Z</time>
      </trkpt>
      <trkpt lat="45.06248" lon="6.40787">
        <ele>2542</ele>
        <time>2012-07-07T14:20:39Z</time>
      </trkpt>
      <trkpt lat="45.06194" lon="6.40823">
        <ele>2534</ele>
        <time>2012-07-07T14:20:44Z</time>
      </trkpt>
      <trkpt lat="45.0616" lon="6.40851">
        <ele>2517</ele>
        <time>2012-07-07T14:20:49Z</time>
      </trkpt>
      <trkpt lat="45.06145" lon="6.40916">
        <ele>2520</ele>
        <time>2012-07-07T14:20:54Z</time>
      </trkpt>
      <trkpt lat="45.06135" lon="6.40983">
        <ele>2527</ele>
        <time>2012-07-07T14:20:59Z</time>
      </trkpt>
      <trkpt lat="45.06096" lon="6.41055">
        <ele>2523</ele>
        <time>2012-07-07T14:21:04Z</time>
      </trkpt>
      <trkpt lat="45.06075" lon="6.41103">
        <ele>2516</ele>
        <time>2012-07-07T14:21:09Z</time>
      </trkpt>
      <trkpt lat="45.06062" lon="6.41156">
        <ele>2519</ele>
        <time>2012-07-07T14:21:14Z</time>
      </trkpt>
      <trkpt lat="45.06033" lon="6.41161">
        <ele>2511</ele>
        <time>2012-07-07T14:21:19Z</time>
      </trkpt>
      <trkpt lat="45.06043" lon="6.41101">
        <ele>2510</ele>
        <time>2012-07-07T14:21:24Z</time>
      </trkpt>
      <trkpt lat="45.06071" lon="6.41048">
        <ele>2505</ele>
        <time>2012-07-07T14:21:29Z</time>
      </trkpt>
      <trkpt lat="45.06093" lon="6.40987">
        <ele>2515</ele>
        <time>2012-07-07T14:21:34Z</time>
      </trkpt>
      <trkpt lat="45.06096" lon="6.409">
        <ele>2505</ele>
        <time>2012-07-07T14:21:39Z</time>
      </trkpt>
      <trkpt lat="45.06098" lon="6.40837">
        <ele>2499</ele>
        <time>2012-07-07T14:21:44Z</time>
      </trkpt>
      <trkpt lat="45.06104" lon="6.40751">
        <ele>2503</ele>
        <time>2012-07-07T14:21:49Z</time>
      </trkpt>
      <trkpt lat="45.06083" lon="6.40709">
        <ele>2498</ele>
        <time>2012-07-07T14:21:54Z</time>
      </trkpt>
      <trkpt lat="45.06024" lon="6.40684">
        <ele>2496</ele>
        <time>2012-07-07T14:21:59Z</time>
      </trkpt>
      <trkpt lat="45.05979" lon="6.40682">
        <ele>2492</ele>
        <time>2012-07-07T14:22:04Z</time>
      </trkpt>
      <trkpt lat="45.05924" lon="6.40699">
        <ele>2492</ele>
        <time>2012-07-07T14:22:09Z</time>
      </trkpt>
      <trkpt lat="45.05876" lon="6.40719">
        <ele>2494</ele>
        <time>2012-07-07T14:22:14Z</time>
      </trkpt>
      <trkpt lat="45.05824" lon="6.4074">
        <ele>2492</ele>
        <time>2012-07-07T14:22:19Z</time>
      </trkpt>
      <trkpt lat="45.05763" lon="6.40771">
        <ele>2477</ele>
        <time>2012-07-07T14:22:24Z</time>
      </trkpt>
      <trkpt lat="45.05725" lon="6.40788">
        <ele>2478</ele>
        <time>2012-07-07T14:22:29Z</time>
      </trkpt>
      <trkpt lat="45.05689" lon="6.40844">
        <ele>2451</ele>
        <time>2012-07-07T14:22:34Z</time>
      </trkpt>
      <trkpt lat="45.05659" lon="6.40858">
        <ele>2453</ele>
        <time>2012-07-07T14:22:39Z</time>
      </trkpt>
      <trkpt lat="45.05605" lon="6.40853">
        <ele>2450</ele>
        <time>2012-07-07T14:22:44Z</time>
      </trkpt>
      <trkpt lat="45.05569" lon="6.40851">
        <ele>2443</ele>
        <time>2012-07-07T14:22:49Z</time>
      </trkpt>
      <trkpt lat="45.05534" lon="6.40795">
        <ele>2446</ele>
        <time>2012-07-07T14:22:54Z</time>
      </trkpt>
      <trkpt lat="45.05518" lon="6.4074">
        <ele>2449</ele>
        <time>2012-07-07T14:22:59Z</time>
      </trkpt>
      <trkpt lat="45.05494" lon="6.40669">
        <ele>2441</ele>
        <time>2012-07-07T14:23:04Z</time>
      </trkpt>
      <trkpt lat="45.0546" lon="6.40601">
        <ele>2438</ele>
        <time>2012-07-07T14:23:09Z</time>
      </trkpt>
      <trkpt lat="45.05425" lon="6.40531">
        <ele>2445</ele>
        <time>2012-07-07T14:23:14Z</time>
      </trkpt>
      <trkpt lat="45.05397" lon="6.40457">
        <ele>2430</ele>
        <time>2012-07-07T14:23:19Z</time>
      </trkpt>
      <trkpt lat="45.05379" lon="6.40391">
        <ele>2427</ele>
        <time>2012-07-07T14:23:24Z</time>
      </trkpt>
      <trkpt lat="45.05393" lon="6.40304">
        <ele>2429</ele>
        <time>2012-07-07T14:23:29Z</time>
      </trkpt>
      <trkpt lat="45.0538" lon="6.40256">
        <ele>2428</ele>
        <time>2012-07-07T14:23:34Z</time>
      </trkpt>
      <trkpt lat="45.05333" lon="6.40256">
        <ele>2414</ele>
        <time>2012-07-07T14:23:39Z</time>
      </trkpt>
      <trkpt lat="45.05309" lon="6.4021">
        <ele>2405</ele>
        <time>2012-07-07T14:23:44Z</time>
      </trkpt>
      <trkpt lat="45.05305" lon="6.40131">
        <ele>2404</ele>
        <time>2012-07-07T14:23:49Z</time>
      </trkpt>
      <trkpt lat="45.05292" lon="6.4007">
        <ele>2397</ele>
        <time>2012-07-07T14:23:54Z</time>
      </trkpt>
      <trkpt lat="45.05297" lon="6.39988">
        <ele>2390</ele>
        <time>2012-07-07T14:23:59Z</time>
      </trkpt>
      <trkpt lat="45.05317" lon="6.39911">
        <ele>2391</ele>
        <time>2012-07-07T14:24:04Z</time>
      </trkpt>
      <trkpt lat="45.05329" lon="6.39822">
        <ele>2383</ele>
        <time>2012-07-07T14:24:09Z</time>
      </trkpt>
      <trkpt lat="45.05336" lon="6.39701">
        <ele>2402</ele>
        <time>2012-07-07T14:24:14Z</time>
      </trkpt>
      <trkpt lat="45.05335" lon="6.39622">
        <ele>2396</ele>
        <time>2012-07-07T14:24:19Z</time>
      </trkpt>
      <trkpt lat="45.05319" lon="6.39516">
        <ele>2376</ele>
        <time>2012-07-07T14:24:24Z</time>
      </trkpt>
      <trkpt lat="45.05301" lon="6.39452">
        <ele>2376</ele>
        <time>2012-07-07T14:24:29Z</time>
      </trkpt>
      <trkpt lat="45.05254" lon="6.39398">
        <ele>2370</ele>
        <time>2012-07-07T14:24:34Z</time>
      </trkpt>
      <trkpt lat="45.05234" lon="6.39353">
        <ele>2360</ele>
        <time>2012-07-07T14:24:39Z</time>
      </trkpt>
      <trkpt lat="45.05211" lon="6.39289">
        <ele>2358</ele>
        <time>2012-07-07T14:24:44Z</time>
      </trkpt>
      <trkpt lat="45.05168" lon="6.39247">
        <ele>2348</ele>
        <time>2012-07-07T14:24:49Z</time>
      </trkpt>
      <trkpt lat="45.05168" lon="6.39187">
        <ele>2349</ele>
        <time>2012-07-07T14:24:54Z</time>
      </trkpt>
      <trkpt lat="45.05187" lon="6.39119">
        <ele>2350</ele>
        <time>2012-07-07T14:24:59Z</time>
      </trkpt>
      <trkpt lat="45.05216" lon="6.39052">
        <ele>2350</ele>
        <time>2012-07-07T14:25:04Z</time>
      </trkpt>
      <trkpt lat="45.05243" lon="6.38991">
        <ele>2350</ele>
        <time>2012-07-07T14:25:09Z</time>
      </trkpt>
      <trkpt lat="45.0522" lon="6.38952">
        <ele>2348</ele>
        <time>2012-07-07T14:25:14Z</time>
      </trkpt>
      <trkpt lat="45.05176" lon="6.38958">
        <ele>2349</ele>
        <time>2012-07-07T14:25:19Z</time>
      </trkpt>
      <trkpt lat="45.05146" lon="6.39015">
        <ele>2346</ele>
        <time>2012-07-07T14:25:24Z</time>
      </trkpt>
      <trkpt lat="45.05105" lon="6.39094">
        <ele>2336</ele>
        <time>2012-07-07T14:25:29Z</time>
      </trkpt>
      <trkpt lat="45.05073" lon="6.39133">
        <ele>2336</ele>
        <time>2012-07-07T14:25:34Z</time>
      </trkpt>
      <trkpt lat="45.05031" lon="6.3918">
        <ele>2327</ele>
        <time>2012-07-07T14:25:39Z</time>
      </trkpt>
      <trkpt lat="45.05002" lon="6.39232">
        <ele>2324</ele>
        <time>2012-07-07T14:25:44Z</time>
      </trkpt>
      <trkpt lat="45.05008" lon="6.39311">
        <ele>2312</ele>
        <time>2012-07-07T14:25:49Z</time>
      </trkpt>
      <trkpt lat="45.04988" lon="6.39375">
        <ele>2305</ele>
        <time>2012-07-07T14:25:54Z</time>
      </trkpt>
      <trkpt lat="45.0493" lon="6.39396">
        <ele>2307</ele>
        <time>2012-07-07T14:25:59Z</time>
      </trkpt>
      <trkpt lat="45.04876" lon="6.39471">
        <ele>2307</ele>
        <time>2012-07-07T14:26:04Z</time>
      </trkpt>
      <trkpt lat="45.04864" lon="6.39545">
        <ele>2295</ele>
        <time>2012-07-07T14:26:09Z</time>
      </trkpt>
      <trkpt lat="45.0485" lon="6.39634">
        <ele>2279</ele>
        <time>2012-07-07T14:26:14Z</time>
      </trkpt>
      <trkpt lat="45.04808" lon="6.39699">
        <ele>2285</ele>
        <time>2012-07-07T14:26:19Z</time>
      </trkpt>
      <trkpt lat="45.04747" lon="6.39786">
        <ele>2287</ele>
        <time>2012-07-07T14:26:24Z</time>
      </trkpt>
      <trkpt lat="45.04705" lon="6.39848">
        <ele>2270</ele>
        <time>2012-07-07T14:26:29Z</time>
      </trkpt>
      <trkpt lat="45.04659" lon="6.39914">
        <ele>2273</ele>
        <time>2012-07-07T14:26:34Z</time>
      </trkpt>
      <trkpt lat="45.04612" lon="6.39969">
        <ele>2264</ele>
        <time>2012-07-07T14:26:39Z</time>
      </trkpt>
      <trkpt lat="45.04561" lon="6.40022">
        <ele>2256</ele>
        <time>2012-07-07T14:26:44Z</time>
      </trkpt>
      <trkpt lat="45.04499" lon="6.4008">
        <ele>2248</ele>
        <time>2012-07-07T14:26:49Z</time>
      </trkpt>
      <trkpt lat="45.0446" lon="6.40094">
        <ele>2245</ele>
        <time>2012-07-07T14:26:54Z</time>
      </trkpt>
      <trkpt lat="45.04405" lon="6.40137">
        <ele>2243</ele>
        <time>2012-07-07T14:26:59Z</time>
      </trkpt>
      <trkpt lat="45.04383" lon="6.40179">
        <ele>2228</ele>
        <time>2012-07-07T14:27:04Z</time>
      </trkpt>
      <trkpt lat="45.04336" lon="6.40171">
        <ele>2228</ele>
        <time>2012-07-07T14:27:09Z</time>
      </trkpt>
      <trkpt lat="45.04314" lon="6.40124">
        <ele>2223</ele>
        <time>2012-07-07T14:27:14Z</time>
      </trkpt>
      <trkpt lat="45.04277" lon="6.40044">
        <ele>2238</ele>
        <time>2012-07-07T14:27:19Z</time>
      </trkpt>
      <trkpt lat="45.04245" lon="6.39989">
        <ele>2227</ele>
        <time>2012-07-07T14:27:24Z</time>
      </trkpt>
      <trkpt lat="45.04202" lon="6.39928">
        <ele>2223</ele>
        <time>2012-07-07T14:27:29Z</time>
      </trkpt>
      <trkpt lat="45.04156" lon="6.39889">
        <ele>2215</ele>
        <time>2012-07-07T14:27:34Z</time>
      </trkpt>
      <trkpt lat="45.04103" lon="6.39852">
        <ele>2212</ele>
        <time>2012-07-07T14:27:39Z</time>
      </trkpt>
      <trkpt lat="45.04044" lon="6.39799">
        <ele>2207</ele>
        <time>2012-07-07T14:27:44Z</time>
      </trkpt>
      <trkpt lat="45.04005" lon="6.39763">
        <ele>2206</ele>
        <time>2012-07-07T14:27:49Z</time>
      </trkpt>
      <trkpt lat="45.0395" lon="6.39694">
        <ele>2195</ele>
        <time>2012-07-07T14:27:54Z</time>
      </trkpt>
      <trkpt lat="45.03916" lon="6.39639">
        <ele>2184</ele>
        <time>2012-07-07T14:27:59Z</time>
      </trkpt>
      <trkpt lat="45.03873" lon="6.39566">
        <ele>2191</ele>
        <time>2012-07-07T14:28:04Z</time>
      </trkpt>
      <trkpt lat="45.03841" lon="6.39502">
        <ele>2182</ele>
        <time>2012-07-07T14:28:09Z</time>
      </trkpt>
      <trkpt lat="45.03831" lon="6.39433">
        <ele>2172</ele>
        <time>2012-07-07T14:28:14Z</time>
      </trkpt>
      <trkpt lat="45.03826" lon="6.39356">
        <ele>2168</ele>
        <time>2012-07-07T14:28:19Z</time>
      </trkpt>
      <trkpt lat="45.0383" lon="6.39294">
        <ele>2165</ele>
        <time>2012-07-07T14:28:24Z</time>
      </trkpt>
      <trkpt lat="45.03802" lon="6.39299">
        <ele>2159</ele>
        <time>2012-07-07T14:28:29Z</time>
      </trkpt>
      <trkpt lat="45.03803" lon="6.39353">
        <ele>2162</ele>
        <time>2012-07-07T14:28:34Z</time>
      </trkpt>
      <trkpt lat="45.038" lon="6.39433">
        <ele>2163</ele>
        <time>2012-07-07T14:28:39Z</time>
      </trkpt>
      <trkpt lat="45.03788" lon="6.39496">
        <ele>2158</ele>
        <time>2012-07-07T14:28:44Z</time>
      </trkpt>
      <trkpt lat="45.03752" lon="6.39579">
        <ele>2152</ele>
        <time>2012-07-07T14:28:49Z</time>
      </trkpt>
      <trkpt lat="45.03737" lon="6.39637">
        <ele>2135</ele>
        <time>2012-07-07T14:28:54Z</time>
      </trkpt>
      <trkpt lat="45.03727" lon="6.39727">
        <ele>2132</ele>
        <time>2012-07-07T14:28:59Z</time>
      </trkpt>
      <trkpt lat="45.03727" lon="6.39783">
        <ele>2127</ele>
        <time>2012-07-07T14:29:04Z</time>
      </trkpt>
      <trkpt lat="45.03751" lon="6.39834">
        <ele>2131</ele>
        <time>2012-07-07T14:29:09Z</time>
      </trkpt>
      <trkpt lat="45.03805" lon="6.39842">
        <ele>2128</ele>
        <time>2012-07-07T14:29:14Z</time>
      </trkpt>
      <trkpt lat="45.0385" lon="6.39863">
        <ele>2131</ele>
        <time>2012-07-07T14:29:19Z</time>
      </trkpt>
      <trkpt lat="45.03899" lon="6.39925">
        <ele>2120</ele>
        <time>2012-07-07T14:29:24Z</time>
      </trkpt>
      <trkpt lat="45.03938" lon="6.39975">
        <ele>2123</ele>
        <time>2012-07-07T14:29:29Z</time>
      </trkpt>
      <trkpt lat="45.03993" lon="6.40046">
        <ele>2109</ele>
        <time>2012-07-07T14:29:34Z</time>
      </trkpt>
      <trkpt lat="45.04026" lon="6.40089">
        <ele>2106</ele>
        <time>2012-07-07T14:29:39Z</time>
      </trkpt>
      <trkpt lat="45.04075" lon="6.40124">
        <ele>2109</ele>
        <time>2012-07-07T14:29:44Z</time>
      </trkpt>
      <trkpt lat="45.04091" lon="6.40153">
        <ele>2118</ele>
        <time>2012-07-07T14:29:49Z</time>
      </trkpt>
      <trkpt lat="45.04056" lon="6.40155">
        <ele>2103</ele>
        <time>2012-07-07T14:29:54Z</time>
      </trkpt>
      <trkpt lat="45.04026" lon="6.40125">
        <ele>2103</ele>
        <time>2012-07-07T14:29:59Z</time>
      </trkpt>
      <trkpt lat="45.03982" lon="6.40097">
        <ele>2094</ele>
        <time>2012-07-07T14:30:04Z</time>
      </trkpt>
      <trkpt lat="45.0393" lon="6.40071">
        <ele>2098</ele>
        <time>2012-07-07T14:30:09Z</time>
      </trkpt>
      <trkpt lat="45.03881" lon="6.40077">
        <ele>2093</ele>
        <time>2012-07-07T14:30:14Z</time>
      </trkpt>
      <trkpt lat="45.03846" lon="6.40157">
        <ele>2081</ele>
        <time>2012-07-07T14:30:19Z</time>
      </trkpt>
      <trkpt lat="45.0383" lon="6.40225">
        <ele>2077</ele>
        <time>2012-07-07T14:30:24Z</time>
      </trkpt>
      <trkpt lat="45.03805" lon="6.40289">
        <ele>2066</ele>
        <time>2012-07-07T14:30:29Z</time>
      </trkpt>
      <trkpt lat="45.03769" lon="6.40286">
        <ele>2068</ele>
        <time>2012-07-07T14:30:34Z</time>
      </trkpt>
      <trkpt lat="45.03723" lon="6.40305">
        <ele>2073</ele>
        <time>2012-07-07T14:30:39Z</time>
      </trkpt>
      <trkpt lat="45.03698" lon="6.40365">
        <ele>2062</ele>
        <time>2012-07-07T14:30:44Z</time>
      </trkpt>
      <trkpt lat="45.0366" lon="6.40424">
        <ele>2060</ele>
        <time>2012-07-07T14:30:49Z</time>
      </trkpt>
      <trkpt lat="45.03628" lon="6.40448">
        <ele>2059</ele>
        <time>2012-07-07T14:30:54Z</time>
      </trkpt>
      <trkpt lat="45.03593" lon="6.40472">
        <ele>2059</ele>
        <time>2012-07-07T14:30:59Z</time>
      </trkpt>
      <trkpt lat="45.03563" lon="6.40492">
        <ele>2060</ele>
        <time>2012-07-07T14:31:04Z</time>
      </trkpt>
      <trkpt lat="45.03539" lon="6.40508">
        <ele>2060</ele>
        <time>2012-07-07T14:31:09Z</time>
      </trkpt>
      <trkpt lat="45.03517" lon="6.40511">
        <ele>2060</ele>
        <time>2012-07-07T14:31:14Z</time>
      </trkpt>
      <trkpt lat="45.03499" lon="6.40507">
        <ele>2060</ele>
        <time>2012-07-07T14:31:19Z</time>
      </trkpt>
      <trkpt lat="45.03469" lon="6.40505">
        <ele>2058</ele>
        <time>2012-07-07T14:31:24Z</time>
      </trkpt>
      <trkpt lat="45.03445" lon="6.40514">
        <ele>2056</ele>
        <time>2012-07-07T14:31:29Z</time>
      </trkpt>
      <trkpt lat="45.03411" lon="6.40532">
        <ele>2052</ele>
        <time>2012-07-07T14:31:34Z</time>
      </trkpt>
      <trkpt lat="45.03368" lon="6.40524">
        <ele>2051</ele>
        <time>2012-07-07T14:31:39Z</time>
      </trkpt>
      <trkpt lat="45.03332" lon="6.4046">
        <ele>2050</ele>
        <time>2012-07-07T14:31:44Z</time>
      </trkpt>
      <trkpt lat="45.03333" lon="6.40401">
        <ele>2042</ele>
        <time>2012-07-07T14:31:49Z</time>
      </trkpt>
      <trkpt lat="45.0335" lon="6.40324">
        <ele>2038</ele>
        <time>2012-07-07T14:31:54Z</time>
      </trkpt>
      <trkpt lat="45.03367" lon="6.40246">
        <ele>2034</ele>
        <time>2012-07-07T14:31:59Z</time>
      </trkpt>
      <trkpt lat="45.03381" lon="6.40164">
        <ele>2031</ele>
        <time>2012-07-07T14:32:04Z</time>
      </trkpt>
      <trkpt lat="45.03387" lon="6.40062">
        <ele>2027</ele>
        <time>2012-07-07T14:32:09Z</time>
      </trkpt>
      <trkpt lat="45.03381" lon="6.39997">
        <ele>2023</ele>
        <time>2012-07-07T14:32:14Z</time>
      </trkpt>
      <trkpt lat="45.03362" lon="6.39909">
        <ele>2018</ele>
        <time>2012-07-07T14:32:19Z</time>
      </trkpt>
      <trkpt lat="45.03346" lon="6.39855">
        <ele>2018</ele>
        <time>2012-07-07T14:32:24Z</time>
      </trkpt>
      <trkpt lat="45.03324" lon="6.39779">
        <ele>2015</ele>
        <time>2012-07-07T14:32:29Z</time>
      </trkpt>
      <trkpt lat="45.03312" lon="6.39731">
        <ele>2015</ele>
        <time>2012-07-07T14:32:34Z</time>
      </trkpt>
      <trkpt lat="45.03303" lon="6.39672">
        <ele>2015</ele>
        <time>2012-07-07T14:32:39Z</time>
      </trkpt>
      <trkpt lat="45.03296" lon="6.39615">
        <ele>2014</ele>
        <time>2012-07-07T14:32:44Z</time>
      </trkpt>
      <trkpt lat="45.0329" lon="6.39562">
        <ele>2014</ele>
        <time>2012-07-07T14:32:49Z</time>
      </trkpt>
      <trkpt lat="45.03286" lon="6.395">
        <ele>2013</ele>
        <time>2012-07-07T14:32:54Z</time>
      </trkpt>
      <trkpt lat="45.03288" lon="6.3946">
        <ele>2014</ele>
        <time>2012-07-07T14:32:59Z</time>
      </trkpt>
      <trkpt lat="45.03294" lon="6.39404">
        <ele>2015</ele>
        <time>2012-07-07T14:33:04Z</time>
      </trkpt>
      <trkpt lat="45.03298" lon="6.39366">
        <ele>2016</ele>
        <time>2012-07-07T14:33:09Z</time>
      </trkpt>
      <trkpt lat="45.03299" lon="6.39307">
        <ele>2017</ele>
        <time>2012-07-07T14:33:14Z</time>
      </trkpt>
      <trkpt lat="45.03295" lon="6.39267">
        <ele>2017</ele>
        <time>2012-07-07T14:33:19Z</time>
      </trkpt>
      <trkpt lat="45.03285" lon="6.39217">
        <ele>2016</ele>
        <time>2012-07-07T14:33:24Z</time>
      </trkpt>
      <trkpt lat="45.03273" lon="6.39163">
        <ele>2014</ele>
        <time>2012-07-07T14:33:29Z</time>
      </trkpt>
      <trkpt lat="45.0326" lon="6.39102">
        <ele>2012</ele>
        <time>2012-07-07T14:33:34Z</time>
      </trkpt>
      <trkpt lat="45.03256" lon="6.39034">
        <ele>2011</ele>
        <time>2012-07-07T14:33:39Z</time>
      </trkpt>
      <trkpt lat="45.03264" lon="6.38959">
        <ele>2009</ele>
        <time>2012-07-07T14:33:44Z</time>
      </trkpt>
      <trkpt lat="45.03277" lon="6.38866">
        <ele>2005</ele>
        <time>2012-07-07T14:33:49Z</time>
      </trkpt>
      <trkpt lat="45.03287" lon="6.38803">
        <ele>1999</ele>
        <time>2012-07-07T14:33:54Z</time>
      </trkpt>
      <trkpt lat="45.0331" lon="6.38708">
        <ele>1992</ele>
        <time>2012-07-07T14:33:59Z</time>
      </trkpt>
      <trkpt lat="45.03327" lon="6.38645">
        <ele>1986</ele>
        <time>2012-07-07T14:34:04Z</time>
      </trkpt>
      <trkpt lat="45.03348" lon="6.38552">
        <ele>1993</ele>
        <time>2012-07-07T14:34:09Z</time>
      </trkpt>
      <trkpt lat="45.03345" lon="6.38486">
        <ele>1990</ele>
        <time>2012-07-07T14:34:14Z</time>
      </trkpt>
      <trkpt lat="45.03319" lon="6.38396">
        <ele>1981</ele>
        <time>2012-07-07T14:34:19Z</time>
      </trkpt>
      <trkpt lat="45.03284" lon="6.38361">
        <ele>1978</ele>
        <time>2012-07-07T14:34:24Z</time>
      </trkpt>
      <trkpt lat="45.03233" lon="6.38332">
        <ele>1967</ele>
        <time>2012-07-07T14:34:29Z</time>
      </trkpt>
      <trkpt lat="45.03202" lon="6.38269">
        <ele>1961</ele>
        <time>2012-07-07T14:34:34Z</time>
      </trkpt>
      <trkpt lat="45.03206" lon="6.38189">
        <ele>1961</ele>
        <time>2012-07-07T14:34:39Z</time>
      </trkpt>
      <trkpt lat="45.03222" lon="6.38081">
        <ele>1953</ele>
        <time>2012-07-07T14:34:44Z</time>
      </trkpt>
      <trkpt lat="45.03239" lon="6.38007">
        <ele>1954</ele>
        <time>2012-07-07T14:34:49Z</time>
      </trkpt>
      <trkpt lat="45.03272" lon="6.37892">
        <ele>1955</ele>
        <time>2012-07-07T14:34:54Z</time>
      </trkpt>
      <trkpt lat="45.03297" lon="6.37816">
        <ele>1943</ele>
        <time>2012-07-07T14:34:59Z</time>
      </trkpt>
      <trkpt lat="45.03337" lon="6.37708">
        <ele>1944</ele>
        <time>2012-07-07T14:35:04Z</time>
      </trkpt>
      <trkpt lat="45.03361" lon="6.37637">
        <ele>1930</ele>
        <time>2012-07-07T14:35:09Z</time>
      </trkpt>
      <trkpt lat="45.03402" lon="6.37543">
        <ele>1917</ele>
        <time>2012-07-07T14:35:14Z</time>
      </trkpt>
      <trkpt lat="45.03432" lon="6.37488">
        <ele>1922</ele>
        <time>2012-07-07T14:35:19Z</time>
      </trkpt>
      <trkpt lat="45.03454" lon="6.37418">
        <ele>1923</ele>
        <time>2012-07-07T14:35:24Z</time>
      </trkpt>
      <trkpt lat="45.03455" lon="6.37337">
        <ele>1914</ele>
        <time>2012-07-07T14:35:29Z</time>
      </trkpt>
      <trkpt lat="45.03466" lon="6.3726">
        <ele>1905</ele>
        <time>2012-07-07T14:35:34Z</time>
      </trkpt>
      <trkpt lat="45.03505" lon="6.3718">
        <ele>1902</ele>
        <time>2012-07-07T14:35:39Z</time>
      </trkpt>
      <trkpt lat="45.03547" lon="6.37135">
        <ele>1894</ele>
        <time>2012-07-07T14:35:44Z</time>
      </trkpt>
      <trkpt lat="45.03607" lon="6.37065">
        <ele>1895</ele>
        <time>2012-07-07T14:35:49Z</time>
      </trkpt>
      <trkpt lat="45.03639" lon="6.37011">
        <ele>1896</ele>
        <time>2012-07-07T14:35:54Z</time>
      </trkpt>
      <trkpt lat="45.03679" lon="6.36917">
        <ele>1889</ele>
        <time>2012-07-07T14:35:59Z</time>
      </trkpt>
      <trkpt lat="45.03709" lon="6.36858">
        <ele>1889</ele>
        <time>2012-07-07T14:36:04Z</time>
      </trkpt>
      <trkpt lat="45.03744" lon="6.36769">
        <ele>1877</ele>
        <time>2012-07-07T14:36:09Z</time>
      </trkpt>
      <trkpt lat="45.03767" lon="6.36706">
        <ele>1879</ele>
        <time>2012-07-07T14:36:14Z</time>
      </trkpt>
      <trkpt lat="45.03803" lon="6.36638">
        <ele>1869</ele>
        <time>2012-07-07T14:36:19Z</time>
      </trkpt>
      <trkpt lat="45.0384" lon="6.36585">
        <ele>1872</ele>
        <time>2012-07-07T14:36:24Z</time>
      </trkpt>
      <trkpt lat="45.03856" lon="6.36538">
        <ele>1868</ele>
        <time>2012-07-07T14:36:29Z</time>
      </trkpt>
      <trkpt lat="45.03813" lon="6.36536">
        <ele>1853</ele>
        <time>2012-07-07T14:36:34Z</time>
      </trkpt>
      <trkpt lat="45.03798" lon="6.36572">
        <ele>1855</ele>
        <time>2012-07-07T14:36:39Z</time>
      </trkpt>
      <trkpt lat="45.03772" lon="6.36622">
        <ele>1864</ele>
        <time>2012-07-07T14:36:44Z</time>
      </trkpt>
      <trkpt lat="45.03746" lon="6.36651">
        <ele>1855</ele>
        <time>2012-07-07T14:36:49Z</time>
      </trkpt>
      <trkpt lat="45.03703" lon="6.36695">
        <ele>1857</ele>
        <time>2012-07-07T14:36:54Z</time>
      </trkpt>
      <trkpt lat="45.03676" lon="6.36731">
        <ele>1856</ele>
        <time>2012-07-07T14:36:59Z</time>
      </trkpt>
      <trkpt lat="45.03643" lon="6.36784">
        <ele>1852</ele>
        <time>2012-07-07T14:37:04Z</time>
      </trkpt>
      <trkpt lat="45.03608" lon="6.36822">
        <ele>1850</ele>
        <time>2012-07-07T14:37:09Z</time>
      </trkpt>
      <trkpt lat="45.03584" lon="6.36801">
        <ele>1847</ele>
        <time>2012-07-07T14:37:14Z</time>
      </trkpt>
      <trkpt lat="45.03613" lon="6.36755">
        <ele>1846</ele>
        <time>2012-07-07T14:37:19Z</time>
      </trkpt>
      <trkpt lat="45.03649" lon="6.36701">
        <ele>1839</ele>
        <time>2012-07-07T14:37:24Z</time>
      </trkpt>
      <trkpt lat="45.03683" lon="6.36612">
        <ele>1841</ele>
        <time>2012-07-07T14:37:29Z</time>
      </trkpt>
      <trkpt lat="45.03706" lon="6.36546">
        <ele>1833</ele>
        <time>2012-07-07T14:37:34Z</time>
      </trkpt>
      <trkpt lat="45.03738" lon="6.36457">
        <ele>1822</ele>
        <time>2012-07-07T14:37:39Z</time>
      </trkpt>
      <trkpt lat="45.03767" lon="6.36412">
        <ele>1820</ele>
        <time>2012-07-07T14:37:44Z</time>
      </trkpt>
      <trkpt lat="45.03822" lon="6.36382">
        <ele>1821</ele>
        <time>2012-07-07T14:37:49Z</time>
      </trkpt>
      <trkpt lat="45.03874" lon="6.36351">
        <ele>1828</ele>
        <time>2012-07-07T14:37:54Z</time>
      </trkpt>
      <trkpt lat="45.03902" lon="6.363">
        <ele>1819</ele>
        <time>2012-07-07T14:37:59Z</time>
      </trkpt>
      <trkpt lat="45.03876" lon="6.36239">
        <ele>1811</ele>
        <time>2012-07-07T14:38:04Z</time>
      </trkpt>
      <trkpt lat="45.03863" lon="6.3616">
        <ele>1804</ele>
        <time>2012-07-07T14:38:09Z</time>
      </trkpt>
      <trkpt lat="45.03884" lon="6.36071">
        <ele>1797</ele>
        <time>2012-07-07T14:38:14Z</time>
      </trkpt>
      <trkpt lat="45.03922" lon="6.36031">
        <ele>1807</ele>
        <time>2012-07-07T14:38:19Z</time>
      </trkpt>
      <trkpt lat="45.03969" lon="6.35985">
        <ele>1799</ele>
        <time>2012-07-07T14:38:24Z</time>
      </trkpt>
      <trkpt lat="45.03991" lon="6.35909">
        <ele>1792</ele>
        <time>2012-07-07T14:38:29Z</time>
      </trkpt>
      <trkpt lat="45.04011" lon="6.35808">
        <ele>1788</ele>
        <time>2012-07-07T14:38:34Z</time>
      </trkpt>
      <trkpt lat="45.04041" lon="6.35756">
        <ele>1786</ele>
        <time>2012-07-07T14:38:39Z</time>
      </trkpt>
      <trkpt lat="45.04095" lon="6.35692">
        <ele>1786</ele>
        <time>2012-07-07T14:38:44Z</time>
      </trkpt>
      <trkpt lat="45.04124" lon="6.35643">
        <ele>1768</ele>
        <time>2012-07-07T14:38:49Z</time>
      </trkpt>
      <trkpt lat="45.04175" lon="6.35613">
        <ele>1778</ele>
        <time>2012-07-07T14:38:54Z</time>
      </trkpt>
      <trkpt lat="45.04225" lon="6.35569">
        <ele>1765</ele>
        <time>2012-07-07T14:38:59Z</time>
      </trkpt>
      <trkpt lat="45.04251" lon="6.35506">
        <ele>1765</ele>
        <time>2012-07-07T14:39:04Z</time>
      </trkpt>
      <trkpt lat="45.04201" lon="6.35437">
        <ele>1757</ele>
        <time>2012-07-07T14:39:09Z</time>
      </trkpt>
      <trkpt lat="45.04167" lon="6.35379">
        <ele>1746</ele>
        <time>2012-07-07T14:39:14Z</time>
      </trkpt>
      <trkpt lat="45.04139" lon="6.35273">
        <ele>1748</ele>
        <time>2012-07-07T14:39:19Z</time>
      </trkpt>
      <trkpt lat="45.04125" lon="6.35203">
        <ele>1746</ele>
        <time>2012-07-07T14:39:24Z</time>
      </trkpt>
      <trkpt lat="45.04113" lon="6.351">
        <ele>1741</ele>
        <time>2012-07-07T14:39:29Z</time>
      </trkpt>
      <trkpt lat="45.04125" lon="6.35035">
        <ele>1739</ele>
        <time>2012-07-07T14:39:34Z</time>
      </trkpt>
      <trkpt lat="45.04122" lon="6.34945">
        <ele>1732</ele>
        <time>2012-07-07T14:39:39Z</time>
      </trkpt>
      <trkpt lat="45.0412" lon="6.34848">
        <ele>1727</ele>
        <time>2012-07-07T14:39:44Z</time>
      </trkpt>
      <trkpt lat="45.04135" lon="6.34765">
        <ele>1723</ele>
        <time>2012-07-07T14:39:49Z</time>
      </trkpt>
      <trkpt lat="45.04153" lon="6.3469">
        <ele>1721</ele>
        <time>2012-07-07T14:39:54Z</time>
      </trkpt>
      <trkpt lat="45.04129" lon="6.3461">
        <ele>1717</ele>
        <time>2012-07-07T14:39:59Z</time>
      </trkpt>
      <trkpt lat="45.04109" lon="6.34502">
        <ele>1709</ele>
        <time>2012-07-07T14:40:04Z</time>
      </trkpt>
      <trkpt lat="45.04126" lon="6.34423">
        <ele>1704</ele>
        <time>2012-07-07T14:40:09Z</time>
      </trkpt>
      <trkpt lat="45.04148" lon="6.34301">
        <ele>1696</ele>
        <time>2012-07-07T14:40:14Z</time>
      </trkpt>
      <trkpt lat="45.04139" lon="6.34218">
        <ele>1692</ele>
        <time>2012-07-07T14:40:19Z</time>
      </trkpt>
      <trkpt lat="45.04135" lon="6.34109">
        <ele>1684</ele>
        <time>2012-07-07T14:40:24Z</time>
      </trkpt>
      <trkpt lat="45.0416" lon="6.34049">
        <ele>1675</ele>
        <time>2012-07-07T14:40:29Z</time>
      </trkpt>
      <trkpt lat="45.04203" lon="6.33988">
        <ele>1673</ele>
        <time>2012-07-07T14:40:34Z</time>
      </trkpt>
      <trkpt lat="45.04253" lon="6.3394">
        <ele>1676</ele>
        <time>2012-07-07T14:40:39Z</time>
      </trkpt>
      <trkpt lat="45.04283" lon="6.33868">
        <ele>1669</ele>
        <time>2012-07-07T14:40:44Z</time>
      </trkpt>
      <trkpt lat="45.04331" lon="6.3382">
        <ele>1663</ele>
        <time>2012-07-07T14:40:49Z</time>
      </trkpt>
      <trkpt lat="45.04384" lon="6.33769">
        <ele>1664</ele>
        <time>2012-07-07T14:40:54Z</time>
      </trkpt>
      <trkpt lat="45.04425" lon="6.33688">
        <ele>1663</ele>
        <time>2012-07-07T14:40:59Z</time>
      </trkpt>
      <trkpt lat="45.04435" lon="6.3362">
        <ele>1659</ele>
        <time>2012-07-07T14:41:04Z</time>
      </trkpt>
      <trkpt lat="45.04439" lon="6.33513">
        <ele>1650</ele>
        <time>2012-07-07T14:41:09Z</time>
      </trkpt>
      <trkpt lat="45.04457" lon="6.33451">
        <ele>1643</ele>
        <time>2012-07-07T14:41:14Z</time>
      </trkpt>
      <trkpt lat="45.04512" lon="6.33386">
        <ele>1636</ele>
        <time>2012-07-07T14:41:19Z</time>
      </trkpt>
      <trkpt lat="45.04554" lon="6.33371">
        <ele>1635</ele>
        <time>2012-07-07T14:41:24Z</time>
      </trkpt>
      <trkpt lat="45.04596" lon="6.33355">
        <ele>1634</ele>
        <time>2012-07-07T14:41:29Z</time>
      </trkpt>
      <trkpt lat="45.0458" lon="6.33338">
        <ele>1629</ele>
        <time>2012-07-07T14:41:34Z</time>
      </trkpt>
      <trkpt lat="45.04532" lon="6.33339">
        <ele>1632</ele>
        <time>2012-07-07T14:41:39Z</time>
      </trkpt>
      <trkpt lat="45.04476" lon="6.3334">
        <ele>1629</ele>
        <time>2012-07-07T14:41:44Z</time>
      </trkpt>
      <trkpt lat="45.04436" lon="6.33342">
        <ele>1627</ele>
        <time>2012-07-07T14:41:49Z</time>
      </trkpt>
      <trkpt lat="45.04382" lon="6.33314">
        <ele>1621</ele>
        <time>2012-07-07T14:41:54Z</time>
      </trkpt>
      <trkpt lat="45.04354" lon="6.33277">
        <ele>1619</ele>
        <time>2012-07-07T14:41:59Z</time>
      </trkpt>
      <trkpt lat="45.04321" lon="6.33212">
        <ele>1608</ele>
        <time>2012-07-07T14:42:04Z</time>
      </trkpt>
      <trkpt lat="45.04337" lon="6.33159">
        <ele>1602</ele>
        <time>2012-07-07T14:42:09Z</time>
      </trkpt>
      <trkpt lat="45.04394" lon="6.33128">
        <ele>1598</ele>
        <time>2012-07-07T14:42:14Z</time>
      </trkpt>
      <trkpt lat="45.04436" lon="6.33157">
        <ele>1600</ele>
        <time>2012-07-07T14:42:19Z</time>
      </trkpt>
      <trkpt lat="45.04483" lon="6.3319">
        <ele>1605</ele>
        <time>2012-07-07T14:42:24Z</time>
      </trkpt>
      <trkpt lat="45.04534" lon="6.33197">
        <ele>1601</ele>
        <time>2012-07-07T14:42:29Z</time>
      </trkpt>
      <trkpt lat="45.04587" lon="6.33181">
        <ele>1598</ele>
        <time>2012-07-07T14:42:34Z</time>
      </trkpt>
      <trkpt lat="45.04623" lon="6.33116">
        <ele>1594</ele>
        <time>2012-07-07T14:42:39Z</time>
      </trkpt>
      <trkpt lat="45.04628" lon="6.33054">
        <ele>1589</ele>
        <time>2012-07-07T14:42:44Z</time>
      </trkpt>
      <trkpt lat="45.04631" lon="6.32958">
        <ele>1586</ele>
        <time>2012-07-07T14:42:49Z</time>
      </trkpt>
      <trkpt lat="45.04632" lon="6.32901">
        <ele>1587</ele>
        <time>2012-07-07T14:42:54Z</time>
      </trkpt>
      <trkpt lat="45.04593" lon="6.32884">
        <ele>1585</ele>
        <time>2012-07-07T14:42:59Z</time>
      </trkpt>
      <trkpt lat="45.04575" lon="6.32922">
        <ele>1577</ele>
        <time>2012-07-07T14:43:04Z</time>
      </trkpt>
      <trkpt lat="45.04553" lon="6.32917">
        <ele>1575</ele>
        <time>2012-07-07T14:43:09Z</time>
      </trkpt>
      <trkpt lat="45.04566" lon="6.32882">
        <ele>1573</ele>
        <time>2012-07-07T14:43:14Z</time>
      </trkpt>
      <trkpt lat="45.04583" lon="6.32844">
        <ele>1579</ele>
        <time>2012-07-07T14:43:19Z</time>
      </trkpt>
      <trkpt lat="45.04593" lon="6.32815">
        <ele>1590</ele>
        <time>2012-07-07T14:43:24Z</time>
      </trkpt>
      <trkpt lat="45.04602" lon="6.32792">
        <ele>1594</ele>
        <time>2012-07-07T14:43:29Z</time>
      </trkpt>
      <trkpt lat="45.04613" lon="6.32762">
        <ele>1597</ele>
        <time>2012-07-07T14:43:34Z</time>
      </trkpt>
      <trkpt lat="45.0462" lon="6.32742">
        <ele>1597</ele>
        <time>2012-07-07T14:43:39Z</time>
      </trkpt>
      <trkpt lat="45.04622" lon="6.32737">
        <ele>1597</ele>
        <time>2012-07-07T14:43:44Z</time>
      </trkpt>
      <trkpt lat="45.04622" lon="6.32737">
        <ele>1597</ele>
        <time>2012-07-07T14:43:49Z</time>
      </trkpt>
      <trkpt lat="45.04622" lon="6.32737">
        <ele>1597</ele>
        <time>2012-07-07T14:43:54Z</time>
      </trkpt>
      <trkpt lat="45.04622" lon="6.32737">
        <ele>1597</ele>
        <time>2012-07-07T14:43:59Z</time>
      </trkpt>
      <trkpt lat="45.04622" lon="6.32737">
        <ele>1597</ele>
        <time>2012-07-07T14:44:04Z</time>
      </trkpt>
      <trkpt lat="45.04622" lon="6.32737">
        <ele>1597</ele>
        <time>2012-07-07T14:44:09Z</time>
      </trkpt>
      <trkpt lat="45.04622" lon="6.32737">
        <ele>1597</ele>
        <time>2012-07-07T14:44:14Z</time>
      </trkpt>
      <trkpt lat="45.04818" lon="6.3212">
        <ele>1533</ele>
        <time>2012-07-07T14:44:19Z</time>
      </trkpt>
      <trkpt lat="45.04822" lon="6.32045">
        <ele>1529</ele>
        <time>2012-07-07T14:44:24Z</time>
      </trkpt>
      <trkpt lat="45.04837" lon="6.31965">
        <ele>1557</ele>
        <time>2012-07-07T14:44:29Z</time>
      </trkpt>
      <trkpt lat="45.04837" lon="6.31907">
        <ele>1544</ele>
        <time>2012-07-07T14:44:34Z</time>
      </trkpt>
      <trkpt lat="45.04821" lon="6.3182">
        <ele>1525</ele>
        <time>2012-07-07T14:44:39Z</time>
      </trkpt>
      <trkpt lat="45.0479" lon="6.31776">
        <ele>1515</ele>
        <time>2012-07-07T14:44:44Z</time>
      </trkpt>
      <trkpt lat="45.04777" lon="6.317">
        <ele>1507</ele>
        <time>2012-07-07T14:44:49Z</time>
      </trkpt>
      <trkpt lat="45.04803" lon="6.31654">
        <ele>1501</ele>
        <time>2012-07-07T14:44:54Z</time>
      </trkpt>
      <trkpt lat="45.04856" lon="6.31599">
        <ele>1515</ele>
        <time>2012-07-07T14:44:59Z</time>
      </trkpt>
      <trkpt lat="45.04895" lon="6.31568">
        <ele>1511</ele>
        <time>2012-07-07T14:45:04Z</time>
      </trkpt>
      <trkpt lat="45.04913" lon="6.31512">
        <ele>1503</ele>
        <time>2012-07-07T14:45:09Z</time>
      </trkpt>
      <trkpt lat="45.04886" lon="6.31466">
        <ele>1504</ele>
        <time>2012-07-07T14:45:14Z</time>
      </trkpt>
      <trkpt lat="45.04855" lon="6.31431">
        <ele>1508</ele>
        <time>2012-07-07T14:45:19Z</time>
      </trkpt>
      <trkpt lat="45.04822" lon="6.31392">
        <ele>1525</ele>
        <time>2012-07-07T14:45:24Z</time>
      </trkpt>
      <trkpt lat="45.048" lon="6.31366">
        <ele>1530</ele>
        <time>2012-07-07T14:45:29Z</time>
      </trkpt>
      <trkpt lat="45.04767" lon="6.31328">
        <ele>1540</ele>
        <time>2012-07-07T14:45:34Z</time>
      </trkpt>
      <trkpt lat="45.04767" lon="6.31328">
        <ele>1540</ele>
        <time>2012-07-07T14:45:39Z</time>
      </trkpt>
      <trkpt lat="45.04767" lon="6.31328">
        <ele>1540</ele>
        <time>2012-07-07T14:45:44Z</time>
      </trkpt>
      <trkpt lat="45.04767" lon="6.31328">
        <ele>1540</ele>
        <time>2012-07-07T14:45:49Z</time>
      </trkpt>
      <trkpt lat="45.04694" lon="6.31121">
        <ele>1527</ele>
        <time>2012-07-07T14:45:54Z</time>
      </trkpt>
      <trkpt lat="45.04672" lon="6.31099">
        <ele>1510</ele>
        <time>2012-07-07T14:45:59Z</time>
      </trkpt>
      <trkpt lat="45.04678" lon="6.31046">
        <ele>1511</ele>
        <time>2012-07-07T14:46:04Z</time>
      </trkpt>
      <trkpt lat="45.04679" lon="6.30975">
        <ele>1505</ele>
        <time>2012-07-07T14:46:09Z</time>
      </trkpt>
      <trkpt lat="45.04673" lon="6.30926">
        <ele>1498</ele>
        <time>2012-07-07T14:46:14Z</time>
      </trkpt>
      <trkpt lat="45.04657" lon="6.30846">
        <ele>1481</ele>
        <time>2012-07-07T14:46:19Z</time>
      </trkpt>
      <trkpt lat="45.04647" lon="6.30792">
        <ele>1483</ele>
        <time>2012-07-07T14:46:24Z</time>
      </trkpt>
      <trkpt lat="45.04622" lon="6.30734">
        <ele>1491</ele>
        <time>2012-07-07T14:46:29Z</time>
      </trkpt>
      <trkpt lat="45.04592" lon="6.3072">
        <ele>1488</ele>
        <time>2012-07-07T14:46:34Z</time>
      </trkpt>
      <trkpt lat="45.04559" lon="6.30687">
        <ele>1479</ele>
        <time>2012-07-07T14:46:39Z</time>
      </trkpt>
      <trkpt lat="45.04529" lon="6.30662">
        <ele>1482</ele>
        <time>2012-07-07T14:46:44Z</time>
      </trkpt>
      <trkpt lat="45.04504" lon="6.30631">
        <ele>1482</ele>
        <time>2012-07-07T14:46:49Z</time>
      </trkpt>
      <trkpt lat="45.04505" lon="6.30584">
        <ele>1481</ele>
        <time>2012-07-07T14:46:54Z</time>
      </trkpt>
      <trkpt lat="45.04512" lon="6.30536">
        <ele>1488</ele>
        <time>2012-07-07T14:46:59Z</time>
      </trkpt>
      <trkpt lat="45.04506" lon="6.3047">
        <ele>1483</ele>
        <time>2012-07-07T14:47:04Z</time>
      </trkpt>
      <trkpt lat="45.04514" lon="6.30424">
        <ele>1478</ele>
        <time>2012-07-07T14:47:09Z</time>
      </trkpt>
      <trkpt lat="45.0454" lon="6.30361">
        <ele>1482</ele>
        <time>2012-07-07T14:47:14Z</time>
      </trkpt>
      <trkpt lat="45.04532" lon="6.30323">
        <ele>1483</ele>
        <time>2012-07-07T14:47:19Z</time>
      </trkpt>
      <trkpt lat="45.04498" lon="6.30274">
        <ele>1469</ele>
        <time>2012-07-07T14:47:24Z</time>
      </trkpt>
      <trkpt lat="45.04473" lon="6.30241">
        <ele>1470</ele>
        <time>2012-07-07T14:47:29Z</time>
      </trkpt>
      <trkpt lat="45.0445" lon="6.30175">
        <ele>1466</ele>
        <time>2012-07-07T14:47:34Z</time>
      </trkpt>
      <trkpt lat="45.04443" lon="6.30128">
        <ele>1466</ele>
        <time>2012-07-07T14:47:39Z</time>
      </trkpt>
      <trkpt lat="45.04443" lon="6.30069">
        <ele>1465</ele>
        <time>2012-07-07T14:47:44Z</time>
      </trkpt>
      <trkpt lat="45.04449" lon="6.30004">
        <ele>1466</ele>
        <time>2012-07-07T14:47:49Z</time>
      </trkpt>
      <trkpt lat="45.04454" lon="6.29932">
        <ele>1467</ele>
        <time>2012-07-07T14:47:54Z</time>
      </trkpt>
      <trkpt lat="45.04462" lon="6.29842">
        <ele>1465</ele>
        <time>2012-07-07T14:47:59Z</time>
      </trkpt>
      <trkpt lat="45.04466" lon="6.29779">
        <ele>1458</ele>
        <time>2012-07-07T14:48:04Z</time>
      </trkpt>
      <trkpt lat="45.04462" lon="6.2968">
        <ele>1453</ele>
        <time>2012-07-07T14:48:09Z</time>
      </trkpt>
      <trkpt lat="45.04445" lon="6.29619">
        <ele>1449</ele>
        <time>2012-07-07T14:48:14Z</time>
      </trkpt>
      <trkpt lat="45.0442" lon="6.29527">
        <ele>1448</ele>
        <time>2012-07-07T14:48:19Z</time>
      </trkpt>
      <trkpt lat="45.04406" lon="6.29463">
        <ele>1430</ele>
        <time>2012-07-07T14:48:24Z</time>
      </trkpt>
      <trkpt lat="45.04385" lon="6.29385">
        <ele>1428</ele>
        <time>2012-07-07T14:48:29Z</time>
      </trkpt>
      <trkpt lat="45.04356" lon="6.29311">
        <ele>1426</ele>
        <time>2012-07-07T14:48:34Z</time>
      </trkpt>
      <trkpt lat="45.04337" lon="6.2923">
        <ele>1423</ele>
        <time>2012-07-07T14:48:39Z</time>
      </trkpt>
      <trkpt lat="45.04331" lon="6.29144">
        <ele>1409</ele>
        <time>2012-07-07T14:48:44Z</time>
      </trkpt>
      <trkpt lat="45.04329" lon="6.29058">
        <ele>1407</ele>
        <time>2012-07-07T14:48:49Z</time>
      </trkpt>
      <trkpt lat="45.04338" lon="6.28954">
        <ele>1417</ele>
        <time>2012-07-07T14:48:54Z</time>
      </trkpt>
      <trkpt lat="45.04344" lon="6.28884">
        <ele>1414</ele>
        <time>2012-07-07T14:48:59Z</time>
      </trkpt>
      <trkpt lat="45.04356" lon="6.2878">
        <ele>1409</ele>
        <time>2012-07-07T14:49:04Z</time>
      </trkpt>
      <trkpt lat="45.04358" lon="6.28712">
        <ele>1402</ele>
        <time>2012-07-07T14:49:09Z</time>
      </trkpt>
      <trkpt lat="45.04375" lon="6.28632">
        <ele>1397</ele>
        <time>2012-07-07T14:49:14Z</time>
      </trkpt>
      <trkpt lat="45.044" lon="6.28555">
        <ele>1392</ele>
        <time>2012-07-07T14:49:19Z</time>
      </trkpt>
      <trkpt lat="45.04424" lon="6.28464">
        <ele>1394</ele>
        <time>2012-07-07T14:49:24Z</time>
      </trkpt>
      <trkpt lat="45.04423" lon="6.28404">
        <ele>1392</ele>
        <time>2012-07-07T14:49:29Z</time>
      </trkpt>
      <trkpt lat="45.04404" lon="6.28342">
        <ele>1395</ele>
        <time>2012-07-07T14:49:34Z</time>
      </trkpt>
      <trkpt lat="45.04381" lon="6.28288">
        <ele>1401</ele>
        <time>2012-07-07T14:49:39Z</time>
      </trkpt>
      <trkpt lat="45.04363" lon="6.28236">
        <ele>1403</ele>
        <time>2012-07-07T14:49:44Z</time>
      </trkpt>
      <trkpt lat="45.04349" lon="6.2817">
        <ele>1396</ele>
        <time>2012-07-07T14:49:49Z</time>
      </trkpt>
      <trkpt lat="45.04342" lon="6.28125">
        <ele>1403</ele>
        <time>2012-07-07T14:49:54Z</time>
      </trkpt>
      <trkpt lat="45.04329" lon="6.28069">
        <ele>1383</ele>
        <time>2012-07-07T14:49:59Z</time>
      </trkpt>
      <trkpt lat="45.04316" lon="6.28012">
        <ele>1383</ele>
        <time>2012-07-07T14:50:04Z</time>
      </trkpt>
      <trkpt lat="45.04308" lon="6.27941">
        <ele>1380</ele>
        <time>2012-07-07T14:50:09Z</time>
      </trkpt>
      <trkpt lat="45.04312" lon="6.27894">
        <ele>1380</ele>
        <time>2012-07-07T14:50:14Z</time>
      </trkpt>
      <trkpt lat="45.04327" lon="6.27839">
        <ele>1380</ele>
        <time>2012-07-07T14:50:19Z</time>
      </trkpt>
      <trkpt lat="45.0433" lon="6.27777">
        <ele>1378</ele>
        <time>2012-07-07T14:50:24Z</time>
      </trkpt>
      <trkpt lat="45.04313" lon="6.27717">
        <ele>1379</ele>
        <time>2012-07-07T14:50:29Z</time>
      </trkpt>
      <trkpt lat="45.04295" lon="6.2764">
        <ele>1379</ele>
        <time>2012-07-07T14:50:34Z</time>
      </trkpt>
      <trkpt lat="45.04294" lon="6.27586">
        <ele>1378</ele>
        <time>2012-07-07T14:50:39Z</time>
      </trkpt>
      <trkpt lat="45.04289" lon="6.27505">
        <ele>1378</ele>
        <time>2012-07-07T14:50:44Z</time>
      </trkpt>
      <trkpt lat="45.0428" lon="6.27451">
        <ele>1378</ele>
        <time>2012-07-07T14:50:49Z</time>
      </trkpt>
      <trkpt lat="45.04262" lon="6.27373">
        <ele>1379</ele>
        <time>2012-07-07T14:50:54Z</time>
      </trkpt>
      <trkpt lat="45.04253" lon="6.27322">
        <ele>1373</ele>
        <time>2012-07-07T14:50:59Z</time>
      </trkpt>
      <trkpt lat="45.04246" lon="6.2726">
        <ele>1363</ele>
        <time>2012-07-07T14:51:04Z</time>
      </trkpt>
      <trkpt lat="45.04246" lon="6.27196">
        <ele>1357</ele>
        <time>2012-07-07T14:51:09Z</time>
      </trkpt>
      <trkpt lat="45.0425" lon="6.2713">
        <ele>1351</ele>
        <time>2012-07-07T14:51:14Z</time>
      </trkpt>
      <trkpt lat="45.04256" lon="6.27064">
        <ele>1345</ele>
        <time>2012-07-07T14:51:19Z</time>
      </trkpt>
      <trkpt lat="45.04263" lon="6.27">
        <ele>1343</ele>
        <time>2012-07-07T14:51:24Z</time>
      </trkpt>
      <trkpt lat="45.04277" lon="6.26927">
        <ele>1340</ele>
        <time>2012-07-07T14:51:29Z</time>
      </trkpt>
      <trkpt lat="45.04285" lon="6.26879">
        <ele>1338</ele>
        <time>2012-07-07T14:51:34Z</time>
      </trkpt>
      <trkpt lat="45.04292" lon="6.26798">
        <ele>1337</ele>
        <time>2012-07-07T14:51:39Z</time>
      </trkpt>
      <trkpt lat="45.04285" lon="6.26741">
        <ele>1336</ele>
        <time>2012-07-07T14:51:44Z</time>
      </trkpt>
      <trkpt lat="45.04271" lon="6.26658">
        <ele>1334</ele>
        <time>2012-07-07T14:51:49Z</time>
      </trkpt>
      <trkpt lat="45.04261" lon="6.26603">
        <ele>1332</ele>
        <time>2012-07-07T14:51:54Z</time>
      </trkpt>
      <trkpt lat="45.04245" lon="6.26523">
        <ele>1335</ele>
        <time>2012-07-07T14:51:59Z</time>
      </trkpt>
      <trkpt lat="45.04236" lon="6.26468">
        <ele>1338</ele>
        <time>2012-07-07T14:52:04Z</time>
      </trkpt>
      <trkpt lat="45.04223" lon="6.26402">
        <ele>1338</ele>
        <time>2012-07-07T14:52:09Z</time>
      </trkpt>
      <trkpt lat="45.04207" lon="6.26336">
        <ele>1338</ele>
        <time>2012-07-07T14:52:14Z</time>
      </trkpt>
      <trkpt lat="45.04191" lon="6.2627">
        <ele>1337</ele>
        <time>2012-07-07T14:52:19Z</time>
      </trkpt>
      <trkpt lat="45.04173" lon="6.2619">
        <ele>1339</ele>
        <time>2012-07-07T14:52:24Z</time>
      </trkpt>
      <trkpt lat="45.04161" lon="6.26138">
        <ele>1343</ele>
        <time>2012-07-07T14:52:29Z</time>
      </trkpt>
      <trkpt lat="45.04135" lon="6.2607">
        <ele>1347</ele>
        <time>2012-07-07T14:52:34Z</time>
      </trkpt>
      <trkpt lat="45.0411" lon="6.26033">
        <ele>1346</ele>
        <time>2012-07-07T14:52:39Z</time>
      </trkpt>
      <trkpt lat="45.04064" lon="6.25993">
        <ele>1336</ele>
        <time>2012-07-07T14:52:44Z</time>
      </trkpt>
      <trkpt lat="45.04034" lon="6.25969">
        <ele>1337</ele>
        <time>2012-07-07T14:52:49Z</time>
      </trkpt>
      <trkpt lat="45.04006" lon="6.25926">
        <ele>1331</ele>
        <time>2012-07-07T14:52:54Z</time>
      </trkpt>
      <trkpt lat="45.03989" lon="6.25868">
        <ele>1329</ele>
        <time>2012-07-07T14:52:59Z</time>
      </trkpt>
      <trkpt lat="45.03972" lon="6.25809">
        <ele>1328</ele>
        <time>2012-07-07T14:53:04Z</time>
      </trkpt>
      <trkpt lat="45.03954" lon="6.25748">
        <ele>1331</ele>
        <time>2012-07-07T14:53:09Z</time>
      </trkpt>
      <trkpt lat="45.03939" lon="6.25685">
        <ele>1330</ele>
        <time>2012-07-07T14:53:14Z</time>
      </trkpt>
      <trkpt lat="45.03944" lon="6.25604">
        <ele>1335</ele>
        <time>2012-07-07T14:53:19Z</time>
      </trkpt>
      <trkpt lat="45.03949" lon="6.25553">
        <ele>1334</ele>
        <time>2012-07-07T14:53:24Z</time>
      </trkpt>
      <trkpt lat="45.03942" lon="6.25475">
        <ele>1327</ele>
        <time>2012-07-07T14:53:29Z</time>
      </trkpt>
      <trkpt lat="45.03933" lon="6.25423">
        <ele>1324</ele>
        <time>2012-07-07T14:53:34Z</time>
      </trkpt>
      <trkpt lat="45.03922" lon="6.25344">
        <ele>1321</ele>
        <time>2012-07-07T14:53:39Z</time>
      </trkpt>
      <trkpt lat="45.03912" lon="6.25292">
        <ele>1326</ele>
        <time>2012-07-07T14:53:44Z</time>
      </trkpt>
      <trkpt lat="45.03905" lon="6.25231">
        <ele>1327</ele>
        <time>2012-07-07T14:53:49Z</time>
      </trkpt>
      <trkpt lat="45.03903" lon="6.2517">
        <ele>1330</ele>
        <time>2012-07-07T14:53:54Z</time>
      </trkpt>
      <trkpt lat="45.03902" lon="6.2511">
        <ele>1329</ele>
        <time>2012-07-07T14:53:59Z</time>
      </trkpt>
      <trkpt lat="45.03901" lon="6.25061">
        <ele>1323</ele>
        <time>2012-07-07T14:54:04Z</time>
      </trkpt>
      <trkpt lat="45.0386" lon="6.25021">
        <ele>1319</ele>
        <time>2012-07-07T14:54:09Z</time>
      </trkpt>
      <trkpt lat="45.03842" lon="6.24972">
        <ele>1309</ele>
        <time>2012-07-07T14:54:14Z</time>
      </trkpt>
      <trkpt lat="45.0383" lon="6.2494">
        <ele>1313</ele>
        <time>2012-07-07T14:54:19Z</time>
      </trkpt>
      <trkpt lat="45.03827" lon="6.24932">
        <ele>1311</ele>
        <time>2012-07-07T14:54:24Z</time>
      </trkpt>
      <trkpt lat="45.03827" lon="6.24932">
        <ele>1311</ele>
        <time>2012-07-07T14:54:29Z</time>
      </trkpt>
      <trkpt lat="45.03827" lon="6.24932">
        <ele>1311</ele>
        <time>2012-07-07T14:54:34Z</time>
      </trkpt>
      <trkpt lat="45.03827" lon="6.24932">
        <ele>1311</ele>
        <time>2012-07-07T14:54:39Z</time>
      </trkpt>
      <trkpt lat="45.03827" lon="6.24932">
        <ele>1311</ele>
        <time>2012-07-07T14:54:44Z</time>
      </trkpt>
      <trkpt lat="45.03827" lon="6.24932">
        <ele>1311</ele>
        <time>2012-07-07T14:54:49Z</time>
      </trkpt>
      <trkpt lat="45.03847" lon="6.24349">
        <ele>1273</ele>
        <time>2012-07-07T14:54:54Z</time>
      </trkpt>
      <trkpt lat="45.03817" lon="6.24271">
        <ele>1279</ele>
        <time>2012-07-07T14:54:59Z</time>
      </trkpt>
      <trkpt lat="45.03797" lon="6.24217">
        <ele>1280</ele>
        <time>2012-07-07T14:55:04Z</time>
      </trkpt>
      <trkpt lat="45.03777" lon="6.24127">
        <ele>1277</ele>
        <time>2012-07-07T14:55:09Z</time>
      </trkpt>
      <trkpt lat="45.03768" lon="6.2406">
        <ele>1274</ele>
        <time>2012-07-07T14:55:14Z</time>
      </trkpt>
      <trkpt lat="45.03759" lon="6.2396">
        <ele>1274</ele>
        <time>2012-07-07T14:55:19Z</time>
      </trkpt>
      <trkpt lat="45.03752" lon="6.23895">
        <ele>1272</ele>
        <time>2012-07-07T14:55:24Z</time>
      </trkpt>
      <trkpt lat="45.0375" lon="6.23803">
        <ele>1267</ele>
        <time>2012-07-07T14:55:29Z</time>
      </trkpt>
      <trkpt lat="45.03762" lon="6.23746">
        <ele>1262</ele>
        <time>2012-07-07T14:55:34Z</time>
      </trkpt>
      <trkpt lat="45.03775" lon="6.23674">
        <ele>1265</ele>
        <time>2012-07-07T14:55:39Z</time>
      </trkpt>
      <trkpt lat="45.0378" lon="6.236">
        <ele>1262</ele>
        <time>2012-07-07T14:55:44Z</time>
      </trkpt>
      <trkpt lat="45.03782" lon="6.23529">
        <ele>1258</ele>
        <time>2012-07-07T14:55:49Z</time>
      </trkpt>
      <trkpt lat="45.03781" lon="6.23445">
        <ele>1255</ele>
        <time>2012-07-07T14:55:54Z</time>
      </trkpt>
      <trkpt lat="45.03766" lon="6.23393">
        <ele>1256</ele>
        <time>2012-07-07T14:55:59Z</time>
      </trkpt>
      <trkpt lat="45.03726" lon="6.23329">
        <ele>1251</ele>
        <time>2012-07-07T14:56:04Z</time>
      </trkpt>
      <trkpt lat="45.03701" lon="6.2328">
        <ele>1249</ele>
        <time>2012-07-07T14:56:09Z</time>
      </trkpt>
      <trkpt lat="45.03685" lon="6.23183">
        <ele>1245</ele>
        <time>2012-07-07T14:56:14Z</time>
      </trkpt>
      <trkpt lat="45.03672" lon="6.23115">
        <ele>1243</ele>
        <time>2012-07-07T14:56:19Z</time>
      </trkpt>
      <trkpt lat="45.03663" lon="6.23006">
        <ele>1233</ele>
        <time>2012-07-07T14:56:24Z</time>
      </trkpt>
      <trkpt lat="45.03666" lon="6.22928">
        <ele>1227</ele>
        <time>2012-07-07T14:56:29Z</time>
      </trkpt>
      <trkpt lat="45.0366" lon="6.22829">
        <ele>1224</ele>
        <time>2012-07-07T14:56:34Z</time>
      </trkpt>
      <trkpt lat="45.03641" lon="6.22731">
        <ele>1224</ele>
        <time>2012-07-07T14:56:39Z</time>
      </trkpt>
      <trkpt lat="45.03616" lon="6.22631">
        <ele>1222</ele>
        <time>2012-07-07T14:56:44Z</time>
      </trkpt>
      <trkpt lat="45.03601" lon="6.22508">
        <ele>1210</ele>
        <time>2012-07-07T14:56:49Z</time>
      </trkpt>
      <trkpt lat="45.03609" lon="6.22431">
        <ele>1196</ele>
        <time>2012-07-07T14:56:54Z</time>
      </trkpt>
      <trkpt lat="45.03606" lon="6.2233">
        <ele>1176</ele>
        <time>2012-07-07T14:56:59Z</time>
      </trkpt>
      <trkpt lat="45.03606" lon="6.22263">
        <ele>1170</ele>
        <time>2012-07-07T14:57:04Z</time>
      </trkpt>
      <trkpt lat="45.03629" lon="6.22161">
        <ele>1168</ele>
        <time>2012-07-07T14:57:09Z</time>
      </trkpt>
      <trkpt lat="45.03645" lon="6.22093">
        <ele>1169</ele>
        <time>2012-07-07T14:57:14Z</time>
      </trkpt>
      <trkpt lat="45.03617" lon="6.21999">
        <ele>1177</ele>
        <time>2012-07-07T14:57:19Z</time>
      </trkpt>
      <trkpt lat="45.03597" lon="6.21934">
        <ele>1178</ele>
        <time>2012-07-07T14:57:24Z</time>
      </trkpt>
      <trkpt lat="45.03582" lon="6.21847">
        <ele>1167</ele>
        <time>2012-07-07T14:57:29Z</time>
      </trkpt>
      <trkpt lat="45.03591" lon="6.2176">
        <ele>1170</ele>
        <time>2012-07-07T14:57:34Z</time>
      </trkpt>
      <trkpt lat="45.03609" lon="6.21671">
        <ele>1169</ele>
        <time>2012-07-07T14:57:39Z</time>
      </trkpt>
      <trkpt lat="45.03652" lon="6.21579">
        <ele>1164</ele>
        <time>2012-07-07T14:57:44Z</time>
      </trkpt>
      <trkpt lat="45.0369" lon="6.21536">
        <ele>1172</ele>
        <time>2012-07-07T14:57:49Z</time>
      </trkpt>
      <trkpt lat="45.03732" lon="6.21442">
        <ele>1159</ele>
        <time>2012-07-07T14:57:54Z</time>
      </trkpt>
      <trkpt lat="45.03757" lon="6.21375">
        <ele>1163</ele>
        <time>2012-07-07T14:57:59Z</time>
      </trkpt>
      <trkpt lat="45.03794" lon="6.21277">
        <ele>1156</ele>
        <time>2012-07-07T14:58:04Z</time>
      </trkpt>
      <trkpt lat="45.03816" lon="6.21213">
        <ele>1148</ele>
        <time>2012-07-07T14:58:09Z</time>
      </trkpt>
      <trkpt lat="45.03833" lon="6.21114">
        <ele>1140</ele>
        <time>2012-07-07T14:58:14Z</time>
      </trkpt>
      <trkpt lat="45.03842" lon="6.21047">
        <ele>1140</ele>
        <time>2012-07-07T14:58:19Z</time>
      </trkpt>
      <trkpt lat="45.03851" lon="6.20966">
        <ele>1140</ele>
        <time>2012-07-07T14:58:24Z</time>
      </trkpt>
      <trkpt lat="45.03846" lon="6.2089">
        <ele>1139</ele>
        <time>2012-07-07T14:58:29Z</time>
      </trkpt>
      <trkpt lat="45.03835" lon="6.20817">
        <ele>1138</ele>
        <time>2012-07-07T14:58:34Z</time>
      </trkpt>
      <trkpt lat="45.03816" lon="6.2073">
        <ele>1134</ele>
        <time>2012-07-07T14:58:39Z</time>
      </trkpt>
      <trkpt lat="45.03808" lon="6.20675">
        <ele>1133</ele>
        <time>2012-07-07T14:58:44Z</time>
      </trkpt>
      <trkpt lat="45.03794" lon="6.20588">
        <ele>1136</ele>
        <time>2012-07-07T14:58:49Z</time>
      </trkpt>
      <trkpt lat="45.03787" lon="6.20529">
        <ele>1141</ele>
        <time>2012-07-07T14:58:54Z</time>
      </trkpt>
      <trkpt lat="45.03776" lon="6.20442">
        <ele>1143</ele>
        <time>2012-07-07T14:58:59Z</time>
      </trkpt>
      <trkpt lat="45.03771" lon="6.20386">
        <ele>1142</ele>
        <time>2012-07-07T14:59:04Z</time>
      </trkpt>
      <trkpt lat="45.03773" lon="6.20317">
        <ele>1139</ele>
        <time>2012-07-07T14:59:09Z</time>
      </trkpt>
      <trkpt lat="45.03774" lon="6.20247">
        <ele>1135</ele>
        <time>2012-07-07T14:59:14Z</time>
      </trkpt>
      <trkpt lat="45.03777" lon="6.20179">
        <ele>1134</ele>
        <time>2012-07-07T14:59:19Z</time>
      </trkpt>
      <trkpt lat="45.03779" lon="6.20099">
        <ele>1131</ele>
        <time>2012-07-07T14:59:24Z</time>
      </trkpt>
      <trkpt lat="45.03779" lon="6.20044">
        <ele>1131</ele>
        <time>2012-07-07T14:59:29Z</time>
      </trkpt>
      <trkpt lat="45.03773" lon="6.19964">
        <ele>1132</ele>
        <time>2012-07-07T14:59:34Z</time>
      </trkpt>
      <trkpt lat="45.03767" lon="6.19911">
        <ele>1131</ele>
        <time>2012-07-07T14:59:39Z</time>
      </trkpt>
      <trkpt lat="45.03758" lon="6.19836">
        <ele>1128</ele>
        <time>2012-07-07T14:59:44Z</time>
      </trkpt>
      <trkpt lat="45.03753" lon="6.19785">
        <ele>1132</ele>
        <time>2012-07-07T14:59:49Z</time>
      </trkpt>
      <trkpt lat="45.03747" lon="6.19723">
        <ele>1123</ele>
        <time>2012-07-07T14:59:54Z</time>
      </trkpt>
      <trkpt lat="45.03742" lon="6.19662">
        <ele>1123</ele>
        <time>2012-07-07T14:59:59Z</time>
      </trkpt>
      <trkpt lat="45.03736" lon="6.196">
        <ele>1124</ele>
        <time>2012-07-07T15:00:04Z</time>
      </trkpt>
      <trkpt lat="45.03732" lon="6.19538">
        <ele>1126</ele>
        <time>2012-07-07T15:00:09Z</time>
      </trkpt>
      <trkpt lat="45.03742" lon="6.19482">
        <ele>1125</ele>
        <time>2012-07-07T15:00:14Z</time>
      </trkpt>
      <trkpt lat="45.03765" lon="6.19426">
        <ele>1123</ele>
        <time>2012-07-07T15:00:19Z</time>
      </trkpt>
      <trkpt lat="45.03783" lon="6.19388">
        <ele>1123</ele>
        <time>2012-07-07T15:00:24Z</time>
      </trkpt>
      <trkpt lat="45.03809" lon="6.19323">
        <ele>1121</ele>
        <time>2012-07-07T15:00:29Z</time>
      </trkpt>
      <trkpt lat="45.0382" lon="6.19273">
        <ele>1119</ele>
        <time>2012-07-07T15:00:34Z</time>
      </trkpt>
      <trkpt lat="45.0383" lon="6.19192">
        <ele>1112</ele>
        <time>2012-07-07T15:00:39Z</time>
      </trkpt>
      <trkpt lat="45.03837" lon="6.19138">
        <ele>1117</ele>
        <time>2012-07-07T15:00:44Z</time>
      </trkpt>
      <trkpt lat="45.03845" lon="6.1906">
        <ele>1111</ele>
        <time>2012-07-07T15:00:49Z</time>
      </trkpt>
      <trkpt lat="45.0386" lon="6.19014">
        <ele>1111</ele>
        <time>2012-07-07T15:00:54Z</time>
      </trkpt>
      <trkpt lat="45.03883" lon="6.18967">
        <ele>1107</ele>
        <time>2012-07-07T15:00:59Z</time>
      </trkpt>
      <trkpt lat="45.03902" lon="6.18915">
        <ele>1103</ele>
        <time>2012-07-07T15:01:04Z</time>
      </trkpt>
      <trkpt lat="45.0392" lon="6.18863">
        <ele>1110</ele>
        <time>2012-07-07T15:01:09Z</time>
      </trkpt>
      <trkpt lat="45.0393" lon="6.18798">
        <ele>1107</ele>
        <time>2012-07-07T15:01:14Z</time>
      </trkpt>
      <trkpt lat="45.03931" lon="6.18752">
        <ele>1103</ele>
        <time>2012-07-07T15:01:19Z</time>
      </trkpt>
      <trkpt lat="45.0392" lon="6.18687">
        <ele>1105</ele>
        <time>2012-07-07T15:01:24Z</time>
      </trkpt>
      <trkpt lat="45.03909" lon="6.18647">
        <ele>1097</ele>
        <time>2012-07-07T15:01:29Z</time>
      </trkpt>
      <trkpt lat="45.039" lon="6.18581">
        <ele>1098</ele>
        <time>2012-07-07T15:01:34Z</time>
      </trkpt>
      <trkpt lat="45.03897" lon="6.18539">
        <ele>1095</ele>
        <time>2012-07-07T15:01:39Z</time>
      </trkpt>
      <trkpt lat="45.03891" lon="6.18474">
        <ele>1094</ele>
        <time>2012-07-07T15:01:44Z</time>
      </trkpt>
      <trkpt lat="45.03892" lon="6.18429">
        <ele>1095</ele>
        <time>2012-07-07T15:01:49Z</time>
      </trkpt>
      <trkpt lat="45.03906" lon="6.18376">
        <ele>1094</ele>
        <time>2012-07-07T15:01:54Z</time>
      </trkpt>
      <trkpt lat="45.03911" lon="6.18321">
        <ele>1092</ele>
        <time>2012-07-07T15:01:59Z</time>
      </trkpt>
      <trkpt lat="45.03926" lon="6.18263">
        <ele>1095</ele>
        <time>2012-07-07T15:02:04Z</time>
      </trkpt>
      <trkpt lat="45.0393" lon="6.18186">
        <ele>1084</ele>
        <time>2012-07-07T15:02:09Z</time>
      </trkpt>
      <trkpt lat="45.03921" lon="6.18131">
        <ele>1074</ele>
        <time>2012-07-07T15:02:14Z</time>
      </trkpt>
      <trkpt lat="45.03926" lon="6.18047">
        <ele>1065</ele>
        <time>2012-07-07T15:02:19Z</time>
      </trkpt>
      <trkpt lat="45.03933" lon="6.17992">
        <ele>1063</ele>
        <time>2012-07-07T15:02:24Z</time>
      </trkpt>
      <trkpt lat="45.03935" lon="6.17908">
        <ele>1063</ele>
        <time>2012-07-07T15:02:29Z</time>
      </trkpt>
      <trkpt lat="45.03937" lon="6.1785">
        <ele>1066</ele>
        <time>2012-07-07T15:02:34Z</time>
      </trkpt>
      <trkpt lat="45.03925" lon="6.17754">
        <ele>1062</ele>
        <time>2012-07-07T15:02:39Z</time>
      </trkpt>
      <trkpt lat="45.03942" lon="6.17695">
        <ele>1046</ele>
        <time>2012-07-07T15:02:44Z</time>
      </trkpt>
      <trkpt lat="45.03974" lon="6.1763">
        <ele>1038</ele>
        <time>2012-07-07T15:02:49Z</time>
      </trkpt>
      <trkpt lat="45.04007" lon="6.17567">
        <ele>1075</ele>
        <time>2012-07-07T15:02:54Z</time>
      </trkpt>
      <trkpt lat="45.04032" lon="6.17497">
        <ele>1083</ele>
        <time>2012-07-07T15:02:59Z</time>
      </trkpt>
      <trkpt lat="45.0407" lon="6.17411">
        <ele>1074</ele>
        <time>2012-07-07T15:03:04Z</time>
      </trkpt>
      <trkpt lat="45.04086" lon="6.17349">
        <ele>1082</ele>
        <time>2012-07-07T15:03:09Z</time>
      </trkpt>
      <trkpt lat="45.0411" lon="6.17292">
        <ele>1071</ele>
        <time>2012-07-07T15:03:14Z</time>
      </trkpt>
      <trkpt lat="45.0412" lon="6.17268">
        <ele>1070</ele>
        <time>2012-07-07T15:03:19Z</time>
      </trkpt>
      <trkpt lat="45.04134" lon="6.17239">
        <ele>1064</ele>
        <time>2012-07-07T15:03:24Z</time>
      </trkpt>
      <trkpt lat="45.04141" lon="6.17221">
        <ele>1064</ele>
        <time>2012-07-07T15:03:29Z</time>
      </trkpt>
      <trkpt lat="45.04149" lon="6.17197">
        <ele>1064</ele>
        <time>2012-07-07T15:03:34Z</time>
      </trkpt>
      <trkpt lat="45.04156" lon="6.17171">
        <ele>1067</ele>
        <time>2012-07-07T15:03:39Z</time>
      </trkpt>
      <trkpt lat="45.04159" lon="6.17145">
        <ele>1061</ele>
        <time>2012-07-07T15:03:44Z</time>
      </trkpt>
      <trkpt lat="45.04165" lon="6.17114">
        <ele>1058</ele>
        <time>2012-07-07T15:03:49Z</time>
      </trkpt>
      <trkpt lat="45.04169" lon="6.17091">
        <ele>1071</ele>
        <time>2012-07-07T15:03:54Z</time>
      </trkpt>
      <trkpt lat="45.04177" lon="6.17058">
        <ele>1070</ele>
        <time>2012-07-07T15:03:59Z</time>
      </trkpt>
      <trkpt lat="45.04185" lon="6.17038">
        <ele>1070</ele>
        <time>2012-07-07T15:04:04Z</time>
      </trkpt>
      <trkpt lat="45.04201" lon="6.17014">
        <ele>1070</ele>
        <time>2012-07-07T15:04:09Z</time>
      </trkpt>
      <trkpt lat="45.04215" lon="6.16998">
        <ele>1064</ele>
        <time>2012-07-07T15:04:14Z</time>
      </trkpt>
      <trkpt lat="45.04231" lon="6.16972">
        <ele>1065</ele>
        <time>2012-07-07T15:04:19Z</time>
      </trkpt>
      <trkpt lat="45.04243" lon="6.16953">
        <ele>1063</ele>
        <time>2012-07-07T15:04:24Z</time>
      </trkpt>
      <trkpt lat="45.04261" lon="6.16927">
        <ele>1073</ele>
        <time>2012-07-07T15:04:29Z</time>
      </trkpt>
      <trkpt lat="45.04277" lon="6.16895">
        <ele>1076</ele>
        <time>2012-07-07T15:04:34Z</time>
      </trkpt>
      <trkpt lat="45.04273" lon="6.1685">
        <ele>1073</ele>
        <time>2012-07-07T15:04:39Z</time>
      </trkpt>
      <trkpt lat="45.04268" lon="6.168">
        <ele>1074</ele>
        <time>2012-07-07T15:04:44Z</time>
      </trkpt>
      <trkpt lat="45.04268" lon="6.16768">
        <ele>1072</ele>
        <time>2012-07-07T15:04:49Z</time>
      </trkpt>
      <trkpt lat="45.04271" lon="6.16721">
        <ele>1072</ele>
        <time>2012-07-07T15:04:54Z</time>
      </trkpt>
      <trkpt lat="45.04279" lon="6.16691">
        <ele>1073</ele>
        <time>2012-07-07T15:04:59Z</time>
      </trkpt>
      <trkpt lat="45.04292" lon="6.16643">
        <ele>1073</ele>
        <time>2012-07-07T15:05:04Z</time>
      </trkpt>
      <trkpt lat="45.04302" lon="6.16611">
        <ele>1074</ele>
        <time>2012-07-07T15:05:09Z</time>
      </trkpt>
      <trkpt lat="45.04313" lon="6.16561">
        <ele>1069</ele>
        <time>2012-07-07T15:05:14Z</time>
      </trkpt>
      <trkpt lat="45.04323" lon="6.16527">
        <ele>1065</ele>
        <time>2012-07-07T15:05:19Z</time>
      </trkpt>
      <trkpt lat="45.04338" lon="6.16483">
        <ele>1083</ele>
        <time>2012-07-07T15:05:24Z</time>
      </trkpt>
      <trkpt lat="45.04353" lon="6.16433">
        <ele>1079</ele>
        <time>2012-07-07T15:05:29Z</time>
      </trkpt>
      <trkpt lat="45.04367" lon="6.16381">
        <ele>1070</ele>
        <time>2012-07-07T15:05:34Z</time>
      </trkpt>
      <trkpt lat="45.04381" lon="6.16324">
        <ele>1060</ele>
        <time>2012-07-07T15:05:39Z</time>
      </trkpt>
      <trkpt lat="45.0439" lon="6.16287">
        <ele>1059</ele>
        <time>2012-07-07T15:05:44Z</time>
      </trkpt>
      <trkpt lat="45.04405" lon="6.16231">
        <ele>1059</ele>
        <time>2012-07-07T15:05:49Z</time>
      </trkpt>
      <trkpt lat="45.04423" lon="6.16196">
        <ele>1101</ele>
        <time>2012-07-07T15:05:54Z</time>
      </trkpt>
      <trkpt lat="45.04417" lon="6.16147">
        <ele>1071</ele>
        <time>2012-07-07T15:05:59Z</time>
      </trkpt>
      <trkpt lat="45.04396" lon="6.16116">
        <ele>1071</ele>
        <time>2012-07-07T15:06:04Z</time>
      </trkpt>
      <trkpt lat="45.0438" lon="6.16083">
        <ele>1078</ele>
        <time>2012-07-07T15:06:09Z</time>
      </trkpt>
      <trkpt lat="45.04376" lon="6.1606">
        <ele>1074</ele>
        <time>2012-07-07T15:06:14Z</time>
      </trkpt>
      <trkpt lat="45.04374" lon="6.16029">
        <ele>1074</ele>
        <time>2012-07-07T15:06:19Z</time>
      </trkpt>
      <trkpt lat="45.04375" lon="6.16">
        <ele>1075</ele>
        <time>2012-07-07T15:06:24Z</time>
      </trkpt>
      <trkpt lat="45.04376" lon="6.15973">
        <ele>1074</ele>
        <time>2012-07-07T15:06:29Z</time>
      </trkpt>
      <trkpt lat="45.04377" lon="6.15939">
        <ele>1073</ele>
        <time>2012-07-07T15:06:34Z</time>
      </trkpt>
      <trkpt lat="45.04378" lon="6.15917">
        <ele>1073</ele>
        <time>2012-07-07T15:06:39Z</time>
      </trkpt>
      <trkpt lat="45.04381" lon="6.15885">
        <ele>1070</ele>
        <time>2012-07-07T15:06:44Z</time>
      </trkpt>
      <trkpt lat="45.04385" lon="6.15862">
        <ele>1071</ele>
        <time>2012-07-07T15:06:49Z</time>
      </trkpt>
      <trkpt lat="45.0439" lon="6.15833">
        <ele>1069</ele>
        <time>2012-07-07T15:06:54Z</time>
      </trkpt>
      <trkpt lat="45.04395" lon="6.15804">
        <ele>1066</ele>
        <time>2012-07-07T15:06:59Z</time>
      </trkpt>
      <trkpt lat="45.044" lon="6.15775">
        <ele>1065</ele>
        <time>2012-07-07T15:07:04Z</time>
      </trkpt>
      <trkpt lat="45.04408" lon="6.15744">
        <ele>1065</ele>
        <time>2012-07-07T15:07:09Z</time>
      </trkpt>
      <trkpt lat="45.04421" lon="6.15706">
        <ele>1085</ele>
        <time>2012-07-07T15:07:14Z</time>
      </trkpt>
      <trkpt lat="45.04432" lon="6.15659">
        <ele>1064</ele>
        <time>2012-07-07T15:07:19Z</time>
      </trkpt>
      <trkpt lat="45.04462" lon="6.15642">
        <ele>1075</ele>
        <time>2012-07-07T15:07:24Z</time>
      </trkpt>
      <trkpt lat="45.04508" lon="6.15626">
        <ele>1110</ele>
        <time>2012-07-07T15:07:29Z</time>
      </trkpt>
      <trkpt lat="45.04524" lon="6.15578">
        <ele>1100</ele>
        <time>2012-07-07T15:07:34Z</time>
      </trkpt>
      <trkpt lat="45.04508" lon="6.15506">
        <ele>1094</ele>
        <time>2012-07-07T15:07:39Z</time>
      </trkpt>
      <trkpt lat="45.045" lon="6.15463">
        <ele>1108</ele>
        <time>2012-07-07T15:07:44Z</time>
      </trkpt>
      <trkpt lat="45.04434" lon="6.15435">
        <ele>1057</ele>
        <time>2012-07-07T15:07:49Z</time>
      </trkpt>
      <trkpt lat="45.04426" lon="6.15389">
        <ele>1056</ele>
        <time>2012-07-07T15:07:54Z</time>
      </trkpt>
      <trkpt lat="45.04446" lon="6.15329">
        <ele>1055</ele>
        <time>2012-07-07T15:07:59Z</time>
      </trkpt>
      <trkpt lat="45.04457" lon="6.15268">
        <ele>1060</ele>
        <time>2012-07-07T15:08:04Z</time>
      </trkpt>
      <trkpt lat="45.0448" lon="6.15215">
        <ele>1064</ele>
        <time>2012-07-07T15:08:09Z</time>
      </trkpt>
      <trkpt lat="45.04512" lon="6.1515">
        <ele>1115</ele>
        <time>2012-07-07T15:08:14Z</time>
      </trkpt>
      <trkpt lat="45.04533" lon="6.15106">
        <ele>1137</ele>
        <time>2012-07-07T15:08:19Z</time>
      </trkpt>
      <trkpt lat="45.04554" lon="6.15063">
        <ele>1162</ele>
        <time>2012-07-07T15:08:24Z</time>
      </trkpt>
      <trkpt lat="45.04554" lon="6.15063">
        <ele>1162</ele>
        <time>2012-07-07T15:08:29Z</time>
      </trkpt>
      <trkpt lat="45.04554" lon="6.15063">
        <ele>1162</ele>
        <time>2012-07-07T15:08:34Z</time>
      </trkpt>
      <trkpt lat="45.04554" lon="6.15063">
        <ele>1162</ele>
        <time>2012-07-07T15:08:39Z</time>
      </trkpt>
      <trkpt lat="45.04554" lon="6.15063">
        <ele>1162</ele>
        <time>2012-07-07T15:08:44Z</time>
      </trkpt>
      <trkpt lat="45.04554" lon="6.15063">
        <ele>1162</ele>
        <time>2012-07-07T15:08:49Z</time>
      </trkpt>
      <trkpt lat="45.04554" lon="6.15063">
        <ele>1162</ele>
        <time>2012-07-07T15:08:54Z</time>
      </trkpt>
      <trkpt lat="45.04554" lon="6.15063">
        <ele>1162</ele>
        <time>2012-07-07T15:08:59Z</time>
      </trkpt>
      <trkpt lat="45.04554" lon="6.15063">
        <ele>1162</ele>
        <time>2012-07-07T15:09:04Z</time>
      </trkpt>
      <trkpt lat="45.04554" lon="6.15063">
        <ele>1162</ele>
        <time>2012-07-07T15:09:09Z</time>
      </trkpt>
      <trkpt lat="45.04554" lon="6.15063">
        <ele>1162</ele>
        <time>2012-07-07T15:09:14Z</time>
      </trkpt>
      <trkpt lat="45.04554" lon="6.15063">
        <ele>1162</ele>
        <time>2012-07-07T15:09:19Z</time>
      </trkpt>
      <trkpt lat="45.04554" lon="6.15063">
        <ele>1162</ele>
        <time>2012-07-07T15:09:24Z</time>
      </trkpt>
      <trkpt lat="45.04786" lon="6.14301">
        <ele>1074</ele>
        <time>2012-07-07T15:09:29Z</time>
      </trkpt>
      <trkpt lat="45.04781" lon="6.14248">
        <ele>1066</ele>
        <time>2012-07-07T15:09:34Z</time>
      </trkpt>
      <trkpt lat="45.04755" lon="6.14168">
        <ele>1050</ele>
        <time>2012-07-07T15:09:39Z</time>
      </trkpt>
      <trkpt lat="45.04752" lon="6.14111">
        <ele>1064</ele>
        <time>2012-07-07T15:09:44Z</time>
      </trkpt>
      <trkpt lat="45.04748" lon="6.14033">
        <ele>1037</ele>
        <time>2012-07-07T15:09:49Z</time>
      </trkpt>
      <trkpt lat="45.04741" lon="6.13956">
        <ele>1040</ele>
        <time>2012-07-07T15:09:54Z</time>
      </trkpt>
      <trkpt lat="45.0471" lon="6.13886">
        <ele>1031</ele>
        <time>2012-07-07T15:09:59Z</time>
      </trkpt>
      <trkpt lat="45.04694" lon="6.13805">
        <ele>1024</ele>
        <time>2012-07-07T15:10:04Z</time>
      </trkpt>
      <trkpt lat="45.0466" lon="6.13796">
        <ele>1005</ele>
        <time>2012-07-07T15:10:09Z</time>
      </trkpt>
      <trkpt lat="45.04614" lon="6.13788">
        <ele>1004</ele>
        <time>2012-07-07T15:10:14Z</time>
      </trkpt>
      <trkpt lat="45.04585" lon="6.13782">
        <ele>1003</ele>
        <time>2012-07-07T15:10:19Z</time>
      </trkpt>
      <trkpt lat="45.04552" lon="6.13768">
        <ele>1005</ele>
        <time>2012-07-07T15:10:24Z</time>
      </trkpt>
      <trkpt lat="45.04523" lon="6.13738">
        <ele>1014</ele>
        <time>2012-07-07T15:10:29Z</time>
      </trkpt>
      <trkpt lat="45.04505" lon="6.13681">
        <ele>1022</ele>
        <time>2012-07-07T15:10:34Z</time>
      </trkpt>
      <trkpt lat="45.04505" lon="6.13636">
        <ele>1030</ele>
        <time>2012-07-07T15:10:39Z</time>
      </trkpt>
      <trkpt lat="45.04513" lon="6.13589">
        <ele>1041</ele>
        <time>2012-07-07T15:10:44Z</time>
      </trkpt>
      <trkpt lat="45.04532" lon="6.13545">
        <ele>1051</ele>
        <time>2012-07-07T15:10:49Z</time>
      </trkpt>
      <trkpt lat="45.04564" lon="6.13519">
        <ele>1049</ele>
        <time>2012-07-07T15:10:54Z</time>
      </trkpt>
      <trkpt lat="45.04596" lon="6.13474">
        <ele>1037</ele>
        <time>2012-07-07T15:10:59Z</time>
      </trkpt>
      <trkpt lat="45.04625" lon="6.13458">
        <ele>1031</ele>
        <time>2012-07-07T15:11:04Z</time>
      </trkpt>
      <trkpt lat="45.04658" lon="6.13403">
        <ele>1036</ele>
        <time>2012-07-07T15:11:09Z</time>
      </trkpt>
      <trkpt lat="45.04675" lon="6.13356">
        <ele>1023</ele>
        <time>2012-07-07T15:11:14Z</time>
      </trkpt>
      <trkpt lat="45.04694" lon="6.13292">
        <ele>1021</ele>
        <time>2012-07-07T15:11:19Z</time>
      </trkpt>
      <trkpt lat="45.04677" lon="6.13227">
        <ele>1021</ele>
        <time>2012-07-07T15:11:24Z</time>
      </trkpt>
      <trkpt lat="45.04612" lon="6.13197">
        <ele>1034</ele>
        <time>2012-07-07T15:11:29Z</time>
      </trkpt>
      <trkpt lat="45.04576" lon="6.13146">
        <ele>1031</ele>
        <time>2012-07-07T15:11:34Z</time>
      </trkpt>
      <trkpt lat="45.04541" lon="6.13071">
        <ele>1017</ele>
        <time>2012-07-07T15:11:39Z</time>
      </trkpt>
      <trkpt lat="45.0449" lon="6.13019">
        <ele>1023</ele>
        <time>2012-07-07T15:11:44Z</time>
      </trkpt>
      <trkpt lat="45.04429" lon="6.12965">
        <ele>1010</ele>
        <time>2012-07-07T15:11:49Z</time>
      </trkpt>
      <trkpt lat="45.04363" lon="6.12908">
        <ele>998</ele>
        <time>2012-07-07T15:11:54Z</time>
      </trkpt>
      <trkpt lat="45.04319" lon="6.12865">
        <ele>1004</ele>
        <time>2012-07-07T15:11:59Z</time>
      </trkpt>
      <trkpt lat="45.04248" lon="6.1281">
        <ele>1004</ele>
        <time>2012-07-07T15:12:04Z</time>
      </trkpt>
      <trkpt lat="45.042" lon="6.12766">
        <ele>1002</ele>
        <time>2012-07-07T15:12:09Z</time>
      </trkpt>
      <trkpt lat="45.04131" lon="6.12688">
        <ele>1000</ele>
        <time>2012-07-07T15:12:14Z</time>
      </trkpt>
      <trkpt lat="45.04089" lon="6.12633">
        <ele>985</ele>
        <time>2012-07-07T15:12:19Z</time>
      </trkpt>
      <trkpt lat="45.04054" lon="6.12559">
        <ele>991</ele>
        <time>2012-07-07T15:12:24Z</time>
      </trkpt>
      <trkpt lat="45.04045" lon="6.12481">
        <ele>983</ele>
        <time>2012-07-07T15:12:29Z</time>
      </trkpt>
      <trkpt lat="45.04079" lon="6.12452">
        <ele>978</ele>
        <time>2012-07-07T15:12:34Z</time>
      </trkpt>
      <trkpt lat="45.041" lon="6.1252">
        <ele>968</ele>
        <time>2012-07-07T15:12:39Z</time>
      </trkpt>
      <trkpt lat="45.04098" lon="6.12573">
        <ele>972</ele>
        <time>2012-07-07T15:12:44Z</time>
      </trkpt>
      <trkpt lat="45.04127" lon="6.12638">
        <ele>979</ele>
        <time>2012-07-07T15:12:49Z</time>
      </trkpt>
      <trkpt lat="45.04167" lon="6.12663">
        <ele>969</ele>
        <time>2012-07-07T15:12:54Z</time>
      </trkpt>
      <trkpt lat="45.04228" lon="6.12695">
        <ele>970</ele>
        <time>2012-07-07T15:12:59Z</time>
      </trkpt>
      <trkpt lat="45.04272" lon="6.12723">
        <ele>960</ele>
        <time>2012-07-07T15:13:04Z</time>
      </trkpt>
      <trkpt lat="45.04336" lon="6.12738">
        <ele>953</ele>
        <time>2012-07-07T15:13:09Z</time>
      </trkpt>
      <trkpt lat="45.04403" lon="6.12749">
        <ele>953</ele>
        <time>2012-07-07T15:13:14Z</time>
      </trkpt>
      <trkpt lat="45.04469" lon="6.12747">
        <ele>946</ele>
        <time>2012-07-07T15:13:19Z</time>
      </trkpt>
      <trkpt lat="45.04524" lon="6.12743">
        <ele>942</ele>
        <time>2012-07-07T15:13:24Z</time>
      </trkpt>
      <trkpt lat="45.04568" lon="6.1272">
        <ele>939</ele>
        <time>2012-07-07T15:13:29Z</time>
      </trkpt>
      <trkpt lat="45.04563" lon="6.12647">
        <ele>932</ele>
        <time>2012-07-07T15:13:34Z</time>
      </trkpt>
      <trkpt lat="45.04538" lon="6.12601">
        <ele>931</ele>
        <time>2012-07-07T15:13:39Z</time>
      </trkpt>
      <trkpt lat="45.0451" lon="6.12529">
        <ele>928</ele>
        <time>2012-07-07T15:13:44Z</time>
      </trkpt>
      <trkpt lat="45.04474" lon="6.12506">
        <ele>929</ele>
        <time>2012-07-07T15:13:49Z</time>
      </trkpt>
      <trkpt lat="45.04418" lon="6.1248">
        <ele>929</ele>
        <time>2012-07-07T15:13:54Z</time>
      </trkpt>
      <trkpt lat="45.04386" lon="6.12466">
        <ele>927</ele>
        <time>2012-07-07T15:13:59Z</time>
      </trkpt>
      <trkpt lat="45.04344" lon="6.12445">
        <ele>927</ele>
        <time>2012-07-07T15:14:04Z</time>
      </trkpt>
      <trkpt lat="45.04318" lon="6.12433">
        <ele>929</ele>
        <time>2012-07-07T15:14:09Z</time>
      </trkpt>
      <trkpt lat="45.04288" lon="6.12422">
        <ele>932</ele>
        <time>2012-07-07T15:14:14Z</time>
      </trkpt>
      <trkpt lat="45.04264" lon="6.12401">
        <ele>930</ele>
        <time>2012-07-07T15:14:19Z</time>
      </trkpt>
      <trkpt lat="45.04248" lon="6.12368">
        <ele>938</ele>
        <time>2012-07-07T15:14:24Z</time>
      </trkpt>
      <trkpt lat="45.04239" lon="6.12319">
        <ele>936</ele>
        <time>2012-07-07T15:14:29Z</time>
      </trkpt>
      <trkpt lat="45.04243" lon="6.12286">
        <ele>939</ele>
        <time>2012-07-07T15:14:34Z</time>
      </trkpt>
      <trkpt lat="45.04256" lon="6.12241">
        <ele>937</ele>
        <time>2012-07-07T15:14:39Z</time>
      </trkpt>
      <trkpt lat="45.04264" lon="6.12213">
        <ele>941</ele>
        <time>2012-07-07T15:14:44Z</time>
      </trkpt>
      <trkpt lat="45.0427" lon="6.12173">
        <ele>944</ele>
        <time>2012-07-07T15:14:49Z</time>
      </trkpt>
      <trkpt lat="45.04268" lon="6.12145">
        <ele>947</ele>
        <time>2012-07-07T15:14:54Z</time>
      </trkpt>
      <trkpt lat="45.04262" lon="6.12112">
        <ele>944</ele>
        <time>2012-07-07T15:14:59Z</time>
      </trkpt>
      <trkpt lat="45.04262" lon="6.1211">
        <ele>943</ele>
        <time>2012-07-07T15:15:04Z</time>
      </trkpt>
      <trkpt lat="45.04271" lon="6.12109">
        <ele>945</ele>
        <time>2012-07-07T15:15:09Z</time>
      </trkpt>
      <trkpt lat="45.04273" lon="6.12108">
        <ele>945</ele>
        <time>2012-07-07T15:15:14Z</time>
      </trkpt>
      <trkpt lat="45.04273" lon="6.12108">
        <ele>945</ele>
        <time>2012-07-07T15:15:19Z</time>
      </trkpt>
      <trkpt lat="45.04278" lon="6.12106">
        <ele>945</ele>
        <time>2012-07-07T15:15:24Z</time>
      </trkpt>
      <trkpt lat="45.0428" lon="6.12105">
        <ele>946</ele>
        <time>2012-07-07T15:15:29Z</time>
      </trkpt>
      <trkpt lat="45.04275" lon="6.12092">
        <ele>944</ele>
        <time>2012-07-07T15:15:34Z</time>
      </trkpt>
      <trkpt lat="45.04273" lon="6.12076">
        <ele>944</ele>
        <time>2012-07-07T15:15:39Z</time>
      </trkpt>
      <trkpt lat="45.04245" lon="6.12051">
        <ele>938</ele>
        <time>2012-07-07T15:15:44Z</time>
      </trkpt>
      <trkpt lat="45.04224" lon="6.12038">
        <ele>939</ele>
        <time>2012-07-07T15:15:49Z</time>
      </trkpt>
      <trkpt lat="45.04192" lon="6.12023">
        <ele>939</ele>
        <time>2012-07-07T15:15:54Z</time>
      </trkpt>
      <trkpt lat="45.04174" lon="6.1201">
        <ele>936</ele>
        <time>2012-07-07T15:15:59Z</time>
      </trkpt>
      <trkpt lat="45.04161" lon="6.11982">
        <ele>941</ele>
        <time>2012-07-07T15:16:04Z</time>
      </trkpt>
      <trkpt lat="45.0415" lon="6.11952">
        <ele>945</ele>
        <time>2012-07-07T15:16:09Z</time>
      </trkpt>
      <trkpt lat="45.04146" lon="6.11925">
        <ele>943</ele>
        <time>2012-07-07T15:16:14Z</time>
      </trkpt>
      <trkpt lat="45.04136" lon="6.11892">
        <ele>944</ele>
        <time>2012-07-07T15:16:19Z</time>
      </trkpt>
      <trkpt lat="45.04127" lon="6.11871">
        <ele>945</ele>
        <time>2012-07-07T15:16:24Z</time>
      </trkpt>
      <trkpt lat="45.04116" lon="6.11837">
        <ele>942</ele>
        <time>2012-07-07T15:16:29Z</time>
      </trkpt>
      <trkpt lat="45.04103" lon="6.11811">
        <ele>946</ele>
        <time>2012-07-07T15:16:34Z</time>
      </trkpt>
      <trkpt lat="45.04081" lon="6.11767">
        <ele>938</ele>
        <time>2012-07-07T15:16:39Z</time>
      </trkpt>
      <trkpt lat="45.04071" lon="6.11737">
        <ele>949</ele>
        <time>2012-07-07T15:16:44Z</time>
      </trkpt>
      <trkpt lat="45.04062" lon="6.11698">
        <ele>961</ele>
        <time>2012-07-07T15:16:49Z</time>
      </trkpt>
      <trkpt lat="45.04051" lon="6.1166">
        <ele>997</ele>
        <time>2012-07-07T15:16:54Z</time>
      </trkpt>
      <trkpt lat="45.04043" lon="6.11621">
        <ele>1010</ele>
        <time>2012-07-07T15:16:59Z</time>
      </trkpt>
      <trkpt lat="45.04033" lon="6.11582">
        <ele>1062</ele>
        <time>2012-07-07T15:17:04Z</time>
      </trkpt>
      <trkpt lat="45.04028" lon="6.11543">
        <ele>1077</ele>
        <time>2012-07-07T15:17:09Z</time>
      </trkpt>
      <trkpt lat="45.04024" lon="6.11493">
        <ele>1142</ele>
        <time>2012-07-07T15:17:14Z</time>
      </trkpt>
      <trkpt lat="45.04015" lon="6.11463">
        <ele>1154</ele>
        <time>2012-07-07T15:17:19Z</time>
      </trkpt>
      <trkpt lat="45.04001" lon="6.11419">
        <ele>1192</ele>
        <time>2012-07-07T15:17:24Z</time>
      </trkpt>
      <trkpt lat="45.03994" lon="6.11389">
        <ele>1196</ele>
        <time>2012-07-07T15:17:29Z</time>
      </trkpt>
      <trkpt lat="45.03988" lon="6.11351">
        <ele>1183</ele>
        <time>2012-07-07T15:17:34Z</time>
      </trkpt>
      <trkpt lat="45.03981" lon="6.11312">
        <ele>1144</ele>
        <time>2012-07-07T15:17:39Z</time>
      </trkpt>
      <trkpt lat="45.03975" lon="6.11273">
        <ele>1118</ele>
        <time>2012-07-07T15:17:44Z</time>
      </trkpt>
      <trkpt lat="45.0397" lon="6.11234">
        <ele>1065</ele>
        <time>2012-07-07T15:17:49Z</time>
      </trkpt>
      <trkpt lat="45.03967" lon="6.11211">
        <ele>1062</ele>
        <time>2012-07-07T15:17:54Z</time>
      </trkpt>
      <trkpt lat="45.03967" lon="6.11211">
        <ele>1062</ele>
        <time>2012-07-07T15:17:59Z</time>
      </trkpt>
      <trkpt lat="45.03967" lon="6.11211">
        <ele>1062</ele>
        <time>2012-07-07T15:18:04Z</time>
      </trkpt>
      <trkpt lat="45.03967" lon="6.11211">
        <ele>1062</ele>
        <time>2012-07-07T15:18:09Z</time>
      </trkpt>
      <trkpt lat="45.03967" lon="6.11211">
        <ele>1062</ele>
        <time>2012-07-07T15:18:14Z</time>
      </trkpt>
      <trkpt lat="45.03967" lon="6.11211">
        <ele>1062</ele>
        <time>2012-07-07T15:18:19Z</time>
      </trkpt>
      <trkpt lat="45.03967" lon="6.11211">
        <ele>1062</ele>
        <time>2012-07-07T15:18:24Z</time>
      </trkpt>
      <trkpt lat="45.03967" lon="6.11211">
        <ele>1062</ele>
        <time>2012-07-07T15:18:29Z</time>
      </trkpt>
      <trkpt lat="45.03932" lon="6.11013">
        <ele>1021</ele>
        <time>2012-07-07T15:18:34Z</time>
      </trkpt>
      <trkpt lat="45.03924" lon="6.10993">
        <ele>1019</ele>
        <time>2012-07-07T15:18:39Z</time>
      </trkpt>
      <trkpt lat="45.03909" lon="6.10977">
        <ele>1032</ele>
        <time>2012-07-07T15:18:44Z</time>
      </trkpt>
      <trkpt lat="45.03893" lon="6.10959">
        <ele>1034</ele>
        <time>2012-07-07T15:18:49Z</time>
      </trkpt>
      <trkpt lat="45.03886" lon="6.10933">
        <ele>1030</ele>
        <time>2012-07-07T15:18:54Z</time>
      </trkpt>
      <trkpt lat="45.03883" lon="6.10916">
        <ele>1012</ele>
        <time>2012-07-07T15:18:59Z</time>
      </trkpt>
      <trkpt lat="45.03881" lon="6.10892">
        <ele>1011</ele>
        <time>2012-07-07T15:19:04Z</time>
      </trkpt>
      <trkpt lat="45.03881" lon="6.10877">
        <ele>1009</ele>
        <time>2012-07-07T15:19:09Z</time>
      </trkpt>
      <trkpt lat="45.03963" lon="6.10829">
        <ele>936</ele>
        <time>2012-07-07T15:19:14Z</time>
      </trkpt>
      <trkpt lat="45.03982" lon="6.10805">
        <ele>928</ele>
        <time>2012-07-07T15:19:19Z</time>
      </trkpt>
      <trkpt lat="45.0398" lon="6.10779">
        <ele>913</ele>
        <time>2012-07-07T15:19:24Z</time>
      </trkpt>
      <trkpt lat="45.03979" lon="6.10762">
        <ele>903</ele>
        <time>2012-07-07T15:19:29Z</time>
      </trkpt>
      <trkpt lat="45.03978" lon="6.1074">
        <ele>881</ele>
        <time>2012-07-07T15:19:34Z</time>
      </trkpt>
      <trkpt lat="45.03978" lon="6.10718">
        <ele>882</ele>
        <time>2012-07-07T15:19:39Z</time>
      </trkpt>
      <trkpt lat="45.03978" lon="6.10693">
        <ele>880</ele>
        <time>2012-07-07T15:19:44Z</time>
      </trkpt>
      <trkpt lat="45.03982" lon="6.10665">
        <ele>872</ele>
        <time>2012-07-07T15:19:49Z</time>
      </trkpt>
      <trkpt lat="45.03979" lon="6.10647">
        <ele>876</ele>
        <time>2012-07-07T15:19:54Z</time>
      </trkpt>
      <trkpt lat="45.03973" lon="6.10619">
        <ele>880</ele>
        <time>2012-07-07T15:19:59Z</time>
      </trkpt>
      <trkpt lat="45.03966" lon="6.106">
        <ele>881</ele>
        <time>2012-07-07T15:20:04Z</time>
      </trkpt>
      <trkpt lat="45.0396" lon="6.1058">
        <ele>893</ele>
        <time>2012-07-07T15:20:09Z</time>
      </trkpt>
      <trkpt lat="45.03958" lon="6.10559">
        <ele>895</ele>
        <time>2012-07-07T15:20:14Z</time>
      </trkpt>
      <trkpt lat="45.03958" lon="6.10533">
        <ele>899</ele>
        <time>2012-07-07T15:20:19Z</time>
      </trkpt>
      <trkpt lat="45.03961" lon="6.10516">
        <ele>901</ele>
        <time>2012-07-07T15:20:24Z</time>
      </trkpt>
      <trkpt lat="45.03956" lon="6.10495">
        <ele>913</ele>
        <time>2012-07-07T15:20:29Z</time>
      </trkpt>
      <trkpt lat="45.03948" lon="6.10475">
        <ele>913</ele>
        <time>2012-07-07T15:20:34Z</time>
      </trkpt>
      <trkpt lat="45.03939" lon="6.10454">
        <ele>915</ele>
        <time>2012-07-07T15:20:39Z</time>
      </trkpt>
      <trkpt lat="45.03921" lon="6.10431">
        <ele>920</ele>
        <time>2012-07-07T15:20:44Z</time>
      </trkpt>
      <trkpt lat="45.03909" lon="6.10415">
        <ele>937</ele>
        <time>2012-07-07T15:20:49Z</time>
      </trkpt>
      <trkpt lat="45.03885" lon="6.10394">
        <ele>960</ele>
        <time>2012-07-07T15:20:54Z</time>
      </trkpt>
      <trkpt lat="45.03875" lon="6.10379">
        <ele>966</ele>
        <time>2012-07-07T15:20:59Z</time>
      </trkpt>
      <trkpt lat="45.0386" lon="6.1036">
        <ele>972</ele>
        <time>2012-07-07T15:21:04Z</time>
      </trkpt>
      <trkpt lat="45.03842" lon="6.10345">
        <ele>981</ele>
        <time>2012-07-07T15:21:09Z</time>
      </trkpt>
      <trkpt lat="45.0384" lon="6.1033">
        <ele>991</ele>
        <time>2012-07-07T15:21:14Z</time>
      </trkpt>
      <trkpt lat="45.03844" lon="6.10313">
        <ele>990</ele>
        <time>2012-07-07T15:21:19Z</time>
      </trkpt>
      <trkpt lat="45.03852" lon="6.10295">
        <ele>991</ele>
        <time>2012-07-07T15:21:24Z</time>
      </trkpt>
      <trkpt lat="45.03866" lon="6.10279">
        <ele>990</ele>
        <time>2012-07-07T15:21:29Z</time>
      </trkpt>
      <trkpt lat="45.03877" lon="6.10267">
        <ele>989</ele>
        <time>2012-07-07T15:21:34Z</time>
      </trkpt>
      <trkpt lat="45.03888" lon="6.10241">
        <ele>997</ele>
        <time>2012-07-07T15:21:39Z</time>
      </trkpt>
      <trkpt lat="45.03889" lon="6.10221">
        <ele>999</ele>
        <time>2012-07-07T15:21:44Z</time>
      </trkpt>
      <trkpt lat="45.03886" lon="6.1019">
        <ele>1002</ele>
        <time>2012-07-07T15:21:49Z</time>
      </trkpt>
      <trkpt lat="45.03884" lon="6.10167">
        <ele>1002</ele>
        <time>2012-07-07T15:21:54Z</time>
      </trkpt>
      <trkpt lat="45.03898" lon="6.10139">
        <ele>1016</ele>
        <time>2012-07-07T15:21:59Z</time>
      </trkpt>
      <trkpt lat="45.03912" lon="6.10125">
        <ele>1018</ele>
        <time>2012-07-07T15:22:04Z</time>
      </trkpt>
      <trkpt lat="45.03931" lon="6.10105">
        <ele>996</ele>
        <time>2012-07-07T15:22:09Z</time>
      </trkpt>
      <trkpt lat="45.03949" lon="6.1008">
        <ele>1013</ele>
        <time>2012-07-07T15:22:14Z</time>
      </trkpt>
      <trkpt lat="45.03968" lon="6.10055">
        <ele>1011</ele>
        <time>2012-07-07T15:22:19Z</time>
      </trkpt>
      <trkpt lat="45.03994" lon="6.10029">
        <ele>1012</ele>
        <time>2012-07-07T15:22:24Z</time>
      </trkpt>
      <trkpt lat="45.04015" lon="6.10023">
        <ele>983</ele>
        <time>2012-07-07T15:22:29Z</time>
      </trkpt>
      <trkpt lat="45.04042" lon="6.10009">
        <ele>973</ele>
        <time>2012-07-07T15:22:34Z</time>
      </trkpt>
      <trkpt lat="45.04058" lon="6.09993">
        <ele>989</ele>
        <time>2012-07-07T15:22:39Z</time>
      </trkpt>
      <trkpt lat="45.04079" lon="6.0997">
        <ele>990</ele>
        <time>2012-07-07T15:22:44Z</time>
      </trkpt>
      <trkpt lat="45.04097" lon="6.09941">
        <ele>959</ele>
        <time>2012-07-07T15:22:49Z</time>
      </trkpt>
      <trkpt lat="45.04097" lon="6.09895">
        <ele>975</ele>
        <time>2012-07-07T15:22:54Z</time>
      </trkpt>
      <trkpt lat="45.04081" lon="6.0987">
        <ele>1000</ele>
        <time>2012-07-07T15:22:59Z</time>
      </trkpt>
      <trkpt lat="45.04055" lon="6.09846">
        <ele>1001</ele>
        <time>2012-07-07T15:23:04Z</time>
      </trkpt>
      <trkpt lat="45.04029" lon="6.09815">
        <ele>996</ele>
        <time>2012-07-07T15:23:09Z</time>
      </trkpt>
      <trkpt lat="45.0402" lon="6.09768">
        <ele>992</ele>
        <time>2012-07-07T15:23:14Z</time>
      </trkpt>
      <trkpt lat="45.04032" lon="6.09711">
        <ele>985</ele>
        <time>2012-07-07T15:23:19Z</time>
      </trkpt>
      <trkpt lat="45.04038" lon="6.09671">
        <ele>984</ele>
        <time>2012-07-07T15:23:24Z</time>
      </trkpt>
      <trkpt lat="45.0403" lon="6.09608">
        <ele>982</ele>
        <time>2012-07-07T15:23:29Z</time>
      </trkpt>
      <trkpt lat="45.04009" lon="6.09566">
        <ele>979</ele>
        <time>2012-07-07T15:23:34Z</time>
      </trkpt>
      <trkpt lat="45.03974" lon="6.09495">
        <ele>979</ele>
        <time>2012-07-07T15:23:39Z</time>
      </trkpt>
      <trkpt lat="45.03942" lon="6.09441">
        <ele>979</ele>
        <time>2012-07-07T15:23:44Z</time>
      </trkpt>
      <trkpt lat="45.03891" lon="6.09374">
        <ele>976</ele>
        <time>2012-07-07T15:23:49Z</time>
      </trkpt>
      <trkpt lat="45.03869" lon="6.09312">
        <ele>971</ele>
        <time>2012-07-07T15:23:54Z</time>
      </trkpt>
      <trkpt lat="45.03838" lon="6.09238">
        <ele>966</ele>
        <time>2012-07-07T15:23:59Z</time>
      </trkpt>
      <trkpt lat="45.03806" lon="6.09175">
        <ele>963</ele>
        <time>2012-07-07T15:24:04Z</time>
      </trkpt>
      <trkpt lat="45.0376" lon="6.09146">
        <ele>949</ele>
        <time>2012-07-07T15:24:09Z</time>
      </trkpt>
      <trkpt lat="45.03697" lon="6.09196">
        <ele>952</ele>
        <time>2012-07-07T15:24:14Z</time>
      </trkpt>
      <trkpt lat="45.03666" lon="6.09252">
        <ele>949</ele>
        <time>2012-07-07T15:24:19Z</time>
      </trkpt>
      <trkpt lat="45.03624" lon="6.09324">
        <ele>953</ele>
        <time>2012-07-07T15:24:24Z</time>
      </trkpt>
      <trkpt lat="45.03576" lon="6.09305">
        <ele>958</ele>
        <time>2012-07-07T15:24:29Z</time>
      </trkpt>
      <trkpt lat="45.03532" lon="6.09238">
        <ele>939</ele>
        <time>2012-07-07T15:24:34Z</time>
      </trkpt>
      <trkpt lat="45.03468" lon="6.09201">
        <ele>938</ele>
        <time>2012-07-07T15:24:39Z</time>
      </trkpt>
      <trkpt lat="45.034" lon="6.09173">
        <ele>940</ele>
        <time>2012-07-07T15:24:44Z</time>
      </trkpt>
      <trkpt lat="45.03379" lon="6.09101">
        <ele>928</ele>
        <time>2012-07-07T15:24:49Z</time>
      </trkpt>
      <trkpt lat="45.03345" lon="6.0904">
        <ele>912</ele>
        <time>2012-07-07T15:24:54Z</time>
      </trkpt>
      <trkpt lat="45.03279" lon="6.09032">
        <ele>917</ele>
        <time>2012-07-07T15:24:59Z</time>
      </trkpt>
      <trkpt lat="45.03238" lon="6.08957">
        <ele>917</ele>
        <time>2012-07-07T15:25:04Z</time>
      </trkpt>
      <trkpt lat="45.03231" lon="6.08835">
        <ele>912</ele>
        <time>2012-07-07T15:25:09Z</time>
      </trkpt>
      <trkpt lat="45.0324" lon="6.08758">
        <ele>893</ele>
        <time>2012-07-07T15:25:14Z</time>
      </trkpt>
      <trkpt lat="45.03198" lon="6.08693">
        <ele>882</ele>
        <time>2012-07-07T15:25:19Z</time>
      </trkpt>
      <trkpt lat="45.03166" lon="6.08645">
        <ele>885</ele>
        <time>2012-07-07T15:25:24Z</time>
      </trkpt>
      <trkpt lat="45.0313" lon="6.08572">
        <ele>842</ele>
        <time>2012-07-07T15:25:29Z</time>
      </trkpt>
      <trkpt lat="45.03075" lon="6.08519">
        <ele>873</ele>
        <time>2012-07-07T15:25:34Z</time>
      </trkpt>
      <trkpt lat="45.03015" lon="6.08468">
        <ele>853</ele>
        <time>2012-07-07T15:25:39Z</time>
      </trkpt>
      <trkpt lat="45.02952" lon="6.08407">
        <ele>849</ele>
        <time>2012-07-07T15:25:44Z</time>
      </trkpt>
      <trkpt lat="45.029" lon="6.08323">
        <ele>847</ele>
        <time>2012-07-07T15:25:49Z</time>
      </trkpt>
      <trkpt lat="45.02846" lon="6.08224">
        <ele>823</ele>
        <time>2012-07-07T15:25:54Z</time>
      </trkpt>
      <trkpt lat="45.02819" lon="6.08177">
        <ele>846</ele>
        <time>2012-07-07T15:25:59Z</time>
      </trkpt>
      <trkpt lat="45.02794" lon="6.08098">
        <ele>829</ele>
        <time>2012-07-07T15:26:04Z</time>
      </trkpt>
      <trkpt lat="45.0277" lon="6.08031">
        <ele>794</ele>
        <time>2012-07-07T15:26:09Z</time>
      </trkpt>
      <trkpt lat="45.02739" lon="6.07919">
        <ele>832</ele>
        <time>2012-07-07T15:26:14Z</time>
      </trkpt>
      <trkpt lat="45.02723" lon="6.07848">
        <ele>875</ele>
        <time>2012-07-07T15:26:19Z</time>
      </trkpt>
      <trkpt lat="45.027" lon="6.07741">
        <ele>969</ele>
        <time>2012-07-07T15:26:24Z</time>
      </trkpt>
      <trkpt lat="45.02684" lon="6.0767">
        <ele>1006</ele>
        <time>2012-07-07T15:26:29Z</time>
      </trkpt>
      <trkpt lat="45.02684" lon="6.0767">
        <ele>1006</ele>
        <time>2012-07-07T15:26:34Z</time>
      </trkpt>
      <trkpt lat="45.02684" lon="6.0767">
        <ele>1006</ele>
        <time>2012-07-07T15:26:39Z</time>
      </trkpt>
      <trkpt lat="45.02959" lon="6.07686">
        <ele>812</ele>
        <time>2012-07-07T15:26:44Z</time>
      </trkpt>
      <trkpt lat="45.03043" lon="6.07721">
        <ele>788</ele>
        <time>2012-07-07T15:26:49Z</time>
      </trkpt>
      <trkpt lat="45.03088" lon="6.07683">
        <ele>785</ele>
        <time>2012-07-07T15:26:54Z</time>
      </trkpt>
      <trkpt lat="45.03093" lon="6.07566">
        <ele>788</ele>
        <time>2012-07-07T15:26:59Z</time>
      </trkpt>
      <trkpt lat="45.03081" lon="6.07486">
        <ele>789</ele>
        <time>2012-07-07T15:27:04Z</time>
      </trkpt>
      <trkpt lat="45.03047" lon="6.07403">
        <ele>778</ele>
        <time>2012-07-07T15:27:09Z</time>
      </trkpt>
      <trkpt lat="45.02999" lon="6.07328">
        <ele>765</ele>
        <time>2012-07-07T15:27:14Z</time>
      </trkpt>
      <trkpt lat="45.02928" lon="6.07252">
        <ele>763</ele>
        <time>2012-07-07T15:27:19Z</time>
      </trkpt>
      <trkpt lat="45.02879" lon="6.0721">
        <ele>756</ele>
        <time>2012-07-07T15:27:24Z</time>
      </trkpt>
      <trkpt lat="45.02827" lon="6.07162">
        <ele>746</ele>
        <time>2012-07-07T15:27:29Z</time>
      </trkpt>
      <trkpt lat="45.02848" lon="6.07123">
        <ele>743</ele>
        <time>2012-07-07T15:27:34Z</time>
      </trkpt>
      <trkpt lat="45.02896" lon="6.07092">
        <ele>743</ele>
        <time>2012-07-07T15:27:39Z</time>
      </trkpt>
      <trkpt lat="45.02945" lon="6.07065">
        <ele>743</ele>
        <time>2012-07-07T15:27:44Z</time>
      </trkpt>
      <trkpt lat="45.02972" lon="6.07045">
        <ele>743</ele>
        <time>2012-07-07T15:27:49Z</time>
      </trkpt>
      <trkpt lat="45.03007" lon="6.07015">
        <ele>744</ele>
        <time>2012-07-07T15:27:54Z</time>
      </trkpt>
      <trkpt lat="45.03032" lon="6.06993">
        <ele>742</ele>
        <time>2012-07-07T15:27:59Z</time>
      </trkpt>
      <trkpt lat="45.03076" lon="6.06953">
        <ele>740</ele>
        <time>2012-07-07T15:28:04Z</time>
      </trkpt>
      <trkpt lat="45.03111" lon="6.06924">
        <ele>737</ele>
        <time>2012-07-07T15:28:09Z</time>
      </trkpt>
      <trkpt lat="45.03171" lon="6.06879">
        <ele>734</ele>
        <time>2012-07-07T15:28:14Z</time>
      </trkpt>
      <trkpt lat="45.03212" lon="6.06851">
        <ele>735</ele>
        <time>2012-07-07T15:28:19Z</time>
      </trkpt>
      <trkpt lat="45.03251" lon="6.06813">
        <ele>738</ele>
        <time>2012-07-07T15:28:24Z</time>
      </trkpt>
      <trkpt lat="45.03297" lon="6.06782">
        <ele>737</ele>
        <time>2012-07-07T15:28:29Z</time>
      </trkpt>
      <trkpt lat="45.03339" lon="6.06749">
        <ele>737</ele>
        <time>2012-07-07T15:28:34Z</time>
      </trkpt>
      <trkpt lat="45.03378" lon="6.0671">
        <ele>752</ele>
        <time>2012-07-07T15:28:39Z</time>
      </trkpt>
      <trkpt lat="45.03398" lon="6.06679">
        <ele>746</ele>
        <time>2012-07-07T15:28:44Z</time>
      </trkpt>
      <trkpt lat="45.03438" lon="6.06641">
        <ele>737</ele>
        <time>2012-07-07T15:28:49Z</time>
      </trkpt>
      <trkpt lat="45.03463" lon="6.06617">
        <ele>737</ele>
        <time>2012-07-07T15:28:54Z</time>
      </trkpt>
      <trkpt lat="45.03496" lon="6.06585">
        <ele>735</ele>
        <time>2012-07-07T15:28:59Z</time>
      </trkpt>
      <trkpt lat="45.03531" lon="6.06555">
        <ele>732</ele>
        <time>2012-07-07T15:29:04Z</time>
      </trkpt>
      <trkpt lat="45.03569" lon="6.06527">
        <ele>731</ele>
        <time>2012-07-07T15:29:09Z</time>
      </trkpt>
      <trkpt lat="45.0361" lon="6.06497">
        <ele>728</ele>
        <time>2012-07-07T15:29:14Z</time>
      </trkpt>
      <trkpt lat="45.03645" lon="6.06466">
        <ele>728</ele>
        <time>2012-07-07T15:29:19Z</time>
      </trkpt>
      <trkpt lat="45.03678" lon="6.06437">
        <ele>727</ele>
        <time>2012-07-07T15:29:24Z</time>
      </trkpt>
      <trkpt lat="45.03709" lon="6.06408">
        <ele>726</ele>
        <time>2012-07-07T15:29:29Z</time>
      </trkpt>
      <trkpt lat="45.03743" lon="6.06377">
        <ele>727</ele>
        <time>2012-07-07T15:29:34Z</time>
      </trkpt>
      <trkpt lat="45.03767" lon="6.06356">
        <ele>728</ele>
        <time>2012-07-07T15:29:39Z</time>
      </trkpt>
      <trkpt lat="45.03801" lon="6.06326">
        <ele>729</ele>
        <time>2012-07-07T15:29:44Z</time>
      </trkpt>
      <trkpt lat="45.03825" lon="6.06305">
        <ele>728</ele>
        <time>2012-07-07T15:29:49Z</time>
      </trkpt>
      <trkpt lat="45.03854" lon="6.06279">
        <ele>729</ele>
        <time>2012-07-07T15:29:54Z</time>
      </trkpt>
      <trkpt lat="45.03882" lon="6.06253">
        <ele>728</ele>
        <time>2012-07-07T15:29:59Z</time>
      </trkpt>
      <trkpt lat="45.03913" lon="6.06227">
        <ele>729</ele>
        <time>2012-07-07T15:30:04Z</time>
      </trkpt>
      <trkpt lat="45.03943" lon="6.06202">
        <ele>731</ele>
        <time>2012-07-07T15:30:09Z</time>
      </trkpt>
      <trkpt lat="45.03971" lon="6.06177">
        <ele>732</ele>
        <time>2012-07-07T15:30:14Z</time>
      </trkpt>
      <trkpt lat="45.04004" lon="6.06146">
        <ele>733</ele>
        <time>2012-07-07T15:30:19Z</time>
      </trkpt>
      <trkpt lat="45.04029" lon="6.06124">
        <ele>733</ele>
        <time>2012-07-07T15:30:24Z</time>
      </trkpt>
      <trkpt lat="45.04064" lon="6.06091">
        <ele>733</ele>
        <time>2012-07-07T15:30:29Z</time>
      </trkpt>
      <trkpt lat="45.04089" lon="6.0607">
        <ele>732</ele>
        <time>2012-07-07T15:30:34Z</time>
      </trkpt>
      <trkpt lat="45.04128" lon="6.06038">
        <ele>732</ele>
        <time>2012-07-07T15:30:39Z</time>
      </trkpt>
      <trkpt lat="45.04151" lon="6.06015">
        <ele>732</ele>
        <time>2012-07-07T15:30:44Z</time>
      </trkpt>
      <trkpt lat="45.0419" lon="6.05982">
        <ele>729</ele>
        <time>2012-07-07T15:30:49Z</time>
      </trkpt>
      <trkpt lat="45.04217" lon="6.05958">
        <ele>728</ele>
        <time>2012-07-07T15:30:54Z</time>
      </trkpt>
      <trkpt lat="45.04249" lon="6.0593">
        <ele>728</ele>
        <time>2012-07-07T15:30:59Z</time>
      </trkpt>
      <trkpt lat="45.04283" lon="6.05901">
        <ele>729</ele>
        <time>2012-07-07T15:31:04Z</time>
      </trkpt>
      <trkpt lat="45.04314" lon="6.05872">
        <ele>729</ele>
        <time>2012-07-07T15:31:09Z</time>
      </trkpt>
      <trkpt lat="45.04352" lon="6.05838">
        <ele>730</ele>
        <time>2012-07-07T15:31:14Z</time>
      </trkpt>
      <trkpt lat="45.04378" lon="6.05817">
        <ele>730</ele>
        <time>2012-07-07T15:31:19Z</time>
      </trkpt>
      <trkpt lat="45.04415" lon="6.05784">
        <ele>729</ele>
        <time>2012-07-07T15:31:24Z</time>
      </trkpt>
      <trkpt lat="45.0444" lon="6.05763">
        <ele>729</ele>
        <time>2012-07-07T15:31:29Z</time>
      </trkpt>
      <trkpt lat="45.0447" lon="6.05736">
        <ele>728</ele>
        <time>2012-07-07T15:31:34Z</time>
      </trkpt>
      <trkpt lat="45.045" lon="6.05709">
        <ele>728</ele>
        <time>2012-07-07T15:31:39Z</time>
      </trkpt>
      <trkpt lat="45.04534" lon="6.05678">
        <ele>727</ele>
        <time>2012-07-07T15:31:44Z</time>
      </trkpt>
      <trkpt lat="45.04557" lon="6.05657">
        <ele>726</ele>
        <time>2012-07-07T15:31:49Z</time>
      </trkpt>
      <trkpt lat="45.04583" lon="6.05629">
        <ele>726</ele>
        <time>2012-07-07T15:31:54Z</time>
      </trkpt>
      <trkpt lat="45.04606" lon="6.05598">
        <ele>726</ele>
        <time>2012-07-07T15:31:59Z</time>
      </trkpt>
      <trkpt lat="45.04629" lon="6.05564">
        <ele>725</ele>
        <time>2012-07-07T15:32:04Z</time>
      </trkpt>
      <trkpt lat="45.04655" lon="6.05517">
        <ele>724</ele>
        <time>2012-07-07T15:32:09Z</time>
      </trkpt>
      <trkpt lat="45.04672" lon="6.05486">
        <ele>724</ele>
        <time>2012-07-07T15:32:14Z</time>
      </trkpt>
      <trkpt lat="45.04698" lon="6.0544">
        <ele>725</ele>
        <time>2012-07-07T15:32:19Z</time>
      </trkpt>
      <trkpt lat="45.04717" lon="6.0541">
        <ele>725</ele>
        <time>2012-07-07T15:32:24Z</time>
      </trkpt>
      <trkpt lat="45.04744" lon="6.05365">
        <ele>725</ele>
        <time>2012-07-07T15:32:29Z</time>
      </trkpt>
      <trkpt lat="45.04761" lon="6.05335">
        <ele>726</ele>
        <time>2012-07-07T15:32:34Z</time>
      </trkpt>
      <trkpt lat="45.04787" lon="6.05291">
        <ele>725</ele>
        <time>2012-07-07T15:32:39Z</time>
      </trkpt>
      <trkpt lat="45.04805" lon="6.05262">
        <ele>725</ele>
        <time>2012-07-07T15:32:44Z</time>
      </trkpt>
      <trkpt lat="45.04826" lon="6.05225">
        <ele>724</ele>
        <time>2012-07-07T15:32:49Z</time>
      </trkpt>
      <trkpt lat="45.04848" lon="6.05188">
        <ele>723</ele>
        <time>2012-07-07T15:32:54Z</time>
      </trkpt>
      <trkpt lat="45.04868" lon="6.05149">
        <ele>722</ele>
        <time>2012-07-07T15:32:59Z</time>
      </trkpt>
      <trkpt lat="45.04894" lon="6.05104">
        <ele>722</ele>
        <time>2012-07-07T15:33:04Z</time>
      </trkpt>
      <trkpt lat="45.04911" lon="6.05074">
        <ele>722</ele>
        <time>2012-07-07T15:33:09Z</time>
      </trkpt>
      <trkpt lat="45.04937" lon="6.0503">
        <ele>724</ele>
        <time>2012-07-07T15:33:14Z</time>
      </trkpt>
      <trkpt lat="45.04954" lon="6.05001">
        <ele>724</ele>
        <time>2012-07-07T15:33:19Z</time>
      </trkpt>
      <trkpt lat="45.04976" lon="6.04964">
        <ele>725</ele>
        <time>2012-07-07T15:33:24Z</time>
      </trkpt>
      <trkpt lat="45.04998" lon="6.04927">
        <ele>725</ele>
        <time>2012-07-07T15:33:29Z</time>
      </trkpt>
      <trkpt lat="45.0502" lon="6.0489">
        <ele>725</ele>
        <time>2012-07-07T15:33:34Z</time>
      </trkpt>
      <trkpt lat="45.05042" lon="6.04853">
        <ele>725</ele>
        <time>2012-07-07T15:33:39Z</time>
      </trkpt>
      <trkpt lat="45.05064" lon="6.04816">
        <ele>725</ele>
        <time>2012-07-07T15:33:44Z</time>
      </trkpt>
      <trkpt lat="45.05086" lon="6.0478">
        <ele>725</ele>
        <time>2012-07-07T15:33:49Z</time>
      </trkpt>
      <trkpt lat="45.05106" lon="6.04744">
        <ele>725</ele>
        <time>2012-07-07T15:33:54Z</time>
      </trkpt>
      <trkpt lat="45.05134" lon="6.04702">
        <ele>726</ele>
        <time>2012-07-07T15:33:59Z</time>
      </trkpt>
      <trkpt lat="45.05153" lon="6.04676">
        <ele>726</ele>
        <time>2012-07-07T15:34:04Z</time>
      </trkpt>
      <trkpt lat="45.05183" lon="6.04638">
        <ele>727</ele>
        <time>2012-07-07T15:34:09Z</time>
      </trkpt>
      <trkpt lat="45.05204" lon="6.04613">
        <ele>727</ele>
        <time>2012-07-07T15:34:14Z</time>
      </trkpt>
      <trkpt lat="45.05234" lon="6.04574">
        <ele>726</ele>
        <time>2012-07-07T15:34:19Z</time>
      </trkpt>
      <trkpt lat="45.05254" lon="6.04549">
        <ele>725</ele>
        <time>2012-07-07T15:34:24Z</time>
      </trkpt>
      <trkpt lat="45.05279" lon="6.04517">
        <ele>724</ele>
        <time>2012-07-07T15:34:29Z</time>
      </trkpt>
      <trkpt lat="45.05304" lon="6.04486">
        <ele>723</ele>
        <time>2012-07-07T15:34:34Z</time>
      </trkpt>
      <trkpt lat="45.0533" lon="6.04454">
        <ele>722</ele>
        <time>2012-07-07T15:34:39Z</time>
      </trkpt>
      <trkpt lat="45.05355" lon="6.04422">
        <ele>722</ele>
        <time>2012-07-07T15:34:44Z</time>
      </trkpt>
      <trkpt lat="45.0538" lon="6.0439">
        <ele>722</ele>
        <time>2012-07-07T15:34:49Z</time>
      </trkpt>
      <trkpt lat="45.0541" lon="6.04351">
        <ele>723</ele>
        <time>2012-07-07T15:34:54Z</time>
      </trkpt>
      <trkpt lat="45.05431" lon="6.04325">
        <ele>724</ele>
        <time>2012-07-07T15:34:59Z</time>
      </trkpt>
      <trkpt lat="45.05462" lon="6.04286">
        <ele>724</ele>
        <time>2012-07-07T15:35:04Z</time>
      </trkpt>
      <trkpt lat="45.05484" lon="6.04259">
        <ele>724</ele>
        <time>2012-07-07T15:35:09Z</time>
      </trkpt>
      <trkpt lat="45.05516" lon="6.04218">
        <ele>724</ele>
        <time>2012-07-07T15:35:14Z</time>
      </trkpt>
      <trkpt lat="45.05538" lon="6.0419">
        <ele>724</ele>
        <time>2012-07-07T15:35:19Z</time>
      </trkpt>
      <trkpt lat="45.05565" lon="6.04156">
        <ele>724</ele>
        <time>2012-07-07T15:35:24Z</time>
      </trkpt>
      <trkpt lat="45.05591" lon="6.04122">
        <ele>723</ele>
        <time>2012-07-07T15:35:29Z</time>
      </trkpt>
      <trkpt lat="45.05619" lon="6.04091">
        <ele>723</ele>
        <time>2012-07-07T15:35:34Z</time>
      </trkpt>
      <trkpt lat="45.05654" lon="6.04058">
        <ele>724</ele>
        <time>2012-07-07T15:35:39Z</time>
      </trkpt>
      <trkpt lat="45.05677" lon="6.0404">
        <ele>724</ele>
        <time>2012-07-07T15:35:44Z</time>
      </trkpt>
      <trkpt lat="45.05712" lon="6.04016">
        <ele>724</ele>
        <time>2012-07-07T15:35:49Z</time>
      </trkpt>
      <trkpt lat="45.05735" lon="6.04003">
        <ele>724</ele>
        <time>2012-07-07T15:35:54Z</time>
      </trkpt>
      <trkpt lat="45.05765" lon="6.03986">
        <ele>723</ele>
        <time>2012-07-07T15:35:59Z</time>
      </trkpt>
      <trkpt lat="45.05796" lon="6.03969">
        <ele>722</ele>
        <time>2012-07-07T15:36:04Z</time>
      </trkpt>
      <trkpt lat="45.05827" lon="6.03951">
        <ele>722</ele>
        <time>2012-07-07T15:36:09Z</time>
      </trkpt>
      <trkpt lat="45.05857" lon="6.03934">
        <ele>721</ele>
        <time>2012-07-07T15:36:14Z</time>
      </trkpt>
      <trkpt lat="45.05883" lon="6.0391">
        <ele>721</ele>
        <time>2012-07-07T15:36:19Z</time>
      </trkpt>
      <trkpt lat="45.05903" lon="6.03876">
        <ele>721</ele>
        <time>2012-07-07T15:36:24Z</time>
      </trkpt>
      <trkpt lat="45.05917" lon="6.03838">
        <ele>721</ele>
        <time>2012-07-07T15:36:29Z</time>
      </trkpt>
      <trkpt lat="45.05937" lon="6.03801">
        <ele>722</ele>
        <time>2012-07-07T15:36:34Z</time>
      </trkpt>
      <trkpt lat="45.05957" lon="6.03785">
        <ele>722</ele>
        <time>2012-07-07T15:36:39Z</time>
      </trkpt>
      <trkpt lat="45.0597" lon="6.03795">
        <ele>722</ele>
        <time>2012-07-07T15:36:44Z</time>
      </trkpt>
      <trkpt lat="45.05973" lon="6.03807">
        <ele>721</ele>
        <time>2012-07-07T15:36:49Z</time>
      </trkpt>
      <trkpt lat="45.0597" lon="6.03813">
        <ele>721</ele>
        <time>2012-07-07T15:36:54Z</time>
      </trkpt>
      <trkpt lat="45.0597" lon="6.03813">
        <ele>721</ele>
        <time>2012-07-07T15:36:59Z</time>
      </trkpt>
      <trkpt lat="45.05969" lon="6.03814">
        <ele>721</ele>
        <time>2012-07-07T15:37:04Z</time>
      </trkpt>
      <trkpt lat="45.05969" lon="6.03815">
        <ele>721</ele>
        <time>2012-07-07T15:37:09Z</time>
      </trkpt>
      <trkpt lat="45.05968" lon="6.03816">
        <ele>721</ele>
        <time>2012-07-07T15:37:14Z</time>
      </trkpt>
      <trkpt lat="45.05968" lon="6.03817">
        <ele>721</ele>
        <time>2012-07-07T15:37:19Z</time>
      </trkpt>
      <trkpt lat="45.05968" lon="6.03817">
        <ele>721</ele>
        <time>2012-07-07T15:37:24Z</time>
      </trkpt>
      <trkpt lat="45.05968" lon="6.03817">
        <ele>721</ele>
        <time>2012-07-07T15:37:29Z</time>
      </trkpt>
      <trkpt lat="45.05968" lon="6.03817">
        <ele>721</ele>
        <time>2012-07-07T15:37:34Z</time>
      </trkpt>
      <trkpt lat="45.05968" lon="6.03817">
        <ele>721</ele>
        <time>2012-07-07T15:37:39Z</time>
      </trkpt>
      <trkpt lat="45.05968" lon="6.03817">
        <ele>721</ele>
        <time>2012-07-07T15:37:44Z</time>
      </trkpt>
      <trkpt lat="45.05969" lon="6.03813">
        <ele>721</ele>
        <time>2012-07-07T15:37:49Z</time>
      </trkpt>
      <trkpt lat="45.05972" lon="6.03812">
        <ele>721</ele>
        <time>2012-07-07T15:37:54Z</time>
      </trkpt>
      <trkpt lat="45.05974" lon="6.03815">
        <ele>721</ele>
        <time>2012-07-07T15:37:59Z</time>
      </trkpt>
      <trkpt lat="45.05977" lon="6.03815">
        <ele>721</ele>
        <time>2012-07-07T15:38:04Z</time>
      </trkpt>
      <trkpt lat="45.05977" lon="6.03816">
        <ele>721</ele>
        <time>2012-07-07T15:38:09Z</time>
      </trkpt>
      <trkpt lat="45.05977" lon="6.03817">
        <ele>721</ele>
        <time>2012-07-07T15:38:14Z</time>
      </trkpt>
      <trkpt lat="45.05977" lon="6.03817">
        <ele>721</ele>
        <time>2012-07-07T15:38:19Z</time>
      </trkpt>
      <trkpt lat="45.05977" lon="6.03817">
        <ele>721</ele>
        <time>2012-07-07T15:38:24Z</time>
      </trkpt>
      <trkpt lat="45.05977" lon="6.03817">
        <ele>721</ele>
        <time>2012-07-07T15:38:29Z</time>
      </trkpt>
      <trkpt lat="45.05977" lon="6.03817">
        <ele>721</ele>
        <time>2012-07-07T15:38:34Z</time>
      </trkpt>
      <trkpt lat="45.05977" lon="6.03817">
        <ele>721</ele>
        <time>2012-07-07T15:38:39Z</time>
      </trkpt>
      <trkpt lat="45.05978" lon="6.03815">
        <ele>721</ele>
        <time>2012-07-07T15:38:44Z</time>
      </trkpt>
      <trkpt lat="45.05978" lon="6.03814">
        <ele>721</ele>
        <time>2012-07-07T15:38:49Z</time>
      </trkpt>
      <trkpt lat="45.05978" lon="6.03814">
        <ele>721</ele>
        <time>2012-07-07T15:38:54Z</time>
      </trkpt>
      <trkpt lat="45.05977" lon="6.03814">
        <ele>721</ele>
        <time>2012-07-07T15:38:59Z</time>
      </trkpt>
      <trkpt lat="45.05977" lon="6.03814">
        <ele>721</ele>
        <time>2012-07-07T15:39:04Z</time>
      </trkpt>
      <trkpt lat="45.05977" lon="6.03814">
        <ele>721</ele>
        <time>2012-07-07T15:39:09Z</time>
      </trkpt>
      <trkpt lat="45.05977" lon="6.03814">
        <ele>721</ele>
        <time>2012-07-07T15:39:14Z</time>
      </trkpt>
      <trkpt lat="45.05977" lon="6.03814">
        <ele>721</ele>
        <time>2012-07-07T15:39:19Z</time>
      </trkpt>
      <trkpt lat="45.05977" lon="6.03814">
        <ele>721</ele>
        <time>2012-07-07T15:39:24Z</time>
      </trkpt>
      <trkpt lat="45.05977" lon="6.03814">
        <ele>721</ele>
        <time>2012-07-07T15:39:29Z</time>
      </trkpt>
      <trkpt lat="45.05979" lon="6.03816">
        <ele>721</ele>
        <time>2012-07-07T15:39:34Z</time>
      </trkpt>
      <trkpt lat="45.0598" lon="6.03814">
        <ele>721</ele>
        <time>2012-07-07T15:39:39Z</time>
      </trkpt>
      <trkpt lat="45.05976" lon="6.03811">
        <ele>721</ele>
        <time>2012-07-07T15:39:44Z</time>
      </trkpt>
      <trkpt lat="45.05971" lon="6.03811">
        <ele>721</ele>
        <time>2012-07-07T15:39:49Z</time>
      </trkpt>
      <trkpt lat="45.05968" lon="6.03812">
        <ele>721</ele>
        <time>2012-07-07T15:39:54Z</time>
      </trkpt>
      <trkpt lat="45.05964" lon="6.03815">
        <ele>721</ele>
        <time>2012-07-07T15:39:59Z</time>
      </trkpt>
      <trkpt lat="45.05961" lon="6.03816">
        <ele>721</ele>
        <time>2012-07-07T15:40:04Z</time>
      </trkpt>
      <trkpt lat="45.0596" lon="6.03818">
        <ele>721</ele>
        <time>2012-07-07T15:40:09Z</time>
      </trkpt>
      <trkpt lat="45.05959" lon="6.0382">
        <ele>721</ele>
        <time>2012-07-07T15:40:14Z</time>
      </trkpt>
      <trkpt lat="45.05959" lon="6.03819">
        <ele>721</ele>
        <time>2012-07-07T15:40:19Z</time>
      </trkpt>
      <trkpt lat="45.05958" lon="6.03818">
        <ele>721</ele>
        <time>2012-07-07T15:40:24Z</time>
      </trkpt>
      <trkpt lat="45.05954" lon="6.03818">
        <ele>721</ele>
        <time>2012-07-07T15:40:29Z</time>
      </trkpt>
      <trkpt lat="45.05949" lon="6.03826">
        <ele>721</ele>
        <time>2012-07-07T15:40:34Z</time>
      </trkpt>
      <trkpt lat="45.05949" lon="6.03828">
        <ele>721</ele>
        <time>2012-07-07T15:40:39Z</time>
      </trkpt>
      <trkpt lat="45.05949" lon="6.03827">
        <ele>721</ele>
        <time>2012-07-07T15:40:44Z</time>
      </trkpt>
      <trkpt lat="45.0595" lon="6.03827">
        <ele>721</ele>
        <time>2012-07-07T15:40:49Z</time>
      </trkpt>
      <trkpt lat="45.0595" lon="6.03827">
        <ele>721</ele>
        <time>2012-07-07T15:40:54Z</time>
      </trkpt>
      <trkpt lat="45.0595" lon="6.03827">
        <ele>721</ele>
        <time>2012-07-07T15:40:59Z</time>
      </trkpt>
      <trkpt lat="45.0595" lon="6.03827">
        <ele>721</ele>
        <time>2012-07-07T15:41:04Z</time>
      </trkpt>
      <trkpt lat="45.05951" lon="6.03827">
        <ele>721</ele>
        <time>2012-07-07T15:41:09Z</time>
      </trkpt>
      <trkpt lat="45.05951" lon="6.03827">
        <ele>721</ele>
        <time>2012-07-07T15:41:14Z</time>
      </trkpt>
      <trkpt lat="45.05952" lon="6.03827">
        <ele>721</ele>
        <time>2012-07-07T15:41:19Z</time>
      </trkpt>
      <trkpt lat="45.05952" lon="6.03827">
        <ele>721</ele>
        <time>2012-07-07T15:41:24Z</time>
      </trkpt>
      <trkpt lat="45.05952" lon="6.03827">
        <ele>721</ele>
        <time>2012-07-07T15:41:29Z</time>
      </trkpt>
      <trkpt lat="45.05952" lon="6.03827">
        <ele>721</ele>
        <time>2012-07-07T15:41:34Z</time>
      </trkpt>
      <trkpt lat="45.05952" lon="6.03827">
        <ele>721</ele>
        <time>2012-07-07T15:41:39Z</time>
      </trkpt>
      <trkpt lat="45.05952" lon="6.03827">
        <ele>721</ele>
        <time>2012-07-07T15:41:44Z</time>
      </trkpt>
      <trkpt lat="45.05952" lon="6.03827">
        <ele>721</ele>
        <time>2012-07-07T15:41:49Z</time>
      </trkpt>
      <trkpt lat="45.05951" lon="6.03827">
        <ele>721</ele>
        <time>2012-07-07T15:41:54Z</time>
      </trkpt>
      <trkpt lat="45.05951" lon="6.03827">
        <ele>721</ele>
        <time>2012-07-07T15:41:59Z</time>
      </trkpt>
      <trkpt lat="45.05951" lon="6.03827">
        <ele>721</ele>
        <time>2012-07-07T15:42:04Z</time>
      </trkpt>
      <trkpt lat="45.05951" lon="6.03827">
        <ele>721</ele>
        <time>2012-07-07T15:42:09Z</time>
      </trkpt>
      <trkpt lat="45.05951" lon="6.03826">
        <ele>721</ele>
        <time>2012-07-07T15:42:14Z</time>
      </trkpt>
      <trkpt lat="45.05951" lon="6.03826">
        <ele>721</ele>
        <time>2012-07-07T15:42:19Z</time>
      </trkpt>
      <trkpt lat="45.05951" lon="6.03826">
        <ele>721</ele>
        <time>2012-07-07T15:42:24Z</time>
      </trkpt>
      <trkpt lat="45.05951" lon="6.03824">
        <ele>721</ele>
        <time>2012-07-07T15:42:29Z</time>
      </trkpt>
      <trkpt lat="45.05952" lon="6.03823">
        <ele>721</ele>
        <time>2012-07-07T15:42:34Z</time>
      </trkpt>
      <trkpt lat="45.05952" lon="6.03822">
        <ele>721</ele>
        <time>2012-07-07T15:42:39Z</time>
      </trkpt>
      <trkpt lat="45.05955" lon="6.03815">
        <ele>721</ele>
        <time>2012-07-07T15:42:44Z</time>
      </trkpt>
      <trkpt lat="45.05968" lon="6.03808">
        <ele>721</ele>
        <time>2012-07-07T15:42:49Z</time>
      </trkpt>
      <trkpt lat="45.05975" lon="6.03807">
        <ele>721</ele>
        <time>2012-07-07T15:42:54Z</time>
      </trkpt>
      <trkpt lat="45.05989" lon="6.03815">
        <ele>721</ele>
        <time>2012-07-07T15:42:59Z</time>
      </trkpt>
      <trkpt lat="45.06" lon="6.03804">
        <ele>721</ele>
        <time>2012-07-07T15:43:04Z</time>
      </trkpt>
      <trkpt lat="45.0601" lon="6.03785">
        <ele>721</ele>
        <time>2012-07-07T15:43:09Z</time>
      </trkpt>
      <trkpt lat="45.06019" lon="6.03776">
        <ele>721</ele>
        <time>2012-07-07T15:43:14Z</time>
      </trkpt>
      <trkpt lat="45.06035" lon="6.03771">
        <ele>720</ele>
        <time>2012-07-07T15:43:19Z</time>
      </trkpt>
      <trkpt lat="45.06059" lon="6.03765">
        <ele>720</ele>
        <time>2012-07-07T15:43:24Z</time>
      </trkpt>
      <trkpt lat="45.06086" lon="6.03758">
        <ele>719</ele>
        <time>2012-07-07T15:43:29Z</time>
      </trkpt>
      <trkpt lat="45.06112" lon="6.03752">
        <ele>719</ele>
        <time>2012-07-07T15:43:34Z</time>
      </trkpt>
      <trkpt lat="45.06138" lon="6.03745">
        <ele>718</ele>
        <time>2012-07-07T15:43:39Z</time>
      </trkpt>
      <trkpt lat="45.06169" lon="6.03733">
        <ele>718</ele>
        <time>2012-07-07T15:43:44Z</time>
      </trkpt>
      <trkpt lat="45.0619" lon="6.0372">
        <ele>718</ele>
        <time>2012-07-07T15:43:49Z</time>
      </trkpt>
      <trkpt lat="45.06222" lon="6.03706">
        <ele>719</ele>
        <time>2012-07-07T15:43:54Z</time>
      </trkpt>
      <trkpt lat="45.06243" lon="6.03701">
        <ele>719</ele>
        <time>2012-07-07T15:43:59Z</time>
      </trkpt>
      <trkpt lat="45.06274" lon="6.03707">
        <ele>719</ele>
        <time>2012-07-07T15:44:04Z</time>
      </trkpt>
      <trkpt lat="45.06291" lon="6.03721">
        <ele>719</ele>
        <time>2012-07-07T15:44:09Z</time>
      </trkpt>
      <trkpt lat="45.06309" lon="6.03744">
        <ele>719</ele>
        <time>2012-07-07T15:44:14Z</time>
      </trkpt>
      <trkpt lat="45.06327" lon="6.03767">
        <ele>720</ele>
        <time>2012-07-07T15:44:19Z</time>
      </trkpt>
      <trkpt lat="45.06343" lon="6.0379">
        <ele>721</ele>
        <time>2012-07-07T15:44:24Z</time>
      </trkpt>
      <trkpt lat="45.06362" lon="6.03818">
        <ele>722</ele>
        <time>2012-07-07T15:44:29Z</time>
      </trkpt>
      <trkpt lat="45.06375" lon="6.03837">
        <ele>723</ele>
        <time>2012-07-07T15:44:34Z</time>
      </trkpt>
      <trkpt lat="45.06395" lon="6.03866">
        <ele>723</ele>
        <time>2012-07-07T15:44:39Z</time>
      </trkpt>
      <trkpt lat="45.06407" lon="6.03883">
        <ele>724</ele>
        <time>2012-07-07T15:44:44Z</time>
      </trkpt>
      <trkpt lat="45.06422" lon="6.03904">
        <ele>724</ele>
        <time>2012-07-07T15:44:49Z</time>
      </trkpt>
      <trkpt lat="45.06438" lon="6.03928">
        <ele>725</ele>
        <time>2012-07-07T15:44:54Z</time>
      </trkpt>
      <trkpt lat="45.06454" lon="6.03952">
        <ele>726</ele>
        <time>2012-07-07T15:44:59Z</time>
      </trkpt>
      <trkpt lat="45.06471" lon="6.03975">
        <ele>726</ele>
        <time>2012-07-07T15:45:04Z</time>
      </trkpt>
      <trkpt lat="45.0649" lon="6.03998">
        <ele>728</ele>
        <time>2012-07-07T15:45:09Z</time>
      </trkpt>
      <trkpt lat="45.06511" lon="6.04015">
        <ele>740</ele>
        <time>2012-07-07T15:45:14Z</time>
      </trkpt>
      <trkpt lat="45.06531" lon="6.04015">
        <ele>744</ele>
        <time>2012-07-07T15:45:19Z</time>
      </trkpt>
      <trkpt lat="45.06549" lon="6.04009">
        <ele>746</ele>
        <time>2012-07-07T15:45:24Z</time>
      </trkpt>
      <trkpt lat="45.06559" lon="6.04005">
        <ele>745</ele>
        <time>2012-07-07T15:45:29Z</time>
      </trkpt>
      <trkpt lat="45.06573" lon="6.04">
        <ele>735</ele>
        <time>2012-07-07T15:45:34Z</time>
      </trkpt>
      <trkpt lat="45.06581" lon="6.03997">
        <ele>737</ele>
        <time>2012-07-07T15:45:39Z</time>
      </trkpt>
      <trkpt lat="45.06594" lon="6.03992">
        <ele>739</ele>
        <time>2012-07-07T15:45:44Z</time>
      </trkpt>
      <trkpt lat="45.06602" lon="6.03989">
        <ele>739</ele>
        <time>2012-07-07T15:45:49Z</time>
      </trkpt>
      <trkpt lat="45.06615" lon="6.03982">
        <ele>739</ele>
        <time>2012-07-07T15:45:54Z</time>
      </trkpt>
      <trkpt lat="45.06624" lon="6.0398">
        <ele>740</ele>
        <time>2012-07-07T15:45:59Z</time>
      </trkpt>
      <trkpt lat="45.06634" lon="6.03977">
        <ele>741</ele>
        <time>2012-07-07T15:46:04Z</time>
      </trkpt>
      <trkpt lat="45.06645" lon="6.03972">
        <ele>742</ele>
        <time>2012-07-07T15:46:09Z</time>
      </trkpt>
      <trkpt lat="45.06655" lon="6.03966">
        <ele>742</ele>
        <time>2012-07-07T15:46:14Z</time>
      </trkpt>
      <trkpt lat="45.06668" lon="6.03961">
        <ele>751</ele>
        <time>2012-07-07T15:46:19Z</time>
      </trkpt>
      <trkpt lat="45.06676" lon="6.03959">
        <ele>751</ele>
        <time>2012-07-07T15:46:24Z</time>
      </trkpt>
      <trkpt lat="45.06688" lon="6.03958">
        <ele>752</ele>
        <time>2012-07-07T15:46:29Z</time>
      </trkpt>
      <trkpt lat="45.06697" lon="6.03959">
        <ele>752</ele>
        <time>2012-07-07T15:46:34Z</time>
      </trkpt>
      <trkpt lat="45.0671" lon="6.03958">
        <ele>754</ele>
        <time>2012-07-07T15:46:39Z</time>
      </trkpt>
      <trkpt lat="45.06719" lon="6.03956">
        <ele>754</ele>
        <time>2012-07-07T15:46:44Z</time>
      </trkpt>
      <trkpt lat="45.06731" lon="6.03954">
        <ele>755</ele>
        <time>2012-07-07T15:46:49Z</time>
      </trkpt>
      <trkpt lat="45.06739" lon="6.03951">
        <ele>754</ele>
        <time>2012-07-07T15:46:54Z</time>
      </trkpt>
      <trkpt lat="45.06749" lon="6.03949">
        <ele>754</ele>
        <time>2012-07-07T15:46:59Z</time>
      </trkpt>
      <trkpt lat="45.06759" lon="6.03947">
        <ele>764</ele>
        <time>2012-07-07T15:47:04Z</time>
      </trkpt>
      <trkpt lat="45.06771" lon="6.03945">
        <ele>765</ele>
        <time>2012-07-07T15:47:09Z</time>
      </trkpt>
      <trkpt lat="45.06782" lon="6.03942">
        <ele>766</ele>
        <time>2012-07-07T15:47:14Z</time>
      </trkpt>
      <trkpt lat="45.06791" lon="6.0394">
        <ele>766</ele>
        <time>2012-07-07T15:47:19Z</time>
      </trkpt>
      <trkpt lat="45.06803" lon="6.03932">
        <ele>766</ele>
        <time>2012-07-07T15:47:24Z</time>
      </trkpt>
      <trkpt lat="45.06811" lon="6.03928">
        <ele>765</ele>
        <time>2012-07-07T15:47:29Z</time>
      </trkpt>
      <trkpt lat="45.06821" lon="6.03924">
        <ele>764</ele>
        <time>2012-07-07T15:47:34Z</time>
      </trkpt>
      <trkpt lat="45.06831" lon="6.03925">
        <ele>763</ele>
        <time>2012-07-07T15:47:39Z</time>
      </trkpt>
      <trkpt lat="45.06841" lon="6.03926">
        <ele>770</ele>
        <time>2012-07-07T15:47:44Z</time>
      </trkpt>
      <trkpt lat="45.06851" lon="6.03929">
        <ele>776</ele>
        <time>2012-07-07T15:47:49Z</time>
      </trkpt>
      <trkpt lat="45.06861" lon="6.03931">
        <ele>779</ele>
        <time>2012-07-07T15:47:54Z</time>
      </trkpt>
      <trkpt lat="45.06871" lon="6.03932">
        <ele>782</ele>
        <time>2012-07-07T15:47:59Z</time>
      </trkpt>
      <trkpt lat="45.06881" lon="6.03931">
        <ele>783</ele>
        <time>2012-07-07T15:48:04Z</time>
      </trkpt>
      <trkpt lat="45.06893" lon="6.03928">
        <ele>783</ele>
        <time>2012-07-07T15:48:09Z</time>
      </trkpt>
      <trkpt lat="45.06901" lon="6.03925">
        <ele>783</ele>
        <time>2012-07-07T15:48:14Z</time>
      </trkpt>
      <trkpt lat="45.06913" lon="6.03922">
        <ele>782</ele>
        <time>2012-07-07T15:48:19Z</time>
      </trkpt>
      <trkpt lat="45.06922" lon="6.03918">
        <ele>786</ele>
        <time>2012-07-07T15:48:24Z</time>
      </trkpt>
      <trkpt lat="45.06934" lon="6.03914">
        <ele>779</ele>
        <time>2012-07-07T15:48:29Z</time>
      </trkpt>
      <trkpt lat="45.06941" lon="6.03908">
        <ele>779</ele>
        <time>2012-07-07T15:48:34Z</time>
      </trkpt>
      <trkpt lat="45.06951" lon="6.03902">
        <ele>779</ele>
        <time>2012-07-07T15:48:39Z</time>
      </trkpt>
      <trkpt lat="45.06961" lon="6.03897">
        <ele>780</ele>
        <time>2012-07-07T15:48:44Z</time>
      </trkpt>
      <trkpt lat="45.06971" lon="6.03892">
        <ele>781</ele>
        <time>2012-07-07T15:48:49Z</time>
      </trkpt>
      <trkpt lat="45.06982" lon="6.03886">
        <ele>781</ele>
        <time>2012-07-07T15:48:54Z</time>
      </trkpt>
      <trkpt lat="45.0699" lon="6.03883">
        <ele>781</ele>
        <time>2012-07-07T15:48:59Z</time>
      </trkpt>
      <trkpt lat="45.07001" lon="6.03878">
        <ele>792</ele>
        <time>2012-07-07T15:49:04Z</time>
      </trkpt>
      <trkpt lat="45.07008" lon="6.03875">
        <ele>792</ele>
        <time>2012-07-07T15:49:09Z</time>
      </trkpt>
      <trkpt lat="45.07018" lon="6.03873">
        <ele>792</ele>
        <time>2012-07-07T15:49:14Z</time>
      </trkpt>
      <trkpt lat="45.07027" lon="6.03871">
        <ele>792</ele>
        <time>2012-07-07T15:49:19Z</time>
      </trkpt>
      <trkpt lat="45.07038" lon="6.03873">
        <ele>794</ele>
        <time>2012-07-07T15:49:24Z</time>
      </trkpt>
      <trkpt lat="45.07047" lon="6.03874">
        <ele>795</ele>
        <time>2012-07-07T15:49:29Z</time>
      </trkpt>
      <trkpt lat="45.07057" lon="6.03876">
        <ele>796</ele>
        <time>2012-07-07T15:49:34Z</time>
      </trkpt>
      <trkpt lat="45.07069" lon="6.03879">
        <ele>798</ele>
        <time>2012-07-07T15:49:39Z</time>
      </trkpt>
      <trkpt lat="45.0708" lon="6.03881">
        <ele>800</ele>
        <time>2012-07-07T15:49:44Z</time>
      </trkpt>
      <trkpt lat="45.07093" lon="6.03883">
        <ele>807</ele>
        <time>2012-07-07T15:49:49Z</time>
      </trkpt>
      <trkpt lat="45.071" lon="6.03887">
        <ele>808</ele>
        <time>2012-07-07T15:49:54Z</time>
      </trkpt>
      <trkpt lat="45.07113" lon="6.03891">
        <ele>809</ele>
        <time>2012-07-07T15:49:59Z</time>
      </trkpt>
      <trkpt lat="45.0712" lon="6.03893">
        <ele>809</ele>
        <time>2012-07-07T15:50:04Z</time>
      </trkpt>
      <trkpt lat="45.07129" lon="6.03896">
        <ele>810</ele>
        <time>2012-07-07T15:50:09Z</time>
      </trkpt>
      <trkpt lat="45.07138" lon="6.03899">
        <ele>812</ele>
        <time>2012-07-07T15:50:14Z</time>
      </trkpt>
      <trkpt lat="45.0715" lon="6.03901">
        <ele>814</ele>
        <time>2012-07-07T15:50:19Z</time>
      </trkpt>
      <trkpt lat="45.07158" lon="6.03902">
        <ele>816</ele>
        <time>2012-07-07T15:50:24Z</time>
      </trkpt>
      <trkpt lat="45.07169" lon="6.03903">
        <ele>819</ele>
        <time>2012-07-07T15:50:29Z</time>
      </trkpt>
      <trkpt lat="45.07181" lon="6.03906">
        <ele>817</ele>
        <time>2012-07-07T15:50:34Z</time>
      </trkpt>
      <trkpt lat="45.07187" lon="6.03917">
        <ele>839</ele>
        <time>2012-07-07T15:50:39Z</time>
      </trkpt>
      <trkpt lat="45.07177" lon="6.03931">
        <ele>839</ele>
        <time>2012-07-07T15:50:44Z</time>
      </trkpt>
      <trkpt lat="45.07163" lon="6.03928">
        <ele>836</ele>
        <time>2012-07-07T15:50:49Z</time>
      </trkpt>
      <trkpt lat="45.07151" lon="6.03926">
        <ele>838</ele>
        <time>2012-07-07T15:50:54Z</time>
      </trkpt>
      <trkpt lat="45.0714" lon="6.03923">
        <ele>840</ele>
        <time>2012-07-07T15:50:59Z</time>
      </trkpt>
      <trkpt lat="45.07131" lon="6.03921">
        <ele>841</ele>
        <time>2012-07-07T15:51:04Z</time>
      </trkpt>
      <trkpt lat="45.07121" lon="6.03918">
        <ele>840</ele>
        <time>2012-07-07T15:51:09Z</time>
      </trkpt>
      <trkpt lat="45.0711" lon="6.03916">
        <ele>814</ele>
        <time>2012-07-07T15:51:14Z</time>
      </trkpt>
      <trkpt lat="45.07103" lon="6.03915">
        <ele>815</ele>
        <time>2012-07-07T15:51:19Z</time>
      </trkpt>
      <trkpt lat="45.07093" lon="6.03915">
        <ele>818</ele>
        <time>2012-07-07T15:51:24Z</time>
      </trkpt>
      <trkpt lat="45.07084" lon="6.03916">
        <ele>823</ele>
        <time>2012-07-07T15:51:29Z</time>
      </trkpt>
      <trkpt lat="45.07073" lon="6.0392">
        <ele>828</ele>
        <time>2012-07-07T15:51:34Z</time>
      </trkpt>
      <trkpt lat="45.07063" lon="6.03925">
        <ele>830</ele>
        <time>2012-07-07T15:51:39Z</time>
      </trkpt>
      <trkpt lat="45.07055" lon="6.03929">
        <ele>830</ele>
        <time>2012-07-07T15:51:44Z</time>
      </trkpt>
      <trkpt lat="45.07044" lon="6.03935">
        <ele>830</ele>
        <time>2012-07-07T15:51:49Z</time>
      </trkpt>
      <trkpt lat="45.07037" lon="6.03942">
        <ele>831</ele>
        <time>2012-07-07T15:51:54Z</time>
      </trkpt>
      <trkpt lat="45.07027" lon="6.03951">
        <ele>832</ele>
        <time>2012-07-07T15:51:59Z</time>
      </trkpt>
      <trkpt lat="45.07019" lon="6.03958">
        <ele>833</ele>
        <time>2012-07-07T15:52:04Z</time>
      </trkpt>
      <trkpt lat="45.07012" lon="6.03967">
        <ele>835</ele>
        <time>2012-07-07T15:52:09Z</time>
      </trkpt>
      <trkpt lat="45.07004" lon="6.03976">
        <ele>838</ele>
        <time>2012-07-07T15:52:14Z</time>
      </trkpt>
      <trkpt lat="45.06997" lon="6.03986">
        <ele>830</ele>
        <time>2012-07-07T15:52:19Z</time>
      </trkpt>
      <trkpt lat="45.06991" lon="6.03996">
        <ele>834</ele>
        <time>2012-07-07T15:52:24Z</time>
      </trkpt>
      <trkpt lat="45.06983" lon="6.04005">
        <ele>848</ele>
        <time>2012-07-07T15:52:29Z</time>
      </trkpt>
      <trkpt lat="45.06974" lon="6.04015">
        <ele>848</ele>
        <time>2012-07-07T15:52:34Z</time>
      </trkpt>
      <trkpt lat="45.06967" lon="6.04021">
        <ele>849</ele>
        <time>2012-07-07T15:52:39Z</time>
      </trkpt>
      <trkpt lat="45.06958" lon="6.04032">
        <ele>849</ele>
        <time>2012-07-07T15:52:44Z</time>
      </trkpt>
      <trkpt lat="45.06953" lon="6.04039">
        <ele>850</ele>
        <time>2012-07-07T15:52:49Z</time>
      </trkpt>
      <trkpt lat="45.06946" lon="6.04051">
        <ele>852</ele>
        <time>2012-07-07T15:52:54Z</time>
      </trkpt>
      <trkpt lat="45.06941" lon="6.04059">
        <ele>853</ele>
        <time>2012-07-07T15:52:59Z</time>
      </trkpt>
      <trkpt lat="45.06933" lon="6.04071">
        <ele>854</ele>
        <time>2012-07-07T15:53:04Z</time>
      </trkpt>
      <trkpt lat="45.06925" lon="6.04081">
        <ele>854</ele>
        <time>2012-07-07T15:53:09Z</time>
      </trkpt>
      <trkpt lat="45.06915" lon="6.04086">
        <ele>857</ele>
        <time>2012-07-07T15:53:14Z</time>
      </trkpt>
      <trkpt lat="45.06904" lon="6.04089">
        <ele>863</ele>
        <time>2012-07-07T15:53:19Z</time>
      </trkpt>
      <trkpt lat="45.06896" lon="6.0409">
        <ele>865</ele>
        <time>2012-07-07T15:53:24Z</time>
      </trkpt>
      <trkpt lat="45.06884" lon="6.04093">
        <ele>867</ele>
        <time>2012-07-07T15:53:29Z</time>
      </trkpt>
      <trkpt lat="45.06877" lon="6.04095">
        <ele>867</ele>
        <time>2012-07-07T15:53:34Z</time>
      </trkpt>
      <trkpt lat="45.06867" lon="6.04097">
        <ele>866</ele>
        <time>2012-07-07T15:53:39Z</time>
      </trkpt>
      <trkpt lat="45.06858" lon="6.04099">
        <ele>865</ele>
        <time>2012-07-07T15:53:44Z</time>
      </trkpt>
      <trkpt lat="45.06848" lon="6.04102">
        <ele>863</ele>
        <time>2012-07-07T15:53:49Z</time>
      </trkpt>
      <trkpt lat="45.06838" lon="6.04102">
        <ele>861</ele>
        <time>2012-07-07T15:53:54Z</time>
      </trkpt>
      <trkpt lat="45.06827" lon="6.04105">
        <ele>855</ele>
        <time>2012-07-07T15:53:59Z</time>
      </trkpt>
      <trkpt lat="45.06818" lon="6.04108">
        <ele>857</ele>
        <time>2012-07-07T15:54:04Z</time>
      </trkpt>
      <trkpt lat="45.06809" lon="6.04112">
        <ele>858</ele>
        <time>2012-07-07T15:54:09Z</time>
      </trkpt>
      <trkpt lat="45.06798" lon="6.04118">
        <ele>859</ele>
        <time>2012-07-07T15:54:14Z</time>
      </trkpt>
      <trkpt lat="45.0679" lon="6.04122">
        <ele>859</ele>
        <time>2012-07-07T15:54:19Z</time>
      </trkpt>
      <trkpt lat="45.06778" lon="6.04126">
        <ele>860</ele>
        <time>2012-07-07T15:54:24Z</time>
      </trkpt>
      <trkpt lat="45.0677" lon="6.04131">
        <ele>861</ele>
        <time>2012-07-07T15:54:29Z</time>
      </trkpt>
      <trkpt lat="45.06761" lon="6.04136">
        <ele>862</ele>
        <time>2012-07-07T15:54:34Z</time>
      </trkpt>
      <trkpt lat="45.06752" lon="6.04141">
        <ele>864</ele>
        <time>2012-07-07T15:54:39Z</time>
      </trkpt>
      <trkpt lat="45.06742" lon="6.04146">
        <ele>858</ele>
        <time>2012-07-07T15:54:44Z</time>
      </trkpt>
      <trkpt lat="45.06733" lon="6.04151">
        <ele>858</ele>
        <time>2012-07-07T15:54:49Z</time>
      </trkpt>
      <trkpt lat="45.06724" lon="6.04157">
        <ele>857</ele>
        <time>2012-07-07T15:54:54Z</time>
      </trkpt>
      <trkpt lat="45.06715" lon="6.04163">
        <ele>855</ele>
        <time>2012-07-07T15:54:59Z</time>
      </trkpt>
      <trkpt lat="45.06705" lon="6.04169">
        <ele>882</ele>
        <time>2012-07-07T15:55:04Z</time>
      </trkpt>
      <trkpt lat="45.06695" lon="6.04176">
        <ele>881</ele>
        <time>2012-07-07T15:55:09Z</time>
      </trkpt>
      <trkpt lat="45.06688" lon="6.0418">
        <ele>880</ele>
        <time>2012-07-07T15:55:14Z</time>
      </trkpt>
      <trkpt lat="45.06679" lon="6.04186">
        <ele>880</ele>
        <time>2012-07-07T15:55:19Z</time>
      </trkpt>
      <trkpt lat="45.06669" lon="6.04191">
        <ele>881</ele>
        <time>2012-07-07T15:55:24Z</time>
      </trkpt>
      <trkpt lat="45.0666" lon="6.04195">
        <ele>869</ele>
        <time>2012-07-07T15:55:29Z</time>
      </trkpt>
      <trkpt lat="45.0665" lon="6.04199">
        <ele>869</ele>
        <time>2012-07-07T15:55:34Z</time>
      </trkpt>
      <trkpt lat="45.06641" lon="6.04206">
        <ele>870</ele>
        <time>2012-07-07T15:55:39Z</time>
      </trkpt>
      <trkpt lat="45.06637" lon="6.04219">
        <ele>873</ele>
        <time>2012-07-07T15:55:44Z</time>
      </trkpt>
      <trkpt lat="45.06644" lon="6.04231">
        <ele>878</ele>
        <time>2012-07-07T15:55:49Z</time>
      </trkpt>
      <trkpt lat="45.06659" lon="6.04225">
        <ele>880</ele>
        <time>2012-07-07T15:55:54Z</time>
      </trkpt>
      <trkpt lat="45.06671" lon="6.04213">
        <ele>890</ele>
        <time>2012-07-07T15:55:59Z</time>
      </trkpt>
      <trkpt lat="45.06684" lon="6.04201">
        <ele>887</ele>
        <time>2012-07-07T15:56:04Z</time>
      </trkpt>
      <trkpt lat="45.06692" lon="6.04199">
        <ele>887</ele>
        <time>2012-07-07T15:56:09Z</time>
      </trkpt>
      <trkpt lat="45.06704" lon="6.04196">
        <ele>888</ele>
        <time>2012-07-07T15:56:14Z</time>
      </trkpt>
      <trkpt lat="45.06712" lon="6.04195">
        <ele>888</ele>
        <time>2012-07-07T15:56:19Z</time>
      </trkpt>
      <trkpt lat="45.06725" lon="6.04191">
        <ele>888</ele>
        <time>2012-07-07T15:56:24Z</time>
      </trkpt>
      <trkpt lat="45.06734" lon="6.04181">
        <ele>885</ele>
        <time>2012-07-07T15:56:29Z</time>
      </trkpt>
      <trkpt lat="45.06744" lon="6.04173">
        <ele>880</ele>
        <time>2012-07-07T15:56:34Z</time>
      </trkpt>
      <trkpt lat="45.06754" lon="6.04169">
        <ele>882</ele>
        <time>2012-07-07T15:56:39Z</time>
      </trkpt>
      <trkpt lat="45.06764" lon="6.04168">
        <ele>889</ele>
        <time>2012-07-07T15:56:44Z</time>
      </trkpt>
      <trkpt lat="45.06773" lon="6.04174">
        <ele>895</ele>
        <time>2012-07-07T15:56:49Z</time>
      </trkpt>
      <trkpt lat="45.06783" lon="6.04181">
        <ele>900</ele>
        <time>2012-07-07T15:56:54Z</time>
      </trkpt>
      <trkpt lat="45.06794" lon="6.04188">
        <ele>903</ele>
        <time>2012-07-07T15:56:59Z</time>
      </trkpt>
      <trkpt lat="45.06801" lon="6.04196">
        <ele>906</ele>
        <time>2012-07-07T15:57:04Z</time>
      </trkpt>
      <trkpt lat="45.06795" lon="6.04202">
        <ele>907</ele>
        <time>2012-07-07T15:57:09Z</time>
      </trkpt>
      <trkpt lat="45.06782" lon="6.04191">
        <ele>902</ele>
        <time>2012-07-07T15:57:14Z</time>
      </trkpt>
      <trkpt lat="45.06769" lon="6.04181">
        <ele>895</ele>
        <time>2012-07-07T15:57:19Z</time>
      </trkpt>
      <trkpt lat="45.0676" lon="6.04183">
        <ele>893</ele>
        <time>2012-07-07T15:57:24Z</time>
      </trkpt>
      <trkpt lat="45.06748" lon="6.04191">
        <ele>887</ele>
        <time>2012-07-07T15:57:29Z</time>
      </trkpt>
      <trkpt lat="45.06739" lon="6.04199">
        <ele>890</ele>
        <time>2012-07-07T15:57:34Z</time>
      </trkpt>
      <trkpt lat="45.0673" lon="6.04208">
        <ele>893</ele>
        <time>2012-07-07T15:57:39Z</time>
      </trkpt>
      <trkpt lat="45.0672" lon="6.0422">
        <ele>896</ele>
        <time>2012-07-07T15:57:44Z</time>
      </trkpt>
      <trkpt lat="45.06713" lon="6.04227">
        <ele>897</ele>
        <time>2012-07-07T15:57:49Z</time>
      </trkpt>
      <trkpt lat="45.06703" lon="6.04239">
        <ele>898</ele>
        <time>2012-07-07T15:57:54Z</time>
      </trkpt>
      <trkpt lat="45.06696" lon="6.04246">
        <ele>898</ele>
        <time>2012-07-07T15:57:59Z</time>
      </trkpt>
      <trkpt lat="45.06688" lon="6.04255">
        <ele>920</ele>
        <time>2012-07-07T15:58:04Z</time>
      </trkpt>
      <trkpt lat="45.0668" lon="6.04263">
        <ele>919</ele>
        <time>2012-07-07T15:58:09Z</time>
      </trkpt>
      <trkpt lat="45.06671" lon="6.04269">
        <ele>920</ele>
        <time>2012-07-07T15:58:14Z</time>
      </trkpt>
      <trkpt lat="45.06661" lon="6.04275">
        <ele>903</ele>
        <time>2012-07-07T15:58:19Z</time>
      </trkpt>
      <trkpt lat="45.06651" lon="6.0428">
        <ele>902</ele>
        <time>2012-07-07T15:58:24Z</time>
      </trkpt>
      <trkpt lat="45.06641" lon="6.04284">
        <ele>900</ele>
        <time>2012-07-07T15:58:29Z</time>
      </trkpt>
      <trkpt lat="45.06631" lon="6.04288">
        <ele>898</ele>
        <time>2012-07-07T15:58:34Z</time>
      </trkpt>
      <trkpt lat="45.0662" lon="6.04294">
        <ele>896</ele>
        <time>2012-07-07T15:58:39Z</time>
      </trkpt>
      <trkpt lat="45.06612" lon="6.04298">
        <ele>894</ele>
        <time>2012-07-07T15:58:44Z</time>
      </trkpt>
      <trkpt lat="45.06601" lon="6.04304">
        <ele>892</ele>
        <time>2012-07-07T15:58:49Z</time>
      </trkpt>
      <trkpt lat="45.06594" lon="6.0431">
        <ele>890</ele>
        <time>2012-07-07T15:58:54Z</time>
      </trkpt>
      <trkpt lat="45.0659" lon="6.04326">
        <ele>886</ele>
        <time>2012-07-07T15:58:59Z</time>
      </trkpt>
      <trkpt lat="45.06595" lon="6.04337">
        <ele>894</ele>
        <time>2012-07-07T15:59:04Z</time>
      </trkpt>
      <trkpt lat="45.06607" lon="6.04338">
        <ele>904</ele>
        <time>2012-07-07T15:59:09Z</time>
      </trkpt>
      <trkpt lat="45.06618" lon="6.04332">
        <ele>898</ele>
        <time>2012-07-07T15:59:14Z</time>
      </trkpt>
      <trkpt lat="45.06628" lon="6.04328">
        <ele>903</ele>
        <time>2012-07-07T15:59:19Z</time>
      </trkpt>
      <trkpt lat="45.06638" lon="6.04325">
        <ele>908</ele>
        <time>2012-07-07T15:59:24Z</time>
      </trkpt>
      <trkpt lat="45.06648" lon="6.04323">
        <ele>913</ele>
        <time>2012-07-07T15:59:29Z</time>
      </trkpt>
      <trkpt lat="45.0666" lon="6.04319">
        <ele>918</ele>
        <time>2012-07-07T15:59:34Z</time>
      </trkpt>
      <trkpt lat="45.06668" lon="6.04316">
        <ele>934</ele>
        <time>2012-07-07T15:59:39Z</time>
      </trkpt>
      <trkpt lat="45.06679" lon="6.04309">
        <ele>933</ele>
        <time>2012-07-07T15:59:44Z</time>
      </trkpt>
      <trkpt lat="45.06687" lon="6.04303">
        <ele>933</ele>
        <time>2012-07-07T15:59:49Z</time>
      </trkpt>
      <trkpt lat="45.06698" lon="6.04295">
        <ele>932</ele>
        <time>2012-07-07T15:59:54Z</time>
      </trkpt>
      <trkpt lat="45.06705" lon="6.04288">
        <ele>931</ele>
        <time>2012-07-07T15:59:59Z</time>
      </trkpt>
      <trkpt lat="45.06713" lon="6.04282">
        <ele>931</ele>
        <time>2012-07-07T16:00:04Z</time>
      </trkpt>
      <trkpt lat="45.06723" lon="6.0428">
        <ele>932</ele>
        <time>2012-07-07T16:00:09Z</time>
      </trkpt>
      <trkpt lat="45.06733" lon="6.04282">
        <ele>933</ele>
        <time>2012-07-07T16:00:14Z</time>
      </trkpt>
      <trkpt lat="45.06742" lon="6.04284">
        <ele>934</ele>
        <time>2012-07-07T16:00:19Z</time>
      </trkpt>
      <trkpt lat="45.06751" lon="6.04286">
        <ele>950</ele>
        <time>2012-07-07T16:00:24Z</time>
      </trkpt>
      <trkpt lat="45.06762" lon="6.04284">
        <ele>951</ele>
        <time>2012-07-07T16:00:29Z</time>
      </trkpt>
      <trkpt lat="45.0677" lon="6.04282">
        <ele>951</ele>
        <time>2012-07-07T16:00:34Z</time>
      </trkpt>
      <trkpt lat="45.06783" lon="6.04275">
        <ele>952</ele>
        <time>2012-07-07T16:00:39Z</time>
      </trkpt>
      <trkpt lat="45.06791" lon="6.04271">
        <ele>952</ele>
        <time>2012-07-07T16:00:44Z</time>
      </trkpt>
      <trkpt lat="45.068" lon="6.04266">
        <ele>953</ele>
        <time>2012-07-07T16:00:49Z</time>
      </trkpt>
      <trkpt lat="45.06809" lon="6.0426">
        <ele>954</ele>
        <time>2012-07-07T16:00:54Z</time>
      </trkpt>
      <trkpt lat="45.06819" lon="6.04261">
        <ele>954</ele>
        <time>2012-07-07T16:00:59Z</time>
      </trkpt>
      <trkpt lat="45.06829" lon="6.04261">
        <ele>954</ele>
        <time>2012-07-07T16:01:04Z</time>
      </trkpt>
      <trkpt lat="45.06839" lon="6.04264">
        <ele>965</ele>
        <time>2012-07-07T16:01:09Z</time>
      </trkpt>
      <trkpt lat="45.0685" lon="6.04267">
        <ele>970</ele>
        <time>2012-07-07T16:01:14Z</time>
      </trkpt>
      <trkpt lat="45.06858" lon="6.04268">
        <ele>973</ele>
        <time>2012-07-07T16:01:19Z</time>
      </trkpt>
      <trkpt lat="45.06869" lon="6.04269">
        <ele>976</ele>
        <time>2012-07-07T16:01:24Z</time>
      </trkpt>
      <trkpt lat="45.06876" lon="6.04271">
        <ele>977</ele>
        <time>2012-07-07T16:01:29Z</time>
      </trkpt>
      <trkpt lat="45.06884" lon="6.04283">
        <ele>981</ele>
        <time>2012-07-07T16:01:34Z</time>
      </trkpt>
      <trkpt lat="45.0688" lon="6.04291">
        <ele>983</ele>
        <time>2012-07-07T16:01:39Z</time>
      </trkpt>
      <trkpt lat="45.06864" lon="6.04287">
        <ele>979</ele>
        <time>2012-07-07T16:01:44Z</time>
      </trkpt>
      <trkpt lat="45.06855" lon="6.04282">
        <ele>977</ele>
        <time>2012-07-07T16:01:49Z</time>
      </trkpt>
      <trkpt lat="45.06844" lon="6.0428">
        <ele>974</ele>
        <time>2012-07-07T16:01:54Z</time>
      </trkpt>
      <trkpt lat="45.06833" lon="6.04282">
        <ele>959</ele>
        <time>2012-07-07T16:01:59Z</time>
      </trkpt>
      <trkpt lat="45.06823" lon="6.04288">
        <ele>961</ele>
        <time>2012-07-07T16:02:04Z</time>
      </trkpt>
      <trkpt lat="45.06812" lon="6.04295">
        <ele>962</ele>
        <time>2012-07-07T16:02:09Z</time>
      </trkpt>
      <trkpt lat="45.06805" lon="6.043">
        <ele>962</ele>
        <time>2012-07-07T16:02:14Z</time>
      </trkpt>
      <trkpt lat="45.06793" lon="6.04309">
        <ele>962</ele>
        <time>2012-07-07T16:02:19Z</time>
      </trkpt>
      <trkpt lat="45.06786" lon="6.04315">
        <ele>962</ele>
        <time>2012-07-07T16:02:24Z</time>
      </trkpt>
      <trkpt lat="45.06778" lon="6.04323">
        <ele>963</ele>
        <time>2012-07-07T16:02:29Z</time>
      </trkpt>
      <trkpt lat="45.06769" lon="6.0433">
        <ele>963</ele>
        <time>2012-07-07T16:02:34Z</time>
      </trkpt>
      <trkpt lat="45.0676" lon="6.04337">
        <ele>973</ele>
        <time>2012-07-07T16:02:39Z</time>
      </trkpt>
      <trkpt lat="45.06751" lon="6.04343">
        <ele>972</ele>
        <time>2012-07-07T16:02:44Z</time>
      </trkpt>
      <trkpt lat="45.06742" lon="6.04351">
        <ele>964</ele>
        <time>2012-07-07T16:02:49Z</time>
      </trkpt>
      <trkpt lat="45.06733" lon="6.04359">
        <ele>962</ele>
        <time>2012-07-07T16:02:54Z</time>
      </trkpt>
      <trkpt lat="45.06724" lon="6.04368">
        <ele>962</ele>
        <time>2012-07-07T16:02:59Z</time>
      </trkpt>
      <trkpt lat="45.06717" lon="6.04382">
        <ele>962</ele>
        <time>2012-07-07T16:03:04Z</time>
      </trkpt>
      <trkpt lat="45.06717" lon="6.04394">
        <ele>963</ele>
        <time>2012-07-07T16:03:09Z</time>
      </trkpt>
      <trkpt lat="45.06718" lon="6.04403">
        <ele>964</ele>
        <time>2012-07-07T16:03:14Z</time>
      </trkpt>
      <trkpt lat="45.06717" lon="6.04403">
        <ele>964</ele>
        <time>2012-07-07T16:03:19Z</time>
      </trkpt>
      <trkpt lat="45.06716" lon="6.04403">
        <ele>964</ele>
        <time>2012-07-07T16:03:24Z</time>
      </trkpt>
      <trkpt lat="45.06715" lon="6.04403">
        <ele>964</ele>
        <time>2012-07-07T16:03:29Z</time>
      </trkpt>
      <trkpt lat="45.06715" lon="6.04403">
        <ele>963</ele>
        <time>2012-07-07T16:03:34Z</time>
      </trkpt>
      <trkpt lat="45.06715" lon="6.04403">
        <ele>963</ele>
        <time>2012-07-07T16:03:39Z</time>
      </trkpt>
      <trkpt lat="45.06715" lon="6.04403">
        <ele>963</ele>
        <time>2012-07-07T16:03:44Z</time>
      </trkpt>
      <trkpt lat="45.06715" lon="6.04402">
        <ele>963</ele>
        <time>2012-07-07T16:03:49Z</time>
      </trkpt>
      <trkpt lat="45.06715" lon="6.04402">
        <ele>963</ele>
        <time>2012-07-07T16:03:54Z</time>
      </trkpt>
      <trkpt lat="45.06714" lon="6.04401">
        <ele>963</ele>
        <time>2012-07-07T16:03:59Z</time>
      </trkpt>
      <trkpt lat="45.06714" lon="6.04401">
        <ele>963</ele>
        <time>2012-07-07T16:04:04Z</time>
      </trkpt>
      <trkpt lat="45.06714" lon="6.044">
        <ele>963</ele>
        <time>2012-07-07T16:04:09Z</time>
      </trkpt>
      <trkpt lat="45.06714" lon="6.044">
        <ele>963</ele>
        <time>2012-07-07T16:04:14Z</time>
      </trkpt>
      <trkpt lat="45.06717" lon="6.04402">
        <ele>964</ele>
        <time>2012-07-07T16:04:19Z</time>
      </trkpt>
      <trkpt lat="45.06718" lon="6.04403">
        <ele>964</ele>
        <time>2012-07-07T16:04:24Z</time>
      </trkpt>
      <trkpt lat="45.06719" lon="6.04404">
        <ele>964</ele>
        <time>2012-07-07T16:04:29Z</time>
      </trkpt>
      <trkpt lat="45.06719" lon="6.04404">
        <ele>964</ele>
        <time>2012-07-07T16:04:34Z</time>
      </trkpt>
      <trkpt lat="45.06718" lon="6.04402">
        <ele>964</ele>
        <time>2012-07-07T16:04:39Z</time>
      </trkpt>
      <trkpt lat="45.06718" lon="6.04401">
        <ele>964</ele>
        <time>2012-07-07T16:04:44Z</time>
      </trkpt>
      <trkpt lat="45.06718" lon="6.04401">
        <ele>964</ele>
        <time>2012-07-07T16:04:49Z</time>
      </trkpt>
      <trkpt lat="45.06719" lon="6.04403">
        <ele>964</ele>
        <time>2012-07-07T16:04:54Z</time>
      </trkpt>
      <trkpt lat="45.06719" lon="6.04403">
        <ele>964</ele>
        <time>2012-07-07T16:04:59Z</time>
      </trkpt>
      <trkpt lat="45.06719" lon="6.04402">
        <ele>964</ele>
        <time>2012-07-07T16:05:04Z</time>
      </trkpt>
      <trkpt lat="45.06719" lon="6.04402">
        <ele>964</ele>
        <time>2012-07-07T16:05:09Z</time>
      </trkpt>
      <trkpt lat="45.06721" lon="6.04404">
        <ele>965</ele>
        <time>2012-07-07T16:05:14Z</time>
      </trkpt>
      <trkpt lat="45.06728" lon="6.04407">
        <ele>967</ele>
        <time>2012-07-07T16:05:19Z</time>
      </trkpt>
      <trkpt lat="45.06733" lon="6.04413">
        <ele>970</ele>
        <time>2012-07-07T16:05:24Z</time>
      </trkpt>
      <trkpt lat="45.06738" lon="6.04418">
        <ele>973</ele>
        <time>2012-07-07T16:05:29Z</time>
      </trkpt>
      <trkpt lat="45.06747" lon="6.04428">
        <ele>974</ele>
        <time>2012-07-07T16:05:34Z</time>
      </trkpt>
      <trkpt lat="45.06755" lon="6.04438">
        <ele>980</ele>
        <time>2012-07-07T16:05:39Z</time>
      </trkpt>
      <trkpt lat="45.06763" lon="6.04447">
        <ele>980</ele>
        <time>2012-07-07T16:05:44Z</time>
      </trkpt>
      <trkpt lat="45.06774" lon="6.04457">
        <ele>980</ele>
        <time>2012-07-07T16:05:49Z</time>
      </trkpt>
      <trkpt lat="45.06782" lon="6.04462">
        <ele>980</ele>
        <time>2012-07-07T16:05:54Z</time>
      </trkpt>
      <trkpt lat="45.06792" lon="6.04468">
        <ele>981</ele>
        <time>2012-07-07T16:05:59Z</time>
      </trkpt>
      <trkpt lat="45.06802" lon="6.04472">
        <ele>981</ele>
        <time>2012-07-07T16:06:04Z</time>
      </trkpt>
      <trkpt lat="45.06817" lon="6.04477">
        <ele>982</ele>
        <time>2012-07-07T16:06:09Z</time>
      </trkpt>
      <trkpt lat="45.06825" lon="6.04478">
        <ele>982</ele>
        <time>2012-07-07T16:06:14Z</time>
      </trkpt>
      <trkpt lat="45.06836" lon="6.04479">
        <ele>991</ele>
        <time>2012-07-07T16:06:19Z</time>
      </trkpt>
      <trkpt lat="45.06848" lon="6.04483">
        <ele>991</ele>
        <time>2012-07-07T16:06:24Z</time>
      </trkpt>
      <trkpt lat="45.06858" lon="6.04486">
        <ele>993</ele>
        <time>2012-07-07T16:06:29Z</time>
      </trkpt>
      <trkpt lat="45.06872" lon="6.04492">
        <ele>995</ele>
        <time>2012-07-07T16:06:34Z</time>
      </trkpt>
      <trkpt lat="45.06882" lon="6.04497">
        <ele>997</ele>
        <time>2012-07-07T16:06:39Z</time>
      </trkpt>
      <trkpt lat="45.06895" lon="6.0451">
        <ele>988</ele>
        <time>2012-07-07T16:06:44Z</time>
      </trkpt>
      <trkpt lat="45.06903" lon="6.04521">
        <ele>987</ele>
        <time>2012-07-07T16:06:49Z</time>
      </trkpt>
      <trkpt lat="45.06913" lon="6.04533">
        <ele>986</ele>
        <time>2012-07-07T16:06:54Z</time>
      </trkpt>
      <trkpt lat="45.06924" lon="6.04544">
        <ele>996</ele>
        <time>2012-07-07T16:06:59Z</time>
      </trkpt>
      <trkpt lat="45.06937" lon="6.04554">
        <ele>995</ele>
        <time>2012-07-07T16:07:04Z</time>
      </trkpt>
      <trkpt lat="45.06945" lon="6.04561">
        <ele>995</ele>
        <time>2012-07-07T16:07:09Z</time>
      </trkpt>
      <trkpt lat="45.06955" lon="6.04568">
        <ele>996</ele>
        <time>2012-07-07T16:07:14Z</time>
      </trkpt>
      <trkpt lat="45.06965" lon="6.04573">
        <ele>998</ele>
        <time>2012-07-07T16:07:19Z</time>
      </trkpt>
      <trkpt lat="45.06975" lon="6.04578">
        <ele>999</ele>
        <time>2012-07-07T16:07:24Z</time>
      </trkpt>
      <trkpt lat="45.06987" lon="6.04582">
        <ele>1000</ele>
        <time>2012-07-07T16:07:29Z</time>
      </trkpt>
      <trkpt lat="45.06996" lon="6.04583">
        <ele>1001</ele>
        <time>2012-07-07T16:07:34Z</time>
      </trkpt>
      <trkpt lat="45.07007" lon="6.04588">
        <ele>1003</ele>
        <time>2012-07-07T16:07:39Z</time>
      </trkpt>
      <trkpt lat="45.07008" lon="6.0459">
        <ele>1004</ele>
        <time>2012-07-07T16:07:44Z</time>
      </trkpt>
      <trkpt lat="45.07006" lon="6.04591">
        <ele>1004</ele>
        <time>2012-07-07T16:07:49Z</time>
      </trkpt>
      <trkpt lat="45.07007" lon="6.04589">
        <ele>1004</ele>
        <time>2012-07-07T16:07:54Z</time>
      </trkpt>
      <trkpt lat="45.07008" lon="6.0459">
        <ele>1004</ele>
        <time>2012-07-07T16:07:59Z</time>
      </trkpt>
      <trkpt lat="45.07007" lon="6.0459">
        <ele>1004</ele>
        <time>2012-07-07T16:08:04Z</time>
      </trkpt>
      <trkpt lat="45.07008" lon="6.0459">
        <ele>1004</ele>
        <time>2012-07-07T16:08:09Z</time>
      </trkpt>
      <trkpt lat="45.07009" lon="6.04591">
        <ele>1004</ele>
        <time>2012-07-07T16:08:14Z</time>
      </trkpt>
      <trkpt lat="45.07009" lon="6.0459">
        <ele>1004</ele>
        <time>2012-07-07T16:08:19Z</time>
      </trkpt>
      <trkpt lat="45.07009" lon="6.04591">
        <ele>1004</ele>
        <time>2012-07-07T16:08:24Z</time>
      </trkpt>
      <trkpt lat="45.07007" lon="6.04592">
        <ele>1004</ele>
        <time>2012-07-07T16:08:29Z</time>
      </trkpt>
      <trkpt lat="45.07011" lon="6.04602">
        <ele>1005</ele>
        <time>2012-07-07T16:08:34Z</time>
      </trkpt>
      <trkpt lat="45.07015" lon="6.04609">
        <ele>1006</ele>
        <time>2012-07-07T16:08:39Z</time>
      </trkpt>
      <trkpt lat="45.07023" lon="6.04623">
        <ele>1006</ele>
        <time>2012-07-07T16:08:44Z</time>
      </trkpt>
      <trkpt lat="45.0703" lon="6.04637">
        <ele>1006</ele>
        <time>2012-07-07T16:08:49Z</time>
      </trkpt>
      <trkpt lat="45.07037" lon="6.0465">
        <ele>1007</ele>
        <time>2012-07-07T16:08:54Z</time>
      </trkpt>
      <trkpt lat="45.07042" lon="6.04664">
        <ele>1007</ele>
        <time>2012-07-07T16:08:59Z</time>
      </trkpt>
      <trkpt lat="45.07049" lon="6.04676">
        <ele>1001</ele>
        <time>2012-07-07T16:09:04Z</time>
      </trkpt>
      <trkpt lat="45.07057" lon="6.04687">
        <ele>1002</ele>
        <time>2012-07-07T16:09:09Z</time>
      </trkpt>
      <trkpt lat="45.07066" lon="6.04697">
        <ele>1003</ele>
        <time>2012-07-07T16:09:14Z</time>
      </trkpt>
      <trkpt lat="45.07076" lon="6.04709">
        <ele>1002</ele>
        <time>2012-07-07T16:09:19Z</time>
      </trkpt>
      <trkpt lat="45.07083" lon="6.04717">
        <ele>1002</ele>
        <time>2012-07-07T16:09:24Z</time>
      </trkpt>
      <trkpt lat="45.07093" lon="6.04727">
        <ele>1022</ele>
        <time>2012-07-07T16:09:29Z</time>
      </trkpt>
      <trkpt lat="45.07099" lon="6.04735">
        <ele>1021</ele>
        <time>2012-07-07T16:09:34Z</time>
      </trkpt>
      <trkpt lat="45.0711" lon="6.04744">
        <ele>1024</ele>
        <time>2012-07-07T16:09:39Z</time>
      </trkpt>
      <trkpt lat="45.07118" lon="6.0475">
        <ele>1026</ele>
        <time>2012-07-07T16:09:44Z</time>
      </trkpt>
      <trkpt lat="45.07127" lon="6.04758">
        <ele>1016</ele>
        <time>2012-07-07T16:09:49Z</time>
      </trkpt>
      <trkpt lat="45.07137" lon="6.04766">
        <ele>1017</ele>
        <time>2012-07-07T16:09:54Z</time>
      </trkpt>
      <trkpt lat="45.07145" lon="6.04775">
        <ele>1018</ele>
        <time>2012-07-07T16:09:59Z</time>
      </trkpt>
      <trkpt lat="45.07154" lon="6.04784">
        <ele>1017</ele>
        <time>2012-07-07T16:10:04Z</time>
      </trkpt>
      <trkpt lat="45.07163" lon="6.04793">
        <ele>1016</ele>
        <time>2012-07-07T16:10:09Z</time>
      </trkpt>
      <trkpt lat="45.07173" lon="6.04803">
        <ele>1034</ele>
        <time>2012-07-07T16:10:14Z</time>
      </trkpt>
      <trkpt lat="45.0718" lon="6.04812">
        <ele>1033</ele>
        <time>2012-07-07T16:10:19Z</time>
      </trkpt>
      <trkpt lat="45.07191" lon="6.04816">
        <ele>1035</ele>
        <time>2012-07-07T16:10:24Z</time>
      </trkpt>
      <trkpt lat="45.072" lon="6.04804">
        <ele>1040</ele>
        <time>2012-07-07T16:10:29Z</time>
      </trkpt>
      <trkpt lat="45.07191" lon="6.04786">
        <ele>1041</ele>
        <time>2012-07-07T16:10:34Z</time>
      </trkpt>
      <trkpt lat="45.07181" lon="6.04778">
        <ele>1040</ele>
        <time>2012-07-07T16:10:39Z</time>
      </trkpt>
      <trkpt lat="45.07169" lon="6.0477">
        <ele>1039</ele>
        <time>2012-07-07T16:10:44Z</time>
      </trkpt>
      <trkpt lat="45.0716" lon="6.0476">
        <ele>1027</ele>
        <time>2012-07-07T16:10:49Z</time>
      </trkpt>
      <trkpt lat="45.07152" lon="6.04748">
        <ele>1034</ele>
        <time>2012-07-07T16:10:54Z</time>
      </trkpt>
      <trkpt lat="45.07144" lon="6.04736">
        <ele>1033</ele>
        <time>2012-07-07T16:10:59Z</time>
      </trkpt>
      <trkpt lat="45.07138" lon="6.04723">
        <ele>1033</ele>
        <time>2012-07-07T16:11:04Z</time>
      </trkpt>
      <trkpt lat="45.0713" lon="6.04709">
        <ele>1033</ele>
        <time>2012-07-07T16:11:09Z</time>
      </trkpt>
      <trkpt lat="45.07124" lon="6.04699">
        <ele>1033</ele>
        <time>2012-07-07T16:11:14Z</time>
      </trkpt>
      <trkpt lat="45.07116" lon="6.04683">
        <ele>1032</ele>
        <time>2012-07-07T16:11:19Z</time>
      </trkpt>
      <trkpt lat="45.07112" lon="6.04672">
        <ele>1032</ele>
        <time>2012-07-07T16:11:24Z</time>
      </trkpt>
      <trkpt lat="45.07107" lon="6.04653">
        <ele>1039</ele>
        <time>2012-07-07T16:11:29Z</time>
      </trkpt>
      <trkpt lat="45.07105" lon="6.04642">
        <ele>1040</ele>
        <time>2012-07-07T16:11:34Z</time>
      </trkpt>
      <trkpt lat="45.07106" lon="6.04626">
        <ele>1042</ele>
        <time>2012-07-07T16:11:39Z</time>
      </trkpt>
      <trkpt lat="45.07106" lon="6.04607">
        <ele>1042</ele>
        <time>2012-07-07T16:11:44Z</time>
      </trkpt>
      <trkpt lat="45.07106" lon="6.04595">
        <ele>1042</ele>
        <time>2012-07-07T16:11:49Z</time>
      </trkpt>
      <trkpt lat="45.07107" lon="6.04575">
        <ele>1046</ele>
        <time>2012-07-07T16:11:54Z</time>
      </trkpt>
      <trkpt lat="45.07107" lon="6.04564">
        <ele>1048</ele>
        <time>2012-07-07T16:11:59Z</time>
      </trkpt>
      <trkpt lat="45.07108" lon="6.04545">
        <ele>1050</ele>
        <time>2012-07-07T16:12:04Z</time>
      </trkpt>
      <trkpt lat="45.0711" lon="6.04533">
        <ele>1051</ele>
        <time>2012-07-07T16:12:09Z</time>
      </trkpt>
      <trkpt lat="45.0711" lon="6.04517">
        <ele>1051</ele>
        <time>2012-07-07T16:12:14Z</time>
      </trkpt>
      <trkpt lat="45.07107" lon="6.04502">
        <ele>1050</ele>
        <time>2012-07-07T16:12:19Z</time>
      </trkpt>
      <trkpt lat="45.07102" lon="6.04484">
        <ele>1058</ele>
        <time>2012-07-07T16:12:24Z</time>
      </trkpt>
      <trkpt lat="45.07099" lon="6.04472">
        <ele>1060</ele>
        <time>2012-07-07T16:12:29Z</time>
      </trkpt>
      <trkpt lat="45.07094" lon="6.04458">
        <ele>1063</ele>
        <time>2012-07-07T16:12:34Z</time>
      </trkpt>
      <trkpt lat="45.07088" lon="6.04443">
        <ele>1065</ele>
        <time>2012-07-07T16:12:39Z</time>
      </trkpt>
      <trkpt lat="45.07089" lon="6.04436">
        <ele>1066</ele>
        <time>2012-07-07T16:12:44Z</time>
      </trkpt>
      <trkpt lat="45.07098" lon="6.04452">
        <ele>1064</ele>
        <time>2012-07-07T16:12:49Z</time>
      </trkpt>
      <trkpt lat="45.07104" lon="6.04467">
        <ele>1062</ele>
        <time>2012-07-07T16:12:54Z</time>
      </trkpt>
      <trkpt lat="45.07119" lon="6.04475">
        <ele>1064</ele>
        <time>2012-07-07T16:12:59Z</time>
      </trkpt>
      <trkpt lat="45.07125" lon="6.04484">
        <ele>1064</ele>
        <time>2012-07-07T16:13:04Z</time>
      </trkpt>
      <trkpt lat="45.0713" lon="6.04498">
        <ele>1065</ele>
        <time>2012-07-07T16:13:09Z</time>
      </trkpt>
      <trkpt lat="45.07135" lon="6.04512">
        <ele>1058</ele>
        <time>2012-07-07T16:13:14Z</time>
      </trkpt>
      <trkpt lat="45.07138" lon="6.04526">
        <ele>1057</ele>
        <time>2012-07-07T16:13:19Z</time>
      </trkpt>
      <trkpt lat="45.0714" lon="6.04541">
        <ele>1057</ele>
        <time>2012-07-07T16:13:24Z</time>
      </trkpt>
      <trkpt lat="45.07142" lon="6.04556">
        <ele>1057</ele>
        <time>2012-07-07T16:13:29Z</time>
      </trkpt>
      <trkpt lat="45.07145" lon="6.04573">
        <ele>1059</ele>
        <time>2012-07-07T16:13:34Z</time>
      </trkpt>
      <trkpt lat="45.07147" lon="6.04585">
        <ele>1056</ele>
        <time>2012-07-07T16:13:39Z</time>
      </trkpt>
      <trkpt lat="45.07149" lon="6.04603">
        <ele>1054</ele>
        <time>2012-07-07T16:13:44Z</time>
      </trkpt>
      <trkpt lat="45.07151" lon="6.04615">
        <ele>1053</ele>
        <time>2012-07-07T16:13:49Z</time>
      </trkpt>
      <trkpt lat="45.07156" lon="6.04632">
        <ele>1052</ele>
        <time>2012-07-07T16:13:54Z</time>
      </trkpt>
      <trkpt lat="45.07162" lon="6.04642">
        <ele>1053</ele>
        <time>2012-07-07T16:13:59Z</time>
      </trkpt>
      <trkpt lat="45.0717" lon="6.04655">
        <ele>1071</ele>
        <time>2012-07-07T16:14:04Z</time>
      </trkpt>
      <trkpt lat="45.07176" lon="6.04664">
        <ele>1070</ele>
        <time>2012-07-07T16:14:09Z</time>
      </trkpt>
      <trkpt lat="45.07183" lon="6.04675">
        <ele>1066</ele>
        <time>2012-07-07T16:14:14Z</time>
      </trkpt>
      <trkpt lat="45.07189" lon="6.04687">
        <ele>1067</ele>
        <time>2012-07-07T16:14:19Z</time>
      </trkpt>
      <trkpt lat="45.07197" lon="6.04697">
        <ele>1068</ele>
        <time>2012-07-07T16:14:24Z</time>
      </trkpt>
      <trkpt lat="45.07208" lon="6.04707">
        <ele>1069</ele>
        <time>2012-07-07T16:14:29Z</time>
      </trkpt>
      <trkpt lat="45.07215" lon="6.04713">
        <ele>1070</ele>
        <time>2012-07-07T16:14:34Z</time>
      </trkpt>
      <trkpt lat="45.07227" lon="6.04721">
        <ele>1071</ele>
        <time>2012-07-07T16:14:39Z</time>
      </trkpt>
      <trkpt lat="45.07235" lon="6.04727">
        <ele>1072</ele>
        <time>2012-07-07T16:14:44Z</time>
      </trkpt>
      <trkpt lat="45.07246" lon="6.04735">
        <ele>1073</ele>
        <time>2012-07-07T16:14:49Z</time>
      </trkpt>
      <trkpt lat="45.07254" lon="6.04741">
        <ele>1083</ele>
        <time>2012-07-07T16:14:54Z</time>
      </trkpt>
      <trkpt lat="45.07266" lon="6.04749">
        <ele>1087</ele>
        <time>2012-07-07T16:14:59Z</time>
      </trkpt>
      <trkpt lat="45.07274" lon="6.04755">
        <ele>1076</ele>
        <time>2012-07-07T16:15:04Z</time>
      </trkpt>
      <trkpt lat="45.07284" lon="6.04762">
        <ele>1077</ele>
        <time>2012-07-07T16:15:09Z</time>
      </trkpt>
      <trkpt lat="45.07296" lon="6.04769">
        <ele>1079</ele>
        <time>2012-07-07T16:15:14Z</time>
      </trkpt>
      <trkpt lat="45.07305" lon="6.04771">
        <ele>1081</ele>
        <time>2012-07-07T16:15:19Z</time>
      </trkpt>
      <trkpt lat="45.07316" lon="6.04773">
        <ele>1083</ele>
        <time>2012-07-07T16:15:24Z</time>
      </trkpt>
      <trkpt lat="45.07324" lon="6.04775">
        <ele>1084</ele>
        <time>2012-07-07T16:15:29Z</time>
      </trkpt>
      <trkpt lat="45.07337" lon="6.0478">
        <ele>1102</ele>
        <time>2012-07-07T16:15:34Z</time>
      </trkpt>
      <trkpt lat="45.07347" lon="6.04791">
        <ele>1102</ele>
        <time>2012-07-07T16:15:39Z</time>
      </trkpt>
      <trkpt lat="45.07354" lon="6.04806">
        <ele>1101</ele>
        <time>2012-07-07T16:15:44Z</time>
      </trkpt>
      <trkpt lat="45.07359" lon="6.04822">
        <ele>1100</ele>
        <time>2012-07-07T16:15:49Z</time>
      </trkpt>
      <trkpt lat="45.07364" lon="6.04839">
        <ele>1099</ele>
        <time>2012-07-07T16:15:54Z</time>
      </trkpt>
      <trkpt lat="45.07365" lon="6.04852">
        <ele>1100</ele>
        <time>2012-07-07T16:15:59Z</time>
      </trkpt>
      <trkpt lat="45.07367" lon="6.04868">
        <ele>1101</ele>
        <time>2012-07-07T16:16:04Z</time>
      </trkpt>
      <trkpt lat="45.07362" lon="6.04886">
        <ele>1101</ele>
        <time>2012-07-07T16:16:09Z</time>
      </trkpt>
      <trkpt lat="45.07356" lon="6.04896">
        <ele>1099</ele>
        <time>2012-07-07T16:16:14Z</time>
      </trkpt>
      <trkpt lat="45.07345" lon="6.04909">
        <ele>1096</ele>
        <time>2012-07-07T16:16:19Z</time>
      </trkpt>
      <trkpt lat="45.07339" lon="6.04919">
        <ele>1097</ele>
        <time>2012-07-07T16:16:24Z</time>
      </trkpt>
      <trkpt lat="45.07333" lon="6.04935">
        <ele>1088</ele>
        <time>2012-07-07T16:16:29Z</time>
      </trkpt>
      <trkpt lat="45.0733" lon="6.04947">
        <ele>1089</ele>
        <time>2012-07-07T16:16:34Z</time>
      </trkpt>
      <trkpt lat="45.07327" lon="6.04962">
        <ele>1092</ele>
        <time>2012-07-07T16:16:39Z</time>
      </trkpt>
      <trkpt lat="45.07324" lon="6.04975">
        <ele>1095</ele>
        <time>2012-07-07T16:16:44Z</time>
      </trkpt>
      <trkpt lat="45.07316" lon="6.04989">
        <ele>1098</ele>
        <time>2012-07-07T16:16:49Z</time>
      </trkpt>
      <trkpt lat="45.07312" lon="6.04996">
        <ele>1098</ele>
        <time>2012-07-07T16:16:54Z</time>
      </trkpt>
      <trkpt lat="45.07306" lon="6.05005">
        <ele>1111</ele>
        <time>2012-07-07T16:16:59Z</time>
      </trkpt>
      <trkpt lat="45.07298" lon="6.05018">
        <ele>1110</ele>
        <time>2012-07-07T16:17:04Z</time>
      </trkpt>
      <trkpt lat="45.07293" lon="6.05027">
        <ele>1110</ele>
        <time>2012-07-07T16:17:09Z</time>
      </trkpt>
      <trkpt lat="45.07285" lon="6.05041">
        <ele>1110</ele>
        <time>2012-07-07T16:17:14Z</time>
      </trkpt>
      <trkpt lat="45.0728" lon="6.05051">
        <ele>1110</ele>
        <time>2012-07-07T16:17:19Z</time>
      </trkpt>
      <trkpt lat="45.07271" lon="6.05065">
        <ele>1109</ele>
        <time>2012-07-07T16:17:24Z</time>
      </trkpt>
      <trkpt lat="45.07265" lon="6.05074">
        <ele>1108</ele>
        <time>2012-07-07T16:17:29Z</time>
      </trkpt>
      <trkpt lat="45.07259" lon="6.05085">
        <ele>1113</ele>
        <time>2012-07-07T16:17:34Z</time>
      </trkpt>
      <trkpt lat="45.07252" lon="6.05096">
        <ele>1116</ele>
        <time>2012-07-07T16:17:39Z</time>
      </trkpt>
      <trkpt lat="45.07245" lon="6.05107">
        <ele>1094</ele>
        <time>2012-07-07T16:17:44Z</time>
      </trkpt>
      <trkpt lat="45.07242" lon="6.0512">
        <ele>1094</ele>
        <time>2012-07-07T16:17:49Z</time>
      </trkpt>
      <trkpt lat="45.07249" lon="6.05129">
        <ele>1097</ele>
        <time>2012-07-07T16:17:54Z</time>
      </trkpt>
      <trkpt lat="45.07261" lon="6.05121">
        <ele>1131</ele>
        <time>2012-07-07T16:17:59Z</time>
      </trkpt>
      <trkpt lat="45.07268" lon="6.0511">
        <ele>1129</ele>
        <time>2012-07-07T16:18:04Z</time>
      </trkpt>
      <trkpt lat="45.07279" lon="6.05085">
        <ele>1128</ele>
        <time>2012-07-07T16:18:09Z</time>
      </trkpt>
      <trkpt lat="45.07286" lon="6.05073">
        <ele>1114</ele>
        <time>2012-07-07T16:18:14Z</time>
      </trkpt>
      <trkpt lat="45.07296" lon="6.05064">
        <ele>1117</ele>
        <time>2012-07-07T16:18:19Z</time>
      </trkpt>
      <trkpt lat="45.07303" lon="6.05059">
        <ele>1118</ele>
        <time>2012-07-07T16:18:24Z</time>
      </trkpt>
      <trkpt lat="45.07312" lon="6.05048">
        <ele>1118</ele>
        <time>2012-07-07T16:18:29Z</time>
      </trkpt>
      <trkpt lat="45.07321" lon="6.05038">
        <ele>1117</ele>
        <time>2012-07-07T16:18:34Z</time>
      </trkpt>
      <trkpt lat="45.0733" lon="6.05029">
        <ele>1117</ele>
        <time>2012-07-07T16:18:39Z</time>
      </trkpt>
      <trkpt lat="45.07339" lon="6.05019">
        <ele>1135</ele>
        <time>2012-07-07T16:18:44Z</time>
      </trkpt>
      <trkpt lat="45.07348" lon="6.05016">
        <ele>1136</ele>
        <time>2012-07-07T16:18:49Z</time>
      </trkpt>
      <trkpt lat="45.07359" lon="6.05008">
        <ele>1139</ele>
        <time>2012-07-07T16:18:54Z</time>
      </trkpt>
      <trkpt lat="45.07365" lon="6.05003">
        <ele>1141</ele>
        <time>2012-07-07T16:18:59Z</time>
      </trkpt>
      <trkpt lat="45.07375" lon="6.04997">
        <ele>1125</ele>
        <time>2012-07-07T16:19:04Z</time>
      </trkpt>
      <trkpt lat="45.07382" lon="6.04988">
        <ele>1126</ele>
        <time>2012-07-07T16:19:09Z</time>
      </trkpt>
      <trkpt lat="45.0739" lon="6.04978">
        <ele>1127</ele>
        <time>2012-07-07T16:19:14Z</time>
      </trkpt>
      <trkpt lat="45.07397" lon="6.04972">
        <ele>1127</ele>
        <time>2012-07-07T16:19:19Z</time>
      </trkpt>
      <trkpt lat="45.07406" lon="6.04967">
        <ele>1127</ele>
        <time>2012-07-07T16:19:24Z</time>
      </trkpt>
      <trkpt lat="45.07417" lon="6.04965">
        <ele>1149</ele>
        <time>2012-07-07T16:19:29Z</time>
      </trkpt>
      <trkpt lat="45.07427" lon="6.04964">
        <ele>1149</ele>
        <time>2012-07-07T16:19:34Z</time>
      </trkpt>
      <trkpt lat="45.07437" lon="6.04962">
        <ele>1150</ele>
        <time>2012-07-07T16:19:39Z</time>
      </trkpt>
      <trkpt lat="45.07448" lon="6.04955">
        <ele>1151</ele>
        <time>2012-07-07T16:19:44Z</time>
      </trkpt>
      <trkpt lat="45.07461" lon="6.04946">
        <ele>1152</ele>
        <time>2012-07-07T16:19:49Z</time>
      </trkpt>
      <trkpt lat="45.07469" lon="6.04942">
        <ele>1153</ele>
        <time>2012-07-07T16:19:54Z</time>
      </trkpt>
      <trkpt lat="45.07479" lon="6.04932">
        <ele>1155</ele>
        <time>2012-07-07T16:19:59Z</time>
      </trkpt>
      <trkpt lat="45.07484" lon="6.04924">
        <ele>1156</ele>
        <time>2012-07-07T16:20:04Z</time>
      </trkpt>
      <trkpt lat="45.0749" lon="6.04913">
        <ele>1152</ele>
        <time>2012-07-07T16:20:09Z</time>
      </trkpt>
      <trkpt lat="45.07493" lon="6.04904">
        <ele>1151</ele>
        <time>2012-07-07T16:20:14Z</time>
      </trkpt>
      <trkpt lat="45.07497" lon="6.04891">
        <ele>1148</ele>
        <time>2012-07-07T16:20:19Z</time>
      </trkpt>
      <trkpt lat="45.075" lon="6.04879">
        <ele>1147</ele>
        <time>2012-07-07T16:20:24Z</time>
      </trkpt>
      <trkpt lat="45.07501" lon="6.04867">
        <ele>1172</ele>
        <time>2012-07-07T16:20:29Z</time>
      </trkpt>
      <trkpt lat="45.07497" lon="6.04852">
        <ele>1149</ele>
        <time>2012-07-07T16:20:34Z</time>
      </trkpt>
      <trkpt lat="45.07492" lon="6.04843">
        <ele>1151</ele>
        <time>2012-07-07T16:20:39Z</time>
      </trkpt>
      <trkpt lat="45.07484" lon="6.04828">
        <ele>1149</ele>
        <time>2012-07-07T16:20:44Z</time>
      </trkpt>
      <trkpt lat="45.07482" lon="6.04816">
        <ele>1147</ele>
        <time>2012-07-07T16:20:49Z</time>
      </trkpt>
      <trkpt lat="45.07478" lon="6.04798">
        <ele>1146</ele>
        <time>2012-07-07T16:20:54Z</time>
      </trkpt>
      <trkpt lat="45.07475" lon="6.04787">
        <ele>1146</ele>
        <time>2012-07-07T16:20:59Z</time>
      </trkpt>
      <trkpt lat="45.07476" lon="6.04768">
        <ele>1148</ele>
        <time>2012-07-07T16:21:04Z</time>
      </trkpt>
      <trkpt lat="45.07485" lon="6.04765">
        <ele>1151</ele>
        <time>2012-07-07T16:21:09Z</time>
      </trkpt>
      <trkpt lat="45.07491" lon="6.04783">
        <ele>1149</ele>
        <time>2012-07-07T16:21:14Z</time>
      </trkpt>
      <trkpt lat="45.07494" lon="6.04803">
        <ele>1148</ele>
        <time>2012-07-07T16:21:19Z</time>
      </trkpt>
      <trkpt lat="45.07499" lon="6.04819">
        <ele>1151</ele>
        <time>2012-07-07T16:21:24Z</time>
      </trkpt>
      <trkpt lat="45.07505" lon="6.04836">
        <ele>1163</ele>
        <time>2012-07-07T16:21:29Z</time>
      </trkpt>
      <trkpt lat="45.0751" lon="6.04847">
        <ele>1169</ele>
        <time>2012-07-07T16:21:34Z</time>
      </trkpt>
      <trkpt lat="45.07516" lon="6.04864">
        <ele>1174</ele>
        <time>2012-07-07T16:21:39Z</time>
      </trkpt>
      <trkpt lat="45.0752" lon="6.04876">
        <ele>1176</ele>
        <time>2012-07-07T16:21:44Z</time>
      </trkpt>
      <trkpt lat="45.07521" lon="6.04896">
        <ele>1175</ele>
        <time>2012-07-07T16:21:49Z</time>
      </trkpt>
      <trkpt lat="45.0752" lon="6.04908">
        <ele>1173</ele>
        <time>2012-07-07T16:21:54Z</time>
      </trkpt>
      <trkpt lat="45.0752" lon="6.04923">
        <ele>1179</ele>
        <time>2012-07-07T16:21:59Z</time>
      </trkpt>
      <trkpt lat="45.0752" lon="6.04938">
        <ele>1183</ele>
        <time>2012-07-07T16:22:04Z</time>
      </trkpt>
      <trkpt lat="45.0752" lon="6.04953">
        <ele>1186</ele>
        <time>2012-07-07T16:22:09Z</time>
      </trkpt>
      <trkpt lat="45.07518" lon="6.04966">
        <ele>1188</ele>
        <time>2012-07-07T16:22:14Z</time>
      </trkpt>
      <trkpt lat="45.07515" lon="6.04976">
        <ele>1189</ele>
        <time>2012-07-07T16:22:19Z</time>
      </trkpt>
      <trkpt lat="45.07508" lon="6.04987">
        <ele>1187</ele>
        <time>2012-07-07T16:22:24Z</time>
      </trkpt>
      <trkpt lat="45.075" lon="6.04993">
        <ele>1186</ele>
        <time>2012-07-07T16:22:29Z</time>
      </trkpt>
      <trkpt lat="45.07489" lon="6.05001">
        <ele>1184</ele>
        <time>2012-07-07T16:22:34Z</time>
      </trkpt>
      <trkpt lat="45.0748" lon="6.05006">
        <ele>1184</ele>
        <time>2012-07-07T16:22:39Z</time>
      </trkpt>
      <trkpt lat="45.07468" lon="6.05013">
        <ele>1182</ele>
        <time>2012-07-07T16:22:44Z</time>
      </trkpt>
      <trkpt lat="45.0746" lon="6.05017">
        <ele>1181</ele>
        <time>2012-07-07T16:22:49Z</time>
      </trkpt>
      <trkpt lat="45.0745" lon="6.05025">
        <ele>1180</ele>
        <time>2012-07-07T16:22:54Z</time>
      </trkpt>
      <trkpt lat="45.07441" lon="6.05035">
        <ele>1180</ele>
        <time>2012-07-07T16:22:59Z</time>
      </trkpt>
      <trkpt lat="45.07435" lon="6.05048">
        <ele>1183</ele>
        <time>2012-07-07T16:23:04Z</time>
      </trkpt>
      <trkpt lat="45.07429" lon="6.05061">
        <ele>1185</ele>
        <time>2012-07-07T16:23:09Z</time>
      </trkpt>
      <trkpt lat="45.07423" lon="6.05074">
        <ele>1186</ele>
        <time>2012-07-07T16:23:14Z</time>
      </trkpt>
      <trkpt lat="45.07413" lon="6.05086">
        <ele>1187</ele>
        <time>2012-07-07T16:23:19Z</time>
      </trkpt>
      <trkpt lat="45.07407" lon="6.05096">
        <ele>1187</ele>
        <time>2012-07-07T16:23:24Z</time>
      </trkpt>
      <trkpt lat="45.07397" lon="6.0511">
        <ele>1187</ele>
        <time>2012-07-07T16:23:29Z</time>
      </trkpt>
      <trkpt lat="45.07391" lon="6.05118">
        <ele>1188</ele>
        <time>2012-07-07T16:23:34Z</time>
      </trkpt>
      <trkpt lat="45.07383" lon="6.05131">
        <ele>1189</ele>
        <time>2012-07-07T16:23:39Z</time>
      </trkpt>
      <trkpt lat="45.07375" lon="6.0514">
        <ele>1189</ele>
        <time>2012-07-07T16:23:44Z</time>
      </trkpt>
      <trkpt lat="45.07366" lon="6.05145">
        <ele>1187</ele>
        <time>2012-07-07T16:23:49Z</time>
      </trkpt>
      <trkpt lat="45.07361" lon="6.05147">
        <ele>1186</ele>
        <time>2012-07-07T16:23:54Z</time>
      </trkpt>
      <trkpt lat="45.07352" lon="6.05155">
        <ele>1185</ele>
        <time>2012-07-07T16:23:59Z</time>
      </trkpt>
      <trkpt lat="45.07341" lon="6.05157">
        <ele>1184</ele>
        <time>2012-07-07T16:24:04Z</time>
      </trkpt>
      <trkpt lat="45.07333" lon="6.05158">
        <ele>1171</ele>
        <time>2012-07-07T16:24:09Z</time>
      </trkpt>
      <trkpt lat="45.07322" lon="6.05172">
        <ele>1176</ele>
        <time>2012-07-07T16:24:14Z</time>
      </trkpt>
      <trkpt lat="45.07325" lon="6.05186">
        <ele>1174</ele>
        <time>2012-07-07T16:24:19Z</time>
      </trkpt>
      <trkpt lat="45.0734" lon="6.05182">
        <ele>1202</ele>
        <time>2012-07-07T16:24:24Z</time>
      </trkpt>
      <trkpt lat="45.0735" lon="6.05171">
        <ele>1202</ele>
        <time>2012-07-07T16:24:29Z</time>
      </trkpt>
      <trkpt lat="45.07361" lon="6.0516">
        <ele>1188</ele>
        <time>2012-07-07T16:24:34Z</time>
      </trkpt>
      <trkpt lat="45.07371" lon="6.0515">
        <ele>1189</ele>
        <time>2012-07-07T16:24:39Z</time>
      </trkpt>
      <trkpt lat="45.07382" lon="6.05139">
        <ele>1190</ele>
        <time>2012-07-07T16:24:44Z</time>
      </trkpt>
      <trkpt lat="45.0739" lon="6.05132">
        <ele>1191</ele>
        <time>2012-07-07T16:24:49Z</time>
      </trkpt>
      <trkpt lat="45.074" lon="6.05124">
        <ele>1191</ele>
        <time>2012-07-07T16:24:54Z</time>
      </trkpt>
      <trkpt lat="45.07411" lon="6.05114">
        <ele>1190</ele>
        <time>2012-07-07T16:24:59Z</time>
      </trkpt>
      <trkpt lat="45.07418" lon="6.05117">
        <ele>1213</ele>
        <time>2012-07-07T16:25:04Z</time>
      </trkpt>
      <trkpt lat="45.0743" lon="6.05112">
        <ele>1213</ele>
        <time>2012-07-07T16:25:09Z</time>
      </trkpt>
      <trkpt lat="45.07437" lon="6.05109">
        <ele>1214</ele>
        <time>2012-07-07T16:25:14Z</time>
      </trkpt>
      <trkpt lat="45.07449" lon="6.05102">
        <ele>1215</ele>
        <time>2012-07-07T16:25:19Z</time>
      </trkpt>
      <trkpt lat="45.07457" lon="6.05096">
        <ele>1216</ele>
        <time>2012-07-07T16:25:24Z</time>
      </trkpt>
      <trkpt lat="45.07467" lon="6.05089">
        <ele>1218</ele>
        <time>2012-07-07T16:25:29Z</time>
      </trkpt>
      <trkpt lat="45.07476" lon="6.05084">
        <ele>1219</ele>
        <time>2012-07-07T16:25:34Z</time>
      </trkpt>
      <trkpt lat="45.07487" lon="6.0508">
        <ele>1205</ele>
        <time>2012-07-07T16:25:39Z</time>
      </trkpt>
      <trkpt lat="45.07498" lon="6.05073">
        <ele>1208</ele>
        <time>2012-07-07T16:25:44Z</time>
      </trkpt>
      <trkpt lat="45.0751" lon="6.05059">
        <ele>1218</ele>
        <time>2012-07-07T16:25:49Z</time>
      </trkpt>
      <trkpt lat="45.07524" lon="6.05048">
        <ele>1218</ele>
        <time>2012-07-07T16:25:54Z</time>
      </trkpt>
      <trkpt lat="45.07533" lon="6.05043">
        <ele>1218</ele>
        <time>2012-07-07T16:25:59Z</time>
      </trkpt>
      <trkpt lat="45.07545" lon="6.05037">
        <ele>1220</ele>
        <time>2012-07-07T16:26:04Z</time>
      </trkpt>
      <trkpt lat="45.07552" lon="6.05035">
        <ele>1221</ele>
        <time>2012-07-07T16:26:09Z</time>
      </trkpt>
      <trkpt lat="45.07564" lon="6.05033">
        <ele>1223</ele>
        <time>2012-07-07T16:26:14Z</time>
      </trkpt>
      <trkpt lat="45.07572" lon="6.05028">
        <ele>1223</ele>
        <time>2012-07-07T16:26:19Z</time>
      </trkpt>
      <trkpt lat="45.07584" lon="6.05015">
        <ele>1239</ele>
        <time>2012-07-07T16:26:24Z</time>
      </trkpt>
      <trkpt lat="45.07591" lon="6.05007">
        <ele>1236</ele>
        <time>2012-07-07T16:26:29Z</time>
      </trkpt>
      <trkpt lat="45.07596" lon="6.04997">
        <ele>1230</ele>
        <time>2012-07-07T16:26:34Z</time>
      </trkpt>
      <trkpt lat="45.076" lon="6.04988">
        <ele>1232</ele>
        <time>2012-07-07T16:26:39Z</time>
      </trkpt>
      <trkpt lat="45.07602" lon="6.04979">
        <ele>1233</ele>
        <time>2012-07-07T16:26:44Z</time>
      </trkpt>
      <trkpt lat="45.07606" lon="6.04962">
        <ele>1233</ele>
        <time>2012-07-07T16:26:49Z</time>
      </trkpt>
      <trkpt lat="45.07609" lon="6.04951">
        <ele>1232</ele>
        <time>2012-07-07T16:26:54Z</time>
      </trkpt>
      <trkpt lat="45.07618" lon="6.0493">
        <ele>1232</ele>
        <time>2012-07-07T16:26:59Z</time>
      </trkpt>
      <trkpt lat="45.07625" lon="6.04918">
        <ele>1234</ele>
        <time>2012-07-07T16:27:04Z</time>
      </trkpt>
      <trkpt lat="45.07633" lon="6.04901">
        <ele>1232</ele>
        <time>2012-07-07T16:27:09Z</time>
      </trkpt>
      <trkpt lat="45.07637" lon="6.0489">
        <ele>1233</ele>
        <time>2012-07-07T16:27:14Z</time>
      </trkpt>
      <trkpt lat="45.07638" lon="6.04874">
        <ele>1233</ele>
        <time>2012-07-07T16:27:19Z</time>
      </trkpt>
      <trkpt lat="45.07633" lon="6.04865">
        <ele>1232</ele>
        <time>2012-07-07T16:27:24Z</time>
      </trkpt>
      <trkpt lat="45.07627" lon="6.04853">
        <ele>1230</ele>
        <time>2012-07-07T16:27:29Z</time>
      </trkpt>
      <trkpt lat="45.07621" lon="6.0484">
        <ele>1228</ele>
        <time>2012-07-07T16:27:34Z</time>
      </trkpt>
      <trkpt lat="45.07619" lon="6.04825">
        <ele>1227</ele>
        <time>2012-07-07T16:27:39Z</time>
      </trkpt>
      <trkpt lat="45.07624" lon="6.04802">
        <ele>1229</ele>
        <time>2012-07-07T16:27:44Z</time>
      </trkpt>
      <trkpt lat="45.0763" lon="6.04788">
        <ele>1230</ele>
        <time>2012-07-07T16:27:49Z</time>
      </trkpt>
      <trkpt lat="45.07637" lon="6.0477">
        <ele>1233</ele>
        <time>2012-07-07T16:27:54Z</time>
      </trkpt>
      <trkpt lat="45.07641" lon="6.04759">
        <ele>1236</ele>
        <time>2012-07-07T16:27:59Z</time>
      </trkpt>
      <trkpt lat="45.07646" lon="6.04741">
        <ele>1242</ele>
        <time>2012-07-07T16:28:04Z</time>
      </trkpt>
      <trkpt lat="45.07652" lon="6.04732">
        <ele>1243</ele>
        <time>2012-07-07T16:28:09Z</time>
      </trkpt>
      <trkpt lat="45.07664" lon="6.0474">
        <ele>1247</ele>
        <time>2012-07-07T16:28:14Z</time>
      </trkpt>
      <trkpt lat="45.07663" lon="6.04754">
        <ele>1248</ele>
        <time>2012-07-07T16:28:19Z</time>
      </trkpt>
      <trkpt lat="45.07657" lon="6.04769">
        <ele>1240</ele>
        <time>2012-07-07T16:28:24Z</time>
      </trkpt>
      <trkpt lat="45.07651" lon="6.04783">
        <ele>1236</ele>
        <time>2012-07-07T16:28:29Z</time>
      </trkpt>
      <trkpt lat="45.07648" lon="6.04798">
        <ele>1236</ele>
        <time>2012-07-07T16:28:34Z</time>
      </trkpt>
      <trkpt lat="45.07648" lon="6.04811">
        <ele>1237</ele>
        <time>2012-07-07T16:28:39Z</time>
      </trkpt>
      <trkpt lat="45.07652" lon="6.04823">
        <ele>1241</ele>
        <time>2012-07-07T16:28:44Z</time>
      </trkpt>
      <trkpt lat="45.07655" lon="6.04845">
        <ele>1242</ele>
        <time>2012-07-07T16:28:49Z</time>
      </trkpt>
      <trkpt lat="45.07659" lon="6.04857">
        <ele>1240</ele>
        <time>2012-07-07T16:28:54Z</time>
      </trkpt>
      <trkpt lat="45.07665" lon="6.04869">
        <ele>1239</ele>
        <time>2012-07-07T16:28:59Z</time>
      </trkpt>
      <trkpt lat="45.07668" lon="6.04882">
        <ele>1272</ele>
        <time>2012-07-07T16:29:04Z</time>
      </trkpt>
      <trkpt lat="45.0767" lon="6.04899">
        <ele>1268</ele>
        <time>2012-07-07T16:29:09Z</time>
      </trkpt>
      <trkpt lat="45.0767" lon="6.04911">
        <ele>1261</ele>
        <time>2012-07-07T16:29:14Z</time>
      </trkpt>
      <trkpt lat="45.0767" lon="6.04926">
        <ele>1265</ele>
        <time>2012-07-07T16:29:19Z</time>
      </trkpt>
      <trkpt lat="45.07669" lon="6.04942">
        <ele>1274</ele>
        <time>2012-07-07T16:29:24Z</time>
      </trkpt>
      <trkpt lat="45.07668" lon="6.04952">
        <ele>1277</ele>
        <time>2012-07-07T16:29:29Z</time>
      </trkpt>
      <trkpt lat="45.07664" lon="6.04963">
        <ele>1247</ele>
        <time>2012-07-07T16:29:34Z</time>
      </trkpt>
      <trkpt lat="45.0766" lon="6.04975">
        <ele>1250</ele>
        <time>2012-07-07T16:29:39Z</time>
      </trkpt>
      <trkpt lat="45.07654" lon="6.04995">
        <ele>1256</ele>
        <time>2012-07-07T16:29:44Z</time>
      </trkpt>
      <trkpt lat="45.07652" lon="6.05008">
        <ele>1263</ele>
        <time>2012-07-07T16:29:49Z</time>
      </trkpt>
      <trkpt lat="45.0765" lon="6.05026">
        <ele>1263</ele>
        <time>2012-07-07T16:29:54Z</time>
      </trkpt>
      <trkpt lat="45.0765" lon="6.05038">
        <ele>1263</ele>
        <time>2012-07-07T16:29:59Z</time>
      </trkpt>
      <trkpt lat="45.07647" lon="6.05053">
        <ele>1266</ele>
        <time>2012-07-07T16:30:04Z</time>
      </trkpt>
      <trkpt lat="45.07646" lon="6.05067">
        <ele>1269</ele>
        <time>2012-07-07T16:30:09Z</time>
      </trkpt>
      <trkpt lat="45.07644" lon="6.05081">
        <ele>1271</ele>
        <time>2012-07-07T16:30:14Z</time>
      </trkpt>
      <trkpt lat="45.07637" lon="6.05096">
        <ele>1284</ele>
        <time>2012-07-07T16:30:19Z</time>
      </trkpt>
      <trkpt lat="45.07631" lon="6.05105">
        <ele>1283</ele>
        <time>2012-07-07T16:30:24Z</time>
      </trkpt>
      <trkpt lat="45.07622" lon="6.05119">
        <ele>1283</ele>
        <time>2012-07-07T16:30:29Z</time>
      </trkpt>
      <trkpt lat="45.07617" lon="6.05127">
        <ele>1284</ele>
        <time>2012-07-07T16:30:34Z</time>
      </trkpt>
      <trkpt lat="45.07609" lon="6.05139">
        <ele>1284</ele>
        <time>2012-07-07T16:30:39Z</time>
      </trkpt>
      <trkpt lat="45.07603" lon="6.05147">
        <ele>1284</ele>
        <time>2012-07-07T16:30:44Z</time>
      </trkpt>
      <trkpt lat="45.07596" lon="6.05156">
        <ele>1284</ele>
        <time>2012-07-07T16:30:49Z</time>
      </trkpt>
      <trkpt lat="45.07587" lon="6.05163">
        <ele>1284</ele>
        <time>2012-07-07T16:30:54Z</time>
      </trkpt>
      <trkpt lat="45.07578" lon="6.05166">
        <ele>1278</ele>
        <time>2012-07-07T16:30:59Z</time>
      </trkpt>
      <trkpt lat="45.07568" lon="6.0517">
        <ele>1288</ele>
        <time>2012-07-07T16:31:04Z</time>
      </trkpt>
      <trkpt lat="45.0756" lon="6.05174">
        <ele>1289</ele>
        <time>2012-07-07T16:31:09Z</time>
      </trkpt>
      <trkpt lat="45.0755" lon="6.05176">
        <ele>1289</ele>
        <time>2012-07-07T16:31:14Z</time>
      </trkpt>
      <trkpt lat="45.07542" lon="6.05179">
        <ele>1288</ele>
        <time>2012-07-07T16:31:19Z</time>
      </trkpt>
      <trkpt lat="45.07531" lon="6.0519">
        <ele>1288</ele>
        <time>2012-07-07T16:31:24Z</time>
      </trkpt>
      <trkpt lat="45.07523" lon="6.05198">
        <ele>1290</ele>
        <time>2012-07-07T16:31:29Z</time>
      </trkpt>
      <trkpt lat="45.07514" lon="6.05208">
        <ele>1293</ele>
        <time>2012-07-07T16:31:34Z</time>
      </trkpt>
      <trkpt lat="45.07504" lon="6.05216">
        <ele>1295</ele>
        <time>2012-07-07T16:31:39Z</time>
      </trkpt>
      <trkpt lat="45.07492" lon="6.05223">
        <ele>1281</ele>
        <time>2012-07-07T16:31:44Z</time>
      </trkpt>
      <trkpt lat="45.07485" lon="6.05226">
        <ele>1281</ele>
        <time>2012-07-07T16:31:49Z</time>
      </trkpt>
      <trkpt lat="45.07476" lon="6.05237">
        <ele>1283</ele>
        <time>2012-07-07T16:31:54Z</time>
      </trkpt>
      <trkpt lat="45.07482" lon="6.05251">
        <ele>1309</ele>
        <time>2012-07-07T16:31:59Z</time>
      </trkpt>
      <trkpt lat="45.07496" lon="6.05249">
        <ele>1303</ele>
        <time>2012-07-07T16:32:04Z</time>
      </trkpt>
      <trkpt lat="45.07509" lon="6.05239">
        <ele>1304</ele>
        <time>2012-07-07T16:32:09Z</time>
      </trkpt>
      <trkpt lat="45.07516" lon="6.05234">
        <ele>1301</ele>
        <time>2012-07-07T16:32:14Z</time>
      </trkpt>
      <trkpt lat="45.07528" lon="6.05229">
        <ele>1300</ele>
        <time>2012-07-07T16:32:19Z</time>
      </trkpt>
      <trkpt lat="45.07537" lon="6.05227">
        <ele>1300</ele>
        <time>2012-07-07T16:32:24Z</time>
      </trkpt>
      <trkpt lat="45.07547" lon="6.05222">
        <ele>1300</ele>
        <time>2012-07-07T16:32:29Z</time>
      </trkpt>
      <trkpt lat="45.07557" lon="6.05219">
        <ele>1301</ele>
        <time>2012-07-07T16:32:34Z</time>
      </trkpt>
      <trkpt lat="45.0757" lon="6.05214">
        <ele>1301</ele>
        <time>2012-07-07T16:32:39Z</time>
      </trkpt>
      <trkpt lat="45.07578" lon="6.0521">
        <ele>1300</ele>
        <time>2012-07-07T16:32:44Z</time>
      </trkpt>
      <trkpt lat="45.07587" lon="6.05206">
        <ele>1313</ele>
        <time>2012-07-07T16:32:49Z</time>
      </trkpt>
      <trkpt lat="45.07598" lon="6.05204">
        <ele>1314</ele>
        <time>2012-07-07T16:32:54Z</time>
      </trkpt>
      <trkpt lat="45.07608" lon="6.05198">
        <ele>1313</ele>
        <time>2012-07-07T16:32:59Z</time>
      </trkpt>
      <trkpt lat="45.07621" lon="6.05188">
        <ele>1313</ele>
        <time>2012-07-07T16:33:04Z</time>
      </trkpt>
      <trkpt lat="45.07629" lon="6.05181">
        <ele>1314</ele>
        <time>2012-07-07T16:33:09Z</time>
      </trkpt>
      <trkpt lat="45.07642" lon="6.05181">
        <ele>1316</ele>
        <time>2012-07-07T16:33:14Z</time>
      </trkpt>
      <trkpt lat="45.07649" lon="6.0518">
        <ele>1316</ele>
        <time>2012-07-07T16:33:19Z</time>
      </trkpt>
      <trkpt lat="45.07661" lon="6.05178">
        <ele>1316</ele>
        <time>2012-07-07T16:33:24Z</time>
      </trkpt>
      <trkpt lat="45.07669" lon="6.05176">
        <ele>1325</ele>
        <time>2012-07-07T16:33:29Z</time>
      </trkpt>
      <trkpt lat="45.07679" lon="6.05169">
        <ele>1329</ele>
        <time>2012-07-07T16:33:34Z</time>
      </trkpt>
      <trkpt lat="45.07686" lon="6.05162">
        <ele>1321</ele>
        <time>2012-07-07T16:33:39Z</time>
      </trkpt>
      <trkpt lat="45.07693" lon="6.05151">
        <ele>1323</ele>
        <time>2012-07-07T16:33:44Z</time>
      </trkpt>
      <trkpt lat="45.07702" lon="6.0514">
        <ele>1325</ele>
        <time>2012-07-07T16:33:49Z</time>
      </trkpt>
      <trkpt lat="45.07707" lon="6.05133">
        <ele>1325</ele>
        <time>2012-07-07T16:33:54Z</time>
      </trkpt>
      <trkpt lat="45.07714" lon="6.0512">
        <ele>1325</ele>
        <time>2012-07-07T16:33:59Z</time>
      </trkpt>
      <trkpt lat="45.07719" lon="6.0511">
        <ele>1326</ele>
        <time>2012-07-07T16:34:04Z</time>
      </trkpt>
      <trkpt lat="45.07725" lon="6.05096">
        <ele>1327</ele>
        <time>2012-07-07T16:34:09Z</time>
      </trkpt>
      <trkpt lat="45.0773" lon="6.05087">
        <ele>1329</ele>
        <time>2012-07-07T16:34:14Z</time>
      </trkpt>
      <trkpt lat="45.07737" lon="6.05074">
        <ele>1321</ele>
        <time>2012-07-07T16:34:19Z</time>
      </trkpt>
      <trkpt lat="45.07742" lon="6.05066">
        <ele>1319</ele>
        <time>2012-07-07T16:34:24Z</time>
      </trkpt>
      <trkpt lat="45.07749" lon="6.05055">
        <ele>1316</ele>
        <time>2012-07-07T16:34:29Z</time>
      </trkpt>
      <trkpt lat="45.07756" lon="6.05042">
        <ele>1342</ele>
        <time>2012-07-07T16:34:34Z</time>
      </trkpt>
      <trkpt lat="45.07763" lon="6.05031">
        <ele>1341</ele>
        <time>2012-07-07T16:34:39Z</time>
      </trkpt>
      <trkpt lat="45.07772" lon="6.05014">
        <ele>1339</ele>
        <time>2012-07-07T16:34:44Z</time>
      </trkpt>
      <trkpt lat="45.07778" lon="6.05004">
        <ele>1340</ele>
        <time>2012-07-07T16:34:49Z</time>
      </trkpt>
      <trkpt lat="45.07783" lon="6.04993">
        <ele>1335</ele>
        <time>2012-07-07T16:34:54Z</time>
      </trkpt>
      <trkpt lat="45.07787" lon="6.04983">
        <ele>1337</ele>
        <time>2012-07-07T16:34:59Z</time>
      </trkpt>
      <trkpt lat="45.07794" lon="6.04966">
        <ele>1338</ele>
        <time>2012-07-07T16:35:04Z</time>
      </trkpt>
      <trkpt lat="45.07797" lon="6.04958">
        <ele>1339</ele>
        <time>2012-07-07T16:35:09Z</time>
      </trkpt>
      <trkpt lat="45.078" lon="6.04948">
        <ele>1339</ele>
        <time>2012-07-07T16:35:14Z</time>
      </trkpt>
      <trkpt lat="45.07801" lon="6.0494">
        <ele>1340</ele>
        <time>2012-07-07T16:35:19Z</time>
      </trkpt>
      <trkpt lat="45.07796" lon="6.04932">
        <ele>1338</ele>
        <time>2012-07-07T16:35:24Z</time>
      </trkpt>
      <trkpt lat="45.07794" lon="6.04918">
        <ele>1337</ele>
        <time>2012-07-07T16:35:29Z</time>
      </trkpt>
      <trkpt lat="45.07788" lon="6.04906">
        <ele>1335</ele>
        <time>2012-07-07T16:35:34Z</time>
      </trkpt>
      <trkpt lat="45.07788" lon="6.04888">
        <ele>1336</ele>
        <time>2012-07-07T16:35:39Z</time>
      </trkpt>
      <trkpt lat="45.07789" lon="6.04876">
        <ele>1337</ele>
        <time>2012-07-07T16:35:44Z</time>
      </trkpt>
      <trkpt lat="45.07791" lon="6.04857">
        <ele>1339</ele>
        <time>2012-07-07T16:35:49Z</time>
      </trkpt>
      <trkpt lat="45.07791" lon="6.04845">
        <ele>1339</ele>
        <time>2012-07-07T16:35:54Z</time>
      </trkpt>
      <trkpt lat="45.07788" lon="6.04828">
        <ele>1341</ele>
        <time>2012-07-07T16:35:59Z</time>
      </trkpt>
      <trkpt lat="45.07785" lon="6.04816">
        <ele>1341</ele>
        <time>2012-07-07T16:36:04Z</time>
      </trkpt>
      <trkpt lat="45.07781" lon="6.04798">
        <ele>1340</ele>
        <time>2012-07-07T16:36:09Z</time>
      </trkpt>
      <trkpt lat="45.07782" lon="6.04787">
        <ele>1341</ele>
        <time>2012-07-07T16:36:14Z</time>
      </trkpt>
      <trkpt lat="45.07792" lon="6.04785">
        <ele>1344</ele>
        <time>2012-07-07T16:36:19Z</time>
      </trkpt>
      <trkpt lat="45.07796" lon="6.04804">
        <ele>1345</ele>
        <time>2012-07-07T16:36:24Z</time>
      </trkpt>
      <trkpt lat="45.07799" lon="6.04821">
        <ele>1347</ele>
        <time>2012-07-07T16:36:29Z</time>
      </trkpt>
      <trkpt lat="45.07801" lon="6.04842">
        <ele>1344</ele>
        <time>2012-07-07T16:36:34Z</time>
      </trkpt>
      <trkpt lat="45.07805" lon="6.04853">
        <ele>1345</ele>
        <time>2012-07-07T16:36:39Z</time>
      </trkpt>
      <trkpt lat="45.0781" lon="6.04869">
        <ele>1344</ele>
        <time>2012-07-07T16:36:44Z</time>
      </trkpt>
      <trkpt lat="45.07814" lon="6.04879">
        <ele>1344</ele>
        <time>2012-07-07T16:36:49Z</time>
      </trkpt>
      <trkpt lat="45.07821" lon="6.04891">
        <ele>1346</ele>
        <time>2012-07-07T16:36:54Z</time>
      </trkpt>
      <trkpt lat="45.07828" lon="6.04904">
        <ele>1349</ele>
        <time>2012-07-07T16:36:59Z</time>
      </trkpt>
      <trkpt lat="45.07835" lon="6.04921">
        <ele>1362</ele>
        <time>2012-07-07T16:37:04Z</time>
      </trkpt>
      <trkpt lat="45.07838" lon="6.04933">
        <ele>1371</ele>
        <time>2012-07-07T16:37:09Z</time>
      </trkpt>
      <trkpt lat="45.07839" lon="6.04946">
        <ele>1376</ele>
        <time>2012-07-07T16:37:14Z</time>
      </trkpt>
      <trkpt lat="45.07839" lon="6.0496">
        <ele>1378</ele>
        <time>2012-07-07T16:37:19Z</time>
      </trkpt>
      <trkpt lat="45.07841" lon="6.04974">
        <ele>1377</ele>
        <time>2012-07-07T16:37:24Z</time>
      </trkpt>
      <trkpt lat="45.07838" lon="6.04991">
        <ele>1371</ele>
        <time>2012-07-07T16:37:29Z</time>
      </trkpt>
      <trkpt lat="45.07839" lon="6.05003">
        <ele>1371</ele>
        <time>2012-07-07T16:37:34Z</time>
      </trkpt>
      <trkpt lat="45.07835" lon="6.0502">
        <ele>1381</ele>
        <time>2012-07-07T16:37:39Z</time>
      </trkpt>
      <trkpt lat="45.07832" lon="6.05031">
        <ele>1356</ele>
        <time>2012-07-07T16:37:44Z</time>
      </trkpt>
      <trkpt lat="45.07828" lon="6.05046">
        <ele>1357</ele>
        <time>2012-07-07T16:37:49Z</time>
      </trkpt>
      <trkpt lat="45.07823" lon="6.05059">
        <ele>1360</ele>
        <time>2012-07-07T16:37:54Z</time>
      </trkpt>
      <trkpt lat="45.07819" lon="6.05072">
        <ele>1363</ele>
        <time>2012-07-07T16:37:59Z</time>
      </trkpt>
      <trkpt lat="45.07815" lon="6.05085">
        <ele>1372</ele>
        <time>2012-07-07T16:38:04Z</time>
      </trkpt>
      <trkpt lat="45.07809" lon="6.05097">
        <ele>1370</ele>
        <time>2012-07-07T16:38:09Z</time>
      </trkpt>
      <trkpt lat="45.07805" lon="6.0511">
        <ele>1370</ele>
        <time>2012-07-07T16:38:14Z</time>
      </trkpt>
      <trkpt lat="45.078" lon="6.05123">
        <ele>1370</ele>
        <time>2012-07-07T16:38:19Z</time>
      </trkpt>
      <trkpt lat="45.07794" lon="6.05139">
        <ele>1371</ele>
        <time>2012-07-07T16:38:24Z</time>
      </trkpt>
      <trkpt lat="45.0779" lon="6.05149">
        <ele>1371</ele>
        <time>2012-07-07T16:38:29Z</time>
      </trkpt>
      <trkpt lat="45.07784" lon="6.05164">
        <ele>1369</ele>
        <time>2012-07-07T16:38:34Z</time>
      </trkpt>
      <trkpt lat="45.0778" lon="6.05174">
        <ele>1381</ele>
        <time>2012-07-07T16:38:39Z</time>
      </trkpt>
      <trkpt lat="45.07775" lon="6.05191">
        <ele>1382</ele>
        <time>2012-07-07T16:38:44Z</time>
      </trkpt>
      <trkpt lat="45.07773" lon="6.05202">
        <ele>1384</ele>
        <time>2012-07-07T16:38:49Z</time>
      </trkpt>
      <trkpt lat="45.07769" lon="6.05219">
        <ele>1386</ele>
        <time>2012-07-07T16:38:54Z</time>
      </trkpt>
      <trkpt lat="45.07765" lon="6.0523">
        <ele>1386</ele>
        <time>2012-07-07T16:38:59Z</time>
      </trkpt>
      <trkpt lat="45.0776" lon="6.05242">
        <ele>1385</ele>
        <time>2012-07-07T16:39:04Z</time>
      </trkpt>
      <trkpt lat="45.07752" lon="6.05257">
        <ele>1388</ele>
        <time>2012-07-07T16:39:09Z</time>
      </trkpt>
      <trkpt lat="45.07748" lon="6.05267">
        <ele>1378</ele>
        <time>2012-07-07T16:39:14Z</time>
      </trkpt>
      <trkpt lat="45.07739" lon="6.05281">
        <ele>1377</ele>
        <time>2012-07-07T16:39:19Z</time>
      </trkpt>
      <trkpt lat="45.07732" lon="6.05289">
        <ele>1376</ele>
        <time>2012-07-07T16:39:24Z</time>
      </trkpt>
      <trkpt lat="45.07721" lon="6.053">
        <ele>1375</ele>
        <time>2012-07-07T16:39:29Z</time>
      </trkpt>
      <trkpt lat="45.07715" lon="6.05309">
        <ele>1375</ele>
        <time>2012-07-07T16:39:34Z</time>
      </trkpt>
      <trkpt lat="45.07707" lon="6.0532">
        <ele>1374</ele>
        <time>2012-07-07T16:39:39Z</time>
      </trkpt>
      <trkpt lat="45.07705" lon="6.05335">
        <ele>1374</ele>
        <time>2012-07-07T16:39:44Z</time>
      </trkpt>
      <trkpt lat="45.0771" lon="6.05349">
        <ele>1375</ele>
        <time>2012-07-07T16:39:49Z</time>
      </trkpt>
      <trkpt lat="45.07718" lon="6.05358">
        <ele>1376</ele>
        <time>2012-07-07T16:39:54Z</time>
      </trkpt>
      <trkpt lat="45.07724" lon="6.05362">
        <ele>1376</ele>
        <time>2012-07-07T16:39:59Z</time>
      </trkpt>
      <trkpt lat="45.07729" lon="6.05364">
        <ele>1377</ele>
        <time>2012-07-07T16:40:04Z</time>
      </trkpt>
      <trkpt lat="45.07731" lon="6.05364">
        <ele>1377</ele>
        <time>2012-07-07T16:40:09Z</time>
      </trkpt>
      <trkpt lat="45.07733" lon="6.05366">
        <ele>1377</ele>
        <time>2012-07-07T16:40:14Z</time>
      </trkpt>
      <trkpt lat="45.07734" lon="6.05367">
        <ele>1377</ele>
        <time>2012-07-07T16:40:19Z</time>
      </trkpt>
      <trkpt lat="45.07735" lon="6.05367">
        <ele>1377</ele>
        <time>2012-07-07T16:40:24Z</time>
      </trkpt>
      <trkpt lat="45.07736" lon="6.05366">
        <ele>1377</ele>
        <time>2012-07-07T16:40:29Z</time>
      </trkpt>
      <trkpt lat="45.07735" lon="6.05365">
        <ele>1378</ele>
        <time>2012-07-07T16:40:34Z</time>
      </trkpt>
      <trkpt lat="45.07735" lon="6.05365">
        <ele>1378</ele>
        <time>2012-07-07T16:40:39Z</time>
      </trkpt>
      <trkpt lat="45.07735" lon="6.05362">
        <ele>1378</ele>
        <time>2012-07-07T16:40:44Z</time>
      </trkpt>
      <trkpt lat="45.07736" lon="6.05361">
        <ele>1378</ele>
        <time>2012-07-07T16:40:49Z</time>
      </trkpt>
      <trkpt lat="45.07735" lon="6.05361">
        <ele>1378</ele>
        <time>2012-07-07T16:40:54Z</time>
      </trkpt>
      <trkpt lat="45.07735" lon="6.0536">
        <ele>1378</ele>
        <time>2012-07-07T16:40:59Z</time>
      </trkpt>
      <trkpt lat="45.07735" lon="6.0536">
        <ele>1378</ele>
        <time>2012-07-07T16:41:04Z</time>
      </trkpt>
      <trkpt lat="45.07743" lon="6.05362">
        <ele>1379</ele>
        <time>2012-07-07T16:41:09Z</time>
      </trkpt>
      <trkpt lat="45.07751" lon="6.05363">
        <ele>1395</ele>
        <time>2012-07-07T16:41:14Z</time>
      </trkpt>
      <trkpt lat="45.0776" lon="6.05365">
        <ele>1395</ele>
        <time>2012-07-07T16:41:19Z</time>
      </trkpt>
      <trkpt lat="45.0777" lon="6.05371">
        <ele>1396</ele>
        <time>2012-07-07T16:41:24Z</time>
      </trkpt>
      <trkpt lat="45.07782" lon="6.05379">
        <ele>1397</ele>
        <time>2012-07-07T16:41:29Z</time>
      </trkpt>
      <trkpt lat="45.07789" lon="6.05386">
        <ele>1397</ele>
        <time>2012-07-07T16:41:34Z</time>
      </trkpt>
      <trkpt lat="45.07798" lon="6.05394">
        <ele>1398</ele>
        <time>2012-07-07T16:41:39Z</time>
      </trkpt>
      <trkpt lat="45.07807" lon="6.05403">
        <ele>1400</ele>
        <time>2012-07-07T16:41:44Z</time>
      </trkpt>
      <trkpt lat="45.07816" lon="6.0541">
        <ele>1401</ele>
        <time>2012-07-07T16:41:49Z</time>
      </trkpt>
      <trkpt lat="45.07827" lon="6.05417">
        <ele>1400</ele>
        <time>2012-07-07T16:41:54Z</time>
      </trkpt>
      <trkpt lat="45.07835" lon="6.05421">
        <ele>1405</ele>
        <time>2012-07-07T16:41:59Z</time>
      </trkpt>
      <trkpt lat="45.07846" lon="6.05429">
        <ele>1404</ele>
        <time>2012-07-07T16:42:04Z</time>
      </trkpt>
      <trkpt lat="45.07854" lon="6.05431">
        <ele>1404</ele>
        <time>2012-07-07T16:42:09Z</time>
      </trkpt>
      <trkpt lat="45.07864" lon="6.05436">
        <ele>1405</ele>
        <time>2012-07-07T16:42:14Z</time>
      </trkpt>
      <trkpt lat="45.07874" lon="6.05442">
        <ele>1405</ele>
        <time>2012-07-07T16:42:19Z</time>
      </trkpt>
      <trkpt lat="45.07886" lon="6.05449">
        <ele>1406</ele>
        <time>2012-07-07T16:42:24Z</time>
      </trkpt>
      <trkpt lat="45.07894" lon="6.05454">
        <ele>1406</ele>
        <time>2012-07-07T16:42:29Z</time>
      </trkpt>
      <trkpt lat="45.07904" lon="6.0546">
        <ele>1406</ele>
        <time>2012-07-07T16:42:34Z</time>
      </trkpt>
      <trkpt lat="45.07915" lon="6.05467">
        <ele>1406</ele>
        <time>2012-07-07T16:42:39Z</time>
      </trkpt>
      <trkpt lat="45.07923" lon="6.0547">
        <ele>1418</ele>
        <time>2012-07-07T16:42:44Z</time>
      </trkpt>
      <trkpt lat="45.07935" lon="6.05471">
        <ele>1419</ele>
        <time>2012-07-07T16:42:49Z</time>
      </trkpt>
      <trkpt lat="45.07943" lon="6.05468">
        <ele>1420</ele>
        <time>2012-07-07T16:42:54Z</time>
      </trkpt>
      <trkpt lat="45.07954" lon="6.05464">
        <ele>1422</ele>
        <time>2012-07-07T16:42:59Z</time>
      </trkpt>
      <trkpt lat="45.07963" lon="6.05462">
        <ele>1423</ele>
        <time>2012-07-07T16:43:04Z</time>
      </trkpt>
      <trkpt lat="45.07974" lon="6.05462">
        <ele>1424</ele>
        <time>2012-07-07T16:43:09Z</time>
      </trkpt>
      <trkpt lat="45.07985" lon="6.05463">
        <ele>1425</ele>
        <time>2012-07-07T16:43:14Z</time>
      </trkpt>
      <trkpt lat="45.07997" lon="6.05465">
        <ele>1425</ele>
        <time>2012-07-07T16:43:19Z</time>
      </trkpt>
      <trkpt lat="45.08007" lon="6.05468">
        <ele>1433</ele>
        <time>2012-07-07T16:43:24Z</time>
      </trkpt>
      <trkpt lat="45.08018" lon="6.05471">
        <ele>1433</ele>
        <time>2012-07-07T16:43:29Z</time>
      </trkpt>
      <trkpt lat="45.0803" lon="6.05473">
        <ele>1434</ele>
        <time>2012-07-07T16:43:34Z</time>
      </trkpt>
      <trkpt lat="45.08038" lon="6.05476">
        <ele>1435</ele>
        <time>2012-07-07T16:43:39Z</time>
      </trkpt>
      <trkpt lat="45.0805" lon="6.05478">
        <ele>1436</ele>
        <time>2012-07-07T16:43:44Z</time>
      </trkpt>
      <trkpt lat="45.08058" lon="6.05482">
        <ele>1436</ele>
        <time>2012-07-07T16:43:49Z</time>
      </trkpt>
      <trkpt lat="45.08068" lon="6.05496">
        <ele>1435</ele>
        <time>2012-07-07T16:43:54Z</time>
      </trkpt>
      <trkpt lat="45.08073" lon="6.05508">
        <ele>1433</ele>
        <time>2012-07-07T16:43:59Z</time>
      </trkpt>
      <trkpt lat="45.08077" lon="6.05524">
        <ele>1434</ele>
        <time>2012-07-07T16:44:04Z</time>
      </trkpt>
      <trkpt lat="45.08076" lon="6.05539">
        <ele>1435</ele>
        <time>2012-07-07T16:44:09Z</time>
      </trkpt>
      <trkpt lat="45.08068" lon="6.05552">
        <ele>1436</ele>
        <time>2012-07-07T16:44:14Z</time>
      </trkpt>
      <trkpt lat="45.08059" lon="6.05559">
        <ele>1436</ele>
        <time>2012-07-07T16:44:19Z</time>
      </trkpt>
      <trkpt lat="45.08051" lon="6.05565">
        <ele>1435</ele>
        <time>2012-07-07T16:44:24Z</time>
      </trkpt>
      <trkpt lat="45.08041" lon="6.05571">
        <ele>1434</ele>
        <time>2012-07-07T16:44:29Z</time>
      </trkpt>
      <trkpt lat="45.08033" lon="6.05576">
        <ele>1432</ele>
        <time>2012-07-07T16:44:34Z</time>
      </trkpt>
      <trkpt lat="45.08023" lon="6.05588">
        <ele>1436</ele>
        <time>2012-07-07T16:44:39Z</time>
      </trkpt>
      <trkpt lat="45.08018" lon="6.05597">
        <ele>1436</ele>
        <time>2012-07-07T16:44:44Z</time>
      </trkpt>
      <trkpt lat="45.08012" lon="6.05614">
        <ele>1437</ele>
        <time>2012-07-07T16:44:49Z</time>
      </trkpt>
      <trkpt lat="45.0801" lon="6.05628">
        <ele>1438</ele>
        <time>2012-07-07T16:44:54Z</time>
      </trkpt>
      <trkpt lat="45.08007" lon="6.05648">
        <ele>1437</ele>
        <time>2012-07-07T16:44:59Z</time>
      </trkpt>
      <trkpt lat="45.08006" lon="6.05661">
        <ele>1435</ele>
        <time>2012-07-07T16:45:04Z</time>
      </trkpt>
      <trkpt lat="45.08006" lon="6.05678">
        <ele>1438</ele>
        <time>2012-07-07T16:45:09Z</time>
      </trkpt>
      <trkpt lat="45.08009" lon="6.05695">
        <ele>1442</ele>
        <time>2012-07-07T16:45:14Z</time>
      </trkpt>
      <trkpt lat="45.08015" lon="6.05711">
        <ele>1443</ele>
        <time>2012-07-07T16:45:19Z</time>
      </trkpt>
      <trkpt lat="45.08024" lon="6.0573">
        <ele>1443</ele>
        <time>2012-07-07T16:45:24Z</time>
      </trkpt>
      <trkpt lat="45.08029" lon="6.05742">
        <ele>1444</ele>
        <time>2012-07-07T16:45:29Z</time>
      </trkpt>
      <trkpt lat="45.08038" lon="6.05761">
        <ele>1442</ele>
        <time>2012-07-07T16:45:34Z</time>
      </trkpt>
      <trkpt lat="45.08042" lon="6.05775">
        <ele>1442</ele>
        <time>2012-07-07T16:45:39Z</time>
      </trkpt>
      <trkpt lat="45.08047" lon="6.0579">
        <ele>1443</ele>
        <time>2012-07-07T16:45:44Z</time>
      </trkpt>
      <trkpt lat="45.08053" lon="6.05804">
        <ele>1443</ele>
        <time>2012-07-07T16:45:49Z</time>
      </trkpt>
      <trkpt lat="45.0806" lon="6.0582">
        <ele>1445</ele>
        <time>2012-07-07T16:45:54Z</time>
      </trkpt>
      <trkpt lat="45.08064" lon="6.05832">
        <ele>1447</ele>
        <time>2012-07-07T16:45:59Z</time>
      </trkpt>
      <trkpt lat="45.0807" lon="6.05845">
        <ele>1443</ele>
        <time>2012-07-07T16:46:04Z</time>
      </trkpt>
      <trkpt lat="45.08076" lon="6.05858">
        <ele>1441</ele>
        <time>2012-07-07T16:46:09Z</time>
      </trkpt>
      <trkpt lat="45.08082" lon="6.05871">
        <ele>1439</ele>
        <time>2012-07-07T16:46:14Z</time>
      </trkpt>
      <trkpt lat="45.08091" lon="6.05883">
        <ele>1461</ele>
        <time>2012-07-07T16:46:19Z</time>
      </trkpt>
      <trkpt lat="45.08097" lon="6.0589">
        <ele>1461</ele>
        <time>2012-07-07T16:46:24Z</time>
      </trkpt>
      <trkpt lat="45.08103" lon="6.05902">
        <ele>1460</ele>
        <time>2012-07-07T16:46:29Z</time>
      </trkpt>
      <trkpt lat="45.08109" lon="6.05914">
        <ele>1461</ele>
        <time>2012-07-07T16:46:34Z</time>
      </trkpt>
      <trkpt lat="45.08115" lon="6.05929">
        <ele>1459</ele>
        <time>2012-07-07T16:46:39Z</time>
      </trkpt>
      <trkpt lat="45.08118" lon="6.0594">
        <ele>1461</ele>
        <time>2012-07-07T16:46:44Z</time>
      </trkpt>
      <trkpt lat="45.08125" lon="6.05955">
        <ele>1462</ele>
        <time>2012-07-07T16:46:49Z</time>
      </trkpt>
      <trkpt lat="45.0813" lon="6.05966">
        <ele>1463</ele>
        <time>2012-07-07T16:46:54Z</time>
      </trkpt>
      <trkpt lat="45.08136" lon="6.05981">
        <ele>1464</ele>
        <time>2012-07-07T16:46:59Z</time>
      </trkpt>
      <trkpt lat="45.08145" lon="6.05995">
        <ele>1467</ele>
        <time>2012-07-07T16:47:04Z</time>
      </trkpt>
      <trkpt lat="45.08149" lon="6.06004">
        <ele>1465</ele>
        <time>2012-07-07T16:47:09Z</time>
      </trkpt>
      <trkpt lat="45.08155" lon="6.0602">
        <ele>1464</ele>
        <time>2012-07-07T16:47:14Z</time>
      </trkpt>
      <trkpt lat="45.08158" lon="6.0603">
        <ele>1462</ele>
        <time>2012-07-07T16:47:19Z</time>
      </trkpt>
      <trkpt lat="45.08163" lon="6.06046">
        <ele>1461</ele>
        <time>2012-07-07T16:47:24Z</time>
      </trkpt>
      <trkpt lat="45.08166" lon="6.06057">
        <ele>1462</ele>
        <time>2012-07-07T16:47:29Z</time>
      </trkpt>
      <trkpt lat="45.08171" lon="6.06071">
        <ele>1479</ele>
        <time>2012-07-07T16:47:34Z</time>
      </trkpt>
      <trkpt lat="45.08174" lon="6.06084">
        <ele>1475</ele>
        <time>2012-07-07T16:47:39Z</time>
      </trkpt>
      <trkpt lat="45.08178" lon="6.06098">
        <ele>1478</ele>
        <time>2012-07-07T16:47:44Z</time>
      </trkpt>
      <trkpt lat="45.08182" lon="6.06112">
        <ele>1480</ele>
        <time>2012-07-07T16:47:49Z</time>
      </trkpt>
      <trkpt lat="45.08187" lon="6.06125">
        <ele>1481</ele>
        <time>2012-07-07T16:47:54Z</time>
      </trkpt>
      <trkpt lat="45.08191" lon="6.06142">
        <ele>1480</ele>
        <time>2012-07-07T16:47:59Z</time>
      </trkpt>
      <trkpt lat="45.08193" lon="6.06153">
        <ele>1479</ele>
        <time>2012-07-07T16:48:04Z</time>
      </trkpt>
      <trkpt lat="45.08197" lon="6.06169">
        <ele>1472</ele>
        <time>2012-07-07T16:48:09Z</time>
      </trkpt>
      <trkpt lat="45.08201" lon="6.06181">
        <ele>1473</ele>
        <time>2012-07-07T16:48:14Z</time>
      </trkpt>
      <trkpt lat="45.08206" lon="6.06198">
        <ele>1474</ele>
        <time>2012-07-07T16:48:19Z</time>
      </trkpt>
      <trkpt lat="45.08211" lon="6.06209">
        <ele>1474</ele>
        <time>2012-07-07T16:48:24Z</time>
      </trkpt>
      <trkpt lat="45.08216" lon="6.06224">
        <ele>1475</ele>
        <time>2012-07-07T16:48:29Z</time>
      </trkpt>
      <trkpt lat="45.08224" lon="6.06235">
        <ele>1477</ele>
        <time>2012-07-07T16:48:34Z</time>
      </trkpt>
      <trkpt lat="45.08236" lon="6.06229">
        <ele>1481</ele>
        <time>2012-07-07T16:48:39Z</time>
      </trkpt>
      <trkpt lat="45.08235" lon="6.06212">
        <ele>1480</ele>
        <time>2012-07-07T16:48:44Z</time>
      </trkpt>
      <trkpt lat="45.08227" lon="6.06196">
        <ele>1480</ele>
        <time>2012-07-07T16:48:49Z</time>
      </trkpt>
      <trkpt lat="45.08218" lon="6.06176">
        <ele>1480</ele>
        <time>2012-07-07T16:48:54Z</time>
      </trkpt>
      <trkpt lat="45.08214" lon="6.06162">
        <ele>1486</ele>
        <time>2012-07-07T16:48:59Z</time>
      </trkpt>
      <trkpt lat="45.08213" lon="6.06141">
        <ele>1486</ele>
        <time>2012-07-07T16:49:04Z</time>
      </trkpt>
      <trkpt lat="45.08212" lon="6.06128">
        <ele>1487</ele>
        <time>2012-07-07T16:49:09Z</time>
      </trkpt>
      <trkpt lat="45.08215" lon="6.06108">
        <ele>1488</ele>
        <time>2012-07-07T16:49:14Z</time>
      </trkpt>
      <trkpt lat="45.08214" lon="6.06096">
        <ele>1489</ele>
        <time>2012-07-07T16:49:19Z</time>
      </trkpt>
      <trkpt lat="45.08215" lon="6.06076">
        <ele>1494</ele>
        <time>2012-07-07T16:49:24Z</time>
      </trkpt>
      <trkpt lat="45.08216" lon="6.06063">
        <ele>1494</ele>
        <time>2012-07-07T16:49:29Z</time>
      </trkpt>
      <trkpt lat="45.08217" lon="6.06046">
        <ele>1494</ele>
        <time>2012-07-07T16:49:34Z</time>
      </trkpt>
      <trkpt lat="45.08218" lon="6.0603">
        <ele>1495</ele>
        <time>2012-07-07T16:49:39Z</time>
      </trkpt>
      <trkpt lat="45.08219" lon="6.06014">
        <ele>1496</ele>
        <time>2012-07-07T16:49:44Z</time>
      </trkpt>
      <trkpt lat="45.08221" lon="6.05995">
        <ele>1499</ele>
        <time>2012-07-07T16:49:49Z</time>
      </trkpt>
      <trkpt lat="45.08222" lon="6.05981">
        <ele>1499</ele>
        <time>2012-07-07T16:49:54Z</time>
      </trkpt>
      <trkpt lat="45.08222" lon="6.05961">
        <ele>1498</ele>
        <time>2012-07-07T16:49:59Z</time>
      </trkpt>
      <trkpt lat="45.08223" lon="6.05948">
        <ele>1499</ele>
        <time>2012-07-07T16:50:04Z</time>
      </trkpt>
      <trkpt lat="45.08221" lon="6.05932">
        <ele>1499</ele>
        <time>2012-07-07T16:50:09Z</time>
      </trkpt>
      <trkpt lat="45.08221" lon="6.05916">
        <ele>1501</ele>
        <time>2012-07-07T16:50:14Z</time>
      </trkpt>
      <trkpt lat="45.08222" lon="6.059">
        <ele>1500</ele>
        <time>2012-07-07T16:50:19Z</time>
      </trkpt>
      <trkpt lat="45.08223" lon="6.05882">
        <ele>1500</ele>
        <time>2012-07-07T16:50:24Z</time>
      </trkpt>
      <trkpt lat="45.08224" lon="6.05864">
        <ele>1500</ele>
        <time>2012-07-07T16:50:29Z</time>
      </trkpt>
      <trkpt lat="45.08226" lon="6.05845">
        <ele>1501</ele>
        <time>2012-07-07T16:50:34Z</time>
      </trkpt>
      <trkpt lat="45.08227" lon="6.05825">
        <ele>1500</ele>
        <time>2012-07-07T16:50:39Z</time>
      </trkpt>
      <trkpt lat="45.08231" lon="6.058">
        <ele>1499</ele>
        <time>2012-07-07T16:50:44Z</time>
      </trkpt>
      <trkpt lat="45.08235" lon="6.05785">
        <ele>1498</ele>
        <time>2012-07-07T16:50:49Z</time>
      </trkpt>
      <trkpt lat="45.08247" lon="6.05772">
        <ele>1499</ele>
        <time>2012-07-07T16:50:54Z</time>
      </trkpt>
      <trkpt lat="45.08256" lon="6.05767">
        <ele>1505</ele>
        <time>2012-07-07T16:50:59Z</time>
      </trkpt>
      <trkpt lat="45.08269" lon="6.05764">
        <ele>1507</ele>
        <time>2012-07-07T16:51:04Z</time>
      </trkpt>
      <trkpt lat="45.08279" lon="6.05763">
        <ele>1508</ele>
        <time>2012-07-07T16:51:09Z</time>
      </trkpt>
      <trkpt lat="45.08292" lon="6.05763">
        <ele>1509</ele>
        <time>2012-07-07T16:51:14Z</time>
      </trkpt>
      <trkpt lat="45.08301" lon="6.05763">
        <ele>1510</ele>
        <time>2012-07-07T16:51:19Z</time>
      </trkpt>
      <trkpt lat="45.08313" lon="6.05762">
        <ele>1511</ele>
        <time>2012-07-07T16:51:24Z</time>
      </trkpt>
      <trkpt lat="45.08326" lon="6.0576">
        <ele>1511</ele>
        <time>2012-07-07T16:51:29Z</time>
      </trkpt>
      <trkpt lat="45.08335" lon="6.05758">
        <ele>1514</ele>
        <time>2012-07-07T16:51:34Z</time>
      </trkpt>
      <trkpt lat="45.08348" lon="6.05754">
        <ele>1516</ele>
        <time>2012-07-07T16:51:39Z</time>
      </trkpt>
      <trkpt lat="45.08356" lon="6.05752">
        <ele>1518</ele>
        <time>2012-07-07T16:51:44Z</time>
      </trkpt>
      <trkpt lat="45.08366" lon="6.05761">
        <ele>1520</ele>
        <time>2012-07-07T16:51:49Z</time>
      </trkpt>
      <trkpt lat="45.0836" lon="6.05771">
        <ele>1520</ele>
        <time>2012-07-07T16:51:54Z</time>
      </trkpt>
      <trkpt lat="45.08346" lon="6.05782">
        <ele>1520</ele>
        <time>2012-07-07T16:51:59Z</time>
      </trkpt>
      <trkpt lat="45.08338" lon="6.05792">
        <ele>1521</ele>
        <time>2012-07-07T16:52:04Z</time>
      </trkpt>
      <trkpt lat="45.0833" lon="6.05804">
        <ele>1515</ele>
        <time>2012-07-07T16:52:09Z</time>
      </trkpt>
      <trkpt lat="45.08323" lon="6.05816">
        <ele>1516</ele>
        <time>2012-07-07T16:52:14Z</time>
      </trkpt>
      <trkpt lat="45.08316" lon="6.05831">
        <ele>1517</ele>
        <time>2012-07-07T16:52:19Z</time>
      </trkpt>
      <trkpt lat="45.0831" lon="6.05847">
        <ele>1521</ele>
        <time>2012-07-07T16:52:24Z</time>
      </trkpt>
      <trkpt lat="45.08306" lon="6.05859">
        <ele>1521</ele>
        <time>2012-07-07T16:52:29Z</time>
      </trkpt>
      <trkpt lat="45.08301" lon="6.05876">
        <ele>1521</ele>
        <time>2012-07-07T16:52:34Z</time>
      </trkpt>
      <trkpt lat="45.08299" lon="6.05888">
        <ele>1522</ele>
        <time>2012-07-07T16:52:39Z</time>
      </trkpt>
      <trkpt lat="45.08298" lon="6.05906">
        <ele>1523</ele>
        <time>2012-07-07T16:52:44Z</time>
      </trkpt>
      <trkpt lat="45.08299" lon="6.05917">
        <ele>1528</ele>
        <time>2012-07-07T16:52:49Z</time>
      </trkpt>
      <trkpt lat="45.083" lon="6.05932">
        <ele>1528</ele>
        <time>2012-07-07T16:52:54Z</time>
      </trkpt>
      <trkpt lat="45.083" lon="6.05946">
        <ele>1528</ele>
        <time>2012-07-07T16:52:59Z</time>
      </trkpt>
      <trkpt lat="45.08302" lon="6.0596">
        <ele>1529</ele>
        <time>2012-07-07T16:53:04Z</time>
      </trkpt>
      <trkpt lat="45.08302" lon="6.05975">
        <ele>1529</ele>
        <time>2012-07-07T16:53:09Z</time>
      </trkpt>
      <trkpt lat="45.08304" lon="6.05989">
        <ele>1531</ele>
        <time>2012-07-07T16:53:14Z</time>
      </trkpt>
      <trkpt lat="45.08306" lon="6.06006">
        <ele>1534</ele>
        <time>2012-07-07T16:53:19Z</time>
      </trkpt>
      <trkpt lat="45.08308" lon="6.06017">
        <ele>1534</ele>
        <time>2012-07-07T16:53:24Z</time>
      </trkpt>
      <trkpt lat="45.08312" lon="6.06034">
        <ele>1534</ele>
        <time>2012-07-07T16:53:29Z</time>
      </trkpt>
      <trkpt lat="45.08314" lon="6.06046">
        <ele>1534</ele>
        <time>2012-07-07T16:53:34Z</time>
      </trkpt>
      <trkpt lat="45.08317" lon="6.0606">
        <ele>1536</ele>
        <time>2012-07-07T16:53:39Z</time>
      </trkpt>
      <trkpt lat="45.08319" lon="6.06075">
        <ele>1540</ele>
        <time>2012-07-07T16:53:44Z</time>
      </trkpt>
      <trkpt lat="45.08323" lon="6.06088">
        <ele>1542</ele>
        <time>2012-07-07T16:53:49Z</time>
      </trkpt>
      <trkpt lat="45.08326" lon="6.06102">
        <ele>1538</ele>
        <time>2012-07-07T16:53:54Z</time>
      </trkpt>
      <trkpt lat="45.08329" lon="6.06117">
        <ele>1536</ele>
        <time>2012-07-07T16:53:59Z</time>
      </trkpt>
      <trkpt lat="45.08332" lon="6.06132">
        <ele>1535</ele>
        <time>2012-07-07T16:54:04Z</time>
      </trkpt>
      <trkpt lat="45.08335" lon="6.06146">
        <ele>1556</ele>
        <time>2012-07-07T16:54:09Z</time>
      </trkpt>
      <trkpt lat="45.08338" lon="6.06164">
        <ele>1551</ele>
        <time>2012-07-07T16:54:14Z</time>
      </trkpt>
      <trkpt lat="45.08341" lon="6.06175">
        <ele>1553</ele>
        <time>2012-07-07T16:54:19Z</time>
      </trkpt>
      <trkpt lat="45.08345" lon="6.06191">
        <ele>1558</ele>
        <time>2012-07-07T16:54:24Z</time>
      </trkpt>
      <trkpt lat="45.08348" lon="6.06202">
        <ele>1559</ele>
        <time>2012-07-07T16:54:29Z</time>
      </trkpt>
      <trkpt lat="45.08349" lon="6.06219">
        <ele>1559</ele>
        <time>2012-07-07T16:54:34Z</time>
      </trkpt>
      <trkpt lat="45.08349" lon="6.06232">
        <ele>1556</ele>
        <time>2012-07-07T16:54:39Z</time>
      </trkpt>
      <trkpt lat="45.0835" lon="6.06248">
        <ele>1554</ele>
        <time>2012-07-07T16:54:44Z</time>
      </trkpt>
      <trkpt lat="45.08353" lon="6.06263">
        <ele>1557</ele>
        <time>2012-07-07T16:54:49Z</time>
      </trkpt>
      <trkpt lat="45.08364" lon="6.06263">
        <ele>1562</ele>
        <time>2012-07-07T16:54:54Z</time>
      </trkpt>
      <trkpt lat="45.08368" lon="6.06245">
        <ele>1563</ele>
        <time>2012-07-07T16:54:59Z</time>
      </trkpt>
      <trkpt lat="45.08366" lon="6.06226">
        <ele>1562</ele>
        <time>2012-07-07T16:55:04Z</time>
      </trkpt>
      <trkpt lat="45.08363" lon="6.06205">
        <ele>1562</ele>
        <time>2012-07-07T16:55:09Z</time>
      </trkpt>
      <trkpt lat="45.08363" lon="6.06192">
        <ele>1562</ele>
        <time>2012-07-07T16:55:14Z</time>
      </trkpt>
      <trkpt lat="45.08364" lon="6.06171">
        <ele>1561</ele>
        <time>2012-07-07T16:55:19Z</time>
      </trkpt>
      <trkpt lat="45.08364" lon="6.06159">
        <ele>1561</ele>
        <time>2012-07-07T16:55:24Z</time>
      </trkpt>
      <trkpt lat="45.08367" lon="6.06142">
        <ele>1562</ele>
        <time>2012-07-07T16:55:29Z</time>
      </trkpt>
      <trkpt lat="45.08372" lon="6.06126">
        <ele>1563</ele>
        <time>2012-07-07T16:55:34Z</time>
      </trkpt>
      <trkpt lat="45.08377" lon="6.06112">
        <ele>1564</ele>
        <time>2012-07-07T16:55:39Z</time>
      </trkpt>
      <trkpt lat="45.08383" lon="6.06098">
        <ele>1565</ele>
        <time>2012-07-07T16:55:44Z</time>
      </trkpt>
      <trkpt lat="45.08389" lon="6.06085">
        <ele>1566</ele>
        <time>2012-07-07T16:55:49Z</time>
      </trkpt>
      <trkpt lat="45.08395" lon="6.0607">
        <ele>1565</ele>
        <time>2012-07-07T16:55:54Z</time>
      </trkpt>
      <trkpt lat="45.084" lon="6.06061">
        <ele>1564</ele>
        <time>2012-07-07T16:55:59Z</time>
      </trkpt>
      <trkpt lat="45.08409" lon="6.06049">
        <ele>1564</ele>
        <time>2012-07-07T16:56:04Z</time>
      </trkpt>
      <trkpt lat="45.08416" lon="6.06042">
        <ele>1564</ele>
        <time>2012-07-07T16:56:09Z</time>
      </trkpt>
      <trkpt lat="45.08427" lon="6.06034">
        <ele>1576</ele>
        <time>2012-07-07T16:56:14Z</time>
      </trkpt>
      <trkpt lat="45.08435" lon="6.0603">
        <ele>1576</ele>
        <time>2012-07-07T16:56:19Z</time>
      </trkpt>
      <trkpt lat="45.08446" lon="6.06026">
        <ele>1577</ele>
        <time>2012-07-07T16:56:24Z</time>
      </trkpt>
      <trkpt lat="45.08454" lon="6.06024">
        <ele>1578</ele>
        <time>2012-07-07T16:56:29Z</time>
      </trkpt>
      <trkpt lat="45.08464" lon="6.06021">
        <ele>1579</ele>
        <time>2012-07-07T16:56:34Z</time>
      </trkpt>
      <trkpt lat="45.08475" lon="6.06019">
        <ele>1580</ele>
        <time>2012-07-07T16:56:39Z</time>
      </trkpt>
      <trkpt lat="45.08484" lon="6.06015">
        <ele>1580</ele>
        <time>2012-07-07T16:56:44Z</time>
      </trkpt>
      <trkpt lat="45.08497" lon="6.06011">
        <ele>1581</ele>
        <time>2012-07-07T16:56:49Z</time>
      </trkpt>
      <trkpt lat="45.08505" lon="6.06008">
        <ele>1586</ele>
        <time>2012-07-07T16:56:54Z</time>
      </trkpt>
      <trkpt lat="45.08518" lon="6.06003">
        <ele>1590</ele>
        <time>2012-07-07T16:56:59Z</time>
      </trkpt>
      <trkpt lat="45.08527" lon="6.05999">
        <ele>1584</ele>
        <time>2012-07-07T16:57:04Z</time>
      </trkpt>
      <trkpt lat="45.08539" lon="6.05993">
        <ele>1586</ele>
        <time>2012-07-07T16:57:09Z</time>
      </trkpt>
      <trkpt lat="45.08547" lon="6.05989">
        <ele>1587</ele>
        <time>2012-07-07T16:57:14Z</time>
      </trkpt>
      <trkpt lat="45.08559" lon="6.05982">
        <ele>1589</ele>
        <time>2012-07-07T16:57:19Z</time>
      </trkpt>
      <trkpt lat="45.08567" lon="6.05976">
        <ele>1589</ele>
        <time>2012-07-07T16:57:24Z</time>
      </trkpt>
      <trkpt lat="45.08575" lon="6.05968">
        <ele>1589</ele>
        <time>2012-07-07T16:57:29Z</time>
      </trkpt>
      <trkpt lat="45.08584" lon="6.05958">
        <ele>1600</ele>
        <time>2012-07-07T16:57:34Z</time>
      </trkpt>
      <trkpt lat="45.08593" lon="6.05949">
        <ele>1600</ele>
        <time>2012-07-07T16:57:39Z</time>
      </trkpt>
      <trkpt lat="45.08603" lon="6.05938">
        <ele>1599</ele>
        <time>2012-07-07T16:57:44Z</time>
      </trkpt>
      <trkpt lat="45.0861" lon="6.05931">
        <ele>1599</ele>
        <time>2012-07-07T16:57:49Z</time>
      </trkpt>
      <trkpt lat="45.0862" lon="6.0592">
        <ele>1601</ele>
        <time>2012-07-07T16:57:54Z</time>
      </trkpt>
      <trkpt lat="45.08627" lon="6.05914">
        <ele>1592</ele>
        <time>2012-07-07T16:57:59Z</time>
      </trkpt>
      <trkpt lat="45.08635" lon="6.05905">
        <ele>1593</ele>
        <time>2012-07-07T16:58:04Z</time>
      </trkpt>
      <trkpt lat="45.08643" lon="6.05896">
        <ele>1594</ele>
        <time>2012-07-07T16:58:09Z</time>
      </trkpt>
      <trkpt lat="45.08653" lon="6.05886">
        <ele>1594</ele>
        <time>2012-07-07T16:58:14Z</time>
      </trkpt>
      <trkpt lat="45.0866" lon="6.0588">
        <ele>1594</ele>
        <time>2012-07-07T16:58:19Z</time>
      </trkpt>
      <trkpt lat="45.08668" lon="6.05872">
        <ele>1606</ele>
        <time>2012-07-07T16:58:24Z</time>
      </trkpt>
      <trkpt lat="45.08677" lon="6.05865">
        <ele>1605</ele>
        <time>2012-07-07T16:58:29Z</time>
      </trkpt>
      <trkpt lat="45.08686" lon="6.05857">
        <ele>1605</ele>
        <time>2012-07-07T16:58:34Z</time>
      </trkpt>
      <trkpt lat="45.08697" lon="6.05849">
        <ele>1606</ele>
        <time>2012-07-07T16:58:39Z</time>
      </trkpt>
      <trkpt lat="45.08704" lon="6.05843">
        <ele>1607</ele>
        <time>2012-07-07T16:58:44Z</time>
      </trkpt>
      <trkpt lat="45.08716" lon="6.05835">
        <ele>1608</ele>
        <time>2012-07-07T16:58:49Z</time>
      </trkpt>
      <trkpt lat="45.08726" lon="6.05829">
        <ele>1605</ele>
        <time>2012-07-07T16:58:54Z</time>
      </trkpt>
      <trkpt lat="45.08738" lon="6.05821">
        <ele>1607</ele>
        <time>2012-07-07T16:58:59Z</time>
      </trkpt>
      <trkpt lat="45.08745" lon="6.05815">
        <ele>1607</ele>
        <time>2012-07-07T16:59:04Z</time>
      </trkpt>
      <trkpt lat="45.08755" lon="6.05807">
        <ele>1617</ele>
        <time>2012-07-07T16:59:09Z</time>
      </trkpt>
      <trkpt lat="45.08763" lon="6.05798">
        <ele>1618</ele>
        <time>2012-07-07T16:59:14Z</time>
      </trkpt>
      <trkpt lat="45.08771" lon="6.05787">
        <ele>1618</ele>
        <time>2012-07-07T16:59:19Z</time>
      </trkpt>
      <trkpt lat="45.08778" lon="6.05776">
        <ele>1618</ele>
        <time>2012-07-07T16:59:24Z</time>
      </trkpt>
      <trkpt lat="45.08785" lon="6.05764">
        <ele>1619</ele>
        <time>2012-07-07T16:59:29Z</time>
      </trkpt>
      <trkpt lat="45.08794" lon="6.0575">
        <ele>1618</ele>
        <time>2012-07-07T16:59:34Z</time>
      </trkpt>
      <trkpt lat="45.088" lon="6.05741">
        <ele>1618</ele>
        <time>2012-07-07T16:59:39Z</time>
      </trkpt>
      <trkpt lat="45.08808" lon="6.05726">
        <ele>1619</ele>
        <time>2012-07-07T16:59:44Z</time>
      </trkpt>
      <trkpt lat="45.08813" lon="6.05717">
        <ele>1619</ele>
        <time>2012-07-07T16:59:49Z</time>
      </trkpt>
      <trkpt lat="45.0882" lon="6.05705">
        <ele>1620</ele>
        <time>2012-07-07T16:59:54Z</time>
      </trkpt>
      <trkpt lat="45.08826" lon="6.05693">
        <ele>1621</ele>
        <time>2012-07-07T16:59:59Z</time>
      </trkpt>
      <trkpt lat="45.08832" lon="6.0568">
        <ele>1623</ele>
        <time>2012-07-07T17:00:04Z</time>
      </trkpt>
      <trkpt lat="45.08836" lon="6.05665">
        <ele>1629</ele>
        <time>2012-07-07T17:00:09Z</time>
      </trkpt>
      <trkpt lat="45.08838" lon="6.0565">
        <ele>1634</ele>
        <time>2012-07-07T17:00:14Z</time>
      </trkpt>
      <trkpt lat="45.08835" lon="6.05631">
        <ele>1637</ele>
        <time>2012-07-07T17:00:19Z</time>
      </trkpt>
      <trkpt lat="45.08831" lon="6.05621">
        <ele>1626</ele>
        <time>2012-07-07T17:00:24Z</time>
      </trkpt>
      <trkpt lat="45.08822" lon="6.05607">
        <ele>1627</ele>
        <time>2012-07-07T17:00:29Z</time>
      </trkpt>
      <trkpt lat="45.08816" lon="6.05597">
        <ele>1628</ele>
        <time>2012-07-07T17:00:34Z</time>
      </trkpt>
      <trkpt lat="45.0882" lon="6.05583">
        <ele>1636</ele>
        <time>2012-07-07T17:00:39Z</time>
      </trkpt>
      <trkpt lat="45.08828" lon="6.05589">
        <ele>1632</ele>
        <time>2012-07-07T17:00:44Z</time>
      </trkpt>
      <trkpt lat="45.0884" lon="6.05599">
        <ele>1638</ele>
        <time>2012-07-07T17:00:49Z</time>
      </trkpt>
      <trkpt lat="45.08848" lon="6.05605">
        <ele>1639</ele>
        <time>2012-07-07T17:00:54Z</time>
      </trkpt>
      <trkpt lat="45.08857" lon="6.05612">
        <ele>1640</ele>
        <time>2012-07-07T17:00:59Z</time>
      </trkpt>
      <trkpt lat="45.08866" lon="6.05619">
        <ele>1640</ele>
        <time>2012-07-07T17:01:04Z</time>
      </trkpt>
      <trkpt lat="45.08876" lon="6.05625">
        <ele>1641</ele>
        <time>2012-07-07T17:01:09Z</time>
      </trkpt>
      <trkpt lat="45.08886" lon="6.05633">
        <ele>1642</ele>
        <time>2012-07-07T17:01:14Z</time>
      </trkpt>
      <trkpt lat="45.08893" lon="6.05639">
        <ele>1642</ele>
        <time>2012-07-07T17:01:19Z</time>
      </trkpt>
      <trkpt lat="45.08902" lon="6.05652">
        <ele>1643</ele>
        <time>2012-07-07T17:01:24Z</time>
      </trkpt>
      <trkpt lat="45.08906" lon="6.05666">
        <ele>1644</ele>
        <time>2012-07-07T17:01:29Z</time>
      </trkpt>
      <trkpt lat="45.0891" lon="6.05684">
        <ele>1642</ele>
        <time>2012-07-07T17:01:34Z</time>
      </trkpt>
      <trkpt lat="45.08912" lon="6.05696">
        <ele>1641</ele>
        <time>2012-07-07T17:01:39Z</time>
      </trkpt>
      <trkpt lat="45.08914" lon="6.05714">
        <ele>1641</ele>
        <time>2012-07-07T17:01:44Z</time>
      </trkpt>
      <trkpt lat="45.08914" lon="6.05727">
        <ele>1642</ele>
        <time>2012-07-07T17:01:49Z</time>
      </trkpt>
      <trkpt lat="45.08914" lon="6.05743">
        <ele>1646</ele>
        <time>2012-07-07T17:01:54Z</time>
      </trkpt>
      <trkpt lat="45.08915" lon="6.05758">
        <ele>1647</ele>
        <time>2012-07-07T17:01:59Z</time>
      </trkpt>
      <trkpt lat="45.08916" lon="6.05773">
        <ele>1645</ele>
        <time>2012-07-07T17:02:04Z</time>
      </trkpt>
      <trkpt lat="45.08916" lon="6.05791">
        <ele>1645</ele>
        <time>2012-07-07T17:02:09Z</time>
      </trkpt>
      <trkpt lat="45.08914" lon="6.05805">
        <ele>1646</ele>
        <time>2012-07-07T17:02:14Z</time>
      </trkpt>
      <trkpt lat="45.08912" lon="6.05823">
        <ele>1650</ele>
        <time>2012-07-07T17:02:19Z</time>
      </trkpt>
      <trkpt lat="45.08911" lon="6.05834">
        <ele>1654</ele>
        <time>2012-07-07T17:02:24Z</time>
      </trkpt>
      <trkpt lat="45.08909" lon="6.05851">
        <ele>1652</ele>
        <time>2012-07-07T17:02:29Z</time>
      </trkpt>
      <trkpt lat="45.08907" lon="6.05862">
        <ele>1651</ele>
        <time>2012-07-07T17:02:34Z</time>
      </trkpt>
      <trkpt lat="45.08904" lon="6.05879">
        <ele>1652</ele>
        <time>2012-07-07T17:02:39Z</time>
      </trkpt>
      <trkpt lat="45.08902" lon="6.05891">
        <ele>1653</ele>
        <time>2012-07-07T17:02:44Z</time>
      </trkpt>
      <trkpt lat="45.08898" lon="6.05907">
        <ele>1655</ele>
        <time>2012-07-07T17:02:49Z</time>
      </trkpt>
      <trkpt lat="45.08895" lon="6.05921">
        <ele>1660</ele>
        <time>2012-07-07T17:02:54Z</time>
      </trkpt>
      <trkpt lat="45.08892" lon="6.05935">
        <ele>1659</ele>
        <time>2012-07-07T17:02:59Z</time>
      </trkpt>
      <trkpt lat="45.08889" lon="6.05952">
        <ele>1660</ele>
        <time>2012-07-07T17:03:04Z</time>
      </trkpt>
      <trkpt lat="45.08887" lon="6.05963">
        <ele>1660</ele>
        <time>2012-07-07T17:03:09Z</time>
      </trkpt>
      <trkpt lat="45.08882" lon="6.0598">
        <ele>1661</ele>
        <time>2012-07-07T17:03:14Z</time>
      </trkpt>
      <trkpt lat="45.0888" lon="6.05991">
        <ele>1662</ele>
        <time>2012-07-07T17:03:19Z</time>
      </trkpt>
      <trkpt lat="45.08877" lon="6.06007">
        <ele>1670</ele>
        <time>2012-07-07T17:03:24Z</time>
      </trkpt>
      <trkpt lat="45.08874" lon="6.06017">
        <ele>1670</ele>
        <time>2012-07-07T17:03:29Z</time>
      </trkpt>
      <trkpt lat="45.08868" lon="6.06031">
        <ele>1670</ele>
        <time>2012-07-07T17:03:34Z</time>
      </trkpt>
      <trkpt lat="45.08866" lon="6.06042">
        <ele>1671</ele>
        <time>2012-07-07T17:03:39Z</time>
      </trkpt>
      <trkpt lat="45.0887" lon="6.06053">
        <ele>1672</ele>
        <time>2012-07-07T17:03:44Z</time>
      </trkpt>
      <trkpt lat="45.08881" lon="6.06047">
        <ele>1673</ele>
        <time>2012-07-07T17:03:49Z</time>
      </trkpt>
      <trkpt lat="45.0889" lon="6.06035">
        <ele>1674</ele>
        <time>2012-07-07T17:03:54Z</time>
      </trkpt>
      <trkpt lat="45.08902" lon="6.06023">
        <ele>1674</ele>
        <time>2012-07-07T17:03:59Z</time>
      </trkpt>
      <trkpt lat="45.0891" lon="6.06016">
        <ele>1675</ele>
        <time>2012-07-07T17:04:04Z</time>
      </trkpt>
      <trkpt lat="45.0892" lon="6.06004">
        <ele>1681</ele>
        <time>2012-07-07T17:04:09Z</time>
      </trkpt>
      <trkpt lat="45.08927" lon="6.05996">
        <ele>1679</ele>
        <time>2012-07-07T17:04:14Z</time>
      </trkpt>
      <trkpt lat="45.08938" lon="6.05985">
        <ele>1682</ele>
        <time>2012-07-07T17:04:19Z</time>
      </trkpt>
      <trkpt lat="45.08946" lon="6.05979">
        <ele>1683</ele>
        <time>2012-07-07T17:04:24Z</time>
      </trkpt>
      <trkpt lat="45.08957" lon="6.05968">
        <ele>1684</ele>
        <time>2012-07-07T17:04:29Z</time>
      </trkpt>
      <trkpt lat="45.08964" lon="6.0596">
        <ele>1684</ele>
        <time>2012-07-07T17:04:34Z</time>
      </trkpt>
      <trkpt lat="45.08972" lon="6.05951">
        <ele>1685</ele>
        <time>2012-07-07T17:04:39Z</time>
      </trkpt>
      <trkpt lat="45.08982" lon="6.05939">
        <ele>1685</ele>
        <time>2012-07-07T17:04:44Z</time>
      </trkpt>
      <trkpt lat="45.08989" lon="6.05931">
        <ele>1686</ele>
        <time>2012-07-07T17:04:49Z</time>
      </trkpt>
      <trkpt lat="45.08997" lon="6.05918">
        <ele>1688</ele>
        <time>2012-07-07T17:04:54Z</time>
      </trkpt>
      <trkpt lat="45.09003" lon="6.0591">
        <ele>1691</ele>
        <time>2012-07-07T17:04:59Z</time>
      </trkpt>
      <trkpt lat="45.09012" lon="6.05898">
        <ele>1693</ele>
        <time>2012-07-07T17:05:04Z</time>
      </trkpt>
      <trkpt lat="45.09018" lon="6.05889">
        <ele>1693</ele>
        <time>2012-07-07T17:05:09Z</time>
      </trkpt>
      <trkpt lat="45.09025" lon="6.05879">
        <ele>1694</ele>
        <time>2012-07-07T17:05:14Z</time>
      </trkpt>
      <trkpt lat="45.09032" lon="6.05869">
        <ele>1694</ele>
        <time>2012-07-07T17:05:19Z</time>
      </trkpt>
      <trkpt lat="45.0904" lon="6.05858">
        <ele>1695</ele>
        <time>2012-07-07T17:05:24Z</time>
      </trkpt>
      <trkpt lat="45.09047" lon="6.05848">
        <ele>1696</ele>
        <time>2012-07-07T17:05:29Z</time>
      </trkpt>
      <trkpt lat="45.09054" lon="6.05837">
        <ele>1697</ele>
        <time>2012-07-07T17:05:34Z</time>
      </trkpt>
      <trkpt lat="45.09062" lon="6.05824">
        <ele>1694</ele>
        <time>2012-07-07T17:05:39Z</time>
      </trkpt>
      <trkpt lat="45.09068" lon="6.05815">
        <ele>1694</ele>
        <time>2012-07-07T17:05:44Z</time>
      </trkpt>
      <trkpt lat="45.09075" lon="6.05802">
        <ele>1693</ele>
        <time>2012-07-07T17:05:49Z</time>
      </trkpt>
      <trkpt lat="45.0908" lon="6.05793">
        <ele>1693</ele>
        <time>2012-07-07T17:05:54Z</time>
      </trkpt>
      <trkpt lat="45.09087" lon="6.05779">
        <ele>1708</ele>
        <time>2012-07-07T17:05:59Z</time>
      </trkpt>
      <trkpt lat="45.09092" lon="6.0577">
        <ele>1707</ele>
        <time>2012-07-07T17:06:04Z</time>
      </trkpt>
      <trkpt lat="45.09098" lon="6.05759">
        <ele>1706</ele>
        <time>2012-07-07T17:06:09Z</time>
      </trkpt>
      <trkpt lat="45.09103" lon="6.05747">
        <ele>1704</ele>
        <time>2012-07-07T17:06:14Z</time>
      </trkpt>
      <trkpt lat="45.0911" lon="6.05735">
        <ele>1706</ele>
        <time>2012-07-07T17:06:19Z</time>
      </trkpt>
      <trkpt lat="45.09116" lon="6.05724">
        <ele>1707</ele>
        <time>2012-07-07T17:06:24Z</time>
      </trkpt>
      <trkpt lat="45.09121" lon="6.05711">
        <ele>1708</ele>
        <time>2012-07-07T17:06:29Z</time>
      </trkpt>
      <trkpt lat="45.09127" lon="6.05696">
        <ele>1709</ele>
        <time>2012-07-07T17:06:34Z</time>
      </trkpt>
      <trkpt lat="45.0913" lon="6.05686">
        <ele>1709</ele>
        <time>2012-07-07T17:06:39Z</time>
      </trkpt>
      <trkpt lat="45.09135" lon="6.0567">
        <ele>1711</ele>
        <time>2012-07-07T17:06:44Z</time>
      </trkpt>
      <trkpt lat="45.09138" lon="6.05659">
        <ele>1712</ele>
        <time>2012-07-07T17:06:49Z</time>
      </trkpt>
      <trkpt lat="45.09142" lon="6.05643">
        <ele>1712</ele>
        <time>2012-07-07T17:06:54Z</time>
      </trkpt>
      <trkpt lat="45.09143" lon="6.05632">
        <ele>1712</ele>
        <time>2012-07-07T17:06:59Z</time>
      </trkpt>
      <trkpt lat="45.09143" lon="6.05614">
        <ele>1713</ele>
        <time>2012-07-07T17:07:04Z</time>
      </trkpt>
      <trkpt lat="45.09144" lon="6.05602">
        <ele>1714</ele>
        <time>2012-07-07T17:07:09Z</time>
      </trkpt>
      <trkpt lat="45.09143" lon="6.05586">
        <ele>1715</ele>
        <time>2012-07-07T17:07:14Z</time>
      </trkpt>
      <trkpt lat="45.09142" lon="6.0557">
        <ele>1718</ele>
        <time>2012-07-07T17:07:19Z</time>
      </trkpt>
      <trkpt lat="45.09139" lon="6.05553">
        <ele>1718</ele>
        <time>2012-07-07T17:07:24Z</time>
      </trkpt>
      <trkpt lat="45.09147" lon="6.05542">
        <ele>1720</ele>
        <time>2012-07-07T17:07:29Z</time>
      </trkpt>
      <trkpt lat="45.09153" lon="6.05553">
        <ele>1720</ele>
        <time>2012-07-07T17:07:34Z</time>
      </trkpt>
      <trkpt lat="45.09157" lon="6.05572">
        <ele>1721</ele>
        <time>2012-07-07T17:07:39Z</time>
      </trkpt>
      <trkpt lat="45.09158" lon="6.05584">
        <ele>1720</ele>
        <time>2012-07-07T17:07:44Z</time>
      </trkpt>
      <trkpt lat="45.09161" lon="6.05599">
        <ele>1718</ele>
        <time>2012-07-07T17:07:49Z</time>
      </trkpt>
      <trkpt lat="45.09164" lon="6.05614">
        <ele>1715</ele>
        <time>2012-07-07T17:07:54Z</time>
      </trkpt>
      <trkpt lat="45.09169" lon="6.05631">
        <ele>1736</ele>
        <time>2012-07-07T17:07:59Z</time>
      </trkpt>
      <trkpt lat="45.09172" lon="6.05643">
        <ele>1734</ele>
        <time>2012-07-07T17:08:04Z</time>
      </trkpt>
      <trkpt lat="45.09175" lon="6.05657">
        <ele>1731</ele>
        <time>2012-07-07T17:08:09Z</time>
      </trkpt>
      <trkpt lat="45.09178" lon="6.05673">
        <ele>1729</ele>
        <time>2012-07-07T17:08:14Z</time>
      </trkpt>
      <trkpt lat="45.09181" lon="6.05688">
        <ele>1733</ele>
        <time>2012-07-07T17:08:19Z</time>
      </trkpt>
      <trkpt lat="45.09184" lon="6.05707">
        <ele>1734</ele>
        <time>2012-07-07T17:08:24Z</time>
      </trkpt>
      <trkpt lat="45.09185" lon="6.0572">
        <ele>1734</ele>
        <time>2012-07-07T17:08:29Z</time>
      </trkpt>
      <trkpt lat="45.09184" lon="6.05741">
        <ele>1731</ele>
        <time>2012-07-07T17:08:34Z</time>
      </trkpt>
      <trkpt lat="45.09183" lon="6.05756">
        <ele>1732</ele>
        <time>2012-07-07T17:08:39Z</time>
      </trkpt>
      <trkpt lat="45.0918" lon="6.05777">
        <ele>1735</ele>
        <time>2012-07-07T17:08:44Z</time>
      </trkpt>
      <trkpt lat="45.09179" lon="6.0579">
        <ele>1737</ele>
        <time>2012-07-07T17:08:49Z</time>
      </trkpt>
      <trkpt lat="45.09179" lon="6.05808">
        <ele>1737</ele>
        <time>2012-07-07T17:08:54Z</time>
      </trkpt>
      <trkpt lat="45.09179" lon="6.05821">
        <ele>1736</ele>
        <time>2012-07-07T17:08:59Z</time>
      </trkpt>
      <trkpt lat="45.09178" lon="6.05838">
        <ele>1740</ele>
        <time>2012-07-07T17:09:04Z</time>
      </trkpt>
      <trkpt lat="45.0918" lon="6.05857">
        <ele>1745</ele>
        <time>2012-07-07T17:09:09Z</time>
      </trkpt>
      <trkpt lat="45.0918" lon="6.05869">
        <ele>1747</ele>
        <time>2012-07-07T17:09:14Z</time>
      </trkpt>
      <trkpt lat="45.09178" lon="6.05887">
        <ele>1749</ele>
        <time>2012-07-07T17:09:19Z</time>
      </trkpt>
      <trkpt lat="45.09177" lon="6.05901">
        <ele>1748</ele>
        <time>2012-07-07T17:09:24Z</time>
      </trkpt>
      <trkpt lat="45.09173" lon="6.05919">
        <ele>1749</ele>
        <time>2012-07-07T17:09:29Z</time>
      </trkpt>
      <trkpt lat="45.09169" lon="6.05931">
        <ele>1752</ele>
        <time>2012-07-07T17:09:34Z</time>
      </trkpt>
      <trkpt lat="45.09166" lon="6.05945">
        <ele>1739</ele>
        <time>2012-07-07T17:09:39Z</time>
      </trkpt>
      <trkpt lat="45.09164" lon="6.0596">
        <ele>1739</ele>
        <time>2012-07-07T17:09:44Z</time>
      </trkpt>
      <trkpt lat="45.0916" lon="6.05976">
        <ele>1741</ele>
        <time>2012-07-07T17:09:49Z</time>
      </trkpt>
      <trkpt lat="45.09157" lon="6.05991">
        <ele>1744</ele>
        <time>2012-07-07T17:09:54Z</time>
      </trkpt>
      <trkpt lat="45.09155" lon="6.06006">
        <ele>1749</ele>
        <time>2012-07-07T17:09:59Z</time>
      </trkpt>
      <trkpt lat="45.09151" lon="6.06024">
        <ele>1747</ele>
        <time>2012-07-07T17:10:04Z</time>
      </trkpt>
      <trkpt lat="45.09149" lon="6.06035">
        <ele>1748</ele>
        <time>2012-07-07T17:10:09Z</time>
      </trkpt>
      <trkpt lat="45.09147" lon="6.06053">
        <ele>1749</ele>
        <time>2012-07-07T17:10:14Z</time>
      </trkpt>
      <trkpt lat="45.09146" lon="6.06064">
        <ele>1751</ele>
        <time>2012-07-07T17:10:19Z</time>
      </trkpt>
      <trkpt lat="45.09139" lon="6.06084">
        <ele>1758</ele>
        <time>2012-07-07T17:10:24Z</time>
      </trkpt>
      <trkpt lat="45.09136" lon="6.06096">
        <ele>1758</ele>
        <time>2012-07-07T17:10:29Z</time>
      </trkpt>
      <trkpt lat="45.09131" lon="6.06111">
        <ele>1757</ele>
        <time>2012-07-07T17:10:34Z</time>
      </trkpt>
      <trkpt lat="45.09127" lon="6.06126">
        <ele>1758</ele>
        <time>2012-07-07T17:10:39Z</time>
      </trkpt>
      <trkpt lat="45.09125" lon="6.06139">
        <ele>1759</ele>
        <time>2012-07-07T17:10:44Z</time>
      </trkpt>
      <trkpt lat="45.0912" lon="6.06153">
        <ele>1759</ele>
        <time>2012-07-07T17:10:49Z</time>
      </trkpt>
      <trkpt lat="45.09116" lon="6.06167">
        <ele>1766</ele>
        <time>2012-07-07T17:10:54Z</time>
      </trkpt>
      <trkpt lat="45.09112" lon="6.06184">
        <ele>1767</ele>
        <time>2012-07-07T17:10:59Z</time>
      </trkpt>
      <trkpt lat="45.09111" lon="6.06195">
        <ele>1767</ele>
        <time>2012-07-07T17:11:04Z</time>
      </trkpt>
      <trkpt lat="45.09106" lon="6.06213">
        <ele>1769</ele>
        <time>2012-07-07T17:11:09Z</time>
      </trkpt>
      <trkpt lat="45.09102" lon="6.06225">
        <ele>1769</ele>
        <time>2012-07-07T17:11:14Z</time>
      </trkpt>
      <trkpt lat="45.09099" lon="6.06243">
        <ele>1769</ele>
        <time>2012-07-07T17:11:19Z</time>
      </trkpt>
      <trkpt lat="45.09093" lon="6.06256">
        <ele>1772</ele>
        <time>2012-07-07T17:11:24Z</time>
      </trkpt>
      <trkpt lat="45.09088" lon="6.06272">
        <ele>1775</ele>
        <time>2012-07-07T17:11:29Z</time>
      </trkpt>
      <trkpt lat="45.09086" lon="6.06287">
        <ele>1777</ele>
        <time>2012-07-07T17:11:34Z</time>
      </trkpt>
      <trkpt lat="45.09083" lon="6.06302">
        <ele>1768</ele>
        <time>2012-07-07T17:11:39Z</time>
      </trkpt>
      <trkpt lat="45.0908" lon="6.06316">
        <ele>1771</ele>
        <time>2012-07-07T17:11:44Z</time>
      </trkpt>
      <trkpt lat="45.09079" lon="6.06331">
        <ele>1775</ele>
        <time>2012-07-07T17:11:49Z</time>
      </trkpt>
      <trkpt lat="45.09077" lon="6.06351">
        <ele>1776</ele>
        <time>2012-07-07T17:11:54Z</time>
      </trkpt>
      <trkpt lat="45.09071" lon="6.06364">
        <ele>1776</ele>
        <time>2012-07-07T17:11:59Z</time>
      </trkpt>
      <trkpt lat="45.0907" lon="6.06387">
        <ele>1777</ele>
        <time>2012-07-07T17:12:04Z</time>
      </trkpt>
      <trkpt lat="45.09065" lon="6.06404">
        <ele>1778</ele>
        <time>2012-07-07T17:12:09Z</time>
      </trkpt>
      <trkpt lat="45.09058" lon="6.06435">
        <ele>1780</ele>
        <time>2012-07-07T17:12:14Z</time>
      </trkpt>
      <trkpt lat="45.09054" lon="6.06454">
        <ele>1780</ele>
        <time>2012-07-07T17:12:19Z</time>
      </trkpt>
      <trkpt lat="45.09049" lon="6.0648">
        <ele>1780</ele>
        <time>2012-07-07T17:12:24Z</time>
      </trkpt>
      <trkpt lat="45.09046" lon="6.06509">
        <ele>1784</ele>
        <time>2012-07-07T17:12:29Z</time>
      </trkpt>
      <trkpt lat="45.0905" lon="6.06534">
        <ele>1785</ele>
        <time>2012-07-07T17:12:34Z</time>
      </trkpt>
      <trkpt lat="45.09051" lon="6.06545">
        <ele>1785</ele>
        <time>2012-07-07T17:12:39Z</time>
      </trkpt>
      <trkpt lat="45.09051" lon="6.06529">
        <ele>1785</ele>
        <time>2012-07-07T17:12:44Z</time>
      </trkpt>
      <trkpt lat="45.09074" lon="6.06546">
        <ele>1786</ele>
        <time>2012-07-07T17:12:49Z</time>
      </trkpt>
      <trkpt lat="45.09077" lon="6.0653">
        <ele>1786</ele>
        <time>2012-07-07T17:12:54Z</time>
      </trkpt>
      <trkpt lat="45.09084" lon="6.06512">
        <ele>1790</ele>
        <time>2012-07-07T17:12:59Z</time>
      </trkpt>
      <trkpt lat="45.0909" lon="6.065">
        <ele>1788</ele>
        <time>2012-07-07T17:13:04Z</time>
      </trkpt>
      <trkpt lat="45.09096" lon="6.06483">
        <ele>1790</ele>
        <time>2012-07-07T17:13:09Z</time>
      </trkpt>
      <trkpt lat="45.09097" lon="6.06462">
        <ele>1790</ele>
        <time>2012-07-07T17:13:14Z</time>
      </trkpt>
      <trkpt lat="45.09102" lon="6.06442">
        <ele>1790</ele>
        <time>2012-07-07T17:13:19Z</time>
      </trkpt>
      <trkpt lat="45.09112" lon="6.06423">
        <ele>1790</ele>
        <time>2012-07-07T17:13:24Z</time>
      </trkpt>
      <trkpt lat="45.09118" lon="6.06403">
        <ele>1788</ele>
        <time>2012-07-07T17:13:29Z</time>
      </trkpt>
      <trkpt lat="45.09128" lon="6.06388">
        <ele>1789</ele>
        <time>2012-07-07T17:13:34Z</time>
      </trkpt>
      <trkpt lat="45.09136" lon="6.06375">
        <ele>1789</ele>
        <time>2012-07-07T17:13:39Z</time>
      </trkpt>
      <trkpt lat="45.09147" lon="6.0636">
        <ele>1789</ele>
        <time>2012-07-07T17:13:44Z</time>
      </trkpt>
      <trkpt lat="45.09155" lon="6.06351">
        <ele>1790</ele>
        <time>2012-07-07T17:13:49Z</time>
      </trkpt>
      <trkpt lat="45.09166" lon="6.06334">
        <ele>1792</ele>
        <time>2012-07-07T17:13:54Z</time>
      </trkpt>
      <trkpt lat="45.09173" lon="6.06323">
        <ele>1794</ele>
        <time>2012-07-07T17:13:59Z</time>
      </trkpt>
      <trkpt lat="45.09181" lon="6.06314">
        <ele>1796</ele>
        <time>2012-07-07T17:14:04Z</time>
      </trkpt>
      <trkpt lat="45.0919" lon="6.06323">
        <ele>1797</ele>
        <time>2012-07-07T17:14:09Z</time>
      </trkpt>
      <trkpt lat="45.0919" lon="6.0634">
        <ele>1800</ele>
        <time>2012-07-07T17:14:14Z</time>
      </trkpt>
      <trkpt lat="45.09187" lon="6.06361">
        <ele>1802</ele>
        <time>2012-07-07T17:14:19Z</time>
      </trkpt>
      <trkpt lat="45.09187" lon="6.06381">
        <ele>1803</ele>
        <time>2012-07-07T17:14:24Z</time>
      </trkpt>
      <trkpt lat="45.09186" lon="6.06404">
        <ele>1803</ele>
        <time>2012-07-07T17:14:29Z</time>
      </trkpt>
      <trkpt lat="45.09187" lon="6.0642">
        <ele>1805</ele>
        <time>2012-07-07T17:14:34Z</time>
      </trkpt>
      <trkpt lat="45.09189" lon="6.06444">
        <ele>1806</ele>
        <time>2012-07-07T17:14:39Z</time>
      </trkpt>
      <trkpt lat="45.0919" lon="6.06462">
        <ele>1807</ele>
        <time>2012-07-07T17:14:44Z</time>
      </trkpt>
      <trkpt lat="45.09191" lon="6.0649">
        <ele>1806</ele>
        <time>2012-07-07T17:14:49Z</time>
      </trkpt>
      <trkpt lat="45.09192" lon="6.06509">
        <ele>1807</ele>
        <time>2012-07-07T17:14:54Z</time>
      </trkpt>
      <trkpt lat="45.09196" lon="6.06537">
        <ele>1809</ele>
        <time>2012-07-07T17:14:59Z</time>
      </trkpt>
      <trkpt lat="45.09201" lon="6.06554">
        <ele>1809</ele>
        <time>2012-07-07T17:15:04Z</time>
      </trkpt>
      <trkpt lat="45.09207" lon="6.06575">
        <ele>1810</ele>
        <time>2012-07-07T17:15:09Z</time>
      </trkpt>
      <trkpt lat="45.09215" lon="6.06596">
        <ele>1813</ele>
        <time>2012-07-07T17:15:14Z</time>
      </trkpt>
      <trkpt lat="45.09221" lon="6.0662">
        <ele>1814</ele>
        <time>2012-07-07T17:15:19Z</time>
      </trkpt>
      <trkpt lat="45.0921" lon="6.06647">
        <ele>1814</ele>
        <time>2012-07-07T17:15:24Z</time>
      </trkpt>
      <trkpt lat="45.09193" lon="6.06654">
        <ele>1813</ele>
        <time>2012-07-07T17:15:29Z</time>
      </trkpt>
      <trkpt lat="45.09163" lon="6.06655">
        <ele>1808</ele>
        <time>2012-07-07T17:15:34Z</time>
      </trkpt>
      <trkpt lat="45.09143" lon="6.06653">
        <ele>1806</ele>
        <time>2012-07-07T17:15:39Z</time>
      </trkpt>
      <trkpt lat="45.09115" lon="6.06651">
        <ele>1804</ele>
        <time>2012-07-07T17:15:44Z</time>
      </trkpt>
      <trkpt lat="45.09097" lon="6.06655">
        <ele>1804</ele>
        <time>2012-07-07T17:15:49Z</time>
      </trkpt>
      <trkpt lat="45.09075" lon="6.06674">
        <ele>1806</ele>
        <time>2012-07-07T17:15:54Z</time>
      </trkpt>
      <trkpt lat="45.09067" lon="6.06696">
        <ele>1806</ele>
        <time>2012-07-07T17:15:59Z</time>
      </trkpt>
      <trkpt lat="45.0905" lon="6.06722">
        <ele>1807</ele>
        <time>2012-07-07T17:16:04Z</time>
      </trkpt>
      <trkpt lat="45.09038" lon="6.0675">
        <ele>1812</ele>
        <time>2012-07-07T17:16:09Z</time>
      </trkpt>
      <trkpt lat="45.09029" lon="6.06781">
        <ele>1812</ele>
        <time>2012-07-07T17:16:14Z</time>
      </trkpt>
      <trkpt lat="45.09017" lon="6.06815">
        <ele>1812</ele>
        <time>2012-07-07T17:16:19Z</time>
      </trkpt>
      <trkpt lat="45.09011" lon="6.06837">
        <ele>1811</ele>
        <time>2012-07-07T17:16:24Z</time>
      </trkpt>
      <trkpt lat="45.09015" lon="6.06883">
        <ele>1812</ele>
        <time>2012-07-07T17:16:29Z</time>
      </trkpt>
      <trkpt lat="45.0902" lon="6.06919">
        <ele>1812</ele>
        <time>2012-07-07T17:16:34Z</time>
      </trkpt>
      <trkpt lat="45.09025" lon="6.06972">
        <ele>1813</ele>
        <time>2012-07-07T17:16:39Z</time>
      </trkpt>
      <trkpt lat="45.09034" lon="6.07005">
        <ele>1813</ele>
        <time>2012-07-07T17:16:44Z</time>
      </trkpt>
      <trkpt lat="45.09039" lon="6.07044">
        <ele>1813</ele>
        <time>2012-07-07T17:16:49Z</time>
      </trkpt>
      <trkpt lat="45.09043" lon="6.07071">
        <ele>1813</ele>
        <time>2012-07-07T17:16:54Z</time>
      </trkpt>
      <trkpt lat="45.09044" lon="6.07087">
        <ele>1812</ele>
        <time>2012-07-07T17:16:59Z</time>
      </trkpt>
      <trkpt lat="45.09043" lon="6.07089">
        <ele>1812</ele>
        <time>2012-07-07T17:17:04Z</time>
      </trkpt>
      <trkpt lat="45.09043" lon="6.07089">
        <ele>1812</ele>
        <time>2012-07-07T17:17:09Z</time>
      </trkpt>
      <trkpt lat="45.09042" lon="6.0709">
        <ele>1812</ele>
        <time>2012-07-07T17:17:14Z</time>
      </trkpt>
      <trkpt lat="45.09041" lon="6.07092">
        <ele>1812</ele>
        <time>2012-07-07T17:17:19Z</time>
      </trkpt>
      <trkpt lat="45.09037" lon="6.07093">
        <ele>1812</ele>
        <time>2012-07-07T17:17:24Z</time>
      </trkpt>
      <trkpt lat="45.09036" lon="6.07093">
        <ele>1812</ele>
        <time>2012-07-07T17:17:29Z</time>
      </trkpt>
      <trkpt lat="45.09033" lon="6.07092">
        <ele>1811</ele>
        <time>2012-07-07T17:17:34Z</time>
      </trkpt>
      <trkpt lat="45.09031" lon="6.07092">
        <ele>1811</ele>
        <time>2012-07-07T17:17:39Z</time>
      </trkpt>
      <trkpt lat="45.0903" lon="6.0709">
        <ele>1811</ele>
        <time>2012-07-07T17:17:44Z</time>
      </trkpt>
      <trkpt lat="45.0903" lon="6.07087">
        <ele>1811</ele>
        <time>2012-07-07T17:17:49Z</time>
      </trkpt>
      <trkpt lat="45.0903" lon="6.07086">
        <ele>1811</ele>
        <time>2012-07-07T17:17:54Z</time>
      </trkpt>
      <trkpt lat="45.0903" lon="6.07086">
        <ele>1811</ele>
        <time>2012-07-07T17:17:59Z</time>
      </trkpt>
      <trkpt lat="45.09031" lon="6.07086">
        <ele>1811</ele>
        <time>2012-07-07T17:18:04Z</time>
      </trkpt>
      <trkpt lat="45.0903" lon="6.07086">
        <ele>1811</ele>
        <time>2012-07-07T17:18:09Z</time>
      </trkpt>
      <trkpt lat="45.0903" lon="6.07086">
        <ele>1811</ele>
        <time>2012-07-07T17:18:14Z</time>
      </trkpt>
      <trkpt lat="45.09029" lon="6.07086">
        <ele>1811</ele>
        <time>2012-07-07T17:18:19Z</time>
      </trkpt>
      <trkpt lat="45.09029" lon="6.07086">
        <ele>1811</ele>
        <time>2012-07-07T17:18:24Z</time>
      </trkpt>
      <trkpt lat="45.09029" lon="6.07086">
        <ele>1811</ele>
        <time>2012-07-07T17:18:29Z</time>
      </trkpt>
      <trkpt lat="45.0903" lon="6.07086">
        <ele>1811</ele>
        <time>2012-07-07T17:18:34Z</time>
      </trkpt>
      <trkpt lat="45.0903" lon="6.07085">
        <ele>1811</ele>
        <time>2012-07-07T17:18:39Z</time>
      </trkpt>
      <trkpt lat="45.0903" lon="6.07086">
        <ele>1811</ele>
        <time>2012-07-07T17:18:44Z</time>
      </trkpt>
      <trkpt lat="45.0903" lon="6.07086">
        <ele>1811</ele>
        <time>2012-07-07T17:18:49Z</time>
      </trkpt>
      <trkpt lat="45.0903" lon="6.07085">
        <ele>1811</ele>
        <time>2012-07-07T17:18:54Z</time>
      </trkpt>
      <trkpt lat="45.0903" lon="6.07086">
        <ele>1811</ele>
        <time>2012-07-07T17:18:59Z</time>
      </trkpt>
      <trkpt lat="45.09028" lon="6.07087">
        <ele>1811</ele>
        <time>2012-07-07T17:19:04Z</time>
      </trkpt>
      <trkpt lat="45.09028" lon="6.07087">
        <ele>1811</ele>
        <time>2012-07-07T17:19:09Z</time>
      </trkpt>
      <trkpt lat="45.09026" lon="6.07087">
        <ele>1811</ele>
        <time>2012-07-07T17:19:14Z</time>
      </trkpt>
      <trkpt lat="45.09026" lon="6.07087">
        <ele>1811</ele>
        <time>2012-07-07T17:19:19Z</time>
      </trkpt>
      <trkpt lat="45.09025" lon="6.07085">
        <ele>1811</ele>
        <time>2012-07-07T17:19:24Z</time>
      </trkpt>
      <trkpt lat="45.09024" lon="6.07084">
        <ele>1811</ele>
        <time>2012-07-07T17:19:29Z</time>
      </trkpt>
      <trkpt lat="45.09021" lon="6.07084">
        <ele>1811</ele>
        <time>2012-07-07T17:19:34Z</time>
      </trkpt>
      <trkpt lat="45.09019" lon="6.07084">
        <ele>1811</ele>
        <time>2012-07-07T17:19:39Z</time>
      </trkpt>
      <trkpt lat="45.09018" lon="6.07084">
        <ele>1811</ele>
        <time>2012-07-07T17:19:44Z</time>
      </trkpt>
      <trkpt lat="45.09019" lon="6.07084">
        <ele>1811</ele>
        <time>2012-07-07T17:19:49Z</time>
      </trkpt>
      <trkpt lat="45.09019" lon="6.07084">
        <ele>1811</ele>
        <time>2012-07-07T17:19:54Z</time>
      </trkpt>
      <trkpt lat="45.09019" lon="6.07084">
        <ele>1811</ele>
        <time>2012-07-07T17:19:59Z</time>
      </trkpt>
    </trkseg>
  </trk>
</gpx>